<?xml version="1.0" encoding="UTF-8" standalone="no" ?>
<gpx xmlns="http://www.topografix.com/GPX/1/1" xmlns:xsi="http://www.w3.org/2001/XMLSchema-instance" xsi:schemaLocation="http://www.topografix.com/GPX/1/1 http://www.topografix.com/GPX/1/1/gpx.xsd" version="1.1" creator="VisuGPX - https://www.visugpx.com">
  <metadata>
    <name>Transvolcanique 2012 - Samedi - trajet complet</name>
    <desc><![CDATA[Premier jour de la Transvolcanique 2012 ralliant en 85 km Blanzat au Mont Dore ]]></desc>
  </metadata>
  <trk>
    <name><![CDATA[Transvolcanique 2012 - Samedi - trajet complet_1]]></name>
    <trkseg>
      <trkpt lat="45.82248" lon="3.07898">
        <ele>381</ele>
        <time>2012-09-15T06:56:00Z</time>
      </trkpt>
      <trkpt lat="45.82264" lon="3.07934">
        <ele>379</ele>
        <time>2012-09-15T06:56:15Z</time>
      </trkpt>
      <trkpt lat="45.82268" lon="3.07941">
        <ele>379</ele>
        <time>2012-09-15T06:56:17Z</time>
      </trkpt>
      <trkpt lat="45.82272" lon="3.07949">
        <ele>379</ele>
        <time>2012-09-15T06:56:19Z</time>
      </trkpt>
      <trkpt lat="45.82276" lon="3.07956">
        <ele>379</ele>
        <time>2012-09-15T06:56:21Z</time>
      </trkpt>
      <trkpt lat="45.8228" lon="3.07965">
        <ele>379</ele>
        <time>2012-09-15T06:56:23Z</time>
      </trkpt>
      <trkpt lat="45.82284" lon="3.07974">
        <ele>379</ele>
        <time>2012-09-15T06:56:25Z</time>
      </trkpt>
      <trkpt lat="45.82288" lon="3.07982">
        <ele>379</ele>
        <time>2012-09-15T06:56:27Z</time>
      </trkpt>
      <trkpt lat="45.82293" lon="3.0799">
        <ele>379</ele>
        <time>2012-09-15T06:56:29Z</time>
      </trkpt>
      <trkpt lat="45.82296" lon="3.07999">
        <ele>379</ele>
        <time>2012-09-15T06:56:31Z</time>
      </trkpt>
      <trkpt lat="45.82299" lon="3.0801">
        <ele>379</ele>
        <time>2012-09-15T06:56:33Z</time>
      </trkpt>
      <trkpt lat="45.82304" lon="3.08021">
        <ele>379</ele>
        <time>2012-09-15T06:56:35Z</time>
      </trkpt>
      <trkpt lat="45.82307" lon="3.08033">
        <ele>379</ele>
        <time>2012-09-15T06:56:37Z</time>
      </trkpt>
      <trkpt lat="45.82312" lon="3.08046">
        <ele>379</ele>
        <time>2012-09-15T06:56:39Z</time>
      </trkpt>
      <trkpt lat="45.82317" lon="3.08059">
        <ele>379</ele>
        <time>2012-09-15T06:56:41Z</time>
      </trkpt>
      <trkpt lat="45.82322" lon="3.08073">
        <ele>379</ele>
        <time>2012-09-15T06:56:43Z</time>
      </trkpt>
      <trkpt lat="45.82328" lon="3.08085">
        <ele>379</ele>
        <time>2012-09-15T06:56:45Z</time>
      </trkpt>
      <trkpt lat="45.82334" lon="3.08099">
        <ele>378</ele>
        <time>2012-09-15T06:56:47Z</time>
      </trkpt>
      <trkpt lat="45.8234" lon="3.08113">
        <ele>378</ele>
        <time>2012-09-15T06:56:49Z</time>
      </trkpt>
      <trkpt lat="45.82347" lon="3.08128">
        <ele>377</ele>
        <time>2012-09-15T06:56:51Z</time>
      </trkpt>
      <trkpt lat="45.82353" lon="3.08143">
        <ele>376</ele>
        <time>2012-09-15T06:56:53Z</time>
      </trkpt>
      <trkpt lat="45.82359" lon="3.08158">
        <ele>376</ele>
        <time>2012-09-15T06:56:55Z</time>
      </trkpt>
      <trkpt lat="45.82364" lon="3.08173">
        <ele>375</ele>
        <time>2012-09-15T06:56:57Z</time>
      </trkpt>
      <trkpt lat="45.82369" lon="3.08189">
        <ele>375</ele>
        <time>2012-09-15T06:56:59Z</time>
      </trkpt>
      <trkpt lat="45.82374" lon="3.08205">
        <ele>375</ele>
        <time>2012-09-15T06:57:01Z</time>
      </trkpt>
      <trkpt lat="45.8238" lon="3.08231">
        <ele>375</ele>
        <time>2012-09-15T06:57:04Z</time>
      </trkpt>
      <trkpt lat="45.82384" lon="3.08247">
        <ele>375</ele>
        <time>2012-09-15T06:57:06Z</time>
      </trkpt>
      <trkpt lat="45.82388" lon="3.08264">
        <ele>375</ele>
        <time>2012-09-15T06:57:08Z</time>
      </trkpt>
      <trkpt lat="45.82393" lon="3.08279">
        <ele>375</ele>
        <time>2012-09-15T06:57:10Z</time>
      </trkpt>
      <trkpt lat="45.82399" lon="3.08292">
        <ele>375</ele>
        <time>2012-09-15T06:57:12Z</time>
      </trkpt>
      <trkpt lat="45.82407" lon="3.08303">
        <ele>375</ele>
        <time>2012-09-15T06:57:14Z</time>
      </trkpt>
      <trkpt lat="45.82413" lon="3.08314">
        <ele>375</ele>
        <time>2012-09-15T06:57:16Z</time>
      </trkpt>
      <trkpt lat="45.8242" lon="3.08326">
        <ele>375</ele>
        <time>2012-09-15T06:57:18Z</time>
      </trkpt>
      <trkpt lat="45.82427" lon="3.08335">
        <ele>375</ele>
        <time>2012-09-15T06:57:20Z</time>
      </trkpt>
      <trkpt lat="45.82434" lon="3.08344">
        <ele>374</ele>
        <time>2012-09-15T06:57:22Z</time>
      </trkpt>
      <trkpt lat="45.82441" lon="3.08353">
        <ele>374</ele>
        <time>2012-09-15T06:57:24Z</time>
      </trkpt>
      <trkpt lat="45.82448" lon="3.08364">
        <ele>374</ele>
        <time>2012-09-15T06:57:26Z</time>
      </trkpt>
      <trkpt lat="45.82455" lon="3.08376">
        <ele>374</ele>
        <time>2012-09-15T06:57:28Z</time>
      </trkpt>
      <trkpt lat="45.82463" lon="3.08388">
        <ele>374</ele>
        <time>2012-09-15T06:57:30Z</time>
      </trkpt>
      <trkpt lat="45.82471" lon="3.08401">
        <ele>374</ele>
        <time>2012-09-15T06:57:32Z</time>
      </trkpt>
      <trkpt lat="45.82479" lon="3.08415">
        <ele>373</ele>
        <time>2012-09-15T06:57:34Z</time>
      </trkpt>
      <trkpt lat="45.82486" lon="3.08428">
        <ele>373</ele>
        <time>2012-09-15T06:57:36Z</time>
      </trkpt>
      <trkpt lat="45.82492" lon="3.0844">
        <ele>373</ele>
        <time>2012-09-15T06:57:38Z</time>
      </trkpt>
      <trkpt lat="45.82499" lon="3.08452">
        <ele>373</ele>
        <time>2012-09-15T06:57:40Z</time>
      </trkpt>
      <trkpt lat="45.82506" lon="3.08462">
        <ele>373</ele>
        <time>2012-09-15T06:57:42Z</time>
      </trkpt>
      <trkpt lat="45.82513" lon="3.08472">
        <ele>373</ele>
        <time>2012-09-15T06:57:44Z</time>
      </trkpt>
      <trkpt lat="45.82519" lon="3.08482">
        <ele>373</ele>
        <time>2012-09-15T06:57:46Z</time>
      </trkpt>
      <trkpt lat="45.82526" lon="3.08491">
        <ele>373</ele>
        <time>2012-09-15T06:57:48Z</time>
      </trkpt>
      <trkpt lat="45.82531" lon="3.08499">
        <ele>373</ele>
        <time>2012-09-15T06:57:50Z</time>
      </trkpt>
      <trkpt lat="45.82537" lon="3.08506">
        <ele>373</ele>
        <time>2012-09-15T06:57:52Z</time>
      </trkpt>
      <trkpt lat="45.82543" lon="3.08513">
        <ele>373</ele>
        <time>2012-09-15T06:57:54Z</time>
      </trkpt>
      <trkpt lat="45.8255" lon="3.08518">
        <ele>373</ele>
        <time>2012-09-15T06:57:56Z</time>
      </trkpt>
      <trkpt lat="45.82558" lon="3.08521">
        <ele>373</ele>
        <time>2012-09-15T06:57:58Z</time>
      </trkpt>
      <trkpt lat="45.82567" lon="3.08523">
        <ele>372</ele>
        <time>2012-09-15T06:58:00Z</time>
      </trkpt>
      <trkpt lat="45.82578" lon="3.08523">
        <ele>371</ele>
        <time>2012-09-15T06:58:02Z</time>
      </trkpt>
      <trkpt lat="45.8259" lon="3.08523">
        <ele>370</ele>
        <time>2012-09-15T06:58:04Z</time>
      </trkpt>
      <trkpt lat="45.82602" lon="3.08523">
        <ele>368</ele>
        <time>2012-09-15T06:58:06Z</time>
      </trkpt>
      <trkpt lat="45.82616" lon="3.08523">
        <ele>367</ele>
        <time>2012-09-15T06:58:08Z</time>
      </trkpt>
      <trkpt lat="45.82631" lon="3.08525">
        <ele>366</ele>
        <time>2012-09-15T06:58:10Z</time>
      </trkpt>
      <trkpt lat="45.82645" lon="3.08524">
        <ele>366</ele>
        <time>2012-09-15T06:58:12Z</time>
      </trkpt>
      <trkpt lat="45.82658" lon="3.08519">
        <ele>366</ele>
        <time>2012-09-15T06:58:14Z</time>
      </trkpt>
      <trkpt lat="45.82671" lon="3.08514">
        <ele>366</ele>
        <time>2012-09-15T06:58:16Z</time>
      </trkpt>
      <trkpt lat="45.82684" lon="3.08507">
        <ele>366</ele>
        <time>2012-09-15T06:58:18Z</time>
      </trkpt>
      <trkpt lat="45.82691" lon="3.08495">
        <ele>366</ele>
        <time>2012-09-15T06:58:20Z</time>
      </trkpt>
      <trkpt lat="45.82695" lon="3.0848">
        <ele>365</ele>
        <time>2012-09-15T06:58:22Z</time>
      </trkpt>
      <trkpt lat="45.82699" lon="3.08468">
        <ele>365</ele>
        <time>2012-09-15T06:58:24Z</time>
      </trkpt>
      <trkpt lat="45.82706" lon="3.08458">
        <ele>365</ele>
        <time>2012-09-15T06:58:26Z</time>
      </trkpt>
      <trkpt lat="45.82713" lon="3.08452">
        <ele>365</ele>
        <time>2012-09-15T06:58:28Z</time>
      </trkpt>
      <trkpt lat="45.82722" lon="3.08451">
        <ele>365</ele>
        <time>2012-09-15T06:58:30Z</time>
      </trkpt>
      <trkpt lat="45.82732" lon="3.08452">
        <ele>365</ele>
        <time>2012-09-15T06:58:32Z</time>
      </trkpt>
      <trkpt lat="45.82741" lon="3.08453">
        <ele>365</ele>
        <time>2012-09-15T06:58:34Z</time>
      </trkpt>
      <trkpt lat="45.82751" lon="3.08454">
        <ele>365</ele>
        <time>2012-09-15T06:58:36Z</time>
      </trkpt>
      <trkpt lat="45.82761" lon="3.08454">
        <ele>365</ele>
        <time>2012-09-15T06:58:38Z</time>
      </trkpt>
      <trkpt lat="45.8277" lon="3.08453">
        <ele>365</ele>
        <time>2012-09-15T06:58:40Z</time>
      </trkpt>
      <trkpt lat="45.82777" lon="3.08452">
        <ele>365</ele>
        <time>2012-09-15T06:58:42Z</time>
      </trkpt>
      <trkpt lat="45.82784" lon="3.08451">
        <ele>365</ele>
        <time>2012-09-15T06:58:44Z</time>
      </trkpt>
      <trkpt lat="45.82788" lon="3.0845">
        <ele>365</ele>
        <time>2012-09-15T06:58:46Z</time>
      </trkpt>
      <trkpt lat="45.82793" lon="3.08449">
        <ele>366</ele>
        <time>2012-09-15T06:58:48Z</time>
      </trkpt>
      <trkpt lat="45.82798" lon="3.08448">
        <ele>366</ele>
        <time>2012-09-15T06:58:50Z</time>
      </trkpt>
      <trkpt lat="45.82801" lon="3.08446">
        <ele>367</ele>
        <time>2012-09-15T06:58:52Z</time>
      </trkpt>
      <trkpt lat="45.82805" lon="3.08444">
        <ele>367</ele>
        <time>2012-09-15T06:58:54Z</time>
      </trkpt>
      <trkpt lat="45.82808" lon="3.08442">
        <ele>368</ele>
        <time>2012-09-15T06:58:56Z</time>
      </trkpt>
      <trkpt lat="45.82813" lon="3.08438">
        <ele>368</ele>
        <time>2012-09-15T06:59:00Z</time>
      </trkpt>
      <trkpt lat="45.82815" lon="3.08436">
        <ele>369</ele>
        <time>2012-09-15T06:59:02Z</time>
      </trkpt>
      <trkpt lat="45.82819" lon="3.08434">
        <ele>369</ele>
        <time>2012-09-15T06:59:05Z</time>
      </trkpt>
      <trkpt lat="45.82822" lon="3.08433">
        <ele>370</ele>
        <time>2012-09-15T06:59:07Z</time>
      </trkpt>
      <trkpt lat="45.82827" lon="3.08432">
        <ele>370</ele>
        <time>2012-09-15T06:59:09Z</time>
      </trkpt>
      <trkpt lat="45.82832" lon="3.08429">
        <ele>370</ele>
        <time>2012-09-15T06:59:11Z</time>
      </trkpt>
      <trkpt lat="45.82837" lon="3.08427">
        <ele>370</ele>
        <time>2012-09-15T06:59:13Z</time>
      </trkpt>
      <trkpt lat="45.82842" lon="3.08425">
        <ele>371</ele>
        <time>2012-09-15T06:59:15Z</time>
      </trkpt>
      <trkpt lat="45.82849" lon="3.08422">
        <ele>371</ele>
        <time>2012-09-15T06:59:17Z</time>
      </trkpt>
      <trkpt lat="45.82856" lon="3.08419">
        <ele>371</ele>
        <time>2012-09-15T06:59:19Z</time>
      </trkpt>
      <trkpt lat="45.82864" lon="3.08414">
        <ele>371</ele>
        <time>2012-09-15T06:59:21Z</time>
      </trkpt>
      <trkpt lat="45.82871" lon="3.08411">
        <ele>371</ele>
        <time>2012-09-15T06:59:23Z</time>
      </trkpt>
      <trkpt lat="45.82878" lon="3.08406">
        <ele>371</ele>
        <time>2012-09-15T06:59:25Z</time>
      </trkpt>
      <trkpt lat="45.82885" lon="3.08402">
        <ele>371</ele>
        <time>2012-09-15T06:59:27Z</time>
      </trkpt>
      <trkpt lat="45.82892" lon="3.08398">
        <ele>372</ele>
        <time>2012-09-15T06:59:29Z</time>
      </trkpt>
      <trkpt lat="45.82899" lon="3.08395">
        <ele>373</ele>
        <time>2012-09-15T06:59:31Z</time>
      </trkpt>
      <trkpt lat="45.82906" lon="3.0839">
        <ele>373</ele>
        <time>2012-09-15T06:59:33Z</time>
      </trkpt>
      <trkpt lat="45.82912" lon="3.08386">
        <ele>373</ele>
        <time>2012-09-15T06:59:35Z</time>
      </trkpt>
      <trkpt lat="45.82918" lon="3.08381">
        <ele>374</ele>
        <time>2012-09-15T06:59:37Z</time>
      </trkpt>
      <trkpt lat="45.82925" lon="3.08375">
        <ele>374</ele>
        <time>2012-09-15T06:59:39Z</time>
      </trkpt>
      <trkpt lat="45.82931" lon="3.08369">
        <ele>375</ele>
        <time>2012-09-15T06:59:41Z</time>
      </trkpt>
      <trkpt lat="45.82938" lon="3.08363">
        <ele>375</ele>
        <time>2012-09-15T06:59:43Z</time>
      </trkpt>
      <trkpt lat="45.82944" lon="3.08357">
        <ele>375</ele>
        <time>2012-09-15T06:59:45Z</time>
      </trkpt>
      <trkpt lat="45.8295" lon="3.08351">
        <ele>375</ele>
        <time>2012-09-15T06:59:47Z</time>
      </trkpt>
      <trkpt lat="45.82956" lon="3.08345">
        <ele>375</ele>
        <time>2012-09-15T06:59:49Z</time>
      </trkpt>
      <trkpt lat="45.82962" lon="3.08339">
        <ele>376</ele>
        <time>2012-09-15T06:59:51Z</time>
      </trkpt>
      <trkpt lat="45.82969" lon="3.08332">
        <ele>376</ele>
        <time>2012-09-15T06:59:53Z</time>
      </trkpt>
      <trkpt lat="45.82975" lon="3.08327">
        <ele>376</ele>
        <time>2012-09-15T06:59:55Z</time>
      </trkpt>
      <trkpt lat="45.82981" lon="3.08321">
        <ele>376</ele>
        <time>2012-09-15T06:59:57Z</time>
      </trkpt>
      <trkpt lat="45.82989" lon="3.08319">
        <ele>376</ele>
        <time>2012-09-15T06:59:59Z</time>
      </trkpt>
      <trkpt lat="45.82995" lon="3.08321">
        <ele>377</ele>
        <time>2012-09-15T07:00:01Z</time>
      </trkpt>
      <trkpt lat="45.83" lon="3.08322">
        <ele>377</ele>
        <time>2012-09-15T07:00:03Z</time>
      </trkpt>
      <trkpt lat="45.83006" lon="3.08323">
        <ele>377</ele>
        <time>2012-09-15T07:00:05Z</time>
      </trkpt>
      <trkpt lat="45.83012" lon="3.08322">
        <ele>377</ele>
        <time>2012-09-15T07:00:07Z</time>
      </trkpt>
      <trkpt lat="45.83018" lon="3.0832">
        <ele>377</ele>
        <time>2012-09-15T07:00:09Z</time>
      </trkpt>
      <trkpt lat="45.83025" lon="3.08315">
        <ele>377</ele>
        <time>2012-09-15T07:00:11Z</time>
      </trkpt>
      <trkpt lat="45.83032" lon="3.08307">
        <ele>377</ele>
        <time>2012-09-15T07:00:13Z</time>
      </trkpt>
      <trkpt lat="45.83035" lon="3.08298">
        <ele>377</ele>
        <time>2012-09-15T07:00:15Z</time>
      </trkpt>
      <trkpt lat="45.83035" lon="3.08289">
        <ele>378</ele>
        <time>2012-09-15T07:00:17Z</time>
      </trkpt>
      <trkpt lat="45.83034" lon="3.08279">
        <ele>378</ele>
        <time>2012-09-15T07:00:19Z</time>
      </trkpt>
      <trkpt lat="45.83032" lon="3.08268">
        <ele>378</ele>
        <time>2012-09-15T07:00:21Z</time>
      </trkpt>
      <trkpt lat="45.8303" lon="3.08258">
        <ele>378</ele>
        <time>2012-09-15T07:00:23Z</time>
      </trkpt>
      <trkpt lat="45.83029" lon="3.08247">
        <ele>379</ele>
        <time>2012-09-15T07:00:25Z</time>
      </trkpt>
      <trkpt lat="45.83027" lon="3.08237">
        <ele>379</ele>
        <time>2012-09-15T07:00:27Z</time>
      </trkpt>
      <trkpt lat="45.83026" lon="3.08226">
        <ele>379</ele>
        <time>2012-09-15T07:00:29Z</time>
      </trkpt>
      <trkpt lat="45.83023" lon="3.08216">
        <ele>379</ele>
        <time>2012-09-15T07:00:31Z</time>
      </trkpt>
      <trkpt lat="45.83022" lon="3.08205">
        <ele>379</ele>
        <time>2012-09-15T07:00:33Z</time>
      </trkpt>
      <trkpt lat="45.8302" lon="3.08194">
        <ele>379</ele>
        <time>2012-09-15T07:00:35Z</time>
      </trkpt>
      <trkpt lat="45.83018" lon="3.08183">
        <ele>379</ele>
        <time>2012-09-15T07:00:37Z</time>
      </trkpt>
      <trkpt lat="45.83016" lon="3.08172">
        <ele>379</ele>
        <time>2012-09-15T07:00:39Z</time>
      </trkpt>
      <trkpt lat="45.83015" lon="3.08161">
        <ele>379</ele>
        <time>2012-09-15T07:00:41Z</time>
      </trkpt>
      <trkpt lat="45.83013" lon="3.08151">
        <ele>379</ele>
        <time>2012-09-15T07:00:43Z</time>
      </trkpt>
      <trkpt lat="45.83011" lon="3.0814">
        <ele>380</ele>
        <time>2012-09-15T07:00:45Z</time>
      </trkpt>
      <trkpt lat="45.83009" lon="3.0813">
        <ele>380</ele>
        <time>2012-09-15T07:00:47Z</time>
      </trkpt>
      <trkpt lat="45.83007" lon="3.0812">
        <ele>380</ele>
        <time>2012-09-15T07:00:49Z</time>
      </trkpt>
      <trkpt lat="45.83005" lon="3.0811">
        <ele>381</ele>
        <time>2012-09-15T07:00:51Z</time>
      </trkpt>
      <trkpt lat="45.83003" lon="3.081">
        <ele>381</ele>
        <time>2012-09-15T07:00:53Z</time>
      </trkpt>
      <trkpt lat="45.83001" lon="3.0809">
        <ele>381</ele>
        <time>2012-09-15T07:00:55Z</time>
      </trkpt>
      <trkpt lat="45.82999" lon="3.08081">
        <ele>382</ele>
        <time>2012-09-15T07:00:57Z</time>
      </trkpt>
      <trkpt lat="45.82998" lon="3.08073">
        <ele>382</ele>
        <time>2012-09-15T07:00:59Z</time>
      </trkpt>
      <trkpt lat="45.82996" lon="3.08065">
        <ele>382</ele>
        <time>2012-09-15T07:01:01Z</time>
      </trkpt>
      <trkpt lat="45.82994" lon="3.08058">
        <ele>382</ele>
        <time>2012-09-15T07:01:03Z</time>
      </trkpt>
      <trkpt lat="45.82993" lon="3.0805">
        <ele>382</ele>
        <time>2012-09-15T07:01:05Z</time>
      </trkpt>
      <trkpt lat="45.82991" lon="3.08042">
        <ele>382</ele>
        <time>2012-09-15T07:01:07Z</time>
      </trkpt>
      <trkpt lat="45.8299" lon="3.08033">
        <ele>383</ele>
        <time>2012-09-15T07:01:09Z</time>
      </trkpt>
      <trkpt lat="45.82989" lon="3.08025">
        <ele>383</ele>
        <time>2012-09-15T07:01:11Z</time>
      </trkpt>
      <trkpt lat="45.82987" lon="3.08016">
        <ele>383</ele>
        <time>2012-09-15T07:01:13Z</time>
      </trkpt>
      <trkpt lat="45.82986" lon="3.08007">
        <ele>384</ele>
        <time>2012-09-15T07:01:15Z</time>
      </trkpt>
      <trkpt lat="45.82983" lon="3.07998">
        <ele>385</ele>
        <time>2012-09-15T07:01:17Z</time>
      </trkpt>
      <trkpt lat="45.82981" lon="3.07991">
        <ele>385</ele>
        <time>2012-09-15T07:01:19Z</time>
      </trkpt>
      <trkpt lat="45.82979" lon="3.07982">
        <ele>386</ele>
        <time>2012-09-15T07:01:21Z</time>
      </trkpt>
      <trkpt lat="45.82978" lon="3.07974">
        <ele>386</ele>
        <time>2012-09-15T07:01:23Z</time>
      </trkpt>
      <trkpt lat="45.82976" lon="3.07965">
        <ele>387</ele>
        <time>2012-09-15T07:01:25Z</time>
      </trkpt>
      <trkpt lat="45.82973" lon="3.07958">
        <ele>387</ele>
        <time>2012-09-15T07:01:27Z</time>
      </trkpt>
      <trkpt lat="45.82971" lon="3.0795">
        <ele>388</ele>
        <time>2012-09-15T07:01:29Z</time>
      </trkpt>
      <trkpt lat="45.82968" lon="3.07941">
        <ele>389</ele>
        <time>2012-09-15T07:01:31Z</time>
      </trkpt>
      <trkpt lat="45.82967" lon="3.07933">
        <ele>390</ele>
        <time>2012-09-15T07:01:33Z</time>
      </trkpt>
      <trkpt lat="45.82964" lon="3.07924">
        <ele>391</ele>
        <time>2012-09-15T07:01:35Z</time>
      </trkpt>
      <trkpt lat="45.82963" lon="3.07916">
        <ele>392</ele>
        <time>2012-09-15T07:01:37Z</time>
      </trkpt>
      <trkpt lat="45.82961" lon="3.07909">
        <ele>393</ele>
        <time>2012-09-15T07:01:39Z</time>
      </trkpt>
      <trkpt lat="45.82957" lon="3.07901">
        <ele>393</ele>
        <time>2012-09-15T07:01:41Z</time>
      </trkpt>
      <trkpt lat="45.82956" lon="3.07891">
        <ele>394</ele>
        <time>2012-09-15T07:01:43Z</time>
      </trkpt>
      <trkpt lat="45.82954" lon="3.07882">
        <ele>394</ele>
        <time>2012-09-15T07:01:45Z</time>
      </trkpt>
      <trkpt lat="45.82951" lon="3.07874">
        <ele>395</ele>
        <time>2012-09-15T07:01:47Z</time>
      </trkpt>
      <trkpt lat="45.82946" lon="3.07865">
        <ele>396</ele>
        <time>2012-09-15T07:01:49Z</time>
      </trkpt>
      <trkpt lat="45.82943" lon="3.07857">
        <ele>397</ele>
        <time>2012-09-15T07:01:51Z</time>
      </trkpt>
      <trkpt lat="45.82939" lon="3.07848">
        <ele>397</ele>
        <time>2012-09-15T07:01:53Z</time>
      </trkpt>
      <trkpt lat="45.82936" lon="3.07839">
        <ele>398</ele>
        <time>2012-09-15T07:01:55Z</time>
      </trkpt>
      <trkpt lat="45.82934" lon="3.07831">
        <ele>398</ele>
        <time>2012-09-15T07:01:57Z</time>
      </trkpt>
      <trkpt lat="45.82931" lon="3.07821">
        <ele>399</ele>
        <time>2012-09-15T07:01:59Z</time>
      </trkpt>
      <trkpt lat="45.8293" lon="3.07812">
        <ele>399</ele>
        <time>2012-09-15T07:02:01Z</time>
      </trkpt>
      <trkpt lat="45.8293" lon="3.07803">
        <ele>399</ele>
        <time>2012-09-15T07:02:03Z</time>
      </trkpt>
      <trkpt lat="45.82929" lon="3.07794">
        <ele>399</ele>
        <time>2012-09-15T07:02:05Z</time>
      </trkpt>
      <trkpt lat="45.8293" lon="3.07784">
        <ele>400</ele>
        <time>2012-09-15T07:02:07Z</time>
      </trkpt>
      <trkpt lat="45.82931" lon="3.07775">
        <ele>401</ele>
        <time>2012-09-15T07:02:09Z</time>
      </trkpt>
      <trkpt lat="45.8293" lon="3.07766">
        <ele>402</ele>
        <time>2012-09-15T07:02:11Z</time>
      </trkpt>
      <trkpt lat="45.82928" lon="3.07757">
        <ele>403</ele>
        <time>2012-09-15T07:02:13Z</time>
      </trkpt>
      <trkpt lat="45.82927" lon="3.07748">
        <ele>403</ele>
        <time>2012-09-15T07:02:15Z</time>
      </trkpt>
      <trkpt lat="45.82926" lon="3.07738">
        <ele>404</ele>
        <time>2012-09-15T07:02:17Z</time>
      </trkpt>
      <trkpt lat="45.82925" lon="3.07729">
        <ele>404</ele>
        <time>2012-09-15T07:02:19Z</time>
      </trkpt>
      <trkpt lat="45.8292" lon="3.07723">
        <ele>405</ele>
        <time>2012-09-15T07:02:21Z</time>
      </trkpt>
      <trkpt lat="45.82912" lon="3.07722">
        <ele>405</ele>
        <time>2012-09-15T07:02:23Z</time>
      </trkpt>
      <trkpt lat="45.82902" lon="3.07725">
        <ele>405</ele>
        <time>2012-09-15T07:02:25Z</time>
      </trkpt>
      <trkpt lat="45.82893" lon="3.07729">
        <ele>405</ele>
        <time>2012-09-15T07:02:27Z</time>
      </trkpt>
      <trkpt lat="45.82885" lon="3.07733">
        <ele>405</ele>
        <time>2012-09-15T07:02:29Z</time>
      </trkpt>
      <trkpt lat="45.82875" lon="3.07734">
        <ele>405</ele>
        <time>2012-09-15T07:02:31Z</time>
      </trkpt>
      <trkpt lat="45.82867" lon="3.07733">
        <ele>405</ele>
        <time>2012-09-15T07:02:33Z</time>
      </trkpt>
      <trkpt lat="45.8286" lon="3.07726">
        <ele>405</ele>
        <time>2012-09-15T07:02:35Z</time>
      </trkpt>
      <trkpt lat="45.82856" lon="3.07715">
        <ele>405</ele>
        <time>2012-09-15T07:02:37Z</time>
      </trkpt>
      <trkpt lat="45.82853" lon="3.07704">
        <ele>405</ele>
        <time>2012-09-15T07:02:39Z</time>
      </trkpt>
      <trkpt lat="45.8285" lon="3.07692">
        <ele>405</ele>
        <time>2012-09-15T07:02:41Z</time>
      </trkpt>
      <trkpt lat="45.82844" lon="3.07682">
        <ele>405</ele>
        <time>2012-09-15T07:02:43Z</time>
      </trkpt>
      <trkpt lat="45.82835" lon="3.07673">
        <ele>405</ele>
        <time>2012-09-15T07:02:45Z</time>
      </trkpt>
      <trkpt lat="45.82826" lon="3.07664">
        <ele>405</ele>
        <time>2012-09-15T07:02:47Z</time>
      </trkpt>
      <trkpt lat="45.82817" lon="3.07654">
        <ele>404</ele>
        <time>2012-09-15T07:02:49Z</time>
      </trkpt>
      <trkpt lat="45.8281" lon="3.07644">
        <ele>404</ele>
        <time>2012-09-15T07:02:51Z</time>
      </trkpt>
      <trkpt lat="45.82801" lon="3.07636">
        <ele>404</ele>
        <time>2012-09-15T07:02:53Z</time>
      </trkpt>
      <trkpt lat="45.82793" lon="3.07627">
        <ele>404</ele>
        <time>2012-09-15T07:02:55Z</time>
      </trkpt>
      <trkpt lat="45.82785" lon="3.07617">
        <ele>404</ele>
        <time>2012-09-15T07:02:57Z</time>
      </trkpt>
      <trkpt lat="45.8278" lon="3.07604">
        <ele>404</ele>
        <time>2012-09-15T07:02:59Z</time>
      </trkpt>
      <trkpt lat="45.82774" lon="3.07591">
        <ele>404</ele>
        <time>2012-09-15T07:03:01Z</time>
      </trkpt>
      <trkpt lat="45.82769" lon="3.07578">
        <ele>404</ele>
        <time>2012-09-15T07:03:03Z</time>
      </trkpt>
      <trkpt lat="45.82763" lon="3.07564">
        <ele>404</ele>
        <time>2012-09-15T07:03:05Z</time>
      </trkpt>
      <trkpt lat="45.82758" lon="3.07551">
        <ele>404</ele>
        <time>2012-09-15T07:03:07Z</time>
      </trkpt>
      <trkpt lat="45.82752" lon="3.07539">
        <ele>404</ele>
        <time>2012-09-15T07:03:09Z</time>
      </trkpt>
      <trkpt lat="45.82746" lon="3.07526">
        <ele>404</ele>
        <time>2012-09-15T07:03:11Z</time>
      </trkpt>
      <trkpt lat="45.8274" lon="3.07514">
        <ele>404</ele>
        <time>2012-09-15T07:03:13Z</time>
      </trkpt>
      <trkpt lat="45.82734" lon="3.07504">
        <ele>404</ele>
        <time>2012-09-15T07:03:15Z</time>
      </trkpt>
      <trkpt lat="45.82727" lon="3.07494">
        <ele>404</ele>
        <time>2012-09-15T07:03:17Z</time>
      </trkpt>
      <trkpt lat="45.82719" lon="3.07485">
        <ele>404</ele>
        <time>2012-09-15T07:03:19Z</time>
      </trkpt>
      <trkpt lat="45.82711" lon="3.07474">
        <ele>404</ele>
        <time>2012-09-15T07:03:21Z</time>
      </trkpt>
      <trkpt lat="45.82707" lon="3.07461">
        <ele>404</ele>
        <time>2012-09-15T07:03:23Z</time>
      </trkpt>
      <trkpt lat="45.82706" lon="3.07446">
        <ele>404</ele>
        <time>2012-09-15T07:03:25Z</time>
      </trkpt>
      <trkpt lat="45.82704" lon="3.0743">
        <ele>404</ele>
        <time>2012-09-15T07:03:27Z</time>
      </trkpt>
      <trkpt lat="45.82702" lon="3.07415">
        <ele>404</ele>
        <time>2012-09-15T07:03:29Z</time>
      </trkpt>
      <trkpt lat="45.82701" lon="3.07397">
        <ele>404</ele>
        <time>2012-09-15T07:03:31Z</time>
      </trkpt>
      <trkpt lat="45.82701" lon="3.07379">
        <ele>404</ele>
        <time>2012-09-15T07:03:33Z</time>
      </trkpt>
      <trkpt lat="45.827" lon="3.07361">
        <ele>404</ele>
        <time>2012-09-15T07:03:35Z</time>
      </trkpt>
      <trkpt lat="45.82701" lon="3.07342">
        <ele>404</ele>
        <time>2012-09-15T07:03:37Z</time>
      </trkpt>
      <trkpt lat="45.827" lon="3.07323">
        <ele>404</ele>
        <time>2012-09-15T07:03:39Z</time>
      </trkpt>
      <trkpt lat="45.82701" lon="3.07304">
        <ele>404</ele>
        <time>2012-09-15T07:03:41Z</time>
      </trkpt>
      <trkpt lat="45.82704" lon="3.07287">
        <ele>404</ele>
        <time>2012-09-15T07:03:43Z</time>
      </trkpt>
      <trkpt lat="45.82707" lon="3.0727">
        <ele>404</ele>
        <time>2012-09-15T07:03:45Z</time>
      </trkpt>
      <trkpt lat="45.82712" lon="3.07254">
        <ele>404</ele>
        <time>2012-09-15T07:03:47Z</time>
      </trkpt>
      <trkpt lat="45.82718" lon="3.0724">
        <ele>404</ele>
        <time>2012-09-15T07:03:49Z</time>
      </trkpt>
      <trkpt lat="45.82725" lon="3.07227">
        <ele>404</ele>
        <time>2012-09-15T07:03:51Z</time>
      </trkpt>
      <trkpt lat="45.8273" lon="3.07212">
        <ele>404</ele>
        <time>2012-09-15T07:03:53Z</time>
      </trkpt>
      <trkpt lat="45.82734" lon="3.07198">
        <ele>404</ele>
        <time>2012-09-15T07:03:55Z</time>
      </trkpt>
      <trkpt lat="45.82737" lon="3.07184">
        <ele>404</ele>
        <time>2012-09-15T07:03:57Z</time>
      </trkpt>
      <trkpt lat="45.82738" lon="3.0717">
        <ele>404</ele>
        <time>2012-09-15T07:03:59Z</time>
      </trkpt>
      <trkpt lat="45.82738" lon="3.07156">
        <ele>404</ele>
        <time>2012-09-15T07:04:01Z</time>
      </trkpt>
      <trkpt lat="45.82736" lon="3.07143">
        <ele>404</ele>
        <time>2012-09-15T07:04:03Z</time>
      </trkpt>
      <trkpt lat="45.82733" lon="3.07132">
        <ele>404</ele>
        <time>2012-09-15T07:04:05Z</time>
      </trkpt>
      <trkpt lat="45.8273" lon="3.0712">
        <ele>405</ele>
        <time>2012-09-15T07:04:07Z</time>
      </trkpt>
      <trkpt lat="45.82728" lon="3.07107">
        <ele>405</ele>
        <time>2012-09-15T07:04:09Z</time>
      </trkpt>
      <trkpt lat="45.82727" lon="3.07095">
        <ele>405</ele>
        <time>2012-09-15T07:04:11Z</time>
      </trkpt>
      <trkpt lat="45.82724" lon="3.07084">
        <ele>406</ele>
        <time>2012-09-15T07:04:13Z</time>
      </trkpt>
      <trkpt lat="45.82722" lon="3.07072">
        <ele>407</ele>
        <time>2012-09-15T07:04:15Z</time>
      </trkpt>
      <trkpt lat="45.8272" lon="3.07061">
        <ele>407</ele>
        <time>2012-09-15T07:04:17Z</time>
      </trkpt>
      <trkpt lat="45.82717" lon="3.07049">
        <ele>408</ele>
        <time>2012-09-15T07:04:19Z</time>
      </trkpt>
      <trkpt lat="45.82713" lon="3.07038">
        <ele>409</ele>
        <time>2012-09-15T07:04:21Z</time>
      </trkpt>
      <trkpt lat="45.82709" lon="3.07028">
        <ele>410</ele>
        <time>2012-09-15T07:04:23Z</time>
      </trkpt>
      <trkpt lat="45.82705" lon="3.07018">
        <ele>411</ele>
        <time>2012-09-15T07:04:25Z</time>
      </trkpt>
      <trkpt lat="45.827" lon="3.07008">
        <ele>412</ele>
        <time>2012-09-15T07:04:27Z</time>
      </trkpt>
      <trkpt lat="45.82696" lon="3.06999">
        <ele>412</ele>
        <time>2012-09-15T07:04:29Z</time>
      </trkpt>
      <trkpt lat="45.82694" lon="3.06989">
        <ele>413</ele>
        <time>2012-09-15T07:04:31Z</time>
      </trkpt>
      <trkpt lat="45.82692" lon="3.06978">
        <ele>413</ele>
        <time>2012-09-15T07:04:33Z</time>
      </trkpt>
      <trkpt lat="45.82692" lon="3.06967">
        <ele>414</ele>
        <time>2012-09-15T07:04:35Z</time>
      </trkpt>
      <trkpt lat="45.82693" lon="3.06958">
        <ele>414</ele>
        <time>2012-09-15T07:04:37Z</time>
      </trkpt>
      <trkpt lat="45.82696" lon="3.06949">
        <ele>415</ele>
        <time>2012-09-15T07:04:39Z</time>
      </trkpt>
      <trkpt lat="45.82699" lon="3.06941">
        <ele>415</ele>
        <time>2012-09-15T07:04:41Z</time>
      </trkpt>
      <trkpt lat="45.82703" lon="3.06934">
        <ele>416</ele>
        <time>2012-09-15T07:04:43Z</time>
      </trkpt>
      <trkpt lat="45.82708" lon="3.06927">
        <ele>417</ele>
        <time>2012-09-15T07:04:45Z</time>
      </trkpt>
      <trkpt lat="45.82711" lon="3.06921">
        <ele>417</ele>
        <time>2012-09-15T07:04:47Z</time>
      </trkpt>
      <trkpt lat="45.82716" lon="3.06914">
        <ele>418</ele>
        <time>2012-09-15T07:04:49Z</time>
      </trkpt>
      <trkpt lat="45.8272" lon="3.06908">
        <ele>419</ele>
        <time>2012-09-15T07:04:51Z</time>
      </trkpt>
      <trkpt lat="45.82723" lon="3.06901">
        <ele>419</ele>
        <time>2012-09-15T07:04:53Z</time>
      </trkpt>
      <trkpt lat="45.82727" lon="3.06894">
        <ele>420</ele>
        <time>2012-09-15T07:04:55Z</time>
      </trkpt>
      <trkpt lat="45.82731" lon="3.06888">
        <ele>421</ele>
        <time>2012-09-15T07:04:57Z</time>
      </trkpt>
      <trkpt lat="45.82736" lon="3.06882">
        <ele>422</ele>
        <time>2012-09-15T07:04:59Z</time>
      </trkpt>
      <trkpt lat="45.82742" lon="3.06877">
        <ele>422</ele>
        <time>2012-09-15T07:05:01Z</time>
      </trkpt>
      <trkpt lat="45.82747" lon="3.06871">
        <ele>423</ele>
        <time>2012-09-15T07:05:03Z</time>
      </trkpt>
      <trkpt lat="45.82752" lon="3.06865">
        <ele>424</ele>
        <time>2012-09-15T07:05:05Z</time>
      </trkpt>
      <trkpt lat="45.82757" lon="3.06859">
        <ele>424</ele>
        <time>2012-09-15T07:05:07Z</time>
      </trkpt>
      <trkpt lat="45.82762" lon="3.06852">
        <ele>425</ele>
        <time>2012-09-15T07:05:09Z</time>
      </trkpt>
      <trkpt lat="45.82766" lon="3.06845">
        <ele>425</ele>
        <time>2012-09-15T07:05:11Z</time>
      </trkpt>
      <trkpt lat="45.82771" lon="3.06838">
        <ele>425</ele>
        <time>2012-09-15T07:05:13Z</time>
      </trkpt>
      <trkpt lat="45.82775" lon="3.0683">
        <ele>425</ele>
        <time>2012-09-15T07:05:15Z</time>
      </trkpt>
      <trkpt lat="45.82779" lon="3.06821">
        <ele>425</ele>
        <time>2012-09-15T07:05:17Z</time>
      </trkpt>
      <trkpt lat="45.82783" lon="3.06812">
        <ele>425</ele>
        <time>2012-09-15T07:05:19Z</time>
      </trkpt>
      <trkpt lat="45.82787" lon="3.06803">
        <ele>425</ele>
        <time>2012-09-15T07:05:21Z</time>
      </trkpt>
      <trkpt lat="45.8279" lon="3.06793">
        <ele>425</ele>
        <time>2012-09-15T07:05:23Z</time>
      </trkpt>
      <trkpt lat="45.82794" lon="3.06785">
        <ele>425</ele>
        <time>2012-09-15T07:05:25Z</time>
      </trkpt>
      <trkpt lat="45.82798" lon="3.06776">
        <ele>425</ele>
        <time>2012-09-15T07:05:27Z</time>
      </trkpt>
      <trkpt lat="45.82801" lon="3.06767">
        <ele>425</ele>
        <time>2012-09-15T07:05:29Z</time>
      </trkpt>
      <trkpt lat="45.82805" lon="3.06758">
        <ele>425</ele>
        <time>2012-09-15T07:05:31Z</time>
      </trkpt>
      <trkpt lat="45.82809" lon="3.06749">
        <ele>425</ele>
        <time>2012-09-15T07:05:33Z</time>
      </trkpt>
      <trkpt lat="45.82813" lon="3.0674">
        <ele>425</ele>
        <time>2012-09-15T07:05:35Z</time>
      </trkpt>
      <trkpt lat="45.82817" lon="3.06731">
        <ele>425</ele>
        <time>2012-09-15T07:05:37Z</time>
      </trkpt>
      <trkpt lat="45.82821" lon="3.06723">
        <ele>425</ele>
        <time>2012-09-15T07:05:39Z</time>
      </trkpt>
      <trkpt lat="45.82825" lon="3.06714">
        <ele>425</ele>
        <time>2012-09-15T07:05:41Z</time>
      </trkpt>
      <trkpt lat="45.8283" lon="3.06706">
        <ele>425</ele>
        <time>2012-09-15T07:05:43Z</time>
      </trkpt>
      <trkpt lat="45.82834" lon="3.06698">
        <ele>426</ele>
        <time>2012-09-15T07:05:45Z</time>
      </trkpt>
      <trkpt lat="45.82838" lon="3.06689">
        <ele>426</ele>
        <time>2012-09-15T07:05:47Z</time>
      </trkpt>
      <trkpt lat="45.82842" lon="3.0668">
        <ele>427</ele>
        <time>2012-09-15T07:05:49Z</time>
      </trkpt>
      <trkpt lat="45.82845" lon="3.06672">
        <ele>427</ele>
        <time>2012-09-15T07:05:51Z</time>
      </trkpt>
      <trkpt lat="45.82848" lon="3.06663">
        <ele>428</ele>
        <time>2012-09-15T07:05:53Z</time>
      </trkpt>
      <trkpt lat="45.82851" lon="3.06655">
        <ele>428</ele>
        <time>2012-09-15T07:05:55Z</time>
      </trkpt>
      <trkpt lat="45.82854" lon="3.06647">
        <ele>428</ele>
        <time>2012-09-15T07:05:57Z</time>
      </trkpt>
      <trkpt lat="45.82857" lon="3.0664">
        <ele>429</ele>
        <time>2012-09-15T07:05:59Z</time>
      </trkpt>
      <trkpt lat="45.8286" lon="3.06633">
        <ele>429</ele>
        <time>2012-09-15T07:06:01Z</time>
      </trkpt>
      <trkpt lat="45.82864" lon="3.06626">
        <ele>430</ele>
        <time>2012-09-15T07:06:03Z</time>
      </trkpt>
      <trkpt lat="45.82866" lon="3.0662">
        <ele>430</ele>
        <time>2012-09-15T07:06:05Z</time>
      </trkpt>
      <trkpt lat="45.82868" lon="3.06613">
        <ele>431</ele>
        <time>2012-09-15T07:06:07Z</time>
      </trkpt>
      <trkpt lat="45.82871" lon="3.06607">
        <ele>432</ele>
        <time>2012-09-15T07:06:09Z</time>
      </trkpt>
      <trkpt lat="45.82873" lon="3.066">
        <ele>432</ele>
        <time>2012-09-15T07:06:11Z</time>
      </trkpt>
      <trkpt lat="45.82875" lon="3.06594">
        <ele>433</ele>
        <time>2012-09-15T07:06:13Z</time>
      </trkpt>
      <trkpt lat="45.82877" lon="3.06588">
        <ele>434</ele>
        <time>2012-09-15T07:06:15Z</time>
      </trkpt>
      <trkpt lat="45.82879" lon="3.06582">
        <ele>434</ele>
        <time>2012-09-15T07:06:17Z</time>
      </trkpt>
      <trkpt lat="45.8288" lon="3.06577">
        <ele>435</ele>
        <time>2012-09-15T07:06:19Z</time>
      </trkpt>
      <trkpt lat="45.82882" lon="3.06572">
        <ele>436</ele>
        <time>2012-09-15T07:06:21Z</time>
      </trkpt>
      <trkpt lat="45.82885" lon="3.06568">
        <ele>436</ele>
        <time>2012-09-15T07:06:23Z</time>
      </trkpt>
      <trkpt lat="45.82889" lon="3.06565">
        <ele>437</ele>
        <time>2012-09-15T07:06:25Z</time>
      </trkpt>
      <trkpt lat="45.82893" lon="3.06563">
        <ele>438</ele>
        <time>2012-09-15T07:06:27Z</time>
      </trkpt>
      <trkpt lat="45.82896" lon="3.06562">
        <ele>438</ele>
        <time>2012-09-15T07:06:29Z</time>
      </trkpt>
      <trkpt lat="45.829" lon="3.0656">
        <ele>439</ele>
        <time>2012-09-15T07:06:31Z</time>
      </trkpt>
      <trkpt lat="45.82905" lon="3.06558">
        <ele>440</ele>
        <time>2012-09-15T07:06:33Z</time>
      </trkpt>
      <trkpt lat="45.82909" lon="3.06557">
        <ele>440</ele>
        <time>2012-09-15T07:06:35Z</time>
      </trkpt>
      <trkpt lat="45.82912" lon="3.06554">
        <ele>440</ele>
        <time>2012-09-15T07:06:37Z</time>
      </trkpt>
      <trkpt lat="45.82917" lon="3.06553">
        <ele>441</ele>
        <time>2012-09-15T07:06:39Z</time>
      </trkpt>
      <trkpt lat="45.82922" lon="3.06551">
        <ele>442</ele>
        <time>2012-09-15T07:06:41Z</time>
      </trkpt>
      <trkpt lat="45.82927" lon="3.06549">
        <ele>442</ele>
        <time>2012-09-15T07:06:43Z</time>
      </trkpt>
      <trkpt lat="45.82931" lon="3.06546">
        <ele>443</ele>
        <time>2012-09-15T07:06:45Z</time>
      </trkpt>
      <trkpt lat="45.82935" lon="3.06544">
        <ele>443</ele>
        <time>2012-09-15T07:06:47Z</time>
      </trkpt>
      <trkpt lat="45.82939" lon="3.06542">
        <ele>444</ele>
        <time>2012-09-15T07:06:49Z</time>
      </trkpt>
      <trkpt lat="45.82944" lon="3.0654">
        <ele>444</ele>
        <time>2012-09-15T07:06:51Z</time>
      </trkpt>
      <trkpt lat="45.82949" lon="3.06539">
        <ele>444</ele>
        <time>2012-09-15T07:06:53Z</time>
      </trkpt>
      <trkpt lat="45.82956" lon="3.06538">
        <ele>444</ele>
        <time>2012-09-15T07:06:55Z</time>
      </trkpt>
      <trkpt lat="45.82962" lon="3.06537">
        <ele>444</ele>
        <time>2012-09-15T07:06:57Z</time>
      </trkpt>
      <trkpt lat="45.82969" lon="3.06537">
        <ele>444</ele>
        <time>2012-09-15T07:06:59Z</time>
      </trkpt>
      <trkpt lat="45.82975" lon="3.06539">
        <ele>445</ele>
        <time>2012-09-15T07:07:01Z</time>
      </trkpt>
      <trkpt lat="45.8298" lon="3.06541">
        <ele>445</ele>
        <time>2012-09-15T07:07:03Z</time>
      </trkpt>
      <trkpt lat="45.82986" lon="3.06544">
        <ele>445</ele>
        <time>2012-09-15T07:07:05Z</time>
      </trkpt>
      <trkpt lat="45.82993" lon="3.06547">
        <ele>445</ele>
        <time>2012-09-15T07:07:07Z</time>
      </trkpt>
      <trkpt lat="45.82999" lon="3.06551">
        <ele>446</ele>
        <time>2012-09-15T07:07:09Z</time>
      </trkpt>
      <trkpt lat="45.83004" lon="3.06556">
        <ele>447</ele>
        <time>2012-09-15T07:07:11Z</time>
      </trkpt>
      <trkpt lat="45.8301" lon="3.06559">
        <ele>447</ele>
        <time>2012-09-15T07:07:13Z</time>
      </trkpt>
      <trkpt lat="45.83016" lon="3.06562">
        <ele>447</ele>
        <time>2012-09-15T07:07:15Z</time>
      </trkpt>
      <trkpt lat="45.83022" lon="3.06564">
        <ele>447</ele>
        <time>2012-09-15T07:07:17Z</time>
      </trkpt>
      <trkpt lat="45.83027" lon="3.06564">
        <ele>447</ele>
        <time>2012-09-15T07:07:19Z</time>
      </trkpt>
      <trkpt lat="45.83032" lon="3.06563">
        <ele>448</ele>
        <time>2012-09-15T07:07:21Z</time>
      </trkpt>
      <trkpt lat="45.83036" lon="3.06562">
        <ele>448</ele>
        <time>2012-09-15T07:07:23Z</time>
      </trkpt>
      <trkpt lat="45.83037" lon="3.06562">
        <ele>448</ele>
        <time>2012-09-15T07:07:25Z</time>
      </trkpt>
      <trkpt lat="45.83038" lon="3.06563">
        <ele>448</ele>
        <time>2012-09-15T07:07:32Z</time>
      </trkpt>
      <trkpt lat="45.83037" lon="3.06565">
        <ele>448</ele>
        <time>2012-09-15T07:07:36Z</time>
      </trkpt>
      <trkpt lat="45.83038" lon="3.06566">
        <ele>448</ele>
        <time>2012-09-15T07:07:38Z</time>
      </trkpt>
      <trkpt lat="45.83042" lon="3.06567">
        <ele>448</ele>
        <time>2012-09-15T07:07:40Z</time>
      </trkpt>
      <trkpt lat="45.83047" lon="3.06566">
        <ele>448</ele>
        <time>2012-09-15T07:07:42Z</time>
      </trkpt>
      <trkpt lat="45.83052" lon="3.06563">
        <ele>448</ele>
        <time>2012-09-15T07:07:44Z</time>
      </trkpt>
      <trkpt lat="45.83058" lon="3.0656">
        <ele>448</ele>
        <time>2012-09-15T07:07:46Z</time>
      </trkpt>
      <trkpt lat="45.83064" lon="3.06558">
        <ele>448</ele>
        <time>2012-09-15T07:07:48Z</time>
      </trkpt>
      <trkpt lat="45.8307" lon="3.06556">
        <ele>448</ele>
        <time>2012-09-15T07:07:50Z</time>
      </trkpt>
      <trkpt lat="45.83077" lon="3.06554">
        <ele>448</ele>
        <time>2012-09-15T07:07:52Z</time>
      </trkpt>
      <trkpt lat="45.83083" lon="3.06553">
        <ele>448</ele>
        <time>2012-09-15T07:07:54Z</time>
      </trkpt>
      <trkpt lat="45.8309" lon="3.06552">
        <ele>448</ele>
        <time>2012-09-15T07:07:56Z</time>
      </trkpt>
      <trkpt lat="45.83097" lon="3.06551">
        <ele>448</ele>
        <time>2012-09-15T07:07:58Z</time>
      </trkpt>
      <trkpt lat="45.83104" lon="3.06551">
        <ele>449</ele>
        <time>2012-09-15T07:08:00Z</time>
      </trkpt>
      <trkpt lat="45.83111" lon="3.06552">
        <ele>451</ele>
        <time>2012-09-15T07:08:02Z</time>
      </trkpt>
      <trkpt lat="45.83117" lon="3.06551">
        <ele>452</ele>
        <time>2012-09-15T07:08:04Z</time>
      </trkpt>
      <trkpt lat="45.83123" lon="3.06547">
        <ele>452</ele>
        <time>2012-09-15T07:08:06Z</time>
      </trkpt>
      <trkpt lat="45.8313" lon="3.06542">
        <ele>453</ele>
        <time>2012-09-15T07:08:08Z</time>
      </trkpt>
      <trkpt lat="45.83137" lon="3.06537">
        <ele>453</ele>
        <time>2012-09-15T07:08:10Z</time>
      </trkpt>
      <trkpt lat="45.83144" lon="3.06534">
        <ele>454</ele>
        <time>2012-09-15T07:08:12Z</time>
      </trkpt>
      <trkpt lat="45.83152" lon="3.06533">
        <ele>454</ele>
        <time>2012-09-15T07:08:14Z</time>
      </trkpt>
      <trkpt lat="45.83159" lon="3.06533">
        <ele>454</ele>
        <time>2012-09-15T07:08:16Z</time>
      </trkpt>
      <trkpt lat="45.83166" lon="3.06536">
        <ele>454</ele>
        <time>2012-09-15T07:08:18Z</time>
      </trkpt>
      <trkpt lat="45.83172" lon="3.0654">
        <ele>455</ele>
        <time>2012-09-15T07:08:20Z</time>
      </trkpt>
      <trkpt lat="45.83178" lon="3.06545">
        <ele>455</ele>
        <time>2012-09-15T07:08:22Z</time>
      </trkpt>
      <trkpt lat="45.83184" lon="3.06551">
        <ele>455</ele>
        <time>2012-09-15T07:08:24Z</time>
      </trkpt>
      <trkpt lat="45.83191" lon="3.06556">
        <ele>455</ele>
        <time>2012-09-15T07:08:26Z</time>
      </trkpt>
      <trkpt lat="45.83198" lon="3.06559">
        <ele>456</ele>
        <time>2012-09-15T07:08:28Z</time>
      </trkpt>
      <trkpt lat="45.83205" lon="3.06562">
        <ele>456</ele>
        <time>2012-09-15T07:08:30Z</time>
      </trkpt>
      <trkpt lat="45.83211" lon="3.06561">
        <ele>457</ele>
        <time>2012-09-15T07:08:32Z</time>
      </trkpt>
      <trkpt lat="45.83217" lon="3.0656">
        <ele>457</ele>
        <time>2012-09-15T07:08:34Z</time>
      </trkpt>
      <trkpt lat="45.83222" lon="3.06558">
        <ele>458</ele>
        <time>2012-09-15T07:08:36Z</time>
      </trkpt>
      <trkpt lat="45.83227" lon="3.06555">
        <ele>459</ele>
        <time>2012-09-15T07:08:38Z</time>
      </trkpt>
      <trkpt lat="45.83232" lon="3.06552">
        <ele>459</ele>
        <time>2012-09-15T07:08:40Z</time>
      </trkpt>
      <trkpt lat="45.83236" lon="3.0655">
        <ele>460</ele>
        <time>2012-09-15T07:08:42Z</time>
      </trkpt>
      <trkpt lat="45.83242" lon="3.06547">
        <ele>461</ele>
        <time>2012-09-15T07:08:44Z</time>
      </trkpt>
      <trkpt lat="45.83246" lon="3.06545">
        <ele>461</ele>
        <time>2012-09-15T07:08:46Z</time>
      </trkpt>
      <trkpt lat="45.83251" lon="3.06542">
        <ele>462</ele>
        <time>2012-09-15T07:08:48Z</time>
      </trkpt>
      <trkpt lat="45.83256" lon="3.0654">
        <ele>462</ele>
        <time>2012-09-15T07:08:50Z</time>
      </trkpt>
      <trkpt lat="45.83261" lon="3.06538">
        <ele>462</ele>
        <time>2012-09-15T07:08:52Z</time>
      </trkpt>
      <trkpt lat="45.83266" lon="3.06537">
        <ele>463</ele>
        <time>2012-09-15T07:08:54Z</time>
      </trkpt>
      <trkpt lat="45.83271" lon="3.06536">
        <ele>463</ele>
        <time>2012-09-15T07:08:56Z</time>
      </trkpt>
      <trkpt lat="45.83276" lon="3.06535">
        <ele>463</ele>
        <time>2012-09-15T07:08:58Z</time>
      </trkpt>
      <trkpt lat="45.83282" lon="3.06535">
        <ele>464</ele>
        <time>2012-09-15T07:09:00Z</time>
      </trkpt>
      <trkpt lat="45.83288" lon="3.06536">
        <ele>464</ele>
        <time>2012-09-15T07:09:02Z</time>
      </trkpt>
      <trkpt lat="45.83294" lon="3.06536">
        <ele>464</ele>
        <time>2012-09-15T07:09:04Z</time>
      </trkpt>
      <trkpt lat="45.833" lon="3.06536">
        <ele>464</ele>
        <time>2012-09-15T07:09:06Z</time>
      </trkpt>
      <trkpt lat="45.83305" lon="3.06536">
        <ele>465</ele>
        <time>2012-09-15T07:09:08Z</time>
      </trkpt>
      <trkpt lat="45.83311" lon="3.06536">
        <ele>465</ele>
        <time>2012-09-15T07:09:10Z</time>
      </trkpt>
      <trkpt lat="45.83316" lon="3.06537">
        <ele>466</ele>
        <time>2012-09-15T07:09:12Z</time>
      </trkpt>
      <trkpt lat="45.83322" lon="3.06538">
        <ele>466</ele>
        <time>2012-09-15T07:09:14Z</time>
      </trkpt>
      <trkpt lat="45.83327" lon="3.06539">
        <ele>466</ele>
        <time>2012-09-15T07:09:16Z</time>
      </trkpt>
      <trkpt lat="45.83333" lon="3.0654">
        <ele>466</ele>
        <time>2012-09-15T07:09:18Z</time>
      </trkpt>
      <trkpt lat="45.83339" lon="3.0654">
        <ele>466</ele>
        <time>2012-09-15T07:09:20Z</time>
      </trkpt>
      <trkpt lat="45.83344" lon="3.06541">
        <ele>467</ele>
        <time>2012-09-15T07:09:22Z</time>
      </trkpt>
      <trkpt lat="45.8335" lon="3.0654">
        <ele>468</ele>
        <time>2012-09-15T07:09:24Z</time>
      </trkpt>
      <trkpt lat="45.83356" lon="3.0654">
        <ele>468</ele>
        <time>2012-09-15T07:09:26Z</time>
      </trkpt>
      <trkpt lat="45.83361" lon="3.06539">
        <ele>469</ele>
        <time>2012-09-15T07:09:28Z</time>
      </trkpt>
      <trkpt lat="45.83367" lon="3.06537">
        <ele>469</ele>
        <time>2012-09-15T07:09:30Z</time>
      </trkpt>
      <trkpt lat="45.83371" lon="3.06535">
        <ele>470</ele>
        <time>2012-09-15T07:09:32Z</time>
      </trkpt>
      <trkpt lat="45.83376" lon="3.06533">
        <ele>470</ele>
        <time>2012-09-15T07:09:34Z</time>
      </trkpt>
      <trkpt lat="45.8338" lon="3.0653">
        <ele>470</ele>
        <time>2012-09-15T07:09:36Z</time>
      </trkpt>
      <trkpt lat="45.83384" lon="3.06526">
        <ele>470</ele>
        <time>2012-09-15T07:09:38Z</time>
      </trkpt>
      <trkpt lat="45.83389" lon="3.06523">
        <ele>471</ele>
        <time>2012-09-15T07:09:40Z</time>
      </trkpt>
      <trkpt lat="45.83393" lon="3.0652">
        <ele>471</ele>
        <time>2012-09-15T07:09:42Z</time>
      </trkpt>
      <trkpt lat="45.83397" lon="3.06518">
        <ele>472</ele>
        <time>2012-09-15T07:09:44Z</time>
      </trkpt>
      <trkpt lat="45.83401" lon="3.06515">
        <ele>472</ele>
        <time>2012-09-15T07:09:46Z</time>
      </trkpt>
      <trkpt lat="45.83405" lon="3.06513">
        <ele>473</ele>
        <time>2012-09-15T07:09:48Z</time>
      </trkpt>
      <trkpt lat="45.83408" lon="3.06511">
        <ele>473</ele>
        <time>2012-09-15T07:09:50Z</time>
      </trkpt>
      <trkpt lat="45.83412" lon="3.06509">
        <ele>473</ele>
        <time>2012-09-15T07:09:52Z</time>
      </trkpt>
      <trkpt lat="45.83416" lon="3.06506">
        <ele>474</ele>
        <time>2012-09-15T07:09:54Z</time>
      </trkpt>
      <trkpt lat="45.83421" lon="3.06503">
        <ele>475</ele>
        <time>2012-09-15T07:09:56Z</time>
      </trkpt>
      <trkpt lat="45.83426" lon="3.06501">
        <ele>476</ele>
        <time>2012-09-15T07:09:58Z</time>
      </trkpt>
      <trkpt lat="45.8343" lon="3.06499">
        <ele>477</ele>
        <time>2012-09-15T07:10:00Z</time>
      </trkpt>
      <trkpt lat="45.83434" lon="3.06496">
        <ele>478</ele>
        <time>2012-09-15T07:10:02Z</time>
      </trkpt>
      <trkpt lat="45.83439" lon="3.06493">
        <ele>478</ele>
        <time>2012-09-15T07:10:04Z</time>
      </trkpt>
      <trkpt lat="45.83443" lon="3.06491">
        <ele>479</ele>
        <time>2012-09-15T07:10:06Z</time>
      </trkpt>
      <trkpt lat="45.83444" lon="3.06488">
        <ele>480</ele>
        <time>2012-09-15T07:10:08Z</time>
      </trkpt>
      <trkpt lat="45.83448" lon="3.06485">
        <ele>480</ele>
        <time>2012-09-15T07:10:10Z</time>
      </trkpt>
      <trkpt lat="45.83452" lon="3.06482">
        <ele>480</ele>
        <time>2012-09-15T07:10:12Z</time>
      </trkpt>
      <trkpt lat="45.83455" lon="3.06477">
        <ele>481</ele>
        <time>2012-09-15T07:10:14Z</time>
      </trkpt>
      <trkpt lat="45.8346" lon="3.06474">
        <ele>481</ele>
        <time>2012-09-15T07:10:16Z</time>
      </trkpt>
      <trkpt lat="45.83464" lon="3.0647">
        <ele>482</ele>
        <time>2012-09-15T07:10:18Z</time>
      </trkpt>
      <trkpt lat="45.83468" lon="3.06466">
        <ele>483</ele>
        <time>2012-09-15T07:10:20Z</time>
      </trkpt>
      <trkpt lat="45.83472" lon="3.06462">
        <ele>484</ele>
        <time>2012-09-15T07:10:22Z</time>
      </trkpt>
      <trkpt lat="45.83475" lon="3.06457">
        <ele>484</ele>
        <time>2012-09-15T07:10:24Z</time>
      </trkpt>
      <trkpt lat="45.83479" lon="3.06452">
        <ele>484</ele>
        <time>2012-09-15T07:10:26Z</time>
      </trkpt>
      <trkpt lat="45.83482" lon="3.06449">
        <ele>484</ele>
        <time>2012-09-15T07:10:28Z</time>
      </trkpt>
      <trkpt lat="45.83487" lon="3.06447">
        <ele>485</ele>
        <time>2012-09-15T07:10:30Z</time>
      </trkpt>
      <trkpt lat="45.83492" lon="3.06447">
        <ele>485</ele>
        <time>2012-09-15T07:10:32Z</time>
      </trkpt>
      <trkpt lat="45.83498" lon="3.06447">
        <ele>485</ele>
        <time>2012-09-15T07:10:34Z</time>
      </trkpt>
      <trkpt lat="45.83503" lon="3.06443">
        <ele>485</ele>
        <time>2012-09-15T07:10:36Z</time>
      </trkpt>
      <trkpt lat="45.83509" lon="3.06441">
        <ele>485</ele>
        <time>2012-09-15T07:10:38Z</time>
      </trkpt>
      <trkpt lat="45.83514" lon="3.06445">
        <ele>485</ele>
        <time>2012-09-15T07:10:40Z</time>
      </trkpt>
      <trkpt lat="45.83522" lon="3.06451">
        <ele>485</ele>
        <time>2012-09-15T07:10:42Z</time>
      </trkpt>
      <trkpt lat="45.83528" lon="3.06458">
        <ele>485</ele>
        <time>2012-09-15T07:10:44Z</time>
      </trkpt>
      <trkpt lat="45.83534" lon="3.06464">
        <ele>485</ele>
        <time>2012-09-15T07:10:46Z</time>
      </trkpt>
      <trkpt lat="45.83539" lon="3.06472">
        <ele>485</ele>
        <time>2012-09-15T07:10:48Z</time>
      </trkpt>
      <trkpt lat="45.83545" lon="3.06481">
        <ele>485</ele>
        <time>2012-09-15T07:10:50Z</time>
      </trkpt>
      <trkpt lat="45.83551" lon="3.06489">
        <ele>485</ele>
        <time>2012-09-15T07:10:52Z</time>
      </trkpt>
      <trkpt lat="45.83558" lon="3.06497">
        <ele>485</ele>
        <time>2012-09-15T07:10:54Z</time>
      </trkpt>
      <trkpt lat="45.83564" lon="3.06504">
        <ele>485</ele>
        <time>2012-09-15T07:10:56Z</time>
      </trkpt>
      <trkpt lat="45.83571" lon="3.06509">
        <ele>485</ele>
        <time>2012-09-15T07:10:58Z</time>
      </trkpt>
      <trkpt lat="45.83577" lon="3.06513">
        <ele>485</ele>
        <time>2012-09-15T07:11:00Z</time>
      </trkpt>
      <trkpt lat="45.83584" lon="3.06516">
        <ele>485</ele>
        <time>2012-09-15T07:11:02Z</time>
      </trkpt>
      <trkpt lat="45.83591" lon="3.06518">
        <ele>485</ele>
        <time>2012-09-15T07:11:04Z</time>
      </trkpt>
      <trkpt lat="45.83597" lon="3.06521">
        <ele>485</ele>
        <time>2012-09-15T07:11:06Z</time>
      </trkpt>
      <trkpt lat="45.83603" lon="3.06523">
        <ele>486</ele>
        <time>2012-09-15T07:11:08Z</time>
      </trkpt>
      <trkpt lat="45.83609" lon="3.06526">
        <ele>487</ele>
        <time>2012-09-15T07:11:10Z</time>
      </trkpt>
      <trkpt lat="45.83614" lon="3.06529">
        <ele>488</ele>
        <time>2012-09-15T07:11:12Z</time>
      </trkpt>
      <trkpt lat="45.83619" lon="3.06534">
        <ele>489</ele>
        <time>2012-09-15T07:11:14Z</time>
      </trkpt>
      <trkpt lat="45.8362" lon="3.06541">
        <ele>489</ele>
        <time>2012-09-15T07:11:16Z</time>
      </trkpt>
      <trkpt lat="45.83618" lon="3.06549">
        <ele>490</ele>
        <time>2012-09-15T07:11:18Z</time>
      </trkpt>
      <trkpt lat="45.83614" lon="3.06556">
        <ele>490</ele>
        <time>2012-09-15T07:11:20Z</time>
      </trkpt>
      <trkpt lat="45.83611" lon="3.06562">
        <ele>490</ele>
        <time>2012-09-15T07:11:22Z</time>
      </trkpt>
      <trkpt lat="45.83607" lon="3.06568">
        <ele>490</ele>
        <time>2012-09-15T07:11:24Z</time>
      </trkpt>
      <trkpt lat="45.83601" lon="3.06574">
        <ele>491</ele>
        <time>2012-09-15T07:11:26Z</time>
      </trkpt>
      <trkpt lat="45.83596" lon="3.0658">
        <ele>491</ele>
        <time>2012-09-15T07:11:28Z</time>
      </trkpt>
      <trkpt lat="45.83591" lon="3.06587">
        <ele>491</ele>
        <time>2012-09-15T07:11:30Z</time>
      </trkpt>
      <trkpt lat="45.83585" lon="3.06593">
        <ele>491</ele>
        <time>2012-09-15T07:11:32Z</time>
      </trkpt>
      <trkpt lat="45.83579" lon="3.066">
        <ele>492</ele>
        <time>2012-09-15T07:11:34Z</time>
      </trkpt>
      <trkpt lat="45.83573" lon="3.06606">
        <ele>492</ele>
        <time>2012-09-15T07:11:36Z</time>
      </trkpt>
      <trkpt lat="45.83567" lon="3.06613">
        <ele>492</ele>
        <time>2012-09-15T07:11:38Z</time>
      </trkpt>
      <trkpt lat="45.83561" lon="3.06619">
        <ele>492</ele>
        <time>2012-09-15T07:11:40Z</time>
      </trkpt>
      <trkpt lat="45.83555" lon="3.06625">
        <ele>492</ele>
        <time>2012-09-15T07:11:42Z</time>
      </trkpt>
      <trkpt lat="45.83549" lon="3.06631">
        <ele>492</ele>
        <time>2012-09-15T07:11:44Z</time>
      </trkpt>
      <trkpt lat="45.83544" lon="3.06637">
        <ele>492</ele>
        <time>2012-09-15T07:11:46Z</time>
      </trkpt>
      <trkpt lat="45.83538" lon="3.06643">
        <ele>492</ele>
        <time>2012-09-15T07:11:48Z</time>
      </trkpt>
      <trkpt lat="45.83533" lon="3.06648">
        <ele>492</ele>
        <time>2012-09-15T07:11:50Z</time>
      </trkpt>
      <trkpt lat="45.83527" lon="3.06653">
        <ele>492</ele>
        <time>2012-09-15T07:11:52Z</time>
      </trkpt>
      <trkpt lat="45.83521" lon="3.06661">
        <ele>492</ele>
        <time>2012-09-15T07:11:54Z</time>
      </trkpt>
      <trkpt lat="45.83515" lon="3.06669">
        <ele>492</ele>
        <time>2012-09-15T07:11:56Z</time>
      </trkpt>
      <trkpt lat="45.83509" lon="3.06677">
        <ele>492</ele>
        <time>2012-09-15T07:11:58Z</time>
      </trkpt>
      <trkpt lat="45.83504" lon="3.06684">
        <ele>493</ele>
        <time>2012-09-15T07:12:00Z</time>
      </trkpt>
      <trkpt lat="45.83498" lon="3.06693">
        <ele>493</ele>
        <time>2012-09-15T07:12:02Z</time>
      </trkpt>
      <trkpt lat="45.83493" lon="3.06701">
        <ele>493</ele>
        <time>2012-09-15T07:12:04Z</time>
      </trkpt>
      <trkpt lat="45.83488" lon="3.06708">
        <ele>493</ele>
        <time>2012-09-15T07:12:06Z</time>
      </trkpt>
      <trkpt lat="45.83483" lon="3.06715">
        <ele>493</ele>
        <time>2012-09-15T07:12:08Z</time>
      </trkpt>
      <trkpt lat="45.83477" lon="3.06721">
        <ele>493</ele>
        <time>2012-09-15T07:12:10Z</time>
      </trkpt>
      <trkpt lat="45.83472" lon="3.06727">
        <ele>493</ele>
        <time>2012-09-15T07:12:12Z</time>
      </trkpt>
      <trkpt lat="45.83466" lon="3.06734">
        <ele>493</ele>
        <time>2012-09-15T07:12:14Z</time>
      </trkpt>
      <trkpt lat="45.8346" lon="3.06742">
        <ele>493</ele>
        <time>2012-09-15T07:12:16Z</time>
      </trkpt>
      <trkpt lat="45.83455" lon="3.0675">
        <ele>493</ele>
        <time>2012-09-15T07:12:18Z</time>
      </trkpt>
      <trkpt lat="45.8345" lon="3.06759">
        <ele>493</ele>
        <time>2012-09-15T07:12:20Z</time>
      </trkpt>
      <trkpt lat="45.83445" lon="3.06768">
        <ele>493</ele>
        <time>2012-09-15T07:12:22Z</time>
      </trkpt>
      <trkpt lat="45.83439" lon="3.06776">
        <ele>493</ele>
        <time>2012-09-15T07:12:24Z</time>
      </trkpt>
      <trkpt lat="45.83433" lon="3.06784">
        <ele>493</ele>
        <time>2012-09-15T07:12:26Z</time>
      </trkpt>
      <trkpt lat="45.83426" lon="3.06793">
        <ele>493</ele>
        <time>2012-09-15T07:12:28Z</time>
      </trkpt>
      <trkpt lat="45.8342" lon="3.06802">
        <ele>493</ele>
        <time>2012-09-15T07:12:30Z</time>
      </trkpt>
      <trkpt lat="45.83415" lon="3.06812">
        <ele>493</ele>
        <time>2012-09-15T07:12:32Z</time>
      </trkpt>
      <trkpt lat="45.83409" lon="3.0682">
        <ele>494</ele>
        <time>2012-09-15T07:12:34Z</time>
      </trkpt>
      <trkpt lat="45.83402" lon="3.06828">
        <ele>495</ele>
        <time>2012-09-15T07:12:36Z</time>
      </trkpt>
      <trkpt lat="45.83395" lon="3.06835">
        <ele>496</ele>
        <time>2012-09-15T07:12:38Z</time>
      </trkpt>
      <trkpt lat="45.83387" lon="3.06842">
        <ele>496</ele>
        <time>2012-09-15T07:12:40Z</time>
      </trkpt>
      <trkpt lat="45.83379" lon="3.0685">
        <ele>496</ele>
        <time>2012-09-15T07:12:42Z</time>
      </trkpt>
      <trkpt lat="45.8337" lon="3.06857">
        <ele>496</ele>
        <time>2012-09-15T07:12:44Z</time>
      </trkpt>
      <trkpt lat="45.83361" lon="3.06863">
        <ele>496</ele>
        <time>2012-09-15T07:12:46Z</time>
      </trkpt>
      <trkpt lat="45.83352" lon="3.0687">
        <ele>496</ele>
        <time>2012-09-15T07:12:48Z</time>
      </trkpt>
      <trkpt lat="45.83344" lon="3.06876">
        <ele>496</ele>
        <time>2012-09-15T07:12:50Z</time>
      </trkpt>
      <trkpt lat="45.83336" lon="3.06882">
        <ele>496</ele>
        <time>2012-09-15T07:12:52Z</time>
      </trkpt>
      <trkpt lat="45.83329" lon="3.06888">
        <ele>496</ele>
        <time>2012-09-15T07:12:54Z</time>
      </trkpt>
      <trkpt lat="45.83322" lon="3.06893">
        <ele>496</ele>
        <time>2012-09-15T07:12:56Z</time>
      </trkpt>
      <trkpt lat="45.83316" lon="3.06902">
        <ele>496</ele>
        <time>2012-09-15T07:12:58Z</time>
      </trkpt>
      <trkpt lat="45.83311" lon="3.06913">
        <ele>496</ele>
        <time>2012-09-15T07:13:00Z</time>
      </trkpt>
      <trkpt lat="45.83308" lon="3.06926">
        <ele>497</ele>
        <time>2012-09-15T07:13:02Z</time>
      </trkpt>
      <trkpt lat="45.83305" lon="3.0694">
        <ele>497</ele>
        <time>2012-09-15T07:13:04Z</time>
      </trkpt>
      <trkpt lat="45.83302" lon="3.06955">
        <ele>497</ele>
        <time>2012-09-15T07:13:06Z</time>
      </trkpt>
      <trkpt lat="45.83298" lon="3.06971">
        <ele>497</ele>
        <time>2012-09-15T07:13:08Z</time>
      </trkpt>
      <trkpt lat="45.83294" lon="3.06988">
        <ele>497</ele>
        <time>2012-09-15T07:13:10Z</time>
      </trkpt>
      <trkpt lat="45.8329" lon="3.07003">
        <ele>497</ele>
        <time>2012-09-15T07:13:12Z</time>
      </trkpt>
      <trkpt lat="45.83286" lon="3.07019">
        <ele>497</ele>
        <time>2012-09-15T07:13:14Z</time>
      </trkpt>
      <trkpt lat="45.83281" lon="3.07034">
        <ele>497</ele>
        <time>2012-09-15T07:13:16Z</time>
      </trkpt>
      <trkpt lat="45.83278" lon="3.07049">
        <ele>497</ele>
        <time>2012-09-15T07:13:18Z</time>
      </trkpt>
      <trkpt lat="45.83276" lon="3.07063">
        <ele>497</ele>
        <time>2012-09-15T07:13:20Z</time>
      </trkpt>
      <trkpt lat="45.83274" lon="3.07076">
        <ele>497</ele>
        <time>2012-09-15T07:13:22Z</time>
      </trkpt>
      <trkpt lat="45.83276" lon="3.07088">
        <ele>497</ele>
        <time>2012-09-15T07:13:24Z</time>
      </trkpt>
      <trkpt lat="45.83282" lon="3.07092">
        <ele>497</ele>
        <time>2012-09-15T07:13:26Z</time>
      </trkpt>
      <trkpt lat="45.83289" lon="3.07091">
        <ele>497</ele>
        <time>2012-09-15T07:13:28Z</time>
      </trkpt>
      <trkpt lat="45.83298" lon="3.0709">
        <ele>497</ele>
        <time>2012-09-15T07:13:30Z</time>
      </trkpt>
      <trkpt lat="45.83307" lon="3.07089">
        <ele>497</ele>
        <time>2012-09-15T07:13:32Z</time>
      </trkpt>
      <trkpt lat="45.83316" lon="3.07089">
        <ele>497</ele>
        <time>2012-09-15T07:13:34Z</time>
      </trkpt>
      <trkpt lat="45.83326" lon="3.07089">
        <ele>497</ele>
        <time>2012-09-15T07:13:36Z</time>
      </trkpt>
      <trkpt lat="45.83336" lon="3.07089">
        <ele>497</ele>
        <time>2012-09-15T07:13:38Z</time>
      </trkpt>
      <trkpt lat="45.83345" lon="3.07089">
        <ele>497</ele>
        <time>2012-09-15T07:13:40Z</time>
      </trkpt>
      <trkpt lat="45.83355" lon="3.07089">
        <ele>497</ele>
        <time>2012-09-15T07:13:42Z</time>
      </trkpt>
      <trkpt lat="45.83365" lon="3.07088">
        <ele>497</ele>
        <time>2012-09-15T07:13:44Z</time>
      </trkpt>
      <trkpt lat="45.83374" lon="3.07087">
        <ele>497</ele>
        <time>2012-09-15T07:13:46Z</time>
      </trkpt>
      <trkpt lat="45.83384" lon="3.07087">
        <ele>497</ele>
        <time>2012-09-15T07:13:48Z</time>
      </trkpt>
      <trkpt lat="45.83393" lon="3.07087">
        <ele>497</ele>
        <time>2012-09-15T07:13:50Z</time>
      </trkpt>
      <trkpt lat="45.83403" lon="3.07086">
        <ele>497</ele>
        <time>2012-09-15T07:13:52Z</time>
      </trkpt>
      <trkpt lat="45.83412" lon="3.07086">
        <ele>497</ele>
        <time>2012-09-15T07:13:54Z</time>
      </trkpt>
      <trkpt lat="45.83422" lon="3.07084">
        <ele>498</ele>
        <time>2012-09-15T07:13:56Z</time>
      </trkpt>
      <trkpt lat="45.83431" lon="3.07082">
        <ele>498</ele>
        <time>2012-09-15T07:13:58Z</time>
      </trkpt>
      <trkpt lat="45.83441" lon="3.07081">
        <ele>498</ele>
        <time>2012-09-15T07:14:00Z</time>
      </trkpt>
      <trkpt lat="45.8345" lon="3.0708">
        <ele>498</ele>
        <time>2012-09-15T07:14:02Z</time>
      </trkpt>
      <trkpt lat="45.8346" lon="3.0708">
        <ele>498</ele>
        <time>2012-09-15T07:14:04Z</time>
      </trkpt>
      <trkpt lat="45.8347" lon="3.0708">
        <ele>498</ele>
        <time>2012-09-15T07:14:06Z</time>
      </trkpt>
      <trkpt lat="45.8348" lon="3.0708">
        <ele>498</ele>
        <time>2012-09-15T07:14:08Z</time>
      </trkpt>
      <trkpt lat="45.8349" lon="3.0708">
        <ele>498</ele>
        <time>2012-09-15T07:14:10Z</time>
      </trkpt>
      <trkpt lat="45.835" lon="3.0708">
        <ele>499</ele>
        <time>2012-09-15T07:14:12Z</time>
      </trkpt>
      <trkpt lat="45.83511" lon="3.07081">
        <ele>499</ele>
        <time>2012-09-15T07:14:14Z</time>
      </trkpt>
      <trkpt lat="45.83522" lon="3.07083">
        <ele>500</ele>
        <time>2012-09-15T07:14:16Z</time>
      </trkpt>
      <trkpt lat="45.83532" lon="3.07085">
        <ele>500</ele>
        <time>2012-09-15T07:14:18Z</time>
      </trkpt>
      <trkpt lat="45.83542" lon="3.07089">
        <ele>501</ele>
        <time>2012-09-15T07:14:20Z</time>
      </trkpt>
      <trkpt lat="45.83551" lon="3.07095">
        <ele>501</ele>
        <time>2012-09-15T07:14:22Z</time>
      </trkpt>
      <trkpt lat="45.8356" lon="3.07101">
        <ele>501</ele>
        <time>2012-09-15T07:14:24Z</time>
      </trkpt>
      <trkpt lat="45.83568" lon="3.07108">
        <ele>501</ele>
        <time>2012-09-15T07:14:26Z</time>
      </trkpt>
      <trkpt lat="45.83575" lon="3.07115">
        <ele>502</ele>
        <time>2012-09-15T07:14:28Z</time>
      </trkpt>
      <trkpt lat="45.83583" lon="3.07122">
        <ele>502</ele>
        <time>2012-09-15T07:14:30Z</time>
      </trkpt>
      <trkpt lat="45.83593" lon="3.0713">
        <ele>502</ele>
        <time>2012-09-15T07:14:32Z</time>
      </trkpt>
      <trkpt lat="45.83603" lon="3.07136">
        <ele>502</ele>
        <time>2012-09-15T07:14:34Z</time>
      </trkpt>
      <trkpt lat="45.83615" lon="3.0714">
        <ele>502</ele>
        <time>2012-09-15T07:14:36Z</time>
      </trkpt>
      <trkpt lat="45.83627" lon="3.07142">
        <ele>502</ele>
        <time>2012-09-15T07:14:38Z</time>
      </trkpt>
      <trkpt lat="45.83638" lon="3.07141">
        <ele>502</ele>
        <time>2012-09-15T07:14:40Z</time>
      </trkpt>
      <trkpt lat="45.83649" lon="3.07141">
        <ele>502</ele>
        <time>2012-09-15T07:14:42Z</time>
      </trkpt>
      <trkpt lat="45.8366" lon="3.07142">
        <ele>502</ele>
        <time>2012-09-15T07:14:44Z</time>
      </trkpt>
      <trkpt lat="45.83671" lon="3.07144">
        <ele>502</ele>
        <time>2012-09-15T07:14:46Z</time>
      </trkpt>
      <trkpt lat="45.8368" lon="3.07146">
        <ele>502</ele>
        <time>2012-09-15T07:14:48Z</time>
      </trkpt>
      <trkpt lat="45.83689" lon="3.07147">
        <ele>502</ele>
        <time>2012-09-15T07:14:50Z</time>
      </trkpt>
      <trkpt lat="45.83698" lon="3.07144">
        <ele>502</ele>
        <time>2012-09-15T07:14:52Z</time>
      </trkpt>
      <trkpt lat="45.83707" lon="3.07139">
        <ele>503</ele>
        <time>2012-09-15T07:14:54Z</time>
      </trkpt>
      <trkpt lat="45.83717" lon="3.07133">
        <ele>503</ele>
        <time>2012-09-15T07:14:56Z</time>
      </trkpt>
      <trkpt lat="45.83727" lon="3.07127">
        <ele>503</ele>
        <time>2012-09-15T07:14:58Z</time>
      </trkpt>
      <trkpt lat="45.83738" lon="3.07123">
        <ele>503</ele>
        <time>2012-09-15T07:15:00Z</time>
      </trkpt>
      <trkpt lat="45.8375" lon="3.07122">
        <ele>503</ele>
        <time>2012-09-15T07:15:02Z</time>
      </trkpt>
      <trkpt lat="45.83762" lon="3.07124">
        <ele>503</ele>
        <time>2012-09-15T07:15:04Z</time>
      </trkpt>
      <trkpt lat="45.83775" lon="3.07127">
        <ele>503</ele>
        <time>2012-09-15T07:15:06Z</time>
      </trkpt>
      <trkpt lat="45.83788" lon="3.07129">
        <ele>503</ele>
        <time>2012-09-15T07:15:08Z</time>
      </trkpt>
      <trkpt lat="45.83801" lon="3.07131">
        <ele>503</ele>
        <time>2012-09-15T07:15:10Z</time>
      </trkpt>
      <trkpt lat="45.83813" lon="3.07133">
        <ele>503</ele>
        <time>2012-09-15T07:15:12Z</time>
      </trkpt>
      <trkpt lat="45.83825" lon="3.07134">
        <ele>503</ele>
        <time>2012-09-15T07:15:14Z</time>
      </trkpt>
      <trkpt lat="45.83837" lon="3.07136">
        <ele>503</ele>
        <time>2012-09-15T07:15:16Z</time>
      </trkpt>
      <trkpt lat="45.83847" lon="3.07138">
        <ele>503</ele>
        <time>2012-09-15T07:15:18Z</time>
      </trkpt>
      <trkpt lat="45.83856" lon="3.0714">
        <ele>503</ele>
        <time>2012-09-15T07:15:20Z</time>
      </trkpt>
      <trkpt lat="45.83867" lon="3.07142">
        <ele>503</ele>
        <time>2012-09-15T07:15:22Z</time>
      </trkpt>
      <trkpt lat="45.83878" lon="3.07143">
        <ele>503</ele>
        <time>2012-09-15T07:15:24Z</time>
      </trkpt>
      <trkpt lat="45.83888" lon="3.07143">
        <ele>503</ele>
        <time>2012-09-15T07:15:26Z</time>
      </trkpt>
      <trkpt lat="45.83894" lon="3.07136">
        <ele>503</ele>
        <time>2012-09-15T07:15:28Z</time>
      </trkpt>
      <trkpt lat="45.83896" lon="3.07123">
        <ele>503</ele>
        <time>2012-09-15T07:15:30Z</time>
      </trkpt>
      <trkpt lat="45.83898" lon="3.07107">
        <ele>503</ele>
        <time>2012-09-15T07:15:32Z</time>
      </trkpt>
      <trkpt lat="45.83899" lon="3.07088">
        <ele>503</ele>
        <time>2012-09-15T07:15:34Z</time>
      </trkpt>
      <trkpt lat="45.839" lon="3.0707">
        <ele>503</ele>
        <time>2012-09-15T07:15:36Z</time>
      </trkpt>
      <trkpt lat="45.839" lon="3.07051">
        <ele>502</ele>
        <time>2012-09-15T07:15:38Z</time>
      </trkpt>
      <trkpt lat="45.83898" lon="3.07032">
        <ele>501</ele>
        <time>2012-09-15T07:15:40Z</time>
      </trkpt>
      <trkpt lat="45.83895" lon="3.07013">
        <ele>501</ele>
        <time>2012-09-15T07:15:42Z</time>
      </trkpt>
      <trkpt lat="45.83894" lon="3.06994">
        <ele>500</ele>
        <time>2012-09-15T07:15:44Z</time>
      </trkpt>
      <trkpt lat="45.83893" lon="3.06974">
        <ele>500</ele>
        <time>2012-09-15T07:15:46Z</time>
      </trkpt>
      <trkpt lat="45.83893" lon="3.06954">
        <ele>499</ele>
        <time>2012-09-15T07:15:48Z</time>
      </trkpt>
      <trkpt lat="45.83892" lon="3.06934">
        <ele>499</ele>
        <time>2012-09-15T07:15:50Z</time>
      </trkpt>
      <trkpt lat="45.83893" lon="3.06915">
        <ele>499</ele>
        <time>2012-09-15T07:15:52Z</time>
      </trkpt>
      <trkpt lat="45.83894" lon="3.06896">
        <ele>499</ele>
        <time>2012-09-15T07:15:54Z</time>
      </trkpt>
      <trkpt lat="45.83896" lon="3.06878">
        <ele>499</ele>
        <time>2012-09-15T07:15:56Z</time>
      </trkpt>
      <trkpt lat="45.83897" lon="3.0686">
        <ele>499</ele>
        <time>2012-09-15T07:15:58Z</time>
      </trkpt>
      <trkpt lat="45.839" lon="3.06842">
        <ele>499</ele>
        <time>2012-09-15T07:16:00Z</time>
      </trkpt>
      <trkpt lat="45.83903" lon="3.06825">
        <ele>499</ele>
        <time>2012-09-15T07:16:02Z</time>
      </trkpt>
      <trkpt lat="45.83907" lon="3.06809">
        <ele>499</ele>
        <time>2012-09-15T07:16:04Z</time>
      </trkpt>
      <trkpt lat="45.83912" lon="3.06793">
        <ele>499</ele>
        <time>2012-09-15T07:16:06Z</time>
      </trkpt>
      <trkpt lat="45.83917" lon="3.06777">
        <ele>499</ele>
        <time>2012-09-15T07:16:08Z</time>
      </trkpt>
      <trkpt lat="45.83922" lon="3.0676">
        <ele>499</ele>
        <time>2012-09-15T07:16:10Z</time>
      </trkpt>
      <trkpt lat="45.83927" lon="3.06744">
        <ele>499</ele>
        <time>2012-09-15T07:16:12Z</time>
      </trkpt>
      <trkpt lat="45.83933" lon="3.06727">
        <ele>499</ele>
        <time>2012-09-15T07:16:14Z</time>
      </trkpt>
      <trkpt lat="45.83938" lon="3.06711">
        <ele>499</ele>
        <time>2012-09-15T07:16:16Z</time>
      </trkpt>
      <trkpt lat="45.83943" lon="3.06695">
        <ele>498</ele>
        <time>2012-09-15T07:16:18Z</time>
      </trkpt>
      <trkpt lat="45.83948" lon="3.06679">
        <ele>498</ele>
        <time>2012-09-15T07:16:20Z</time>
      </trkpt>
      <trkpt lat="45.83951" lon="3.06662">
        <ele>498</ele>
        <time>2012-09-15T07:16:22Z</time>
      </trkpt>
      <trkpt lat="45.83955" lon="3.06644">
        <ele>497</ele>
        <time>2012-09-15T07:16:24Z</time>
      </trkpt>
      <trkpt lat="45.8396" lon="3.06627">
        <ele>497</ele>
        <time>2012-09-15T07:16:26Z</time>
      </trkpt>
      <trkpt lat="45.83964" lon="3.06609">
        <ele>497</ele>
        <time>2012-09-15T07:16:28Z</time>
      </trkpt>
      <trkpt lat="45.83966" lon="3.0659">
        <ele>497</ele>
        <time>2012-09-15T07:16:30Z</time>
      </trkpt>
      <trkpt lat="45.83968" lon="3.06571">
        <ele>497</ele>
        <time>2012-09-15T07:16:32Z</time>
      </trkpt>
      <trkpt lat="45.8397" lon="3.06552">
        <ele>497</ele>
        <time>2012-09-15T07:16:34Z</time>
      </trkpt>
      <trkpt lat="45.83972" lon="3.06533">
        <ele>497</ele>
        <time>2012-09-15T07:16:36Z</time>
      </trkpt>
      <trkpt lat="45.83975" lon="3.06516">
        <ele>497</ele>
        <time>2012-09-15T07:16:38Z</time>
      </trkpt>
      <trkpt lat="45.83977" lon="3.06502">
        <ele>497</ele>
        <time>2012-09-15T07:16:40Z</time>
      </trkpt>
      <trkpt lat="45.83979" lon="3.06489">
        <ele>497</ele>
        <time>2012-09-15T07:16:42Z</time>
      </trkpt>
      <trkpt lat="45.83982" lon="3.06475">
        <ele>497</ele>
        <time>2012-09-15T07:16:44Z</time>
      </trkpt>
      <trkpt lat="45.83984" lon="3.06463">
        <ele>497</ele>
        <time>2012-09-15T07:16:46Z</time>
      </trkpt>
      <trkpt lat="45.83987" lon="3.06452">
        <ele>497</ele>
        <time>2012-09-15T07:16:48Z</time>
      </trkpt>
      <trkpt lat="45.8399" lon="3.06444">
        <ele>497</ele>
        <time>2012-09-15T07:16:50Z</time>
      </trkpt>
      <trkpt lat="45.83992" lon="3.06435">
        <ele>498</ele>
        <time>2012-09-15T07:16:52Z</time>
      </trkpt>
      <trkpt lat="45.83995" lon="3.06427">
        <ele>499</ele>
        <time>2012-09-15T07:16:54Z</time>
      </trkpt>
      <trkpt lat="45.83997" lon="3.06419">
        <ele>499</ele>
        <time>2012-09-15T07:16:56Z</time>
      </trkpt>
      <trkpt lat="45.83999" lon="3.0641">
        <ele>500</ele>
        <time>2012-09-15T07:16:58Z</time>
      </trkpt>
      <trkpt lat="45.84001" lon="3.06401">
        <ele>501</ele>
        <time>2012-09-15T07:17:00Z</time>
      </trkpt>
      <trkpt lat="45.84003" lon="3.06392">
        <ele>501</ele>
        <time>2012-09-15T07:17:02Z</time>
      </trkpt>
      <trkpt lat="45.84005" lon="3.06383">
        <ele>502</ele>
        <time>2012-09-15T07:17:04Z</time>
      </trkpt>
      <trkpt lat="45.84008" lon="3.06374">
        <ele>502</ele>
        <time>2012-09-15T07:17:06Z</time>
      </trkpt>
      <trkpt lat="45.84011" lon="3.06365">
        <ele>503</ele>
        <time>2012-09-15T07:17:08Z</time>
      </trkpt>
      <trkpt lat="45.84015" lon="3.06354">
        <ele>503</ele>
        <time>2012-09-15T07:17:10Z</time>
      </trkpt>
      <trkpt lat="45.84018" lon="3.06344">
        <ele>503</ele>
        <time>2012-09-15T07:17:12Z</time>
      </trkpt>
      <trkpt lat="45.84021" lon="3.06333">
        <ele>504</ele>
        <time>2012-09-15T07:17:14Z</time>
      </trkpt>
      <trkpt lat="45.84021" lon="3.06323">
        <ele>504</ele>
        <time>2012-09-15T07:17:16Z</time>
      </trkpt>
      <trkpt lat="45.84021" lon="3.06312">
        <ele>504</ele>
        <time>2012-09-15T07:17:18Z</time>
      </trkpt>
      <trkpt lat="45.84021" lon="3.063">
        <ele>504</ele>
        <time>2012-09-15T07:17:20Z</time>
      </trkpt>
      <trkpt lat="45.84024" lon="3.06289">
        <ele>504</ele>
        <time>2012-09-15T07:17:22Z</time>
      </trkpt>
      <trkpt lat="45.84027" lon="3.06277">
        <ele>504</ele>
        <time>2012-09-15T07:17:24Z</time>
      </trkpt>
      <trkpt lat="45.84029" lon="3.06265">
        <ele>505</ele>
        <time>2012-09-15T07:17:26Z</time>
      </trkpt>
      <trkpt lat="45.84031" lon="3.06252">
        <ele>505</ele>
        <time>2012-09-15T07:17:28Z</time>
      </trkpt>
      <trkpt lat="45.84033" lon="3.06239">
        <ele>505</ele>
        <time>2012-09-15T07:17:30Z</time>
      </trkpt>
      <trkpt lat="45.84036" lon="3.06225">
        <ele>505</ele>
        <time>2012-09-15T07:17:32Z</time>
      </trkpt>
      <trkpt lat="45.84039" lon="3.06211">
        <ele>505</ele>
        <time>2012-09-15T07:17:34Z</time>
      </trkpt>
      <trkpt lat="45.84042" lon="3.06199">
        <ele>505</ele>
        <time>2012-09-15T07:17:36Z</time>
      </trkpt>
      <trkpt lat="45.84047" lon="3.06186">
        <ele>505</ele>
        <time>2012-09-15T07:17:38Z</time>
      </trkpt>
      <trkpt lat="45.84052" lon="3.06174">
        <ele>505</ele>
        <time>2012-09-15T07:17:40Z</time>
      </trkpt>
      <trkpt lat="45.84058" lon="3.0616">
        <ele>505</ele>
        <time>2012-09-15T07:17:42Z</time>
      </trkpt>
      <trkpt lat="45.84062" lon="3.06148">
        <ele>505</ele>
        <time>2012-09-15T07:17:44Z</time>
      </trkpt>
      <trkpt lat="45.84066" lon="3.06135">
        <ele>505</ele>
        <time>2012-09-15T07:17:46Z</time>
      </trkpt>
      <trkpt lat="45.8407" lon="3.06123">
        <ele>505</ele>
        <time>2012-09-15T07:17:48Z</time>
      </trkpt>
      <trkpt lat="45.84074" lon="3.0611">
        <ele>505</ele>
        <time>2012-09-15T07:17:50Z</time>
      </trkpt>
      <trkpt lat="45.84076" lon="3.06098">
        <ele>505</ele>
        <time>2012-09-15T07:17:52Z</time>
      </trkpt>
      <trkpt lat="45.84076" lon="3.06084">
        <ele>505</ele>
        <time>2012-09-15T07:17:54Z</time>
      </trkpt>
      <trkpt lat="45.84074" lon="3.06071">
        <ele>505</ele>
        <time>2012-09-15T07:17:56Z</time>
      </trkpt>
      <trkpt lat="45.84071" lon="3.06057">
        <ele>505</ele>
        <time>2012-09-15T07:17:58Z</time>
      </trkpt>
      <trkpt lat="45.84069" lon="3.06044">
        <ele>505</ele>
        <time>2012-09-15T07:18:00Z</time>
      </trkpt>
      <trkpt lat="45.84068" lon="3.0603">
        <ele>506</ele>
        <time>2012-09-15T07:18:02Z</time>
      </trkpt>
      <trkpt lat="45.84068" lon="3.06015">
        <ele>506</ele>
        <time>2012-09-15T07:18:04Z</time>
      </trkpt>
      <trkpt lat="45.84068" lon="3.06">
        <ele>507</ele>
        <time>2012-09-15T07:18:06Z</time>
      </trkpt>
      <trkpt lat="45.84068" lon="3.05986">
        <ele>507</ele>
        <time>2012-09-15T07:18:08Z</time>
      </trkpt>
      <trkpt lat="45.84069" lon="3.05972">
        <ele>507</ele>
        <time>2012-09-15T07:18:10Z</time>
      </trkpt>
      <trkpt lat="45.84068" lon="3.05958">
        <ele>507</ele>
        <time>2012-09-15T07:18:12Z</time>
      </trkpt>
      <trkpt lat="45.84068" lon="3.05944">
        <ele>507</ele>
        <time>2012-09-15T07:18:14Z</time>
      </trkpt>
      <trkpt lat="45.84068" lon="3.05929">
        <ele>508</ele>
        <time>2012-09-15T07:18:16Z</time>
      </trkpt>
      <trkpt lat="45.84069" lon="3.05915">
        <ele>508</ele>
        <time>2012-09-15T07:18:18Z</time>
      </trkpt>
      <trkpt lat="45.84072" lon="3.05902">
        <ele>509</ele>
        <time>2012-09-15T07:18:20Z</time>
      </trkpt>
      <trkpt lat="45.84074" lon="3.05889">
        <ele>509</ele>
        <time>2012-09-15T07:18:22Z</time>
      </trkpt>
      <trkpt lat="45.84073" lon="3.05878">
        <ele>510</ele>
        <time>2012-09-15T07:18:24Z</time>
      </trkpt>
      <trkpt lat="45.84071" lon="3.05868">
        <ele>511</ele>
        <time>2012-09-15T07:18:26Z</time>
      </trkpt>
      <trkpt lat="45.84069" lon="3.05857">
        <ele>511</ele>
        <time>2012-09-15T07:18:28Z</time>
      </trkpt>
      <trkpt lat="45.84067" lon="3.05846">
        <ele>512</ele>
        <time>2012-09-15T07:18:30Z</time>
      </trkpt>
      <trkpt lat="45.84065" lon="3.05836">
        <ele>512</ele>
        <time>2012-09-15T07:18:32Z</time>
      </trkpt>
      <trkpt lat="45.84064" lon="3.05826">
        <ele>512</ele>
        <time>2012-09-15T07:18:34Z</time>
      </trkpt>
      <trkpt lat="45.84065" lon="3.05816">
        <ele>513</ele>
        <time>2012-09-15T07:18:36Z</time>
      </trkpt>
      <trkpt lat="45.84066" lon="3.05805">
        <ele>514</ele>
        <time>2012-09-15T07:18:38Z</time>
      </trkpt>
      <trkpt lat="45.84067" lon="3.05795">
        <ele>514</ele>
        <time>2012-09-15T07:18:40Z</time>
      </trkpt>
      <trkpt lat="45.84069" lon="3.05785">
        <ele>515</ele>
        <time>2012-09-15T07:18:42Z</time>
      </trkpt>
      <trkpt lat="45.8407" lon="3.05774">
        <ele>515</ele>
        <time>2012-09-15T07:18:44Z</time>
      </trkpt>
      <trkpt lat="45.84072" lon="3.05763">
        <ele>515</ele>
        <time>2012-09-15T07:18:46Z</time>
      </trkpt>
      <trkpt lat="45.84074" lon="3.05753">
        <ele>516</ele>
        <time>2012-09-15T07:18:48Z</time>
      </trkpt>
      <trkpt lat="45.84076" lon="3.05742">
        <ele>516</ele>
        <time>2012-09-15T07:18:50Z</time>
      </trkpt>
      <trkpt lat="45.84077" lon="3.05732">
        <ele>517</ele>
        <time>2012-09-15T07:18:52Z</time>
      </trkpt>
      <trkpt lat="45.84079" lon="3.05721">
        <ele>517</ele>
        <time>2012-09-15T07:18:54Z</time>
      </trkpt>
      <trkpt lat="45.84081" lon="3.05711">
        <ele>517</ele>
        <time>2012-09-15T07:18:56Z</time>
      </trkpt>
      <trkpt lat="45.84082" lon="3.057">
        <ele>517</ele>
        <time>2012-09-15T07:18:58Z</time>
      </trkpt>
      <trkpt lat="45.84082" lon="3.0569">
        <ele>518</ele>
        <time>2012-09-15T07:19:00Z</time>
      </trkpt>
      <trkpt lat="45.84082" lon="3.05679">
        <ele>518</ele>
        <time>2012-09-15T07:19:02Z</time>
      </trkpt>
      <trkpt lat="45.84082" lon="3.05669">
        <ele>518</ele>
        <time>2012-09-15T07:19:04Z</time>
      </trkpt>
      <trkpt lat="45.84082" lon="3.05657">
        <ele>518</ele>
        <time>2012-09-15T07:19:06Z</time>
      </trkpt>
      <trkpt lat="45.84082" lon="3.05645">
        <ele>518</ele>
        <time>2012-09-15T07:19:08Z</time>
      </trkpt>
      <trkpt lat="45.84082" lon="3.05633">
        <ele>518</ele>
        <time>2012-09-15T07:19:10Z</time>
      </trkpt>
      <trkpt lat="45.84083" lon="3.05621">
        <ele>518</ele>
        <time>2012-09-15T07:19:12Z</time>
      </trkpt>
      <trkpt lat="45.84084" lon="3.05609">
        <ele>519</ele>
        <time>2012-09-15T07:19:14Z</time>
      </trkpt>
      <trkpt lat="45.84085" lon="3.05596">
        <ele>519</ele>
        <time>2012-09-15T07:19:16Z</time>
      </trkpt>
      <trkpt lat="45.84086" lon="3.05583">
        <ele>519</ele>
        <time>2012-09-15T07:19:18Z</time>
      </trkpt>
      <trkpt lat="45.84086" lon="3.05571">
        <ele>519</ele>
        <time>2012-09-15T07:19:20Z</time>
      </trkpt>
      <trkpt lat="45.84087" lon="3.05558">
        <ele>520</ele>
        <time>2012-09-15T07:19:22Z</time>
      </trkpt>
      <trkpt lat="45.84087" lon="3.05545">
        <ele>520</ele>
        <time>2012-09-15T07:19:24Z</time>
      </trkpt>
      <trkpt lat="45.84088" lon="3.05532">
        <ele>520</ele>
        <time>2012-09-15T07:19:26Z</time>
      </trkpt>
      <trkpt lat="45.8409" lon="3.05519">
        <ele>520</ele>
        <time>2012-09-15T07:19:28Z</time>
      </trkpt>
      <trkpt lat="45.8409" lon="3.05505">
        <ele>520</ele>
        <time>2012-09-15T07:19:30Z</time>
      </trkpt>
      <trkpt lat="45.84092" lon="3.05491">
        <ele>521</ele>
        <time>2012-09-15T07:19:32Z</time>
      </trkpt>
      <trkpt lat="45.84092" lon="3.05478">
        <ele>521</ele>
        <time>2012-09-15T07:19:34Z</time>
      </trkpt>
      <trkpt lat="45.84092" lon="3.05464">
        <ele>521</ele>
        <time>2012-09-15T07:19:36Z</time>
      </trkpt>
      <trkpt lat="45.84092" lon="3.05451">
        <ele>521</ele>
        <time>2012-09-15T07:19:38Z</time>
      </trkpt>
      <trkpt lat="45.84092" lon="3.05437">
        <ele>521</ele>
        <time>2012-09-15T07:19:40Z</time>
      </trkpt>
      <trkpt lat="45.84091" lon="3.05423">
        <ele>521</ele>
        <time>2012-09-15T07:19:42Z</time>
      </trkpt>
      <trkpt lat="45.8409" lon="3.0541">
        <ele>521</ele>
        <time>2012-09-15T07:19:44Z</time>
      </trkpt>
      <trkpt lat="45.8409" lon="3.05396">
        <ele>522</ele>
        <time>2012-09-15T07:19:46Z</time>
      </trkpt>
      <trkpt lat="45.8409" lon="3.05381">
        <ele>522</ele>
        <time>2012-09-15T07:19:48Z</time>
      </trkpt>
      <trkpt lat="45.84092" lon="3.05368">
        <ele>522</ele>
        <time>2012-09-15T07:19:50Z</time>
      </trkpt>
      <trkpt lat="45.84094" lon="3.05354">
        <ele>522</ele>
        <time>2012-09-15T07:19:52Z</time>
      </trkpt>
      <trkpt lat="45.84095" lon="3.0534">
        <ele>522</ele>
        <time>2012-09-15T07:19:54Z</time>
      </trkpt>
      <trkpt lat="45.84096" lon="3.05326">
        <ele>522</ele>
        <time>2012-09-15T07:19:56Z</time>
      </trkpt>
      <trkpt lat="45.84095" lon="3.05311">
        <ele>523</ele>
        <time>2012-09-15T07:19:58Z</time>
      </trkpt>
      <trkpt lat="45.84094" lon="3.05297">
        <ele>523</ele>
        <time>2012-09-15T07:20:00Z</time>
      </trkpt>
      <trkpt lat="45.84092" lon="3.05284">
        <ele>523</ele>
        <time>2012-09-15T07:20:02Z</time>
      </trkpt>
      <trkpt lat="45.84091" lon="3.0527">
        <ele>523</ele>
        <time>2012-09-15T07:20:04Z</time>
      </trkpt>
      <trkpt lat="45.8409" lon="3.05256">
        <ele>523</ele>
        <time>2012-09-15T07:20:06Z</time>
      </trkpt>
      <trkpt lat="45.84089" lon="3.05243">
        <ele>523</ele>
        <time>2012-09-15T07:20:08Z</time>
      </trkpt>
      <trkpt lat="45.84088" lon="3.05231">
        <ele>524</ele>
        <time>2012-09-15T07:20:10Z</time>
      </trkpt>
      <trkpt lat="45.84088" lon="3.05219">
        <ele>524</ele>
        <time>2012-09-15T07:20:12Z</time>
      </trkpt>
      <trkpt lat="45.84087" lon="3.05206">
        <ele>524</ele>
        <time>2012-09-15T07:20:14Z</time>
      </trkpt>
      <trkpt lat="45.84085" lon="3.05193">
        <ele>525</ele>
        <time>2012-09-15T07:20:16Z</time>
      </trkpt>
      <trkpt lat="45.84085" lon="3.05181">
        <ele>525</ele>
        <time>2012-09-15T07:20:18Z</time>
      </trkpt>
      <trkpt lat="45.84084" lon="3.05169">
        <ele>525</ele>
        <time>2012-09-15T07:20:20Z</time>
      </trkpt>
      <trkpt lat="45.84085" lon="3.05156">
        <ele>526</ele>
        <time>2012-09-15T07:20:22Z</time>
      </trkpt>
      <trkpt lat="45.84085" lon="3.05143">
        <ele>526</ele>
        <time>2012-09-15T07:20:24Z</time>
      </trkpt>
      <trkpt lat="45.84086" lon="3.0513">
        <ele>526</ele>
        <time>2012-09-15T07:20:26Z</time>
      </trkpt>
      <trkpt lat="45.84087" lon="3.05118">
        <ele>527</ele>
        <time>2012-09-15T07:20:28Z</time>
      </trkpt>
      <trkpt lat="45.84088" lon="3.05105">
        <ele>527</ele>
        <time>2012-09-15T07:20:30Z</time>
      </trkpt>
      <trkpt lat="45.84089" lon="3.05091">
        <ele>528</ele>
        <time>2012-09-15T07:20:32Z</time>
      </trkpt>
      <trkpt lat="45.84091" lon="3.05077">
        <ele>528</ele>
        <time>2012-09-15T07:20:34Z</time>
      </trkpt>
      <trkpt lat="45.84095" lon="3.05063">
        <ele>528</ele>
        <time>2012-09-15T07:20:36Z</time>
      </trkpt>
      <trkpt lat="45.84097" lon="3.05049">
        <ele>528</ele>
        <time>2012-09-15T07:20:38Z</time>
      </trkpt>
      <trkpt lat="45.84098" lon="3.05036">
        <ele>529</ele>
        <time>2012-09-15T07:20:40Z</time>
      </trkpt>
      <trkpt lat="45.841" lon="3.05022">
        <ele>529</ele>
        <time>2012-09-15T07:20:42Z</time>
      </trkpt>
      <trkpt lat="45.84101" lon="3.05008">
        <ele>529</ele>
        <time>2012-09-15T07:20:44Z</time>
      </trkpt>
      <trkpt lat="45.84101" lon="3.04995">
        <ele>529</ele>
        <time>2012-09-15T07:20:46Z</time>
      </trkpt>
      <trkpt lat="45.84101" lon="3.04981">
        <ele>529</ele>
        <time>2012-09-15T07:20:48Z</time>
      </trkpt>
      <trkpt lat="45.841" lon="3.04968">
        <ele>529</ele>
        <time>2012-09-15T07:20:50Z</time>
      </trkpt>
      <trkpt lat="45.841" lon="3.04955">
        <ele>529</ele>
        <time>2012-09-15T07:20:52Z</time>
      </trkpt>
      <trkpt lat="45.84099" lon="3.04942">
        <ele>529</ele>
        <time>2012-09-15T07:20:54Z</time>
      </trkpt>
      <trkpt lat="45.84099" lon="3.04928">
        <ele>530</ele>
        <time>2012-09-15T07:20:56Z</time>
      </trkpt>
      <trkpt lat="45.84098" lon="3.04915">
        <ele>530</ele>
        <time>2012-09-15T07:20:58Z</time>
      </trkpt>
      <trkpt lat="45.84098" lon="3.04904">
        <ele>531</ele>
        <time>2012-09-15T07:21:00Z</time>
      </trkpt>
      <trkpt lat="45.84097" lon="3.04891">
        <ele>531</ele>
        <time>2012-09-15T07:21:02Z</time>
      </trkpt>
      <trkpt lat="45.84094" lon="3.04879">
        <ele>531</ele>
        <time>2012-09-15T07:21:04Z</time>
      </trkpt>
      <trkpt lat="45.84092" lon="3.04867">
        <ele>532</ele>
        <time>2012-09-15T07:21:06Z</time>
      </trkpt>
      <trkpt lat="45.8409" lon="3.04855">
        <ele>532</ele>
        <time>2012-09-15T07:21:08Z</time>
      </trkpt>
      <trkpt lat="45.84089" lon="3.04843">
        <ele>532</ele>
        <time>2012-09-15T07:21:10Z</time>
      </trkpt>
      <trkpt lat="45.84087" lon="3.04832">
        <ele>532</ele>
        <time>2012-09-15T07:21:12Z</time>
      </trkpt>
      <trkpt lat="45.84085" lon="3.04821">
        <ele>532</ele>
        <time>2012-09-15T07:21:14Z</time>
      </trkpt>
      <trkpt lat="45.84083" lon="3.0481">
        <ele>533</ele>
        <time>2012-09-15T07:21:16Z</time>
      </trkpt>
      <trkpt lat="45.84082" lon="3.04798">
        <ele>533</ele>
        <time>2012-09-15T07:21:18Z</time>
      </trkpt>
      <trkpt lat="45.84081" lon="3.04787">
        <ele>533</ele>
        <time>2012-09-15T07:21:20Z</time>
      </trkpt>
      <trkpt lat="45.8408" lon="3.04775">
        <ele>534</ele>
        <time>2012-09-15T07:21:22Z</time>
      </trkpt>
      <trkpt lat="45.8408" lon="3.04763">
        <ele>534</ele>
        <time>2012-09-15T07:21:24Z</time>
      </trkpt>
      <trkpt lat="45.8408" lon="3.04752">
        <ele>535</ele>
        <time>2012-09-15T07:21:26Z</time>
      </trkpt>
      <trkpt lat="45.8408" lon="3.04743">
        <ele>535</ele>
        <time>2012-09-15T07:21:28Z</time>
      </trkpt>
      <trkpt lat="45.84077" lon="3.04734">
        <ele>535</ele>
        <time>2012-09-15T07:21:30Z</time>
      </trkpt>
      <trkpt lat="45.8407" lon="3.0473">
        <ele>535</ele>
        <time>2012-09-15T07:21:32Z</time>
      </trkpt>
      <trkpt lat="45.84062" lon="3.04733">
        <ele>535</ele>
        <time>2012-09-15T07:21:34Z</time>
      </trkpt>
      <trkpt lat="45.84053" lon="3.04738">
        <ele>535</ele>
        <time>2012-09-15T07:21:36Z</time>
      </trkpt>
      <trkpt lat="45.84043" lon="3.04744">
        <ele>535</ele>
        <time>2012-09-15T07:21:38Z</time>
      </trkpt>
      <trkpt lat="45.84034" lon="3.0475">
        <ele>535</ele>
        <time>2012-09-15T07:21:40Z</time>
      </trkpt>
      <trkpt lat="45.84023" lon="3.04756">
        <ele>535</ele>
        <time>2012-09-15T07:21:42Z</time>
      </trkpt>
      <trkpt lat="45.84012" lon="3.04764">
        <ele>535</ele>
        <time>2012-09-15T07:21:44Z</time>
      </trkpt>
      <trkpt lat="45.84001" lon="3.04771">
        <ele>535</ele>
        <time>2012-09-15T07:21:46Z</time>
      </trkpt>
      <trkpt lat="45.83989" lon="3.04778">
        <ele>535</ele>
        <time>2012-09-15T07:21:48Z</time>
      </trkpt>
      <trkpt lat="45.83977" lon="3.04786">
        <ele>535</ele>
        <time>2012-09-15T07:21:50Z</time>
      </trkpt>
      <trkpt lat="45.83965" lon="3.04794">
        <ele>535</ele>
        <time>2012-09-15T07:21:52Z</time>
      </trkpt>
      <trkpt lat="45.83956" lon="3.0479">
        <ele>535</ele>
        <time>2012-09-15T07:21:54Z</time>
      </trkpt>
      <trkpt lat="45.83953" lon="3.0478">
        <ele>535</ele>
        <time>2012-09-15T07:21:56Z</time>
      </trkpt>
      <trkpt lat="45.83954" lon="3.04771">
        <ele>535</ele>
        <time>2012-09-15T07:21:58Z</time>
      </trkpt>
      <trkpt lat="45.83953" lon="3.04761">
        <ele>535</ele>
        <time>2012-09-15T07:22:00Z</time>
      </trkpt>
      <trkpt lat="45.83952" lon="3.04749">
        <ele>535</ele>
        <time>2012-09-15T07:22:02Z</time>
      </trkpt>
      <trkpt lat="45.83951" lon="3.04738">
        <ele>535</ele>
        <time>2012-09-15T07:22:04Z</time>
      </trkpt>
      <trkpt lat="45.8395" lon="3.04727">
        <ele>535</ele>
        <time>2012-09-15T07:22:06Z</time>
      </trkpt>
      <trkpt lat="45.83949" lon="3.04715">
        <ele>535</ele>
        <time>2012-09-15T07:22:08Z</time>
      </trkpt>
      <trkpt lat="45.83947" lon="3.04705">
        <ele>535</ele>
        <time>2012-09-15T07:22:10Z</time>
      </trkpt>
      <trkpt lat="45.83946" lon="3.04694">
        <ele>535</ele>
        <time>2012-09-15T07:22:12Z</time>
      </trkpt>
      <trkpt lat="45.83946" lon="3.04683">
        <ele>535</ele>
        <time>2012-09-15T07:22:14Z</time>
      </trkpt>
      <trkpt lat="45.83948" lon="3.04671">
        <ele>535</ele>
        <time>2012-09-15T07:22:16Z</time>
      </trkpt>
      <trkpt lat="45.8395" lon="3.04661">
        <ele>536</ele>
        <time>2012-09-15T07:22:18Z</time>
      </trkpt>
      <trkpt lat="45.83953" lon="3.0465">
        <ele>536</ele>
        <time>2012-09-15T07:22:20Z</time>
      </trkpt>
      <trkpt lat="45.83955" lon="3.0464">
        <ele>536</ele>
        <time>2012-09-15T07:22:22Z</time>
      </trkpt>
      <trkpt lat="45.83957" lon="3.04629">
        <ele>537</ele>
        <time>2012-09-15T07:22:24Z</time>
      </trkpt>
      <trkpt lat="45.83958" lon="3.0462">
        <ele>538</ele>
        <time>2012-09-15T07:22:26Z</time>
      </trkpt>
      <trkpt lat="45.8396" lon="3.04611">
        <ele>538</ele>
        <time>2012-09-15T07:22:28Z</time>
      </trkpt>
      <trkpt lat="45.83962" lon="3.04602">
        <ele>539</ele>
        <time>2012-09-15T07:22:30Z</time>
      </trkpt>
      <trkpt lat="45.83964" lon="3.04594">
        <ele>539</ele>
        <time>2012-09-15T07:22:32Z</time>
      </trkpt>
      <trkpt lat="45.83965" lon="3.04585">
        <ele>540</ele>
        <time>2012-09-15T07:22:34Z</time>
      </trkpt>
      <trkpt lat="45.83964" lon="3.04576">
        <ele>540</ele>
        <time>2012-09-15T07:22:36Z</time>
      </trkpt>
      <trkpt lat="45.83962" lon="3.04567">
        <ele>540</ele>
        <time>2012-09-15T07:22:38Z</time>
      </trkpt>
      <trkpt lat="45.8396" lon="3.04558">
        <ele>541</ele>
        <time>2012-09-15T07:22:40Z</time>
      </trkpt>
      <trkpt lat="45.8396" lon="3.04548">
        <ele>541</ele>
        <time>2012-09-15T07:22:42Z</time>
      </trkpt>
      <trkpt lat="45.83962" lon="3.0454">
        <ele>542</ele>
        <time>2012-09-15T07:22:44Z</time>
      </trkpt>
      <trkpt lat="45.83964" lon="3.04532">
        <ele>543</ele>
        <time>2012-09-15T07:22:46Z</time>
      </trkpt>
      <trkpt lat="45.83967" lon="3.04524">
        <ele>543</ele>
        <time>2012-09-15T07:22:48Z</time>
      </trkpt>
      <trkpt lat="45.83969" lon="3.04516">
        <ele>544</ele>
        <time>2012-09-15T07:22:50Z</time>
      </trkpt>
      <trkpt lat="45.83969" lon="3.04507">
        <ele>544</ele>
        <time>2012-09-15T07:22:52Z</time>
      </trkpt>
      <trkpt lat="45.83969" lon="3.04498">
        <ele>544</ele>
        <time>2012-09-15T07:22:54Z</time>
      </trkpt>
      <trkpt lat="45.83969" lon="3.04489">
        <ele>545</ele>
        <time>2012-09-15T07:22:56Z</time>
      </trkpt>
      <trkpt lat="45.83968" lon="3.0448">
        <ele>545</ele>
        <time>2012-09-15T07:22:58Z</time>
      </trkpt>
      <trkpt lat="45.83967" lon="3.04471">
        <ele>546</ele>
        <time>2012-09-15T07:23:00Z</time>
      </trkpt>
      <trkpt lat="45.83966" lon="3.04462">
        <ele>546</ele>
        <time>2012-09-15T07:23:02Z</time>
      </trkpt>
      <trkpt lat="45.83965" lon="3.04453">
        <ele>547</ele>
        <time>2012-09-15T07:23:04Z</time>
      </trkpt>
      <trkpt lat="45.83965" lon="3.04444">
        <ele>547</ele>
        <time>2012-09-15T07:23:06Z</time>
      </trkpt>
      <trkpt lat="45.83964" lon="3.04435">
        <ele>548</ele>
        <time>2012-09-15T07:23:08Z</time>
      </trkpt>
      <trkpt lat="45.83963" lon="3.04426">
        <ele>548</ele>
        <time>2012-09-15T07:23:10Z</time>
      </trkpt>
      <trkpt lat="45.83961" lon="3.04418">
        <ele>548</ele>
        <time>2012-09-15T07:23:12Z</time>
      </trkpt>
      <trkpt lat="45.83958" lon="3.0441">
        <ele>549</ele>
        <time>2012-09-15T07:23:14Z</time>
      </trkpt>
      <trkpt lat="45.83956" lon="3.04402">
        <ele>549</ele>
        <time>2012-09-15T07:23:16Z</time>
      </trkpt>
      <trkpt lat="45.83952" lon="3.04396">
        <ele>550</ele>
        <time>2012-09-15T07:23:18Z</time>
      </trkpt>
      <trkpt lat="45.83947" lon="3.04391">
        <ele>551</ele>
        <time>2012-09-15T07:23:20Z</time>
      </trkpt>
      <trkpt lat="45.83944" lon="3.04385">
        <ele>552</ele>
        <time>2012-09-15T07:23:22Z</time>
      </trkpt>
      <trkpt lat="45.83944" lon="3.04377">
        <ele>552</ele>
        <time>2012-09-15T07:23:24Z</time>
      </trkpt>
      <trkpt lat="45.83945" lon="3.04368">
        <ele>553</ele>
        <time>2012-09-15T07:23:26Z</time>
      </trkpt>
      <trkpt lat="45.83946" lon="3.04359">
        <ele>553</ele>
        <time>2012-09-15T07:23:28Z</time>
      </trkpt>
      <trkpt lat="45.83948" lon="3.0435">
        <ele>553</ele>
        <time>2012-09-15T07:23:30Z</time>
      </trkpt>
      <trkpt lat="45.83951" lon="3.04341">
        <ele>554</ele>
        <time>2012-09-15T07:23:32Z</time>
      </trkpt>
      <trkpt lat="45.83954" lon="3.04333">
        <ele>554</ele>
        <time>2012-09-15T07:23:34Z</time>
      </trkpt>
      <trkpt lat="45.83958" lon="3.04326">
        <ele>555</ele>
        <time>2012-09-15T07:23:36Z</time>
      </trkpt>
      <trkpt lat="45.83963" lon="3.0432">
        <ele>556</ele>
        <time>2012-09-15T07:23:38Z</time>
      </trkpt>
      <trkpt lat="45.83968" lon="3.04313">
        <ele>556</ele>
        <time>2012-09-15T07:23:40Z</time>
      </trkpt>
      <trkpt lat="45.83974" lon="3.04309">
        <ele>557</ele>
        <time>2012-09-15T07:23:42Z</time>
      </trkpt>
      <trkpt lat="45.8398" lon="3.04304">
        <ele>558</ele>
        <time>2012-09-15T07:23:44Z</time>
      </trkpt>
      <trkpt lat="45.83985" lon="3.04299">
        <ele>560</ele>
        <time>2012-09-15T07:23:46Z</time>
      </trkpt>
      <trkpt lat="45.83989" lon="3.04294">
        <ele>561</ele>
        <time>2012-09-15T07:23:48Z</time>
      </trkpt>
      <trkpt lat="45.83995" lon="3.04291">
        <ele>561</ele>
        <time>2012-09-15T07:23:50Z</time>
      </trkpt>
      <trkpt lat="45.84002" lon="3.04289">
        <ele>562</ele>
        <time>2012-09-15T07:23:52Z</time>
      </trkpt>
      <trkpt lat="45.84008" lon="3.04287">
        <ele>562</ele>
        <time>2012-09-15T07:23:54Z</time>
      </trkpt>
      <trkpt lat="45.84014" lon="3.04286">
        <ele>563</ele>
        <time>2012-09-15T07:23:56Z</time>
      </trkpt>
      <trkpt lat="45.84021" lon="3.04285">
        <ele>563</ele>
        <time>2012-09-15T07:23:58Z</time>
      </trkpt>
      <trkpt lat="45.84027" lon="3.04283">
        <ele>563</ele>
        <time>2012-09-15T07:24:00Z</time>
      </trkpt>
      <trkpt lat="45.84034" lon="3.0428">
        <ele>563</ele>
        <time>2012-09-15T07:24:02Z</time>
      </trkpt>
      <trkpt lat="45.8404" lon="3.04275">
        <ele>563</ele>
        <time>2012-09-15T07:24:04Z</time>
      </trkpt>
      <trkpt lat="45.84046" lon="3.04271">
        <ele>564</ele>
        <time>2012-09-15T07:24:06Z</time>
      </trkpt>
      <trkpt lat="45.84051" lon="3.04265">
        <ele>564</ele>
        <time>2012-09-15T07:24:08Z</time>
      </trkpt>
      <trkpt lat="45.84056" lon="3.04259">
        <ele>564</ele>
        <time>2012-09-15T07:24:10Z</time>
      </trkpt>
      <trkpt lat="45.84061" lon="3.04253">
        <ele>565</ele>
        <time>2012-09-15T07:24:12Z</time>
      </trkpt>
      <trkpt lat="45.84064" lon="3.04245">
        <ele>565</ele>
        <time>2012-09-15T07:24:14Z</time>
      </trkpt>
      <trkpt lat="45.84067" lon="3.04238">
        <ele>566</ele>
        <time>2012-09-15T07:24:16Z</time>
      </trkpt>
      <trkpt lat="45.8407" lon="3.0423">
        <ele>566</ele>
        <time>2012-09-15T07:24:18Z</time>
      </trkpt>
      <trkpt lat="45.84073" lon="3.04222">
        <ele>566</ele>
        <time>2012-09-15T07:24:20Z</time>
      </trkpt>
      <trkpt lat="45.84075" lon="3.04214">
        <ele>567</ele>
        <time>2012-09-15T07:24:22Z</time>
      </trkpt>
      <trkpt lat="45.84077" lon="3.04206">
        <ele>567</ele>
        <time>2012-09-15T07:24:24Z</time>
      </trkpt>
      <trkpt lat="45.84077" lon="3.04197">
        <ele>567</ele>
        <time>2012-09-15T07:24:26Z</time>
      </trkpt>
      <trkpt lat="45.84075" lon="3.04188">
        <ele>567</ele>
        <time>2012-09-15T07:24:28Z</time>
      </trkpt>
      <trkpt lat="45.84071" lon="3.0418">
        <ele>567</ele>
        <time>2012-09-15T07:24:30Z</time>
      </trkpt>
      <trkpt lat="45.84067" lon="3.04172">
        <ele>568</ele>
        <time>2012-09-15T07:24:32Z</time>
      </trkpt>
      <trkpt lat="45.84061" lon="3.04166">
        <ele>568</ele>
        <time>2012-09-15T07:24:34Z</time>
      </trkpt>
      <trkpt lat="45.84056" lon="3.0416">
        <ele>569</ele>
        <time>2012-09-15T07:24:36Z</time>
      </trkpt>
      <trkpt lat="45.84051" lon="3.04154">
        <ele>569</ele>
        <time>2012-09-15T07:24:38Z</time>
      </trkpt>
      <trkpt lat="45.84046" lon="3.04147">
        <ele>569</ele>
        <time>2012-09-15T07:24:40Z</time>
      </trkpt>
      <trkpt lat="45.84042" lon="3.04139">
        <ele>570</ele>
        <time>2012-09-15T07:24:42Z</time>
      </trkpt>
      <trkpt lat="45.8404" lon="3.0413">
        <ele>570</ele>
        <time>2012-09-15T07:24:44Z</time>
      </trkpt>
      <trkpt lat="45.84038" lon="3.04119">
        <ele>570</ele>
        <time>2012-09-15T07:24:46Z</time>
      </trkpt>
      <trkpt lat="45.84035" lon="3.04109">
        <ele>571</ele>
        <time>2012-09-15T07:24:48Z</time>
      </trkpt>
      <trkpt lat="45.84032" lon="3.04099">
        <ele>571</ele>
        <time>2012-09-15T07:24:50Z</time>
      </trkpt>
      <trkpt lat="45.84029" lon="3.04089">
        <ele>571</ele>
        <time>2012-09-15T07:24:52Z</time>
      </trkpt>
      <trkpt lat="45.84026" lon="3.04079">
        <ele>571</ele>
        <time>2012-09-15T07:24:54Z</time>
      </trkpt>
      <trkpt lat="45.84024" lon="3.04068">
        <ele>571</ele>
        <time>2012-09-15T07:24:56Z</time>
      </trkpt>
      <trkpt lat="45.84021" lon="3.04058">
        <ele>571</ele>
        <time>2012-09-15T07:24:58Z</time>
      </trkpt>
      <trkpt lat="45.84019" lon="3.04048">
        <ele>571</ele>
        <time>2012-09-15T07:25:00Z</time>
      </trkpt>
      <trkpt lat="45.84018" lon="3.04038">
        <ele>571</ele>
        <time>2012-09-15T07:25:02Z</time>
      </trkpt>
      <trkpt lat="45.84016" lon="3.04027">
        <ele>571</ele>
        <time>2012-09-15T07:25:04Z</time>
      </trkpt>
      <trkpt lat="45.84015" lon="3.04016">
        <ele>571</ele>
        <time>2012-09-15T07:25:06Z</time>
      </trkpt>
      <trkpt lat="45.84013" lon="3.04006">
        <ele>571</ele>
        <time>2012-09-15T07:25:08Z</time>
      </trkpt>
      <trkpt lat="45.84011" lon="3.03995">
        <ele>572</ele>
        <time>2012-09-15T07:25:10Z</time>
      </trkpt>
      <trkpt lat="45.8401" lon="3.03984">
        <ele>572</ele>
        <time>2012-09-15T07:25:12Z</time>
      </trkpt>
      <trkpt lat="45.84008" lon="3.03973">
        <ele>573</ele>
        <time>2012-09-15T07:25:14Z</time>
      </trkpt>
      <trkpt lat="45.84007" lon="3.03963">
        <ele>573</ele>
        <time>2012-09-15T07:25:16Z</time>
      </trkpt>
      <trkpt lat="45.84007" lon="3.03954">
        <ele>573</ele>
        <time>2012-09-15T07:25:18Z</time>
      </trkpt>
      <trkpt lat="45.84006" lon="3.03945">
        <ele>574</ele>
        <time>2012-09-15T07:25:20Z</time>
      </trkpt>
      <trkpt lat="45.84006" lon="3.03937">
        <ele>574</ele>
        <time>2012-09-15T07:25:22Z</time>
      </trkpt>
      <trkpt lat="45.84005" lon="3.03931">
        <ele>574</ele>
        <time>2012-09-15T07:25:24Z</time>
      </trkpt>
      <trkpt lat="45.84003" lon="3.03925">
        <ele>575</ele>
        <time>2012-09-15T07:25:26Z</time>
      </trkpt>
      <trkpt lat="45.84" lon="3.0392">
        <ele>576</ele>
        <time>2012-09-15T07:25:29Z</time>
      </trkpt>
      <trkpt lat="45.83996" lon="3.03918">
        <ele>577</ele>
        <time>2012-09-15T07:25:31Z</time>
      </trkpt>
      <trkpt lat="45.83992" lon="3.03915">
        <ele>578</ele>
        <time>2012-09-15T07:25:33Z</time>
      </trkpt>
      <trkpt lat="45.83988" lon="3.03913">
        <ele>578</ele>
        <time>2012-09-15T07:25:35Z</time>
      </trkpt>
      <trkpt lat="45.83987" lon="3.0391">
        <ele>578</ele>
        <time>2012-09-15T07:25:37Z</time>
      </trkpt>
      <trkpt lat="45.83984" lon="3.03906">
        <ele>579</ele>
        <time>2012-09-15T07:25:39Z</time>
      </trkpt>
      <trkpt lat="45.83981" lon="3.03902">
        <ele>580</ele>
        <time>2012-09-15T07:25:41Z</time>
      </trkpt>
      <trkpt lat="45.83979" lon="3.03897">
        <ele>580</ele>
        <time>2012-09-15T07:25:43Z</time>
      </trkpt>
      <trkpt lat="45.83978" lon="3.03891">
        <ele>581</ele>
        <time>2012-09-15T07:25:45Z</time>
      </trkpt>
      <trkpt lat="45.83977" lon="3.03885">
        <ele>581</ele>
        <time>2012-09-15T07:25:47Z</time>
      </trkpt>
      <trkpt lat="45.83976" lon="3.03879">
        <ele>581</ele>
        <time>2012-09-15T07:25:49Z</time>
      </trkpt>
      <trkpt lat="45.83976" lon="3.03872">
        <ele>581</ele>
        <time>2012-09-15T07:25:51Z</time>
      </trkpt>
      <trkpt lat="45.83977" lon="3.03866">
        <ele>581</ele>
        <time>2012-09-15T07:25:53Z</time>
      </trkpt>
      <trkpt lat="45.83978" lon="3.0386">
        <ele>581</ele>
        <time>2012-09-15T07:25:55Z</time>
      </trkpt>
      <trkpt lat="45.83979" lon="3.03854">
        <ele>581</ele>
        <time>2012-09-15T07:25:57Z</time>
      </trkpt>
      <trkpt lat="45.83981" lon="3.03848">
        <ele>582</ele>
        <time>2012-09-15T07:25:59Z</time>
      </trkpt>
      <trkpt lat="45.83982" lon="3.03841">
        <ele>582</ele>
        <time>2012-09-15T07:26:01Z</time>
      </trkpt>
      <trkpt lat="45.83982" lon="3.03833">
        <ele>582</ele>
        <time>2012-09-15T07:26:03Z</time>
      </trkpt>
      <trkpt lat="45.83982" lon="3.03826">
        <ele>582</ele>
        <time>2012-09-15T07:26:05Z</time>
      </trkpt>
      <trkpt lat="45.8398" lon="3.03819">
        <ele>583</ele>
        <time>2012-09-15T07:26:07Z</time>
      </trkpt>
      <trkpt lat="45.83979" lon="3.03811">
        <ele>583</ele>
        <time>2012-09-15T07:26:09Z</time>
      </trkpt>
      <trkpt lat="45.83979" lon="3.03803">
        <ele>583</ele>
        <time>2012-09-15T07:26:11Z</time>
      </trkpt>
      <trkpt lat="45.83979" lon="3.03796">
        <ele>583</ele>
        <time>2012-09-15T07:26:13Z</time>
      </trkpt>
      <trkpt lat="45.83981" lon="3.03789">
        <ele>584</ele>
        <time>2012-09-15T07:26:15Z</time>
      </trkpt>
      <trkpt lat="45.83983" lon="3.03783">
        <ele>584</ele>
        <time>2012-09-15T07:26:17Z</time>
      </trkpt>
      <trkpt lat="45.83986" lon="3.03777">
        <ele>585</ele>
        <time>2012-09-15T07:26:19Z</time>
      </trkpt>
      <trkpt lat="45.83987" lon="3.0377">
        <ele>585</ele>
        <time>2012-09-15T07:26:21Z</time>
      </trkpt>
      <trkpt lat="45.83989" lon="3.03764">
        <ele>586</ele>
        <time>2012-09-15T07:26:23Z</time>
      </trkpt>
      <trkpt lat="45.8399" lon="3.03757">
        <ele>587</ele>
        <time>2012-09-15T07:26:25Z</time>
      </trkpt>
      <trkpt lat="45.83992" lon="3.03751">
        <ele>587</ele>
        <time>2012-09-15T07:26:27Z</time>
      </trkpt>
      <trkpt lat="45.83996" lon="3.03746">
        <ele>587</ele>
        <time>2012-09-15T07:26:29Z</time>
      </trkpt>
      <trkpt lat="45.84001" lon="3.0374">
        <ele>588</ele>
        <time>2012-09-15T07:26:31Z</time>
      </trkpt>
      <trkpt lat="45.84006" lon="3.03734">
        <ele>590</ele>
        <time>2012-09-15T07:26:33Z</time>
      </trkpt>
      <trkpt lat="45.84009" lon="3.03729">
        <ele>591</ele>
        <time>2012-09-15T07:26:35Z</time>
      </trkpt>
      <trkpt lat="45.84012" lon="3.03722">
        <ele>592</ele>
        <time>2012-09-15T07:26:37Z</time>
      </trkpt>
      <trkpt lat="45.84015" lon="3.03715">
        <ele>592</ele>
        <time>2012-09-15T07:26:39Z</time>
      </trkpt>
      <trkpt lat="45.84017" lon="3.03708">
        <ele>592</ele>
        <time>2012-09-15T07:26:41Z</time>
      </trkpt>
      <trkpt lat="45.8402" lon="3.03701">
        <ele>592</ele>
        <time>2012-09-15T07:26:43Z</time>
      </trkpt>
      <trkpt lat="45.84024" lon="3.03695">
        <ele>592</ele>
        <time>2012-09-15T07:26:45Z</time>
      </trkpt>
      <trkpt lat="45.84027" lon="3.03688">
        <ele>592</ele>
        <time>2012-09-15T07:26:47Z</time>
      </trkpt>
      <trkpt lat="45.84029" lon="3.03682">
        <ele>592</ele>
        <time>2012-09-15T07:26:49Z</time>
      </trkpt>
      <trkpt lat="45.84031" lon="3.03675">
        <ele>592</ele>
        <time>2012-09-15T07:26:51Z</time>
      </trkpt>
      <trkpt lat="45.84032" lon="3.03669">
        <ele>592</ele>
        <time>2012-09-15T07:26:53Z</time>
      </trkpt>
      <trkpt lat="45.84033" lon="3.03662">
        <ele>592</ele>
        <time>2012-09-15T07:26:55Z</time>
      </trkpt>
      <trkpt lat="45.84035" lon="3.03656">
        <ele>592</ele>
        <time>2012-09-15T07:26:57Z</time>
      </trkpt>
      <trkpt lat="45.84037" lon="3.0365">
        <ele>592</ele>
        <time>2012-09-15T07:26:59Z</time>
      </trkpt>
      <trkpt lat="45.8404" lon="3.03644">
        <ele>592</ele>
        <time>2012-09-15T07:27:01Z</time>
      </trkpt>
      <trkpt lat="45.84043" lon="3.03639">
        <ele>592</ele>
        <time>2012-09-15T07:27:03Z</time>
      </trkpt>
      <trkpt lat="45.84045" lon="3.03633">
        <ele>592</ele>
        <time>2012-09-15T07:27:05Z</time>
      </trkpt>
      <trkpt lat="45.84047" lon="3.03626">
        <ele>592</ele>
        <time>2012-09-15T07:27:07Z</time>
      </trkpt>
      <trkpt lat="45.8405" lon="3.03619">
        <ele>592</ele>
        <time>2012-09-15T07:27:09Z</time>
      </trkpt>
      <trkpt lat="45.84053" lon="3.03613">
        <ele>592</ele>
        <time>2012-09-15T07:27:11Z</time>
      </trkpt>
      <trkpt lat="45.84056" lon="3.03607">
        <ele>592</ele>
        <time>2012-09-15T07:27:13Z</time>
      </trkpt>
      <trkpt lat="45.84058" lon="3.036">
        <ele>593</ele>
        <time>2012-09-15T07:27:15Z</time>
      </trkpt>
      <trkpt lat="45.84061" lon="3.03594">
        <ele>594</ele>
        <time>2012-09-15T07:27:17Z</time>
      </trkpt>
      <trkpt lat="45.84064" lon="3.03589">
        <ele>595</ele>
        <time>2012-09-15T07:27:19Z</time>
      </trkpt>
      <trkpt lat="45.84066" lon="3.03583">
        <ele>595</ele>
        <time>2012-09-15T07:27:21Z</time>
      </trkpt>
      <trkpt lat="45.84067" lon="3.03576">
        <ele>596</ele>
        <time>2012-09-15T07:27:23Z</time>
      </trkpt>
      <trkpt lat="45.84068" lon="3.0357">
        <ele>596</ele>
        <time>2012-09-15T07:27:25Z</time>
      </trkpt>
      <trkpt lat="45.84069" lon="3.03564">
        <ele>596</ele>
        <time>2012-09-15T07:27:27Z</time>
      </trkpt>
      <trkpt lat="45.84072" lon="3.03559">
        <ele>596</ele>
        <time>2012-09-15T07:27:29Z</time>
      </trkpt>
      <trkpt lat="45.84073" lon="3.03553">
        <ele>596</ele>
        <time>2012-09-15T07:27:31Z</time>
      </trkpt>
      <trkpt lat="45.84075" lon="3.03547">
        <ele>596</ele>
        <time>2012-09-15T07:27:33Z</time>
      </trkpt>
      <trkpt lat="45.84077" lon="3.03542">
        <ele>596</ele>
        <time>2012-09-15T07:27:35Z</time>
      </trkpt>
      <trkpt lat="45.84079" lon="3.03537">
        <ele>596</ele>
        <time>2012-09-15T07:27:37Z</time>
      </trkpt>
      <trkpt lat="45.84083" lon="3.03532">
        <ele>596</ele>
        <time>2012-09-15T07:27:39Z</time>
      </trkpt>
      <trkpt lat="45.84086" lon="3.03526">
        <ele>597</ele>
        <time>2012-09-15T07:27:41Z</time>
      </trkpt>
      <trkpt lat="45.84089" lon="3.03521">
        <ele>597</ele>
        <time>2012-09-15T07:27:43Z</time>
      </trkpt>
      <trkpt lat="45.84092" lon="3.03516">
        <ele>598</ele>
        <time>2012-09-15T07:27:45Z</time>
      </trkpt>
      <trkpt lat="45.84095" lon="3.0351">
        <ele>598</ele>
        <time>2012-09-15T07:27:47Z</time>
      </trkpt>
      <trkpt lat="45.84098" lon="3.03504">
        <ele>598</ele>
        <time>2012-09-15T07:27:49Z</time>
      </trkpt>
      <trkpt lat="45.841" lon="3.03495">
        <ele>598</ele>
        <time>2012-09-15T07:27:51Z</time>
      </trkpt>
      <trkpt lat="45.84102" lon="3.03486">
        <ele>598</ele>
        <time>2012-09-15T07:27:53Z</time>
      </trkpt>
      <trkpt lat="45.84105" lon="3.03478">
        <ele>598</ele>
        <time>2012-09-15T07:27:55Z</time>
      </trkpt>
      <trkpt lat="45.84105" lon="3.0347">
        <ele>598</ele>
        <time>2012-09-15T07:27:57Z</time>
      </trkpt>
      <trkpt lat="45.84106" lon="3.03462">
        <ele>599</ele>
        <time>2012-09-15T07:27:59Z</time>
      </trkpt>
      <trkpt lat="45.84106" lon="3.03454">
        <ele>599</ele>
        <time>2012-09-15T07:28:01Z</time>
      </trkpt>
      <trkpt lat="45.84106" lon="3.03446">
        <ele>600</ele>
        <time>2012-09-15T07:28:03Z</time>
      </trkpt>
      <trkpt lat="45.84104" lon="3.03438">
        <ele>600</ele>
        <time>2012-09-15T07:28:05Z</time>
      </trkpt>
      <trkpt lat="45.84104" lon="3.0343">
        <ele>601</ele>
        <time>2012-09-15T07:28:07Z</time>
      </trkpt>
      <trkpt lat="45.84105" lon="3.03422">
        <ele>601</ele>
        <time>2012-09-15T07:28:09Z</time>
      </trkpt>
      <trkpt lat="45.84105" lon="3.03414">
        <ele>601</ele>
        <time>2012-09-15T07:28:11Z</time>
      </trkpt>
      <trkpt lat="45.84105" lon="3.03407">
        <ele>602</ele>
        <time>2012-09-15T07:28:13Z</time>
      </trkpt>
      <trkpt lat="45.84106" lon="3.03399">
        <ele>602</ele>
        <time>2012-09-15T07:28:15Z</time>
      </trkpt>
      <trkpt lat="45.84107" lon="3.03391">
        <ele>602</ele>
        <time>2012-09-15T07:28:17Z</time>
      </trkpt>
      <trkpt lat="45.84108" lon="3.03383">
        <ele>603</ele>
        <time>2012-09-15T07:28:19Z</time>
      </trkpt>
      <trkpt lat="45.84108" lon="3.03375">
        <ele>603</ele>
        <time>2012-09-15T07:28:21Z</time>
      </trkpt>
      <trkpt lat="45.84109" lon="3.03367">
        <ele>603</ele>
        <time>2012-09-15T07:28:23Z</time>
      </trkpt>
      <trkpt lat="45.8411" lon="3.03359">
        <ele>604</ele>
        <time>2012-09-15T07:28:25Z</time>
      </trkpt>
      <trkpt lat="45.84111" lon="3.03351">
        <ele>605</ele>
        <time>2012-09-15T07:28:27Z</time>
      </trkpt>
      <trkpt lat="45.84113" lon="3.03344">
        <ele>606</ele>
        <time>2012-09-15T07:28:29Z</time>
      </trkpt>
      <trkpt lat="45.84115" lon="3.03337">
        <ele>606</ele>
        <time>2012-09-15T07:28:31Z</time>
      </trkpt>
      <trkpt lat="45.84117" lon="3.03331">
        <ele>607</ele>
        <time>2012-09-15T07:28:33Z</time>
      </trkpt>
      <trkpt lat="45.8412" lon="3.03325">
        <ele>608</ele>
        <time>2012-09-15T07:28:35Z</time>
      </trkpt>
      <trkpt lat="45.84122" lon="3.03319">
        <ele>608</ele>
        <time>2012-09-15T07:28:37Z</time>
      </trkpt>
      <trkpt lat="45.84125" lon="3.03313">
        <ele>609</ele>
        <time>2012-09-15T07:28:39Z</time>
      </trkpt>
      <trkpt lat="45.84127" lon="3.03307">
        <ele>609</ele>
        <time>2012-09-15T07:28:41Z</time>
      </trkpt>
      <trkpt lat="45.8413" lon="3.03301">
        <ele>610</ele>
        <time>2012-09-15T07:28:43Z</time>
      </trkpt>
      <trkpt lat="45.84133" lon="3.03295">
        <ele>611</ele>
        <time>2012-09-15T07:28:45Z</time>
      </trkpt>
      <trkpt lat="45.84135" lon="3.03289">
        <ele>611</ele>
        <time>2012-09-15T07:28:47Z</time>
      </trkpt>
      <trkpt lat="45.84137" lon="3.03283">
        <ele>612</ele>
        <time>2012-09-15T07:28:49Z</time>
      </trkpt>
      <trkpt lat="45.84139" lon="3.03277">
        <ele>612</ele>
        <time>2012-09-15T07:28:51Z</time>
      </trkpt>
      <trkpt lat="45.8414" lon="3.03272">
        <ele>612</ele>
        <time>2012-09-15T07:28:53Z</time>
      </trkpt>
      <trkpt lat="45.84142" lon="3.03266">
        <ele>613</ele>
        <time>2012-09-15T07:28:55Z</time>
      </trkpt>
      <trkpt lat="45.84144" lon="3.0326">
        <ele>613</ele>
        <time>2012-09-15T07:28:57Z</time>
      </trkpt>
      <trkpt lat="45.84145" lon="3.03254">
        <ele>613</ele>
        <time>2012-09-15T07:28:59Z</time>
      </trkpt>
      <trkpt lat="45.84148" lon="3.03249">
        <ele>613</ele>
        <time>2012-09-15T07:29:01Z</time>
      </trkpt>
      <trkpt lat="45.8415" lon="3.03244">
        <ele>614</ele>
        <time>2012-09-15T07:29:03Z</time>
      </trkpt>
      <trkpt lat="45.84151" lon="3.03239">
        <ele>614</ele>
        <time>2012-09-15T07:29:05Z</time>
      </trkpt>
      <trkpt lat="45.84153" lon="3.03234">
        <ele>614</ele>
        <time>2012-09-15T07:29:07Z</time>
      </trkpt>
      <trkpt lat="45.84155" lon="3.03228">
        <ele>614</ele>
        <time>2012-09-15T07:29:09Z</time>
      </trkpt>
      <trkpt lat="45.84156" lon="3.03222">
        <ele>614</ele>
        <time>2012-09-15T07:29:11Z</time>
      </trkpt>
      <trkpt lat="45.84157" lon="3.03218">
        <ele>614</ele>
        <time>2012-09-15T07:29:13Z</time>
      </trkpt>
      <trkpt lat="45.84157" lon="3.03212">
        <ele>614</ele>
        <time>2012-09-15T07:29:15Z</time>
      </trkpt>
      <trkpt lat="45.84157" lon="3.03206">
        <ele>614</ele>
        <time>2012-09-15T07:29:17Z</time>
      </trkpt>
      <trkpt lat="45.84157" lon="3.032">
        <ele>614</ele>
        <time>2012-09-15T07:29:19Z</time>
      </trkpt>
      <trkpt lat="45.84157" lon="3.03193">
        <ele>614</ele>
        <time>2012-09-15T07:29:21Z</time>
      </trkpt>
      <trkpt lat="45.84157" lon="3.03186">
        <ele>614</ele>
        <time>2012-09-15T07:29:23Z</time>
      </trkpt>
      <trkpt lat="45.84156" lon="3.03179">
        <ele>615</ele>
        <time>2012-09-15T07:29:25Z</time>
      </trkpt>
      <trkpt lat="45.84155" lon="3.03172">
        <ele>615</ele>
        <time>2012-09-15T07:29:27Z</time>
      </trkpt>
      <trkpt lat="45.84154" lon="3.03163">
        <ele>615</ele>
        <time>2012-09-15T07:29:29Z</time>
      </trkpt>
      <trkpt lat="45.84155" lon="3.03152">
        <ele>615</ele>
        <time>2012-09-15T07:29:31Z</time>
      </trkpt>
      <trkpt lat="45.84156" lon="3.03141">
        <ele>615</ele>
        <time>2012-09-15T07:29:33Z</time>
      </trkpt>
      <trkpt lat="45.84157" lon="3.03128">
        <ele>615</ele>
        <time>2012-09-15T07:29:35Z</time>
      </trkpt>
      <trkpt lat="45.84158" lon="3.03116">
        <ele>615</ele>
        <time>2012-09-15T07:29:37Z</time>
      </trkpt>
      <trkpt lat="45.84159" lon="3.03103">
        <ele>615</ele>
        <time>2012-09-15T07:29:39Z</time>
      </trkpt>
      <trkpt lat="45.8416" lon="3.03091">
        <ele>615</ele>
        <time>2012-09-15T07:29:41Z</time>
      </trkpt>
      <trkpt lat="45.84161" lon="3.03078">
        <ele>615</ele>
        <time>2012-09-15T07:29:43Z</time>
      </trkpt>
      <trkpt lat="45.84163" lon="3.03066">
        <ele>615</ele>
        <time>2012-09-15T07:29:45Z</time>
      </trkpt>
      <trkpt lat="45.84164" lon="3.03054">
        <ele>615</ele>
        <time>2012-09-15T07:29:47Z</time>
      </trkpt>
      <trkpt lat="45.84166" lon="3.03043">
        <ele>615</ele>
        <time>2012-09-15T07:29:49Z</time>
      </trkpt>
      <trkpt lat="45.84168" lon="3.0303">
        <ele>615</ele>
        <time>2012-09-15T07:29:51Z</time>
      </trkpt>
      <trkpt lat="45.84169" lon="3.03017">
        <ele>616</ele>
        <time>2012-09-15T07:29:53Z</time>
      </trkpt>
      <trkpt lat="45.84169" lon="3.03004">
        <ele>616</ele>
        <time>2012-09-15T07:29:55Z</time>
      </trkpt>
      <trkpt lat="45.8417" lon="3.02991">
        <ele>617</ele>
        <time>2012-09-15T07:29:57Z</time>
      </trkpt>
      <trkpt lat="45.84171" lon="3.02979">
        <ele>617</ele>
        <time>2012-09-15T07:29:59Z</time>
      </trkpt>
      <trkpt lat="45.84172" lon="3.02966">
        <ele>617</ele>
        <time>2012-09-15T07:30:01Z</time>
      </trkpt>
      <trkpt lat="45.84173" lon="3.02955">
        <ele>618</ele>
        <time>2012-09-15T07:30:03Z</time>
      </trkpt>
      <trkpt lat="45.84174" lon="3.02942">
        <ele>619</ele>
        <time>2012-09-15T07:30:05Z</time>
      </trkpt>
      <trkpt lat="45.84174" lon="3.02931">
        <ele>619</ele>
        <time>2012-09-15T07:30:07Z</time>
      </trkpt>
      <trkpt lat="45.84176" lon="3.0292">
        <ele>620</ele>
        <time>2012-09-15T07:30:09Z</time>
      </trkpt>
      <trkpt lat="45.84177" lon="3.02908">
        <ele>620</ele>
        <time>2012-09-15T07:30:11Z</time>
      </trkpt>
      <trkpt lat="45.84178" lon="3.02896">
        <ele>620</ele>
        <time>2012-09-15T07:30:13Z</time>
      </trkpt>
      <trkpt lat="45.84179" lon="3.02884">
        <ele>621</ele>
        <time>2012-09-15T07:30:15Z</time>
      </trkpt>
      <trkpt lat="45.8418" lon="3.0287">
        <ele>621</ele>
        <time>2012-09-15T07:30:17Z</time>
      </trkpt>
      <trkpt lat="45.84183" lon="3.02857">
        <ele>622</ele>
        <time>2012-09-15T07:30:19Z</time>
      </trkpt>
      <trkpt lat="45.84187" lon="3.02846">
        <ele>622</ele>
        <time>2012-09-15T07:30:21Z</time>
      </trkpt>
      <trkpt lat="45.84191" lon="3.02836">
        <ele>623</ele>
        <time>2012-09-15T07:30:23Z</time>
      </trkpt>
      <trkpt lat="45.84195" lon="3.02823">
        <ele>623</ele>
        <time>2012-09-15T07:30:25Z</time>
      </trkpt>
      <trkpt lat="45.84198" lon="3.02811">
        <ele>623</ele>
        <time>2012-09-15T07:30:27Z</time>
      </trkpt>
      <trkpt lat="45.842" lon="3.028">
        <ele>624</ele>
        <time>2012-09-15T07:30:29Z</time>
      </trkpt>
      <trkpt lat="45.84201" lon="3.02784">
        <ele>625</ele>
        <time>2012-09-15T07:30:32Z</time>
      </trkpt>
      <trkpt lat="45.84203" lon="3.02775">
        <ele>625</ele>
        <time>2012-09-15T07:30:34Z</time>
      </trkpt>
      <trkpt lat="45.84203" lon="3.02767">
        <ele>626</ele>
        <time>2012-09-15T07:30:36Z</time>
      </trkpt>
      <trkpt lat="45.84204" lon="3.02759">
        <ele>626</ele>
        <time>2012-09-15T07:30:38Z</time>
      </trkpt>
      <trkpt lat="45.84204" lon="3.02749">
        <ele>626</ele>
        <time>2012-09-15T07:30:40Z</time>
      </trkpt>
      <trkpt lat="45.84206" lon="3.02739">
        <ele>626</ele>
        <time>2012-09-15T07:30:42Z</time>
      </trkpt>
      <trkpt lat="45.84206" lon="3.0273">
        <ele>626</ele>
        <time>2012-09-15T07:30:44Z</time>
      </trkpt>
      <trkpt lat="45.84209" lon="3.0272">
        <ele>626</ele>
        <time>2012-09-15T07:30:46Z</time>
      </trkpt>
      <trkpt lat="45.8421" lon="3.0271">
        <ele>626</ele>
        <time>2012-09-15T07:30:48Z</time>
      </trkpt>
      <trkpt lat="45.84212" lon="3.027">
        <ele>626</ele>
        <time>2012-09-15T07:30:50Z</time>
      </trkpt>
      <trkpt lat="45.84214" lon="3.02691">
        <ele>626</ele>
        <time>2012-09-15T07:30:52Z</time>
      </trkpt>
      <trkpt lat="45.84216" lon="3.02681">
        <ele>626</ele>
        <time>2012-09-15T07:30:54Z</time>
      </trkpt>
      <trkpt lat="45.84218" lon="3.02671">
        <ele>626</ele>
        <time>2012-09-15T07:30:56Z</time>
      </trkpt>
      <trkpt lat="45.8422" lon="3.02661">
        <ele>627</ele>
        <time>2012-09-15T07:30:58Z</time>
      </trkpt>
      <trkpt lat="45.84222" lon="3.02651">
        <ele>627</ele>
        <time>2012-09-15T07:31:00Z</time>
      </trkpt>
      <trkpt lat="45.84226" lon="3.02641">
        <ele>628</ele>
        <time>2012-09-15T07:31:02Z</time>
      </trkpt>
      <trkpt lat="45.8423" lon="3.02632">
        <ele>628</ele>
        <time>2012-09-15T07:31:04Z</time>
      </trkpt>
      <trkpt lat="45.84233" lon="3.02622">
        <ele>628</ele>
        <time>2012-09-15T07:31:06Z</time>
      </trkpt>
      <trkpt lat="45.84237" lon="3.02612">
        <ele>629</ele>
        <time>2012-09-15T07:31:08Z</time>
      </trkpt>
      <trkpt lat="45.8424" lon="3.02601">
        <ele>629</ele>
        <time>2012-09-15T07:31:10Z</time>
      </trkpt>
      <trkpt lat="45.84245" lon="3.0259">
        <ele>629</ele>
        <time>2012-09-15T07:31:12Z</time>
      </trkpt>
      <trkpt lat="45.8425" lon="3.0258">
        <ele>629</ele>
        <time>2012-09-15T07:31:14Z</time>
      </trkpt>
      <trkpt lat="45.84253" lon="3.02569">
        <ele>630</ele>
        <time>2012-09-15T07:31:16Z</time>
      </trkpt>
      <trkpt lat="45.84257" lon="3.02558">
        <ele>630</ele>
        <time>2012-09-15T07:31:18Z</time>
      </trkpt>
      <trkpt lat="45.84261" lon="3.02548">
        <ele>630</ele>
        <time>2012-09-15T07:31:20Z</time>
      </trkpt>
      <trkpt lat="45.84264" lon="3.02538">
        <ele>630</ele>
        <time>2012-09-15T07:31:22Z</time>
      </trkpt>
      <trkpt lat="45.84268" lon="3.02529">
        <ele>631</ele>
        <time>2012-09-15T07:31:24Z</time>
      </trkpt>
      <trkpt lat="45.84272" lon="3.0252">
        <ele>631</ele>
        <time>2012-09-15T07:31:26Z</time>
      </trkpt>
      <trkpt lat="45.84278" lon="3.02517">
        <ele>632</ele>
        <time>2012-09-15T07:31:28Z</time>
      </trkpt>
      <trkpt lat="45.84285" lon="3.02521">
        <ele>633</ele>
        <time>2012-09-15T07:31:30Z</time>
      </trkpt>
      <trkpt lat="45.84291" lon="3.02526">
        <ele>633</ele>
        <time>2012-09-15T07:31:32Z</time>
      </trkpt>
      <trkpt lat="45.84297" lon="3.02533">
        <ele>634</ele>
        <time>2012-09-15T07:31:34Z</time>
      </trkpt>
      <trkpt lat="45.84303" lon="3.02538">
        <ele>635</ele>
        <time>2012-09-15T07:31:36Z</time>
      </trkpt>
      <trkpt lat="45.84309" lon="3.02544">
        <ele>635</ele>
        <time>2012-09-15T07:31:38Z</time>
      </trkpt>
      <trkpt lat="45.84316" lon="3.02549">
        <ele>636</ele>
        <time>2012-09-15T07:31:40Z</time>
      </trkpt>
      <trkpt lat="45.84322" lon="3.02554">
        <ele>637</ele>
        <time>2012-09-15T07:31:42Z</time>
      </trkpt>
      <trkpt lat="45.84328" lon="3.02559">
        <ele>637</ele>
        <time>2012-09-15T07:31:44Z</time>
      </trkpt>
      <trkpt lat="45.84334" lon="3.02562">
        <ele>638</ele>
        <time>2012-09-15T07:31:46Z</time>
      </trkpt>
      <trkpt lat="45.8434" lon="3.02562">
        <ele>638</ele>
        <time>2012-09-15T07:31:48Z</time>
      </trkpt>
      <trkpt lat="45.84346" lon="3.0256">
        <ele>638</ele>
        <time>2012-09-15T07:31:50Z</time>
      </trkpt>
      <trkpt lat="45.84351" lon="3.02558">
        <ele>639</ele>
        <time>2012-09-15T07:31:52Z</time>
      </trkpt>
      <trkpt lat="45.84355" lon="3.02555">
        <ele>639</ele>
        <time>2012-09-15T07:31:54Z</time>
      </trkpt>
      <trkpt lat="45.84359" lon="3.02551">
        <ele>640</ele>
        <time>2012-09-15T07:31:56Z</time>
      </trkpt>
      <trkpt lat="45.84362" lon="3.02546">
        <ele>640</ele>
        <time>2012-09-15T07:31:58Z</time>
      </trkpt>
      <trkpt lat="45.84365" lon="3.02541">
        <ele>641</ele>
        <time>2012-09-15T07:32:00Z</time>
      </trkpt>
      <trkpt lat="45.84368" lon="3.02535">
        <ele>641</ele>
        <time>2012-09-15T07:32:02Z</time>
      </trkpt>
      <trkpt lat="45.84373" lon="3.02528">
        <ele>641</ele>
        <time>2012-09-15T07:32:04Z</time>
      </trkpt>
      <trkpt lat="45.84377" lon="3.02522">
        <ele>642</ele>
        <time>2012-09-15T07:32:06Z</time>
      </trkpt>
      <trkpt lat="45.84382" lon="3.02518">
        <ele>643</ele>
        <time>2012-09-15T07:32:08Z</time>
      </trkpt>
      <trkpt lat="45.84388" lon="3.02515">
        <ele>644</ele>
        <time>2012-09-15T07:32:10Z</time>
      </trkpt>
      <trkpt lat="45.84394" lon="3.02514">
        <ele>645</ele>
        <time>2012-09-15T07:32:12Z</time>
      </trkpt>
      <trkpt lat="45.84399" lon="3.02512">
        <ele>646</ele>
        <time>2012-09-15T07:32:14Z</time>
      </trkpt>
      <trkpt lat="45.84404" lon="3.0251">
        <ele>647</ele>
        <time>2012-09-15T07:32:16Z</time>
      </trkpt>
      <trkpt lat="45.84409" lon="3.02507">
        <ele>647</ele>
        <time>2012-09-15T07:32:18Z</time>
      </trkpt>
      <trkpt lat="45.84414" lon="3.02503">
        <ele>648</ele>
        <time>2012-09-15T07:32:20Z</time>
      </trkpt>
      <trkpt lat="45.84417" lon="3.02498">
        <ele>648</ele>
        <time>2012-09-15T07:32:22Z</time>
      </trkpt>
      <trkpt lat="45.84419" lon="3.02491">
        <ele>649</ele>
        <time>2012-09-15T07:32:24Z</time>
      </trkpt>
      <trkpt lat="45.84421" lon="3.02484">
        <ele>649</ele>
        <time>2012-09-15T07:32:26Z</time>
      </trkpt>
      <trkpt lat="45.84423" lon="3.02477">
        <ele>649</ele>
        <time>2012-09-15T07:32:28Z</time>
      </trkpt>
      <trkpt lat="45.84426" lon="3.0247">
        <ele>650</ele>
        <time>2012-09-15T07:32:30Z</time>
      </trkpt>
      <trkpt lat="45.84427" lon="3.02463">
        <ele>650</ele>
        <time>2012-09-15T07:32:32Z</time>
      </trkpt>
      <trkpt lat="45.84429" lon="3.02455">
        <ele>650</ele>
        <time>2012-09-15T07:32:34Z</time>
      </trkpt>
      <trkpt lat="45.8443" lon="3.02448">
        <ele>650</ele>
        <time>2012-09-15T07:32:36Z</time>
      </trkpt>
      <trkpt lat="45.84431" lon="3.0244">
        <ele>650</ele>
        <time>2012-09-15T07:32:38Z</time>
      </trkpt>
      <trkpt lat="45.84432" lon="3.02432">
        <ele>651</ele>
        <time>2012-09-15T07:32:40Z</time>
      </trkpt>
      <trkpt lat="45.84432" lon="3.02424">
        <ele>651</ele>
        <time>2012-09-15T07:32:42Z</time>
      </trkpt>
      <trkpt lat="45.84432" lon="3.02416">
        <ele>651</ele>
        <time>2012-09-15T07:32:44Z</time>
      </trkpt>
      <trkpt lat="45.84432" lon="3.02409">
        <ele>651</ele>
        <time>2012-09-15T07:32:46Z</time>
      </trkpt>
      <trkpt lat="45.84431" lon="3.02401">
        <ele>652</ele>
        <time>2012-09-15T07:32:48Z</time>
      </trkpt>
      <trkpt lat="45.8443" lon="3.02393">
        <ele>652</ele>
        <time>2012-09-15T07:32:50Z</time>
      </trkpt>
      <trkpt lat="45.84429" lon="3.02386">
        <ele>652</ele>
        <time>2012-09-15T07:32:52Z</time>
      </trkpt>
      <trkpt lat="45.84428" lon="3.02379">
        <ele>652</ele>
        <time>2012-09-15T07:32:54Z</time>
      </trkpt>
      <trkpt lat="45.84427" lon="3.02371">
        <ele>653</ele>
        <time>2012-09-15T07:32:56Z</time>
      </trkpt>
      <trkpt lat="45.84426" lon="3.02364">
        <ele>653</ele>
        <time>2012-09-15T07:32:58Z</time>
      </trkpt>
      <trkpt lat="45.84425" lon="3.02357">
        <ele>654</ele>
        <time>2012-09-15T07:33:00Z</time>
      </trkpt>
      <trkpt lat="45.84424" lon="3.02349">
        <ele>654</ele>
        <time>2012-09-15T07:33:02Z</time>
      </trkpt>
      <trkpt lat="45.84423" lon="3.02342">
        <ele>654</ele>
        <time>2012-09-15T07:33:04Z</time>
      </trkpt>
      <trkpt lat="45.84423" lon="3.02335">
        <ele>655</ele>
        <time>2012-09-15T07:33:06Z</time>
      </trkpt>
      <trkpt lat="45.84422" lon="3.02327">
        <ele>655</ele>
        <time>2012-09-15T07:33:08Z</time>
      </trkpt>
      <trkpt lat="45.84421" lon="3.0232">
        <ele>656</ele>
        <time>2012-09-15T07:33:10Z</time>
      </trkpt>
      <trkpt lat="45.8442" lon="3.02313">
        <ele>656</ele>
        <time>2012-09-15T07:33:12Z</time>
      </trkpt>
      <trkpt lat="45.8442" lon="3.02305">
        <ele>656</ele>
        <time>2012-09-15T07:33:14Z</time>
      </trkpt>
      <trkpt lat="45.84419" lon="3.02297">
        <ele>656</ele>
        <time>2012-09-15T07:33:16Z</time>
      </trkpt>
      <trkpt lat="45.84418" lon="3.0229">
        <ele>656</ele>
        <time>2012-09-15T07:33:18Z</time>
      </trkpt>
      <trkpt lat="45.84418" lon="3.02282">
        <ele>657</ele>
        <time>2012-09-15T07:33:20Z</time>
      </trkpt>
      <trkpt lat="45.84418" lon="3.02274">
        <ele>657</ele>
        <time>2012-09-15T07:33:22Z</time>
      </trkpt>
      <trkpt lat="45.84417" lon="3.02266">
        <ele>657</ele>
        <time>2012-09-15T07:33:24Z</time>
      </trkpt>
      <trkpt lat="45.84418" lon="3.02259">
        <ele>657</ele>
        <time>2012-09-15T07:33:26Z</time>
      </trkpt>
      <trkpt lat="45.84418" lon="3.02252">
        <ele>658</ele>
        <time>2012-09-15T07:33:28Z</time>
      </trkpt>
      <trkpt lat="45.84417" lon="3.02245">
        <ele>658</ele>
        <time>2012-09-15T07:33:30Z</time>
      </trkpt>
      <trkpt lat="45.84417" lon="3.02238">
        <ele>659</ele>
        <time>2012-09-15T07:33:32Z</time>
      </trkpt>
      <trkpt lat="45.84417" lon="3.0223">
        <ele>659</ele>
        <time>2012-09-15T07:33:34Z</time>
      </trkpt>
      <trkpt lat="45.84418" lon="3.02222">
        <ele>659</ele>
        <time>2012-09-15T07:33:36Z</time>
      </trkpt>
      <trkpt lat="45.8442" lon="3.02215">
        <ele>660</ele>
        <time>2012-09-15T07:33:38Z</time>
      </trkpt>
      <trkpt lat="45.84424" lon="3.02208">
        <ele>660</ele>
        <time>2012-09-15T07:33:40Z</time>
      </trkpt>
      <trkpt lat="45.84428" lon="3.02205">
        <ele>660</ele>
        <time>2012-09-15T07:33:42Z</time>
      </trkpt>
      <trkpt lat="45.84432" lon="3.02203">
        <ele>661</ele>
        <time>2012-09-15T07:33:44Z</time>
      </trkpt>
      <trkpt lat="45.84436" lon="3.02202">
        <ele>661</ele>
        <time>2012-09-15T07:33:46Z</time>
      </trkpt>
      <trkpt lat="45.84441" lon="3.022">
        <ele>662</ele>
        <time>2012-09-15T07:33:48Z</time>
      </trkpt>
      <trkpt lat="45.84446" lon="3.02198">
        <ele>662</ele>
        <time>2012-09-15T07:33:50Z</time>
      </trkpt>
      <trkpt lat="45.8445" lon="3.02197">
        <ele>663</ele>
        <time>2012-09-15T07:33:52Z</time>
      </trkpt>
      <trkpt lat="45.84456" lon="3.02195">
        <ele>664</ele>
        <time>2012-09-15T07:33:54Z</time>
      </trkpt>
      <trkpt lat="45.84461" lon="3.02193">
        <ele>665</ele>
        <time>2012-09-15T07:33:56Z</time>
      </trkpt>
      <trkpt lat="45.84466" lon="3.02191">
        <ele>665</ele>
        <time>2012-09-15T07:33:58Z</time>
      </trkpt>
      <trkpt lat="45.84471" lon="3.02188">
        <ele>665</ele>
        <time>2012-09-15T07:34:00Z</time>
      </trkpt>
      <trkpt lat="45.84476" lon="3.02185">
        <ele>666</ele>
        <time>2012-09-15T07:34:02Z</time>
      </trkpt>
      <trkpt lat="45.84482" lon="3.02181">
        <ele>666</ele>
        <time>2012-09-15T07:34:04Z</time>
      </trkpt>
      <trkpt lat="45.84486" lon="3.02176">
        <ele>667</ele>
        <time>2012-09-15T07:34:06Z</time>
      </trkpt>
      <trkpt lat="45.84489" lon="3.0217">
        <ele>667</ele>
        <time>2012-09-15T07:34:08Z</time>
      </trkpt>
      <trkpt lat="45.84494" lon="3.02165">
        <ele>667</ele>
        <time>2012-09-15T07:34:10Z</time>
      </trkpt>
      <trkpt lat="45.84498" lon="3.0216">
        <ele>667</ele>
        <time>2012-09-15T07:34:12Z</time>
      </trkpt>
      <trkpt lat="45.84502" lon="3.02155">
        <ele>667</ele>
        <time>2012-09-15T07:34:14Z</time>
      </trkpt>
      <trkpt lat="45.84506" lon="3.0215">
        <ele>667</ele>
        <time>2012-09-15T07:34:16Z</time>
      </trkpt>
      <trkpt lat="45.84509" lon="3.02145">
        <ele>667</ele>
        <time>2012-09-15T07:34:18Z</time>
      </trkpt>
      <trkpt lat="45.84511" lon="3.0214">
        <ele>667</ele>
        <time>2012-09-15T07:34:20Z</time>
      </trkpt>
      <trkpt lat="45.84513" lon="3.02135">
        <ele>667</ele>
        <time>2012-09-15T07:34:22Z</time>
      </trkpt>
      <trkpt lat="45.84515" lon="3.02132">
        <ele>667</ele>
        <time>2012-09-15T07:34:24Z</time>
      </trkpt>
      <trkpt lat="45.84519" lon="3.02128">
        <ele>667</ele>
        <time>2012-09-15T07:34:26Z</time>
      </trkpt>
      <trkpt lat="45.84522" lon="3.02123">
        <ele>668</ele>
        <time>2012-09-15T07:34:28Z</time>
      </trkpt>
      <trkpt lat="45.84525" lon="3.02119">
        <ele>668</ele>
        <time>2012-09-15T07:34:30Z</time>
      </trkpt>
      <trkpt lat="45.84527" lon="3.02115">
        <ele>669</ele>
        <time>2012-09-15T07:34:32Z</time>
      </trkpt>
      <trkpt lat="45.84529" lon="3.0211">
        <ele>669</ele>
        <time>2012-09-15T07:34:34Z</time>
      </trkpt>
      <trkpt lat="45.84533" lon="3.02106">
        <ele>670</ele>
        <time>2012-09-15T07:34:36Z</time>
      </trkpt>
      <trkpt lat="45.84534" lon="3.02101">
        <ele>671</ele>
        <time>2012-09-15T07:34:38Z</time>
      </trkpt>
      <trkpt lat="45.84536" lon="3.02096">
        <ele>672</ele>
        <time>2012-09-15T07:34:40Z</time>
      </trkpt>
      <trkpt lat="45.84538" lon="3.02091">
        <ele>672</ele>
        <time>2012-09-15T07:34:42Z</time>
      </trkpt>
      <trkpt lat="45.84539" lon="3.02086">
        <ele>673</ele>
        <time>2012-09-15T07:34:44Z</time>
      </trkpt>
      <trkpt lat="45.84541" lon="3.02081">
        <ele>673</ele>
        <time>2012-09-15T07:34:46Z</time>
      </trkpt>
      <trkpt lat="45.84541" lon="3.02075">
        <ele>673</ele>
        <time>2012-09-15T07:34:48Z</time>
      </trkpt>
      <trkpt lat="45.84543" lon="3.02069">
        <ele>674</ele>
        <time>2012-09-15T07:34:50Z</time>
      </trkpt>
      <trkpt lat="45.84543" lon="3.02064">
        <ele>674</ele>
        <time>2012-09-15T07:34:52Z</time>
      </trkpt>
      <trkpt lat="45.84544" lon="3.02059">
        <ele>674</ele>
        <time>2012-09-15T07:34:54Z</time>
      </trkpt>
      <trkpt lat="45.84546" lon="3.02055">
        <ele>675</ele>
        <time>2012-09-15T07:34:56Z</time>
      </trkpt>
      <trkpt lat="45.84547" lon="3.02049">
        <ele>675</ele>
        <time>2012-09-15T07:34:58Z</time>
      </trkpt>
      <trkpt lat="45.84547" lon="3.02044">
        <ele>676</ele>
        <time>2012-09-15T07:35:00Z</time>
      </trkpt>
      <trkpt lat="45.84549" lon="3.02039">
        <ele>677</ele>
        <time>2012-09-15T07:35:02Z</time>
      </trkpt>
      <trkpt lat="45.8455" lon="3.02034">
        <ele>678</ele>
        <time>2012-09-15T07:35:04Z</time>
      </trkpt>
      <trkpt lat="45.84551" lon="3.02028">
        <ele>679</ele>
        <time>2012-09-15T07:35:06Z</time>
      </trkpt>
      <trkpt lat="45.84552" lon="3.02023">
        <ele>679</ele>
        <time>2012-09-15T07:35:08Z</time>
      </trkpt>
      <trkpt lat="45.84554" lon="3.02018">
        <ele>679</ele>
        <time>2012-09-15T07:35:10Z</time>
      </trkpt>
      <trkpt lat="45.84555" lon="3.02013">
        <ele>679</ele>
        <time>2012-09-15T07:35:12Z</time>
      </trkpt>
      <trkpt lat="45.84556" lon="3.02008">
        <ele>679</ele>
        <time>2012-09-15T07:35:14Z</time>
      </trkpt>
      <trkpt lat="45.84557" lon="3.02003">
        <ele>679</ele>
        <time>2012-09-15T07:35:16Z</time>
      </trkpt>
      <trkpt lat="45.84559" lon="3.01998">
        <ele>679</ele>
        <time>2012-09-15T07:35:18Z</time>
      </trkpt>
      <trkpt lat="45.84562" lon="3.01993">
        <ele>679</ele>
        <time>2012-09-15T07:35:20Z</time>
      </trkpt>
      <trkpt lat="45.84564" lon="3.01989">
        <ele>679</ele>
        <time>2012-09-15T07:35:22Z</time>
      </trkpt>
      <trkpt lat="45.84566" lon="3.01984">
        <ele>679</ele>
        <time>2012-09-15T07:35:24Z</time>
      </trkpt>
      <trkpt lat="45.84569" lon="3.0198">
        <ele>679</ele>
        <time>2012-09-15T07:35:26Z</time>
      </trkpt>
      <trkpt lat="45.8457" lon="3.01975">
        <ele>679</ele>
        <time>2012-09-15T07:35:28Z</time>
      </trkpt>
      <trkpt lat="45.84572" lon="3.01971">
        <ele>680</ele>
        <time>2012-09-15T07:35:30Z</time>
      </trkpt>
      <trkpt lat="45.84574" lon="3.01965">
        <ele>681</ele>
        <time>2012-09-15T07:35:32Z</time>
      </trkpt>
      <trkpt lat="45.84575" lon="3.01959">
        <ele>682</ele>
        <time>2012-09-15T07:35:34Z</time>
      </trkpt>
      <trkpt lat="45.84576" lon="3.01954">
        <ele>683</ele>
        <time>2012-09-15T07:35:36Z</time>
      </trkpt>
      <trkpt lat="45.84576" lon="3.01949">
        <ele>683</ele>
        <time>2012-09-15T07:35:38Z</time>
      </trkpt>
      <trkpt lat="45.84576" lon="3.01945">
        <ele>684</ele>
        <time>2012-09-15T07:35:40Z</time>
      </trkpt>
      <trkpt lat="45.84578" lon="3.0194">
        <ele>684</ele>
        <time>2012-09-15T07:35:42Z</time>
      </trkpt>
      <trkpt lat="45.84578" lon="3.01935">
        <ele>684</ele>
        <time>2012-09-15T07:35:44Z</time>
      </trkpt>
      <trkpt lat="45.84579" lon="3.01929">
        <ele>684</ele>
        <time>2012-09-15T07:35:46Z</time>
      </trkpt>
      <trkpt lat="45.8458" lon="3.01923">
        <ele>684</ele>
        <time>2012-09-15T07:35:48Z</time>
      </trkpt>
      <trkpt lat="45.84581" lon="3.01917">
        <ele>685</ele>
        <time>2012-09-15T07:35:50Z</time>
      </trkpt>
      <trkpt lat="45.84581" lon="3.01912">
        <ele>685</ele>
        <time>2012-09-15T07:35:52Z</time>
      </trkpt>
      <trkpt lat="45.84582" lon="3.01906">
        <ele>685</ele>
        <time>2012-09-15T07:35:54Z</time>
      </trkpt>
      <trkpt lat="45.84583" lon="3.01901">
        <ele>685</ele>
        <time>2012-09-15T07:35:56Z</time>
      </trkpt>
      <trkpt lat="45.84583" lon="3.01895">
        <ele>685</ele>
        <time>2012-09-15T07:35:58Z</time>
      </trkpt>
      <trkpt lat="45.84583" lon="3.01889">
        <ele>685</ele>
        <time>2012-09-15T07:36:00Z</time>
      </trkpt>
      <trkpt lat="45.84583" lon="3.01883">
        <ele>685</ele>
        <time>2012-09-15T07:36:02Z</time>
      </trkpt>
      <trkpt lat="45.84582" lon="3.01877">
        <ele>685</ele>
        <time>2012-09-15T07:36:04Z</time>
      </trkpt>
      <trkpt lat="45.84581" lon="3.01871">
        <ele>686</ele>
        <time>2012-09-15T07:36:06Z</time>
      </trkpt>
      <trkpt lat="45.84581" lon="3.01865">
        <ele>686</ele>
        <time>2012-09-15T07:36:08Z</time>
      </trkpt>
      <trkpt lat="45.84581" lon="3.01859">
        <ele>686</ele>
        <time>2012-09-15T07:36:10Z</time>
      </trkpt>
      <trkpt lat="45.8458" lon="3.01853">
        <ele>687</ele>
        <time>2012-09-15T07:36:12Z</time>
      </trkpt>
      <trkpt lat="45.84579" lon="3.01848">
        <ele>688</ele>
        <time>2012-09-15T07:36:14Z</time>
      </trkpt>
      <trkpt lat="45.84578" lon="3.01842">
        <ele>688</ele>
        <time>2012-09-15T07:36:16Z</time>
      </trkpt>
      <trkpt lat="45.84577" lon="3.01837">
        <ele>689</ele>
        <time>2012-09-15T07:36:18Z</time>
      </trkpt>
      <trkpt lat="45.84576" lon="3.01831">
        <ele>690</ele>
        <time>2012-09-15T07:36:20Z</time>
      </trkpt>
      <trkpt lat="45.84575" lon="3.01826">
        <ele>691</ele>
        <time>2012-09-15T07:36:22Z</time>
      </trkpt>
      <trkpt lat="45.84574" lon="3.0182">
        <ele>692</ele>
        <time>2012-09-15T07:36:24Z</time>
      </trkpt>
      <trkpt lat="45.84574" lon="3.01815">
        <ele>693</ele>
        <time>2012-09-15T07:36:26Z</time>
      </trkpt>
      <trkpt lat="45.84573" lon="3.01809">
        <ele>693</ele>
        <time>2012-09-15T07:36:28Z</time>
      </trkpt>
      <trkpt lat="45.84572" lon="3.01804">
        <ele>694</ele>
        <time>2012-09-15T07:36:30Z</time>
      </trkpt>
      <trkpt lat="45.84571" lon="3.01799">
        <ele>694</ele>
        <time>2012-09-15T07:36:32Z</time>
      </trkpt>
      <trkpt lat="45.8457" lon="3.01793">
        <ele>695</ele>
        <time>2012-09-15T07:36:34Z</time>
      </trkpt>
      <trkpt lat="45.8457" lon="3.01787">
        <ele>696</ele>
        <time>2012-09-15T07:36:36Z</time>
      </trkpt>
      <trkpt lat="45.84568" lon="3.01781">
        <ele>696</ele>
        <time>2012-09-15T07:36:38Z</time>
      </trkpt>
      <trkpt lat="45.84568" lon="3.01776">
        <ele>697</ele>
        <time>2012-09-15T07:36:40Z</time>
      </trkpt>
      <trkpt lat="45.84567" lon="3.0177">
        <ele>697</ele>
        <time>2012-09-15T07:36:42Z</time>
      </trkpt>
      <trkpt lat="45.84566" lon="3.01764">
        <ele>698</ele>
        <time>2012-09-15T07:36:44Z</time>
      </trkpt>
      <trkpt lat="45.84565" lon="3.01758">
        <ele>698</ele>
        <time>2012-09-15T07:36:46Z</time>
      </trkpt>
      <trkpt lat="45.84564" lon="3.01752">
        <ele>699</ele>
        <time>2012-09-15T07:36:48Z</time>
      </trkpt>
      <trkpt lat="45.84564" lon="3.01746">
        <ele>699</ele>
        <time>2012-09-15T07:36:50Z</time>
      </trkpt>
      <trkpt lat="45.84564" lon="3.0174">
        <ele>700</ele>
        <time>2012-09-15T07:36:52Z</time>
      </trkpt>
      <trkpt lat="45.84565" lon="3.01733">
        <ele>701</ele>
        <time>2012-09-15T07:36:54Z</time>
      </trkpt>
      <trkpt lat="45.84566" lon="3.01728">
        <ele>701</ele>
        <time>2012-09-15T07:36:56Z</time>
      </trkpt>
      <trkpt lat="45.84566" lon="3.01722">
        <ele>702</ele>
        <time>2012-09-15T07:36:58Z</time>
      </trkpt>
      <trkpt lat="45.84565" lon="3.01715">
        <ele>702</ele>
        <time>2012-09-15T07:37:00Z</time>
      </trkpt>
      <trkpt lat="45.84564" lon="3.0171">
        <ele>703</ele>
        <time>2012-09-15T07:37:02Z</time>
      </trkpt>
      <trkpt lat="45.84562" lon="3.01704">
        <ele>703</ele>
        <time>2012-09-15T07:37:04Z</time>
      </trkpt>
      <trkpt lat="45.8456" lon="3.01698">
        <ele>703</ele>
        <time>2012-09-15T07:37:06Z</time>
      </trkpt>
      <trkpt lat="45.84558" lon="3.01691">
        <ele>703</ele>
        <time>2012-09-15T07:37:08Z</time>
      </trkpt>
      <trkpt lat="45.84556" lon="3.01684">
        <ele>704</ele>
        <time>2012-09-15T07:37:10Z</time>
      </trkpt>
      <trkpt lat="45.84554" lon="3.01677">
        <ele>705</ele>
        <time>2012-09-15T07:37:12Z</time>
      </trkpt>
      <trkpt lat="45.84552" lon="3.01669">
        <ele>705</ele>
        <time>2012-09-15T07:37:14Z</time>
      </trkpt>
      <trkpt lat="45.84552" lon="3.01662">
        <ele>706</ele>
        <time>2012-09-15T07:37:16Z</time>
      </trkpt>
      <trkpt lat="45.8455" lon="3.01655">
        <ele>706</ele>
        <time>2012-09-15T07:37:18Z</time>
      </trkpt>
      <trkpt lat="45.84548" lon="3.01648">
        <ele>706</ele>
        <time>2012-09-15T07:37:20Z</time>
      </trkpt>
      <trkpt lat="45.84547" lon="3.0164">
        <ele>707</ele>
        <time>2012-09-15T07:37:22Z</time>
      </trkpt>
      <trkpt lat="45.84546" lon="3.01633">
        <ele>707</ele>
        <time>2012-09-15T07:37:24Z</time>
      </trkpt>
      <trkpt lat="45.84545" lon="3.01627">
        <ele>708</ele>
        <time>2012-09-15T07:37:26Z</time>
      </trkpt>
      <trkpt lat="45.84544" lon="3.0162">
        <ele>708</ele>
        <time>2012-09-15T07:37:28Z</time>
      </trkpt>
      <trkpt lat="45.84542" lon="3.01613">
        <ele>709</ele>
        <time>2012-09-15T07:37:30Z</time>
      </trkpt>
      <trkpt lat="45.84541" lon="3.01606">
        <ele>709</ele>
        <time>2012-09-15T07:37:32Z</time>
      </trkpt>
      <trkpt lat="45.8454" lon="3.01599">
        <ele>709</ele>
        <time>2012-09-15T07:37:34Z</time>
      </trkpt>
      <trkpt lat="45.84538" lon="3.01592">
        <ele>709</ele>
        <time>2012-09-15T07:37:36Z</time>
      </trkpt>
      <trkpt lat="45.84534" lon="3.01587">
        <ele>709</ele>
        <time>2012-09-15T07:37:38Z</time>
      </trkpt>
      <trkpt lat="45.8453" lon="3.01583">
        <ele>709</ele>
        <time>2012-09-15T07:37:40Z</time>
      </trkpt>
      <trkpt lat="45.84526" lon="3.0158">
        <ele>709</ele>
        <time>2012-09-15T07:37:42Z</time>
      </trkpt>
      <trkpt lat="45.8452" lon="3.01578">
        <ele>709</ele>
        <time>2012-09-15T07:37:44Z</time>
      </trkpt>
      <trkpt lat="45.84513" lon="3.01575">
        <ele>710</ele>
        <time>2012-09-15T07:37:46Z</time>
      </trkpt>
      <trkpt lat="45.84506" lon="3.01572">
        <ele>711</ele>
        <time>2012-09-15T07:37:48Z</time>
      </trkpt>
      <trkpt lat="45.845" lon="3.01569">
        <ele>712</ele>
        <time>2012-09-15T07:37:50Z</time>
      </trkpt>
      <trkpt lat="45.84495" lon="3.01562">
        <ele>713</ele>
        <time>2012-09-15T07:37:52Z</time>
      </trkpt>
      <trkpt lat="45.8449" lon="3.01554">
        <ele>713</ele>
        <time>2012-09-15T07:37:54Z</time>
      </trkpt>
      <trkpt lat="45.84484" lon="3.01545">
        <ele>714</ele>
        <time>2012-09-15T07:37:56Z</time>
      </trkpt>
      <trkpt lat="45.8448" lon="3.01537">
        <ele>714</ele>
        <time>2012-09-15T07:37:58Z</time>
      </trkpt>
      <trkpt lat="45.84483" lon="3.01526">
        <ele>714</ele>
        <time>2012-09-15T07:38:00Z</time>
      </trkpt>
      <trkpt lat="45.84487" lon="3.01521">
        <ele>714</ele>
        <time>2012-09-15T07:38:02Z</time>
      </trkpt>
      <trkpt lat="45.84494" lon="3.01518">
        <ele>714</ele>
        <time>2012-09-15T07:38:04Z</time>
      </trkpt>
      <trkpt lat="45.84501" lon="3.01516">
        <ele>714</ele>
        <time>2012-09-15T07:38:06Z</time>
      </trkpt>
      <trkpt lat="45.84506" lon="3.01512">
        <ele>714</ele>
        <time>2012-09-15T07:38:08Z</time>
      </trkpt>
      <trkpt lat="45.8451" lon="3.01507">
        <ele>714</ele>
        <time>2012-09-15T07:38:10Z</time>
      </trkpt>
      <trkpt lat="45.8451" lon="3.01502">
        <ele>714</ele>
        <time>2012-09-15T07:38:12Z</time>
      </trkpt>
      <trkpt lat="45.8451" lon="3.01495">
        <ele>714</ele>
        <time>2012-09-15T07:38:14Z</time>
      </trkpt>
      <trkpt lat="45.84509" lon="3.01489">
        <ele>714</ele>
        <time>2012-09-15T07:38:16Z</time>
      </trkpt>
      <trkpt lat="45.84508" lon="3.01483">
        <ele>714</ele>
        <time>2012-09-15T07:38:18Z</time>
      </trkpt>
      <trkpt lat="45.84507" lon="3.01478">
        <ele>714</ele>
        <time>2012-09-15T07:38:20Z</time>
      </trkpt>
      <trkpt lat="45.84506" lon="3.01473">
        <ele>714</ele>
        <time>2012-09-15T07:38:22Z</time>
      </trkpt>
      <trkpt lat="45.84506" lon="3.01468">
        <ele>714</ele>
        <time>2012-09-15T07:38:24Z</time>
      </trkpt>
      <trkpt lat="45.84505" lon="3.01464">
        <ele>714</ele>
        <time>2012-09-15T07:38:26Z</time>
      </trkpt>
      <trkpt lat="45.84506" lon="3.01458">
        <ele>714</ele>
        <time>2012-09-15T07:38:28Z</time>
      </trkpt>
      <trkpt lat="45.84507" lon="3.01454">
        <ele>714</ele>
        <time>2012-09-15T07:38:30Z</time>
      </trkpt>
      <trkpt lat="45.84506" lon="3.01449">
        <ele>714</ele>
        <time>2012-09-15T07:38:32Z</time>
      </trkpt>
      <trkpt lat="45.84505" lon="3.01444">
        <ele>714</ele>
        <time>2012-09-15T07:38:34Z</time>
      </trkpt>
      <trkpt lat="45.84504" lon="3.01439">
        <ele>714</ele>
        <time>2012-09-15T07:38:36Z</time>
      </trkpt>
      <trkpt lat="45.84502" lon="3.01434">
        <ele>714</ele>
        <time>2012-09-15T07:38:38Z</time>
      </trkpt>
      <trkpt lat="45.84501" lon="3.01428">
        <ele>714</ele>
        <time>2012-09-15T07:38:40Z</time>
      </trkpt>
      <trkpt lat="45.84502" lon="3.01424">
        <ele>714</ele>
        <time>2012-09-15T07:38:42Z</time>
      </trkpt>
      <trkpt lat="45.84503" lon="3.01419">
        <ele>714</ele>
        <time>2012-09-15T07:38:44Z</time>
      </trkpt>
      <trkpt lat="45.84504" lon="3.01415">
        <ele>715</ele>
        <time>2012-09-15T07:38:46Z</time>
      </trkpt>
      <trkpt lat="45.84504" lon="3.0141">
        <ele>715</ele>
        <time>2012-09-15T07:38:48Z</time>
      </trkpt>
      <trkpt lat="45.84505" lon="3.01405">
        <ele>715</ele>
        <time>2012-09-15T07:38:50Z</time>
      </trkpt>
      <trkpt lat="45.84506" lon="3.01398">
        <ele>715</ele>
        <time>2012-09-15T07:38:52Z</time>
      </trkpt>
      <trkpt lat="45.84506" lon="3.01391">
        <ele>715</ele>
        <time>2012-09-15T07:38:54Z</time>
      </trkpt>
      <trkpt lat="45.84505" lon="3.01384">
        <ele>715</ele>
        <time>2012-09-15T07:38:56Z</time>
      </trkpt>
      <trkpt lat="45.84504" lon="3.01378">
        <ele>715</ele>
        <time>2012-09-15T07:38:58Z</time>
      </trkpt>
      <trkpt lat="45.84503" lon="3.01371">
        <ele>714</ele>
        <time>2012-09-15T07:39:00Z</time>
      </trkpt>
      <trkpt lat="45.84502" lon="3.01365">
        <ele>713</ele>
        <time>2012-09-15T07:39:02Z</time>
      </trkpt>
      <trkpt lat="45.84503" lon="3.01359">
        <ele>712</ele>
        <time>2012-09-15T07:39:04Z</time>
      </trkpt>
      <trkpt lat="45.84503" lon="3.01354">
        <ele>711</ele>
        <time>2012-09-15T07:39:06Z</time>
      </trkpt>
      <trkpt lat="45.84503" lon="3.01347">
        <ele>711</ele>
        <time>2012-09-15T07:39:08Z</time>
      </trkpt>
      <trkpt lat="45.84503" lon="3.01341">
        <ele>711</ele>
        <time>2012-09-15T07:39:10Z</time>
      </trkpt>
      <trkpt lat="45.84503" lon="3.01335">
        <ele>711</ele>
        <time>2012-09-15T07:39:12Z</time>
      </trkpt>
      <trkpt lat="45.84503" lon="3.01328">
        <ele>710</ele>
        <time>2012-09-15T07:39:14Z</time>
      </trkpt>
      <trkpt lat="45.84502" lon="3.01323">
        <ele>710</ele>
        <time>2012-09-15T07:39:16Z</time>
      </trkpt>
      <trkpt lat="45.84502" lon="3.01318">
        <ele>710</ele>
        <time>2012-09-15T07:39:18Z</time>
      </trkpt>
      <trkpt lat="45.845" lon="3.01313">
        <ele>710</ele>
        <time>2012-09-15T07:39:20Z</time>
      </trkpt>
      <trkpt lat="45.84498" lon="3.01308">
        <ele>710</ele>
        <time>2012-09-15T07:39:22Z</time>
      </trkpt>
      <trkpt lat="45.84497" lon="3.01303">
        <ele>710</ele>
        <time>2012-09-15T07:39:24Z</time>
      </trkpt>
      <trkpt lat="45.84496" lon="3.01298">
        <ele>710</ele>
        <time>2012-09-15T07:39:26Z</time>
      </trkpt>
      <trkpt lat="45.84494" lon="3.01294">
        <ele>710</ele>
        <time>2012-09-15T07:39:28Z</time>
      </trkpt>
      <trkpt lat="45.84494" lon="3.01289">
        <ele>710</ele>
        <time>2012-09-15T07:39:30Z</time>
      </trkpt>
      <trkpt lat="45.84493" lon="3.01283">
        <ele>710</ele>
        <time>2012-09-15T07:39:32Z</time>
      </trkpt>
      <trkpt lat="45.84492" lon="3.01277">
        <ele>710</ele>
        <time>2012-09-15T07:39:34Z</time>
      </trkpt>
      <trkpt lat="45.84491" lon="3.01271">
        <ele>711</ele>
        <time>2012-09-15T07:39:36Z</time>
      </trkpt>
      <trkpt lat="45.84491" lon="3.01266">
        <ele>712</ele>
        <time>2012-09-15T07:39:38Z</time>
      </trkpt>
      <trkpt lat="45.84489" lon="3.01261">
        <ele>712</ele>
        <time>2012-09-15T07:39:40Z</time>
      </trkpt>
      <trkpt lat="45.84488" lon="3.01256">
        <ele>712</ele>
        <time>2012-09-15T07:39:42Z</time>
      </trkpt>
      <trkpt lat="45.84487" lon="3.01252">
        <ele>712</ele>
        <time>2012-09-15T07:39:44Z</time>
      </trkpt>
      <trkpt lat="45.84483" lon="3.01246">
        <ele>712</ele>
        <time>2012-09-15T07:39:46Z</time>
      </trkpt>
      <trkpt lat="45.84477" lon="3.0124">
        <ele>712</ele>
        <time>2012-09-15T07:39:48Z</time>
      </trkpt>
      <trkpt lat="45.84472" lon="3.01231">
        <ele>712</ele>
        <time>2012-09-15T07:39:50Z</time>
      </trkpt>
      <trkpt lat="45.84471" lon="3.01222">
        <ele>712</ele>
        <time>2012-09-15T07:39:52Z</time>
      </trkpt>
      <trkpt lat="45.8447" lon="3.01215">
        <ele>712</ele>
        <time>2012-09-15T07:39:54Z</time>
      </trkpt>
      <trkpt lat="45.84472" lon="3.01209">
        <ele>712</ele>
        <time>2012-09-15T07:39:56Z</time>
      </trkpt>
      <trkpt lat="45.84472" lon="3.01204">
        <ele>712</ele>
        <time>2012-09-15T07:39:58Z</time>
      </trkpt>
      <trkpt lat="45.84472" lon="3.012">
        <ele>712</ele>
        <time>2012-09-15T07:40:00Z</time>
      </trkpt>
      <trkpt lat="45.84472" lon="3.01196">
        <ele>712</ele>
        <time>2012-09-15T07:40:02Z</time>
      </trkpt>
      <trkpt lat="45.84472" lon="3.01192">
        <ele>712</ele>
        <time>2012-09-15T07:40:04Z</time>
      </trkpt>
      <trkpt lat="45.84475" lon="3.01187">
        <ele>712</ele>
        <time>2012-09-15T07:40:06Z</time>
      </trkpt>
      <trkpt lat="45.84477" lon="3.01182">
        <ele>712</ele>
        <time>2012-09-15T07:40:08Z</time>
      </trkpt>
      <trkpt lat="45.84479" lon="3.01178">
        <ele>712</ele>
        <time>2012-09-15T07:40:10Z</time>
      </trkpt>
      <trkpt lat="45.84481" lon="3.01172">
        <ele>712</ele>
        <time>2012-09-15T07:40:12Z</time>
      </trkpt>
      <trkpt lat="45.84482" lon="3.01166">
        <ele>712</ele>
        <time>2012-09-15T07:40:14Z</time>
      </trkpt>
      <trkpt lat="45.84481" lon="3.01163">
        <ele>712</ele>
        <time>2012-09-15T07:40:16Z</time>
      </trkpt>
      <trkpt lat="45.84479" lon="3.0116">
        <ele>713</ele>
        <time>2012-09-15T07:40:18Z</time>
      </trkpt>
      <trkpt lat="45.84479" lon="3.01156">
        <ele>714</ele>
        <time>2012-09-15T07:40:20Z</time>
      </trkpt>
      <trkpt lat="45.8448" lon="3.01152">
        <ele>716</ele>
        <time>2012-09-15T07:40:24Z</time>
      </trkpt>
      <trkpt lat="45.84482" lon="3.01151">
        <ele>718</ele>
        <time>2012-09-15T07:40:27Z</time>
      </trkpt>
      <trkpt lat="45.84483" lon="3.01148">
        <ele>720</ele>
        <time>2012-09-15T07:40:30Z</time>
      </trkpt>
      <trkpt lat="45.84481" lon="3.01143">
        <ele>722</ele>
        <time>2012-09-15T07:40:33Z</time>
      </trkpt>
      <trkpt lat="45.84481" lon="3.01137">
        <ele>724</ele>
        <time>2012-09-15T07:40:39Z</time>
      </trkpt>
      <trkpt lat="45.8448" lon="3.0113">
        <ele>724</ele>
        <time>2012-09-15T07:40:43Z</time>
      </trkpt>
      <trkpt lat="45.84467" lon="3.01119">
        <ele>726</ele>
        <time>2012-09-15T07:40:46Z</time>
      </trkpt>
      <trkpt lat="45.84465" lon="3.01117">
        <ele>728</ele>
        <time>2012-09-15T07:40:48Z</time>
      </trkpt>
      <trkpt lat="45.84462" lon="3.01112">
        <ele>730</ele>
        <time>2012-09-15T07:40:50Z</time>
      </trkpt>
      <trkpt lat="45.8446" lon="3.01109">
        <ele>732</ele>
        <time>2012-09-15T07:40:52Z</time>
      </trkpt>
      <trkpt lat="45.84458" lon="3.01106">
        <ele>734</ele>
        <time>2012-09-15T07:40:54Z</time>
      </trkpt>
      <trkpt lat="45.84455" lon="3.01103">
        <ele>740</ele>
        <time>2012-09-15T07:41:00Z</time>
      </trkpt>
      <trkpt lat="45.84453" lon="3.01099">
        <ele>742</ele>
        <time>2012-09-15T07:41:02Z</time>
      </trkpt>
      <trkpt lat="45.84451" lon="3.01095">
        <ele>744</ele>
        <time>2012-09-15T07:41:04Z</time>
      </trkpt>
      <trkpt lat="45.84449" lon="3.0109">
        <ele>746</ele>
        <time>2012-09-15T07:41:06Z</time>
      </trkpt>
      <trkpt lat="45.84447" lon="3.01086">
        <ele>747</ele>
        <time>2012-09-15T07:41:08Z</time>
      </trkpt>
      <trkpt lat="45.84444" lon="3.01081">
        <ele>747</ele>
        <time>2012-09-15T07:41:10Z</time>
      </trkpt>
      <trkpt lat="45.84443" lon="3.01078">
        <ele>747</ele>
        <time>2012-09-15T07:41:12Z</time>
      </trkpt>
      <trkpt lat="45.84441" lon="3.01074">
        <ele>747</ele>
        <time>2012-09-15T07:41:15Z</time>
      </trkpt>
      <trkpt lat="45.84438" lon="3.01069">
        <ele>747</ele>
        <time>2012-09-15T07:41:18Z</time>
      </trkpt>
      <trkpt lat="45.84437" lon="3.01067">
        <ele>747</ele>
        <time>2012-09-15T07:41:20Z</time>
      </trkpt>
      <trkpt lat="45.84434" lon="3.01062">
        <ele>747</ele>
        <time>2012-09-15T07:41:23Z</time>
      </trkpt>
      <trkpt lat="45.84432" lon="3.01057">
        <ele>747</ele>
        <time>2012-09-15T07:41:25Z</time>
      </trkpt>
      <trkpt lat="45.8443" lon="3.01052">
        <ele>747</ele>
        <time>2012-09-15T07:41:28Z</time>
      </trkpt>
      <trkpt lat="45.84427" lon="3.01049">
        <ele>747</ele>
        <time>2012-09-15T07:41:30Z</time>
      </trkpt>
      <trkpt lat="45.84425" lon="3.01044">
        <ele>747</ele>
        <time>2012-09-15T07:41:32Z</time>
      </trkpt>
      <trkpt lat="45.84424" lon="3.01038">
        <ele>747</ele>
        <time>2012-09-15T07:41:35Z</time>
      </trkpt>
      <trkpt lat="45.84422" lon="3.01033">
        <ele>747</ele>
        <time>2012-09-15T07:41:38Z</time>
      </trkpt>
      <trkpt lat="45.8442" lon="3.01028">
        <ele>747</ele>
        <time>2012-09-15T07:41:40Z</time>
      </trkpt>
      <trkpt lat="45.84417" lon="3.01023">
        <ele>747</ele>
        <time>2012-09-15T07:41:42Z</time>
      </trkpt>
      <trkpt lat="45.84415" lon="3.01018">
        <ele>747</ele>
        <time>2012-09-15T07:41:44Z</time>
      </trkpt>
      <trkpt lat="45.84412" lon="3.01013">
        <ele>747</ele>
        <time>2012-09-15T07:41:46Z</time>
      </trkpt>
      <trkpt lat="45.8441" lon="3.01008">
        <ele>746</ele>
        <time>2012-09-15T07:41:48Z</time>
      </trkpt>
      <trkpt lat="45.84411" lon="3.01003">
        <ele>746</ele>
        <time>2012-09-15T07:41:50Z</time>
      </trkpt>
      <trkpt lat="45.84413" lon="3.00998">
        <ele>746</ele>
        <time>2012-09-15T07:41:52Z</time>
      </trkpt>
      <trkpt lat="45.84412" lon="3.00993">
        <ele>746</ele>
        <time>2012-09-15T07:41:54Z</time>
      </trkpt>
      <trkpt lat="45.8441" lon="3.00989">
        <ele>746</ele>
        <time>2012-09-15T07:41:56Z</time>
      </trkpt>
      <trkpt lat="45.84408" lon="3.00984">
        <ele>746</ele>
        <time>2012-09-15T07:41:58Z</time>
      </trkpt>
      <trkpt lat="45.84401" lon="3.00974">
        <ele>746</ele>
        <time>2012-09-15T07:42:01Z</time>
      </trkpt>
      <trkpt lat="45.84396" lon="3.00966">
        <ele>746</ele>
        <time>2012-09-15T07:42:04Z</time>
      </trkpt>
      <trkpt lat="45.84395" lon="3.00961">
        <ele>746</ele>
        <time>2012-09-15T07:42:06Z</time>
      </trkpt>
      <trkpt lat="45.84391" lon="3.00956">
        <ele>746</ele>
        <time>2012-09-15T07:42:08Z</time>
      </trkpt>
      <trkpt lat="45.84388" lon="3.00948">
        <ele>744</ele>
        <time>2012-09-15T07:42:11Z</time>
      </trkpt>
      <trkpt lat="45.84386" lon="3.00944">
        <ele>743</ele>
        <time>2012-09-15T07:42:13Z</time>
      </trkpt>
      <trkpt lat="45.84385" lon="3.0094">
        <ele>743</ele>
        <time>2012-09-15T07:42:15Z</time>
      </trkpt>
      <trkpt lat="45.84384" lon="3.00936">
        <ele>743</ele>
        <time>2012-09-15T07:42:17Z</time>
      </trkpt>
      <trkpt lat="45.84381" lon="3.00931">
        <ele>743</ele>
        <time>2012-09-15T07:42:20Z</time>
      </trkpt>
      <trkpt lat="45.84381" lon="3.00928">
        <ele>743</ele>
        <time>2012-09-15T07:42:22Z</time>
      </trkpt>
      <trkpt lat="45.84378" lon="3.00924">
        <ele>743</ele>
        <time>2012-09-15T07:42:24Z</time>
      </trkpt>
      <trkpt lat="45.84377" lon="3.00919">
        <ele>743</ele>
        <time>2012-09-15T07:42:27Z</time>
      </trkpt>
      <trkpt lat="45.84374" lon="3.00916">
        <ele>743</ele>
        <time>2012-09-15T07:42:29Z</time>
      </trkpt>
      <trkpt lat="45.84372" lon="3.00912">
        <ele>743</ele>
        <time>2012-09-15T07:42:32Z</time>
      </trkpt>
      <trkpt lat="45.8437" lon="3.00908">
        <ele>743</ele>
        <time>2012-09-15T07:42:35Z</time>
      </trkpt>
      <trkpt lat="45.84369" lon="3.00905">
        <ele>743</ele>
        <time>2012-09-15T07:42:37Z</time>
      </trkpt>
      <trkpt lat="45.84366" lon="3.00902">
        <ele>744</ele>
        <time>2012-09-15T07:42:39Z</time>
      </trkpt>
      <trkpt lat="45.84364" lon="3.009">
        <ele>747</ele>
        <time>2012-09-15T07:42:41Z</time>
      </trkpt>
      <trkpt lat="45.84361" lon="3.009">
        <ele>750</ele>
        <time>2012-09-15T07:42:44Z</time>
      </trkpt>
      <trkpt lat="45.84359" lon="3.00901">
        <ele>752</ele>
        <time>2012-09-15T07:42:46Z</time>
      </trkpt>
      <trkpt lat="45.84356" lon="3.00902">
        <ele>754</ele>
        <time>2012-09-15T07:42:48Z</time>
      </trkpt>
      <trkpt lat="45.84353" lon="3.00901">
        <ele>756</ele>
        <time>2012-09-15T07:42:51Z</time>
      </trkpt>
      <trkpt lat="45.84351" lon="3.00898">
        <ele>757</ele>
        <time>2012-09-15T07:42:54Z</time>
      </trkpt>
      <trkpt lat="45.84349" lon="3.00895">
        <ele>758</ele>
        <time>2012-09-15T07:42:56Z</time>
      </trkpt>
      <trkpt lat="45.84348" lon="3.00893">
        <ele>760</ele>
        <time>2012-09-15T07:42:58Z</time>
      </trkpt>
      <trkpt lat="45.84349" lon="3.0089">
        <ele>761</ele>
        <time>2012-09-15T07:43:00Z</time>
      </trkpt>
      <trkpt lat="45.84349" lon="3.00887">
        <ele>762</ele>
        <time>2012-09-15T07:43:02Z</time>
      </trkpt>
      <trkpt lat="45.84348" lon="3.00885">
        <ele>763</ele>
        <time>2012-09-15T07:43:04Z</time>
      </trkpt>
      <trkpt lat="45.84347" lon="3.00883">
        <ele>763</ele>
        <time>2012-09-15T07:43:06Z</time>
      </trkpt>
      <trkpt lat="45.84346" lon="3.00881">
        <ele>763</ele>
        <time>2012-09-15T07:43:08Z</time>
      </trkpt>
      <trkpt lat="45.84347" lon="3.00878">
        <ele>764</ele>
        <time>2012-09-15T07:43:10Z</time>
      </trkpt>
      <trkpt lat="45.84347" lon="3.00874">
        <ele>764</ele>
        <time>2012-09-15T07:43:12Z</time>
      </trkpt>
      <trkpt lat="45.84347" lon="3.00868">
        <ele>764</ele>
        <time>2012-09-15T07:43:14Z</time>
      </trkpt>
      <trkpt lat="45.84347" lon="3.00863">
        <ele>764</ele>
        <time>2012-09-15T07:43:16Z</time>
      </trkpt>
      <trkpt lat="45.84345" lon="3.00855">
        <ele>764</ele>
        <time>2012-09-15T07:43:19Z</time>
      </trkpt>
      <trkpt lat="45.84343" lon="3.00848">
        <ele>764</ele>
        <time>2012-09-15T07:43:22Z</time>
      </trkpt>
      <trkpt lat="45.84341" lon="3.00841">
        <ele>764</ele>
        <time>2012-09-15T07:43:24Z</time>
      </trkpt>
      <trkpt lat="45.84341" lon="3.00836">
        <ele>764</ele>
        <time>2012-09-15T07:43:27Z</time>
      </trkpt>
      <trkpt lat="45.8434" lon="3.00828">
        <ele>764</ele>
        <time>2012-09-15T07:43:29Z</time>
      </trkpt>
      <trkpt lat="45.8434" lon="3.00822">
        <ele>764</ele>
        <time>2012-09-15T07:43:32Z</time>
      </trkpt>
      <trkpt lat="45.84338" lon="3.00814">
        <ele>764</ele>
        <time>2012-09-15T07:43:34Z</time>
      </trkpt>
      <trkpt lat="45.84336" lon="3.00808">
        <ele>764</ele>
        <time>2012-09-15T07:43:36Z</time>
      </trkpt>
      <trkpt lat="45.84335" lon="3.00803">
        <ele>764</ele>
        <time>2012-09-15T07:43:38Z</time>
      </trkpt>
      <trkpt lat="45.84333" lon="3.00798">
        <ele>764</ele>
        <time>2012-09-15T07:43:40Z</time>
      </trkpt>
      <trkpt lat="45.84332" lon="3.00793">
        <ele>764</ele>
        <time>2012-09-15T07:43:43Z</time>
      </trkpt>
      <trkpt lat="45.8433" lon="3.00788">
        <ele>764</ele>
        <time>2012-09-15T07:43:45Z</time>
      </trkpt>
      <trkpt lat="45.84327" lon="3.00781">
        <ele>764</ele>
        <time>2012-09-15T07:43:48Z</time>
      </trkpt>
      <trkpt lat="45.84325" lon="3.00777">
        <ele>764</ele>
        <time>2012-09-15T07:43:50Z</time>
      </trkpt>
      <trkpt lat="45.8432" lon="3.00771">
        <ele>764</ele>
        <time>2012-09-15T07:43:53Z</time>
      </trkpt>
      <trkpt lat="45.84314" lon="3.00766">
        <ele>765</ele>
        <time>2012-09-15T07:43:55Z</time>
      </trkpt>
      <trkpt lat="45.84311" lon="3.00763">
        <ele>765</ele>
        <time>2012-09-15T07:43:57Z</time>
      </trkpt>
      <trkpt lat="45.84307" lon="3.00761">
        <ele>765</ele>
        <time>2012-09-15T07:43:59Z</time>
      </trkpt>
      <trkpt lat="45.84303" lon="3.00757">
        <ele>765</ele>
        <time>2012-09-15T07:44:01Z</time>
      </trkpt>
      <trkpt lat="45.84298" lon="3.00753">
        <ele>765</ele>
        <time>2012-09-15T07:44:04Z</time>
      </trkpt>
      <trkpt lat="45.84292" lon="3.00748">
        <ele>765</ele>
        <time>2012-09-15T07:44:06Z</time>
      </trkpt>
      <trkpt lat="45.84285" lon="3.00743">
        <ele>765</ele>
        <time>2012-09-15T07:44:08Z</time>
      </trkpt>
      <trkpt lat="45.84279" lon="3.00738">
        <ele>765</ele>
        <time>2012-09-15T07:44:10Z</time>
      </trkpt>
      <trkpt lat="45.84271" lon="3.00734">
        <ele>765</ele>
        <time>2012-09-15T07:44:12Z</time>
      </trkpt>
      <trkpt lat="45.84259" lon="3.00729">
        <ele>765</ele>
        <time>2012-09-15T07:44:14Z</time>
      </trkpt>
      <trkpt lat="45.84252" lon="3.00726">
        <ele>765</ele>
        <time>2012-09-15T07:44:16Z</time>
      </trkpt>
      <trkpt lat="45.84245" lon="3.00722">
        <ele>767</ele>
        <time>2012-09-15T07:44:18Z</time>
      </trkpt>
      <trkpt lat="45.84236" lon="3.00719">
        <ele>769</ele>
        <time>2012-09-15T07:44:20Z</time>
      </trkpt>
      <trkpt lat="45.84229" lon="3.00715">
        <ele>771</ele>
        <time>2012-09-15T07:44:22Z</time>
      </trkpt>
      <trkpt lat="45.84222" lon="3.00711">
        <ele>773</ele>
        <time>2012-09-15T07:44:24Z</time>
      </trkpt>
      <trkpt lat="45.84216" lon="3.00709">
        <ele>775</ele>
        <time>2012-09-15T07:44:27Z</time>
      </trkpt>
      <trkpt lat="45.84209" lon="3.00706">
        <ele>777</ele>
        <time>2012-09-15T07:44:29Z</time>
      </trkpt>
      <trkpt lat="45.84201" lon="3.00704">
        <ele>778</ele>
        <time>2012-09-15T07:44:31Z</time>
      </trkpt>
      <trkpt lat="45.84192" lon="3.00703">
        <ele>780</ele>
        <time>2012-09-15T07:44:33Z</time>
      </trkpt>
      <trkpt lat="45.84179" lon="3.00698">
        <ele>781</ele>
        <time>2012-09-15T07:44:35Z</time>
      </trkpt>
      <trkpt lat="45.84172" lon="3.00693">
        <ele>782</ele>
        <time>2012-09-15T07:44:38Z</time>
      </trkpt>
      <trkpt lat="45.84161" lon="3.00683">
        <ele>784</ele>
        <time>2012-09-15T07:44:41Z</time>
      </trkpt>
      <trkpt lat="45.84155" lon="3.00676">
        <ele>786</ele>
        <time>2012-09-15T07:44:43Z</time>
      </trkpt>
      <trkpt lat="45.8415" lon="3.0067">
        <ele>787</ele>
        <time>2012-09-15T07:44:45Z</time>
      </trkpt>
      <trkpt lat="45.84144" lon="3.00667">
        <ele>788</ele>
        <time>2012-09-15T07:44:47Z</time>
      </trkpt>
      <trkpt lat="45.84138" lon="3.00668">
        <ele>788</ele>
        <time>2012-09-15T07:44:49Z</time>
      </trkpt>
      <trkpt lat="45.84131" lon="3.00672">
        <ele>788</ele>
        <time>2012-09-15T07:44:51Z</time>
      </trkpt>
      <trkpt lat="45.84124" lon="3.00678">
        <ele>788</ele>
        <time>2012-09-15T07:44:53Z</time>
      </trkpt>
      <trkpt lat="45.84118" lon="3.00683">
        <ele>788</ele>
        <time>2012-09-15T07:44:55Z</time>
      </trkpt>
      <trkpt lat="45.84108" lon="3.00688">
        <ele>788</ele>
        <time>2012-09-15T07:44:57Z</time>
      </trkpt>
      <trkpt lat="45.84103" lon="3.00691">
        <ele>788</ele>
        <time>2012-09-15T07:44:59Z</time>
      </trkpt>
      <trkpt lat="45.84096" lon="3.00694">
        <ele>788</ele>
        <time>2012-09-15T07:45:01Z</time>
      </trkpt>
      <trkpt lat="45.84089" lon="3.00698">
        <ele>788</ele>
        <time>2012-09-15T07:45:03Z</time>
      </trkpt>
      <trkpt lat="45.84081" lon="3.00701">
        <ele>788</ele>
        <time>2012-09-15T07:45:05Z</time>
      </trkpt>
      <trkpt lat="45.84074" lon="3.00704">
        <ele>788</ele>
        <time>2012-09-15T07:45:07Z</time>
      </trkpt>
      <trkpt lat="45.84068" lon="3.00707">
        <ele>788</ele>
        <time>2012-09-15T07:45:09Z</time>
      </trkpt>
      <trkpt lat="45.84061" lon="3.0071">
        <ele>788</ele>
        <time>2012-09-15T07:45:11Z</time>
      </trkpt>
      <trkpt lat="45.84054" lon="3.00713">
        <ele>788</ele>
        <time>2012-09-15T07:45:13Z</time>
      </trkpt>
      <trkpt lat="45.84048" lon="3.00715">
        <ele>788</ele>
        <time>2012-09-15T07:45:16Z</time>
      </trkpt>
      <trkpt lat="45.84039" lon="3.00719">
        <ele>788</ele>
        <time>2012-09-15T07:45:19Z</time>
      </trkpt>
      <trkpt lat="45.8403" lon="3.00722">
        <ele>788</ele>
        <time>2012-09-15T07:45:22Z</time>
      </trkpt>
      <trkpt lat="45.84021" lon="3.00725">
        <ele>788</ele>
        <time>2012-09-15T07:45:25Z</time>
      </trkpt>
      <trkpt lat="45.84015" lon="3.00727">
        <ele>788</ele>
        <time>2012-09-15T07:45:27Z</time>
      </trkpt>
      <trkpt lat="45.84008" lon="3.00729">
        <ele>788</ele>
        <time>2012-09-15T07:45:29Z</time>
      </trkpt>
      <trkpt lat="45.84002" lon="3.00732">
        <ele>789</ele>
        <time>2012-09-15T07:45:31Z</time>
      </trkpt>
      <trkpt lat="45.83995" lon="3.00734">
        <ele>789</ele>
        <time>2012-09-15T07:45:33Z</time>
      </trkpt>
      <trkpt lat="45.83988" lon="3.00737">
        <ele>789</ele>
        <time>2012-09-15T07:45:35Z</time>
      </trkpt>
      <trkpt lat="45.83982" lon="3.0074">
        <ele>790</ele>
        <time>2012-09-15T07:45:37Z</time>
      </trkpt>
      <trkpt lat="45.83973" lon="3.00745">
        <ele>790</ele>
        <time>2012-09-15T07:45:39Z</time>
      </trkpt>
      <trkpt lat="45.83967" lon="3.00748">
        <ele>791</ele>
        <time>2012-09-15T07:45:41Z</time>
      </trkpt>
      <trkpt lat="45.83961" lon="3.00751">
        <ele>791</ele>
        <time>2012-09-15T07:45:43Z</time>
      </trkpt>
      <trkpt lat="45.83956" lon="3.00754">
        <ele>791</ele>
        <time>2012-09-15T07:45:45Z</time>
      </trkpt>
      <trkpt lat="45.83951" lon="3.00758">
        <ele>792</ele>
        <time>2012-09-15T07:45:48Z</time>
      </trkpt>
      <trkpt lat="45.83943" lon="3.00763">
        <ele>792</ele>
        <time>2012-09-15T07:45:51Z</time>
      </trkpt>
      <trkpt lat="45.83935" lon="3.00767">
        <ele>792</ele>
        <time>2012-09-15T07:45:54Z</time>
      </trkpt>
      <trkpt lat="45.8393" lon="3.00771">
        <ele>792</ele>
        <time>2012-09-15T07:45:56Z</time>
      </trkpt>
      <trkpt lat="45.83921" lon="3.00777">
        <ele>792</ele>
        <time>2012-09-15T07:45:59Z</time>
      </trkpt>
      <trkpt lat="45.83914" lon="3.00782">
        <ele>792</ele>
        <time>2012-09-15T07:46:01Z</time>
      </trkpt>
      <trkpt lat="45.83907" lon="3.00786">
        <ele>792</ele>
        <time>2012-09-15T07:46:03Z</time>
      </trkpt>
      <trkpt lat="45.83897" lon="3.00793">
        <ele>792</ele>
        <time>2012-09-15T07:46:06Z</time>
      </trkpt>
      <trkpt lat="45.83888" lon="3.00801">
        <ele>792</ele>
        <time>2012-09-15T07:46:09Z</time>
      </trkpt>
      <trkpt lat="45.83881" lon="3.00806">
        <ele>793</ele>
        <time>2012-09-15T07:46:11Z</time>
      </trkpt>
      <trkpt lat="45.83874" lon="3.00811">
        <ele>793</ele>
        <time>2012-09-15T07:46:13Z</time>
      </trkpt>
      <trkpt lat="45.83867" lon="3.00816">
        <ele>794</ele>
        <time>2012-09-15T07:46:15Z</time>
      </trkpt>
      <trkpt lat="45.83856" lon="3.00823">
        <ele>795</ele>
        <time>2012-09-15T07:46:17Z</time>
      </trkpt>
      <trkpt lat="45.83849" lon="3.00829">
        <ele>795</ele>
        <time>2012-09-15T07:46:20Z</time>
      </trkpt>
      <trkpt lat="45.83842" lon="3.00834">
        <ele>796</ele>
        <time>2012-09-15T07:46:22Z</time>
      </trkpt>
      <trkpt lat="45.83835" lon="3.00839">
        <ele>796</ele>
        <time>2012-09-15T07:46:24Z</time>
      </trkpt>
      <trkpt lat="45.83828" lon="3.00843">
        <ele>796</ele>
        <time>2012-09-15T07:46:26Z</time>
      </trkpt>
      <trkpt lat="45.83821" lon="3.00848">
        <ele>796</ele>
        <time>2012-09-15T07:46:28Z</time>
      </trkpt>
      <trkpt lat="45.83815" lon="3.00852">
        <ele>797</ele>
        <time>2012-09-15T07:46:30Z</time>
      </trkpt>
      <trkpt lat="45.83809" lon="3.00857">
        <ele>797</ele>
        <time>2012-09-15T07:46:32Z</time>
      </trkpt>
      <trkpt lat="45.83802" lon="3.00861">
        <ele>797</ele>
        <time>2012-09-15T07:46:34Z</time>
      </trkpt>
      <trkpt lat="45.83792" lon="3.00868">
        <ele>798</ele>
        <time>2012-09-15T07:46:37Z</time>
      </trkpt>
      <trkpt lat="45.83786" lon="3.00873">
        <ele>798</ele>
        <time>2012-09-15T07:46:39Z</time>
      </trkpt>
      <trkpt lat="45.8378" lon="3.00878">
        <ele>798</ele>
        <time>2012-09-15T07:46:41Z</time>
      </trkpt>
      <trkpt lat="45.83774" lon="3.00883">
        <ele>798</ele>
        <time>2012-09-15T07:46:43Z</time>
      </trkpt>
      <trkpt lat="45.83767" lon="3.00886">
        <ele>799</ele>
        <time>2012-09-15T07:46:45Z</time>
      </trkpt>
      <trkpt lat="45.83761" lon="3.0089">
        <ele>799</ele>
        <time>2012-09-15T07:46:47Z</time>
      </trkpt>
      <trkpt lat="45.83755" lon="3.00894">
        <ele>799</ele>
        <time>2012-09-15T07:46:49Z</time>
      </trkpt>
      <trkpt lat="45.8375" lon="3.00899">
        <ele>799</ele>
        <time>2012-09-15T07:46:51Z</time>
      </trkpt>
      <trkpt lat="45.83745" lon="3.00902">
        <ele>800</ele>
        <time>2012-09-15T07:46:53Z</time>
      </trkpt>
      <trkpt lat="45.83741" lon="3.00905">
        <ele>800</ele>
        <time>2012-09-15T07:46:55Z</time>
      </trkpt>
      <trkpt lat="45.83737" lon="3.00909">
        <ele>800</ele>
        <time>2012-09-15T07:46:57Z</time>
      </trkpt>
      <trkpt lat="45.83733" lon="3.00912">
        <ele>801</ele>
        <time>2012-09-15T07:46:59Z</time>
      </trkpt>
      <trkpt lat="45.83729" lon="3.00915">
        <ele>801</ele>
        <time>2012-09-15T07:47:01Z</time>
      </trkpt>
      <trkpt lat="45.83724" lon="3.00919">
        <ele>801</ele>
        <time>2012-09-15T07:47:03Z</time>
      </trkpt>
      <trkpt lat="45.8372" lon="3.00922">
        <ele>801</ele>
        <time>2012-09-15T07:47:05Z</time>
      </trkpt>
      <trkpt lat="45.83716" lon="3.00925">
        <ele>801</ele>
        <time>2012-09-15T07:47:07Z</time>
      </trkpt>
      <trkpt lat="45.83712" lon="3.00928">
        <ele>802</ele>
        <time>2012-09-15T07:47:09Z</time>
      </trkpt>
      <trkpt lat="45.83709" lon="3.00931">
        <ele>802</ele>
        <time>2012-09-15T07:47:11Z</time>
      </trkpt>
      <trkpt lat="45.83705" lon="3.00934">
        <ele>802</ele>
        <time>2012-09-15T07:47:13Z</time>
      </trkpt>
      <trkpt lat="45.83702" lon="3.00937">
        <ele>803</ele>
        <time>2012-09-15T07:47:15Z</time>
      </trkpt>
      <trkpt lat="45.83699" lon="3.00939">
        <ele>803</ele>
        <time>2012-09-15T07:47:17Z</time>
      </trkpt>
      <trkpt lat="45.83695" lon="3.00942">
        <ele>803</ele>
        <time>2012-09-15T07:47:19Z</time>
      </trkpt>
      <trkpt lat="45.83692" lon="3.00944">
        <ele>804</ele>
        <time>2012-09-15T07:47:21Z</time>
      </trkpt>
      <trkpt lat="45.83688" lon="3.00946">
        <ele>804</ele>
        <time>2012-09-15T07:47:23Z</time>
      </trkpt>
      <trkpt lat="45.83684" lon="3.0095">
        <ele>804</ele>
        <time>2012-09-15T07:47:25Z</time>
      </trkpt>
      <trkpt lat="45.8368" lon="3.00953">
        <ele>805</ele>
        <time>2012-09-15T07:47:27Z</time>
      </trkpt>
      <trkpt lat="45.83676" lon="3.00956">
        <ele>805</ele>
        <time>2012-09-15T07:47:29Z</time>
      </trkpt>
      <trkpt lat="45.83672" lon="3.0096">
        <ele>806</ele>
        <time>2012-09-15T07:47:31Z</time>
      </trkpt>
      <trkpt lat="45.83668" lon="3.00963">
        <ele>806</ele>
        <time>2012-09-15T07:47:33Z</time>
      </trkpt>
      <trkpt lat="45.83664" lon="3.00966">
        <ele>807</ele>
        <time>2012-09-15T07:47:35Z</time>
      </trkpt>
      <trkpt lat="45.8366" lon="3.00969">
        <ele>807</ele>
        <time>2012-09-15T07:47:37Z</time>
      </trkpt>
      <trkpt lat="45.83656" lon="3.00973">
        <ele>807</ele>
        <time>2012-09-15T07:47:39Z</time>
      </trkpt>
      <trkpt lat="45.83652" lon="3.00976">
        <ele>808</ele>
        <time>2012-09-15T07:47:41Z</time>
      </trkpt>
      <trkpt lat="45.83649" lon="3.0098">
        <ele>808</ele>
        <time>2012-09-15T07:47:43Z</time>
      </trkpt>
      <trkpt lat="45.83644" lon="3.00982">
        <ele>808</ele>
        <time>2012-09-15T07:47:45Z</time>
      </trkpt>
      <trkpt lat="45.8364" lon="3.00986">
        <ele>808</ele>
        <time>2012-09-15T07:47:47Z</time>
      </trkpt>
      <trkpt lat="45.83636" lon="3.0099">
        <ele>809</ele>
        <time>2012-09-15T07:47:49Z</time>
      </trkpt>
      <trkpt lat="45.83633" lon="3.00994">
        <ele>809</ele>
        <time>2012-09-15T07:47:51Z</time>
      </trkpt>
      <trkpt lat="45.83629" lon="3.01">
        <ele>810</ele>
        <time>2012-09-15T07:47:53Z</time>
      </trkpt>
      <trkpt lat="45.83626" lon="3.01009">
        <ele>810</ele>
        <time>2012-09-15T07:47:55Z</time>
      </trkpt>
      <trkpt lat="45.83624" lon="3.01018">
        <ele>810</ele>
        <time>2012-09-15T07:47:57Z</time>
      </trkpt>
      <trkpt lat="45.83621" lon="3.01027">
        <ele>811</ele>
        <time>2012-09-15T07:47:59Z</time>
      </trkpt>
      <trkpt lat="45.83617" lon="3.01036">
        <ele>811</ele>
        <time>2012-09-15T07:48:01Z</time>
      </trkpt>
      <trkpt lat="45.83613" lon="3.01046">
        <ele>812</ele>
        <time>2012-09-15T07:48:03Z</time>
      </trkpt>
      <trkpt lat="45.83609" lon="3.01055">
        <ele>812</ele>
        <time>2012-09-15T07:48:05Z</time>
      </trkpt>
      <trkpt lat="45.83604" lon="3.01064">
        <ele>813</ele>
        <time>2012-09-15T07:48:07Z</time>
      </trkpt>
      <trkpt lat="45.836" lon="3.01074">
        <ele>813</ele>
        <time>2012-09-15T07:48:09Z</time>
      </trkpt>
      <trkpt lat="45.83596" lon="3.01084">
        <ele>813</ele>
        <time>2012-09-15T07:48:11Z</time>
      </trkpt>
      <trkpt lat="45.83591" lon="3.01095">
        <ele>813</ele>
        <time>2012-09-15T07:48:13Z</time>
      </trkpt>
      <trkpt lat="45.83586" lon="3.01106">
        <ele>813</ele>
        <time>2012-09-15T07:48:15Z</time>
      </trkpt>
      <trkpt lat="45.83574" lon="3.01123">
        <ele>813</ele>
        <time>2012-09-15T07:48:18Z</time>
      </trkpt>
      <trkpt lat="45.83566" lon="3.01134">
        <ele>813</ele>
        <time>2012-09-15T07:48:20Z</time>
      </trkpt>
      <trkpt lat="45.83557" lon="3.01145">
        <ele>813</ele>
        <time>2012-09-15T07:48:22Z</time>
      </trkpt>
      <trkpt lat="45.83547" lon="3.01157">
        <ele>813</ele>
        <time>2012-09-15T07:48:24Z</time>
      </trkpt>
      <trkpt lat="45.83538" lon="3.01168">
        <ele>813</ele>
        <time>2012-09-15T07:48:26Z</time>
      </trkpt>
      <trkpt lat="45.83529" lon="3.0118">
        <ele>813</ele>
        <time>2012-09-15T07:48:28Z</time>
      </trkpt>
      <trkpt lat="45.83521" lon="3.01193">
        <ele>813</ele>
        <time>2012-09-15T07:48:30Z</time>
      </trkpt>
      <trkpt lat="45.83512" lon="3.01207">
        <ele>813</ele>
        <time>2012-09-15T07:48:32Z</time>
      </trkpt>
      <trkpt lat="45.83504" lon="3.01222">
        <ele>813</ele>
        <time>2012-09-15T07:48:34Z</time>
      </trkpt>
      <trkpt lat="45.83497" lon="3.01238">
        <ele>813</ele>
        <time>2012-09-15T07:48:36Z</time>
      </trkpt>
      <trkpt lat="45.83489" lon="3.01255">
        <ele>813</ele>
        <time>2012-09-15T07:48:38Z</time>
      </trkpt>
      <trkpt lat="45.83474" lon="3.01275">
        <ele>813</ele>
        <time>2012-09-15T07:48:40Z</time>
      </trkpt>
      <trkpt lat="45.83463" lon="3.01283">
        <ele>813</ele>
        <time>2012-09-15T07:48:43Z</time>
      </trkpt>
      <trkpt lat="45.83451" lon="3.01288">
        <ele>813</ele>
        <time>2012-09-15T07:48:45Z</time>
      </trkpt>
      <trkpt lat="45.83432" lon="3.01292">
        <ele>813</ele>
        <time>2012-09-15T07:48:47Z</time>
      </trkpt>
      <trkpt lat="45.83419" lon="3.01292">
        <ele>813</ele>
        <time>2012-09-15T07:48:50Z</time>
      </trkpt>
      <trkpt lat="45.83398" lon="3.01293">
        <ele>813</ele>
        <time>2012-09-15T07:48:52Z</time>
      </trkpt>
      <trkpt lat="45.83383" lon="3.01294">
        <ele>812</ele>
        <time>2012-09-15T07:48:55Z</time>
      </trkpt>
      <trkpt lat="45.8336" lon="3.01296">
        <ele>811</ele>
        <time>2012-09-15T07:48:57Z</time>
      </trkpt>
      <trkpt lat="45.83344" lon="3.01299">
        <ele>811</ele>
        <time>2012-09-15T07:48:59Z</time>
      </trkpt>
      <trkpt lat="45.83329" lon="3.01304">
        <ele>811</ele>
        <time>2012-09-15T07:49:01Z</time>
      </trkpt>
      <trkpt lat="45.83315" lon="3.01309">
        <ele>811</ele>
        <time>2012-09-15T07:49:03Z</time>
      </trkpt>
      <trkpt lat="45.833" lon="3.01317">
        <ele>811</ele>
        <time>2012-09-15T07:49:06Z</time>
      </trkpt>
      <trkpt lat="45.8328" lon="3.0133">
        <ele>810</ele>
        <time>2012-09-15T07:49:08Z</time>
      </trkpt>
      <trkpt lat="45.83266" lon="3.01339">
        <ele>810</ele>
        <time>2012-09-15T07:49:11Z</time>
      </trkpt>
      <trkpt lat="45.83245" lon="3.01352">
        <ele>810</ele>
        <time>2012-09-15T07:49:13Z</time>
      </trkpt>
      <trkpt lat="45.83232" lon="3.0136">
        <ele>810</ele>
        <time>2012-09-15T07:49:15Z</time>
      </trkpt>
      <trkpt lat="45.83219" lon="3.01365">
        <ele>810</ele>
        <time>2012-09-15T07:49:17Z</time>
      </trkpt>
      <trkpt lat="45.83207" lon="3.01369">
        <ele>810</ele>
        <time>2012-09-15T07:49:20Z</time>
      </trkpt>
      <trkpt lat="45.83195" lon="3.01372">
        <ele>810</ele>
        <time>2012-09-15T07:49:22Z</time>
      </trkpt>
      <trkpt lat="45.83179" lon="3.01375">
        <ele>810</ele>
        <time>2012-09-15T07:49:24Z</time>
      </trkpt>
      <trkpt lat="45.83169" lon="3.01376">
        <ele>810</ele>
        <time>2012-09-15T07:49:27Z</time>
      </trkpt>
      <trkpt lat="45.83156" lon="3.01379">
        <ele>810</ele>
        <time>2012-09-15T07:49:29Z</time>
      </trkpt>
      <trkpt lat="45.83147" lon="3.0138">
        <ele>810</ele>
        <time>2012-09-15T07:49:32Z</time>
      </trkpt>
      <trkpt lat="45.83133" lon="3.01382">
        <ele>810</ele>
        <time>2012-09-15T07:49:34Z</time>
      </trkpt>
      <trkpt lat="45.83124" lon="3.01381">
        <ele>810</ele>
        <time>2012-09-15T07:49:36Z</time>
      </trkpt>
      <trkpt lat="45.83115" lon="3.01379">
        <ele>810</ele>
        <time>2012-09-15T07:49:39Z</time>
      </trkpt>
      <trkpt lat="45.83111" lon="3.01367">
        <ele>810</ele>
        <time>2012-09-15T07:49:41Z</time>
      </trkpt>
      <trkpt lat="45.83113" lon="3.01362">
        <ele>810</ele>
        <time>2012-09-15T07:49:43Z</time>
      </trkpt>
      <trkpt lat="45.83118" lon="3.01356">
        <ele>811</ele>
        <time>2012-09-15T07:49:45Z</time>
      </trkpt>
      <trkpt lat="45.83122" lon="3.0135">
        <ele>811</ele>
        <time>2012-09-15T07:49:47Z</time>
      </trkpt>
      <trkpt lat="45.83125" lon="3.01344">
        <ele>811</ele>
        <time>2012-09-15T07:49:49Z</time>
      </trkpt>
      <trkpt lat="45.8313" lon="3.01338">
        <ele>811</ele>
        <time>2012-09-15T07:49:51Z</time>
      </trkpt>
      <trkpt lat="45.83135" lon="3.0133">
        <ele>811</ele>
        <time>2012-09-15T07:49:53Z</time>
      </trkpt>
      <trkpt lat="45.83141" lon="3.01323">
        <ele>811</ele>
        <time>2012-09-15T07:49:56Z</time>
      </trkpt>
      <trkpt lat="45.83149" lon="3.01312">
        <ele>812</ele>
        <time>2012-09-15T07:49:59Z</time>
      </trkpt>
      <trkpt lat="45.83154" lon="3.01305">
        <ele>812</ele>
        <time>2012-09-15T07:50:01Z</time>
      </trkpt>
      <trkpt lat="45.83161" lon="3.01296">
        <ele>813</ele>
        <time>2012-09-15T07:50:03Z</time>
      </trkpt>
      <trkpt lat="45.83165" lon="3.01291">
        <ele>813</ele>
        <time>2012-09-15T07:50:05Z</time>
      </trkpt>
      <trkpt lat="45.83169" lon="3.01285">
        <ele>813</ele>
        <time>2012-09-15T07:50:07Z</time>
      </trkpt>
      <trkpt lat="45.83173" lon="3.01278">
        <ele>814</ele>
        <time>2012-09-15T07:50:09Z</time>
      </trkpt>
      <trkpt lat="45.83177" lon="3.01272">
        <ele>814</ele>
        <time>2012-09-15T07:50:12Z</time>
      </trkpt>
      <trkpt lat="45.83182" lon="3.01262">
        <ele>814</ele>
        <time>2012-09-15T07:50:14Z</time>
      </trkpt>
      <trkpt lat="45.83185" lon="3.01257">
        <ele>814</ele>
        <time>2012-09-15T07:50:17Z</time>
      </trkpt>
      <trkpt lat="45.83188" lon="3.01251">
        <ele>815</ele>
        <time>2012-09-15T07:50:19Z</time>
      </trkpt>
      <trkpt lat="45.83194" lon="3.01241">
        <ele>815</ele>
        <time>2012-09-15T07:50:22Z</time>
      </trkpt>
      <trkpt lat="45.83197" lon="3.01235">
        <ele>815</ele>
        <time>2012-09-15T07:50:24Z</time>
      </trkpt>
      <trkpt lat="45.83201" lon="3.01228">
        <ele>816</ele>
        <time>2012-09-15T07:50:26Z</time>
      </trkpt>
      <trkpt lat="45.83204" lon="3.01222">
        <ele>816</ele>
        <time>2012-09-15T07:50:28Z</time>
      </trkpt>
      <trkpt lat="45.8321" lon="3.01213">
        <ele>817</ele>
        <time>2012-09-15T07:50:31Z</time>
      </trkpt>
      <trkpt lat="45.83214" lon="3.01203">
        <ele>818</ele>
        <time>2012-09-15T07:50:34Z</time>
      </trkpt>
      <trkpt lat="45.83216" lon="3.01195">
        <ele>819</ele>
        <time>2012-09-15T07:50:36Z</time>
      </trkpt>
      <trkpt lat="45.83218" lon="3.01188">
        <ele>820</ele>
        <time>2012-09-15T07:50:38Z</time>
      </trkpt>
      <trkpt lat="45.8322" lon="3.01181">
        <ele>822</ele>
        <time>2012-09-15T07:50:40Z</time>
      </trkpt>
      <trkpt lat="45.83221" lon="3.01174">
        <ele>823</ele>
        <time>2012-09-15T07:50:42Z</time>
      </trkpt>
      <trkpt lat="45.83222" lon="3.01167">
        <ele>824</ele>
        <time>2012-09-15T07:50:44Z</time>
      </trkpt>
      <trkpt lat="45.83221" lon="3.0116">
        <ele>825</ele>
        <time>2012-09-15T07:50:46Z</time>
      </trkpt>
      <trkpt lat="45.8322" lon="3.01153">
        <ele>826</ele>
        <time>2012-09-15T07:50:48Z</time>
      </trkpt>
      <trkpt lat="45.83219" lon="3.01147">
        <ele>827</ele>
        <time>2012-09-15T07:50:50Z</time>
      </trkpt>
      <trkpt lat="45.83217" lon="3.0114">
        <ele>828</ele>
        <time>2012-09-15T07:50:52Z</time>
      </trkpt>
      <trkpt lat="45.83215" lon="3.01134">
        <ele>829</ele>
        <time>2012-09-15T07:50:54Z</time>
      </trkpt>
      <trkpt lat="45.83214" lon="3.01128">
        <ele>829</ele>
        <time>2012-09-15T07:50:56Z</time>
      </trkpt>
      <trkpt lat="45.83212" lon="3.01122">
        <ele>830</ele>
        <time>2012-09-15T07:50:58Z</time>
      </trkpt>
      <trkpt lat="45.8321" lon="3.01115">
        <ele>831</ele>
        <time>2012-09-15T07:51:00Z</time>
      </trkpt>
      <trkpt lat="45.83206" lon="3.01104">
        <ele>831</ele>
        <time>2012-09-15T07:51:03Z</time>
      </trkpt>
      <trkpt lat="45.83203" lon="3.01097">
        <ele>831</ele>
        <time>2012-09-15T07:51:05Z</time>
      </trkpt>
      <trkpt lat="45.832" lon="3.01089">
        <ele>832</ele>
        <time>2012-09-15T07:51:07Z</time>
      </trkpt>
      <trkpt lat="45.83197" lon="3.01078">
        <ele>832</ele>
        <time>2012-09-15T07:51:10Z</time>
      </trkpt>
      <trkpt lat="45.83194" lon="3.01069">
        <ele>833</ele>
        <time>2012-09-15T07:51:12Z</time>
      </trkpt>
      <trkpt lat="45.83192" lon="3.01062">
        <ele>833</ele>
        <time>2012-09-15T07:51:14Z</time>
      </trkpt>
      <trkpt lat="45.83189" lon="3.01053">
        <ele>833</ele>
        <time>2012-09-15T07:51:16Z</time>
      </trkpt>
      <trkpt lat="45.83186" lon="3.01041">
        <ele>834</ele>
        <time>2012-09-15T07:51:19Z</time>
      </trkpt>
      <trkpt lat="45.83182" lon="3.01029">
        <ele>835</ele>
        <time>2012-09-15T07:51:22Z</time>
      </trkpt>
      <trkpt lat="45.8318" lon="3.01021">
        <ele>835</ele>
        <time>2012-09-15T07:51:24Z</time>
      </trkpt>
      <trkpt lat="45.83178" lon="3.01013">
        <ele>835</ele>
        <time>2012-09-15T07:51:26Z</time>
      </trkpt>
      <trkpt lat="45.83175" lon="3.01005">
        <ele>836</ele>
        <time>2012-09-15T07:51:28Z</time>
      </trkpt>
      <trkpt lat="45.83173" lon="3.00997">
        <ele>836</ele>
        <time>2012-09-15T07:51:30Z</time>
      </trkpt>
      <trkpt lat="45.8317" lon="3.00989">
        <ele>837</ele>
        <time>2012-09-15T07:51:32Z</time>
      </trkpt>
      <trkpt lat="45.83168" lon="3.0098">
        <ele>837</ele>
        <time>2012-09-15T07:51:34Z</time>
      </trkpt>
      <trkpt lat="45.83165" lon="3.00968">
        <ele>838</ele>
        <time>2012-09-15T07:51:37Z</time>
      </trkpt>
      <trkpt lat="45.83163" lon="3.00959">
        <ele>838</ele>
        <time>2012-09-15T07:51:39Z</time>
      </trkpt>
      <trkpt lat="45.8316" lon="3.00951">
        <ele>838</ele>
        <time>2012-09-15T07:51:41Z</time>
      </trkpt>
      <trkpt lat="45.83158" lon="3.00942">
        <ele>838</ele>
        <time>2012-09-15T07:51:43Z</time>
      </trkpt>
      <trkpt lat="45.83154" lon="3.00929">
        <ele>839</ele>
        <time>2012-09-15T07:51:46Z</time>
      </trkpt>
      <trkpt lat="45.8315" lon="3.00916">
        <ele>839</ele>
        <time>2012-09-15T07:51:48Z</time>
      </trkpt>
      <trkpt lat="45.83147" lon="3.00906">
        <ele>840</ele>
        <time>2012-09-15T07:51:51Z</time>
      </trkpt>
      <trkpt lat="45.83141" lon="3.00887">
        <ele>840</ele>
        <time>2012-09-15T07:51:55Z</time>
      </trkpt>
      <trkpt lat="45.83141" lon="3.00879">
        <ele>840</ele>
        <time>2012-09-15T07:51:57Z</time>
      </trkpt>
      <trkpt lat="45.83139" lon="3.00867">
        <ele>840</ele>
        <time>2012-09-15T07:52:00Z</time>
      </trkpt>
      <trkpt lat="45.83137" lon="3.00857">
        <ele>841</ele>
        <time>2012-09-15T07:52:02Z</time>
      </trkpt>
      <trkpt lat="45.83134" lon="3.00847">
        <ele>841</ele>
        <time>2012-09-15T07:52:04Z</time>
      </trkpt>
      <trkpt lat="45.83128" lon="3.00817">
        <ele>841</ele>
        <time>2012-09-15T07:52:09Z</time>
      </trkpt>
      <trkpt lat="45.83126" lon="3.00804">
        <ele>841</ele>
        <time>2012-09-15T07:52:11Z</time>
      </trkpt>
      <trkpt lat="45.83123" lon="3.00785">
        <ele>842</ele>
        <time>2012-09-15T07:52:14Z</time>
      </trkpt>
      <trkpt lat="45.8312" lon="3.00764">
        <ele>842</ele>
        <time>2012-09-15T07:52:16Z</time>
      </trkpt>
      <trkpt lat="45.83118" lon="3.0075">
        <ele>842</ele>
        <time>2012-09-15T07:52:19Z</time>
      </trkpt>
      <trkpt lat="45.83118" lon="3.00736">
        <ele>842</ele>
        <time>2012-09-15T07:52:21Z</time>
      </trkpt>
      <trkpt lat="45.83117" lon="3.00721">
        <ele>842</ele>
        <time>2012-09-15T07:52:23Z</time>
      </trkpt>
      <trkpt lat="45.83116" lon="3.00708">
        <ele>842</ele>
        <time>2012-09-15T07:52:25Z</time>
      </trkpt>
      <trkpt lat="45.83116" lon="3.00695">
        <ele>842</ele>
        <time>2012-09-15T07:52:27Z</time>
      </trkpt>
      <trkpt lat="45.83117" lon="3.00681">
        <ele>842</ele>
        <time>2012-09-15T07:52:29Z</time>
      </trkpt>
      <trkpt lat="45.83117" lon="3.00667">
        <ele>842</ele>
        <time>2012-09-15T07:52:31Z</time>
      </trkpt>
      <trkpt lat="45.83113" lon="3.00646">
        <ele>842</ele>
        <time>2012-09-15T07:52:33Z</time>
      </trkpt>
      <trkpt lat="45.83111" lon="3.00632">
        <ele>842</ele>
        <time>2012-09-15T07:52:35Z</time>
      </trkpt>
      <trkpt lat="45.83109" lon="3.00618">
        <ele>842</ele>
        <time>2012-09-15T07:52:37Z</time>
      </trkpt>
      <trkpt lat="45.83107" lon="3.00606">
        <ele>842</ele>
        <time>2012-09-15T07:52:39Z</time>
      </trkpt>
      <trkpt lat="45.83105" lon="3.00593">
        <ele>842</ele>
        <time>2012-09-15T07:52:42Z</time>
      </trkpt>
      <trkpt lat="45.83101" lon="3.00575">
        <ele>842</ele>
        <time>2012-09-15T07:52:44Z</time>
      </trkpt>
      <trkpt lat="45.83098" lon="3.00563">
        <ele>842</ele>
        <time>2012-09-15T07:52:47Z</time>
      </trkpt>
      <trkpt lat="45.83091" lon="3.00545">
        <ele>842</ele>
        <time>2012-09-15T07:52:49Z</time>
      </trkpt>
      <trkpt lat="45.83085" lon="3.00534">
        <ele>842</ele>
        <time>2012-09-15T07:52:52Z</time>
      </trkpt>
      <trkpt lat="45.83078" lon="3.00517">
        <ele>842</ele>
        <time>2012-09-15T07:52:54Z</time>
      </trkpt>
      <trkpt lat="45.83072" lon="3.00504">
        <ele>842</ele>
        <time>2012-09-15T07:52:57Z</time>
      </trkpt>
      <trkpt lat="45.83063" lon="3.00486">
        <ele>842</ele>
        <time>2012-09-15T07:52:59Z</time>
      </trkpt>
      <trkpt lat="45.83057" lon="3.00475">
        <ele>842</ele>
        <time>2012-09-15T07:53:02Z</time>
      </trkpt>
      <trkpt lat="45.83049" lon="3.00459">
        <ele>843</ele>
        <time>2012-09-15T07:53:04Z</time>
      </trkpt>
      <trkpt lat="45.83044" lon="3.00448">
        <ele>843</ele>
        <time>2012-09-15T07:53:07Z</time>
      </trkpt>
      <trkpt lat="45.83035" lon="3.00433">
        <ele>844</ele>
        <time>2012-09-15T07:53:09Z</time>
      </trkpt>
      <trkpt lat="45.83029" lon="3.00423">
        <ele>844</ele>
        <time>2012-09-15T07:53:11Z</time>
      </trkpt>
      <trkpt lat="45.83024" lon="3.00413">
        <ele>845</ele>
        <time>2012-09-15T07:53:13Z</time>
      </trkpt>
      <trkpt lat="45.83019" lon="3.00404">
        <ele>845</ele>
        <time>2012-09-15T07:53:15Z</time>
      </trkpt>
      <trkpt lat="45.83013" lon="3.00395">
        <ele>845</ele>
        <time>2012-09-15T07:53:18Z</time>
      </trkpt>
      <trkpt lat="45.83008" lon="3.00385">
        <ele>845</ele>
        <time>2012-09-15T07:53:20Z</time>
      </trkpt>
      <trkpt lat="45.82999" lon="3.00371">
        <ele>845</ele>
        <time>2012-09-15T07:53:23Z</time>
      </trkpt>
      <trkpt lat="45.8299" lon="3.00357">
        <ele>845</ele>
        <time>2012-09-15T07:53:25Z</time>
      </trkpt>
      <trkpt lat="45.82983" lon="3.00347">
        <ele>845</ele>
        <time>2012-09-15T07:53:28Z</time>
      </trkpt>
      <trkpt lat="45.82973" lon="3.00333">
        <ele>847</ele>
        <time>2012-09-15T07:53:30Z</time>
      </trkpt>
      <trkpt lat="45.82968" lon="3.00324">
        <ele>849</ele>
        <time>2012-09-15T07:53:33Z</time>
      </trkpt>
      <trkpt lat="45.8296" lon="3.00311">
        <ele>850</ele>
        <time>2012-09-15T07:53:35Z</time>
      </trkpt>
      <trkpt lat="45.82955" lon="3.00303">
        <ele>850</ele>
        <time>2012-09-15T07:53:38Z</time>
      </trkpt>
      <trkpt lat="45.82947" lon="3.00291">
        <ele>850</ele>
        <time>2012-09-15T07:53:40Z</time>
      </trkpt>
      <trkpt lat="45.82942" lon="3.00283">
        <ele>850</ele>
        <time>2012-09-15T07:53:43Z</time>
      </trkpt>
      <trkpt lat="45.82935" lon="3.0027">
        <ele>850</ele>
        <time>2012-09-15T07:53:45Z</time>
      </trkpt>
      <trkpt lat="45.82929" lon="3.00262">
        <ele>851</ele>
        <time>2012-09-15T07:53:48Z</time>
      </trkpt>
      <trkpt lat="45.82923" lon="3.00249">
        <ele>851</ele>
        <time>2012-09-15T07:53:50Z</time>
      </trkpt>
      <trkpt lat="45.82919" lon="3.0024">
        <ele>852</ele>
        <time>2012-09-15T07:53:53Z</time>
      </trkpt>
      <trkpt lat="45.82913" lon="3.00227">
        <ele>852</ele>
        <time>2012-09-15T07:53:55Z</time>
      </trkpt>
      <trkpt lat="45.82909" lon="3.00219">
        <ele>852</ele>
        <time>2012-09-15T07:53:58Z</time>
      </trkpt>
      <trkpt lat="45.82905" lon="3.00206">
        <ele>852</ele>
        <time>2012-09-15T07:54:01Z</time>
      </trkpt>
      <trkpt lat="45.82901" lon="3.00197">
        <ele>852</ele>
        <time>2012-09-15T07:54:03Z</time>
      </trkpt>
      <trkpt lat="45.82896" lon="3.00183">
        <ele>853</ele>
        <time>2012-09-15T07:54:05Z</time>
      </trkpt>
      <trkpt lat="45.82893" lon="3.00174">
        <ele>853</ele>
        <time>2012-09-15T07:54:08Z</time>
      </trkpt>
      <trkpt lat="45.82888" lon="3.0016">
        <ele>854</ele>
        <time>2012-09-15T07:54:10Z</time>
      </trkpt>
      <trkpt lat="45.82885" lon="3.00151">
        <ele>855</ele>
        <time>2012-09-15T07:54:12Z</time>
      </trkpt>
      <trkpt lat="45.82882" lon="3.00142">
        <ele>855</ele>
        <time>2012-09-15T07:54:14Z</time>
      </trkpt>
      <trkpt lat="45.82878" lon="3.00133">
        <ele>855</ele>
        <time>2012-09-15T07:54:16Z</time>
      </trkpt>
      <trkpt lat="45.82875" lon="3.00124">
        <ele>856</ele>
        <time>2012-09-15T07:54:18Z</time>
      </trkpt>
      <trkpt lat="45.82872" lon="3.00116">
        <ele>856</ele>
        <time>2012-09-15T07:54:20Z</time>
      </trkpt>
      <trkpt lat="45.82869" lon="3.00108">
        <ele>856</ele>
        <time>2012-09-15T07:54:23Z</time>
      </trkpt>
      <trkpt lat="45.82865" lon="3.00095">
        <ele>856</ele>
        <time>2012-09-15T07:54:25Z</time>
      </trkpt>
      <trkpt lat="45.82862" lon="3.00087">
        <ele>856</ele>
        <time>2012-09-15T07:54:27Z</time>
      </trkpt>
      <trkpt lat="45.82859" lon="3.00078">
        <ele>856</ele>
        <time>2012-09-15T07:54:29Z</time>
      </trkpt>
      <trkpt lat="45.82855" lon="3.0007">
        <ele>856</ele>
        <time>2012-09-15T07:54:31Z</time>
      </trkpt>
      <trkpt lat="45.82851" lon="3.00062">
        <ele>856</ele>
        <time>2012-09-15T07:54:33Z</time>
      </trkpt>
      <trkpt lat="45.82848" lon="3.00055">
        <ele>857</ele>
        <time>2012-09-15T07:54:35Z</time>
      </trkpt>
      <trkpt lat="45.82845" lon="3.00047">
        <ele>858</ele>
        <time>2012-09-15T07:54:37Z</time>
      </trkpt>
      <trkpt lat="45.82842" lon="3.0004">
        <ele>859</ele>
        <time>2012-09-15T07:54:39Z</time>
      </trkpt>
      <trkpt lat="45.82839" lon="3.00033">
        <ele>860</ele>
        <time>2012-09-15T07:54:41Z</time>
      </trkpt>
      <trkpt lat="45.82836" lon="3.00026">
        <ele>861</ele>
        <time>2012-09-15T07:54:43Z</time>
      </trkpt>
      <trkpt lat="45.82833" lon="3.0002">
        <ele>861</ele>
        <time>2012-09-15T07:54:45Z</time>
      </trkpt>
      <trkpt lat="45.82831" lon="3.00014">
        <ele>862</ele>
        <time>2012-09-15T07:54:47Z</time>
      </trkpt>
      <trkpt lat="45.82828" lon="3.00008">
        <ele>862</ele>
        <time>2012-09-15T07:54:49Z</time>
      </trkpt>
      <trkpt lat="45.82826" lon="3.00002">
        <ele>863</ele>
        <time>2012-09-15T07:54:51Z</time>
      </trkpt>
      <trkpt lat="45.82823" lon="2.99996">
        <ele>863</ele>
        <time>2012-09-15T07:54:53Z</time>
      </trkpt>
      <trkpt lat="45.82821" lon="2.99991">
        <ele>864</ele>
        <time>2012-09-15T07:54:55Z</time>
      </trkpt>
      <trkpt lat="45.82819" lon="2.99985">
        <ele>865</ele>
        <time>2012-09-15T07:54:57Z</time>
      </trkpt>
      <trkpt lat="45.82816" lon="2.99981">
        <ele>866</ele>
        <time>2012-09-15T07:54:59Z</time>
      </trkpt>
      <trkpt lat="45.82814" lon="2.99976">
        <ele>867</ele>
        <time>2012-09-15T07:55:01Z</time>
      </trkpt>
      <trkpt lat="45.82812" lon="2.99972">
        <ele>868</ele>
        <time>2012-09-15T07:55:03Z</time>
      </trkpt>
      <trkpt lat="45.82809" lon="2.99968">
        <ele>868</ele>
        <time>2012-09-15T07:55:05Z</time>
      </trkpt>
      <trkpt lat="45.82804" lon="2.99964">
        <ele>868</ele>
        <time>2012-09-15T07:55:07Z</time>
      </trkpt>
      <trkpt lat="45.82801" lon="2.9996">
        <ele>869</ele>
        <time>2012-09-15T07:55:09Z</time>
      </trkpt>
      <trkpt lat="45.82797" lon="2.99956">
        <ele>869</ele>
        <time>2012-09-15T07:55:11Z</time>
      </trkpt>
      <trkpt lat="45.82794" lon="2.99952">
        <ele>870</ele>
        <time>2012-09-15T07:55:13Z</time>
      </trkpt>
      <trkpt lat="45.8279" lon="2.99949">
        <ele>870</ele>
        <time>2012-09-15T07:55:15Z</time>
      </trkpt>
      <trkpt lat="45.82787" lon="2.99944">
        <ele>870</ele>
        <time>2012-09-15T07:55:18Z</time>
      </trkpt>
      <trkpt lat="45.82781" lon="2.99939">
        <ele>871</ele>
        <time>2012-09-15T07:55:20Z</time>
      </trkpt>
      <trkpt lat="45.82777" lon="2.99934">
        <ele>871</ele>
        <time>2012-09-15T07:55:22Z</time>
      </trkpt>
      <trkpt lat="45.82772" lon="2.9993">
        <ele>871</ele>
        <time>2012-09-15T07:55:24Z</time>
      </trkpt>
      <trkpt lat="45.82768" lon="2.99926">
        <ele>872</ele>
        <time>2012-09-15T07:55:26Z</time>
      </trkpt>
      <trkpt lat="45.82764" lon="2.99921">
        <ele>873</ele>
        <time>2012-09-15T07:55:28Z</time>
      </trkpt>
      <trkpt lat="45.82761" lon="2.99917">
        <ele>874</ele>
        <time>2012-09-15T07:55:30Z</time>
      </trkpt>
      <trkpt lat="45.82757" lon="2.99912">
        <ele>875</ele>
        <time>2012-09-15T07:55:32Z</time>
      </trkpt>
      <trkpt lat="45.82752" lon="2.99907">
        <ele>875</ele>
        <time>2012-09-15T07:55:34Z</time>
      </trkpt>
      <trkpt lat="45.82747" lon="2.99902">
        <ele>876</ele>
        <time>2012-09-15T07:55:36Z</time>
      </trkpt>
      <trkpt lat="45.82743" lon="2.99897">
        <ele>876</ele>
        <time>2012-09-15T07:55:38Z</time>
      </trkpt>
      <trkpt lat="45.82738" lon="2.99892">
        <ele>876</ele>
        <time>2012-09-15T07:55:40Z</time>
      </trkpt>
      <trkpt lat="45.82734" lon="2.99888">
        <ele>876</ele>
        <time>2012-09-15T07:55:42Z</time>
      </trkpt>
      <trkpt lat="45.82731" lon="2.99884">
        <ele>876</ele>
        <time>2012-09-15T07:55:44Z</time>
      </trkpt>
      <trkpt lat="45.82729" lon="2.99879">
        <ele>876</ele>
        <time>2012-09-15T07:55:46Z</time>
      </trkpt>
      <trkpt lat="45.82727" lon="2.99873">
        <ele>876</ele>
        <time>2012-09-15T07:55:48Z</time>
      </trkpt>
      <trkpt lat="45.82724" lon="2.99868">
        <ele>876</ele>
        <time>2012-09-15T07:55:50Z</time>
      </trkpt>
      <trkpt lat="45.82722" lon="2.99863">
        <ele>876</ele>
        <time>2012-09-15T07:55:52Z</time>
      </trkpt>
      <trkpt lat="45.8272" lon="2.99858">
        <ele>876</ele>
        <time>2012-09-15T07:55:54Z</time>
      </trkpt>
      <trkpt lat="45.82716" lon="2.99853">
        <ele>876</ele>
        <time>2012-09-15T07:55:56Z</time>
      </trkpt>
      <trkpt lat="45.82713" lon="2.99848">
        <ele>876</ele>
        <time>2012-09-15T07:55:58Z</time>
      </trkpt>
      <trkpt lat="45.82711" lon="2.99844">
        <ele>876</ele>
        <time>2012-09-15T07:56:01Z</time>
      </trkpt>
      <trkpt lat="45.82708" lon="2.9984">
        <ele>876</ele>
        <time>2012-09-15T07:56:03Z</time>
      </trkpt>
      <trkpt lat="45.82703" lon="2.99832">
        <ele>876</ele>
        <time>2012-09-15T07:56:05Z</time>
      </trkpt>
      <trkpt lat="45.82701" lon="2.99825">
        <ele>876</ele>
        <time>2012-09-15T07:56:08Z</time>
      </trkpt>
      <trkpt lat="45.82697" lon="2.99814">
        <ele>876</ele>
        <time>2012-09-15T07:56:10Z</time>
      </trkpt>
      <trkpt lat="45.82693" lon="2.99804">
        <ele>876</ele>
        <time>2012-09-15T07:56:13Z</time>
      </trkpt>
      <trkpt lat="45.82686" lon="2.99793">
        <ele>876</ele>
        <time>2012-09-15T07:56:15Z</time>
      </trkpt>
      <trkpt lat="45.82682" lon="2.99783">
        <ele>876</ele>
        <time>2012-09-15T07:56:18Z</time>
      </trkpt>
      <trkpt lat="45.82675" lon="2.9977">
        <ele>876</ele>
        <time>2012-09-15T07:56:20Z</time>
      </trkpt>
      <trkpt lat="45.82671" lon="2.99762">
        <ele>876</ele>
        <time>2012-09-15T07:56:22Z</time>
      </trkpt>
      <trkpt lat="45.82667" lon="2.99753">
        <ele>876</ele>
        <time>2012-09-15T07:56:24Z</time>
      </trkpt>
      <trkpt lat="45.82664" lon="2.99745">
        <ele>876</ele>
        <time>2012-09-15T07:56:26Z</time>
      </trkpt>
      <trkpt lat="45.82661" lon="2.99737">
        <ele>876</ele>
        <time>2012-09-15T07:56:28Z</time>
      </trkpt>
      <trkpt lat="45.82658" lon="2.99729">
        <ele>876</ele>
        <time>2012-09-15T07:56:30Z</time>
      </trkpt>
      <trkpt lat="45.82654" lon="2.9972">
        <ele>876</ele>
        <time>2012-09-15T07:56:32Z</time>
      </trkpt>
      <trkpt lat="45.82651" lon="2.99711">
        <ele>876</ele>
        <time>2012-09-15T07:56:34Z</time>
      </trkpt>
      <trkpt lat="45.82647" lon="2.99702">
        <ele>876</ele>
        <time>2012-09-15T07:56:36Z</time>
      </trkpt>
      <trkpt lat="45.82645" lon="2.99693">
        <ele>876</ele>
        <time>2012-09-15T07:56:38Z</time>
      </trkpt>
      <trkpt lat="45.82642" lon="2.99683">
        <ele>876</ele>
        <time>2012-09-15T07:56:40Z</time>
      </trkpt>
      <trkpt lat="45.82639" lon="2.99674">
        <ele>876</ele>
        <time>2012-09-15T07:56:42Z</time>
      </trkpt>
      <trkpt lat="45.82637" lon="2.99664">
        <ele>876</ele>
        <time>2012-09-15T07:56:44Z</time>
      </trkpt>
      <trkpt lat="45.82634" lon="2.99655">
        <ele>876</ele>
        <time>2012-09-15T07:56:46Z</time>
      </trkpt>
      <trkpt lat="45.82632" lon="2.99645">
        <ele>876</ele>
        <time>2012-09-15T07:56:48Z</time>
      </trkpt>
      <trkpt lat="45.8263" lon="2.99635">
        <ele>876</ele>
        <time>2012-09-15T07:56:50Z</time>
      </trkpt>
      <trkpt lat="45.82628" lon="2.99625">
        <ele>876</ele>
        <time>2012-09-15T07:56:53Z</time>
      </trkpt>
      <trkpt lat="45.82625" lon="2.99609">
        <ele>876</ele>
        <time>2012-09-15T07:56:55Z</time>
      </trkpt>
      <trkpt lat="45.82623" lon="2.99599">
        <ele>876</ele>
        <time>2012-09-15T07:56:58Z</time>
      </trkpt>
      <trkpt lat="45.8262" lon="2.99583">
        <ele>876</ele>
        <time>2012-09-15T07:57:01Z</time>
      </trkpt>
      <trkpt lat="45.82618" lon="2.99573">
        <ele>876</ele>
        <time>2012-09-15T07:57:03Z</time>
      </trkpt>
      <trkpt lat="45.82614" lon="2.99559">
        <ele>876</ele>
        <time>2012-09-15T07:57:05Z</time>
      </trkpt>
      <trkpt lat="45.82613" lon="2.99549">
        <ele>876</ele>
        <time>2012-09-15T07:57:08Z</time>
      </trkpt>
      <trkpt lat="45.8261" lon="2.99535">
        <ele>876</ele>
        <time>2012-09-15T07:57:10Z</time>
      </trkpt>
      <trkpt lat="45.82608" lon="2.99524">
        <ele>876</ele>
        <time>2012-09-15T07:57:13Z</time>
      </trkpt>
      <trkpt lat="45.82606" lon="2.9951">
        <ele>876</ele>
        <time>2012-09-15T07:57:15Z</time>
      </trkpt>
      <trkpt lat="45.82604" lon="2.995">
        <ele>876</ele>
        <time>2012-09-15T07:57:17Z</time>
      </trkpt>
      <trkpt lat="45.82602" lon="2.9949">
        <ele>877</ele>
        <time>2012-09-15T07:57:19Z</time>
      </trkpt>
      <trkpt lat="45.826" lon="2.9948">
        <ele>877</ele>
        <time>2012-09-15T07:57:21Z</time>
      </trkpt>
      <trkpt lat="45.82597" lon="2.9947">
        <ele>878</ele>
        <time>2012-09-15T07:57:24Z</time>
      </trkpt>
      <trkpt lat="45.82592" lon="2.9946">
        <ele>878</ele>
        <time>2012-09-15T07:57:26Z</time>
      </trkpt>
      <trkpt lat="45.82586" lon="2.99458">
        <ele>879</ele>
        <time>2012-09-15T07:57:29Z</time>
      </trkpt>
      <trkpt lat="45.82574" lon="2.9946">
        <ele>879</ele>
        <time>2012-09-15T07:57:31Z</time>
      </trkpt>
      <trkpt lat="45.82567" lon="2.99462">
        <ele>880</ele>
        <time>2012-09-15T07:57:34Z</time>
      </trkpt>
      <trkpt lat="45.82556" lon="2.99465">
        <ele>880</ele>
        <time>2012-09-15T07:57:36Z</time>
      </trkpt>
      <trkpt lat="45.82549" lon="2.99467">
        <ele>881</ele>
        <time>2012-09-15T07:57:39Z</time>
      </trkpt>
      <trkpt lat="45.82538" lon="2.9947">
        <ele>882</ele>
        <time>2012-09-15T07:57:41Z</time>
      </trkpt>
      <trkpt lat="45.82531" lon="2.99472">
        <ele>883</ele>
        <time>2012-09-15T07:57:44Z</time>
      </trkpt>
      <trkpt lat="45.8252" lon="2.99475">
        <ele>884</ele>
        <time>2012-09-15T07:57:46Z</time>
      </trkpt>
      <trkpt lat="45.82512" lon="2.99477">
        <ele>884</ele>
        <time>2012-09-15T07:57:48Z</time>
      </trkpt>
      <trkpt lat="45.82505" lon="2.9948">
        <ele>885</ele>
        <time>2012-09-15T07:57:50Z</time>
      </trkpt>
      <trkpt lat="45.82499" lon="2.99481">
        <ele>885</ele>
        <time>2012-09-15T07:57:52Z</time>
      </trkpt>
      <trkpt lat="45.82492" lon="2.99483">
        <ele>886</ele>
        <time>2012-09-15T07:57:54Z</time>
      </trkpt>
      <trkpt lat="45.82485" lon="2.99484">
        <ele>886</ele>
        <time>2012-09-15T07:57:56Z</time>
      </trkpt>
      <trkpt lat="45.82478" lon="2.99486">
        <ele>887</ele>
        <time>2012-09-15T07:57:59Z</time>
      </trkpt>
      <trkpt lat="45.82471" lon="2.99488">
        <ele>888</ele>
        <time>2012-09-15T07:58:01Z</time>
      </trkpt>
      <trkpt lat="45.82461" lon="2.9949">
        <ele>888</ele>
        <time>2012-09-15T07:58:03Z</time>
      </trkpt>
      <trkpt lat="45.82454" lon="2.99492">
        <ele>888</ele>
        <time>2012-09-15T07:58:05Z</time>
      </trkpt>
      <trkpt lat="45.82448" lon="2.99493">
        <ele>888</ele>
        <time>2012-09-15T07:58:07Z</time>
      </trkpt>
      <trkpt lat="45.82441" lon="2.99494">
        <ele>889</ele>
        <time>2012-09-15T07:58:09Z</time>
      </trkpt>
      <trkpt lat="45.82433" lon="2.99496">
        <ele>889</ele>
        <time>2012-09-15T07:58:11Z</time>
      </trkpt>
      <trkpt lat="45.82427" lon="2.99497">
        <ele>889</ele>
        <time>2012-09-15T07:58:13Z</time>
      </trkpt>
      <trkpt lat="45.8242" lon="2.99499">
        <ele>890</ele>
        <time>2012-09-15T07:58:15Z</time>
      </trkpt>
      <trkpt lat="45.82414" lon="2.995">
        <ele>890</ele>
        <time>2012-09-15T07:58:17Z</time>
      </trkpt>
      <trkpt lat="45.82407" lon="2.99502">
        <ele>890</ele>
        <time>2012-09-15T07:58:19Z</time>
      </trkpt>
      <trkpt lat="45.824" lon="2.99503">
        <ele>890</ele>
        <time>2012-09-15T07:58:21Z</time>
      </trkpt>
      <trkpt lat="45.82394" lon="2.99503">
        <ele>890</ele>
        <time>2012-09-15T07:58:24Z</time>
      </trkpt>
      <trkpt lat="45.82383" lon="2.99501">
        <ele>891</ele>
        <time>2012-09-15T07:58:26Z</time>
      </trkpt>
      <trkpt lat="45.82375" lon="2.995">
        <ele>891</ele>
        <time>2012-09-15T07:58:29Z</time>
      </trkpt>
      <trkpt lat="45.82364" lon="2.99498">
        <ele>891</ele>
        <time>2012-09-15T07:58:31Z</time>
      </trkpt>
      <trkpt lat="45.82358" lon="2.99498">
        <ele>892</ele>
        <time>2012-09-15T07:58:34Z</time>
      </trkpt>
      <trkpt lat="45.82346" lon="2.99501">
        <ele>892</ele>
        <time>2012-09-15T07:58:36Z</time>
      </trkpt>
      <trkpt lat="45.82338" lon="2.99504">
        <ele>893</ele>
        <time>2012-09-15T07:58:39Z</time>
      </trkpt>
      <trkpt lat="45.82328" lon="2.99508">
        <ele>894</ele>
        <time>2012-09-15T07:58:41Z</time>
      </trkpt>
      <trkpt lat="45.82321" lon="2.9951">
        <ele>894</ele>
        <time>2012-09-15T07:58:44Z</time>
      </trkpt>
      <trkpt lat="45.8231" lon="2.99512">
        <ele>895</ele>
        <time>2012-09-15T07:58:46Z</time>
      </trkpt>
      <trkpt lat="45.82303" lon="2.99513">
        <ele>895</ele>
        <time>2012-09-15T07:58:49Z</time>
      </trkpt>
      <trkpt lat="45.82292" lon="2.99514">
        <ele>896</ele>
        <time>2012-09-15T07:58:51Z</time>
      </trkpt>
      <trkpt lat="45.82285" lon="2.99514">
        <ele>897</ele>
        <time>2012-09-15T07:58:53Z</time>
      </trkpt>
      <trkpt lat="45.82277" lon="2.99514">
        <ele>897</ele>
        <time>2012-09-15T07:58:55Z</time>
      </trkpt>
      <trkpt lat="45.82269" lon="2.99514">
        <ele>897</ele>
        <time>2012-09-15T07:58:57Z</time>
      </trkpt>
      <trkpt lat="45.82262" lon="2.99513">
        <ele>897</ele>
        <time>2012-09-15T07:58:59Z</time>
      </trkpt>
      <trkpt lat="45.82254" lon="2.99512">
        <ele>897</ele>
        <time>2012-09-15T07:59:01Z</time>
      </trkpt>
      <trkpt lat="45.82247" lon="2.99511">
        <ele>897</ele>
        <time>2012-09-15T07:59:03Z</time>
      </trkpt>
      <trkpt lat="45.82239" lon="2.99511">
        <ele>897</ele>
        <time>2012-09-15T07:59:05Z</time>
      </trkpt>
      <trkpt lat="45.82231" lon="2.99511">
        <ele>897</ele>
        <time>2012-09-15T07:59:07Z</time>
      </trkpt>
      <trkpt lat="45.82223" lon="2.99511">
        <ele>897</ele>
        <time>2012-09-15T07:59:09Z</time>
      </trkpt>
      <trkpt lat="45.82215" lon="2.9951">
        <ele>897</ele>
        <time>2012-09-15T07:59:11Z</time>
      </trkpt>
      <trkpt lat="45.82207" lon="2.99508">
        <ele>897</ele>
        <time>2012-09-15T07:59:13Z</time>
      </trkpt>
      <trkpt lat="45.82199" lon="2.99507">
        <ele>897</ele>
        <time>2012-09-15T07:59:15Z</time>
      </trkpt>
      <trkpt lat="45.82191" lon="2.99506">
        <ele>897</ele>
        <time>2012-09-15T07:59:17Z</time>
      </trkpt>
      <trkpt lat="45.82183" lon="2.99504">
        <ele>897</ele>
        <time>2012-09-15T07:59:19Z</time>
      </trkpt>
      <trkpt lat="45.82175" lon="2.99504">
        <ele>897</ele>
        <time>2012-09-15T07:59:21Z</time>
      </trkpt>
      <trkpt lat="45.82166" lon="2.99503">
        <ele>897</ele>
        <time>2012-09-15T07:59:23Z</time>
      </trkpt>
      <trkpt lat="45.82158" lon="2.99501">
        <ele>897</ele>
        <time>2012-09-15T07:59:25Z</time>
      </trkpt>
      <trkpt lat="45.8215" lon="2.99499">
        <ele>897</ele>
        <time>2012-09-15T07:59:27Z</time>
      </trkpt>
      <trkpt lat="45.82141" lon="2.99499">
        <ele>897</ele>
        <time>2012-09-15T07:59:29Z</time>
      </trkpt>
      <trkpt lat="45.82133" lon="2.99498">
        <ele>898</ele>
        <time>2012-09-15T07:59:31Z</time>
      </trkpt>
      <trkpt lat="45.82125" lon="2.99497">
        <ele>898</ele>
        <time>2012-09-15T07:59:33Z</time>
      </trkpt>
      <trkpt lat="45.82117" lon="2.99497">
        <ele>898</ele>
        <time>2012-09-15T07:59:35Z</time>
      </trkpt>
      <trkpt lat="45.82109" lon="2.99497">
        <ele>898</ele>
        <time>2012-09-15T07:59:37Z</time>
      </trkpt>
      <trkpt lat="45.821" lon="2.99499">
        <ele>898</ele>
        <time>2012-09-15T07:59:39Z</time>
      </trkpt>
      <trkpt lat="45.82092" lon="2.99501">
        <ele>898</ele>
        <time>2012-09-15T07:59:41Z</time>
      </trkpt>
      <trkpt lat="45.82082" lon="2.99503">
        <ele>898</ele>
        <time>2012-09-15T07:59:44Z</time>
      </trkpt>
      <trkpt lat="45.8207" lon="2.99504">
        <ele>898</ele>
        <time>2012-09-15T07:59:46Z</time>
      </trkpt>
      <trkpt lat="45.82062" lon="2.99503">
        <ele>898</ele>
        <time>2012-09-15T07:59:48Z</time>
      </trkpt>
      <trkpt lat="45.82055" lon="2.99502">
        <ele>899</ele>
        <time>2012-09-15T07:59:50Z</time>
      </trkpt>
      <trkpt lat="45.82047" lon="2.99503">
        <ele>899</ele>
        <time>2012-09-15T07:59:52Z</time>
      </trkpt>
      <trkpt lat="45.82039" lon="2.99504">
        <ele>899</ele>
        <time>2012-09-15T07:59:54Z</time>
      </trkpt>
      <trkpt lat="45.82031" lon="2.99505">
        <ele>900</ele>
        <time>2012-09-15T07:59:56Z</time>
      </trkpt>
      <trkpt lat="45.82022" lon="2.99504">
        <ele>900</ele>
        <time>2012-09-15T07:59:59Z</time>
      </trkpt>
      <trkpt lat="45.82014" lon="2.99502">
        <ele>900</ele>
        <time>2012-09-15T08:00:01Z</time>
      </trkpt>
      <trkpt lat="45.82003" lon="2.99498">
        <ele>900</ele>
        <time>2012-09-15T08:00:03Z</time>
      </trkpt>
      <trkpt lat="45.81995" lon="2.99495">
        <ele>900</ele>
        <time>2012-09-15T08:00:05Z</time>
      </trkpt>
      <trkpt lat="45.81987" lon="2.99492">
        <ele>900</ele>
        <time>2012-09-15T08:00:07Z</time>
      </trkpt>
      <trkpt lat="45.81979" lon="2.99488">
        <ele>900</ele>
        <time>2012-09-15T08:00:09Z</time>
      </trkpt>
      <trkpt lat="45.81971" lon="2.99485">
        <ele>900</ele>
        <time>2012-09-15T08:00:11Z</time>
      </trkpt>
      <trkpt lat="45.81963" lon="2.99483">
        <ele>900</ele>
        <time>2012-09-15T08:00:13Z</time>
      </trkpt>
      <trkpt lat="45.81955" lon="2.99481">
        <ele>900</ele>
        <time>2012-09-15T08:00:15Z</time>
      </trkpt>
      <trkpt lat="45.81946" lon="2.99479">
        <ele>900</ele>
        <time>2012-09-15T08:00:17Z</time>
      </trkpt>
      <trkpt lat="45.81938" lon="2.99477">
        <ele>900</ele>
        <time>2012-09-15T08:00:19Z</time>
      </trkpt>
      <trkpt lat="45.81929" lon="2.99474">
        <ele>900</ele>
        <time>2012-09-15T08:00:21Z</time>
      </trkpt>
      <trkpt lat="45.81921" lon="2.9947">
        <ele>900</ele>
        <time>2012-09-15T08:00:23Z</time>
      </trkpt>
      <trkpt lat="45.81913" lon="2.99466">
        <ele>900</ele>
        <time>2012-09-15T08:00:25Z</time>
      </trkpt>
      <trkpt lat="45.81905" lon="2.99462">
        <ele>900</ele>
        <time>2012-09-15T08:00:27Z</time>
      </trkpt>
      <trkpt lat="45.81897" lon="2.99458">
        <ele>900</ele>
        <time>2012-09-15T08:00:30Z</time>
      </trkpt>
      <trkpt lat="45.81884" lon="2.99454">
        <ele>900</ele>
        <time>2012-09-15T08:00:32Z</time>
      </trkpt>
      <trkpt lat="45.81875" lon="2.99452">
        <ele>900</ele>
        <time>2012-09-15T08:00:35Z</time>
      </trkpt>
      <trkpt lat="45.81863" lon="2.99448">
        <ele>900</ele>
        <time>2012-09-15T08:00:37Z</time>
      </trkpt>
      <trkpt lat="45.81855" lon="2.99445">
        <ele>900</ele>
        <time>2012-09-15T08:00:39Z</time>
      </trkpt>
      <trkpt lat="45.81847" lon="2.99442">
        <ele>900</ele>
        <time>2012-09-15T08:00:41Z</time>
      </trkpt>
      <trkpt lat="45.81838" lon="2.99441">
        <ele>900</ele>
        <time>2012-09-15T08:00:43Z</time>
      </trkpt>
      <trkpt lat="45.81829" lon="2.9944">
        <ele>900</ele>
        <time>2012-09-15T08:00:45Z</time>
      </trkpt>
      <trkpt lat="45.8182" lon="2.99438">
        <ele>900</ele>
        <time>2012-09-15T08:00:47Z</time>
      </trkpt>
      <trkpt lat="45.81812" lon="2.99436">
        <ele>900</ele>
        <time>2012-09-15T08:00:49Z</time>
      </trkpt>
      <trkpt lat="45.81803" lon="2.99435">
        <ele>900</ele>
        <time>2012-09-15T08:00:51Z</time>
      </trkpt>
      <trkpt lat="45.81794" lon="2.99433">
        <ele>900</ele>
        <time>2012-09-15T08:00:53Z</time>
      </trkpt>
      <trkpt lat="45.81786" lon="2.99432">
        <ele>900</ele>
        <time>2012-09-15T08:00:55Z</time>
      </trkpt>
      <trkpt lat="45.81778" lon="2.99431">
        <ele>900</ele>
        <time>2012-09-15T08:00:57Z</time>
      </trkpt>
      <trkpt lat="45.8177" lon="2.9943">
        <ele>900</ele>
        <time>2012-09-15T08:00:59Z</time>
      </trkpt>
      <trkpt lat="45.81763" lon="2.99429">
        <ele>900</ele>
        <time>2012-09-15T08:01:01Z</time>
      </trkpt>
      <trkpt lat="45.81755" lon="2.99429">
        <ele>900</ele>
        <time>2012-09-15T08:01:03Z</time>
      </trkpt>
      <trkpt lat="45.81749" lon="2.99428">
        <ele>900</ele>
        <time>2012-09-15T08:01:05Z</time>
      </trkpt>
      <trkpt lat="45.81742" lon="2.99427">
        <ele>900</ele>
        <time>2012-09-15T08:01:07Z</time>
      </trkpt>
      <trkpt lat="45.81736" lon="2.99426">
        <ele>900</ele>
        <time>2012-09-15T08:01:09Z</time>
      </trkpt>
      <trkpt lat="45.81731" lon="2.99424">
        <ele>902</ele>
        <time>2012-09-15T08:01:11Z</time>
      </trkpt>
      <trkpt lat="45.81726" lon="2.99421">
        <ele>903</ele>
        <time>2012-09-15T08:01:13Z</time>
      </trkpt>
      <trkpt lat="45.81721" lon="2.99417">
        <ele>903</ele>
        <time>2012-09-15T08:01:15Z</time>
      </trkpt>
      <trkpt lat="45.81716" lon="2.99413">
        <ele>904</ele>
        <time>2012-09-15T08:01:17Z</time>
      </trkpt>
      <trkpt lat="45.8171" lon="2.99412">
        <ele>904</ele>
        <time>2012-09-15T08:01:19Z</time>
      </trkpt>
      <trkpt lat="45.81704" lon="2.99411">
        <ele>904</ele>
        <time>2012-09-15T08:01:21Z</time>
      </trkpt>
      <trkpt lat="45.81698" lon="2.9941">
        <ele>904</ele>
        <time>2012-09-15T08:01:23Z</time>
      </trkpt>
      <trkpt lat="45.81691" lon="2.99409">
        <ele>904</ele>
        <time>2012-09-15T08:01:25Z</time>
      </trkpt>
      <trkpt lat="45.81685" lon="2.99408">
        <ele>904</ele>
        <time>2012-09-15T08:01:27Z</time>
      </trkpt>
      <trkpt lat="45.81679" lon="2.99408">
        <ele>904</ele>
        <time>2012-09-15T08:01:29Z</time>
      </trkpt>
      <trkpt lat="45.81674" lon="2.99407">
        <ele>904</ele>
        <time>2012-09-15T08:01:31Z</time>
      </trkpt>
      <trkpt lat="45.81669" lon="2.99406">
        <ele>904</ele>
        <time>2012-09-15T08:01:33Z</time>
      </trkpt>
      <trkpt lat="45.81663" lon="2.99405">
        <ele>904</ele>
        <time>2012-09-15T08:01:35Z</time>
      </trkpt>
      <trkpt lat="45.81657" lon="2.99405">
        <ele>904</ele>
        <time>2012-09-15T08:01:37Z</time>
      </trkpt>
      <trkpt lat="45.81652" lon="2.99406">
        <ele>904</ele>
        <time>2012-09-15T08:01:39Z</time>
      </trkpt>
      <trkpt lat="45.81645" lon="2.99405">
        <ele>904</ele>
        <time>2012-09-15T08:01:41Z</time>
      </trkpt>
      <trkpt lat="45.81639" lon="2.99405">
        <ele>904</ele>
        <time>2012-09-15T08:01:43Z</time>
      </trkpt>
      <trkpt lat="45.81633" lon="2.99404">
        <ele>904</ele>
        <time>2012-09-15T08:01:45Z</time>
      </trkpt>
      <trkpt lat="45.81627" lon="2.99405">
        <ele>904</ele>
        <time>2012-09-15T08:01:47Z</time>
      </trkpt>
      <trkpt lat="45.81622" lon="2.99405">
        <ele>904</ele>
        <time>2012-09-15T08:01:49Z</time>
      </trkpt>
      <trkpt lat="45.81615" lon="2.99405">
        <ele>904</ele>
        <time>2012-09-15T08:01:51Z</time>
      </trkpt>
      <trkpt lat="45.81609" lon="2.99405">
        <ele>905</ele>
        <time>2012-09-15T08:01:53Z</time>
      </trkpt>
      <trkpt lat="45.81604" lon="2.99406">
        <ele>906</ele>
        <time>2012-09-15T08:01:55Z</time>
      </trkpt>
      <trkpt lat="45.81598" lon="2.99407">
        <ele>907</ele>
        <time>2012-09-15T08:01:57Z</time>
      </trkpt>
      <trkpt lat="45.81592" lon="2.99408">
        <ele>907</ele>
        <time>2012-09-15T08:01:59Z</time>
      </trkpt>
      <trkpt lat="45.81586" lon="2.99409">
        <ele>908</ele>
        <time>2012-09-15T08:02:01Z</time>
      </trkpt>
      <trkpt lat="45.8158" lon="2.99409">
        <ele>908</ele>
        <time>2012-09-15T08:02:03Z</time>
      </trkpt>
      <trkpt lat="45.81574" lon="2.99408">
        <ele>909</ele>
        <time>2012-09-15T08:02:05Z</time>
      </trkpt>
      <trkpt lat="45.81568" lon="2.99408">
        <ele>910</ele>
        <time>2012-09-15T08:02:07Z</time>
      </trkpt>
      <trkpt lat="45.81562" lon="2.99407">
        <ele>910</ele>
        <time>2012-09-15T08:02:09Z</time>
      </trkpt>
      <trkpt lat="45.81557" lon="2.99407">
        <ele>911</ele>
        <time>2012-09-15T08:02:11Z</time>
      </trkpt>
      <trkpt lat="45.81552" lon="2.99406">
        <ele>911</ele>
        <time>2012-09-15T08:02:13Z</time>
      </trkpt>
      <trkpt lat="45.81546" lon="2.99404">
        <ele>912</ele>
        <time>2012-09-15T08:02:15Z</time>
      </trkpt>
      <trkpt lat="45.81539" lon="2.99403">
        <ele>913</ele>
        <time>2012-09-15T08:02:17Z</time>
      </trkpt>
      <trkpt lat="45.81534" lon="2.99401">
        <ele>914</ele>
        <time>2012-09-15T08:02:19Z</time>
      </trkpt>
      <trkpt lat="45.81528" lon="2.99399">
        <ele>914</ele>
        <time>2012-09-15T08:02:21Z</time>
      </trkpt>
      <trkpt lat="45.81522" lon="2.994">
        <ele>915</ele>
        <time>2012-09-15T08:02:23Z</time>
      </trkpt>
      <trkpt lat="45.81516" lon="2.994">
        <ele>916</ele>
        <time>2012-09-15T08:02:25Z</time>
      </trkpt>
      <trkpt lat="45.8151" lon="2.994">
        <ele>917</ele>
        <time>2012-09-15T08:02:27Z</time>
      </trkpt>
      <trkpt lat="45.81504" lon="2.99402">
        <ele>918</ele>
        <time>2012-09-15T08:02:29Z</time>
      </trkpt>
      <trkpt lat="45.81499" lon="2.99402">
        <ele>918</ele>
        <time>2012-09-15T08:02:31Z</time>
      </trkpt>
      <trkpt lat="45.81493" lon="2.99404">
        <ele>919</ele>
        <time>2012-09-15T08:02:33Z</time>
      </trkpt>
      <trkpt lat="45.81488" lon="2.99406">
        <ele>920</ele>
        <time>2012-09-15T08:02:35Z</time>
      </trkpt>
      <trkpt lat="45.81484" lon="2.99408">
        <ele>920</ele>
        <time>2012-09-15T08:02:37Z</time>
      </trkpt>
      <trkpt lat="45.8148" lon="2.99409">
        <ele>920</ele>
        <time>2012-09-15T08:02:39Z</time>
      </trkpt>
      <trkpt lat="45.81475" lon="2.9941">
        <ele>920</ele>
        <time>2012-09-15T08:02:41Z</time>
      </trkpt>
      <trkpt lat="45.81468" lon="2.99409">
        <ele>920</ele>
        <time>2012-09-15T08:02:43Z</time>
      </trkpt>
      <trkpt lat="45.81461" lon="2.99408">
        <ele>921</ele>
        <time>2012-09-15T08:02:45Z</time>
      </trkpt>
      <trkpt lat="45.81454" lon="2.99407">
        <ele>922</ele>
        <time>2012-09-15T08:02:47Z</time>
      </trkpt>
      <trkpt lat="45.81447" lon="2.99406">
        <ele>923</ele>
        <time>2012-09-15T08:02:49Z</time>
      </trkpt>
      <trkpt lat="45.81441" lon="2.99406">
        <ele>924</ele>
        <time>2012-09-15T08:02:51Z</time>
      </trkpt>
      <trkpt lat="45.81434" lon="2.99406">
        <ele>926</ele>
        <time>2012-09-15T08:02:53Z</time>
      </trkpt>
      <trkpt lat="45.81427" lon="2.99406">
        <ele>928</ele>
        <time>2012-09-15T08:02:55Z</time>
      </trkpt>
      <trkpt lat="45.81422" lon="2.99407">
        <ele>930</ele>
        <time>2012-09-15T08:02:57Z</time>
      </trkpt>
      <trkpt lat="45.81415" lon="2.99407">
        <ele>930</ele>
        <time>2012-09-15T08:02:59Z</time>
      </trkpt>
      <trkpt lat="45.81407" lon="2.99407">
        <ele>932</ele>
        <time>2012-09-15T08:03:01Z</time>
      </trkpt>
      <trkpt lat="45.814" lon="2.99409">
        <ele>934</ele>
        <time>2012-09-15T08:03:03Z</time>
      </trkpt>
      <trkpt lat="45.81394" lon="2.99411">
        <ele>936</ele>
        <time>2012-09-15T08:03:05Z</time>
      </trkpt>
      <trkpt lat="45.8139" lon="2.99412">
        <ele>938</ele>
        <time>2012-09-15T08:03:07Z</time>
      </trkpt>
      <trkpt lat="45.81384" lon="2.99413">
        <ele>940</ele>
        <time>2012-09-15T08:03:09Z</time>
      </trkpt>
      <trkpt lat="45.81379" lon="2.99414">
        <ele>940</ele>
        <time>2012-09-15T08:03:11Z</time>
      </trkpt>
      <trkpt lat="45.81374" lon="2.99415">
        <ele>940</ele>
        <time>2012-09-15T08:03:13Z</time>
      </trkpt>
      <trkpt lat="45.81369" lon="2.99416">
        <ele>940</ele>
        <time>2012-09-15T08:03:15Z</time>
      </trkpt>
      <trkpt lat="45.81364" lon="2.99417">
        <ele>940</ele>
        <time>2012-09-15T08:03:17Z</time>
      </trkpt>
      <trkpt lat="45.81359" lon="2.99418">
        <ele>940</ele>
        <time>2012-09-15T08:03:19Z</time>
      </trkpt>
      <trkpt lat="45.81353" lon="2.99419">
        <ele>940</ele>
        <time>2012-09-15T08:03:21Z</time>
      </trkpt>
      <trkpt lat="45.81348" lon="2.99421">
        <ele>940</ele>
        <time>2012-09-15T08:03:23Z</time>
      </trkpt>
      <trkpt lat="45.81344" lon="2.99422">
        <ele>940</ele>
        <time>2012-09-15T08:03:25Z</time>
      </trkpt>
      <trkpt lat="45.81338" lon="2.99422">
        <ele>940</ele>
        <time>2012-09-15T08:03:27Z</time>
      </trkpt>
      <trkpt lat="45.81333" lon="2.99424">
        <ele>940</ele>
        <time>2012-09-15T08:03:29Z</time>
      </trkpt>
      <trkpt lat="45.81328" lon="2.99425">
        <ele>940</ele>
        <time>2012-09-15T08:03:31Z</time>
      </trkpt>
      <trkpt lat="45.81323" lon="2.99427">
        <ele>940</ele>
        <time>2012-09-15T08:03:33Z</time>
      </trkpt>
      <trkpt lat="45.81317" lon="2.99429">
        <ele>940</ele>
        <time>2012-09-15T08:03:35Z</time>
      </trkpt>
      <trkpt lat="45.81311" lon="2.99431">
        <ele>940</ele>
        <time>2012-09-15T08:03:37Z</time>
      </trkpt>
      <trkpt lat="45.81307" lon="2.99432">
        <ele>940</ele>
        <time>2012-09-15T08:03:39Z</time>
      </trkpt>
      <trkpt lat="45.81302" lon="2.99433">
        <ele>939</ele>
        <time>2012-09-15T08:03:41Z</time>
      </trkpt>
      <trkpt lat="45.81296" lon="2.99434">
        <ele>939</ele>
        <time>2012-09-15T08:03:43Z</time>
      </trkpt>
      <trkpt lat="45.81291" lon="2.99436">
        <ele>939</ele>
        <time>2012-09-15T08:03:45Z</time>
      </trkpt>
      <trkpt lat="45.81285" lon="2.99437">
        <ele>939</ele>
        <time>2012-09-15T08:03:47Z</time>
      </trkpt>
      <trkpt lat="45.8128" lon="2.99437">
        <ele>939</ele>
        <time>2012-09-15T08:03:49Z</time>
      </trkpt>
      <trkpt lat="45.81274" lon="2.99437">
        <ele>938</ele>
        <time>2012-09-15T08:03:51Z</time>
      </trkpt>
      <trkpt lat="45.81268" lon="2.99438">
        <ele>937</ele>
        <time>2012-09-15T08:03:53Z</time>
      </trkpt>
      <trkpt lat="45.81261" lon="2.99439">
        <ele>937</ele>
        <time>2012-09-15T08:03:55Z</time>
      </trkpt>
      <trkpt lat="45.81256" lon="2.99441">
        <ele>937</ele>
        <time>2012-09-15T08:03:57Z</time>
      </trkpt>
      <trkpt lat="45.81251" lon="2.99443">
        <ele>937</ele>
        <time>2012-09-15T08:03:59Z</time>
      </trkpt>
      <trkpt lat="45.81245" lon="2.99445">
        <ele>937</ele>
        <time>2012-09-15T08:04:01Z</time>
      </trkpt>
      <trkpt lat="45.81238" lon="2.99445">
        <ele>937</ele>
        <time>2012-09-15T08:04:03Z</time>
      </trkpt>
      <trkpt lat="45.81233" lon="2.99446">
        <ele>937</ele>
        <time>2012-09-15T08:04:05Z</time>
      </trkpt>
      <trkpt lat="45.81227" lon="2.99446">
        <ele>937</ele>
        <time>2012-09-15T08:04:07Z</time>
      </trkpt>
      <trkpt lat="45.81221" lon="2.99446">
        <ele>937</ele>
        <time>2012-09-15T08:04:09Z</time>
      </trkpt>
      <trkpt lat="45.81215" lon="2.99446">
        <ele>937</ele>
        <time>2012-09-15T08:04:11Z</time>
      </trkpt>
      <trkpt lat="45.81209" lon="2.99446">
        <ele>937</ele>
        <time>2012-09-15T08:04:13Z</time>
      </trkpt>
      <trkpt lat="45.81203" lon="2.99447">
        <ele>937</ele>
        <time>2012-09-15T08:04:15Z</time>
      </trkpt>
      <trkpt lat="45.81197" lon="2.99447">
        <ele>937</ele>
        <time>2012-09-15T08:04:17Z</time>
      </trkpt>
      <trkpt lat="45.81192" lon="2.99447">
        <ele>937</ele>
        <time>2012-09-15T08:04:19Z</time>
      </trkpt>
      <trkpt lat="45.81187" lon="2.99446">
        <ele>938</ele>
        <time>2012-09-15T08:04:21Z</time>
      </trkpt>
      <trkpt lat="45.81181" lon="2.99446">
        <ele>938</ele>
        <time>2012-09-15T08:04:23Z</time>
      </trkpt>
      <trkpt lat="45.81176" lon="2.99446">
        <ele>938</ele>
        <time>2012-09-15T08:04:25Z</time>
      </trkpt>
      <trkpt lat="45.81171" lon="2.99445">
        <ele>938</ele>
        <time>2012-09-15T08:04:27Z</time>
      </trkpt>
      <trkpt lat="45.81166" lon="2.99444">
        <ele>938</ele>
        <time>2012-09-15T08:04:29Z</time>
      </trkpt>
      <trkpt lat="45.8116" lon="2.99442">
        <ele>938</ele>
        <time>2012-09-15T08:04:31Z</time>
      </trkpt>
      <trkpt lat="45.81155" lon="2.99442">
        <ele>939</ele>
        <time>2012-09-15T08:04:33Z</time>
      </trkpt>
      <trkpt lat="45.8115" lon="2.99441">
        <ele>939</ele>
        <time>2012-09-15T08:04:35Z</time>
      </trkpt>
      <trkpt lat="45.81144" lon="2.9944">
        <ele>939</ele>
        <time>2012-09-15T08:04:37Z</time>
      </trkpt>
      <trkpt lat="45.81137" lon="2.99438">
        <ele>940</ele>
        <time>2012-09-15T08:04:39Z</time>
      </trkpt>
      <trkpt lat="45.81132" lon="2.99437">
        <ele>940</ele>
        <time>2012-09-15T08:04:41Z</time>
      </trkpt>
      <trkpt lat="45.81128" lon="2.99436">
        <ele>940</ele>
        <time>2012-09-15T08:04:43Z</time>
      </trkpt>
      <trkpt lat="45.81122" lon="2.99433">
        <ele>940</ele>
        <time>2012-09-15T08:04:45Z</time>
      </trkpt>
      <trkpt lat="45.81118" lon="2.9943">
        <ele>940</ele>
        <time>2012-09-15T08:04:47Z</time>
      </trkpt>
      <trkpt lat="45.81113" lon="2.99427">
        <ele>940</ele>
        <time>2012-09-15T08:04:49Z</time>
      </trkpt>
      <trkpt lat="45.81105" lon="2.99423">
        <ele>940</ele>
        <time>2012-09-15T08:04:51Z</time>
      </trkpt>
      <trkpt lat="45.811" lon="2.99421">
        <ele>942</ele>
        <time>2012-09-15T08:04:53Z</time>
      </trkpt>
      <trkpt lat="45.81095" lon="2.9942">
        <ele>944</ele>
        <time>2012-09-15T08:04:55Z</time>
      </trkpt>
      <trkpt lat="45.81091" lon="2.99417">
        <ele>945</ele>
        <time>2012-09-15T08:04:57Z</time>
      </trkpt>
      <trkpt lat="45.81086" lon="2.99413">
        <ele>945</ele>
        <time>2012-09-15T08:04:59Z</time>
      </trkpt>
      <trkpt lat="45.81083" lon="2.9941">
        <ele>946</ele>
        <time>2012-09-15T08:05:01Z</time>
      </trkpt>
      <trkpt lat="45.81078" lon="2.99409">
        <ele>946</ele>
        <time>2012-09-15T08:05:03Z</time>
      </trkpt>
      <trkpt lat="45.81074" lon="2.99407">
        <ele>946</ele>
        <time>2012-09-15T08:05:05Z</time>
      </trkpt>
      <trkpt lat="45.81068" lon="2.99403">
        <ele>946</ele>
        <time>2012-09-15T08:05:07Z</time>
      </trkpt>
      <trkpt lat="45.81062" lon="2.994">
        <ele>946</ele>
        <time>2012-09-15T08:05:09Z</time>
      </trkpt>
      <trkpt lat="45.81057" lon="2.99398">
        <ele>946</ele>
        <time>2012-09-15T08:05:11Z</time>
      </trkpt>
      <trkpt lat="45.81051" lon="2.99394">
        <ele>946</ele>
        <time>2012-09-15T08:05:13Z</time>
      </trkpt>
      <trkpt lat="45.81046" lon="2.99393">
        <ele>946</ele>
        <time>2012-09-15T08:05:15Z</time>
      </trkpt>
      <trkpt lat="45.81041" lon="2.99391">
        <ele>946</ele>
        <time>2012-09-15T08:05:17Z</time>
      </trkpt>
      <trkpt lat="45.81036" lon="2.99389">
        <ele>946</ele>
        <time>2012-09-15T08:05:19Z</time>
      </trkpt>
      <trkpt lat="45.81028" lon="2.99386">
        <ele>946</ele>
        <time>2012-09-15T08:05:21Z</time>
      </trkpt>
      <trkpt lat="45.81021" lon="2.99384">
        <ele>946</ele>
        <time>2012-09-15T08:05:23Z</time>
      </trkpt>
      <trkpt lat="45.81013" lon="2.9938">
        <ele>948</ele>
        <time>2012-09-15T08:05:25Z</time>
      </trkpt>
      <trkpt lat="45.81006" lon="2.99377">
        <ele>950</ele>
        <time>2012-09-15T08:05:27Z</time>
      </trkpt>
      <trkpt lat="45.80999" lon="2.99374">
        <ele>951</ele>
        <time>2012-09-15T08:05:29Z</time>
      </trkpt>
      <trkpt lat="45.80993" lon="2.99372">
        <ele>953</ele>
        <time>2012-09-15T08:05:31Z</time>
      </trkpt>
      <trkpt lat="45.80986" lon="2.9937">
        <ele>955</ele>
        <time>2012-09-15T08:05:33Z</time>
      </trkpt>
      <trkpt lat="45.8098" lon="2.99368">
        <ele>957</ele>
        <time>2012-09-15T08:05:35Z</time>
      </trkpt>
      <trkpt lat="45.80974" lon="2.99367">
        <ele>959</ele>
        <time>2012-09-15T08:05:37Z</time>
      </trkpt>
      <trkpt lat="45.80968" lon="2.99365">
        <ele>960</ele>
        <time>2012-09-15T08:05:39Z</time>
      </trkpt>
      <trkpt lat="45.80962" lon="2.99362">
        <ele>961</ele>
        <time>2012-09-15T08:05:41Z</time>
      </trkpt>
      <trkpt lat="45.80956" lon="2.99361">
        <ele>962</ele>
        <time>2012-09-15T08:05:43Z</time>
      </trkpt>
      <trkpt lat="45.8095" lon="2.99358">
        <ele>963</ele>
        <time>2012-09-15T08:05:45Z</time>
      </trkpt>
      <trkpt lat="45.80943" lon="2.99356">
        <ele>964</ele>
        <time>2012-09-15T08:05:47Z</time>
      </trkpt>
      <trkpt lat="45.80937" lon="2.99355">
        <ele>966</ele>
        <time>2012-09-15T08:05:49Z</time>
      </trkpt>
      <trkpt lat="45.80932" lon="2.99355">
        <ele>966</ele>
        <time>2012-09-15T08:05:51Z</time>
      </trkpt>
      <trkpt lat="45.80927" lon="2.99355">
        <ele>966</ele>
        <time>2012-09-15T08:05:53Z</time>
      </trkpt>
      <trkpt lat="45.80922" lon="2.99354">
        <ele>966</ele>
        <time>2012-09-15T08:05:55Z</time>
      </trkpt>
      <trkpt lat="45.80917" lon="2.99354">
        <ele>966</ele>
        <time>2012-09-15T08:05:57Z</time>
      </trkpt>
      <trkpt lat="45.80912" lon="2.99353">
        <ele>966</ele>
        <time>2012-09-15T08:05:59Z</time>
      </trkpt>
      <trkpt lat="45.80906" lon="2.99353">
        <ele>966</ele>
        <time>2012-09-15T08:06:01Z</time>
      </trkpt>
      <trkpt lat="45.80901" lon="2.99354">
        <ele>966</ele>
        <time>2012-09-15T08:06:03Z</time>
      </trkpt>
      <trkpt lat="45.80896" lon="2.99354">
        <ele>965</ele>
        <time>2012-09-15T08:06:05Z</time>
      </trkpt>
      <trkpt lat="45.80891" lon="2.99355">
        <ele>964</ele>
        <time>2012-09-15T08:06:07Z</time>
      </trkpt>
      <trkpt lat="45.80886" lon="2.99355">
        <ele>963</ele>
        <time>2012-09-15T08:06:09Z</time>
      </trkpt>
      <trkpt lat="45.8088" lon="2.99356">
        <ele>963</ele>
        <time>2012-09-15T08:06:11Z</time>
      </trkpt>
      <trkpt lat="45.80875" lon="2.99356">
        <ele>962</ele>
        <time>2012-09-15T08:06:13Z</time>
      </trkpt>
      <trkpt lat="45.80869" lon="2.99357">
        <ele>962</ele>
        <time>2012-09-15T08:06:15Z</time>
      </trkpt>
      <trkpt lat="45.80864" lon="2.99357">
        <ele>962</ele>
        <time>2012-09-15T08:06:17Z</time>
      </trkpt>
      <trkpt lat="45.80858" lon="2.99359">
        <ele>962</ele>
        <time>2012-09-15T08:06:19Z</time>
      </trkpt>
      <trkpt lat="45.80853" lon="2.9936">
        <ele>962</ele>
        <time>2012-09-15T08:06:21Z</time>
      </trkpt>
      <trkpt lat="45.80847" lon="2.99361">
        <ele>962</ele>
        <time>2012-09-15T08:06:23Z</time>
      </trkpt>
      <trkpt lat="45.80842" lon="2.99363">
        <ele>961</ele>
        <time>2012-09-15T08:06:25Z</time>
      </trkpt>
      <trkpt lat="45.80836" lon="2.99364">
        <ele>961</ele>
        <time>2012-09-15T08:06:27Z</time>
      </trkpt>
      <trkpt lat="45.80831" lon="2.99366">
        <ele>961</ele>
        <time>2012-09-15T08:06:29Z</time>
      </trkpt>
      <trkpt lat="45.80826" lon="2.99367">
        <ele>961</ele>
        <time>2012-09-15T08:06:31Z</time>
      </trkpt>
      <trkpt lat="45.80821" lon="2.99369">
        <ele>961</ele>
        <time>2012-09-15T08:06:33Z</time>
      </trkpt>
      <trkpt lat="45.80817" lon="2.99371">
        <ele>961</ele>
        <time>2012-09-15T08:06:35Z</time>
      </trkpt>
      <trkpt lat="45.80812" lon="2.99374">
        <ele>961</ele>
        <time>2012-09-15T08:06:37Z</time>
      </trkpt>
      <trkpt lat="45.80807" lon="2.99376">
        <ele>961</ele>
        <time>2012-09-15T08:06:39Z</time>
      </trkpt>
      <trkpt lat="45.80802" lon="2.99378">
        <ele>960</ele>
        <time>2012-09-15T08:06:41Z</time>
      </trkpt>
      <trkpt lat="45.80796" lon="2.99379">
        <ele>960</ele>
        <time>2012-09-15T08:06:43Z</time>
      </trkpt>
      <trkpt lat="45.8079" lon="2.9938">
        <ele>960</ele>
        <time>2012-09-15T08:06:45Z</time>
      </trkpt>
      <trkpt lat="45.80784" lon="2.99382">
        <ele>960</ele>
        <time>2012-09-15T08:06:47Z</time>
      </trkpt>
      <trkpt lat="45.80778" lon="2.99383">
        <ele>960</ele>
        <time>2012-09-15T08:06:49Z</time>
      </trkpt>
      <trkpt lat="45.80772" lon="2.99384">
        <ele>960</ele>
        <time>2012-09-15T08:06:51Z</time>
      </trkpt>
      <trkpt lat="45.80767" lon="2.99385">
        <ele>960</ele>
        <time>2012-09-15T08:06:53Z</time>
      </trkpt>
      <trkpt lat="45.80762" lon="2.99387">
        <ele>960</ele>
        <time>2012-09-15T08:06:55Z</time>
      </trkpt>
      <trkpt lat="45.80756" lon="2.99388">
        <ele>961</ele>
        <time>2012-09-15T08:06:57Z</time>
      </trkpt>
      <trkpt lat="45.8075" lon="2.99389">
        <ele>962</ele>
        <time>2012-09-15T08:06:59Z</time>
      </trkpt>
      <trkpt lat="45.80745" lon="2.9939">
        <ele>963</ele>
        <time>2012-09-15T08:07:01Z</time>
      </trkpt>
      <trkpt lat="45.80739" lon="2.99391">
        <ele>963</ele>
        <time>2012-09-15T08:07:03Z</time>
      </trkpt>
      <trkpt lat="45.80734" lon="2.9939">
        <ele>964</ele>
        <time>2012-09-15T08:07:05Z</time>
      </trkpt>
      <trkpt lat="45.80728" lon="2.99389">
        <ele>964</ele>
        <time>2012-09-15T08:07:07Z</time>
      </trkpt>
      <trkpt lat="45.80722" lon="2.99387">
        <ele>964</ele>
        <time>2012-09-15T08:07:09Z</time>
      </trkpt>
      <trkpt lat="45.80715" lon="2.99386">
        <ele>964</ele>
        <time>2012-09-15T08:07:11Z</time>
      </trkpt>
      <trkpt lat="45.80709" lon="2.99386">
        <ele>965</ele>
        <time>2012-09-15T08:07:13Z</time>
      </trkpt>
      <trkpt lat="45.80703" lon="2.99385">
        <ele>965</ele>
        <time>2012-09-15T08:07:15Z</time>
      </trkpt>
      <trkpt lat="45.80697" lon="2.99384">
        <ele>965</ele>
        <time>2012-09-15T08:07:17Z</time>
      </trkpt>
      <trkpt lat="45.8069" lon="2.99383">
        <ele>965</ele>
        <time>2012-09-15T08:07:19Z</time>
      </trkpt>
      <trkpt lat="45.80684" lon="2.9938">
        <ele>965</ele>
        <time>2012-09-15T08:07:21Z</time>
      </trkpt>
      <trkpt lat="45.80679" lon="2.99377">
        <ele>965</ele>
        <time>2012-09-15T08:07:23Z</time>
      </trkpt>
      <trkpt lat="45.80674" lon="2.99373">
        <ele>965</ele>
        <time>2012-09-15T08:07:25Z</time>
      </trkpt>
      <trkpt lat="45.80668" lon="2.99368">
        <ele>965</ele>
        <time>2012-09-15T08:07:27Z</time>
      </trkpt>
      <trkpt lat="45.80664" lon="2.99364">
        <ele>965</ele>
        <time>2012-09-15T08:07:29Z</time>
      </trkpt>
      <trkpt lat="45.80659" lon="2.99359">
        <ele>965</ele>
        <time>2012-09-15T08:07:31Z</time>
      </trkpt>
      <trkpt lat="45.80655" lon="2.99355">
        <ele>965</ele>
        <time>2012-09-15T08:07:33Z</time>
      </trkpt>
      <trkpt lat="45.8065" lon="2.9935">
        <ele>966</ele>
        <time>2012-09-15T08:07:35Z</time>
      </trkpt>
      <trkpt lat="45.80646" lon="2.99344">
        <ele>966</ele>
        <time>2012-09-15T08:07:37Z</time>
      </trkpt>
      <trkpt lat="45.80641" lon="2.99339">
        <ele>967</ele>
        <time>2012-09-15T08:07:39Z</time>
      </trkpt>
      <trkpt lat="45.80637" lon="2.99333">
        <ele>967</ele>
        <time>2012-09-15T08:07:41Z</time>
      </trkpt>
      <trkpt lat="45.80632" lon="2.99328">
        <ele>967</ele>
        <time>2012-09-15T08:07:43Z</time>
      </trkpt>
      <trkpt lat="45.80628" lon="2.99323">
        <ele>967</ele>
        <time>2012-09-15T08:07:45Z</time>
      </trkpt>
      <trkpt lat="45.80623" lon="2.99317">
        <ele>967</ele>
        <time>2012-09-15T08:07:47Z</time>
      </trkpt>
      <trkpt lat="45.80619" lon="2.99311">
        <ele>968</ele>
        <time>2012-09-15T08:07:49Z</time>
      </trkpt>
      <trkpt lat="45.80614" lon="2.99305">
        <ele>969</ele>
        <time>2012-09-15T08:07:51Z</time>
      </trkpt>
      <trkpt lat="45.8061" lon="2.993">
        <ele>970</ele>
        <time>2012-09-15T08:07:53Z</time>
      </trkpt>
      <trkpt lat="45.80605" lon="2.99294">
        <ele>970</ele>
        <time>2012-09-15T08:07:55Z</time>
      </trkpt>
      <trkpt lat="45.806" lon="2.99289">
        <ele>970</ele>
        <time>2012-09-15T08:07:57Z</time>
      </trkpt>
      <trkpt lat="45.80595" lon="2.99285">
        <ele>970</ele>
        <time>2012-09-15T08:07:59Z</time>
      </trkpt>
      <trkpt lat="45.8059" lon="2.99281">
        <ele>970</ele>
        <time>2012-09-15T08:08:01Z</time>
      </trkpt>
      <trkpt lat="45.80585" lon="2.99277">
        <ele>970</ele>
        <time>2012-09-15T08:08:03Z</time>
      </trkpt>
      <trkpt lat="45.80579" lon="2.99273">
        <ele>970</ele>
        <time>2012-09-15T08:08:05Z</time>
      </trkpt>
      <trkpt lat="45.80573" lon="2.99268">
        <ele>970</ele>
        <time>2012-09-15T08:08:07Z</time>
      </trkpt>
      <trkpt lat="45.80567" lon="2.99264">
        <ele>971</ele>
        <time>2012-09-15T08:08:09Z</time>
      </trkpt>
      <trkpt lat="45.80562" lon="2.9926">
        <ele>972</ele>
        <time>2012-09-15T08:08:11Z</time>
      </trkpt>
      <trkpt lat="45.80557" lon="2.99255">
        <ele>972</ele>
        <time>2012-09-15T08:08:13Z</time>
      </trkpt>
      <trkpt lat="45.80552" lon="2.99251">
        <ele>972</ele>
        <time>2012-09-15T08:08:15Z</time>
      </trkpt>
      <trkpt lat="45.80546" lon="2.99246">
        <ele>972</ele>
        <time>2012-09-15T08:08:17Z</time>
      </trkpt>
      <trkpt lat="45.80541" lon="2.99241">
        <ele>972</ele>
        <time>2012-09-15T08:08:19Z</time>
      </trkpt>
      <trkpt lat="45.80536" lon="2.99237">
        <ele>972</ele>
        <time>2012-09-15T08:08:21Z</time>
      </trkpt>
      <trkpt lat="45.8053" lon="2.99233">
        <ele>972</ele>
        <time>2012-09-15T08:08:23Z</time>
      </trkpt>
      <trkpt lat="45.80523" lon="2.99227">
        <ele>972</ele>
        <time>2012-09-15T08:08:25Z</time>
      </trkpt>
      <trkpt lat="45.80517" lon="2.99222">
        <ele>972</ele>
        <time>2012-09-15T08:08:27Z</time>
      </trkpt>
      <trkpt lat="45.80511" lon="2.99218">
        <ele>972</ele>
        <time>2012-09-15T08:08:29Z</time>
      </trkpt>
      <trkpt lat="45.80506" lon="2.99213">
        <ele>972</ele>
        <time>2012-09-15T08:08:31Z</time>
      </trkpt>
      <trkpt lat="45.80501" lon="2.99207">
        <ele>972</ele>
        <time>2012-09-15T08:08:33Z</time>
      </trkpt>
      <trkpt lat="45.80496" lon="2.992">
        <ele>972</ele>
        <time>2012-09-15T08:08:35Z</time>
      </trkpt>
      <trkpt lat="45.80491" lon="2.99192">
        <ele>972</ele>
        <time>2012-09-15T08:08:37Z</time>
      </trkpt>
      <trkpt lat="45.80485" lon="2.99184">
        <ele>972</ele>
        <time>2012-09-15T08:08:39Z</time>
      </trkpt>
      <trkpt lat="45.80479" lon="2.99175">
        <ele>972</ele>
        <time>2012-09-15T08:08:41Z</time>
      </trkpt>
      <trkpt lat="45.80474" lon="2.99166">
        <ele>972</ele>
        <time>2012-09-15T08:08:43Z</time>
      </trkpt>
      <trkpt lat="45.80467" lon="2.99156">
        <ele>973</ele>
        <time>2012-09-15T08:08:45Z</time>
      </trkpt>
      <trkpt lat="45.80461" lon="2.99146">
        <ele>973</ele>
        <time>2012-09-15T08:08:47Z</time>
      </trkpt>
      <trkpt lat="45.80455" lon="2.99136">
        <ele>973</ele>
        <time>2012-09-15T08:08:49Z</time>
      </trkpt>
      <trkpt lat="45.80447" lon="2.99126">
        <ele>973</ele>
        <time>2012-09-15T08:08:51Z</time>
      </trkpt>
      <trkpt lat="45.8044" lon="2.99117">
        <ele>973</ele>
        <time>2012-09-15T08:08:53Z</time>
      </trkpt>
      <trkpt lat="45.80434" lon="2.99106">
        <ele>973</ele>
        <time>2012-09-15T08:08:55Z</time>
      </trkpt>
      <trkpt lat="45.80428" lon="2.99091">
        <ele>973</ele>
        <time>2012-09-15T08:08:57Z</time>
      </trkpt>
      <trkpt lat="45.80426" lon="2.99075">
        <ele>973</ele>
        <time>2012-09-15T08:08:59Z</time>
      </trkpt>
      <trkpt lat="45.80424" lon="2.99059">
        <ele>973</ele>
        <time>2012-09-15T08:09:01Z</time>
      </trkpt>
      <trkpt lat="45.80422" lon="2.99043">
        <ele>973</ele>
        <time>2012-09-15T08:09:03Z</time>
      </trkpt>
      <trkpt lat="45.8042" lon="2.99026">
        <ele>973</ele>
        <time>2012-09-15T08:09:05Z</time>
      </trkpt>
      <trkpt lat="45.80418" lon="2.99009">
        <ele>973</ele>
        <time>2012-09-15T08:09:07Z</time>
      </trkpt>
      <trkpt lat="45.80415" lon="2.98991">
        <ele>973</ele>
        <time>2012-09-15T08:09:10Z</time>
      </trkpt>
      <trkpt lat="45.80412" lon="2.98966">
        <ele>973</ele>
        <time>2012-09-15T08:09:12Z</time>
      </trkpt>
      <trkpt lat="45.80408" lon="2.98951">
        <ele>973</ele>
        <time>2012-09-15T08:09:14Z</time>
      </trkpt>
      <trkpt lat="45.80404" lon="2.98938">
        <ele>973</ele>
        <time>2012-09-15T08:09:16Z</time>
      </trkpt>
      <trkpt lat="45.80398" lon="2.98925">
        <ele>973</ele>
        <time>2012-09-15T08:09:18Z</time>
      </trkpt>
      <trkpt lat="45.80391" lon="2.98916">
        <ele>973</ele>
        <time>2012-09-15T08:09:20Z</time>
      </trkpt>
      <trkpt lat="45.80385" lon="2.98909">
        <ele>973</ele>
        <time>2012-09-15T08:09:22Z</time>
      </trkpt>
      <trkpt lat="45.80381" lon="2.98902">
        <ele>973</ele>
        <time>2012-09-15T08:09:24Z</time>
      </trkpt>
      <trkpt lat="45.8038" lon="2.98896">
        <ele>973</ele>
        <time>2012-09-15T08:09:26Z</time>
      </trkpt>
      <trkpt lat="45.80379" lon="2.9889">
        <ele>973</ele>
        <time>2012-09-15T08:09:28Z</time>
      </trkpt>
      <trkpt lat="45.80375" lon="2.98884">
        <ele>973</ele>
        <time>2012-09-15T08:09:31Z</time>
      </trkpt>
      <trkpt lat="45.80375" lon="2.98878">
        <ele>973</ele>
        <time>2012-09-15T08:09:33Z</time>
      </trkpt>
      <trkpt lat="45.80375" lon="2.98871">
        <ele>973</ele>
        <time>2012-09-15T08:09:35Z</time>
      </trkpt>
      <trkpt lat="45.80376" lon="2.98862">
        <ele>973</ele>
        <time>2012-09-15T08:09:37Z</time>
      </trkpt>
      <trkpt lat="45.80377" lon="2.98853">
        <ele>973</ele>
        <time>2012-09-15T08:09:39Z</time>
      </trkpt>
      <trkpt lat="45.80378" lon="2.98844">
        <ele>973</ele>
        <time>2012-09-15T08:09:41Z</time>
      </trkpt>
      <trkpt lat="45.80381" lon="2.98833">
        <ele>973</ele>
        <time>2012-09-15T08:09:43Z</time>
      </trkpt>
      <trkpt lat="45.80383" lon="2.98822">
        <ele>973</ele>
        <time>2012-09-15T08:09:45Z</time>
      </trkpt>
      <trkpt lat="45.80382" lon="2.98813">
        <ele>972</ele>
        <time>2012-09-15T08:09:47Z</time>
      </trkpt>
      <trkpt lat="45.80378" lon="2.98803">
        <ele>971</ele>
        <time>2012-09-15T08:09:49Z</time>
      </trkpt>
      <trkpt lat="45.80374" lon="2.98794">
        <ele>971</ele>
        <time>2012-09-15T08:09:51Z</time>
      </trkpt>
      <trkpt lat="45.80369" lon="2.98783">
        <ele>971</ele>
        <time>2012-09-15T08:09:53Z</time>
      </trkpt>
      <trkpt lat="45.80364" lon="2.98772">
        <ele>971</ele>
        <time>2012-09-15T08:09:56Z</time>
      </trkpt>
      <trkpt lat="45.80352" lon="2.98762">
        <ele>971</ele>
        <time>2012-09-15T08:09:58Z</time>
      </trkpt>
      <trkpt lat="45.80344" lon="2.9876">
        <ele>971</ele>
        <time>2012-09-15T08:10:01Z</time>
      </trkpt>
      <trkpt lat="45.80332" lon="2.9876">
        <ele>971</ele>
        <time>2012-09-15T08:10:03Z</time>
      </trkpt>
      <trkpt lat="45.80326" lon="2.98764">
        <ele>971</ele>
        <time>2012-09-15T08:10:05Z</time>
      </trkpt>
      <trkpt lat="45.80319" lon="2.9877">
        <ele>971</ele>
        <time>2012-09-15T08:10:07Z</time>
      </trkpt>
      <trkpt lat="45.80315" lon="2.98779">
        <ele>971</ele>
        <time>2012-09-15T08:10:09Z</time>
      </trkpt>
      <trkpt lat="45.8031" lon="2.98789">
        <ele>971</ele>
        <time>2012-09-15T08:10:11Z</time>
      </trkpt>
      <trkpt lat="45.80307" lon="2.98799">
        <ele>971</ele>
        <time>2012-09-15T08:10:13Z</time>
      </trkpt>
      <trkpt lat="45.80303" lon="2.98809">
        <ele>971</ele>
        <time>2012-09-15T08:10:15Z</time>
      </trkpt>
      <trkpt lat="45.803" lon="2.98818">
        <ele>971</ele>
        <time>2012-09-15T08:10:17Z</time>
      </trkpt>
      <trkpt lat="45.80296" lon="2.98821">
        <ele>971</ele>
        <time>2012-09-15T08:10:19Z</time>
      </trkpt>
      <trkpt lat="45.80293" lon="2.98815">
        <ele>971</ele>
        <time>2012-09-15T08:10:21Z</time>
      </trkpt>
      <trkpt lat="45.80292" lon="2.98804">
        <ele>971</ele>
        <time>2012-09-15T08:10:23Z</time>
      </trkpt>
      <trkpt lat="45.8029" lon="2.98793">
        <ele>971</ele>
        <time>2012-09-15T08:10:25Z</time>
      </trkpt>
      <trkpt lat="45.80287" lon="2.98782">
        <ele>971</ele>
        <time>2012-09-15T08:10:27Z</time>
      </trkpt>
      <trkpt lat="45.80282" lon="2.98772">
        <ele>971</ele>
        <time>2012-09-15T08:10:29Z</time>
      </trkpt>
      <trkpt lat="45.80275" lon="2.98761">
        <ele>971</ele>
        <time>2012-09-15T08:10:31Z</time>
      </trkpt>
      <trkpt lat="45.80269" lon="2.98749">
        <ele>971</ele>
        <time>2012-09-15T08:10:33Z</time>
      </trkpt>
      <trkpt lat="45.80263" lon="2.98738">
        <ele>971</ele>
        <time>2012-09-15T08:10:35Z</time>
      </trkpt>
      <trkpt lat="45.80259" lon="2.98726">
        <ele>971</ele>
        <time>2012-09-15T08:10:37Z</time>
      </trkpt>
      <trkpt lat="45.80262" lon="2.98719">
        <ele>971</ele>
        <time>2012-09-15T08:10:39Z</time>
      </trkpt>
      <trkpt lat="45.80262" lon="2.98715">
        <ele>971</ele>
        <time>2012-09-15T08:10:41Z</time>
      </trkpt>
      <trkpt lat="45.80263" lon="2.98711">
        <ele>971</ele>
        <time>2012-09-15T08:10:43Z</time>
      </trkpt>
      <trkpt lat="45.80264" lon="2.98708">
        <ele>971</ele>
        <time>2012-09-15T08:10:45Z</time>
      </trkpt>
      <trkpt lat="45.80265" lon="2.98705">
        <ele>971</ele>
        <time>2012-09-15T08:10:47Z</time>
      </trkpt>
      <trkpt lat="45.80267" lon="2.98702">
        <ele>971</ele>
        <time>2012-09-15T08:10:49Z</time>
      </trkpt>
      <trkpt lat="45.80272" lon="2.98698">
        <ele>971</ele>
        <time>2012-09-15T08:10:51Z</time>
      </trkpt>
      <trkpt lat="45.80278" lon="2.98696">
        <ele>971</ele>
        <time>2012-09-15T08:10:53Z</time>
      </trkpt>
      <trkpt lat="45.80283" lon="2.98695">
        <ele>971</ele>
        <time>2012-09-15T08:10:55Z</time>
      </trkpt>
      <trkpt lat="45.80288" lon="2.98693">
        <ele>971</ele>
        <time>2012-09-15T08:10:57Z</time>
      </trkpt>
      <trkpt lat="45.80292" lon="2.98692">
        <ele>971</ele>
        <time>2012-09-15T08:10:59Z</time>
      </trkpt>
      <trkpt lat="45.80298" lon="2.98691">
        <ele>971</ele>
        <time>2012-09-15T08:11:01Z</time>
      </trkpt>
      <trkpt lat="45.80304" lon="2.98689">
        <ele>971</ele>
        <time>2012-09-15T08:11:03Z</time>
      </trkpt>
      <trkpt lat="45.80309" lon="2.98688">
        <ele>971</ele>
        <time>2012-09-15T08:11:05Z</time>
      </trkpt>
      <trkpt lat="45.80315" lon="2.98687">
        <ele>972</ele>
        <time>2012-09-15T08:11:07Z</time>
      </trkpt>
      <trkpt lat="45.80319" lon="2.98683">
        <ele>972</ele>
        <time>2012-09-15T08:11:09Z</time>
      </trkpt>
      <trkpt lat="45.80322" lon="2.98677">
        <ele>972</ele>
        <time>2012-09-15T08:11:11Z</time>
      </trkpt>
      <trkpt lat="45.80324" lon="2.98671">
        <ele>972</ele>
        <time>2012-09-15T08:11:13Z</time>
      </trkpt>
      <trkpt lat="45.80326" lon="2.98661">
        <ele>972</ele>
        <time>2012-09-15T08:11:15Z</time>
      </trkpt>
      <trkpt lat="45.80329" lon="2.98652">
        <ele>972</ele>
        <time>2012-09-15T08:11:17Z</time>
      </trkpt>
      <trkpt lat="45.80332" lon="2.98644">
        <ele>972</ele>
        <time>2012-09-15T08:11:19Z</time>
      </trkpt>
      <trkpt lat="45.80334" lon="2.98637">
        <ele>972</ele>
        <time>2012-09-15T08:11:21Z</time>
      </trkpt>
      <trkpt lat="45.80336" lon="2.98628">
        <ele>972</ele>
        <time>2012-09-15T08:11:23Z</time>
      </trkpt>
      <trkpt lat="45.80339" lon="2.98621">
        <ele>972</ele>
        <time>2012-09-15T08:11:25Z</time>
      </trkpt>
      <trkpt lat="45.80341" lon="2.98612">
        <ele>972</ele>
        <time>2012-09-15T08:11:27Z</time>
      </trkpt>
      <trkpt lat="45.80343" lon="2.98603">
        <ele>972</ele>
        <time>2012-09-15T08:11:29Z</time>
      </trkpt>
      <trkpt lat="45.80345" lon="2.98594">
        <ele>972</ele>
        <time>2012-09-15T08:11:31Z</time>
      </trkpt>
      <trkpt lat="45.80349" lon="2.98585">
        <ele>972</ele>
        <time>2012-09-15T08:11:33Z</time>
      </trkpt>
      <trkpt lat="45.80352" lon="2.98575">
        <ele>972</ele>
        <time>2012-09-15T08:11:35Z</time>
      </trkpt>
      <trkpt lat="45.80355" lon="2.98565">
        <ele>972</ele>
        <time>2012-09-15T08:11:37Z</time>
      </trkpt>
      <trkpt lat="45.80359" lon="2.98554">
        <ele>972</ele>
        <time>2012-09-15T08:11:39Z</time>
      </trkpt>
      <trkpt lat="45.80361" lon="2.98544">
        <ele>972</ele>
        <time>2012-09-15T08:11:41Z</time>
      </trkpt>
      <trkpt lat="45.8036" lon="2.98534">
        <ele>972</ele>
        <time>2012-09-15T08:11:43Z</time>
      </trkpt>
      <trkpt lat="45.80355" lon="2.98527">
        <ele>972</ele>
        <time>2012-09-15T08:11:45Z</time>
      </trkpt>
      <trkpt lat="45.80349" lon="2.9852">
        <ele>972</ele>
        <time>2012-09-15T08:11:47Z</time>
      </trkpt>
      <trkpt lat="45.80342" lon="2.98513">
        <ele>972</ele>
        <time>2012-09-15T08:11:49Z</time>
      </trkpt>
      <trkpt lat="45.80334" lon="2.98505">
        <ele>972</ele>
        <time>2012-09-15T08:11:51Z</time>
      </trkpt>
      <trkpt lat="45.80325" lon="2.98499">
        <ele>972</ele>
        <time>2012-09-15T08:11:53Z</time>
      </trkpt>
      <trkpt lat="45.80317" lon="2.98493">
        <ele>972</ele>
        <time>2012-09-15T08:11:55Z</time>
      </trkpt>
      <trkpt lat="45.8031" lon="2.98488">
        <ele>972</ele>
        <time>2012-09-15T08:11:57Z</time>
      </trkpt>
      <trkpt lat="45.80304" lon="2.98484">
        <ele>972</ele>
        <time>2012-09-15T08:11:59Z</time>
      </trkpt>
      <trkpt lat="45.80296" lon="2.98482">
        <ele>972</ele>
        <time>2012-09-15T08:12:01Z</time>
      </trkpt>
      <trkpt lat="45.80288" lon="2.9848">
        <ele>972</ele>
        <time>2012-09-15T08:12:03Z</time>
      </trkpt>
      <trkpt lat="45.8028" lon="2.98478">
        <ele>972</ele>
        <time>2012-09-15T08:12:05Z</time>
      </trkpt>
      <trkpt lat="45.80273" lon="2.98476">
        <ele>972</ele>
        <time>2012-09-15T08:12:07Z</time>
      </trkpt>
      <trkpt lat="45.80267" lon="2.98475">
        <ele>972</ele>
        <time>2012-09-15T08:12:09Z</time>
      </trkpt>
      <trkpt lat="45.80262" lon="2.98474">
        <ele>973</ele>
        <time>2012-09-15T08:12:11Z</time>
      </trkpt>
      <trkpt lat="45.80257" lon="2.98471">
        <ele>973</ele>
        <time>2012-09-15T08:12:13Z</time>
      </trkpt>
      <trkpt lat="45.80252" lon="2.98467">
        <ele>973</ele>
        <time>2012-09-15T08:12:15Z</time>
      </trkpt>
      <trkpt lat="45.80247" lon="2.98462">
        <ele>974</ele>
        <time>2012-09-15T08:12:17Z</time>
      </trkpt>
      <trkpt lat="45.80242" lon="2.98454">
        <ele>974</ele>
        <time>2012-09-15T08:12:19Z</time>
      </trkpt>
      <trkpt lat="45.80236" lon="2.98443">
        <ele>974</ele>
        <time>2012-09-15T08:12:21Z</time>
      </trkpt>
      <trkpt lat="45.80228" lon="2.98431">
        <ele>974</ele>
        <time>2012-09-15T08:12:23Z</time>
      </trkpt>
      <trkpt lat="45.80222" lon="2.98418">
        <ele>974</ele>
        <time>2012-09-15T08:12:25Z</time>
      </trkpt>
      <trkpt lat="45.80213" lon="2.98407">
        <ele>974</ele>
        <time>2012-09-15T08:12:27Z</time>
      </trkpt>
      <trkpt lat="45.80203" lon="2.98397">
        <ele>974</ele>
        <time>2012-09-15T08:12:29Z</time>
      </trkpt>
      <trkpt lat="45.80191" lon="2.98389">
        <ele>974</ele>
        <time>2012-09-15T08:12:31Z</time>
      </trkpt>
      <trkpt lat="45.80178" lon="2.98387">
        <ele>974</ele>
        <time>2012-09-15T08:12:33Z</time>
      </trkpt>
      <trkpt lat="45.80163" lon="2.98388">
        <ele>973</ele>
        <time>2012-09-15T08:12:35Z</time>
      </trkpt>
      <trkpt lat="45.8015" lon="2.98391">
        <ele>973</ele>
        <time>2012-09-15T08:12:37Z</time>
      </trkpt>
      <trkpt lat="45.80137" lon="2.9839">
        <ele>973</ele>
        <time>2012-09-15T08:12:39Z</time>
      </trkpt>
      <trkpt lat="45.80123" lon="2.98387">
        <ele>972</ele>
        <time>2012-09-15T08:12:41Z</time>
      </trkpt>
      <trkpt lat="45.80109" lon="2.98383">
        <ele>972</ele>
        <time>2012-09-15T08:12:43Z</time>
      </trkpt>
      <trkpt lat="45.80095" lon="2.98382">
        <ele>971</ele>
        <time>2012-09-15T08:12:45Z</time>
      </trkpt>
      <trkpt lat="45.8008" lon="2.98382">
        <ele>970</ele>
        <time>2012-09-15T08:12:47Z</time>
      </trkpt>
      <trkpt lat="45.80066" lon="2.98379">
        <ele>969</ele>
        <time>2012-09-15T08:12:49Z</time>
      </trkpt>
      <trkpt lat="45.80052" lon="2.98374">
        <ele>968</ele>
        <time>2012-09-15T08:12:51Z</time>
      </trkpt>
      <trkpt lat="45.80039" lon="2.98367">
        <ele>967</ele>
        <time>2012-09-15T08:12:53Z</time>
      </trkpt>
      <trkpt lat="45.80025" lon="2.98362">
        <ele>966</ele>
        <time>2012-09-15T08:12:55Z</time>
      </trkpt>
      <trkpt lat="45.80013" lon="2.98358">
        <ele>965</ele>
        <time>2012-09-15T08:12:57Z</time>
      </trkpt>
      <trkpt lat="45.80001" lon="2.98355">
        <ele>965</ele>
        <time>2012-09-15T08:12:59Z</time>
      </trkpt>
      <trkpt lat="45.7999" lon="2.98352">
        <ele>965</ele>
        <time>2012-09-15T08:13:01Z</time>
      </trkpt>
      <trkpt lat="45.79981" lon="2.98351">
        <ele>965</ele>
        <time>2012-09-15T08:13:03Z</time>
      </trkpt>
      <trkpt lat="45.79972" lon="2.98353">
        <ele>965</ele>
        <time>2012-09-15T08:13:05Z</time>
      </trkpt>
      <trkpt lat="45.79966" lon="2.98357">
        <ele>965</ele>
        <time>2012-09-15T08:13:07Z</time>
      </trkpt>
      <trkpt lat="45.79959" lon="2.98362">
        <ele>965</ele>
        <time>2012-09-15T08:13:09Z</time>
      </trkpt>
      <trkpt lat="45.79953" lon="2.9837">
        <ele>965</ele>
        <time>2012-09-15T08:13:11Z</time>
      </trkpt>
      <trkpt lat="45.79947" lon="2.98379">
        <ele>965</ele>
        <time>2012-09-15T08:13:13Z</time>
      </trkpt>
      <trkpt lat="45.79941" lon="2.98388">
        <ele>965</ele>
        <time>2012-09-15T08:13:15Z</time>
      </trkpt>
      <trkpt lat="45.79936" lon="2.98396">
        <ele>965</ele>
        <time>2012-09-15T08:13:17Z</time>
      </trkpt>
      <trkpt lat="45.79931" lon="2.98403">
        <ele>965</ele>
        <time>2012-09-15T08:13:19Z</time>
      </trkpt>
      <trkpt lat="45.79925" lon="2.98411">
        <ele>965</ele>
        <time>2012-09-15T08:13:21Z</time>
      </trkpt>
      <trkpt lat="45.79919" lon="2.98419">
        <ele>965</ele>
        <time>2012-09-15T08:13:23Z</time>
      </trkpt>
      <trkpt lat="45.79912" lon="2.98427">
        <ele>965</ele>
        <time>2012-09-15T08:13:25Z</time>
      </trkpt>
      <trkpt lat="45.79903" lon="2.98433">
        <ele>965</ele>
        <time>2012-09-15T08:13:27Z</time>
      </trkpt>
      <trkpt lat="45.79894" lon="2.98438">
        <ele>965</ele>
        <time>2012-09-15T08:13:29Z</time>
      </trkpt>
      <trkpt lat="45.79885" lon="2.98443">
        <ele>965</ele>
        <time>2012-09-15T08:13:31Z</time>
      </trkpt>
      <trkpt lat="45.79877" lon="2.98448">
        <ele>965</ele>
        <time>2012-09-15T08:13:33Z</time>
      </trkpt>
      <trkpt lat="45.7987" lon="2.98457">
        <ele>965</ele>
        <time>2012-09-15T08:13:35Z</time>
      </trkpt>
      <trkpt lat="45.79864" lon="2.98466">
        <ele>965</ele>
        <time>2012-09-15T08:13:37Z</time>
      </trkpt>
      <trkpt lat="45.79858" lon="2.98477">
        <ele>965</ele>
        <time>2012-09-15T08:13:39Z</time>
      </trkpt>
      <trkpt lat="45.7985" lon="2.98486">
        <ele>965</ele>
        <time>2012-09-15T08:13:41Z</time>
      </trkpt>
      <trkpt lat="45.79841" lon="2.98495">
        <ele>965</ele>
        <time>2012-09-15T08:13:43Z</time>
      </trkpt>
      <trkpt lat="45.79832" lon="2.98504">
        <ele>965</ele>
        <time>2012-09-15T08:13:45Z</time>
      </trkpt>
      <trkpt lat="45.79827" lon="2.98514">
        <ele>965</ele>
        <time>2012-09-15T08:13:47Z</time>
      </trkpt>
      <trkpt lat="45.79826" lon="2.98527">
        <ele>965</ele>
        <time>2012-09-15T08:13:49Z</time>
      </trkpt>
      <trkpt lat="45.7983" lon="2.9854">
        <ele>965</ele>
        <time>2012-09-15T08:13:51Z</time>
      </trkpt>
      <trkpt lat="45.79835" lon="2.98552">
        <ele>965</ele>
        <time>2012-09-15T08:13:53Z</time>
      </trkpt>
      <trkpt lat="45.7984" lon="2.98566">
        <ele>965</ele>
        <time>2012-09-15T08:13:55Z</time>
      </trkpt>
      <trkpt lat="45.79842" lon="2.98581">
        <ele>965</ele>
        <time>2012-09-15T08:13:57Z</time>
      </trkpt>
      <trkpt lat="45.79846" lon="2.98594">
        <ele>965</ele>
        <time>2012-09-15T08:13:59Z</time>
      </trkpt>
      <trkpt lat="45.79852" lon="2.98607">
        <ele>965</ele>
        <time>2012-09-15T08:14:01Z</time>
      </trkpt>
      <trkpt lat="45.79857" lon="2.98621">
        <ele>965</ele>
        <time>2012-09-15T08:14:03Z</time>
      </trkpt>
      <trkpt lat="45.79861" lon="2.98637">
        <ele>965</ele>
        <time>2012-09-15T08:14:05Z</time>
      </trkpt>
      <trkpt lat="45.79865" lon="2.98653">
        <ele>965</ele>
        <time>2012-09-15T08:14:07Z</time>
      </trkpt>
      <trkpt lat="45.79868" lon="2.98668">
        <ele>965</ele>
        <time>2012-09-15T08:14:09Z</time>
      </trkpt>
      <trkpt lat="45.79871" lon="2.98681">
        <ele>965</ele>
        <time>2012-09-15T08:14:11Z</time>
      </trkpt>
      <trkpt lat="45.79873" lon="2.98694">
        <ele>965</ele>
        <time>2012-09-15T08:14:13Z</time>
      </trkpt>
      <trkpt lat="45.79871" lon="2.98709">
        <ele>965</ele>
        <time>2012-09-15T08:14:15Z</time>
      </trkpt>
      <trkpt lat="45.79865" lon="2.98721">
        <ele>965</ele>
        <time>2012-09-15T08:14:17Z</time>
      </trkpt>
      <trkpt lat="45.79857" lon="2.98728">
        <ele>966</ele>
        <time>2012-09-15T08:14:19Z</time>
      </trkpt>
      <trkpt lat="45.7985" lon="2.98735">
        <ele>968</ele>
        <time>2012-09-15T08:14:21Z</time>
      </trkpt>
      <trkpt lat="45.79842" lon="2.98742">
        <ele>970</ele>
        <time>2012-09-15T08:14:23Z</time>
      </trkpt>
      <trkpt lat="45.79834" lon="2.98748">
        <ele>972</ele>
        <time>2012-09-15T08:14:25Z</time>
      </trkpt>
      <trkpt lat="45.79829" lon="2.98754">
        <ele>974</ele>
        <time>2012-09-15T08:14:27Z</time>
      </trkpt>
      <trkpt lat="45.79823" lon="2.9876">
        <ele>975</ele>
        <time>2012-09-15T08:14:29Z</time>
      </trkpt>
      <trkpt lat="45.79818" lon="2.98769">
        <ele>976</ele>
        <time>2012-09-15T08:14:31Z</time>
      </trkpt>
      <trkpt lat="45.79815" lon="2.98779">
        <ele>977</ele>
        <time>2012-09-15T08:14:33Z</time>
      </trkpt>
      <trkpt lat="45.79815" lon="2.9879">
        <ele>977</ele>
        <time>2012-09-15T08:14:35Z</time>
      </trkpt>
      <trkpt lat="45.79818" lon="2.98801">
        <ele>977</ele>
        <time>2012-09-15T08:14:37Z</time>
      </trkpt>
      <trkpt lat="45.79822" lon="2.98813">
        <ele>977</ele>
        <time>2012-09-15T08:14:39Z</time>
      </trkpt>
      <trkpt lat="45.79827" lon="2.98826">
        <ele>977</ele>
        <time>2012-09-15T08:14:41Z</time>
      </trkpt>
      <trkpt lat="45.79833" lon="2.98839">
        <ele>977</ele>
        <time>2012-09-15T08:14:43Z</time>
      </trkpt>
      <trkpt lat="45.79838" lon="2.98855">
        <ele>977</ele>
        <time>2012-09-15T08:14:45Z</time>
      </trkpt>
      <trkpt lat="45.79842" lon="2.98871">
        <ele>976</ele>
        <time>2012-09-15T08:14:47Z</time>
      </trkpt>
      <trkpt lat="45.79846" lon="2.98886">
        <ele>976</ele>
        <time>2012-09-15T08:14:49Z</time>
      </trkpt>
      <trkpt lat="45.79845" lon="2.98896">
        <ele>975</ele>
        <time>2012-09-15T08:14:51Z</time>
      </trkpt>
      <trkpt lat="45.79838" lon="2.98897">
        <ele>975</ele>
        <time>2012-09-15T08:14:53Z</time>
      </trkpt>
      <trkpt lat="45.7983" lon="2.98887">
        <ele>973</ele>
        <time>2012-09-15T08:14:55Z</time>
      </trkpt>
      <trkpt lat="45.79821" lon="2.9888">
        <ele>972</ele>
        <time>2012-09-15T08:14:57Z</time>
      </trkpt>
      <trkpt lat="45.7981" lon="2.98876">
        <ele>971</ele>
        <time>2012-09-15T08:14:59Z</time>
      </trkpt>
      <trkpt lat="45.79799" lon="2.98876">
        <ele>969</ele>
        <time>2012-09-15T08:15:01Z</time>
      </trkpt>
      <trkpt lat="45.79784" lon="2.98878">
        <ele>967</ele>
        <time>2012-09-15T08:15:03Z</time>
      </trkpt>
      <trkpt lat="45.79768" lon="2.98879">
        <ele>965</ele>
        <time>2012-09-15T08:15:05Z</time>
      </trkpt>
      <trkpt lat="45.79752" lon="2.98872">
        <ele>963</ele>
        <time>2012-09-15T08:15:07Z</time>
      </trkpt>
      <trkpt lat="45.79739" lon="2.98866">
        <ele>961</ele>
        <time>2012-09-15T08:15:09Z</time>
      </trkpt>
      <trkpt lat="45.79725" lon="2.98861">
        <ele>959</ele>
        <time>2012-09-15T08:15:11Z</time>
      </trkpt>
      <trkpt lat="45.79711" lon="2.98858">
        <ele>957</ele>
        <time>2012-09-15T08:15:13Z</time>
      </trkpt>
      <trkpt lat="45.797" lon="2.98849">
        <ele>955</ele>
        <time>2012-09-15T08:15:15Z</time>
      </trkpt>
      <trkpt lat="45.79696" lon="2.98832">
        <ele>953</ele>
        <time>2012-09-15T08:15:17Z</time>
      </trkpt>
      <trkpt lat="45.79691" lon="2.98813">
        <ele>951</ele>
        <time>2012-09-15T08:15:19Z</time>
      </trkpt>
      <trkpt lat="45.79685" lon="2.98798">
        <ele>949</ele>
        <time>2012-09-15T08:15:21Z</time>
      </trkpt>
      <trkpt lat="45.79676" lon="2.98788">
        <ele>948</ele>
        <time>2012-09-15T08:15:23Z</time>
      </trkpt>
      <trkpt lat="45.79665" lon="2.98781">
        <ele>947</ele>
        <time>2012-09-15T08:15:25Z</time>
      </trkpt>
      <trkpt lat="45.79654" lon="2.98775">
        <ele>946</ele>
        <time>2012-09-15T08:15:27Z</time>
      </trkpt>
      <trkpt lat="45.79642" lon="2.98769">
        <ele>945</ele>
        <time>2012-09-15T08:15:29Z</time>
      </trkpt>
      <trkpt lat="45.79628" lon="2.98764">
        <ele>944</ele>
        <time>2012-09-15T08:15:31Z</time>
      </trkpt>
      <trkpt lat="45.79617" lon="2.98761">
        <ele>942</ele>
        <time>2012-09-15T08:15:33Z</time>
      </trkpt>
      <trkpt lat="45.79605" lon="2.98755">
        <ele>941</ele>
        <time>2012-09-15T08:15:35Z</time>
      </trkpt>
      <trkpt lat="45.79593" lon="2.9875">
        <ele>939</ele>
        <time>2012-09-15T08:15:37Z</time>
      </trkpt>
      <trkpt lat="45.79579" lon="2.98746">
        <ele>939</ele>
        <time>2012-09-15T08:15:39Z</time>
      </trkpt>
      <trkpt lat="45.79566" lon="2.98745">
        <ele>939</ele>
        <time>2012-09-15T08:15:41Z</time>
      </trkpt>
      <trkpt lat="45.79551" lon="2.98748">
        <ele>939</ele>
        <time>2012-09-15T08:15:43Z</time>
      </trkpt>
      <trkpt lat="45.79537" lon="2.98753">
        <ele>939</ele>
        <time>2012-09-15T08:15:45Z</time>
      </trkpt>
      <trkpt lat="45.79523" lon="2.98759">
        <ele>941</ele>
        <time>2012-09-15T08:15:47Z</time>
      </trkpt>
      <trkpt lat="45.79508" lon="2.98762">
        <ele>942</ele>
        <time>2012-09-15T08:15:49Z</time>
      </trkpt>
      <trkpt lat="45.79493" lon="2.98757">
        <ele>942</ele>
        <time>2012-09-15T08:15:51Z</time>
      </trkpt>
      <trkpt lat="45.7948" lon="2.98746">
        <ele>943</ele>
        <time>2012-09-15T08:15:53Z</time>
      </trkpt>
      <trkpt lat="45.79469" lon="2.98733">
        <ele>943</ele>
        <time>2012-09-15T08:15:55Z</time>
      </trkpt>
      <trkpt lat="45.79458" lon="2.9872">
        <ele>943</ele>
        <time>2012-09-15T08:15:57Z</time>
      </trkpt>
      <trkpt lat="45.79448" lon="2.98707">
        <ele>943</ele>
        <time>2012-09-15T08:15:59Z</time>
      </trkpt>
      <trkpt lat="45.79438" lon="2.98696">
        <ele>943</ele>
        <time>2012-09-15T08:16:01Z</time>
      </trkpt>
      <trkpt lat="45.79428" lon="2.98687">
        <ele>943</ele>
        <time>2012-09-15T08:16:03Z</time>
      </trkpt>
      <trkpt lat="45.79418" lon="2.98678">
        <ele>943</ele>
        <time>2012-09-15T08:16:05Z</time>
      </trkpt>
      <trkpt lat="45.7941" lon="2.98664">
        <ele>943</ele>
        <time>2012-09-15T08:16:07Z</time>
      </trkpt>
      <trkpt lat="45.79404" lon="2.9865">
        <ele>943</ele>
        <time>2012-09-15T08:16:09Z</time>
      </trkpt>
      <trkpt lat="45.79396" lon="2.98636">
        <ele>941</ele>
        <time>2012-09-15T08:16:11Z</time>
      </trkpt>
      <trkpt lat="45.79387" lon="2.98626">
        <ele>940</ele>
        <time>2012-09-15T08:16:13Z</time>
      </trkpt>
      <trkpt lat="45.79376" lon="2.9862">
        <ele>940</ele>
        <time>2012-09-15T08:16:15Z</time>
      </trkpt>
      <trkpt lat="45.79366" lon="2.98614">
        <ele>940</ele>
        <time>2012-09-15T08:16:17Z</time>
      </trkpt>
      <trkpt lat="45.79356" lon="2.98608">
        <ele>940</ele>
        <time>2012-09-15T08:16:19Z</time>
      </trkpt>
      <trkpt lat="45.79345" lon="2.98601">
        <ele>940</ele>
        <time>2012-09-15T08:16:21Z</time>
      </trkpt>
      <trkpt lat="45.79333" lon="2.98594">
        <ele>939</ele>
        <time>2012-09-15T08:16:23Z</time>
      </trkpt>
      <trkpt lat="45.79322" lon="2.98588">
        <ele>939</ele>
        <time>2012-09-15T08:16:25Z</time>
      </trkpt>
      <trkpt lat="45.7931" lon="2.98583">
        <ele>938</ele>
        <time>2012-09-15T08:16:27Z</time>
      </trkpt>
      <trkpt lat="45.79299" lon="2.98577">
        <ele>938</ele>
        <time>2012-09-15T08:16:29Z</time>
      </trkpt>
      <trkpt lat="45.79288" lon="2.98574">
        <ele>938</ele>
        <time>2012-09-15T08:16:31Z</time>
      </trkpt>
      <trkpt lat="45.79279" lon="2.9857">
        <ele>938</ele>
        <time>2012-09-15T08:16:33Z</time>
      </trkpt>
      <trkpt lat="45.79268" lon="2.98567">
        <ele>938</ele>
        <time>2012-09-15T08:16:35Z</time>
      </trkpt>
      <trkpt lat="45.79258" lon="2.98563">
        <ele>938</ele>
        <time>2012-09-15T08:16:37Z</time>
      </trkpt>
      <trkpt lat="45.79247" lon="2.98559">
        <ele>938</ele>
        <time>2012-09-15T08:16:39Z</time>
      </trkpt>
      <trkpt lat="45.79238" lon="2.98554">
        <ele>938</ele>
        <time>2012-09-15T08:16:41Z</time>
      </trkpt>
      <trkpt lat="45.79227" lon="2.9855">
        <ele>938</ele>
        <time>2012-09-15T08:16:43Z</time>
      </trkpt>
      <trkpt lat="45.79216" lon="2.98545">
        <ele>938</ele>
        <time>2012-09-15T08:16:45Z</time>
      </trkpt>
      <trkpt lat="45.79205" lon="2.9854">
        <ele>938</ele>
        <time>2012-09-15T08:16:47Z</time>
      </trkpt>
      <trkpt lat="45.79193" lon="2.98535">
        <ele>938</ele>
        <time>2012-09-15T08:16:49Z</time>
      </trkpt>
      <trkpt lat="45.79182" lon="2.9853">
        <ele>937</ele>
        <time>2012-09-15T08:16:51Z</time>
      </trkpt>
      <trkpt lat="45.7917" lon="2.98525">
        <ele>937</ele>
        <time>2012-09-15T08:16:53Z</time>
      </trkpt>
      <trkpt lat="45.79156" lon="2.98521">
        <ele>936</ele>
        <time>2012-09-15T08:16:55Z</time>
      </trkpt>
      <trkpt lat="45.79144" lon="2.98518">
        <ele>936</ele>
        <time>2012-09-15T08:16:57Z</time>
      </trkpt>
      <trkpt lat="45.7913" lon="2.98516">
        <ele>936</ele>
        <time>2012-09-15T08:16:59Z</time>
      </trkpt>
      <trkpt lat="45.79118" lon="2.98514">
        <ele>936</ele>
        <time>2012-09-15T08:17:01Z</time>
      </trkpt>
      <trkpt lat="45.79106" lon="2.98511">
        <ele>936</ele>
        <time>2012-09-15T08:17:03Z</time>
      </trkpt>
      <trkpt lat="45.79094" lon="2.98506">
        <ele>936</ele>
        <time>2012-09-15T08:17:05Z</time>
      </trkpt>
      <trkpt lat="45.79083" lon="2.98504">
        <ele>936</ele>
        <time>2012-09-15T08:17:07Z</time>
      </trkpt>
      <trkpt lat="45.79072" lon="2.98503">
        <ele>936</ele>
        <time>2012-09-15T08:17:09Z</time>
      </trkpt>
      <trkpt lat="45.79061" lon="2.98501">
        <ele>936</ele>
        <time>2012-09-15T08:17:11Z</time>
      </trkpt>
      <trkpt lat="45.79052" lon="2.98498">
        <ele>936</ele>
        <time>2012-09-15T08:17:13Z</time>
      </trkpt>
      <trkpt lat="45.79041" lon="2.98498">
        <ele>936</ele>
        <time>2012-09-15T08:17:15Z</time>
      </trkpt>
      <trkpt lat="45.79029" lon="2.98497">
        <ele>936</ele>
        <time>2012-09-15T08:17:17Z</time>
      </trkpt>
      <trkpt lat="45.79018" lon="2.98494">
        <ele>936</ele>
        <time>2012-09-15T08:17:19Z</time>
      </trkpt>
      <trkpt lat="45.79007" lon="2.98491">
        <ele>936</ele>
        <time>2012-09-15T08:17:21Z</time>
      </trkpt>
      <trkpt lat="45.78996" lon="2.98488">
        <ele>936</ele>
        <time>2012-09-15T08:17:23Z</time>
      </trkpt>
      <trkpt lat="45.78985" lon="2.98486">
        <ele>936</ele>
        <time>2012-09-15T08:17:25Z</time>
      </trkpt>
      <trkpt lat="45.78974" lon="2.98484">
        <ele>936</ele>
        <time>2012-09-15T08:17:27Z</time>
      </trkpt>
      <trkpt lat="45.78964" lon="2.98481">
        <ele>936</ele>
        <time>2012-09-15T08:17:29Z</time>
      </trkpt>
      <trkpt lat="45.78954" lon="2.98477">
        <ele>936</ele>
        <time>2012-09-15T08:17:31Z</time>
      </trkpt>
      <trkpt lat="45.78943" lon="2.98475">
        <ele>936</ele>
        <time>2012-09-15T08:17:33Z</time>
      </trkpt>
      <trkpt lat="45.78931" lon="2.98473">
        <ele>936</ele>
        <time>2012-09-15T08:17:35Z</time>
      </trkpt>
      <trkpt lat="45.7892" lon="2.9847">
        <ele>936</ele>
        <time>2012-09-15T08:17:37Z</time>
      </trkpt>
      <trkpt lat="45.78909" lon="2.98468">
        <ele>936</ele>
        <time>2012-09-15T08:17:39Z</time>
      </trkpt>
      <trkpt lat="45.78899" lon="2.98463">
        <ele>936</ele>
        <time>2012-09-15T08:17:41Z</time>
      </trkpt>
      <trkpt lat="45.78887" lon="2.9846">
        <ele>936</ele>
        <time>2012-09-15T08:17:43Z</time>
      </trkpt>
      <trkpt lat="45.78875" lon="2.98455">
        <ele>936</ele>
        <time>2012-09-15T08:17:45Z</time>
      </trkpt>
      <trkpt lat="45.78864" lon="2.98453">
        <ele>936</ele>
        <time>2012-09-15T08:17:47Z</time>
      </trkpt>
      <trkpt lat="45.78856" lon="2.9846">
        <ele>936</ele>
        <time>2012-09-15T08:17:49Z</time>
      </trkpt>
      <trkpt lat="45.78851" lon="2.98472">
        <ele>936</ele>
        <time>2012-09-15T08:17:51Z</time>
      </trkpt>
      <trkpt lat="45.78844" lon="2.98486">
        <ele>936</ele>
        <time>2012-09-15T08:17:53Z</time>
      </trkpt>
      <trkpt lat="45.78838" lon="2.985">
        <ele>937</ele>
        <time>2012-09-15T08:17:55Z</time>
      </trkpt>
      <trkpt lat="45.7883" lon="2.98515">
        <ele>939</ele>
        <time>2012-09-15T08:17:57Z</time>
      </trkpt>
      <trkpt lat="45.78823" lon="2.98527">
        <ele>941</ele>
        <time>2012-09-15T08:17:59Z</time>
      </trkpt>
      <trkpt lat="45.78815" lon="2.98539">
        <ele>943</ele>
        <time>2012-09-15T08:18:01Z</time>
      </trkpt>
      <trkpt lat="45.78809" lon="2.98552">
        <ele>945</ele>
        <time>2012-09-15T08:18:03Z</time>
      </trkpt>
      <trkpt lat="45.78804" lon="2.98564">
        <ele>947</ele>
        <time>2012-09-15T08:18:05Z</time>
      </trkpt>
      <trkpt lat="45.788" lon="2.98577">
        <ele>949</ele>
        <time>2012-09-15T08:18:07Z</time>
      </trkpt>
      <trkpt lat="45.78798" lon="2.9859">
        <ele>951</ele>
        <time>2012-09-15T08:18:09Z</time>
      </trkpt>
      <trkpt lat="45.78797" lon="2.98604">
        <ele>953</ele>
        <time>2012-09-15T08:18:11Z</time>
      </trkpt>
      <trkpt lat="45.78797" lon="2.98617">
        <ele>955</ele>
        <time>2012-09-15T08:18:13Z</time>
      </trkpt>
      <trkpt lat="45.78797" lon="2.9863">
        <ele>957</ele>
        <time>2012-09-15T08:18:15Z</time>
      </trkpt>
      <trkpt lat="45.78796" lon="2.98643">
        <ele>958</ele>
        <time>2012-09-15T08:18:17Z</time>
      </trkpt>
      <trkpt lat="45.78793" lon="2.98656">
        <ele>960</ele>
        <time>2012-09-15T08:18:19Z</time>
      </trkpt>
      <trkpt lat="45.78792" lon="2.98669">
        <ele>962</ele>
        <time>2012-09-15T08:18:21Z</time>
      </trkpt>
      <trkpt lat="45.7879" lon="2.9868">
        <ele>963</ele>
        <time>2012-09-15T08:18:23Z</time>
      </trkpt>
      <trkpt lat="45.7879" lon="2.98692">
        <ele>963</ele>
        <time>2012-09-15T08:18:25Z</time>
      </trkpt>
      <trkpt lat="45.7879" lon="2.98704">
        <ele>963</ele>
        <time>2012-09-15T08:18:27Z</time>
      </trkpt>
      <trkpt lat="45.78792" lon="2.98718">
        <ele>963</ele>
        <time>2012-09-15T08:18:29Z</time>
      </trkpt>
      <trkpt lat="45.78794" lon="2.98734">
        <ele>963</ele>
        <time>2012-09-15T08:18:31Z</time>
      </trkpt>
      <trkpt lat="45.78795" lon="2.9875">
        <ele>961</ele>
        <time>2012-09-15T08:18:33Z</time>
      </trkpt>
      <trkpt lat="45.78793" lon="2.98766">
        <ele>959</ele>
        <time>2012-09-15T08:18:35Z</time>
      </trkpt>
      <trkpt lat="45.78789" lon="2.98781">
        <ele>957</ele>
        <time>2012-09-15T08:18:37Z</time>
      </trkpt>
      <trkpt lat="45.78784" lon="2.98793">
        <ele>955</ele>
        <time>2012-09-15T08:18:39Z</time>
      </trkpt>
      <trkpt lat="45.7878" lon="2.98805">
        <ele>955</ele>
        <time>2012-09-15T08:18:41Z</time>
      </trkpt>
      <trkpt lat="45.7878" lon="2.98817">
        <ele>955</ele>
        <time>2012-09-15T08:18:43Z</time>
      </trkpt>
      <trkpt lat="45.78781" lon="2.98834">
        <ele>954</ele>
        <time>2012-09-15T08:18:45Z</time>
      </trkpt>
      <trkpt lat="45.78783" lon="2.98853">
        <ele>953</ele>
        <time>2012-09-15T08:18:47Z</time>
      </trkpt>
      <trkpt lat="45.78783" lon="2.98871">
        <ele>953</ele>
        <time>2012-09-15T08:18:49Z</time>
      </trkpt>
      <trkpt lat="45.78783" lon="2.98888">
        <ele>953</ele>
        <time>2012-09-15T08:18:51Z</time>
      </trkpt>
      <trkpt lat="45.78784" lon="2.98905">
        <ele>953</ele>
        <time>2012-09-15T08:18:53Z</time>
      </trkpt>
      <trkpt lat="45.78788" lon="2.98921">
        <ele>953</ele>
        <time>2012-09-15T08:18:55Z</time>
      </trkpt>
      <trkpt lat="45.78793" lon="2.98937">
        <ele>953</ele>
        <time>2012-09-15T08:18:57Z</time>
      </trkpt>
      <trkpt lat="45.78799" lon="2.98954">
        <ele>951</ele>
        <time>2012-09-15T08:18:59Z</time>
      </trkpt>
      <trkpt lat="45.78806" lon="2.98971">
        <ele>949</ele>
        <time>2012-09-15T08:19:01Z</time>
      </trkpt>
      <trkpt lat="45.78814" lon="2.98988">
        <ele>947</ele>
        <time>2012-09-15T08:19:03Z</time>
      </trkpt>
      <trkpt lat="45.78822" lon="2.99005">
        <ele>945</ele>
        <time>2012-09-15T08:19:05Z</time>
      </trkpt>
      <trkpt lat="45.7883" lon="2.99021">
        <ele>943</ele>
        <time>2012-09-15T08:19:07Z</time>
      </trkpt>
      <trkpt lat="45.78836" lon="2.99039">
        <ele>941</ele>
        <time>2012-09-15T08:19:09Z</time>
      </trkpt>
      <trkpt lat="45.7884" lon="2.99058">
        <ele>941</ele>
        <time>2012-09-15T08:19:11Z</time>
      </trkpt>
      <trkpt lat="45.78842" lon="2.9908">
        <ele>941</ele>
        <time>2012-09-15T08:19:13Z</time>
      </trkpt>
      <trkpt lat="45.78844" lon="2.99103">
        <ele>940</ele>
        <time>2012-09-15T08:19:15Z</time>
      </trkpt>
      <trkpt lat="45.78845" lon="2.99128">
        <ele>939</ele>
        <time>2012-09-15T08:19:17Z</time>
      </trkpt>
      <trkpt lat="45.78842" lon="2.99154">
        <ele>938</ele>
        <time>2012-09-15T08:19:19Z</time>
      </trkpt>
      <trkpt lat="45.78837" lon="2.9918">
        <ele>937</ele>
        <time>2012-09-15T08:19:21Z</time>
      </trkpt>
      <trkpt lat="45.78826" lon="2.99203">
        <ele>936</ele>
        <time>2012-09-15T08:19:23Z</time>
      </trkpt>
      <trkpt lat="45.78814" lon="2.99226">
        <ele>935</ele>
        <time>2012-09-15T08:19:25Z</time>
      </trkpt>
      <trkpt lat="45.78802" lon="2.9925">
        <ele>934</ele>
        <time>2012-09-15T08:19:27Z</time>
      </trkpt>
      <trkpt lat="45.78789" lon="2.99269">
        <ele>933</ele>
        <time>2012-09-15T08:19:29Z</time>
      </trkpt>
      <trkpt lat="45.78774" lon="2.99278">
        <ele>932</ele>
        <time>2012-09-15T08:19:31Z</time>
      </trkpt>
      <trkpt lat="45.78757" lon="2.99283">
        <ele>930</ele>
        <time>2012-09-15T08:19:33Z</time>
      </trkpt>
      <trkpt lat="45.78743" lon="2.99296">
        <ele>928</ele>
        <time>2012-09-15T08:19:35Z</time>
      </trkpt>
      <trkpt lat="45.78732" lon="2.99314">
        <ele>926</ele>
        <time>2012-09-15T08:19:37Z</time>
      </trkpt>
      <trkpt lat="45.78723" lon="2.99336">
        <ele>926</ele>
        <time>2012-09-15T08:19:39Z</time>
      </trkpt>
      <trkpt lat="45.78709" lon="2.99356">
        <ele>926</ele>
        <time>2012-09-15T08:19:41Z</time>
      </trkpt>
      <trkpt lat="45.78695" lon="2.99373">
        <ele>925</ele>
        <time>2012-09-15T08:19:43Z</time>
      </trkpt>
      <trkpt lat="45.78677" lon="2.99386">
        <ele>923</ele>
        <time>2012-09-15T08:19:45Z</time>
      </trkpt>
      <trkpt lat="45.78661" lon="2.99396">
        <ele>921</ele>
        <time>2012-09-15T08:19:47Z</time>
      </trkpt>
      <trkpt lat="45.78646" lon="2.99409">
        <ele>919</ele>
        <time>2012-09-15T08:19:49Z</time>
      </trkpt>
      <trkpt lat="45.78636" lon="2.99423">
        <ele>917</ele>
        <time>2012-09-15T08:19:51Z</time>
      </trkpt>
      <trkpt lat="45.78627" lon="2.99433">
        <ele>915</ele>
        <time>2012-09-15T08:19:53Z</time>
      </trkpt>
      <trkpt lat="45.78614" lon="2.99442">
        <ele>913</ele>
        <time>2012-09-15T08:19:55Z</time>
      </trkpt>
      <trkpt lat="45.786" lon="2.99443">
        <ele>911</ele>
        <time>2012-09-15T08:19:57Z</time>
      </trkpt>
      <trkpt lat="45.78586" lon="2.99444">
        <ele>909</ele>
        <time>2012-09-15T08:19:59Z</time>
      </trkpt>
      <trkpt lat="45.78573" lon="2.99442">
        <ele>907</ele>
        <time>2012-09-15T08:20:01Z</time>
      </trkpt>
      <trkpt lat="45.78565" lon="2.99441">
        <ele>905</ele>
        <time>2012-09-15T08:20:03Z</time>
      </trkpt>
      <trkpt lat="45.78566" lon="2.9944">
        <ele>904</ele>
        <time>2012-09-15T08:20:06Z</time>
      </trkpt>
      <trkpt lat="45.78568" lon="2.99442">
        <ele>904</ele>
        <time>2012-09-15T08:20:08Z</time>
      </trkpt>
      <trkpt lat="45.78568" lon="2.99448">
        <ele>904</ele>
        <time>2012-09-15T08:20:10Z</time>
      </trkpt>
      <trkpt lat="45.78564" lon="2.99456">
        <ele>904</ele>
        <time>2012-09-15T08:20:12Z</time>
      </trkpt>
      <trkpt lat="45.78559" lon="2.99467">
        <ele>904</ele>
        <time>2012-09-15T08:20:14Z</time>
      </trkpt>
      <trkpt lat="45.78553" lon="2.9948">
        <ele>904</ele>
        <time>2012-09-15T08:20:16Z</time>
      </trkpt>
      <trkpt lat="45.78546" lon="2.99494">
        <ele>904</ele>
        <time>2012-09-15T08:20:18Z</time>
      </trkpt>
      <trkpt lat="45.78538" lon="2.99508">
        <ele>904</ele>
        <time>2012-09-15T08:20:20Z</time>
      </trkpt>
      <trkpt lat="45.78529" lon="2.99523">
        <ele>904</ele>
        <time>2012-09-15T08:20:22Z</time>
      </trkpt>
      <trkpt lat="45.7852" lon="2.99535">
        <ele>904</ele>
        <time>2012-09-15T08:20:24Z</time>
      </trkpt>
      <trkpt lat="45.78515" lon="2.99547">
        <ele>904</ele>
        <time>2012-09-15T08:20:26Z</time>
      </trkpt>
      <trkpt lat="45.78509" lon="2.99565">
        <ele>904</ele>
        <time>2012-09-15T08:20:28Z</time>
      </trkpt>
      <trkpt lat="45.78502" lon="2.99583">
        <ele>904</ele>
        <time>2012-09-15T08:20:30Z</time>
      </trkpt>
      <trkpt lat="45.78497" lon="2.996">
        <ele>904</ele>
        <time>2012-09-15T08:20:32Z</time>
      </trkpt>
      <trkpt lat="45.78491" lon="2.99619">
        <ele>904</ele>
        <time>2012-09-15T08:20:34Z</time>
      </trkpt>
      <trkpt lat="45.78482" lon="2.99636">
        <ele>904</ele>
        <time>2012-09-15T08:20:36Z</time>
      </trkpt>
      <trkpt lat="45.78474" lon="2.99657">
        <ele>904</ele>
        <time>2012-09-15T08:20:38Z</time>
      </trkpt>
      <trkpt lat="45.78468" lon="2.99678">
        <ele>906</ele>
        <time>2012-09-15T08:20:40Z</time>
      </trkpt>
      <trkpt lat="45.78464" lon="2.997">
        <ele>907</ele>
        <time>2012-09-15T08:20:42Z</time>
      </trkpt>
      <trkpt lat="45.78461" lon="2.99721">
        <ele>907</ele>
        <time>2012-09-15T08:20:44Z</time>
      </trkpt>
      <trkpt lat="45.78457" lon="2.99742">
        <ele>907</ele>
        <time>2012-09-15T08:20:46Z</time>
      </trkpt>
      <trkpt lat="45.78454" lon="2.99763">
        <ele>907</ele>
        <time>2012-09-15T08:20:48Z</time>
      </trkpt>
      <trkpt lat="45.78451" lon="2.99782">
        <ele>907</ele>
        <time>2012-09-15T08:20:50Z</time>
      </trkpt>
      <trkpt lat="45.78446" lon="2.99802">
        <ele>906</ele>
        <time>2012-09-15T08:20:52Z</time>
      </trkpt>
      <trkpt lat="45.7844" lon="2.99822">
        <ele>905</ele>
        <time>2012-09-15T08:20:54Z</time>
      </trkpt>
      <trkpt lat="45.78438" lon="2.99841">
        <ele>905</ele>
        <time>2012-09-15T08:20:56Z</time>
      </trkpt>
      <trkpt lat="45.78439" lon="2.99865">
        <ele>905</ele>
        <time>2012-09-15T08:20:58Z</time>
      </trkpt>
      <trkpt lat="45.78441" lon="2.99889">
        <ele>905</ele>
        <time>2012-09-15T08:21:00Z</time>
      </trkpt>
      <trkpt lat="45.78442" lon="2.99914">
        <ele>905</ele>
        <time>2012-09-15T08:21:02Z</time>
      </trkpt>
      <trkpt lat="45.78442" lon="2.99937">
        <ele>905</ele>
        <time>2012-09-15T08:21:04Z</time>
      </trkpt>
      <trkpt lat="45.78443" lon="2.9996">
        <ele>904</ele>
        <time>2012-09-15T08:21:06Z</time>
      </trkpt>
      <trkpt lat="45.78446" lon="2.99985">
        <ele>902</ele>
        <time>2012-09-15T08:21:08Z</time>
      </trkpt>
      <trkpt lat="45.78447" lon="3.00009">
        <ele>900</ele>
        <time>2012-09-15T08:21:10Z</time>
      </trkpt>
      <trkpt lat="45.7845" lon="3.00034">
        <ele>898</ele>
        <time>2012-09-15T08:21:12Z</time>
      </trkpt>
      <trkpt lat="45.78453" lon="3.0006">
        <ele>897</ele>
        <time>2012-09-15T08:21:14Z</time>
      </trkpt>
      <trkpt lat="45.78454" lon="3.00085">
        <ele>897</ele>
        <time>2012-09-15T08:21:16Z</time>
      </trkpt>
      <trkpt lat="45.78454" lon="3.00113">
        <ele>896</ele>
        <time>2012-09-15T08:21:18Z</time>
      </trkpt>
      <trkpt lat="45.78455" lon="3.00139">
        <ele>895</ele>
        <time>2012-09-15T08:21:20Z</time>
      </trkpt>
      <trkpt lat="45.7845" lon="3.00167">
        <ele>893</ele>
        <time>2012-09-15T08:21:22Z</time>
      </trkpt>
      <trkpt lat="45.78442" lon="3.00191">
        <ele>892</ele>
        <time>2012-09-15T08:21:24Z</time>
      </trkpt>
      <trkpt lat="45.78435" lon="3.00218">
        <ele>890</ele>
        <time>2012-09-15T08:21:26Z</time>
      </trkpt>
      <trkpt lat="45.78431" lon="3.00246">
        <ele>889</ele>
        <time>2012-09-15T08:21:28Z</time>
      </trkpt>
      <trkpt lat="45.78423" lon="3.00273">
        <ele>889</ele>
        <time>2012-09-15T08:21:30Z</time>
      </trkpt>
      <trkpt lat="45.78417" lon="3.00301">
        <ele>889</ele>
        <time>2012-09-15T08:21:32Z</time>
      </trkpt>
      <trkpt lat="45.78413" lon="3.00328">
        <ele>888</ele>
        <time>2012-09-15T08:21:34Z</time>
      </trkpt>
      <trkpt lat="45.78407" lon="3.00355">
        <ele>886</ele>
        <time>2012-09-15T08:21:36Z</time>
      </trkpt>
      <trkpt lat="45.784" lon="3.00382">
        <ele>884</ele>
        <time>2012-09-15T08:21:38Z</time>
      </trkpt>
      <trkpt lat="45.78396" lon="3.00408">
        <ele>882</ele>
        <time>2012-09-15T08:21:40Z</time>
      </trkpt>
      <trkpt lat="45.78395" lon="3.00435">
        <ele>880</ele>
        <time>2012-09-15T08:21:42Z</time>
      </trkpt>
      <trkpt lat="45.78393" lon="3.0046">
        <ele>878</ele>
        <time>2012-09-15T08:21:44Z</time>
      </trkpt>
      <trkpt lat="45.78393" lon="3.00481">
        <ele>877</ele>
        <time>2012-09-15T08:21:46Z</time>
      </trkpt>
      <trkpt lat="45.78395" lon="3.00505">
        <ele>876</ele>
        <time>2012-09-15T08:21:48Z</time>
      </trkpt>
      <trkpt lat="45.78397" lon="3.00532">
        <ele>875</ele>
        <time>2012-09-15T08:21:50Z</time>
      </trkpt>
      <trkpt lat="45.78399" lon="3.00558">
        <ele>873</ele>
        <time>2012-09-15T08:21:52Z</time>
      </trkpt>
      <trkpt lat="45.78403" lon="3.00581">
        <ele>872</ele>
        <time>2012-09-15T08:21:54Z</time>
      </trkpt>
      <trkpt lat="45.78408" lon="3.00605">
        <ele>870</ele>
        <time>2012-09-15T08:21:56Z</time>
      </trkpt>
      <trkpt lat="45.78412" lon="3.00627">
        <ele>869</ele>
        <time>2012-09-15T08:21:58Z</time>
      </trkpt>
      <trkpt lat="45.78413" lon="3.00649">
        <ele>868</ele>
        <time>2012-09-15T08:22:00Z</time>
      </trkpt>
      <trkpt lat="45.78414" lon="3.00666">
        <ele>866</ele>
        <time>2012-09-15T08:22:02Z</time>
      </trkpt>
      <trkpt lat="45.78416" lon="3.00688">
        <ele>864</ele>
        <time>2012-09-15T08:22:04Z</time>
      </trkpt>
      <trkpt lat="45.78418" lon="3.0071">
        <ele>862</ele>
        <time>2012-09-15T08:22:06Z</time>
      </trkpt>
      <trkpt lat="45.78418" lon="3.00731">
        <ele>862</ele>
        <time>2012-09-15T08:22:08Z</time>
      </trkpt>
      <trkpt lat="45.78413" lon="3.00751">
        <ele>862</ele>
        <time>2012-09-15T08:22:10Z</time>
      </trkpt>
      <trkpt lat="45.78411" lon="3.00769">
        <ele>862</ele>
        <time>2012-09-15T08:22:12Z</time>
      </trkpt>
      <trkpt lat="45.78417" lon="3.00788">
        <ele>861</ele>
        <time>2012-09-15T08:22:14Z</time>
      </trkpt>
      <trkpt lat="45.78421" lon="3.00811">
        <ele>860</ele>
        <time>2012-09-15T08:22:16Z</time>
      </trkpt>
      <trkpt lat="45.78425" lon="3.00835">
        <ele>858</ele>
        <time>2012-09-15T08:22:18Z</time>
      </trkpt>
      <trkpt lat="45.78427" lon="3.00861">
        <ele>856</ele>
        <time>2012-09-15T08:22:20Z</time>
      </trkpt>
      <trkpt lat="45.78429" lon="3.00885">
        <ele>854</ele>
        <time>2012-09-15T08:22:22Z</time>
      </trkpt>
      <trkpt lat="45.78428" lon="3.00911">
        <ele>852</ele>
        <time>2012-09-15T08:22:24Z</time>
      </trkpt>
      <trkpt lat="45.78428" lon="3.00937">
        <ele>852</ele>
        <time>2012-09-15T08:22:26Z</time>
      </trkpt>
      <trkpt lat="45.78429" lon="3.0096">
        <ele>852</ele>
        <time>2012-09-15T08:22:28Z</time>
      </trkpt>
      <trkpt lat="45.7843" lon="3.00982">
        <ele>851</ele>
        <time>2012-09-15T08:22:30Z</time>
      </trkpt>
      <trkpt lat="45.7843" lon="3.01007">
        <ele>849</ele>
        <time>2012-09-15T08:22:32Z</time>
      </trkpt>
      <trkpt lat="45.78429" lon="3.01034">
        <ele>847</ele>
        <time>2012-09-15T08:22:34Z</time>
      </trkpt>
      <trkpt lat="45.78427" lon="3.01063">
        <ele>845</ele>
        <time>2012-09-15T08:22:36Z</time>
      </trkpt>
      <trkpt lat="45.78424" lon="3.01092">
        <ele>843</ele>
        <time>2012-09-15T08:22:38Z</time>
      </trkpt>
      <trkpt lat="45.78422" lon="3.01121">
        <ele>841</ele>
        <time>2012-09-15T08:22:40Z</time>
      </trkpt>
      <trkpt lat="45.78421" lon="3.01148">
        <ele>839</ele>
        <time>2012-09-15T08:22:42Z</time>
      </trkpt>
      <trkpt lat="45.78423" lon="3.01171">
        <ele>838</ele>
        <time>2012-09-15T08:22:44Z</time>
      </trkpt>
      <trkpt lat="45.78424" lon="3.01189">
        <ele>837</ele>
        <time>2012-09-15T08:22:46Z</time>
      </trkpt>
      <trkpt lat="45.78424" lon="3.012">
        <ele>837</ele>
        <time>2012-09-15T08:22:48Z</time>
      </trkpt>
      <trkpt lat="45.78424" lon="3.01207">
        <ele>837</ele>
        <time>2012-09-15T08:22:50Z</time>
      </trkpt>
      <trkpt lat="45.78424" lon="3.0121">
        <ele>837</ele>
        <time>2012-09-15T08:22:55Z</time>
      </trkpt>
      <trkpt lat="45.78423" lon="3.01212">
        <ele>837</ele>
        <time>2012-09-15T08:23:01Z</time>
      </trkpt>
      <trkpt lat="45.78422" lon="3.01214">
        <ele>837</ele>
        <time>2012-09-15T08:23:04Z</time>
      </trkpt>
      <trkpt lat="45.78421" lon="3.01216">
        <ele>836</ele>
        <time>2012-09-15T08:23:09Z</time>
      </trkpt>
      <trkpt lat="45.78421" lon="3.01218">
        <ele>836</ele>
        <time>2012-09-15T08:23:13Z</time>
      </trkpt>
      <trkpt lat="45.7842" lon="3.0122">
        <ele>835</ele>
        <time>2012-09-15T08:23:15Z</time>
      </trkpt>
      <trkpt lat="45.7842" lon="3.01222">
        <ele>835</ele>
        <time>2012-09-15T08:23:17Z</time>
      </trkpt>
      <trkpt lat="45.78419" lon="3.01222">
        <ele>834</ele>
        <time>2012-09-15T08:23:20Z</time>
      </trkpt>
      <trkpt lat="45.78418" lon="3.01223">
        <ele>834</ele>
        <time>2012-09-15T08:23:22Z</time>
      </trkpt>
      <trkpt lat="45.78417" lon="3.01224">
        <ele>834</ele>
        <time>2012-09-15T08:23:24Z</time>
      </trkpt>
      <trkpt lat="45.78418" lon="3.01223">
        <ele>833</ele>
        <time>2012-09-15T08:23:35Z</time>
      </trkpt>
      <trkpt lat="45.78418" lon="3.01225">
        <ele>833</ele>
        <time>2012-09-15T08:23:39Z</time>
      </trkpt>
      <trkpt lat="45.78418" lon="3.01226">
        <ele>833</ele>
        <time>2012-09-15T08:23:46Z</time>
      </trkpt>
      <trkpt lat="45.78418" lon="3.01228">
        <ele>833</ele>
        <time>2012-09-15T08:23:51Z</time>
      </trkpt>
      <trkpt lat="45.78416" lon="3.0123">
        <ele>833</ele>
        <time>2012-09-15T08:23:59Z</time>
      </trkpt>
      <trkpt lat="45.78414" lon="3.0123">
        <ele>833</ele>
        <time>2012-09-15T08:24:01Z</time>
      </trkpt>
      <trkpt lat="45.78413" lon="3.01232">
        <ele>833</ele>
        <time>2012-09-15T08:24:03Z</time>
      </trkpt>
      <trkpt lat="45.78411" lon="3.01232">
        <ele>832</ele>
        <time>2012-09-15T08:24:05Z</time>
      </trkpt>
      <trkpt lat="45.78409" lon="3.01233">
        <ele>832</ele>
        <time>2012-09-15T08:24:07Z</time>
      </trkpt>
      <trkpt lat="45.78409" lon="3.01231">
        <ele>832</ele>
        <time>2012-09-15T08:24:10Z</time>
      </trkpt>
      <trkpt lat="45.7841" lon="3.0123">
        <ele>831</ele>
        <time>2012-09-15T08:24:14Z</time>
      </trkpt>
      <trkpt lat="45.78412" lon="3.01229">
        <ele>831</ele>
        <time>2012-09-15T08:24:17Z</time>
      </trkpt>
      <trkpt lat="45.78413" lon="3.01228">
        <ele>831</ele>
        <time>2012-09-15T08:24:26Z</time>
      </trkpt>
      <trkpt lat="45.7843" lon="3.0121">
        <ele>827</ele>
        <time>2012-09-15T08:24:33Z</time>
      </trkpt>
      <trkpt lat="45.78429" lon="3.01206">
        <ele>827</ele>
        <time>2012-09-15T08:24:38Z</time>
      </trkpt>
      <trkpt lat="45.78421" lon="3.01201">
        <ele>827</ele>
        <time>2012-09-15T08:24:43Z</time>
      </trkpt>
      <trkpt lat="45.78407" lon="3.01193">
        <ele>827</ele>
        <time>2012-09-15T08:24:48Z</time>
      </trkpt>
      <trkpt lat="45.78393" lon="3.01188">
        <ele>830</ele>
        <time>2012-09-15T08:24:53Z</time>
      </trkpt>
      <trkpt lat="45.78377" lon="3.01188">
        <ele>832</ele>
        <time>2012-09-15T08:24:58Z</time>
      </trkpt>
      <trkpt lat="45.78362" lon="3.01187">
        <ele>836</ele>
        <time>2012-09-15T08:25:03Z</time>
      </trkpt>
      <trkpt lat="45.78348" lon="3.0118">
        <ele>838</ele>
        <time>2012-09-15T08:25:08Z</time>
      </trkpt>
      <trkpt lat="45.78333" lon="3.01172">
        <ele>838</ele>
        <time>2012-09-15T08:25:13Z</time>
      </trkpt>
      <trkpt lat="45.78316" lon="3.01167">
        <ele>838</ele>
        <time>2012-09-15T08:25:18Z</time>
      </trkpt>
      <trkpt lat="45.78307" lon="3.01193">
        <ele>838</ele>
        <time>2012-09-15T08:25:23Z</time>
      </trkpt>
      <trkpt lat="45.78284" lon="3.01191">
        <ele>836</ele>
        <time>2012-09-15T08:25:28Z</time>
      </trkpt>
      <trkpt lat="45.78254" lon="3.01177">
        <ele>834</ele>
        <time>2012-09-15T08:25:33Z</time>
      </trkpt>
      <trkpt lat="45.78217" lon="3.01176">
        <ele>830</ele>
        <time>2012-09-15T08:25:38Z</time>
      </trkpt>
      <trkpt lat="45.78185" lon="3.01196">
        <ele>826</ele>
        <time>2012-09-15T08:25:43Z</time>
      </trkpt>
      <trkpt lat="45.78154" lon="3.01207">
        <ele>822</ele>
        <time>2012-09-15T08:25:48Z</time>
      </trkpt>
      <trkpt lat="45.78119" lon="3.01226">
        <ele>820</ele>
        <time>2012-09-15T08:25:53Z</time>
      </trkpt>
      <trkpt lat="45.78062" lon="3.01263">
        <ele>814</ele>
        <time>2012-09-15T08:25:59Z</time>
      </trkpt>
      <trkpt lat="45.78009" lon="3.01282">
        <ele>809</ele>
        <time>2012-09-15T08:26:04Z</time>
      </trkpt>
      <trkpt lat="45.77954" lon="3.01289">
        <ele>804</ele>
        <time>2012-09-15T08:26:09Z</time>
      </trkpt>
      <trkpt lat="45.77911" lon="3.013">
        <ele>799</ele>
        <time>2012-09-15T08:26:14Z</time>
      </trkpt>
      <trkpt lat="45.77879" lon="3.01351">
        <ele>794</ele>
        <time>2012-09-15T08:26:19Z</time>
      </trkpt>
      <trkpt lat="45.77861" lon="3.01421">
        <ele>791</ele>
        <time>2012-09-15T08:26:24Z</time>
      </trkpt>
      <trkpt lat="45.77839" lon="3.01482">
        <ele>790</ele>
        <time>2012-09-15T08:26:29Z</time>
      </trkpt>
      <trkpt lat="45.77835" lon="3.01545">
        <ele>787</ele>
        <time>2012-09-15T08:26:34Z</time>
      </trkpt>
      <trkpt lat="45.7783" lon="3.01609">
        <ele>786</ele>
        <time>2012-09-15T08:26:39Z</time>
      </trkpt>
      <trkpt lat="45.77817" lon="3.01665">
        <ele>786</ele>
        <time>2012-09-15T08:26:45Z</time>
      </trkpt>
      <trkpt lat="45.77813" lon="3.01682">
        <ele>785</ele>
        <time>2012-09-15T08:26:50Z</time>
      </trkpt>
      <trkpt lat="45.77803" lon="3.01706">
        <ele>785</ele>
        <time>2012-09-15T08:26:55Z</time>
      </trkpt>
      <trkpt lat="45.77787" lon="3.01742">
        <ele>784</ele>
        <time>2012-09-15T08:27:00Z</time>
      </trkpt>
      <trkpt lat="45.77771" lon="3.01801">
        <ele>780</ele>
        <time>2012-09-15T08:27:06Z</time>
      </trkpt>
      <trkpt lat="45.77754" lon="3.01856">
        <ele>775</ele>
        <time>2012-09-15T08:27:11Z</time>
      </trkpt>
      <trkpt lat="45.77749" lon="3.019">
        <ele>771</ele>
        <time>2012-09-15T08:27:16Z</time>
      </trkpt>
      <trkpt lat="45.77734" lon="3.01939">
        <ele>770</ele>
        <time>2012-09-15T08:27:21Z</time>
      </trkpt>
      <trkpt lat="45.77722" lon="3.01998">
        <ele>766</ele>
        <time>2012-09-15T08:27:27Z</time>
      </trkpt>
      <trkpt lat="45.77702" lon="3.02046">
        <ele>762</ele>
        <time>2012-09-15T08:27:32Z</time>
      </trkpt>
      <trkpt lat="45.77689" lon="3.02105">
        <ele>760</ele>
        <time>2012-09-15T08:27:38Z</time>
      </trkpt>
      <trkpt lat="45.77693" lon="3.02164">
        <ele>758</ele>
        <time>2012-09-15T08:27:43Z</time>
      </trkpt>
      <trkpt lat="45.77683" lon="3.02211">
        <ele>757</ele>
        <time>2012-09-15T08:27:48Z</time>
      </trkpt>
      <trkpt lat="45.77679" lon="3.02266">
        <ele>755</ele>
        <time>2012-09-15T08:27:54Z</time>
      </trkpt>
      <trkpt lat="45.77675" lon="3.0231">
        <ele>754</ele>
        <time>2012-09-15T08:27:59Z</time>
      </trkpt>
      <trkpt lat="45.77668" lon="3.02353">
        <ele>754</ele>
        <time>2012-09-15T08:28:05Z</time>
      </trkpt>
      <trkpt lat="45.77657" lon="3.02385">
        <ele>754</ele>
        <time>2012-09-15T08:28:10Z</time>
      </trkpt>
      <trkpt lat="45.77642" lon="3.02412">
        <ele>754</ele>
        <time>2012-09-15T08:28:15Z</time>
      </trkpt>
      <trkpt lat="45.77628" lon="3.02446">
        <ele>754</ele>
        <time>2012-09-15T08:28:20Z</time>
      </trkpt>
      <trkpt lat="45.77633" lon="3.02486">
        <ele>753</ele>
        <time>2012-09-15T08:28:25Z</time>
      </trkpt>
      <trkpt lat="45.7763" lon="3.02537">
        <ele>753</ele>
        <time>2012-09-15T08:28:31Z</time>
      </trkpt>
      <trkpt lat="45.77639" lon="3.02568">
        <ele>752</ele>
        <time>2012-09-15T08:28:36Z</time>
      </trkpt>
      <trkpt lat="45.77648" lon="3.02617">
        <ele>749</ele>
        <time>2012-09-15T08:28:42Z</time>
      </trkpt>
      <trkpt lat="45.77661" lon="3.02663">
        <ele>747</ele>
        <time>2012-09-15T08:28:47Z</time>
      </trkpt>
      <trkpt lat="45.77671" lon="3.02712">
        <ele>743</ele>
        <time>2012-09-15T08:28:52Z</time>
      </trkpt>
      <trkpt lat="45.7768" lon="3.02761">
        <ele>742</ele>
        <time>2012-09-15T08:28:57Z</time>
      </trkpt>
      <trkpt lat="45.77688" lon="3.02816">
        <ele>742</ele>
        <time>2012-09-15T08:29:03Z</time>
      </trkpt>
      <trkpt lat="45.77694" lon="3.0287">
        <ele>742</ele>
        <time>2012-09-15T08:29:08Z</time>
      </trkpt>
      <trkpt lat="45.77694" lon="3.02926">
        <ele>742</ele>
        <time>2012-09-15T08:29:13Z</time>
      </trkpt>
      <trkpt lat="45.77711" lon="3.02968">
        <ele>742</ele>
        <time>2012-09-15T08:29:18Z</time>
      </trkpt>
      <trkpt lat="45.77736" lon="3.03007">
        <ele>737</ele>
        <time>2012-09-15T08:29:23Z</time>
      </trkpt>
      <trkpt lat="45.77765" lon="3.0304">
        <ele>733</ele>
        <time>2012-09-15T08:29:28Z</time>
      </trkpt>
      <trkpt lat="45.77793" lon="3.03068">
        <ele>728</ele>
        <time>2012-09-15T08:29:33Z</time>
      </trkpt>
      <trkpt lat="45.778" lon="3.03088">
        <ele>725</ele>
        <time>2012-09-15T08:29:38Z</time>
      </trkpt>
      <trkpt lat="45.77782" lon="3.03097">
        <ele>721</ele>
        <time>2012-09-15T08:29:43Z</time>
      </trkpt>
      <trkpt lat="45.77763" lon="3.03118">
        <ele>719</ele>
        <time>2012-09-15T08:29:48Z</time>
      </trkpt>
      <trkpt lat="45.77753" lon="3.03153">
        <ele>719</ele>
        <time>2012-09-15T08:29:53Z</time>
      </trkpt>
      <trkpt lat="45.77743" lon="3.03171">
        <ele>718</ele>
        <time>2012-09-15T08:29:58Z</time>
      </trkpt>
      <trkpt lat="45.7774" lon="3.03181">
        <ele>718</ele>
        <time>2012-09-15T08:30:04Z</time>
      </trkpt>
      <trkpt lat="45.77751" lon="3.03187">
        <ele>718</ele>
        <time>2012-09-15T08:30:09Z</time>
      </trkpt>
      <trkpt lat="45.77768" lon="3.03211">
        <ele>718</ele>
        <time>2012-09-15T08:30:14Z</time>
      </trkpt>
      <trkpt lat="45.77795" lon="3.03246">
        <ele>713</ele>
        <time>2012-09-15T08:30:20Z</time>
      </trkpt>
      <trkpt lat="45.77802" lon="3.03285">
        <ele>712</ele>
        <time>2012-09-15T08:30:25Z</time>
      </trkpt>
      <trkpt lat="45.7781" lon="3.03332">
        <ele>711</ele>
        <time>2012-09-15T08:30:31Z</time>
      </trkpt>
      <trkpt lat="45.77819" lon="3.03378">
        <ele>708</ele>
        <time>2012-09-15T08:30:36Z</time>
      </trkpt>
      <trkpt lat="45.77838" lon="3.03431">
        <ele>708</ele>
        <time>2012-09-15T08:30:41Z</time>
      </trkpt>
      <trkpt lat="45.77857" lon="3.03497">
        <ele>708</ele>
        <time>2012-09-15T08:30:47Z</time>
      </trkpt>
      <trkpt lat="45.77865" lon="3.03544">
        <ele>708</ele>
        <time>2012-09-15T08:30:52Z</time>
      </trkpt>
      <trkpt lat="45.7785" lon="3.03548">
        <ele>708</ele>
        <time>2012-09-15T08:30:57Z</time>
      </trkpt>
      <trkpt lat="45.7783" lon="3.03542">
        <ele>703</ele>
        <time>2012-09-15T08:31:03Z</time>
      </trkpt>
      <trkpt lat="45.77817" lon="3.03548">
        <ele>701</ele>
        <time>2012-09-15T08:31:08Z</time>
      </trkpt>
      <trkpt lat="45.77808" lon="3.03562">
        <ele>701</ele>
        <time>2012-09-15T08:31:13Z</time>
      </trkpt>
      <trkpt lat="45.77801" lon="3.03579">
        <ele>701</ele>
        <time>2012-09-15T08:31:18Z</time>
      </trkpt>
      <trkpt lat="45.77799" lon="3.03599">
        <ele>702</ele>
        <time>2012-09-15T08:31:23Z</time>
      </trkpt>
      <trkpt lat="45.77799" lon="3.03619">
        <ele>703</ele>
        <time>2012-09-15T08:31:28Z</time>
      </trkpt>
      <trkpt lat="45.77795" lon="3.03642">
        <ele>704</ele>
        <time>2012-09-15T08:31:33Z</time>
      </trkpt>
      <trkpt lat="45.7779" lon="3.03667">
        <ele>707</ele>
        <time>2012-09-15T08:31:38Z</time>
      </trkpt>
      <trkpt lat="45.77787" lon="3.03689">
        <ele>710</ele>
        <time>2012-09-15T08:31:43Z</time>
      </trkpt>
      <trkpt lat="45.77786" lon="3.03713">
        <ele>710</ele>
        <time>2012-09-15T08:31:48Z</time>
      </trkpt>
      <trkpt lat="45.77782" lon="3.03735">
        <ele>711</ele>
        <time>2012-09-15T08:31:53Z</time>
      </trkpt>
      <trkpt lat="45.77772" lon="3.0375">
        <ele>713</ele>
        <time>2012-09-15T08:31:58Z</time>
      </trkpt>
      <trkpt lat="45.77753" lon="3.03771">
        <ele>714</ele>
        <time>2012-09-15T08:32:03Z</time>
      </trkpt>
      <trkpt lat="45.77728" lon="3.03802">
        <ele>714</ele>
        <time>2012-09-15T08:32:09Z</time>
      </trkpt>
      <trkpt lat="45.77709" lon="3.0383">
        <ele>713</ele>
        <time>2012-09-15T08:32:14Z</time>
      </trkpt>
      <trkpt lat="45.77693" lon="3.03864">
        <ele>709</ele>
        <time>2012-09-15T08:32:19Z</time>
      </trkpt>
      <trkpt lat="45.77681" lon="3.03914">
        <ele>705</ele>
        <time>2012-09-15T08:32:24Z</time>
      </trkpt>
      <trkpt lat="45.77668" lon="3.03973">
        <ele>703</ele>
        <time>2012-09-15T08:32:29Z</time>
      </trkpt>
      <trkpt lat="45.77658" lon="3.04022">
        <ele>702</ele>
        <time>2012-09-15T08:32:34Z</time>
      </trkpt>
      <trkpt lat="45.77631" lon="3.04014">
        <ele>698</ele>
        <time>2012-09-15T08:32:40Z</time>
      </trkpt>
      <trkpt lat="45.77602" lon="3.04003">
        <ele>692</ele>
        <time>2012-09-15T08:32:46Z</time>
      </trkpt>
      <trkpt lat="45.77613" lon="3.04032">
        <ele>687</ele>
        <time>2012-09-15T08:32:51Z</time>
      </trkpt>
      <trkpt lat="45.77631" lon="3.04068">
        <ele>681</ele>
        <time>2012-09-15T08:32:56Z</time>
      </trkpt>
      <trkpt lat="45.77652" lon="3.0411">
        <ele>676</ele>
        <time>2012-09-15T08:33:01Z</time>
      </trkpt>
      <trkpt lat="45.77684" lon="3.04151">
        <ele>670</ele>
        <time>2012-09-15T08:33:07Z</time>
      </trkpt>
      <trkpt lat="45.77715" lon="3.04193">
        <ele>670</ele>
        <time>2012-09-15T08:33:12Z</time>
      </trkpt>
      <trkpt lat="45.7773" lon="3.04242">
        <ele>670</ele>
        <time>2012-09-15T08:33:17Z</time>
      </trkpt>
      <trkpt lat="45.77746" lon="3.04292">
        <ele>667</ele>
        <time>2012-09-15T08:33:23Z</time>
      </trkpt>
      <trkpt lat="45.77739" lon="3.04358">
        <ele>666</ele>
        <time>2012-09-15T08:33:28Z</time>
      </trkpt>
      <trkpt lat="45.77744" lon="3.04433">
        <ele>666</ele>
        <time>2012-09-15T08:33:33Z</time>
      </trkpt>
      <trkpt lat="45.7777" lon="3.04491">
        <ele>663</ele>
        <time>2012-09-15T08:33:38Z</time>
      </trkpt>
      <trkpt lat="45.77762" lon="3.04505">
        <ele>657</ele>
        <time>2012-09-15T08:33:44Z</time>
      </trkpt>
      <trkpt lat="45.77743" lon="3.04474">
        <ele>652</ele>
        <time>2012-09-15T08:33:49Z</time>
      </trkpt>
      <trkpt lat="45.77719" lon="3.04426">
        <ele>646</ele>
        <time>2012-09-15T08:33:54Z</time>
      </trkpt>
      <trkpt lat="45.77691" lon="3.04379">
        <ele>641</ele>
        <time>2012-09-15T08:33:59Z</time>
      </trkpt>
      <trkpt lat="45.77675" lon="3.04329">
        <ele>636</ele>
        <time>2012-09-15T08:34:04Z</time>
      </trkpt>
      <trkpt lat="45.77662" lon="3.04277">
        <ele>631</ele>
        <time>2012-09-15T08:34:09Z</time>
      </trkpt>
      <trkpt lat="45.77641" lon="3.04284">
        <ele>626</ele>
        <time>2012-09-15T08:34:14Z</time>
      </trkpt>
      <trkpt lat="45.77613" lon="3.04291">
        <ele>618</ele>
        <time>2012-09-15T08:34:19Z</time>
      </trkpt>
      <trkpt lat="45.77578" lon="3.0431">
        <ele>614</ele>
        <time>2012-09-15T08:34:24Z</time>
      </trkpt>
      <trkpt lat="45.77548" lon="3.04332">
        <ele>614</ele>
        <time>2012-09-15T08:34:29Z</time>
      </trkpt>
      <trkpt lat="45.77528" lon="3.04305">
        <ele>612</ele>
        <time>2012-09-15T08:34:34Z</time>
      </trkpt>
      <trkpt lat="45.7751" lon="3.04291">
        <ele>612</ele>
        <time>2012-09-15T08:34:39Z</time>
      </trkpt>
      <trkpt lat="45.77491" lon="3.04273">
        <ele>611</ele>
        <time>2012-09-15T08:34:44Z</time>
      </trkpt>
      <trkpt lat="45.77469" lon="3.04254">
        <ele>610</ele>
        <time>2012-09-15T08:34:49Z</time>
      </trkpt>
      <trkpt lat="45.77453" lon="3.04232">
        <ele>607</ele>
        <time>2012-09-15T08:34:54Z</time>
      </trkpt>
      <trkpt lat="45.77449" lon="3.04242">
        <ele>604</ele>
        <time>2012-09-15T08:34:59Z</time>
      </trkpt>
      <trkpt lat="45.77449" lon="3.04272">
        <ele>605</ele>
        <time>2012-09-15T08:35:04Z</time>
      </trkpt>
      <trkpt lat="45.77448" lon="3.04307">
        <ele>611</ele>
        <time>2012-09-15T08:35:10Z</time>
      </trkpt>
      <trkpt lat="45.77451" lon="3.04338">
        <ele>616</ele>
        <time>2012-09-15T08:35:16Z</time>
      </trkpt>
      <trkpt lat="45.77455" lon="3.04363">
        <ele>617</ele>
        <time>2012-09-15T08:35:21Z</time>
      </trkpt>
      <trkpt lat="45.77455" lon="3.04393">
        <ele>617</ele>
        <time>2012-09-15T08:35:26Z</time>
      </trkpt>
      <trkpt lat="45.77453" lon="3.04421">
        <ele>618</ele>
        <time>2012-09-15T08:35:31Z</time>
      </trkpt>
      <trkpt lat="45.7745" lon="3.04453">
        <ele>621</ele>
        <time>2012-09-15T08:35:36Z</time>
      </trkpt>
      <trkpt lat="45.77451" lon="3.04485">
        <ele>622</ele>
        <time>2012-09-15T08:35:41Z</time>
      </trkpt>
      <trkpt lat="45.77451" lon="3.04518">
        <ele>622</ele>
        <time>2012-09-15T08:35:46Z</time>
      </trkpt>
      <trkpt lat="45.77455" lon="3.04557">
        <ele>622</ele>
        <time>2012-09-15T08:35:51Z</time>
      </trkpt>
      <trkpt lat="45.77454" lon="3.046">
        <ele>622</ele>
        <time>2012-09-15T08:35:56Z</time>
      </trkpt>
      <trkpt lat="45.77424" lon="3.04628">
        <ele>622</ele>
        <time>2012-09-15T08:36:02Z</time>
      </trkpt>
      <trkpt lat="45.7739" lon="3.04621">
        <ele>621</ele>
        <time>2012-09-15T08:36:07Z</time>
      </trkpt>
      <trkpt lat="45.77361" lon="3.04604">
        <ele>616</ele>
        <time>2012-09-15T08:36:12Z</time>
      </trkpt>
      <trkpt lat="45.77333" lon="3.04582">
        <ele>610</ele>
        <time>2012-09-15T08:36:18Z</time>
      </trkpt>
      <trkpt lat="45.77309" lon="3.04557">
        <ele>607</ele>
        <time>2012-09-15T08:36:23Z</time>
      </trkpt>
      <trkpt lat="45.7729" lon="3.04576">
        <ele>607</ele>
        <time>2012-09-15T08:36:29Z</time>
      </trkpt>
      <trkpt lat="45.77287" lon="3.04614">
        <ele>607</ele>
        <time>2012-09-15T08:36:34Z</time>
      </trkpt>
      <trkpt lat="45.77285" lon="3.04644">
        <ele>610</ele>
        <time>2012-09-15T08:36:39Z</time>
      </trkpt>
      <trkpt lat="45.77285" lon="3.04676">
        <ele>610</ele>
        <time>2012-09-15T08:36:44Z</time>
      </trkpt>
      <trkpt lat="45.77285" lon="3.04704">
        <ele>611</ele>
        <time>2012-09-15T08:36:49Z</time>
      </trkpt>
      <trkpt lat="45.77274" lon="3.04736">
        <ele>612</ele>
        <time>2012-09-15T08:36:54Z</time>
      </trkpt>
      <trkpt lat="45.77261" lon="3.0478">
        <ele>612</ele>
        <time>2012-09-15T08:36:59Z</time>
      </trkpt>
      <trkpt lat="45.77256" lon="3.04827">
        <ele>612</ele>
        <time>2012-09-15T08:37:04Z</time>
      </trkpt>
      <trkpt lat="45.77248" lon="3.04887">
        <ele>612</ele>
        <time>2012-09-15T08:37:10Z</time>
      </trkpt>
      <trkpt lat="45.77219" lon="3.04916">
        <ele>612</ele>
        <time>2012-09-15T08:37:16Z</time>
      </trkpt>
      <trkpt lat="45.77187" lon="3.04914">
        <ele>609</ele>
        <time>2012-09-15T08:37:22Z</time>
      </trkpt>
      <trkpt lat="45.77156" lon="3.04895">
        <ele>604</ele>
        <time>2012-09-15T08:37:28Z</time>
      </trkpt>
      <trkpt lat="45.77126" lon="3.04872">
        <ele>604</ele>
        <time>2012-09-15T08:37:33Z</time>
      </trkpt>
      <trkpt lat="45.77085" lon="3.04862">
        <ele>604</ele>
        <time>2012-09-15T08:37:39Z</time>
      </trkpt>
      <trkpt lat="45.77057" lon="3.04862">
        <ele>601</ele>
        <time>2012-09-15T08:37:44Z</time>
      </trkpt>
      <trkpt lat="45.77031" lon="3.04881">
        <ele>596</ele>
        <time>2012-09-15T08:37:49Z</time>
      </trkpt>
      <trkpt lat="45.77012" lon="3.04912">
        <ele>591</ele>
        <time>2012-09-15T08:37:54Z</time>
      </trkpt>
      <trkpt lat="45.76998" lon="3.04944">
        <ele>586</ele>
        <time>2012-09-15T08:37:59Z</time>
      </trkpt>
      <trkpt lat="45.76984" lon="3.04975">
        <ele>583</ele>
        <time>2012-09-15T08:38:04Z</time>
      </trkpt>
      <trkpt lat="45.76969" lon="3.0501">
        <ele>579</ele>
        <time>2012-09-15T08:38:09Z</time>
      </trkpt>
      <trkpt lat="45.76947" lon="3.05044">
        <ele>577</ele>
        <time>2012-09-15T08:38:15Z</time>
      </trkpt>
      <trkpt lat="45.76927" lon="3.05049">
        <ele>575</ele>
        <time>2012-09-15T08:38:20Z</time>
      </trkpt>
      <trkpt lat="45.76906" lon="3.05042">
        <ele>573</ele>
        <time>2012-09-15T08:38:26Z</time>
      </trkpt>
      <trkpt lat="45.76889" lon="3.05033">
        <ele>573</ele>
        <time>2012-09-15T08:38:31Z</time>
      </trkpt>
      <trkpt lat="45.76866" lon="3.0503">
        <ele>573</ele>
        <time>2012-09-15T08:38:36Z</time>
      </trkpt>
      <trkpt lat="45.76844" lon="3.05022">
        <ele>571</ele>
        <time>2012-09-15T08:38:41Z</time>
      </trkpt>
      <trkpt lat="45.76817" lon="3.05022">
        <ele>566</ele>
        <time>2012-09-15T08:38:46Z</time>
      </trkpt>
      <trkpt lat="45.76777" lon="3.05039">
        <ele>560</ele>
        <time>2012-09-15T08:38:52Z</time>
      </trkpt>
      <trkpt lat="45.76739" lon="3.05036">
        <ele>555</ele>
        <time>2012-09-15T08:38:57Z</time>
      </trkpt>
      <trkpt lat="45.76705" lon="3.05043">
        <ele>550</ele>
        <time>2012-09-15T08:39:02Z</time>
      </trkpt>
      <trkpt lat="45.76678" lon="3.05078">
        <ele>544</ele>
        <time>2012-09-15T08:39:08Z</time>
      </trkpt>
      <trkpt lat="45.76664" lon="3.05115">
        <ele>539</ele>
        <time>2012-09-15T08:39:13Z</time>
      </trkpt>
      <trkpt lat="45.76662" lon="3.0515">
        <ele>534</ele>
        <time>2012-09-15T08:39:18Z</time>
      </trkpt>
      <trkpt lat="45.76649" lon="3.05174">
        <ele>531</ele>
        <time>2012-09-15T08:39:23Z</time>
      </trkpt>
      <trkpt lat="45.76648" lon="3.05161">
        <ele>526</ele>
        <time>2012-09-15T08:39:28Z</time>
      </trkpt>
      <trkpt lat="45.76656" lon="3.05145">
        <ele>525</ele>
        <time>2012-09-15T08:39:33Z</time>
      </trkpt>
      <trkpt lat="45.76658" lon="3.05117">
        <ele>525</ele>
        <time>2012-09-15T08:39:39Z</time>
      </trkpt>
      <trkpt lat="45.76658" lon="3.05095">
        <ele>525</ele>
        <time>2012-09-15T08:39:44Z</time>
      </trkpt>
      <trkpt lat="45.7666" lon="3.0507">
        <ele>525</ele>
        <time>2012-09-15T08:39:50Z</time>
      </trkpt>
      <trkpt lat="45.76666" lon="3.05047">
        <ele>527</ele>
        <time>2012-09-15T08:39:56Z</time>
      </trkpt>
      <trkpt lat="45.76676" lon="3.05028">
        <ele>527</ele>
        <time>2012-09-15T08:40:02Z</time>
      </trkpt>
      <trkpt lat="45.76687" lon="3.05012">
        <ele>528</ele>
        <time>2012-09-15T08:40:07Z</time>
      </trkpt>
      <trkpt lat="45.76701" lon="3.04996">
        <ele>529</ele>
        <time>2012-09-15T08:40:12Z</time>
      </trkpt>
      <trkpt lat="45.76712" lon="3.04976">
        <ele>529</ele>
        <time>2012-09-15T08:40:17Z</time>
      </trkpt>
      <trkpt lat="45.76714" lon="3.04949">
        <ele>530</ele>
        <time>2012-09-15T08:40:22Z</time>
      </trkpt>
      <trkpt lat="45.76701" lon="3.04919">
        <ele>531</ele>
        <time>2012-09-15T08:40:28Z</time>
      </trkpt>
      <trkpt lat="45.7668" lon="3.04898">
        <ele>532</ele>
        <time>2012-09-15T08:40:33Z</time>
      </trkpt>
      <trkpt lat="45.76658" lon="3.04867">
        <ele>533</ele>
        <time>2012-09-15T08:40:39Z</time>
      </trkpt>
      <trkpt lat="45.76643" lon="3.04825">
        <ele>533</ele>
        <time>2012-09-15T08:40:45Z</time>
      </trkpt>
      <trkpt lat="45.76635" lon="3.04782">
        <ele>533</ele>
        <time>2012-09-15T08:40:51Z</time>
      </trkpt>
      <trkpt lat="45.76632" lon="3.04738">
        <ele>533</ele>
        <time>2012-09-15T08:40:57Z</time>
      </trkpt>
      <trkpt lat="45.76632" lon="3.04706">
        <ele>533</ele>
        <time>2012-09-15T08:41:02Z</time>
      </trkpt>
      <trkpt lat="45.76628" lon="3.04665">
        <ele>533</ele>
        <time>2012-09-15T08:41:08Z</time>
      </trkpt>
      <trkpt lat="45.76626" lon="3.04629">
        <ele>534</ele>
        <time>2012-09-15T08:41:13Z</time>
      </trkpt>
      <trkpt lat="45.76626" lon="3.04595">
        <ele>535</ele>
        <time>2012-09-15T08:41:18Z</time>
      </trkpt>
      <trkpt lat="45.76632" lon="3.04556">
        <ele>537</ele>
        <time>2012-09-15T08:41:24Z</time>
      </trkpt>
      <trkpt lat="45.7664" lon="3.04517">
        <ele>539</ele>
        <time>2012-09-15T08:41:30Z</time>
      </trkpt>
      <trkpt lat="45.76648" lon="3.04476">
        <ele>539</ele>
        <time>2012-09-15T08:41:36Z</time>
      </trkpt>
      <trkpt lat="45.76656" lon="3.04441">
        <ele>540</ele>
        <time>2012-09-15T08:41:41Z</time>
      </trkpt>
      <trkpt lat="45.76665" lon="3.04404">
        <ele>540</ele>
        <time>2012-09-15T08:41:46Z</time>
      </trkpt>
      <trkpt lat="45.76661" lon="3.04359">
        <ele>541</ele>
        <time>2012-09-15T08:41:52Z</time>
      </trkpt>
      <trkpt lat="45.76653" lon="3.0432">
        <ele>541</ele>
        <time>2012-09-15T08:41:57Z</time>
      </trkpt>
      <trkpt lat="45.76646" lon="3.0428">
        <ele>542</ele>
        <time>2012-09-15T08:42:02Z</time>
      </trkpt>
      <trkpt lat="45.76634" lon="3.04243">
        <ele>543</ele>
        <time>2012-09-15T08:42:07Z</time>
      </trkpt>
      <trkpt lat="45.76617" lon="3.04209">
        <ele>544</ele>
        <time>2012-09-15T08:42:12Z</time>
      </trkpt>
      <trkpt lat="45.76596" lon="3.04183">
        <ele>544</ele>
        <time>2012-09-15T08:42:17Z</time>
      </trkpt>
      <trkpt lat="45.76571" lon="3.04181">
        <ele>544</ele>
        <time>2012-09-15T08:42:22Z</time>
      </trkpt>
      <trkpt lat="45.76548" lon="3.04224">
        <ele>544</ele>
        <time>2012-09-15T08:42:28Z</time>
      </trkpt>
      <trkpt lat="45.7652" lon="3.04227">
        <ele>544</ele>
        <time>2012-09-15T08:42:33Z</time>
      </trkpt>
      <trkpt lat="45.76498" lon="3.04226">
        <ele>544</ele>
        <time>2012-09-15T08:42:38Z</time>
      </trkpt>
      <trkpt lat="45.76477" lon="3.04225">
        <ele>545</ele>
        <time>2012-09-15T08:42:43Z</time>
      </trkpt>
      <trkpt lat="45.76466" lon="3.04204">
        <ele>545</ele>
        <time>2012-09-15T08:42:48Z</time>
      </trkpt>
      <trkpt lat="45.76469" lon="3.04179">
        <ele>546</ele>
        <time>2012-09-15T08:42:53Z</time>
      </trkpt>
      <trkpt lat="45.7647" lon="3.04155">
        <ele>547</ele>
        <time>2012-09-15T08:42:58Z</time>
      </trkpt>
      <trkpt lat="45.76474" lon="3.04132">
        <ele>548</ele>
        <time>2012-09-15T08:43:03Z</time>
      </trkpt>
      <trkpt lat="45.76477" lon="3.04103">
        <ele>549</ele>
        <time>2012-09-15T08:43:09Z</time>
      </trkpt>
      <trkpt lat="45.76479" lon="3.0408">
        <ele>549</ele>
        <time>2012-09-15T08:43:14Z</time>
      </trkpt>
      <trkpt lat="45.76482" lon="3.04052">
        <ele>549</ele>
        <time>2012-09-15T08:43:20Z</time>
      </trkpt>
      <trkpt lat="45.76483" lon="3.04025">
        <ele>550</ele>
        <time>2012-09-15T08:43:26Z</time>
      </trkpt>
      <trkpt lat="45.76484" lon="3.03997">
        <ele>553</ele>
        <time>2012-09-15T08:43:32Z</time>
      </trkpt>
      <trkpt lat="45.76486" lon="3.03973">
        <ele>554</ele>
        <time>2012-09-15T08:43:37Z</time>
      </trkpt>
      <trkpt lat="45.76487" lon="3.03953">
        <ele>554</ele>
        <time>2012-09-15T08:43:42Z</time>
      </trkpt>
      <trkpt lat="45.76488" lon="3.03932">
        <ele>556</ele>
        <time>2012-09-15T08:43:47Z</time>
      </trkpt>
      <trkpt lat="45.76489" lon="3.03911">
        <ele>558</ele>
        <time>2012-09-15T08:43:52Z</time>
      </trkpt>
      <trkpt lat="45.76491" lon="3.03888">
        <ele>558</ele>
        <time>2012-09-15T08:43:58Z</time>
      </trkpt>
      <trkpt lat="45.76492" lon="3.03868">
        <ele>559</ele>
        <time>2012-09-15T08:44:03Z</time>
      </trkpt>
      <trkpt lat="45.76491" lon="3.03851">
        <ele>561</ele>
        <time>2012-09-15T08:44:08Z</time>
      </trkpt>
      <trkpt lat="45.76489" lon="3.03839">
        <ele>563</ele>
        <time>2012-09-15T08:44:13Z</time>
      </trkpt>
      <trkpt lat="45.7648" lon="3.03822">
        <ele>565</ele>
        <time>2012-09-15T08:44:18Z</time>
      </trkpt>
      <trkpt lat="45.76477" lon="3.03805">
        <ele>565</ele>
        <time>2012-09-15T08:44:23Z</time>
      </trkpt>
      <trkpt lat="45.76474" lon="3.03786">
        <ele>565</ele>
        <time>2012-09-15T08:44:28Z</time>
      </trkpt>
      <trkpt lat="45.76469" lon="3.03767">
        <ele>569</ele>
        <time>2012-09-15T08:44:33Z</time>
      </trkpt>
      <trkpt lat="45.76463" lon="3.03747">
        <ele>570</ele>
        <time>2012-09-15T08:44:38Z</time>
      </trkpt>
      <trkpt lat="45.76459" lon="3.03726">
        <ele>570</ele>
        <time>2012-09-15T08:44:43Z</time>
      </trkpt>
      <trkpt lat="45.76456" lon="3.03704">
        <ele>570</ele>
        <time>2012-09-15T08:44:48Z</time>
      </trkpt>
      <trkpt lat="45.76454" lon="3.03682">
        <ele>570</ele>
        <time>2012-09-15T08:44:53Z</time>
      </trkpt>
      <trkpt lat="45.76452" lon="3.03666">
        <ele>570</ele>
        <time>2012-09-15T08:44:58Z</time>
      </trkpt>
      <trkpt lat="45.76456" lon="3.0365">
        <ele>570</ele>
        <time>2012-09-15T08:45:03Z</time>
      </trkpt>
      <trkpt lat="45.76459" lon="3.03632">
        <ele>570</ele>
        <time>2012-09-15T08:45:09Z</time>
      </trkpt>
      <trkpt lat="45.76461" lon="3.03625">
        <ele>572</ele>
        <time>2012-09-15T08:45:15Z</time>
      </trkpt>
      <trkpt lat="45.76463" lon="3.03622">
        <ele>586</ele>
        <time>2012-09-15T08:45:38Z</time>
      </trkpt>
      <trkpt lat="45.76464" lon="3.03619">
        <ele>586</ele>
        <time>2012-09-15T08:45:44Z</time>
      </trkpt>
      <trkpt lat="45.76463" lon="3.03625">
        <ele>586</ele>
        <time>2012-09-15T08:45:49Z</time>
      </trkpt>
      <trkpt lat="45.76463" lon="3.03629">
        <ele>586</ele>
        <time>2012-09-15T08:45:55Z</time>
      </trkpt>
      <trkpt lat="45.76459" lon="3.03626">
        <ele>582</ele>
        <time>2012-09-15T08:46:02Z</time>
      </trkpt>
      <trkpt lat="45.76462" lon="3.0362">
        <ele>580</ele>
        <time>2012-09-15T08:46:07Z</time>
      </trkpt>
      <trkpt lat="45.7646" lon="3.03612">
        <ele>580</ele>
        <time>2012-09-15T08:46:12Z</time>
      </trkpt>
      <trkpt lat="45.76453" lon="3.03603">
        <ele>577</ele>
        <time>2012-09-15T08:46:19Z</time>
      </trkpt>
      <trkpt lat="45.76452" lon="3.03597">
        <ele>574</ele>
        <time>2012-09-15T08:46:24Z</time>
      </trkpt>
      <trkpt lat="45.76451" lon="3.0359">
        <ele>573</ele>
        <time>2012-09-15T08:46:29Z</time>
      </trkpt>
      <trkpt lat="45.7645" lon="3.03579">
        <ele>575</ele>
        <time>2012-09-15T08:46:36Z</time>
      </trkpt>
      <trkpt lat="45.76449" lon="3.03574">
        <ele>578</ele>
        <time>2012-09-15T08:46:43Z</time>
      </trkpt>
      <trkpt lat="45.76453" lon="3.03561">
        <ele>583</ele>
        <time>2012-09-15T08:46:48Z</time>
      </trkpt>
      <trkpt lat="45.76454" lon="3.03554">
        <ele>587</ele>
        <time>2012-09-15T08:46:54Z</time>
      </trkpt>
      <trkpt lat="45.7645" lon="3.03551">
        <ele>587</ele>
        <time>2012-09-15T08:46:59Z</time>
      </trkpt>
      <trkpt lat="45.76451" lon="3.03545">
        <ele>587</ele>
        <time>2012-09-15T08:47:05Z</time>
      </trkpt>
      <trkpt lat="45.7645" lon="3.03538">
        <ele>587</ele>
        <time>2012-09-15T08:47:11Z</time>
      </trkpt>
      <trkpt lat="45.76448" lon="3.03535">
        <ele>590</ele>
        <time>2012-09-15T08:47:16Z</time>
      </trkpt>
      <trkpt lat="45.76446" lon="3.03528">
        <ele>592</ele>
        <time>2012-09-15T08:47:22Z</time>
      </trkpt>
      <trkpt lat="45.76441" lon="3.03525">
        <ele>592</ele>
        <time>2012-09-15T08:47:28Z</time>
      </trkpt>
      <trkpt lat="45.76437" lon="3.0352">
        <ele>592</ele>
        <time>2012-09-15T08:47:34Z</time>
      </trkpt>
      <trkpt lat="45.76432" lon="3.03517">
        <ele>594</ele>
        <time>2012-09-15T08:47:40Z</time>
      </trkpt>
      <trkpt lat="45.76429" lon="3.0351">
        <ele>595</ele>
        <time>2012-09-15T08:47:45Z</time>
      </trkpt>
      <trkpt lat="45.76427" lon="3.03505">
        <ele>595</ele>
        <time>2012-09-15T08:47:50Z</time>
      </trkpt>
      <trkpt lat="45.76424" lon="3.03498">
        <ele>595</ele>
        <time>2012-09-15T08:47:55Z</time>
      </trkpt>
      <trkpt lat="45.76421" lon="3.03489">
        <ele>595</ele>
        <time>2012-09-15T08:48:00Z</time>
      </trkpt>
      <trkpt lat="45.76415" lon="3.03478">
        <ele>595</ele>
        <time>2012-09-15T08:48:06Z</time>
      </trkpt>
      <trkpt lat="45.76409" lon="3.03469">
        <ele>596</ele>
        <time>2012-09-15T08:48:11Z</time>
      </trkpt>
      <trkpt lat="45.76403" lon="3.03458">
        <ele>596</ele>
        <time>2012-09-15T08:48:17Z</time>
      </trkpt>
      <trkpt lat="45.76397" lon="3.03451">
        <ele>596</ele>
        <time>2012-09-15T08:48:22Z</time>
      </trkpt>
      <trkpt lat="45.76389" lon="3.03447">
        <ele>596</ele>
        <time>2012-09-15T08:48:27Z</time>
      </trkpt>
      <trkpt lat="45.76381" lon="3.03445">
        <ele>601</ele>
        <time>2012-09-15T08:48:32Z</time>
      </trkpt>
      <trkpt lat="45.76377" lon="3.03443">
        <ele>605</ele>
        <time>2012-09-15T08:48:38Z</time>
      </trkpt>
      <trkpt lat="45.76375" lon="3.03445">
        <ele>607</ele>
        <time>2012-09-15T08:48:46Z</time>
      </trkpt>
      <trkpt lat="45.76371" lon="3.0344">
        <ele>608</ele>
        <time>2012-09-15T08:48:51Z</time>
      </trkpt>
      <trkpt lat="45.76364" lon="3.03438">
        <ele>608</ele>
        <time>2012-09-15T08:48:56Z</time>
      </trkpt>
      <trkpt lat="45.76357" lon="3.03436">
        <ele>612</ele>
        <time>2012-09-15T08:49:03Z</time>
      </trkpt>
      <trkpt lat="45.76354" lon="3.03435">
        <ele>615</ele>
        <time>2012-09-15T08:49:08Z</time>
      </trkpt>
      <trkpt lat="45.7635" lon="3.03434">
        <ele>620</ele>
        <time>2012-09-15T08:49:13Z</time>
      </trkpt>
      <trkpt lat="45.76344" lon="3.0343">
        <ele>623</ele>
        <time>2012-09-15T08:49:18Z</time>
      </trkpt>
      <trkpt lat="45.76341" lon="3.03423">
        <ele>630</ele>
        <time>2012-09-15T08:49:25Z</time>
      </trkpt>
      <trkpt lat="45.76336" lon="3.03423">
        <ele>634</ele>
        <time>2012-09-15T08:49:30Z</time>
      </trkpt>
      <trkpt lat="45.76338" lon="3.03417">
        <ele>638</ele>
        <time>2012-09-15T08:49:35Z</time>
      </trkpt>
      <trkpt lat="45.76345" lon="3.03411">
        <ele>639</ele>
        <time>2012-09-15T08:49:40Z</time>
      </trkpt>
      <trkpt lat="45.7635" lon="3.034">
        <ele>641</ele>
        <time>2012-09-15T08:49:46Z</time>
      </trkpt>
      <trkpt lat="45.76356" lon="3.03389">
        <ele>641</ele>
        <time>2012-09-15T08:49:51Z</time>
      </trkpt>
      <trkpt lat="45.7636" lon="3.0338">
        <ele>641</ele>
        <time>2012-09-15T08:49:56Z</time>
      </trkpt>
      <trkpt lat="45.76359" lon="3.03372">
        <ele>643</ele>
        <time>2012-09-15T08:50:01Z</time>
      </trkpt>
      <trkpt lat="45.76366" lon="3.03355">
        <ele>643</ele>
        <time>2012-09-15T08:50:06Z</time>
      </trkpt>
      <trkpt lat="45.76373" lon="3.03337">
        <ele>643</ele>
        <time>2012-09-15T08:50:11Z</time>
      </trkpt>
      <trkpt lat="45.76378" lon="3.03319">
        <ele>643</ele>
        <time>2012-09-15T08:50:16Z</time>
      </trkpt>
      <trkpt lat="45.76386" lon="3.03294">
        <ele>639</ele>
        <time>2012-09-15T08:50:21Z</time>
      </trkpt>
      <trkpt lat="45.76399" lon="3.03274">
        <ele>636</ele>
        <time>2012-09-15T08:50:26Z</time>
      </trkpt>
      <trkpt lat="45.76411" lon="3.03259">
        <ele>636</ele>
        <time>2012-09-15T08:50:31Z</time>
      </trkpt>
      <trkpt lat="45.76419" lon="3.03239">
        <ele>634</ele>
        <time>2012-09-15T08:50:36Z</time>
      </trkpt>
      <trkpt lat="45.76425" lon="3.03225">
        <ele>632</ele>
        <time>2012-09-15T08:50:41Z</time>
      </trkpt>
      <trkpt lat="45.76432" lon="3.03209">
        <ele>632</ele>
        <time>2012-09-15T08:50:46Z</time>
      </trkpt>
      <trkpt lat="45.7645" lon="3.03187">
        <ele>632</ele>
        <time>2012-09-15T08:50:51Z</time>
      </trkpt>
      <trkpt lat="45.76468" lon="3.03163">
        <ele>630</ele>
        <time>2012-09-15T08:50:56Z</time>
      </trkpt>
      <trkpt lat="45.76475" lon="3.03146">
        <ele>630</ele>
        <time>2012-09-15T08:51:01Z</time>
      </trkpt>
      <trkpt lat="45.76474" lon="3.03125">
        <ele>630</ele>
        <time>2012-09-15T08:51:06Z</time>
      </trkpt>
      <trkpt lat="45.76475" lon="3.03105">
        <ele>629</ele>
        <time>2012-09-15T08:51:11Z</time>
      </trkpt>
      <trkpt lat="45.7648" lon="3.03081">
        <ele>628</ele>
        <time>2012-09-15T08:51:16Z</time>
      </trkpt>
      <trkpt lat="45.76485" lon="3.03056">
        <ele>625</ele>
        <time>2012-09-15T08:51:21Z</time>
      </trkpt>
      <trkpt lat="45.76491" lon="3.03032">
        <ele>620</ele>
        <time>2012-09-15T08:51:26Z</time>
      </trkpt>
      <trkpt lat="45.7649" lon="3.03017">
        <ele>617</ele>
        <time>2012-09-15T08:51:31Z</time>
      </trkpt>
      <trkpt lat="45.76493" lon="3.02992">
        <ele>620</ele>
        <time>2012-09-15T08:51:36Z</time>
      </trkpt>
      <trkpt lat="45.76488" lon="3.02969">
        <ele>625</ele>
        <time>2012-09-15T08:51:41Z</time>
      </trkpt>
      <trkpt lat="45.76472" lon="3.02953">
        <ele>628</ele>
        <time>2012-09-15T08:51:46Z</time>
      </trkpt>
      <trkpt lat="45.7646" lon="3.02943">
        <ele>628</ele>
        <time>2012-09-15T08:51:51Z</time>
      </trkpt>
      <trkpt lat="45.76449" lon="3.02935">
        <ele>628</ele>
        <time>2012-09-15T08:51:56Z</time>
      </trkpt>
      <trkpt lat="45.76441" lon="3.02922">
        <ele>624</ele>
        <time>2012-09-15T08:52:01Z</time>
      </trkpt>
      <trkpt lat="45.76432" lon="3.02912">
        <ele>618</ele>
        <time>2012-09-15T08:52:06Z</time>
      </trkpt>
      <trkpt lat="45.76426" lon="3.02898">
        <ele>611</ele>
        <time>2012-09-15T08:52:11Z</time>
      </trkpt>
      <trkpt lat="45.7642" lon="3.02882">
        <ele>604</ele>
        <time>2012-09-15T08:52:16Z</time>
      </trkpt>
      <trkpt lat="45.76407" lon="3.02877">
        <ele>598</ele>
        <time>2012-09-15T08:52:21Z</time>
      </trkpt>
      <trkpt lat="45.76396" lon="3.0287">
        <ele>593</ele>
        <time>2012-09-15T08:52:26Z</time>
      </trkpt>
      <trkpt lat="45.76385" lon="3.02861">
        <ele>592</ele>
        <time>2012-09-15T08:52:31Z</time>
      </trkpt>
      <trkpt lat="45.76377" lon="3.02853">
        <ele>592</ele>
        <time>2012-09-15T08:52:36Z</time>
      </trkpt>
      <trkpt lat="45.76372" lon="3.02843">
        <ele>596</ele>
        <time>2012-09-15T08:52:41Z</time>
      </trkpt>
      <trkpt lat="45.76368" lon="3.02837">
        <ele>602</ele>
        <time>2012-09-15T08:52:46Z</time>
      </trkpt>
      <trkpt lat="45.76358" lon="3.02837">
        <ele>612</ele>
        <time>2012-09-15T08:52:51Z</time>
      </trkpt>
      <trkpt lat="45.76351" lon="3.02838">
        <ele>621</ele>
        <time>2012-09-15T08:52:58Z</time>
      </trkpt>
      <trkpt lat="45.76344" lon="3.02836">
        <ele>626</ele>
        <time>2012-09-15T08:53:03Z</time>
      </trkpt>
      <trkpt lat="45.76341" lon="3.02834">
        <ele>626</ele>
        <time>2012-09-15T08:53:09Z</time>
      </trkpt>
      <trkpt lat="45.76336" lon="3.02833">
        <ele>626</ele>
        <time>2012-09-15T08:53:14Z</time>
      </trkpt>
      <trkpt lat="45.76324" lon="3.02835">
        <ele>629</ele>
        <time>2012-09-15T08:53:19Z</time>
      </trkpt>
      <trkpt lat="45.76322" lon="3.02838">
        <ele>635</ele>
        <time>2012-09-15T08:53:25Z</time>
      </trkpt>
      <trkpt lat="45.76317" lon="3.02843">
        <ele>640</ele>
        <time>2012-09-15T08:53:30Z</time>
      </trkpt>
      <trkpt lat="45.76311" lon="3.02846">
        <ele>644</ele>
        <time>2012-09-15T08:53:36Z</time>
      </trkpt>
      <trkpt lat="45.76306" lon="3.02849">
        <ele>642</ele>
        <time>2012-09-15T08:53:42Z</time>
      </trkpt>
      <trkpt lat="45.763" lon="3.02839">
        <ele>641</ele>
        <time>2012-09-15T08:53:52Z</time>
      </trkpt>
      <trkpt lat="45.76295" lon="3.02838">
        <ele>641</ele>
        <time>2012-09-15T08:53:59Z</time>
      </trkpt>
      <trkpt lat="45.76289" lon="3.02836">
        <ele>642</ele>
        <time>2012-09-15T08:54:05Z</time>
      </trkpt>
      <trkpt lat="45.76286" lon="3.02835">
        <ele>642</ele>
        <time>2012-09-15T08:54:11Z</time>
      </trkpt>
      <trkpt lat="45.7628" lon="3.02838">
        <ele>642</ele>
        <time>2012-09-15T08:54:16Z</time>
      </trkpt>
      <trkpt lat="45.76275" lon="3.0284">
        <ele>642</ele>
        <time>2012-09-15T08:54:21Z</time>
      </trkpt>
      <trkpt lat="45.7627" lon="3.02835">
        <ele>641</ele>
        <time>2012-09-15T08:54:27Z</time>
      </trkpt>
      <trkpt lat="45.76264" lon="3.02838">
        <ele>637</ele>
        <time>2012-09-15T08:54:33Z</time>
      </trkpt>
      <trkpt lat="45.76258" lon="3.02837">
        <ele>637</ele>
        <time>2012-09-15T08:54:39Z</time>
      </trkpt>
      <trkpt lat="45.76257" lon="3.02837">
        <ele>639</ele>
        <time>2012-09-15T08:54:44Z</time>
      </trkpt>
      <trkpt lat="45.76249" lon="3.02839">
        <ele>644</ele>
        <time>2012-09-15T08:54:51Z</time>
      </trkpt>
      <trkpt lat="45.76245" lon="3.02839">
        <ele>646</ele>
        <time>2012-09-15T08:54:56Z</time>
      </trkpt>
      <trkpt lat="45.76234" lon="3.02846">
        <ele>653</ele>
        <time>2012-09-15T08:55:03Z</time>
      </trkpt>
      <trkpt lat="45.76229" lon="3.02843">
        <ele>658</ele>
        <time>2012-09-15T08:55:08Z</time>
      </trkpt>
      <trkpt lat="45.76222" lon="3.02847">
        <ele>659</ele>
        <time>2012-09-15T08:55:13Z</time>
      </trkpt>
      <trkpt lat="45.76219" lon="3.02848">
        <ele>659</ele>
        <time>2012-09-15T08:55:18Z</time>
      </trkpt>
      <trkpt lat="45.76211" lon="3.02837">
        <ele>659</ele>
        <time>2012-09-15T08:55:24Z</time>
      </trkpt>
      <trkpt lat="45.76207" lon="3.02834">
        <ele>661</ele>
        <time>2012-09-15T08:55:29Z</time>
      </trkpt>
      <trkpt lat="45.76201" lon="3.02834">
        <ele>666</ele>
        <time>2012-09-15T08:55:34Z</time>
      </trkpt>
      <trkpt lat="45.76197" lon="3.02833">
        <ele>676</ele>
        <time>2012-09-15T08:55:40Z</time>
      </trkpt>
      <trkpt lat="45.76193" lon="3.02836">
        <ele>681</ele>
        <time>2012-09-15T08:55:46Z</time>
      </trkpt>
      <trkpt lat="45.76188" lon="3.02835">
        <ele>681</ele>
        <time>2012-09-15T08:55:51Z</time>
      </trkpt>
      <trkpt lat="45.76181" lon="3.0283">
        <ele>679</ele>
        <time>2012-09-15T08:55:56Z</time>
      </trkpt>
      <trkpt lat="45.76176" lon="3.02829">
        <ele>678</ele>
        <time>2012-09-15T08:56:01Z</time>
      </trkpt>
      <trkpt lat="45.76168" lon="3.02827">
        <ele>673</ele>
        <time>2012-09-15T08:56:07Z</time>
      </trkpt>
      <trkpt lat="45.76162" lon="3.02821">
        <ele>668</ele>
        <time>2012-09-15T08:56:12Z</time>
      </trkpt>
      <trkpt lat="45.76149" lon="3.02818">
        <ele>667</ele>
        <time>2012-09-15T08:56:19Z</time>
      </trkpt>
      <trkpt lat="45.76141" lon="3.02815">
        <ele>667</ele>
        <time>2012-09-15T08:56:24Z</time>
      </trkpt>
      <trkpt lat="45.76134" lon="3.02814">
        <ele>667</ele>
        <time>2012-09-15T08:56:29Z</time>
      </trkpt>
      <trkpt lat="45.76128" lon="3.0281">
        <ele>667</ele>
        <time>2012-09-15T08:56:34Z</time>
      </trkpt>
      <trkpt lat="45.7612" lon="3.02809">
        <ele>667</ele>
        <time>2012-09-15T08:56:39Z</time>
      </trkpt>
      <trkpt lat="45.76113" lon="3.02804">
        <ele>668</ele>
        <time>2012-09-15T08:56:44Z</time>
      </trkpt>
      <trkpt lat="45.76106" lon="3.02794">
        <ele>669</ele>
        <time>2012-09-15T08:56:52Z</time>
      </trkpt>
      <trkpt lat="45.761" lon="3.02787">
        <ele>669</ele>
        <time>2012-09-15T08:56:57Z</time>
      </trkpt>
      <trkpt lat="45.76086" lon="3.02777">
        <ele>670</ele>
        <time>2012-09-15T08:57:05Z</time>
      </trkpt>
      <trkpt lat="45.76076" lon="3.02757">
        <ele>670</ele>
        <time>2012-09-15T08:57:10Z</time>
      </trkpt>
      <trkpt lat="45.76067" lon="3.02748">
        <ele>671</ele>
        <time>2012-09-15T08:57:15Z</time>
      </trkpt>
      <trkpt lat="45.76063" lon="3.0274">
        <ele>671</ele>
        <time>2012-09-15T08:57:20Z</time>
      </trkpt>
      <trkpt lat="45.76054" lon="3.02733">
        <ele>671</ele>
        <time>2012-09-15T08:57:25Z</time>
      </trkpt>
      <trkpt lat="45.76043" lon="3.0273">
        <ele>671</ele>
        <time>2012-09-15T08:57:30Z</time>
      </trkpt>
      <trkpt lat="45.76033" lon="3.02727">
        <ele>671</ele>
        <time>2012-09-15T08:57:35Z</time>
      </trkpt>
      <trkpt lat="45.76023" lon="3.02724">
        <ele>671</ele>
        <time>2012-09-15T08:57:40Z</time>
      </trkpt>
      <trkpt lat="45.76015" lon="3.02719">
        <ele>669</ele>
        <time>2012-09-15T08:57:45Z</time>
      </trkpt>
      <trkpt lat="45.76006" lon="3.02714">
        <ele>668</ele>
        <time>2012-09-15T08:57:51Z</time>
      </trkpt>
      <trkpt lat="45.75994" lon="3.02709">
        <ele>668</ele>
        <time>2012-09-15T08:57:56Z</time>
      </trkpt>
      <trkpt lat="45.75983" lon="3.02706">
        <ele>668</ele>
        <time>2012-09-15T08:58:01Z</time>
      </trkpt>
      <trkpt lat="45.75973" lon="3.02702">
        <ele>668</ele>
        <time>2012-09-15T08:58:06Z</time>
      </trkpt>
      <trkpt lat="45.75964" lon="3.02698">
        <ele>668</ele>
        <time>2012-09-15T08:58:11Z</time>
      </trkpt>
      <trkpt lat="45.75955" lon="3.02695">
        <ele>668</ele>
        <time>2012-09-15T08:58:16Z</time>
      </trkpt>
      <trkpt lat="45.75942" lon="3.02691">
        <ele>668</ele>
        <time>2012-09-15T08:58:21Z</time>
      </trkpt>
      <trkpt lat="45.75931" lon="3.02684">
        <ele>668</ele>
        <time>2012-09-15T08:58:26Z</time>
      </trkpt>
      <trkpt lat="45.75916" lon="3.02677">
        <ele>668</ele>
        <time>2012-09-15T08:58:31Z</time>
      </trkpt>
      <trkpt lat="45.75895" lon="3.02669">
        <ele>668</ele>
        <time>2012-09-15T08:58:36Z</time>
      </trkpt>
      <trkpt lat="45.75879" lon="3.02661">
        <ele>670</ele>
        <time>2012-09-15T08:58:41Z</time>
      </trkpt>
      <trkpt lat="45.75867" lon="3.02648">
        <ele>673</ele>
        <time>2012-09-15T08:58:46Z</time>
      </trkpt>
      <trkpt lat="45.75856" lon="3.02635">
        <ele>673</ele>
        <time>2012-09-15T08:58:51Z</time>
      </trkpt>
      <trkpt lat="45.75845" lon="3.02623">
        <ele>675</ele>
        <time>2012-09-15T08:58:56Z</time>
      </trkpt>
      <trkpt lat="45.75837" lon="3.02613">
        <ele>680</ele>
        <time>2012-09-15T08:59:01Z</time>
      </trkpt>
      <trkpt lat="45.75824" lon="3.02606">
        <ele>682</ele>
        <time>2012-09-15T08:59:06Z</time>
      </trkpt>
      <trkpt lat="45.75814" lon="3.026">
        <ele>682</ele>
        <time>2012-09-15T08:59:11Z</time>
      </trkpt>
      <trkpt lat="45.75803" lon="3.02592">
        <ele>682</ele>
        <time>2012-09-15T08:59:16Z</time>
      </trkpt>
      <trkpt lat="45.75793" lon="3.02583">
        <ele>682</ele>
        <time>2012-09-15T08:59:21Z</time>
      </trkpt>
      <trkpt lat="45.75783" lon="3.02576">
        <ele>683</ele>
        <time>2012-09-15T08:59:26Z</time>
      </trkpt>
      <trkpt lat="45.75773" lon="3.02568">
        <ele>684</ele>
        <time>2012-09-15T08:59:31Z</time>
      </trkpt>
      <trkpt lat="45.75763" lon="3.02561">
        <ele>686</ele>
        <time>2012-09-15T08:59:36Z</time>
      </trkpt>
      <trkpt lat="45.75752" lon="3.02553">
        <ele>690</ele>
        <time>2012-09-15T08:59:41Z</time>
      </trkpt>
      <trkpt lat="45.75743" lon="3.02542">
        <ele>695</ele>
        <time>2012-09-15T08:59:46Z</time>
      </trkpt>
      <trkpt lat="45.75733" lon="3.02532">
        <ele>700</ele>
        <time>2012-09-15T08:59:51Z</time>
      </trkpt>
      <trkpt lat="45.75725" lon="3.0253">
        <ele>705</ele>
        <time>2012-09-15T08:59:56Z</time>
      </trkpt>
      <trkpt lat="45.75727" lon="3.02541">
        <ele>710</ele>
        <time>2012-09-15T09:00:01Z</time>
      </trkpt>
      <trkpt lat="45.75735" lon="3.02551">
        <ele>714</ele>
        <time>2012-09-15T09:00:06Z</time>
      </trkpt>
      <trkpt lat="45.75743" lon="3.02561">
        <ele>715</ele>
        <time>2012-09-15T09:00:11Z</time>
      </trkpt>
      <trkpt lat="45.75752" lon="3.02572">
        <ele>717</ele>
        <time>2012-09-15T09:00:16Z</time>
      </trkpt>
      <trkpt lat="45.75761" lon="3.02583">
        <ele>720</ele>
        <time>2012-09-15T09:00:21Z</time>
      </trkpt>
      <trkpt lat="45.75769" lon="3.02594">
        <ele>722</ele>
        <time>2012-09-15T09:00:26Z</time>
      </trkpt>
      <trkpt lat="45.75777" lon="3.02606">
        <ele>726</ele>
        <time>2012-09-15T09:00:31Z</time>
      </trkpt>
      <trkpt lat="45.75785" lon="3.02617">
        <ele>730</ele>
        <time>2012-09-15T09:00:36Z</time>
      </trkpt>
      <trkpt lat="45.75795" lon="3.0263">
        <ele>731</ele>
        <time>2012-09-15T09:00:41Z</time>
      </trkpt>
      <trkpt lat="45.75804" lon="3.02645">
        <ele>732</ele>
        <time>2012-09-15T09:00:46Z</time>
      </trkpt>
      <trkpt lat="45.75811" lon="3.02661">
        <ele>733</ele>
        <time>2012-09-15T09:00:51Z</time>
      </trkpt>
      <trkpt lat="45.75822" lon="3.02675">
        <ele>733</ele>
        <time>2012-09-15T09:00:56Z</time>
      </trkpt>
      <trkpt lat="45.7583" lon="3.0269">
        <ele>733</ele>
        <time>2012-09-15T09:01:01Z</time>
      </trkpt>
      <trkpt lat="45.75838" lon="3.027">
        <ele>735</ele>
        <time>2012-09-15T09:01:06Z</time>
      </trkpt>
      <trkpt lat="45.75851" lon="3.02705">
        <ele>737</ele>
        <time>2012-09-15T09:01:11Z</time>
      </trkpt>
      <trkpt lat="45.75867" lon="3.02712">
        <ele>738</ele>
        <time>2012-09-15T09:01:16Z</time>
      </trkpt>
      <trkpt lat="45.75884" lon="3.02724">
        <ele>739</ele>
        <time>2012-09-15T09:01:21Z</time>
      </trkpt>
      <trkpt lat="45.75906" lon="3.0274">
        <ele>739</ele>
        <time>2012-09-15T09:01:26Z</time>
      </trkpt>
      <trkpt lat="45.7592" lon="3.02752">
        <ele>740</ele>
        <time>2012-09-15T09:01:31Z</time>
      </trkpt>
      <trkpt lat="45.7593" lon="3.02762">
        <ele>743</ele>
        <time>2012-09-15T09:01:36Z</time>
      </trkpt>
      <trkpt lat="45.75935" lon="3.02769">
        <ele>746</ele>
        <time>2012-09-15T09:01:41Z</time>
      </trkpt>
      <trkpt lat="45.7594" lon="3.02776">
        <ele>747</ele>
        <time>2012-09-15T09:01:46Z</time>
      </trkpt>
      <trkpt lat="45.75946" lon="3.02782">
        <ele>747</ele>
        <time>2012-09-15T09:01:51Z</time>
      </trkpt>
      <trkpt lat="45.75951" lon="3.02791">
        <ele>748</ele>
        <time>2012-09-15T09:01:57Z</time>
      </trkpt>
      <trkpt lat="45.75956" lon="3.02799">
        <ele>752</ele>
        <time>2012-09-15T09:02:02Z</time>
      </trkpt>
      <trkpt lat="45.75961" lon="3.02805">
        <ele>752</ele>
        <time>2012-09-15T09:02:07Z</time>
      </trkpt>
      <trkpt lat="45.75967" lon="3.02812">
        <ele>753</ele>
        <time>2012-09-15T09:02:13Z</time>
      </trkpt>
      <trkpt lat="45.75972" lon="3.02819">
        <ele>754</ele>
        <time>2012-09-15T09:02:19Z</time>
      </trkpt>
      <trkpt lat="45.75977" lon="3.02828">
        <ele>755</ele>
        <time>2012-09-15T09:02:25Z</time>
      </trkpt>
      <trkpt lat="45.75984" lon="3.02833">
        <ele>756</ele>
        <time>2012-09-15T09:02:31Z</time>
      </trkpt>
      <trkpt lat="45.7599" lon="3.02838">
        <ele>757</ele>
        <time>2012-09-15T09:02:37Z</time>
      </trkpt>
      <trkpt lat="45.75994" lon="3.02844">
        <ele>758</ele>
        <time>2012-09-15T09:02:42Z</time>
      </trkpt>
      <trkpt lat="45.75989" lon="3.0285">
        <ele>760</ele>
        <time>2012-09-15T09:02:47Z</time>
      </trkpt>
      <trkpt lat="45.75982" lon="3.02849">
        <ele>760</ele>
        <time>2012-09-15T09:02:52Z</time>
      </trkpt>
      <trkpt lat="45.75974" lon="3.02846">
        <ele>760</ele>
        <time>2012-09-15T09:02:57Z</time>
      </trkpt>
      <trkpt lat="45.75965" lon="3.02842">
        <ele>760</ele>
        <time>2012-09-15T09:03:02Z</time>
      </trkpt>
      <trkpt lat="45.75956" lon="3.02837">
        <ele>760</ele>
        <time>2012-09-15T09:03:07Z</time>
      </trkpt>
      <trkpt lat="45.75944" lon="3.02831">
        <ele>759</ele>
        <time>2012-09-15T09:03:12Z</time>
      </trkpt>
      <trkpt lat="45.7593" lon="3.02821">
        <ele>758</ele>
        <time>2012-09-15T09:03:17Z</time>
      </trkpt>
      <trkpt lat="45.75912" lon="3.02812">
        <ele>757</ele>
        <time>2012-09-15T09:03:22Z</time>
      </trkpt>
      <trkpt lat="45.75893" lon="3.02801">
        <ele>756</ele>
        <time>2012-09-15T09:03:27Z</time>
      </trkpt>
      <trkpt lat="45.75877" lon="3.02791">
        <ele>754</ele>
        <time>2012-09-15T09:03:32Z</time>
      </trkpt>
      <trkpt lat="45.75862" lon="3.02782">
        <ele>752</ele>
        <time>2012-09-15T09:03:37Z</time>
      </trkpt>
      <trkpt lat="45.75845" lon="3.02777">
        <ele>752</ele>
        <time>2012-09-15T09:03:42Z</time>
      </trkpt>
      <trkpt lat="45.75828" lon="3.02775">
        <ele>752</ele>
        <time>2012-09-15T09:03:47Z</time>
      </trkpt>
      <trkpt lat="45.75809" lon="3.0277">
        <ele>752</ele>
        <time>2012-09-15T09:03:52Z</time>
      </trkpt>
      <trkpt lat="45.75794" lon="3.02758">
        <ele>751</ele>
        <time>2012-09-15T09:03:57Z</time>
      </trkpt>
      <trkpt lat="45.75787" lon="3.0275">
        <ele>751</ele>
        <time>2012-09-15T09:04:02Z</time>
      </trkpt>
      <trkpt lat="45.75779" lon="3.02741">
        <ele>751</ele>
        <time>2012-09-15T09:04:07Z</time>
      </trkpt>
      <trkpt lat="45.75771" lon="3.02731">
        <ele>751</ele>
        <time>2012-09-15T09:04:12Z</time>
      </trkpt>
      <trkpt lat="45.75764" lon="3.02721">
        <ele>751</ele>
        <time>2012-09-15T09:04:17Z</time>
      </trkpt>
      <trkpt lat="45.75753" lon="3.02714">
        <ele>751</ele>
        <time>2012-09-15T09:04:22Z</time>
      </trkpt>
      <trkpt lat="45.75741" lon="3.02708">
        <ele>751</ele>
        <time>2012-09-15T09:04:27Z</time>
      </trkpt>
      <trkpt lat="45.75729" lon="3.027">
        <ele>753</ele>
        <time>2012-09-15T09:04:32Z</time>
      </trkpt>
      <trkpt lat="45.75719" lon="3.0269">
        <ele>757</ele>
        <time>2012-09-15T09:04:37Z</time>
      </trkpt>
      <trkpt lat="45.75708" lon="3.02683">
        <ele>758</ele>
        <time>2012-09-15T09:04:42Z</time>
      </trkpt>
      <trkpt lat="45.75697" lon="3.02677">
        <ele>759</ele>
        <time>2012-09-15T09:04:47Z</time>
      </trkpt>
      <trkpt lat="45.75689" lon="3.02671">
        <ele>760</ele>
        <time>2012-09-15T09:04:52Z</time>
      </trkpt>
      <trkpt lat="45.75682" lon="3.02668">
        <ele>766</ele>
        <time>2012-09-15T09:04:58Z</time>
      </trkpt>
      <trkpt lat="45.75684" lon="3.02676">
        <ele>767</ele>
        <time>2012-09-15T09:05:03Z</time>
      </trkpt>
      <trkpt lat="45.7569" lon="3.02682">
        <ele>772</ele>
        <time>2012-09-15T09:05:08Z</time>
      </trkpt>
      <trkpt lat="45.75698" lon="3.0269">
        <ele>778</ele>
        <time>2012-09-15T09:05:14Z</time>
      </trkpt>
      <trkpt lat="45.75705" lon="3.02699">
        <ele>782</ele>
        <time>2012-09-15T09:05:19Z</time>
      </trkpt>
      <trkpt lat="45.7571" lon="3.02713">
        <ele>785</ele>
        <time>2012-09-15T09:05:24Z</time>
      </trkpt>
      <trkpt lat="45.75712" lon="3.02726">
        <ele>785</ele>
        <time>2012-09-15T09:05:29Z</time>
      </trkpt>
      <trkpt lat="45.75716" lon="3.02738">
        <ele>785</ele>
        <time>2012-09-15T09:05:34Z</time>
      </trkpt>
      <trkpt lat="45.7572" lon="3.02751">
        <ele>789</ele>
        <time>2012-09-15T09:05:39Z</time>
      </trkpt>
      <trkpt lat="45.75725" lon="3.02764">
        <ele>792</ele>
        <time>2012-09-15T09:05:44Z</time>
      </trkpt>
      <trkpt lat="45.7573" lon="3.02775">
        <ele>795</ele>
        <time>2012-09-15T09:05:49Z</time>
      </trkpt>
      <trkpt lat="45.75734" lon="3.02784">
        <ele>796</ele>
        <time>2012-09-15T09:05:54Z</time>
      </trkpt>
      <trkpt lat="45.75741" lon="3.02795">
        <ele>798</ele>
        <time>2012-09-15T09:05:59Z</time>
      </trkpt>
      <trkpt lat="45.75747" lon="3.02806">
        <ele>798</ele>
        <time>2012-09-15T09:06:04Z</time>
      </trkpt>
      <trkpt lat="45.75753" lon="3.02815">
        <ele>798</ele>
        <time>2012-09-15T09:06:09Z</time>
      </trkpt>
      <trkpt lat="45.7576" lon="3.02823">
        <ele>798</ele>
        <time>2012-09-15T09:06:14Z</time>
      </trkpt>
      <trkpt lat="45.75766" lon="3.02831">
        <ele>798</ele>
        <time>2012-09-15T09:06:19Z</time>
      </trkpt>
      <trkpt lat="45.75774" lon="3.02841">
        <ele>800</ele>
        <time>2012-09-15T09:06:24Z</time>
      </trkpt>
      <trkpt lat="45.75783" lon="3.02849">
        <ele>805</ele>
        <time>2012-09-15T09:06:29Z</time>
      </trkpt>
      <trkpt lat="45.75786" lon="3.02858">
        <ele>808</ele>
        <time>2012-09-15T09:06:35Z</time>
      </trkpt>
      <trkpt lat="45.7578" lon="3.02857">
        <ele>808</ele>
        <time>2012-09-15T09:06:40Z</time>
      </trkpt>
      <trkpt lat="45.75773" lon="3.02857">
        <ele>808</ele>
        <time>2012-09-15T09:06:45Z</time>
      </trkpt>
      <trkpt lat="45.75763" lon="3.02856">
        <ele>808</ele>
        <time>2012-09-15T09:06:50Z</time>
      </trkpt>
      <trkpt lat="45.75753" lon="3.02855">
        <ele>806</ele>
        <time>2012-09-15T09:06:55Z</time>
      </trkpt>
      <trkpt lat="45.75742" lon="3.02856">
        <ele>801</ele>
        <time>2012-09-15T09:07:00Z</time>
      </trkpt>
      <trkpt lat="45.75734" lon="3.02853">
        <ele>797</ele>
        <time>2012-09-15T09:07:05Z</time>
      </trkpt>
      <trkpt lat="45.75726" lon="3.02852">
        <ele>797</ele>
        <time>2012-09-15T09:07:10Z</time>
      </trkpt>
      <trkpt lat="45.75717" lon="3.02849">
        <ele>797</ele>
        <time>2012-09-15T09:07:15Z</time>
      </trkpt>
      <trkpt lat="45.75709" lon="3.02844">
        <ele>797</ele>
        <time>2012-09-15T09:07:20Z</time>
      </trkpt>
      <trkpt lat="45.757" lon="3.02842">
        <ele>797</ele>
        <time>2012-09-15T09:07:25Z</time>
      </trkpt>
      <trkpt lat="45.75691" lon="3.02838">
        <ele>796</ele>
        <time>2012-09-15T09:07:30Z</time>
      </trkpt>
      <trkpt lat="45.7568" lon="3.02831">
        <ele>796</ele>
        <time>2012-09-15T09:07:35Z</time>
      </trkpt>
      <trkpt lat="45.75671" lon="3.02821">
        <ele>796</ele>
        <time>2012-09-15T09:07:40Z</time>
      </trkpt>
      <trkpt lat="45.75663" lon="3.02814">
        <ele>799</ele>
        <time>2012-09-15T09:07:45Z</time>
      </trkpt>
      <trkpt lat="45.75652" lon="3.02806">
        <ele>800</ele>
        <time>2012-09-15T09:07:50Z</time>
      </trkpt>
      <trkpt lat="45.75639" lon="3.02798">
        <ele>800</ele>
        <time>2012-09-15T09:07:55Z</time>
      </trkpt>
      <trkpt lat="45.75629" lon="3.02794">
        <ele>800</ele>
        <time>2012-09-15T09:08:00Z</time>
      </trkpt>
      <trkpt lat="45.75621" lon="3.02791">
        <ele>800</ele>
        <time>2012-09-15T09:08:05Z</time>
      </trkpt>
      <trkpt lat="45.75615" lon="3.02791">
        <ele>800</ele>
        <time>2012-09-15T09:08:10Z</time>
      </trkpt>
      <trkpt lat="45.75609" lon="3.0279">
        <ele>800</ele>
        <time>2012-09-15T09:08:15Z</time>
      </trkpt>
      <trkpt lat="45.75602" lon="3.02793">
        <ele>800</ele>
        <time>2012-09-15T09:08:20Z</time>
      </trkpt>
      <trkpt lat="45.75595" lon="3.02796">
        <ele>800</ele>
        <time>2012-09-15T09:08:25Z</time>
      </trkpt>
      <trkpt lat="45.75586" lon="3.02799">
        <ele>798</ele>
        <time>2012-09-15T09:08:30Z</time>
      </trkpt>
      <trkpt lat="45.75578" lon="3.02802">
        <ele>797</ele>
        <time>2012-09-15T09:08:35Z</time>
      </trkpt>
      <trkpt lat="45.75568" lon="3.02804">
        <ele>796</ele>
        <time>2012-09-15T09:08:40Z</time>
      </trkpt>
      <trkpt lat="45.75558" lon="3.02805">
        <ele>796</ele>
        <time>2012-09-15T09:08:45Z</time>
      </trkpt>
      <trkpt lat="45.75542" lon="3.02809">
        <ele>797</ele>
        <time>2012-09-15T09:08:50Z</time>
      </trkpt>
      <trkpt lat="45.75527" lon="3.02807">
        <ele>802</ele>
        <time>2012-09-15T09:08:55Z</time>
      </trkpt>
      <trkpt lat="45.75511" lon="3.02806">
        <ele>804</ele>
        <time>2012-09-15T09:09:00Z</time>
      </trkpt>
      <trkpt lat="45.75497" lon="3.02801">
        <ele>804</ele>
        <time>2012-09-15T09:09:05Z</time>
      </trkpt>
      <trkpt lat="45.75481" lon="3.02799">
        <ele>804</ele>
        <time>2012-09-15T09:09:10Z</time>
      </trkpt>
      <trkpt lat="45.75466" lon="3.02795">
        <ele>809</ele>
        <time>2012-09-15T09:09:15Z</time>
      </trkpt>
      <trkpt lat="45.75451" lon="3.02789">
        <ele>813</ele>
        <time>2012-09-15T09:09:20Z</time>
      </trkpt>
      <trkpt lat="45.75436" lon="3.02782">
        <ele>814</ele>
        <time>2012-09-15T09:09:25Z</time>
      </trkpt>
      <trkpt lat="45.75422" lon="3.02778">
        <ele>818</ele>
        <time>2012-09-15T09:09:30Z</time>
      </trkpt>
      <trkpt lat="45.7541" lon="3.02776">
        <ele>820</ele>
        <time>2012-09-15T09:09:35Z</time>
      </trkpt>
      <trkpt lat="45.754" lon="3.02773">
        <ele>820</ele>
        <time>2012-09-15T09:09:40Z</time>
      </trkpt>
      <trkpt lat="45.75389" lon="3.02773">
        <ele>821</ele>
        <time>2012-09-15T09:09:45Z</time>
      </trkpt>
      <trkpt lat="45.75378" lon="3.02775">
        <ele>823</ele>
        <time>2012-09-15T09:09:50Z</time>
      </trkpt>
      <trkpt lat="45.7537" lon="3.02782">
        <ele>825</ele>
        <time>2012-09-15T09:09:55Z</time>
      </trkpt>
      <trkpt lat="45.75359" lon="3.02793">
        <ele>825</ele>
        <time>2012-09-15T09:10:00Z</time>
      </trkpt>
      <trkpt lat="45.75352" lon="3.02798">
        <ele>828</ele>
        <time>2012-09-15T09:10:05Z</time>
      </trkpt>
      <trkpt lat="45.75346" lon="3.02806">
        <ele>829</ele>
        <time>2012-09-15T09:10:10Z</time>
      </trkpt>
      <trkpt lat="45.75338" lon="3.02814">
        <ele>829</ele>
        <time>2012-09-15T09:10:15Z</time>
      </trkpt>
      <trkpt lat="45.7533" lon="3.02818">
        <ele>829</ele>
        <time>2012-09-15T09:10:21Z</time>
      </trkpt>
      <trkpt lat="45.75321" lon="3.02826">
        <ele>830</ele>
        <time>2012-09-15T09:10:26Z</time>
      </trkpt>
      <trkpt lat="45.75313" lon="3.02833">
        <ele>833</ele>
        <time>2012-09-15T09:10:31Z</time>
      </trkpt>
      <trkpt lat="45.75304" lon="3.02838">
        <ele>835</ele>
        <time>2012-09-15T09:10:36Z</time>
      </trkpt>
      <trkpt lat="45.75297" lon="3.02842">
        <ele>836</ele>
        <time>2012-09-15T09:10:41Z</time>
      </trkpt>
      <trkpt lat="45.75288" lon="3.02846">
        <ele>839</ele>
        <time>2012-09-15T09:10:46Z</time>
      </trkpt>
      <trkpt lat="45.75279" lon="3.0285">
        <ele>841</ele>
        <time>2012-09-15T09:10:51Z</time>
      </trkpt>
      <trkpt lat="45.75269" lon="3.02855">
        <ele>843</ele>
        <time>2012-09-15T09:10:56Z</time>
      </trkpt>
      <trkpt lat="45.75259" lon="3.0286">
        <ele>843</ele>
        <time>2012-09-15T09:11:01Z</time>
      </trkpt>
      <trkpt lat="45.75251" lon="3.02868">
        <ele>843</ele>
        <time>2012-09-15T09:11:06Z</time>
      </trkpt>
      <trkpt lat="45.7524" lon="3.02878">
        <ele>843</ele>
        <time>2012-09-15T09:11:11Z</time>
      </trkpt>
      <trkpt lat="45.75232" lon="3.02894">
        <ele>843</ele>
        <time>2012-09-15T09:11:16Z</time>
      </trkpt>
      <trkpt lat="45.7522" lon="3.02912">
        <ele>842</ele>
        <time>2012-09-15T09:11:21Z</time>
      </trkpt>
      <trkpt lat="45.75202" lon="3.0293">
        <ele>842</ele>
        <time>2012-09-15T09:11:26Z</time>
      </trkpt>
      <trkpt lat="45.75177" lon="3.02927">
        <ele>842</ele>
        <time>2012-09-15T09:11:31Z</time>
      </trkpt>
      <trkpt lat="45.75157" lon="3.02923">
        <ele>842</ele>
        <time>2012-09-15T09:11:36Z</time>
      </trkpt>
      <trkpt lat="45.75141" lon="3.02917">
        <ele>842</ele>
        <time>2012-09-15T09:11:41Z</time>
      </trkpt>
      <trkpt lat="45.75126" lon="3.0291">
        <ele>842</ele>
        <time>2012-09-15T09:11:46Z</time>
      </trkpt>
      <trkpt lat="45.7511" lon="3.029">
        <ele>842</ele>
        <time>2012-09-15T09:11:51Z</time>
      </trkpt>
      <trkpt lat="45.75094" lon="3.02885">
        <ele>842</ele>
        <time>2012-09-15T09:11:56Z</time>
      </trkpt>
      <trkpt lat="45.7508" lon="3.02859">
        <ele>842</ele>
        <time>2012-09-15T09:12:01Z</time>
      </trkpt>
      <trkpt lat="45.7506" lon="3.02823">
        <ele>841</ele>
        <time>2012-09-15T09:12:06Z</time>
      </trkpt>
      <trkpt lat="45.75038" lon="3.02781">
        <ele>839</ele>
        <time>2012-09-15T09:12:11Z</time>
      </trkpt>
      <trkpt lat="45.75014" lon="3.02735">
        <ele>837</ele>
        <time>2012-09-15T09:12:16Z</time>
      </trkpt>
      <trkpt lat="45.74989" lon="3.02682">
        <ele>835</ele>
        <time>2012-09-15T09:12:21Z</time>
      </trkpt>
      <trkpt lat="45.74955" lon="3.02641">
        <ele>830</ele>
        <time>2012-09-15T09:12:26Z</time>
      </trkpt>
      <trkpt lat="45.74928" lon="3.02606">
        <ele>829</ele>
        <time>2012-09-15T09:12:31Z</time>
      </trkpt>
      <trkpt lat="45.74909" lon="3.02577">
        <ele>828</ele>
        <time>2012-09-15T09:12:36Z</time>
      </trkpt>
      <trkpt lat="45.74889" lon="3.02554">
        <ele>828</ele>
        <time>2012-09-15T09:12:41Z</time>
      </trkpt>
      <trkpt lat="45.74867" lon="3.02524">
        <ele>828</ele>
        <time>2012-09-15T09:12:46Z</time>
      </trkpt>
      <trkpt lat="45.74844" lon="3.02486">
        <ele>828</ele>
        <time>2012-09-15T09:12:51Z</time>
      </trkpt>
      <trkpt lat="45.74828" lon="3.02474">
        <ele>828</ele>
        <time>2012-09-15T09:12:56Z</time>
      </trkpt>
      <trkpt lat="45.74818" lon="3.02475">
        <ele>828</ele>
        <time>2012-09-15T09:13:01Z</time>
      </trkpt>
      <trkpt lat="45.74811" lon="3.02447">
        <ele>828</ele>
        <time>2012-09-15T09:13:06Z</time>
      </trkpt>
      <trkpt lat="45.74801" lon="3.02409">
        <ele>828</ele>
        <time>2012-09-15T09:13:11Z</time>
      </trkpt>
      <trkpt lat="45.74785" lon="3.02379">
        <ele>829</ele>
        <time>2012-09-15T09:13:16Z</time>
      </trkpt>
      <trkpt lat="45.7477" lon="3.02349">
        <ele>830</ele>
        <time>2012-09-15T09:13:21Z</time>
      </trkpt>
      <trkpt lat="45.74747" lon="3.02348">
        <ele>831</ele>
        <time>2012-09-15T09:13:26Z</time>
      </trkpt>
      <trkpt lat="45.7473" lon="3.02372">
        <ele>831</ele>
        <time>2012-09-15T09:13:31Z</time>
      </trkpt>
      <trkpt lat="45.74706" lon="3.02363">
        <ele>831</ele>
        <time>2012-09-15T09:13:36Z</time>
      </trkpt>
      <trkpt lat="45.74682" lon="3.02362">
        <ele>831</ele>
        <time>2012-09-15T09:13:41Z</time>
      </trkpt>
      <trkpt lat="45.74669" lon="3.02342">
        <ele>831</ele>
        <time>2012-09-15T09:13:46Z</time>
      </trkpt>
      <trkpt lat="45.74659" lon="3.02321">
        <ele>831</ele>
        <time>2012-09-15T09:13:51Z</time>
      </trkpt>
      <trkpt lat="45.74651" lon="3.023">
        <ele>831</ele>
        <time>2012-09-15T09:13:56Z</time>
      </trkpt>
      <trkpt lat="45.74643" lon="3.02275">
        <ele>831</ele>
        <time>2012-09-15T09:14:01Z</time>
      </trkpt>
      <trkpt lat="45.74638" lon="3.02253">
        <ele>831</ele>
        <time>2012-09-15T09:14:06Z</time>
      </trkpt>
      <trkpt lat="45.74636" lon="3.02231">
        <ele>831</ele>
        <time>2012-09-15T09:14:11Z</time>
      </trkpt>
      <trkpt lat="45.74634" lon="3.02208">
        <ele>831</ele>
        <time>2012-09-15T09:14:16Z</time>
      </trkpt>
      <trkpt lat="45.74632" lon="3.02189">
        <ele>831</ele>
        <time>2012-09-15T09:14:21Z</time>
      </trkpt>
      <trkpt lat="45.74628" lon="3.02168">
        <ele>831</ele>
        <time>2012-09-15T09:14:26Z</time>
      </trkpt>
      <trkpt lat="45.74622" lon="3.02147">
        <ele>831</ele>
        <time>2012-09-15T09:14:31Z</time>
      </trkpt>
      <trkpt lat="45.74617" lon="3.02131">
        <ele>831</ele>
        <time>2012-09-15T09:14:36Z</time>
      </trkpt>
      <trkpt lat="45.74609" lon="3.02114">
        <ele>831</ele>
        <time>2012-09-15T09:14:41Z</time>
      </trkpt>
      <trkpt lat="45.74604" lon="3.02091">
        <ele>831</ele>
        <time>2012-09-15T09:14:46Z</time>
      </trkpt>
      <trkpt lat="45.74601" lon="3.02068">
        <ele>831</ele>
        <time>2012-09-15T09:14:51Z</time>
      </trkpt>
      <trkpt lat="45.746" lon="3.02048">
        <ele>834</ele>
        <time>2012-09-15T09:14:56Z</time>
      </trkpt>
      <trkpt lat="45.74599" lon="3.0203">
        <ele>834</ele>
        <time>2012-09-15T09:15:01Z</time>
      </trkpt>
      <trkpt lat="45.74597" lon="3.02014">
        <ele>834</ele>
        <time>2012-09-15T09:15:06Z</time>
      </trkpt>
      <trkpt lat="45.74596" lon="3.01998">
        <ele>836</ele>
        <time>2012-09-15T09:15:11Z</time>
      </trkpt>
      <trkpt lat="45.74595" lon="3.01983">
        <ele>837</ele>
        <time>2012-09-15T09:15:16Z</time>
      </trkpt>
      <trkpt lat="45.74593" lon="3.01969">
        <ele>837</ele>
        <time>2012-09-15T09:15:21Z</time>
      </trkpt>
      <trkpt lat="45.74588" lon="3.01956">
        <ele>838</ele>
        <time>2012-09-15T09:15:26Z</time>
      </trkpt>
      <trkpt lat="45.74583" lon="3.0194">
        <ele>839</ele>
        <time>2012-09-15T09:15:31Z</time>
      </trkpt>
      <trkpt lat="45.74578" lon="3.01924">
        <ele>841</ele>
        <time>2012-09-15T09:15:36Z</time>
      </trkpt>
      <trkpt lat="45.74573" lon="3.01908">
        <ele>842</ele>
        <time>2012-09-15T09:15:41Z</time>
      </trkpt>
      <trkpt lat="45.74568" lon="3.01892">
        <ele>844</ele>
        <time>2012-09-15T09:15:46Z</time>
      </trkpt>
      <trkpt lat="45.74563" lon="3.01876">
        <ele>845</ele>
        <time>2012-09-15T09:15:51Z</time>
      </trkpt>
      <trkpt lat="45.74558" lon="3.01862">
        <ele>846</ele>
        <time>2012-09-15T09:15:56Z</time>
      </trkpt>
      <trkpt lat="45.74553" lon="3.01848">
        <ele>847</ele>
        <time>2012-09-15T09:16:01Z</time>
      </trkpt>
      <trkpt lat="45.74547" lon="3.01834">
        <ele>848</ele>
        <time>2012-09-15T09:16:06Z</time>
      </trkpt>
      <trkpt lat="45.74542" lon="3.01821">
        <ele>849</ele>
        <time>2012-09-15T09:16:11Z</time>
      </trkpt>
      <trkpt lat="45.74537" lon="3.01807">
        <ele>850</ele>
        <time>2012-09-15T09:16:16Z</time>
      </trkpt>
      <trkpt lat="45.74535" lon="3.01793">
        <ele>852</ele>
        <time>2012-09-15T09:16:21Z</time>
      </trkpt>
      <trkpt lat="45.74536" lon="3.0178">
        <ele>853</ele>
        <time>2012-09-15T09:16:26Z</time>
      </trkpt>
      <trkpt lat="45.7454" lon="3.01765">
        <ele>854</ele>
        <time>2012-09-15T09:16:31Z</time>
      </trkpt>
      <trkpt lat="45.74539" lon="3.0175">
        <ele>855</ele>
        <time>2012-09-15T09:16:36Z</time>
      </trkpt>
      <trkpt lat="45.74535" lon="3.01737">
        <ele>855</ele>
        <time>2012-09-15T09:16:41Z</time>
      </trkpt>
      <trkpt lat="45.74532" lon="3.01724">
        <ele>856</ele>
        <time>2012-09-15T09:16:46Z</time>
      </trkpt>
      <trkpt lat="45.7453" lon="3.01712">
        <ele>857</ele>
        <time>2012-09-15T09:16:51Z</time>
      </trkpt>
      <trkpt lat="45.74528" lon="3.01699">
        <ele>858</ele>
        <time>2012-09-15T09:16:56Z</time>
      </trkpt>
      <trkpt lat="45.74526" lon="3.01689">
        <ele>858</ele>
        <time>2012-09-15T09:17:01Z</time>
      </trkpt>
      <trkpt lat="45.74524" lon="3.01678">
        <ele>860</ele>
        <time>2012-09-15T09:17:06Z</time>
      </trkpt>
      <trkpt lat="45.74522" lon="3.01667">
        <ele>861</ele>
        <time>2012-09-15T09:17:11Z</time>
      </trkpt>
      <trkpt lat="45.7452" lon="3.01654">
        <ele>862</ele>
        <time>2012-09-15T09:17:16Z</time>
      </trkpt>
      <trkpt lat="45.74519" lon="3.01641">
        <ele>865</ele>
        <time>2012-09-15T09:17:21Z</time>
      </trkpt>
      <trkpt lat="45.74519" lon="3.0163">
        <ele>867</ele>
        <time>2012-09-15T09:17:26Z</time>
      </trkpt>
      <trkpt lat="45.74517" lon="3.0162">
        <ele>867</ele>
        <time>2012-09-15T09:17:31Z</time>
      </trkpt>
      <trkpt lat="45.74516" lon="3.01609">
        <ele>868</ele>
        <time>2012-09-15T09:17:36Z</time>
      </trkpt>
      <trkpt lat="45.74519" lon="3.01598">
        <ele>869</ele>
        <time>2012-09-15T09:17:41Z</time>
      </trkpt>
      <trkpt lat="45.7452" lon="3.01585">
        <ele>871</ele>
        <time>2012-09-15T09:17:46Z</time>
      </trkpt>
      <trkpt lat="45.74519" lon="3.01569">
        <ele>871</ele>
        <time>2012-09-15T09:17:51Z</time>
      </trkpt>
      <trkpt lat="45.74517" lon="3.0155">
        <ele>871</ele>
        <time>2012-09-15T09:17:56Z</time>
      </trkpt>
      <trkpt lat="45.74517" lon="3.01532">
        <ele>873</ele>
        <time>2012-09-15T09:18:01Z</time>
      </trkpt>
      <trkpt lat="45.74516" lon="3.01512">
        <ele>875</ele>
        <time>2012-09-15T09:18:06Z</time>
      </trkpt>
      <trkpt lat="45.74514" lon="3.01494">
        <ele>877</ele>
        <time>2012-09-15T09:18:11Z</time>
      </trkpt>
      <trkpt lat="45.74508" lon="3.01477">
        <ele>879</ele>
        <time>2012-09-15T09:18:16Z</time>
      </trkpt>
      <trkpt lat="45.745" lon="3.01461">
        <ele>880</ele>
        <time>2012-09-15T09:18:21Z</time>
      </trkpt>
      <trkpt lat="45.74493" lon="3.01446">
        <ele>880</ele>
        <time>2012-09-15T09:18:26Z</time>
      </trkpt>
      <trkpt lat="45.74484" lon="3.0143">
        <ele>880</ele>
        <time>2012-09-15T09:18:31Z</time>
      </trkpt>
      <trkpt lat="45.74471" lon="3.01417">
        <ele>880</ele>
        <time>2012-09-15T09:18:36Z</time>
      </trkpt>
      <trkpt lat="45.74458" lon="3.01402">
        <ele>880</ele>
        <time>2012-09-15T09:18:41Z</time>
      </trkpt>
      <trkpt lat="45.74449" lon="3.01385">
        <ele>880</ele>
        <time>2012-09-15T09:18:46Z</time>
      </trkpt>
      <trkpt lat="45.7444" lon="3.01365">
        <ele>880</ele>
        <time>2012-09-15T09:18:51Z</time>
      </trkpt>
      <trkpt lat="45.74433" lon="3.01342">
        <ele>883</ele>
        <time>2012-09-15T09:18:56Z</time>
      </trkpt>
      <trkpt lat="45.74431" lon="3.01313">
        <ele>883</ele>
        <time>2012-09-15T09:19:01Z</time>
      </trkpt>
      <trkpt lat="45.74426" lon="3.0128">
        <ele>883</ele>
        <time>2012-09-15T09:19:06Z</time>
      </trkpt>
      <trkpt lat="45.74419" lon="3.01247">
        <ele>883</ele>
        <time>2012-09-15T09:19:11Z</time>
      </trkpt>
      <trkpt lat="45.7441" lon="3.01219">
        <ele>883</ele>
        <time>2012-09-15T09:19:16Z</time>
      </trkpt>
      <trkpt lat="45.74402" lon="3.0119">
        <ele>883</ele>
        <time>2012-09-15T09:19:21Z</time>
      </trkpt>
      <trkpt lat="45.74389" lon="3.01163">
        <ele>883</ele>
        <time>2012-09-15T09:19:26Z</time>
      </trkpt>
      <trkpt lat="45.74376" lon="3.0114">
        <ele>883</ele>
        <time>2012-09-15T09:19:31Z</time>
      </trkpt>
      <trkpt lat="45.74363" lon="3.01113">
        <ele>883</ele>
        <time>2012-09-15T09:19:36Z</time>
      </trkpt>
      <trkpt lat="45.74345" lon="3.01084">
        <ele>883</ele>
        <time>2012-09-15T09:19:41Z</time>
      </trkpt>
      <trkpt lat="45.74323" lon="3.01054">
        <ele>883</ele>
        <time>2012-09-15T09:19:46Z</time>
      </trkpt>
      <trkpt lat="45.74294" lon="3.01033">
        <ele>883</ele>
        <time>2012-09-15T09:19:51Z</time>
      </trkpt>
      <trkpt lat="45.74262" lon="3.01022">
        <ele>883</ele>
        <time>2012-09-15T09:19:56Z</time>
      </trkpt>
      <trkpt lat="45.74241" lon="3.01009">
        <ele>883</ele>
        <time>2012-09-15T09:20:01Z</time>
      </trkpt>
      <trkpt lat="45.74225" lon="3.00993">
        <ele>883</ele>
        <time>2012-09-15T09:20:06Z</time>
      </trkpt>
      <trkpt lat="45.74213" lon="3.00989">
        <ele>883</ele>
        <time>2012-09-15T09:20:11Z</time>
      </trkpt>
      <trkpt lat="45.74207" lon="3.00989">
        <ele>883</ele>
        <time>2012-09-15T09:20:16Z</time>
      </trkpt>
      <trkpt lat="45.74205" lon="3.00988">
        <ele>883</ele>
        <time>2012-09-15T09:20:24Z</time>
      </trkpt>
      <trkpt lat="45.74201" lon="3.00988">
        <ele>883</ele>
        <time>2012-09-15T09:20:29Z</time>
      </trkpt>
      <trkpt lat="45.74195" lon="3.0099">
        <ele>883</ele>
        <time>2012-09-15T09:20:34Z</time>
      </trkpt>
      <trkpt lat="45.74188" lon="3.00995">
        <ele>885</ele>
        <time>2012-09-15T09:20:39Z</time>
      </trkpt>
      <trkpt lat="45.74183" lon="3.00997">
        <ele>887</ele>
        <time>2012-09-15T09:20:44Z</time>
      </trkpt>
      <trkpt lat="45.74177" lon="3.01003">
        <ele>888</ele>
        <time>2012-09-15T09:20:50Z</time>
      </trkpt>
      <trkpt lat="45.74173" lon="3.01008">
        <ele>888</ele>
        <time>2012-09-15T09:20:56Z</time>
      </trkpt>
      <trkpt lat="45.74166" lon="3.01011">
        <ele>889</ele>
        <time>2012-09-15T09:21:02Z</time>
      </trkpt>
      <trkpt lat="45.74161" lon="3.01016">
        <ele>891</ele>
        <time>2012-09-15T09:21:07Z</time>
      </trkpt>
      <trkpt lat="45.74155" lon="3.01021">
        <ele>893</ele>
        <time>2012-09-15T09:21:13Z</time>
      </trkpt>
      <trkpt lat="45.74149" lon="3.01027">
        <ele>894</ele>
        <time>2012-09-15T09:21:18Z</time>
      </trkpt>
      <trkpt lat="45.74142" lon="3.0103">
        <ele>896</ele>
        <time>2012-09-15T09:21:23Z</time>
      </trkpt>
      <trkpt lat="45.74136" lon="3.01037">
        <ele>896</ele>
        <time>2012-09-15T09:21:29Z</time>
      </trkpt>
      <trkpt lat="45.74127" lon="3.01048">
        <ele>896</ele>
        <time>2012-09-15T09:21:34Z</time>
      </trkpt>
      <trkpt lat="45.74117" lon="3.01061">
        <ele>896</ele>
        <time>2012-09-15T09:21:39Z</time>
      </trkpt>
      <trkpt lat="45.74102" lon="3.01073">
        <ele>896</ele>
        <time>2012-09-15T09:21:44Z</time>
      </trkpt>
      <trkpt lat="45.74086" lon="3.01076">
        <ele>896</ele>
        <time>2012-09-15T09:21:49Z</time>
      </trkpt>
      <trkpt lat="45.74072" lon="3.0108">
        <ele>896</ele>
        <time>2012-09-15T09:21:54Z</time>
      </trkpt>
      <trkpt lat="45.74056" lon="3.0108">
        <ele>897</ele>
        <time>2012-09-15T09:21:59Z</time>
      </trkpt>
      <trkpt lat="45.74041" lon="3.01079">
        <ele>898</ele>
        <time>2012-09-15T09:22:04Z</time>
      </trkpt>
      <trkpt lat="45.74026" lon="3.01078">
        <ele>899</ele>
        <time>2012-09-15T09:22:09Z</time>
      </trkpt>
      <trkpt lat="45.74012" lon="3.01074">
        <ele>900</ele>
        <time>2012-09-15T09:22:14Z</time>
      </trkpt>
      <trkpt lat="45.73999" lon="3.01072">
        <ele>901</ele>
        <time>2012-09-15T09:22:19Z</time>
      </trkpt>
      <trkpt lat="45.73985" lon="3.01069">
        <ele>902</ele>
        <time>2012-09-15T09:22:24Z</time>
      </trkpt>
      <trkpt lat="45.73969" lon="3.01066">
        <ele>903</ele>
        <time>2012-09-15T09:22:29Z</time>
      </trkpt>
      <trkpt lat="45.73951" lon="3.01063">
        <ele>903</ele>
        <time>2012-09-15T09:22:34Z</time>
      </trkpt>
      <trkpt lat="45.73932" lon="3.01059">
        <ele>904</ele>
        <time>2012-09-15T09:22:39Z</time>
      </trkpt>
      <trkpt lat="45.73911" lon="3.01051">
        <ele>904</ele>
        <time>2012-09-15T09:22:44Z</time>
      </trkpt>
      <trkpt lat="45.73886" lon="3.01043">
        <ele>904</ele>
        <time>2012-09-15T09:22:49Z</time>
      </trkpt>
      <trkpt lat="45.73861" lon="3.01033">
        <ele>904</ele>
        <time>2012-09-15T09:22:54Z</time>
      </trkpt>
      <trkpt lat="45.73832" lon="3.01022">
        <ele>904</ele>
        <time>2012-09-15T09:22:59Z</time>
      </trkpt>
      <trkpt lat="45.73802" lon="3.0101">
        <ele>904</ele>
        <time>2012-09-15T09:23:04Z</time>
      </trkpt>
      <trkpt lat="45.73771" lon="3.01005">
        <ele>904</ele>
        <time>2012-09-15T09:23:09Z</time>
      </trkpt>
      <trkpt lat="45.73742" lon="3.01002">
        <ele>904</ele>
        <time>2012-09-15T09:23:14Z</time>
      </trkpt>
      <trkpt lat="45.73715" lon="3.01008">
        <ele>904</ele>
        <time>2012-09-15T09:23:19Z</time>
      </trkpt>
      <trkpt lat="45.73696" lon="3.01022">
        <ele>904</ele>
        <time>2012-09-15T09:23:24Z</time>
      </trkpt>
      <trkpt lat="45.73684" lon="3.01035">
        <ele>904</ele>
        <time>2012-09-15T09:23:29Z</time>
      </trkpt>
      <trkpt lat="45.73673" lon="3.01049">
        <ele>904</ele>
        <time>2012-09-15T09:23:34Z</time>
      </trkpt>
      <trkpt lat="45.73663" lon="3.01061">
        <ele>907</ele>
        <time>2012-09-15T09:23:39Z</time>
      </trkpt>
      <trkpt lat="45.73654" lon="3.01071">
        <ele>909</ele>
        <time>2012-09-15T09:23:44Z</time>
      </trkpt>
      <trkpt lat="45.73644" lon="3.0108">
        <ele>910</ele>
        <time>2012-09-15T09:23:49Z</time>
      </trkpt>
      <trkpt lat="45.73634" lon="3.01089">
        <ele>912</ele>
        <time>2012-09-15T09:23:54Z</time>
      </trkpt>
      <trkpt lat="45.73624" lon="3.01096">
        <ele>912</ele>
        <time>2012-09-15T09:23:59Z</time>
      </trkpt>
      <trkpt lat="45.73614" lon="3.01101">
        <ele>913</ele>
        <time>2012-09-15T09:24:04Z</time>
      </trkpt>
      <trkpt lat="45.73605" lon="3.01106">
        <ele>914</ele>
        <time>2012-09-15T09:24:09Z</time>
      </trkpt>
      <trkpt lat="45.73596" lon="3.01109">
        <ele>914</ele>
        <time>2012-09-15T09:24:14Z</time>
      </trkpt>
      <trkpt lat="45.73587" lon="3.01111">
        <ele>915</ele>
        <time>2012-09-15T09:24:19Z</time>
      </trkpt>
      <trkpt lat="45.7358" lon="3.01109">
        <ele>916</ele>
        <time>2012-09-15T09:24:24Z</time>
      </trkpt>
      <trkpt lat="45.73571" lon="3.01107">
        <ele>918</ele>
        <time>2012-09-15T09:24:29Z</time>
      </trkpt>
      <trkpt lat="45.73563" lon="3.01102">
        <ele>919</ele>
        <time>2012-09-15T09:24:34Z</time>
      </trkpt>
      <trkpt lat="45.73556" lon="3.01097">
        <ele>920</ele>
        <time>2012-09-15T09:24:39Z</time>
      </trkpt>
      <trkpt lat="45.73548" lon="3.01093">
        <ele>921</ele>
        <time>2012-09-15T09:24:44Z</time>
      </trkpt>
      <trkpt lat="45.7354" lon="3.01088">
        <ele>922</ele>
        <time>2012-09-15T09:24:49Z</time>
      </trkpt>
      <trkpt lat="45.73532" lon="3.01083">
        <ele>924</ele>
        <time>2012-09-15T09:24:54Z</time>
      </trkpt>
      <trkpt lat="45.73524" lon="3.01079">
        <ele>924</ele>
        <time>2012-09-15T09:24:59Z</time>
      </trkpt>
      <trkpt lat="45.73516" lon="3.01073">
        <ele>926</ele>
        <time>2012-09-15T09:25:04Z</time>
      </trkpt>
      <trkpt lat="45.73507" lon="3.01068">
        <ele>927</ele>
        <time>2012-09-15T09:25:09Z</time>
      </trkpt>
      <trkpt lat="45.73497" lon="3.01064">
        <ele>928</ele>
        <time>2012-09-15T09:25:14Z</time>
      </trkpt>
      <trkpt lat="45.73488" lon="3.0106">
        <ele>930</ele>
        <time>2012-09-15T09:25:19Z</time>
      </trkpt>
      <trkpt lat="45.73478" lon="3.01058">
        <ele>931</ele>
        <time>2012-09-15T09:25:24Z</time>
      </trkpt>
      <trkpt lat="45.73466" lon="3.01055">
        <ele>932</ele>
        <time>2012-09-15T09:25:29Z</time>
      </trkpt>
      <trkpt lat="45.73451" lon="3.01054">
        <ele>932</ele>
        <time>2012-09-15T09:25:34Z</time>
      </trkpt>
      <trkpt lat="45.73437" lon="3.01052">
        <ele>932</ele>
        <time>2012-09-15T09:25:39Z</time>
      </trkpt>
      <trkpt lat="45.7342" lon="3.0105">
        <ele>932</ele>
        <time>2012-09-15T09:25:44Z</time>
      </trkpt>
      <trkpt lat="45.73397" lon="3.0104">
        <ele>932</ele>
        <time>2012-09-15T09:25:49Z</time>
      </trkpt>
      <trkpt lat="45.73371" lon="3.01028">
        <ele>932</ele>
        <time>2012-09-15T09:25:54Z</time>
      </trkpt>
      <trkpt lat="45.73346" lon="3.01018">
        <ele>932</ele>
        <time>2012-09-15T09:25:59Z</time>
      </trkpt>
      <trkpt lat="45.73317" lon="3.01011">
        <ele>932</ele>
        <time>2012-09-15T09:26:04Z</time>
      </trkpt>
      <trkpt lat="45.73285" lon="3.01006">
        <ele>932</ele>
        <time>2012-09-15T09:26:09Z</time>
      </trkpt>
      <trkpt lat="45.73253" lon="3.01002">
        <ele>932</ele>
        <time>2012-09-15T09:26:14Z</time>
      </trkpt>
      <trkpt lat="45.73217" lon="3.00996">
        <ele>932</ele>
        <time>2012-09-15T09:26:19Z</time>
      </trkpt>
      <trkpt lat="45.73177" lon="3.0099">
        <ele>931</ele>
        <time>2012-09-15T09:26:24Z</time>
      </trkpt>
      <trkpt lat="45.73135" lon="3.00989">
        <ele>928</ele>
        <time>2012-09-15T09:26:29Z</time>
      </trkpt>
      <trkpt lat="45.73093" lon="3.01004">
        <ele>926</ele>
        <time>2012-09-15T09:26:34Z</time>
      </trkpt>
      <trkpt lat="45.73051" lon="3.01002">
        <ele>924</ele>
        <time>2012-09-15T09:26:39Z</time>
      </trkpt>
      <trkpt lat="45.73013" lon="3.01012">
        <ele>923</ele>
        <time>2012-09-15T09:26:44Z</time>
      </trkpt>
      <trkpt lat="45.7298" lon="3.0104">
        <ele>922</ele>
        <time>2012-09-15T09:26:49Z</time>
      </trkpt>
      <trkpt lat="45.72945" lon="3.01059">
        <ele>921</ele>
        <time>2012-09-15T09:26:54Z</time>
      </trkpt>
      <trkpt lat="45.72913" lon="3.01064">
        <ele>921</ele>
        <time>2012-09-15T09:26:59Z</time>
      </trkpt>
      <trkpt lat="45.72885" lon="3.01057">
        <ele>920</ele>
        <time>2012-09-15T09:27:04Z</time>
      </trkpt>
      <trkpt lat="45.72854" lon="3.01046">
        <ele>919</ele>
        <time>2012-09-15T09:27:09Z</time>
      </trkpt>
      <trkpt lat="45.72829" lon="3.01034">
        <ele>916</ele>
        <time>2012-09-15T09:27:14Z</time>
      </trkpt>
      <trkpt lat="45.72835" lon="3.01001">
        <ele>916</ele>
        <time>2012-09-15T09:27:19Z</time>
      </trkpt>
      <trkpt lat="45.72837" lon="3.00957">
        <ele>916</ele>
        <time>2012-09-15T09:27:24Z</time>
      </trkpt>
      <trkpt lat="45.72846" lon="3.0091">
        <ele>914</ele>
        <time>2012-09-15T09:27:29Z</time>
      </trkpt>
      <trkpt lat="45.72868" lon="3.00883">
        <ele>914</ele>
        <time>2012-09-15T09:27:34Z</time>
      </trkpt>
      <trkpt lat="45.72882" lon="3.00852">
        <ele>913</ele>
        <time>2012-09-15T09:27:39Z</time>
      </trkpt>
      <trkpt lat="45.72876" lon="3.0082">
        <ele>911</ele>
        <time>2012-09-15T09:27:44Z</time>
      </trkpt>
      <trkpt lat="45.72851" lon="3.00807">
        <ele>911</ele>
        <time>2012-09-15T09:27:49Z</time>
      </trkpt>
      <trkpt lat="45.72829" lon="3.00791">
        <ele>911</ele>
        <time>2012-09-15T09:27:54Z</time>
      </trkpt>
      <trkpt lat="45.72825" lon="3.00764">
        <ele>911</ele>
        <time>2012-09-15T09:27:59Z</time>
      </trkpt>
      <trkpt lat="45.72826" lon="3.00742">
        <ele>913</ele>
        <time>2012-09-15T09:28:04Z</time>
      </trkpt>
      <trkpt lat="45.72828" lon="3.00721">
        <ele>916</ele>
        <time>2012-09-15T09:28:09Z</time>
      </trkpt>
      <trkpt lat="45.72829" lon="3.00699">
        <ele>917</ele>
        <time>2012-09-15T09:28:14Z</time>
      </trkpt>
      <trkpt lat="45.72828" lon="3.00678">
        <ele>919</ele>
        <time>2012-09-15T09:28:19Z</time>
      </trkpt>
      <trkpt lat="45.72831" lon="3.00659">
        <ele>919</ele>
        <time>2012-09-15T09:28:24Z</time>
      </trkpt>
      <trkpt lat="45.72839" lon="3.00643">
        <ele>920</ele>
        <time>2012-09-15T09:28:29Z</time>
      </trkpt>
      <trkpt lat="45.72843" lon="3.00627">
        <ele>922</ele>
        <time>2012-09-15T09:28:34Z</time>
      </trkpt>
      <trkpt lat="45.72837" lon="3.00615">
        <ele>924</ele>
        <time>2012-09-15T09:28:39Z</time>
      </trkpt>
      <trkpt lat="45.72823" lon="3.00609">
        <ele>924</ele>
        <time>2012-09-15T09:28:44Z</time>
      </trkpt>
      <trkpt lat="45.72804" lon="3.006">
        <ele>924</ele>
        <time>2012-09-15T09:28:49Z</time>
      </trkpt>
      <trkpt lat="45.72784" lon="3.00591">
        <ele>924</ele>
        <time>2012-09-15T09:28:54Z</time>
      </trkpt>
      <trkpt lat="45.72769" lon="3.00574">
        <ele>924</ele>
        <time>2012-09-15T09:28:59Z</time>
      </trkpt>
      <trkpt lat="45.72751" lon="3.0056">
        <ele>926</ele>
        <time>2012-09-15T09:29:04Z</time>
      </trkpt>
      <trkpt lat="45.72731" lon="3.00553">
        <ele>927</ele>
        <time>2012-09-15T09:29:09Z</time>
      </trkpt>
      <trkpt lat="45.72711" lon="3.00549">
        <ele>927</ele>
        <time>2012-09-15T09:29:14Z</time>
      </trkpt>
      <trkpt lat="45.7269" lon="3.00549">
        <ele>928</ele>
        <time>2012-09-15T09:29:19Z</time>
      </trkpt>
      <trkpt lat="45.72669" lon="3.00549">
        <ele>928</ele>
        <time>2012-09-15T09:29:24Z</time>
      </trkpt>
      <trkpt lat="45.72656" lon="3.00531">
        <ele>928</ele>
        <time>2012-09-15T09:29:29Z</time>
      </trkpt>
      <trkpt lat="45.72654" lon="3.00513">
        <ele>929</ele>
        <time>2012-09-15T09:29:34Z</time>
      </trkpt>
      <trkpt lat="45.72652" lon="3.00497">
        <ele>930</ele>
        <time>2012-09-15T09:29:39Z</time>
      </trkpt>
      <trkpt lat="45.72651" lon="3.00481">
        <ele>931</ele>
        <time>2012-09-15T09:29:44Z</time>
      </trkpt>
      <trkpt lat="45.72648" lon="3.00463">
        <ele>934</ele>
        <time>2012-09-15T09:29:49Z</time>
      </trkpt>
      <trkpt lat="45.72645" lon="3.00444">
        <ele>934</ele>
        <time>2012-09-15T09:29:54Z</time>
      </trkpt>
      <trkpt lat="45.72639" lon="3.00428">
        <ele>935</ele>
        <time>2012-09-15T09:29:59Z</time>
      </trkpt>
      <trkpt lat="45.72633" lon="3.0041">
        <ele>936</ele>
        <time>2012-09-15T09:30:04Z</time>
      </trkpt>
      <trkpt lat="45.72626" lon="3.00393">
        <ele>939</ele>
        <time>2012-09-15T09:30:09Z</time>
      </trkpt>
      <trkpt lat="45.7262" lon="3.00377">
        <ele>940</ele>
        <time>2012-09-15T09:30:14Z</time>
      </trkpt>
      <trkpt lat="45.72618" lon="3.0036">
        <ele>941</ele>
        <time>2012-09-15T09:30:19Z</time>
      </trkpt>
      <trkpt lat="45.72615" lon="3.00345">
        <ele>942</ele>
        <time>2012-09-15T09:30:24Z</time>
      </trkpt>
      <trkpt lat="45.72612" lon="3.00332">
        <ele>944</ele>
        <time>2012-09-15T09:30:29Z</time>
      </trkpt>
      <trkpt lat="45.72609" lon="3.00319">
        <ele>944</ele>
        <time>2012-09-15T09:30:34Z</time>
      </trkpt>
      <trkpt lat="45.72606" lon="3.00307">
        <ele>945</ele>
        <time>2012-09-15T09:30:39Z</time>
      </trkpt>
      <trkpt lat="45.72604" lon="3.00295">
        <ele>946</ele>
        <time>2012-09-15T09:30:44Z</time>
      </trkpt>
      <trkpt lat="45.72601" lon="3.00284">
        <ele>948</ele>
        <time>2012-09-15T09:30:49Z</time>
      </trkpt>
      <trkpt lat="45.726" lon="3.00272">
        <ele>948</ele>
        <time>2012-09-15T09:30:54Z</time>
      </trkpt>
      <trkpt lat="45.72598" lon="3.00259">
        <ele>948</ele>
        <time>2012-09-15T09:30:59Z</time>
      </trkpt>
      <trkpt lat="45.72596" lon="3.00245">
        <ele>948</ele>
        <time>2012-09-15T09:31:04Z</time>
      </trkpt>
      <trkpt lat="45.72595" lon="3.00231">
        <ele>949</ele>
        <time>2012-09-15T09:31:09Z</time>
      </trkpt>
      <trkpt lat="45.72594" lon="3.00218">
        <ele>949</ele>
        <time>2012-09-15T09:31:14Z</time>
      </trkpt>
      <trkpt lat="45.72594" lon="3.00205">
        <ele>951</ele>
        <time>2012-09-15T09:31:19Z</time>
      </trkpt>
      <trkpt lat="45.72593" lon="3.00192">
        <ele>951</ele>
        <time>2012-09-15T09:31:24Z</time>
      </trkpt>
      <trkpt lat="45.72592" lon="3.00179">
        <ele>951</ele>
        <time>2012-09-15T09:31:29Z</time>
      </trkpt>
      <trkpt lat="45.72589" lon="3.00165">
        <ele>952</ele>
        <time>2012-09-15T09:31:34Z</time>
      </trkpt>
      <trkpt lat="45.72586" lon="3.00153">
        <ele>954</ele>
        <time>2012-09-15T09:31:39Z</time>
      </trkpt>
      <trkpt lat="45.72583" lon="3.00137">
        <ele>956</ele>
        <time>2012-09-15T09:31:44Z</time>
      </trkpt>
      <trkpt lat="45.72583" lon="3.00123">
        <ele>958</ele>
        <time>2012-09-15T09:31:49Z</time>
      </trkpt>
      <trkpt lat="45.72585" lon="3.00108">
        <ele>959</ele>
        <time>2012-09-15T09:31:54Z</time>
      </trkpt>
      <trkpt lat="45.72587" lon="3.00092">
        <ele>959</ele>
        <time>2012-09-15T09:31:59Z</time>
      </trkpt>
      <trkpt lat="45.72589" lon="3.00076">
        <ele>960</ele>
        <time>2012-09-15T09:32:04Z</time>
      </trkpt>
      <trkpt lat="45.72592" lon="3.00061">
        <ele>960</ele>
        <time>2012-09-15T09:32:09Z</time>
      </trkpt>
      <trkpt lat="45.72594" lon="3.00045">
        <ele>960</ele>
        <time>2012-09-15T09:32:14Z</time>
      </trkpt>
      <trkpt lat="45.72596" lon="3.00028">
        <ele>960</ele>
        <time>2012-09-15T09:32:19Z</time>
      </trkpt>
      <trkpt lat="45.72599" lon="3.00008">
        <ele>961</ele>
        <time>2012-09-15T09:32:24Z</time>
      </trkpt>
      <trkpt lat="45.72601" lon="2.99984">
        <ele>961</ele>
        <time>2012-09-15T09:32:29Z</time>
      </trkpt>
      <trkpt lat="45.72604" lon="2.99954">
        <ele>961</ele>
        <time>2012-09-15T09:32:34Z</time>
      </trkpt>
      <trkpt lat="45.72612" lon="2.99919">
        <ele>962</ele>
        <time>2012-09-15T09:32:39Z</time>
      </trkpt>
      <trkpt lat="45.72622" lon="2.99874">
        <ele>962</ele>
        <time>2012-09-15T09:32:44Z</time>
      </trkpt>
      <trkpt lat="45.72633" lon="2.99823">
        <ele>962</ele>
        <time>2012-09-15T09:32:49Z</time>
      </trkpt>
      <trkpt lat="45.72644" lon="2.99766">
        <ele>961</ele>
        <time>2012-09-15T09:32:54Z</time>
      </trkpt>
      <trkpt lat="45.72654" lon="2.99701">
        <ele>958</ele>
        <time>2012-09-15T09:32:59Z</time>
      </trkpt>
      <trkpt lat="45.72665" lon="2.9961">
        <ele>953</ele>
        <time>2012-09-15T09:33:05Z</time>
      </trkpt>
      <trkpt lat="45.72678" lon="2.99527">
        <ele>948</ele>
        <time>2012-09-15T09:33:10Z</time>
      </trkpt>
      <trkpt lat="45.72694" lon="2.99442">
        <ele>943</ele>
        <time>2012-09-15T09:33:15Z</time>
      </trkpt>
      <trkpt lat="45.72707" lon="2.99353">
        <ele>938</ele>
        <time>2012-09-15T09:33:20Z</time>
      </trkpt>
      <trkpt lat="45.72719" lon="2.99259">
        <ele>929</ele>
        <time>2012-09-15T09:33:25Z</time>
      </trkpt>
      <trkpt lat="45.72731" lon="2.99184">
        <ele>924</ele>
        <time>2012-09-15T09:33:30Z</time>
      </trkpt>
      <trkpt lat="45.72735" lon="2.99129">
        <ele>919</ele>
        <time>2012-09-15T09:33:35Z</time>
      </trkpt>
      <trkpt lat="45.72751" lon="2.99093">
        <ele>913</ele>
        <time>2012-09-15T09:33:40Z</time>
      </trkpt>
      <trkpt lat="45.72747" lon="2.99041">
        <ele>908</ele>
        <time>2012-09-15T09:33:45Z</time>
      </trkpt>
      <trkpt lat="45.72747" lon="2.98987">
        <ele>904</ele>
        <time>2012-09-15T09:33:50Z</time>
      </trkpt>
      <trkpt lat="45.72741" lon="2.98942">
        <ele>902</ele>
        <time>2012-09-15T09:33:55Z</time>
      </trkpt>
      <trkpt lat="45.72712" lon="2.98924">
        <ele>899</ele>
        <time>2012-09-15T09:34:00Z</time>
      </trkpt>
      <trkpt lat="45.72683" lon="2.98914">
        <ele>898</ele>
        <time>2012-09-15T09:34:05Z</time>
      </trkpt>
      <trkpt lat="45.7267" lon="2.98907">
        <ele>898</ele>
        <time>2012-09-15T09:34:10Z</time>
      </trkpt>
      <trkpt lat="45.7267" lon="2.98904">
        <ele>898</ele>
        <time>2012-09-15T09:34:16Z</time>
      </trkpt>
      <trkpt lat="45.72672" lon="2.989">
        <ele>898</ele>
        <time>2012-09-15T09:34:22Z</time>
      </trkpt>
      <trkpt lat="45.72674" lon="2.98895">
        <ele>898</ele>
        <time>2012-09-15T09:34:38Z</time>
      </trkpt>
      <trkpt lat="45.72673" lon="2.98909">
        <ele>903</ele>
        <time>2012-09-15T09:34:58Z</time>
      </trkpt>
      <trkpt lat="45.72665" lon="2.98913">
        <ele>902</ele>
        <time>2012-09-15T09:35:03Z</time>
      </trkpt>
      <trkpt lat="45.72652" lon="2.98911">
        <ele>902</ele>
        <time>2012-09-15T09:35:08Z</time>
      </trkpt>
      <trkpt lat="45.7264" lon="2.98899">
        <ele>902</ele>
        <time>2012-09-15T09:35:13Z</time>
      </trkpt>
      <trkpt lat="45.72625" lon="2.98887">
        <ele>902</ele>
        <time>2012-09-15T09:35:18Z</time>
      </trkpt>
      <trkpt lat="45.72609" lon="2.98875">
        <ele>902</ele>
        <time>2012-09-15T09:35:23Z</time>
      </trkpt>
      <trkpt lat="45.72593" lon="2.98863">
        <ele>902</ele>
        <time>2012-09-15T09:35:28Z</time>
      </trkpt>
      <trkpt lat="45.72583" lon="2.98848">
        <ele>902</ele>
        <time>2012-09-15T09:35:33Z</time>
      </trkpt>
      <trkpt lat="45.72575" lon="2.98829">
        <ele>902</ele>
        <time>2012-09-15T09:35:38Z</time>
      </trkpt>
      <trkpt lat="45.72568" lon="2.98809">
        <ele>902</ele>
        <time>2012-09-15T09:35:43Z</time>
      </trkpt>
      <trkpt lat="45.72564" lon="2.98787">
        <ele>902</ele>
        <time>2012-09-15T09:35:48Z</time>
      </trkpt>
      <trkpt lat="45.72562" lon="2.98765">
        <ele>902</ele>
        <time>2012-09-15T09:35:53Z</time>
      </trkpt>
      <trkpt lat="45.72561" lon="2.98746">
        <ele>905</ele>
        <time>2012-09-15T09:35:58Z</time>
      </trkpt>
      <trkpt lat="45.7256" lon="2.98726">
        <ele>907</ele>
        <time>2012-09-15T09:36:03Z</time>
      </trkpt>
      <trkpt lat="45.72559" lon="2.98707">
        <ele>908</ele>
        <time>2012-09-15T09:36:08Z</time>
      </trkpt>
      <trkpt lat="45.72557" lon="2.98687">
        <ele>910</ele>
        <time>2012-09-15T09:36:13Z</time>
      </trkpt>
      <trkpt lat="45.72554" lon="2.98668">
        <ele>912</ele>
        <time>2012-09-15T09:36:18Z</time>
      </trkpt>
      <trkpt lat="45.72544" lon="2.9865">
        <ele>913</ele>
        <time>2012-09-15T09:36:23Z</time>
      </trkpt>
      <trkpt lat="45.72533" lon="2.98632">
        <ele>913</ele>
        <time>2012-09-15T09:36:28Z</time>
      </trkpt>
      <trkpt lat="45.7252" lon="2.98616">
        <ele>915</ele>
        <time>2012-09-15T09:36:33Z</time>
      </trkpt>
      <trkpt lat="45.72508" lon="2.98601">
        <ele>915</ele>
        <time>2012-09-15T09:36:38Z</time>
      </trkpt>
      <trkpt lat="45.72498" lon="2.98585">
        <ele>915</ele>
        <time>2012-09-15T09:36:43Z</time>
      </trkpt>
      <trkpt lat="45.72488" lon="2.98569">
        <ele>915</ele>
        <time>2012-09-15T09:36:48Z</time>
      </trkpt>
      <trkpt lat="45.72482" lon="2.98551">
        <ele>916</ele>
        <time>2012-09-15T09:36:53Z</time>
      </trkpt>
      <trkpt lat="45.72474" lon="2.98533">
        <ele>917</ele>
        <time>2012-09-15T09:36:58Z</time>
      </trkpt>
      <trkpt lat="45.72468" lon="2.98516">
        <ele>918</ele>
        <time>2012-09-15T09:37:03Z</time>
      </trkpt>
      <trkpt lat="45.72461" lon="2.985">
        <ele>921</ele>
        <time>2012-09-15T09:37:08Z</time>
      </trkpt>
      <trkpt lat="45.72452" lon="2.98481">
        <ele>922</ele>
        <time>2012-09-15T09:37:13Z</time>
      </trkpt>
      <trkpt lat="45.72438" lon="2.9846">
        <ele>923</ele>
        <time>2012-09-15T09:37:18Z</time>
      </trkpt>
      <trkpt lat="45.72423" lon="2.98439">
        <ele>923</ele>
        <time>2012-09-15T09:37:23Z</time>
      </trkpt>
      <trkpt lat="45.72408" lon="2.98414">
        <ele>923</ele>
        <time>2012-09-15T09:37:28Z</time>
      </trkpt>
      <trkpt lat="45.72396" lon="2.98387">
        <ele>923</ele>
        <time>2012-09-15T09:37:33Z</time>
      </trkpt>
      <trkpt lat="45.72389" lon="2.98365">
        <ele>923</ele>
        <time>2012-09-15T09:37:38Z</time>
      </trkpt>
      <trkpt lat="45.72385" lon="2.98331">
        <ele>923</ele>
        <time>2012-09-15T09:37:43Z</time>
      </trkpt>
      <trkpt lat="45.72378" lon="2.98293">
        <ele>923</ele>
        <time>2012-09-15T09:37:48Z</time>
      </trkpt>
      <trkpt lat="45.72369" lon="2.98257">
        <ele>923</ele>
        <time>2012-09-15T09:37:53Z</time>
      </trkpt>
      <trkpt lat="45.72359" lon="2.98228">
        <ele>923</ele>
        <time>2012-09-15T09:37:58Z</time>
      </trkpt>
      <trkpt lat="45.72347" lon="2.98207">
        <ele>923</ele>
        <time>2012-09-15T09:38:03Z</time>
      </trkpt>
      <trkpt lat="45.72339" lon="2.98185">
        <ele>923</ele>
        <time>2012-09-15T09:38:08Z</time>
      </trkpt>
      <trkpt lat="45.72331" lon="2.98161">
        <ele>923</ele>
        <time>2012-09-15T09:38:13Z</time>
      </trkpt>
      <trkpt lat="45.72325" lon="2.98137">
        <ele>924</ele>
        <time>2012-09-15T09:38:18Z</time>
      </trkpt>
      <trkpt lat="45.72318" lon="2.98113">
        <ele>926</ele>
        <time>2012-09-15T09:38:23Z</time>
      </trkpt>
      <trkpt lat="45.72313" lon="2.98092">
        <ele>927</ele>
        <time>2012-09-15T09:38:28Z</time>
      </trkpt>
      <trkpt lat="45.72308" lon="2.98073">
        <ele>929</ele>
        <time>2012-09-15T09:38:33Z</time>
      </trkpt>
      <trkpt lat="45.723" lon="2.98052">
        <ele>929</ele>
        <time>2012-09-15T09:38:38Z</time>
      </trkpt>
      <trkpt lat="45.72292" lon="2.98029">
        <ele>929</ele>
        <time>2012-09-15T09:38:43Z</time>
      </trkpt>
      <trkpt lat="45.72286" lon="2.98005">
        <ele>929</ele>
        <time>2012-09-15T09:38:48Z</time>
      </trkpt>
      <trkpt lat="45.72281" lon="2.97983">
        <ele>930</ele>
        <time>2012-09-15T09:38:53Z</time>
      </trkpt>
      <trkpt lat="45.72275" lon="2.97959">
        <ele>930</ele>
        <time>2012-09-15T09:38:58Z</time>
      </trkpt>
      <trkpt lat="45.72264" lon="2.97931">
        <ele>930</ele>
        <time>2012-09-15T09:39:03Z</time>
      </trkpt>
      <trkpt lat="45.72249" lon="2.97906">
        <ele>930</ele>
        <time>2012-09-15T09:39:08Z</time>
      </trkpt>
      <trkpt lat="45.72234" lon="2.97886">
        <ele>930</ele>
        <time>2012-09-15T09:39:13Z</time>
      </trkpt>
      <trkpt lat="45.72218" lon="2.97876">
        <ele>930</ele>
        <time>2012-09-15T09:39:18Z</time>
      </trkpt>
      <trkpt lat="45.722" lon="2.97871">
        <ele>930</ele>
        <time>2012-09-15T09:39:23Z</time>
      </trkpt>
      <trkpt lat="45.72179" lon="2.97861">
        <ele>930</ele>
        <time>2012-09-15T09:39:28Z</time>
      </trkpt>
      <trkpt lat="45.72157" lon="2.97848">
        <ele>930</ele>
        <time>2012-09-15T09:39:33Z</time>
      </trkpt>
      <trkpt lat="45.72137" lon="2.97837">
        <ele>930</ele>
        <time>2012-09-15T09:39:38Z</time>
      </trkpt>
      <trkpt lat="45.72119" lon="2.97825">
        <ele>930</ele>
        <time>2012-09-15T09:39:43Z</time>
      </trkpt>
      <trkpt lat="45.72102" lon="2.97812">
        <ele>931</ele>
        <time>2012-09-15T09:39:48Z</time>
      </trkpt>
      <trkpt lat="45.72083" lon="2.978">
        <ele>931</ele>
        <time>2012-09-15T09:39:53Z</time>
      </trkpt>
      <trkpt lat="45.72064" lon="2.97789">
        <ele>931</ele>
        <time>2012-09-15T09:39:58Z</time>
      </trkpt>
      <trkpt lat="45.7204" lon="2.97779">
        <ele>931</ele>
        <time>2012-09-15T09:40:03Z</time>
      </trkpt>
      <trkpt lat="45.72013" lon="2.97765">
        <ele>931</ele>
        <time>2012-09-15T09:40:08Z</time>
      </trkpt>
      <trkpt lat="45.71986" lon="2.97751">
        <ele>931</ele>
        <time>2012-09-15T09:40:13Z</time>
      </trkpt>
      <trkpt lat="45.71958" lon="2.9774">
        <ele>931</ele>
        <time>2012-09-15T09:40:18Z</time>
      </trkpt>
      <trkpt lat="45.71934" lon="2.97716">
        <ele>931</ele>
        <time>2012-09-15T09:40:23Z</time>
      </trkpt>
      <trkpt lat="45.71912" lon="2.9769">
        <ele>931</ele>
        <time>2012-09-15T09:40:28Z</time>
      </trkpt>
      <trkpt lat="45.71888" lon="2.97672">
        <ele>931</ele>
        <time>2012-09-15T09:40:33Z</time>
      </trkpt>
      <trkpt lat="45.71868" lon="2.97651">
        <ele>931</ele>
        <time>2012-09-15T09:40:38Z</time>
      </trkpt>
      <trkpt lat="45.71847" lon="2.97633">
        <ele>931</ele>
        <time>2012-09-15T09:40:43Z</time>
      </trkpt>
      <trkpt lat="45.71826" lon="2.97616">
        <ele>931</ele>
        <time>2012-09-15T09:40:48Z</time>
      </trkpt>
      <trkpt lat="45.71806" lon="2.97593">
        <ele>932</ele>
        <time>2012-09-15T09:40:53Z</time>
      </trkpt>
      <trkpt lat="45.71786" lon="2.97568">
        <ele>934</ele>
        <time>2012-09-15T09:40:58Z</time>
      </trkpt>
      <trkpt lat="45.71763" lon="2.97543">
        <ele>934</ele>
        <time>2012-09-15T09:41:03Z</time>
      </trkpt>
      <trkpt lat="45.71743" lon="2.97529">
        <ele>934</ele>
        <time>2012-09-15T09:41:08Z</time>
      </trkpt>
      <trkpt lat="45.71746" lon="2.9756">
        <ele>933</ele>
        <time>2012-09-15T09:41:13Z</time>
      </trkpt>
      <trkpt lat="45.7175" lon="2.97606">
        <ele>930</ele>
        <time>2012-09-15T09:41:18Z</time>
      </trkpt>
      <trkpt lat="45.7175" lon="2.97647">
        <ele>930</ele>
        <time>2012-09-15T09:41:23Z</time>
      </trkpt>
      <trkpt lat="45.71749" lon="2.97683">
        <ele>932</ele>
        <time>2012-09-15T09:41:28Z</time>
      </trkpt>
      <trkpt lat="45.71744" lon="2.97719">
        <ele>932</ele>
        <time>2012-09-15T09:41:33Z</time>
      </trkpt>
      <trkpt lat="45.71745" lon="2.97763">
        <ele>932</ele>
        <time>2012-09-15T09:41:38Z</time>
      </trkpt>
      <trkpt lat="45.71734" lon="2.97821">
        <ele>932</ele>
        <time>2012-09-15T09:41:43Z</time>
      </trkpt>
      <trkpt lat="45.71729" lon="2.97857">
        <ele>933</ele>
        <time>2012-09-15T09:41:48Z</time>
      </trkpt>
      <trkpt lat="45.71731" lon="2.97889">
        <ele>933</ele>
        <time>2012-09-15T09:41:53Z</time>
      </trkpt>
      <trkpt lat="45.71726" lon="2.97939">
        <ele>933</ele>
        <time>2012-09-15T09:41:58Z</time>
      </trkpt>
      <trkpt lat="45.7173" lon="2.97985">
        <ele>934</ele>
        <time>2012-09-15T09:42:03Z</time>
      </trkpt>
      <trkpt lat="45.71731" lon="2.9803">
        <ele>934</ele>
        <time>2012-09-15T09:42:08Z</time>
      </trkpt>
      <trkpt lat="45.71734" lon="2.98078">
        <ele>936</ele>
        <time>2012-09-15T09:42:13Z</time>
      </trkpt>
      <trkpt lat="45.71727" lon="2.98118">
        <ele>936</ele>
        <time>2012-09-15T09:42:18Z</time>
      </trkpt>
      <trkpt lat="45.71716" lon="2.98153">
        <ele>935</ele>
        <time>2012-09-15T09:42:23Z</time>
      </trkpt>
      <trkpt lat="45.71693" lon="2.98177">
        <ele>931</ele>
        <time>2012-09-15T09:42:28Z</time>
      </trkpt>
      <trkpt lat="45.7167" lon="2.98204">
        <ele>926</ele>
        <time>2012-09-15T09:42:33Z</time>
      </trkpt>
      <trkpt lat="45.71645" lon="2.98234">
        <ele>925</ele>
        <time>2012-09-15T09:42:38Z</time>
      </trkpt>
      <trkpt lat="45.71618" lon="2.98265">
        <ele>922</ele>
        <time>2012-09-15T09:42:43Z</time>
      </trkpt>
      <trkpt lat="45.71598" lon="2.98301">
        <ele>922</ele>
        <time>2012-09-15T09:42:48Z</time>
      </trkpt>
      <trkpt lat="45.71575" lon="2.98337">
        <ele>922</ele>
        <time>2012-09-15T09:42:53Z</time>
      </trkpt>
      <trkpt lat="45.71545" lon="2.98348">
        <ele>922</ele>
        <time>2012-09-15T09:42:58Z</time>
      </trkpt>
      <trkpt lat="45.71525" lon="2.98363">
        <ele>919</ele>
        <time>2012-09-15T09:43:03Z</time>
      </trkpt>
      <trkpt lat="45.71506" lon="2.98406">
        <ele>915</ele>
        <time>2012-09-15T09:43:08Z</time>
      </trkpt>
      <trkpt lat="45.7149" lon="2.98444">
        <ele>913</ele>
        <time>2012-09-15T09:43:13Z</time>
      </trkpt>
      <trkpt lat="45.71476" lon="2.98485">
        <ele>913</ele>
        <time>2012-09-15T09:43:18Z</time>
      </trkpt>
      <trkpt lat="45.71459" lon="2.98525">
        <ele>913</ele>
        <time>2012-09-15T09:43:23Z</time>
      </trkpt>
      <trkpt lat="45.7144" lon="2.98554">
        <ele>913</ele>
        <time>2012-09-15T09:43:28Z</time>
      </trkpt>
      <trkpt lat="45.71416" lon="2.98585">
        <ele>913</ele>
        <time>2012-09-15T09:43:33Z</time>
      </trkpt>
      <trkpt lat="45.71394" lon="2.98617">
        <ele>913</ele>
        <time>2012-09-15T09:43:38Z</time>
      </trkpt>
      <trkpt lat="45.71371" lon="2.98648">
        <ele>913</ele>
        <time>2012-09-15T09:43:43Z</time>
      </trkpt>
      <trkpt lat="45.71358" lon="2.98673">
        <ele>911</ele>
        <time>2012-09-15T09:43:48Z</time>
      </trkpt>
      <trkpt lat="45.71345" lon="2.987">
        <ele>910</ele>
        <time>2012-09-15T09:43:53Z</time>
      </trkpt>
      <trkpt lat="45.71334" lon="2.98734">
        <ele>909</ele>
        <time>2012-09-15T09:43:58Z</time>
      </trkpt>
      <trkpt lat="45.71322" lon="2.98767">
        <ele>909</ele>
        <time>2012-09-15T09:44:03Z</time>
      </trkpt>
      <trkpt lat="45.71316" lon="2.98783">
        <ele>909</ele>
        <time>2012-09-15T09:44:08Z</time>
      </trkpt>
      <trkpt lat="45.71289" lon="2.98792">
        <ele>908</ele>
        <time>2012-09-15T09:44:13Z</time>
      </trkpt>
      <trkpt lat="45.71267" lon="2.98827">
        <ele>908</ele>
        <time>2012-09-15T09:44:18Z</time>
      </trkpt>
      <trkpt lat="45.7126" lon="2.98862">
        <ele>906</ele>
        <time>2012-09-15T09:44:23Z</time>
      </trkpt>
      <trkpt lat="45.71256" lon="2.98889">
        <ele>901</ele>
        <time>2012-09-15T09:44:28Z</time>
      </trkpt>
      <trkpt lat="45.71254" lon="2.9892">
        <ele>896</ele>
        <time>2012-09-15T09:44:33Z</time>
      </trkpt>
      <trkpt lat="45.71243" lon="2.98961">
        <ele>892</ele>
        <time>2012-09-15T09:44:38Z</time>
      </trkpt>
      <trkpt lat="45.71232" lon="2.98997">
        <ele>891</ele>
        <time>2012-09-15T09:44:43Z</time>
      </trkpt>
      <trkpt lat="45.71206" lon="2.99013">
        <ele>891</ele>
        <time>2012-09-15T09:44:48Z</time>
      </trkpt>
      <trkpt lat="45.7118" lon="2.99029">
        <ele>890</ele>
        <time>2012-09-15T09:44:53Z</time>
      </trkpt>
      <trkpt lat="45.71159" lon="2.99055">
        <ele>887</ele>
        <time>2012-09-15T09:44:58Z</time>
      </trkpt>
      <trkpt lat="45.71142" lon="2.9908">
        <ele>885</ele>
        <time>2012-09-15T09:45:03Z</time>
      </trkpt>
      <trkpt lat="45.71134" lon="2.99104">
        <ele>883</ele>
        <time>2012-09-15T09:45:08Z</time>
      </trkpt>
      <trkpt lat="45.7113" lon="2.99126">
        <ele>883</ele>
        <time>2012-09-15T09:45:13Z</time>
      </trkpt>
      <trkpt lat="45.71118" lon="2.99153">
        <ele>883</ele>
        <time>2012-09-15T09:45:18Z</time>
      </trkpt>
      <trkpt lat="45.71107" lon="2.99175">
        <ele>883</ele>
        <time>2012-09-15T09:45:23Z</time>
      </trkpt>
      <trkpt lat="45.71091" lon="2.99197">
        <ele>884</ele>
        <time>2012-09-15T09:45:28Z</time>
      </trkpt>
      <trkpt lat="45.71077" lon="2.9921">
        <ele>885</ele>
        <time>2012-09-15T09:45:33Z</time>
      </trkpt>
      <trkpt lat="45.71066" lon="2.99227">
        <ele>885</ele>
        <time>2012-09-15T09:45:38Z</time>
      </trkpt>
      <trkpt lat="45.7106" lon="2.99239">
        <ele>885</ele>
        <time>2012-09-15T09:45:43Z</time>
      </trkpt>
      <trkpt lat="45.71049" lon="2.99257">
        <ele>885</ele>
        <time>2012-09-15T09:45:48Z</time>
      </trkpt>
      <trkpt lat="45.71034" lon="2.99279">
        <ele>885</ele>
        <time>2012-09-15T09:45:53Z</time>
      </trkpt>
      <trkpt lat="45.71021" lon="2.99297">
        <ele>885</ele>
        <time>2012-09-15T09:45:58Z</time>
      </trkpt>
      <trkpt lat="45.71017" lon="2.99325">
        <ele>884</ele>
        <time>2012-09-15T09:46:03Z</time>
      </trkpt>
      <trkpt lat="45.70999" lon="2.9936">
        <ele>883</ele>
        <time>2012-09-15T09:46:08Z</time>
      </trkpt>
      <trkpt lat="45.70983" lon="2.99386">
        <ele>883</ele>
        <time>2012-09-15T09:46:13Z</time>
      </trkpt>
      <trkpt lat="45.70972" lon="2.99399">
        <ele>883</ele>
        <time>2012-09-15T09:46:18Z</time>
      </trkpt>
      <trkpt lat="45.70958" lon="2.99417">
        <ele>883</ele>
        <time>2012-09-15T09:46:23Z</time>
      </trkpt>
      <trkpt lat="45.7094" lon="2.99449">
        <ele>883</ele>
        <time>2012-09-15T09:46:28Z</time>
      </trkpt>
      <trkpt lat="45.7094" lon="2.99478">
        <ele>882</ele>
        <time>2012-09-15T09:46:33Z</time>
      </trkpt>
      <trkpt lat="45.70937" lon="2.99512">
        <ele>880</ele>
        <time>2012-09-15T09:46:38Z</time>
      </trkpt>
      <trkpt lat="45.7092" lon="2.99536">
        <ele>879</ele>
        <time>2012-09-15T09:46:43Z</time>
      </trkpt>
      <trkpt lat="45.70896" lon="2.99536">
        <ele>878</ele>
        <time>2012-09-15T09:46:48Z</time>
      </trkpt>
      <trkpt lat="45.70875" lon="2.99544">
        <ele>876</ele>
        <time>2012-09-15T09:46:53Z</time>
      </trkpt>
      <trkpt lat="45.7086" lon="2.99569">
        <ele>874</ele>
        <time>2012-09-15T09:46:58Z</time>
      </trkpt>
      <trkpt lat="45.70839" lon="2.99598">
        <ele>873</ele>
        <time>2012-09-15T09:47:03Z</time>
      </trkpt>
      <trkpt lat="45.70826" lon="2.99621">
        <ele>870</ele>
        <time>2012-09-15T09:47:08Z</time>
      </trkpt>
      <trkpt lat="45.70813" lon="2.99652">
        <ele>869</ele>
        <time>2012-09-15T09:47:13Z</time>
      </trkpt>
      <trkpt lat="45.70793" lon="2.99691">
        <ele>869</ele>
        <time>2012-09-15T09:47:18Z</time>
      </trkpt>
      <trkpt lat="45.70771" lon="2.99729">
        <ele>868</ele>
        <time>2012-09-15T09:47:23Z</time>
      </trkpt>
      <trkpt lat="45.70745" lon="2.99765">
        <ele>866</ele>
        <time>2012-09-15T09:47:28Z</time>
      </trkpt>
      <trkpt lat="45.7072" lon="2.99805">
        <ele>864</ele>
        <time>2012-09-15T09:47:33Z</time>
      </trkpt>
      <trkpt lat="45.70691" lon="2.99843">
        <ele>863</ele>
        <time>2012-09-15T09:47:38Z</time>
      </trkpt>
      <trkpt lat="45.70661" lon="2.99881">
        <ele>860</ele>
        <time>2012-09-15T09:47:43Z</time>
      </trkpt>
      <trkpt lat="45.70638" lon="2.99921">
        <ele>859</ele>
        <time>2012-09-15T09:47:48Z</time>
      </trkpt>
      <trkpt lat="45.70627" lon="2.9997">
        <ele>858</ele>
        <time>2012-09-15T09:47:53Z</time>
      </trkpt>
      <trkpt lat="45.70625" lon="3.00008">
        <ele>858</ele>
        <time>2012-09-15T09:47:58Z</time>
      </trkpt>
      <trkpt lat="45.70625" lon="3.00024">
        <ele>857</ele>
        <time>2012-09-15T09:48:03Z</time>
      </trkpt>
      <trkpt lat="45.70621" lon="3.00048">
        <ele>857</ele>
        <time>2012-09-15T09:48:08Z</time>
      </trkpt>
      <trkpt lat="45.70616" lon="3.0007">
        <ele>857</ele>
        <time>2012-09-15T09:48:13Z</time>
      </trkpt>
      <trkpt lat="45.70614" lon="3.00097">
        <ele>861</ele>
        <time>2012-09-15T09:48:18Z</time>
      </trkpt>
      <trkpt lat="45.70603" lon="3.00119">
        <ele>865</ele>
        <time>2012-09-15T09:48:23Z</time>
      </trkpt>
      <trkpt lat="45.70591" lon="3.00137">
        <ele>865</ele>
        <time>2012-09-15T09:48:28Z</time>
      </trkpt>
      <trkpt lat="45.70578" lon="3.0016">
        <ele>865</ele>
        <time>2012-09-15T09:48:33Z</time>
      </trkpt>
      <trkpt lat="45.70562" lon="3.00173">
        <ele>865</ele>
        <time>2012-09-15T09:48:38Z</time>
      </trkpt>
      <trkpt lat="45.70545" lon="3.00174">
        <ele>865</ele>
        <time>2012-09-15T09:48:43Z</time>
      </trkpt>
      <trkpt lat="45.70535" lon="3.00157">
        <ele>865</ele>
        <time>2012-09-15T09:48:48Z</time>
      </trkpt>
      <trkpt lat="45.70529" lon="3.00136">
        <ele>865</ele>
        <time>2012-09-15T09:48:53Z</time>
      </trkpt>
      <trkpt lat="45.70521" lon="3.00115">
        <ele>865</ele>
        <time>2012-09-15T09:48:58Z</time>
      </trkpt>
      <trkpt lat="45.70516" lon="3.00098">
        <ele>867</ele>
        <time>2012-09-15T09:49:03Z</time>
      </trkpt>
      <trkpt lat="45.70512" lon="3.00083">
        <ele>867</ele>
        <time>2012-09-15T09:49:08Z</time>
      </trkpt>
      <trkpt lat="45.70509" lon="3.00068">
        <ele>869</ele>
        <time>2012-09-15T09:49:13Z</time>
      </trkpt>
      <trkpt lat="45.70505" lon="3.00051">
        <ele>871</ele>
        <time>2012-09-15T09:49:18Z</time>
      </trkpt>
      <trkpt lat="45.705" lon="3.0003">
        <ele>876</ele>
        <time>2012-09-15T09:49:23Z</time>
      </trkpt>
      <trkpt lat="45.70501" lon="3.00018">
        <ele>879</ele>
        <time>2012-09-15T09:49:28Z</time>
      </trkpt>
      <trkpt lat="45.70506" lon="3.00006">
        <ele>882</ele>
        <time>2012-09-15T09:49:33Z</time>
      </trkpt>
      <trkpt lat="45.70505" lon="2.99993">
        <ele>887</ele>
        <time>2012-09-15T09:49:38Z</time>
      </trkpt>
      <trkpt lat="45.70498" lon="2.99981">
        <ele>887</ele>
        <time>2012-09-15T09:49:43Z</time>
      </trkpt>
      <trkpt lat="45.70491" lon="2.99969">
        <ele>887</ele>
        <time>2012-09-15T09:49:48Z</time>
      </trkpt>
      <trkpt lat="45.70485" lon="2.99954">
        <ele>887</ele>
        <time>2012-09-15T09:49:53Z</time>
      </trkpt>
      <trkpt lat="45.70478" lon="2.99939">
        <ele>886</ele>
        <time>2012-09-15T09:49:58Z</time>
      </trkpt>
      <trkpt lat="45.70472" lon="2.99926">
        <ele>886</ele>
        <time>2012-09-15T09:50:03Z</time>
      </trkpt>
      <trkpt lat="45.7047" lon="2.99909">
        <ele>885</ele>
        <time>2012-09-15T09:50:08Z</time>
      </trkpt>
      <trkpt lat="45.70464" lon="2.99892">
        <ele>885</ele>
        <time>2012-09-15T09:50:13Z</time>
      </trkpt>
      <trkpt lat="45.70456" lon="2.99876">
        <ele>885</ele>
        <time>2012-09-15T09:50:18Z</time>
      </trkpt>
      <trkpt lat="45.70448" lon="2.99859">
        <ele>885</ele>
        <time>2012-09-15T09:50:23Z</time>
      </trkpt>
      <trkpt lat="45.70438" lon="2.99838">
        <ele>885</ele>
        <time>2012-09-15T09:50:28Z</time>
      </trkpt>
      <trkpt lat="45.70429" lon="2.99821">
        <ele>885</ele>
        <time>2012-09-15T09:50:33Z</time>
      </trkpt>
      <trkpt lat="45.70427" lon="2.99802">
        <ele>886</ele>
        <time>2012-09-15T09:50:38Z</time>
      </trkpt>
      <trkpt lat="45.7043" lon="2.99784">
        <ele>888</ele>
        <time>2012-09-15T09:50:43Z</time>
      </trkpt>
      <trkpt lat="45.70426" lon="2.99766">
        <ele>889</ele>
        <time>2012-09-15T09:50:48Z</time>
      </trkpt>
      <trkpt lat="45.70424" lon="2.99744">
        <ele>891</ele>
        <time>2012-09-15T09:50:53Z</time>
      </trkpt>
      <trkpt lat="45.70423" lon="2.99725">
        <ele>892</ele>
        <time>2012-09-15T09:50:58Z</time>
      </trkpt>
      <trkpt lat="45.70426" lon="2.99702">
        <ele>892</ele>
        <time>2012-09-15T09:51:03Z</time>
      </trkpt>
      <trkpt lat="45.70427" lon="2.99681">
        <ele>892</ele>
        <time>2012-09-15T09:51:08Z</time>
      </trkpt>
      <trkpt lat="45.70426" lon="2.99661">
        <ele>893</ele>
        <time>2012-09-15T09:51:13Z</time>
      </trkpt>
      <trkpt lat="45.70426" lon="2.99642">
        <ele>893</ele>
        <time>2012-09-15T09:51:18Z</time>
      </trkpt>
      <trkpt lat="45.70426" lon="2.9962">
        <ele>893</ele>
        <time>2012-09-15T09:51:23Z</time>
      </trkpt>
      <trkpt lat="45.70428" lon="2.99599">
        <ele>893</ele>
        <time>2012-09-15T09:51:28Z</time>
      </trkpt>
      <trkpt lat="45.70429" lon="2.99577">
        <ele>893</ele>
        <time>2012-09-15T09:51:33Z</time>
      </trkpt>
      <trkpt lat="45.70432" lon="2.99558">
        <ele>893</ele>
        <time>2012-09-15T09:51:38Z</time>
      </trkpt>
      <trkpt lat="45.70437" lon="2.99541">
        <ele>893</ele>
        <time>2012-09-15T09:51:43Z</time>
      </trkpt>
      <trkpt lat="45.70442" lon="2.99525">
        <ele>893</ele>
        <time>2012-09-15T09:51:48Z</time>
      </trkpt>
      <trkpt lat="45.70446" lon="2.99511">
        <ele>893</ele>
        <time>2012-09-15T09:51:53Z</time>
      </trkpt>
      <trkpt lat="45.70449" lon="2.99496">
        <ele>894</ele>
        <time>2012-09-15T09:51:58Z</time>
      </trkpt>
      <trkpt lat="45.70454" lon="2.99478">
        <ele>894</ele>
        <time>2012-09-15T09:52:03Z</time>
      </trkpt>
      <trkpt lat="45.70459" lon="2.99456">
        <ele>894</ele>
        <time>2012-09-15T09:52:08Z</time>
      </trkpt>
      <trkpt lat="45.70456" lon="2.99436">
        <ele>896</ele>
        <time>2012-09-15T09:52:13Z</time>
      </trkpt>
      <trkpt lat="45.70456" lon="2.99418">
        <ele>897</ele>
        <time>2012-09-15T09:52:18Z</time>
      </trkpt>
      <trkpt lat="45.70455" lon="2.99401">
        <ele>898</ele>
        <time>2012-09-15T09:52:23Z</time>
      </trkpt>
      <trkpt lat="45.70449" lon="2.99382">
        <ele>899</ele>
        <time>2012-09-15T09:52:28Z</time>
      </trkpt>
      <trkpt lat="45.70448" lon="2.99365">
        <ele>902</ele>
        <time>2012-09-15T09:52:33Z</time>
      </trkpt>
      <trkpt lat="45.70447" lon="2.99348">
        <ele>903</ele>
        <time>2012-09-15T09:52:38Z</time>
      </trkpt>
      <trkpt lat="45.70449" lon="2.9933">
        <ele>906</ele>
        <time>2012-09-15T09:52:43Z</time>
      </trkpt>
      <trkpt lat="45.70451" lon="2.99314">
        <ele>909</ele>
        <time>2012-09-15T09:52:48Z</time>
      </trkpt>
      <trkpt lat="45.70451" lon="2.99298">
        <ele>910</ele>
        <time>2012-09-15T09:52:53Z</time>
      </trkpt>
      <trkpt lat="45.7045" lon="2.99282">
        <ele>910</ele>
        <time>2012-09-15T09:52:58Z</time>
      </trkpt>
      <trkpt lat="45.70451" lon="2.99265">
        <ele>910</ele>
        <time>2012-09-15T09:53:03Z</time>
      </trkpt>
      <trkpt lat="45.70452" lon="2.99247">
        <ele>910</ele>
        <time>2012-09-15T09:53:08Z</time>
      </trkpt>
      <trkpt lat="45.70454" lon="2.99229">
        <ele>911</ele>
        <time>2012-09-15T09:53:13Z</time>
      </trkpt>
      <trkpt lat="45.70451" lon="2.99211">
        <ele>912</ele>
        <time>2012-09-15T09:53:18Z</time>
      </trkpt>
      <trkpt lat="45.70447" lon="2.99195">
        <ele>912</ele>
        <time>2012-09-15T09:53:23Z</time>
      </trkpt>
      <trkpt lat="45.70445" lon="2.99176">
        <ele>912</ele>
        <time>2012-09-15T09:53:28Z</time>
      </trkpt>
      <trkpt lat="45.70444" lon="2.99157">
        <ele>913</ele>
        <time>2012-09-15T09:53:33Z</time>
      </trkpt>
      <trkpt lat="45.70443" lon="2.99136">
        <ele>917</ele>
        <time>2012-09-15T09:53:38Z</time>
      </trkpt>
      <trkpt lat="45.70442" lon="2.99114">
        <ele>919</ele>
        <time>2012-09-15T09:53:43Z</time>
      </trkpt>
      <trkpt lat="45.7044" lon="2.99092">
        <ele>919</ele>
        <time>2012-09-15T09:53:48Z</time>
      </trkpt>
      <trkpt lat="45.70441" lon="2.9907">
        <ele>920</ele>
        <time>2012-09-15T09:53:53Z</time>
      </trkpt>
      <trkpt lat="45.7044" lon="2.99048">
        <ele>921</ele>
        <time>2012-09-15T09:53:58Z</time>
      </trkpt>
      <trkpt lat="45.70436" lon="2.99027">
        <ele>924</ele>
        <time>2012-09-15T09:54:03Z</time>
      </trkpt>
      <trkpt lat="45.70432" lon="2.99008">
        <ele>925</ele>
        <time>2012-09-15T09:54:08Z</time>
      </trkpt>
      <trkpt lat="45.70427" lon="2.98978">
        <ele>925</ele>
        <time>2012-09-15T09:54:13Z</time>
      </trkpt>
      <trkpt lat="45.70422" lon="2.9895">
        <ele>925</ele>
        <time>2012-09-15T09:54:18Z</time>
      </trkpt>
      <trkpt lat="45.7042" lon="2.98921">
        <ele>925</ele>
        <time>2012-09-15T09:54:23Z</time>
      </trkpt>
      <trkpt lat="45.70418" lon="2.98894">
        <ele>925</ele>
        <time>2012-09-15T09:54:28Z</time>
      </trkpt>
      <trkpt lat="45.70417" lon="2.98868">
        <ele>925</ele>
        <time>2012-09-15T09:54:33Z</time>
      </trkpt>
      <trkpt lat="45.70416" lon="2.98839">
        <ele>923</ele>
        <time>2012-09-15T09:54:38Z</time>
      </trkpt>
      <trkpt lat="45.70415" lon="2.98813">
        <ele>923</ele>
        <time>2012-09-15T09:54:43Z</time>
      </trkpt>
      <trkpt lat="45.70415" lon="2.98786">
        <ele>923</ele>
        <time>2012-09-15T09:54:48Z</time>
      </trkpt>
      <trkpt lat="45.70413" lon="2.98757">
        <ele>923</ele>
        <time>2012-09-15T09:54:53Z</time>
      </trkpt>
      <trkpt lat="45.7041" lon="2.98726">
        <ele>924</ele>
        <time>2012-09-15T09:54:58Z</time>
      </trkpt>
      <trkpt lat="45.70407" lon="2.98696">
        <ele>924</ele>
        <time>2012-09-15T09:55:03Z</time>
      </trkpt>
      <trkpt lat="45.70405" lon="2.98666">
        <ele>926</ele>
        <time>2012-09-15T09:55:08Z</time>
      </trkpt>
      <trkpt lat="45.70406" lon="2.98632">
        <ele>928</ele>
        <time>2012-09-15T09:55:13Z</time>
      </trkpt>
      <trkpt lat="45.70404" lon="2.98597">
        <ele>930</ele>
        <time>2012-09-15T09:55:18Z</time>
      </trkpt>
      <trkpt lat="45.70402" lon="2.98562">
        <ele>930</ele>
        <time>2012-09-15T09:55:23Z</time>
      </trkpt>
      <trkpt lat="45.70395" lon="2.98526">
        <ele>930</ele>
        <time>2012-09-15T09:55:28Z</time>
      </trkpt>
      <trkpt lat="45.70387" lon="2.9849">
        <ele>933</ele>
        <time>2012-09-15T09:55:33Z</time>
      </trkpt>
      <trkpt lat="45.70385" lon="2.98455">
        <ele>936</ele>
        <time>2012-09-15T09:55:38Z</time>
      </trkpt>
      <trkpt lat="45.70384" lon="2.9842">
        <ele>936</ele>
        <time>2012-09-15T09:55:43Z</time>
      </trkpt>
      <trkpt lat="45.70387" lon="2.98383">
        <ele>936</ele>
        <time>2012-09-15T09:55:48Z</time>
      </trkpt>
      <trkpt lat="45.70388" lon="2.98348">
        <ele>936</ele>
        <time>2012-09-15T09:55:53Z</time>
      </trkpt>
      <trkpt lat="45.70383" lon="2.98313">
        <ele>937</ele>
        <time>2012-09-15T09:55:58Z</time>
      </trkpt>
      <trkpt lat="45.70383" lon="2.98282">
        <ele>937</ele>
        <time>2012-09-15T09:56:03Z</time>
      </trkpt>
      <trkpt lat="45.7038" lon="2.98249">
        <ele>938</ele>
        <time>2012-09-15T09:56:08Z</time>
      </trkpt>
      <trkpt lat="45.70377" lon="2.98219">
        <ele>940</ele>
        <time>2012-09-15T09:56:13Z</time>
      </trkpt>
      <trkpt lat="45.70375" lon="2.98188">
        <ele>941</ele>
        <time>2012-09-15T09:56:18Z</time>
      </trkpt>
      <trkpt lat="45.70372" lon="2.98152">
        <ele>941</ele>
        <time>2012-09-15T09:56:23Z</time>
      </trkpt>
      <trkpt lat="45.70361" lon="2.98107">
        <ele>940</ele>
        <time>2012-09-15T09:56:28Z</time>
      </trkpt>
      <trkpt lat="45.70345" lon="2.98058">
        <ele>936</ele>
        <time>2012-09-15T09:56:33Z</time>
      </trkpt>
      <trkpt lat="45.70333" lon="2.9801">
        <ele>931</ele>
        <time>2012-09-15T09:56:38Z</time>
      </trkpt>
      <trkpt lat="45.70325" lon="2.97953">
        <ele>927</ele>
        <time>2012-09-15T09:56:43Z</time>
      </trkpt>
      <trkpt lat="45.70322" lon="2.97897">
        <ele>923</ele>
        <time>2012-09-15T09:56:48Z</time>
      </trkpt>
      <trkpt lat="45.70326" lon="2.97849">
        <ele>920</ele>
        <time>2012-09-15T09:56:53Z</time>
      </trkpt>
      <trkpt lat="45.70321" lon="2.97809">
        <ele>918</ele>
        <time>2012-09-15T09:56:58Z</time>
      </trkpt>
      <trkpt lat="45.7033" lon="2.97778">
        <ele>918</ele>
        <time>2012-09-15T09:57:03Z</time>
      </trkpt>
      <trkpt lat="45.70339" lon="2.97749">
        <ele>918</ele>
        <time>2012-09-15T09:57:08Z</time>
      </trkpt>
      <trkpt lat="45.70343" lon="2.97718">
        <ele>918</ele>
        <time>2012-09-15T09:57:13Z</time>
      </trkpt>
      <trkpt lat="45.70346" lon="2.97693">
        <ele>919</ele>
        <time>2012-09-15T09:57:18Z</time>
      </trkpt>
      <trkpt lat="45.70345" lon="2.97672">
        <ele>922</ele>
        <time>2012-09-15T09:57:23Z</time>
      </trkpt>
      <trkpt lat="45.70342" lon="2.97656">
        <ele>925</ele>
        <time>2012-09-15T09:57:28Z</time>
      </trkpt>
      <trkpt lat="45.70344" lon="2.97643">
        <ele>930</ele>
        <time>2012-09-15T09:57:33Z</time>
      </trkpt>
      <trkpt lat="45.70345" lon="2.97628">
        <ele>935</ele>
        <time>2012-09-15T09:57:38Z</time>
      </trkpt>
      <trkpt lat="45.70343" lon="2.97617">
        <ele>940</ele>
        <time>2012-09-15T09:57:43Z</time>
      </trkpt>
      <trkpt lat="45.7034" lon="2.97604">
        <ele>945</ele>
        <time>2012-09-15T09:57:48Z</time>
      </trkpt>
      <trkpt lat="45.70336" lon="2.97592">
        <ele>945</ele>
        <time>2012-09-15T09:57:53Z</time>
      </trkpt>
      <trkpt lat="45.70334" lon="2.97578">
        <ele>945</ele>
        <time>2012-09-15T09:57:58Z</time>
      </trkpt>
      <trkpt lat="45.70329" lon="2.97565">
        <ele>945</ele>
        <time>2012-09-15T09:58:03Z</time>
      </trkpt>
      <trkpt lat="45.70327" lon="2.97552">
        <ele>945</ele>
        <time>2012-09-15T09:58:08Z</time>
      </trkpt>
      <trkpt lat="45.70329" lon="2.9754">
        <ele>945</ele>
        <time>2012-09-15T09:58:13Z</time>
      </trkpt>
      <trkpt lat="45.70329" lon="2.97528">
        <ele>948</ele>
        <time>2012-09-15T09:58:18Z</time>
      </trkpt>
      <trkpt lat="45.70331" lon="2.97518">
        <ele>951</ele>
        <time>2012-09-15T09:58:23Z</time>
      </trkpt>
      <trkpt lat="45.70334" lon="2.97507">
        <ele>951</ele>
        <time>2012-09-15T09:58:28Z</time>
      </trkpt>
      <trkpt lat="45.70335" lon="2.97496">
        <ele>952</ele>
        <time>2012-09-15T09:58:33Z</time>
      </trkpt>
      <trkpt lat="45.70335" lon="2.97485">
        <ele>952</ele>
        <time>2012-09-15T09:58:38Z</time>
      </trkpt>
      <trkpt lat="45.70333" lon="2.97474">
        <ele>952</ele>
        <time>2012-09-15T09:58:43Z</time>
      </trkpt>
      <trkpt lat="45.70331" lon="2.97463">
        <ele>952</ele>
        <time>2012-09-15T09:58:48Z</time>
      </trkpt>
      <trkpt lat="45.7033" lon="2.97452">
        <ele>952</ele>
        <time>2012-09-15T09:58:53Z</time>
      </trkpt>
      <trkpt lat="45.7033" lon="2.97441">
        <ele>952</ele>
        <time>2012-09-15T09:58:58Z</time>
      </trkpt>
      <trkpt lat="45.7033" lon="2.9743">
        <ele>952</ele>
        <time>2012-09-15T09:59:03Z</time>
      </trkpt>
      <trkpt lat="45.7033" lon="2.97418">
        <ele>952</ele>
        <time>2012-09-15T09:59:08Z</time>
      </trkpt>
      <trkpt lat="45.70332" lon="2.97408">
        <ele>952</ele>
        <time>2012-09-15T09:59:14Z</time>
      </trkpt>
      <trkpt lat="45.7034" lon="2.97404">
        <ele>952</ele>
        <time>2012-09-15T09:59:19Z</time>
      </trkpt>
      <trkpt lat="45.70348" lon="2.97398">
        <ele>953</ele>
        <time>2012-09-15T09:59:24Z</time>
      </trkpt>
      <trkpt lat="45.70355" lon="2.97391">
        <ele>956</ele>
        <time>2012-09-15T09:59:29Z</time>
      </trkpt>
      <trkpt lat="45.70361" lon="2.97382">
        <ele>959</ele>
        <time>2012-09-15T09:59:35Z</time>
      </trkpt>
      <trkpt lat="45.70365" lon="2.97373">
        <ele>959</ele>
        <time>2012-09-15T09:59:40Z</time>
      </trkpt>
      <trkpt lat="45.70369" lon="2.97363">
        <ele>959</ele>
        <time>2012-09-15T09:59:45Z</time>
      </trkpt>
      <trkpt lat="45.70374" lon="2.97355">
        <ele>961</ele>
        <time>2012-09-15T09:59:50Z</time>
      </trkpt>
      <trkpt lat="45.70381" lon="2.97347">
        <ele>965</ele>
        <time>2012-09-15T09:59:55Z</time>
      </trkpt>
      <trkpt lat="45.70384" lon="2.97337">
        <ele>970</ele>
        <time>2012-09-15T10:00:00Z</time>
      </trkpt>
      <trkpt lat="45.70383" lon="2.97326">
        <ele>973</ele>
        <time>2012-09-15T10:00:05Z</time>
      </trkpt>
      <trkpt lat="45.70382" lon="2.97317">
        <ele>974</ele>
        <time>2012-09-15T10:00:10Z</time>
      </trkpt>
      <trkpt lat="45.70381" lon="2.97307">
        <ele>974</ele>
        <time>2012-09-15T10:00:15Z</time>
      </trkpt>
      <trkpt lat="45.70384" lon="2.97297">
        <ele>974</ele>
        <time>2012-09-15T10:00:20Z</time>
      </trkpt>
      <trkpt lat="45.7039" lon="2.97288">
        <ele>975</ele>
        <time>2012-09-15T10:00:25Z</time>
      </trkpt>
      <trkpt lat="45.70395" lon="2.9728">
        <ele>976</ele>
        <time>2012-09-15T10:00:30Z</time>
      </trkpt>
      <trkpt lat="45.70399" lon="2.97269">
        <ele>976</ele>
        <time>2012-09-15T10:00:35Z</time>
      </trkpt>
      <trkpt lat="45.704" lon="2.97258">
        <ele>976</ele>
        <time>2012-09-15T10:00:40Z</time>
      </trkpt>
      <trkpt lat="45.70391" lon="2.97254">
        <ele>977</ele>
        <time>2012-09-15T10:00:45Z</time>
      </trkpt>
      <trkpt lat="45.70381" lon="2.9725">
        <ele>978</ele>
        <time>2012-09-15T10:00:50Z</time>
      </trkpt>
      <trkpt lat="45.7037" lon="2.97239">
        <ele>979</ele>
        <time>2012-09-15T10:00:55Z</time>
      </trkpt>
      <trkpt lat="45.7036" lon="2.97229">
        <ele>979</ele>
        <time>2012-09-15T10:01:00Z</time>
      </trkpt>
      <trkpt lat="45.7035" lon="2.97216">
        <ele>980</ele>
        <time>2012-09-15T10:01:05Z</time>
      </trkpt>
      <trkpt lat="45.70337" lon="2.9721">
        <ele>980</ele>
        <time>2012-09-15T10:01:10Z</time>
      </trkpt>
      <trkpt lat="45.70319" lon="2.972">
        <ele>980</ele>
        <time>2012-09-15T10:01:15Z</time>
      </trkpt>
      <trkpt lat="45.7031" lon="2.9719">
        <ele>980</ele>
        <time>2012-09-15T10:01:20Z</time>
      </trkpt>
      <trkpt lat="45.70302" lon="2.97182">
        <ele>980</ele>
        <time>2012-09-15T10:01:25Z</time>
      </trkpt>
      <trkpt lat="45.70296" lon="2.97173">
        <ele>982</ele>
        <time>2012-09-15T10:01:30Z</time>
      </trkpt>
      <trkpt lat="45.70292" lon="2.97165">
        <ele>984</ele>
        <time>2012-09-15T10:01:35Z</time>
      </trkpt>
      <trkpt lat="45.70283" lon="2.97156">
        <ele>988</ele>
        <time>2012-09-15T10:01:40Z</time>
      </trkpt>
      <trkpt lat="45.70274" lon="2.97148">
        <ele>989</ele>
        <time>2012-09-15T10:01:45Z</time>
      </trkpt>
      <trkpt lat="45.70265" lon="2.97138">
        <ele>989</ele>
        <time>2012-09-15T10:01:50Z</time>
      </trkpt>
      <trkpt lat="45.70257" lon="2.97129">
        <ele>989</ele>
        <time>2012-09-15T10:01:55Z</time>
      </trkpt>
      <trkpt lat="45.70249" lon="2.97121">
        <ele>989</ele>
        <time>2012-09-15T10:02:00Z</time>
      </trkpt>
      <trkpt lat="45.7024" lon="2.97112">
        <ele>989</ele>
        <time>2012-09-15T10:02:05Z</time>
      </trkpt>
      <trkpt lat="45.70229" lon="2.97104">
        <ele>989</ele>
        <time>2012-09-15T10:02:10Z</time>
      </trkpt>
      <trkpt lat="45.70221" lon="2.97093">
        <ele>989</ele>
        <time>2012-09-15T10:02:15Z</time>
      </trkpt>
      <trkpt lat="45.70212" lon="2.97085">
        <ele>991</ele>
        <time>2012-09-15T10:02:20Z</time>
      </trkpt>
      <trkpt lat="45.70201" lon="2.97075">
        <ele>992</ele>
        <time>2012-09-15T10:02:25Z</time>
      </trkpt>
      <trkpt lat="45.7019" lon="2.97064">
        <ele>992</ele>
        <time>2012-09-15T10:02:30Z</time>
      </trkpt>
      <trkpt lat="45.70178" lon="2.97052">
        <ele>993</ele>
        <time>2012-09-15T10:02:35Z</time>
      </trkpt>
      <trkpt lat="45.70167" lon="2.97042">
        <ele>993</ele>
        <time>2012-09-15T10:02:40Z</time>
      </trkpt>
      <trkpt lat="45.70149" lon="2.97032">
        <ele>996</ele>
        <time>2012-09-15T10:02:45Z</time>
      </trkpt>
      <trkpt lat="45.70132" lon="2.9702">
        <ele>996</ele>
        <time>2012-09-15T10:02:50Z</time>
      </trkpt>
      <trkpt lat="45.70119" lon="2.97001">
        <ele>996</ele>
        <time>2012-09-15T10:02:55Z</time>
      </trkpt>
      <trkpt lat="45.70101" lon="2.96971">
        <ele>994</ele>
        <time>2012-09-15T10:03:00Z</time>
      </trkpt>
      <trkpt lat="45.70079" lon="2.96943">
        <ele>989</ele>
        <time>2012-09-15T10:03:05Z</time>
      </trkpt>
      <trkpt lat="45.70063" lon="2.96949">
        <ele>987</ele>
        <time>2012-09-15T10:03:10Z</time>
      </trkpt>
      <trkpt lat="45.70054" lon="2.96974">
        <ele>987</ele>
        <time>2012-09-15T10:03:15Z</time>
      </trkpt>
      <trkpt lat="45.7004" lon="2.96992">
        <ele>987</ele>
        <time>2012-09-15T10:03:20Z</time>
      </trkpt>
      <trkpt lat="45.70021" lon="2.96987">
        <ele>987</ele>
        <time>2012-09-15T10:03:25Z</time>
      </trkpt>
      <trkpt lat="45.69997" lon="2.9698">
        <ele>987</ele>
        <time>2012-09-15T10:03:30Z</time>
      </trkpt>
      <trkpt lat="45.69973" lon="2.96978">
        <ele>987</ele>
        <time>2012-09-15T10:03:35Z</time>
      </trkpt>
      <trkpt lat="45.69944" lon="2.96975">
        <ele>987</ele>
        <time>2012-09-15T10:03:40Z</time>
      </trkpt>
      <trkpt lat="45.69909" lon="2.96963">
        <ele>987</ele>
        <time>2012-09-15T10:03:45Z</time>
      </trkpt>
      <trkpt lat="45.69873" lon="2.96936">
        <ele>982</ele>
        <time>2012-09-15T10:03:50Z</time>
      </trkpt>
      <trkpt lat="45.69842" lon="2.96915">
        <ele>980</ele>
        <time>2012-09-15T10:03:55Z</time>
      </trkpt>
      <trkpt lat="45.6981" lon="2.96901">
        <ele>979</ele>
        <time>2012-09-15T10:04:00Z</time>
      </trkpt>
      <trkpt lat="45.69785" lon="2.96898">
        <ele>979</ele>
        <time>2012-09-15T10:04:05Z</time>
      </trkpt>
      <trkpt lat="45.69764" lon="2.96901">
        <ele>979</ele>
        <time>2012-09-15T10:04:10Z</time>
      </trkpt>
      <trkpt lat="45.69751" lon="2.96901">
        <ele>981</ele>
        <time>2012-09-15T10:04:15Z</time>
      </trkpt>
      <trkpt lat="45.69734" lon="2.96897">
        <ele>983</ele>
        <time>2012-09-15T10:04:20Z</time>
      </trkpt>
      <trkpt lat="45.69717" lon="2.96892">
        <ele>984</ele>
        <time>2012-09-15T10:04:25Z</time>
      </trkpt>
      <trkpt lat="45.69695" lon="2.96895">
        <ele>989</ele>
        <time>2012-09-15T10:04:30Z</time>
      </trkpt>
      <trkpt lat="45.69674" lon="2.96897">
        <ele>993</ele>
        <time>2012-09-15T10:04:35Z</time>
      </trkpt>
      <trkpt lat="45.69661" lon="2.96904">
        <ele>995</ele>
        <time>2012-09-15T10:04:40Z</time>
      </trkpt>
      <trkpt lat="45.69641" lon="2.96908">
        <ele>996</ele>
        <time>2012-09-15T10:04:45Z</time>
      </trkpt>
      <trkpt lat="45.69621" lon="2.96914">
        <ele>997</ele>
        <time>2012-09-15T10:04:50Z</time>
      </trkpt>
      <trkpt lat="45.69601" lon="2.96928">
        <ele>997</ele>
        <time>2012-09-15T10:04:55Z</time>
      </trkpt>
      <trkpt lat="45.69584" lon="2.96941">
        <ele>997</ele>
        <time>2012-09-15T10:05:00Z</time>
      </trkpt>
      <trkpt lat="45.69569" lon="2.96954">
        <ele>997</ele>
        <time>2012-09-15T10:05:05Z</time>
      </trkpt>
      <trkpt lat="45.6955" lon="2.96971">
        <ele>997</ele>
        <time>2012-09-15T10:05:10Z</time>
      </trkpt>
      <trkpt lat="45.69534" lon="2.96985">
        <ele>997</ele>
        <time>2012-09-15T10:05:15Z</time>
      </trkpt>
      <trkpt lat="45.69518" lon="2.96977">
        <ele>992</ele>
        <time>2012-09-15T10:05:20Z</time>
      </trkpt>
      <trkpt lat="45.69519" lon="2.9695">
        <ele>988</ele>
        <time>2012-09-15T10:05:25Z</time>
      </trkpt>
      <trkpt lat="45.69521" lon="2.96932">
        <ele>984</ele>
        <time>2012-09-15T10:05:30Z</time>
      </trkpt>
      <trkpt lat="45.69523" lon="2.96914">
        <ele>983</ele>
        <time>2012-09-15T10:05:35Z</time>
      </trkpt>
      <trkpt lat="45.6953" lon="2.96895">
        <ele>983</ele>
        <time>2012-09-15T10:05:40Z</time>
      </trkpt>
      <trkpt lat="45.6954" lon="2.96875">
        <ele>983</ele>
        <time>2012-09-15T10:05:45Z</time>
      </trkpt>
      <trkpt lat="45.69553" lon="2.96857">
        <ele>983</ele>
        <time>2012-09-15T10:05:50Z</time>
      </trkpt>
      <trkpt lat="45.69566" lon="2.96843">
        <ele>978</ele>
        <time>2012-09-15T10:05:55Z</time>
      </trkpt>
      <trkpt lat="45.69572" lon="2.96823">
        <ele>974</ele>
        <time>2012-09-15T10:06:00Z</time>
      </trkpt>
      <trkpt lat="45.69561" lon="2.96808">
        <ele>969</ele>
        <time>2012-09-15T10:06:05Z</time>
      </trkpt>
      <trkpt lat="45.69543" lon="2.96792">
        <ele>969</ele>
        <time>2012-09-15T10:06:10Z</time>
      </trkpt>
      <trkpt lat="45.6954" lon="2.96769">
        <ele>971</ele>
        <time>2012-09-15T10:06:15Z</time>
      </trkpt>
      <trkpt lat="45.69539" lon="2.9676">
        <ele>971</ele>
        <time>2012-09-15T10:06:21Z</time>
      </trkpt>
      <trkpt lat="45.69538" lon="2.96757">
        <ele>971</ele>
        <time>2012-09-15T10:06:27Z</time>
      </trkpt>
      <trkpt lat="45.69536" lon="2.96754">
        <ele>969</ele>
        <time>2012-09-15T10:06:33Z</time>
      </trkpt>
      <trkpt lat="45.6953" lon="2.96751">
        <ele>968</ele>
        <time>2012-09-15T10:06:38Z</time>
      </trkpt>
      <trkpt lat="45.69517" lon="2.96735">
        <ele>967</ele>
        <time>2012-09-15T10:06:43Z</time>
      </trkpt>
      <trkpt lat="45.69499" lon="2.96724">
        <ele>967</ele>
        <time>2012-09-15T10:06:48Z</time>
      </trkpt>
      <trkpt lat="45.69487" lon="2.96719">
        <ele>969</ele>
        <time>2012-09-15T10:06:53Z</time>
      </trkpt>
      <trkpt lat="45.69482" lon="2.96715">
        <ele>972</ele>
        <time>2012-09-15T10:06:58Z</time>
      </trkpt>
      <trkpt lat="45.6947" lon="2.96712">
        <ele>976</ele>
        <time>2012-09-15T10:07:03Z</time>
      </trkpt>
      <trkpt lat="45.69455" lon="2.967">
        <ele>977</ele>
        <time>2012-09-15T10:07:08Z</time>
      </trkpt>
      <trkpt lat="45.69441" lon="2.96688">
        <ele>977</ele>
        <time>2012-09-15T10:07:13Z</time>
      </trkpt>
      <trkpt lat="45.69419" lon="2.96682">
        <ele>977</ele>
        <time>2012-09-15T10:07:18Z</time>
      </trkpt>
      <trkpt lat="45.69404" lon="2.96685">
        <ele>973</ele>
        <time>2012-09-15T10:07:23Z</time>
      </trkpt>
      <trkpt lat="45.69389" lon="2.96682">
        <ele>972</ele>
        <time>2012-09-15T10:07:28Z</time>
      </trkpt>
      <trkpt lat="45.69378" lon="2.96676">
        <ele>971</ele>
        <time>2012-09-15T10:07:33Z</time>
      </trkpt>
      <trkpt lat="45.69369" lon="2.96674">
        <ele>972</ele>
        <time>2012-09-15T10:07:38Z</time>
      </trkpt>
      <trkpt lat="45.69357" lon="2.96671">
        <ele>977</ele>
        <time>2012-09-15T10:07:43Z</time>
      </trkpt>
      <trkpt lat="45.69329" lon="2.96661">
        <ele>979</ele>
        <time>2012-09-15T10:07:48Z</time>
      </trkpt>
      <trkpt lat="45.69302" lon="2.96665">
        <ele>976</ele>
        <time>2012-09-15T10:07:53Z</time>
      </trkpt>
      <trkpt lat="45.69291" lon="2.96669">
        <ele>971</ele>
        <time>2012-09-15T10:07:58Z</time>
      </trkpt>
      <trkpt lat="45.69283" lon="2.96675">
        <ele>970</ele>
        <time>2012-09-15T10:08:03Z</time>
      </trkpt>
      <trkpt lat="45.69273" lon="2.96681">
        <ele>973</ele>
        <time>2012-09-15T10:08:08Z</time>
      </trkpt>
      <trkpt lat="45.6926" lon="2.96692">
        <ele>973</ele>
        <time>2012-09-15T10:08:13Z</time>
      </trkpt>
      <trkpt lat="45.69247" lon="2.96709">
        <ele>973</ele>
        <time>2012-09-15T10:08:18Z</time>
      </trkpt>
      <trkpt lat="45.69232" lon="2.96709">
        <ele>973</ele>
        <time>2012-09-15T10:08:23Z</time>
      </trkpt>
      <trkpt lat="45.69226" lon="2.96695">
        <ele>973</ele>
        <time>2012-09-15T10:08:28Z</time>
      </trkpt>
      <trkpt lat="45.69218" lon="2.96682">
        <ele>973</ele>
        <time>2012-09-15T10:08:33Z</time>
      </trkpt>
      <trkpt lat="45.69211" lon="2.96664">
        <ele>976</ele>
        <time>2012-09-15T10:08:38Z</time>
      </trkpt>
      <trkpt lat="45.69202" lon="2.96653">
        <ele>978</ele>
        <time>2012-09-15T10:08:43Z</time>
      </trkpt>
      <trkpt lat="45.69193" lon="2.96639">
        <ele>979</ele>
        <time>2012-09-15T10:08:48Z</time>
      </trkpt>
      <trkpt lat="45.69182" lon="2.96626">
        <ele>982</ele>
        <time>2012-09-15T10:08:53Z</time>
      </trkpt>
      <trkpt lat="45.69169" lon="2.96617">
        <ele>984</ele>
        <time>2012-09-15T10:08:58Z</time>
      </trkpt>
      <trkpt lat="45.6916" lon="2.96605">
        <ele>987</ele>
        <time>2012-09-15T10:09:03Z</time>
      </trkpt>
      <trkpt lat="45.69147" lon="2.96596">
        <ele>991</ele>
        <time>2012-09-15T10:09:08Z</time>
      </trkpt>
      <trkpt lat="45.69138" lon="2.96587">
        <ele>991</ele>
        <time>2012-09-15T10:09:13Z</time>
      </trkpt>
      <trkpt lat="45.69122" lon="2.96582">
        <ele>991</ele>
        <time>2012-09-15T10:09:18Z</time>
      </trkpt>
      <trkpt lat="45.69102" lon="2.96575">
        <ele>990</ele>
        <time>2012-09-15T10:09:23Z</time>
      </trkpt>
      <trkpt lat="45.69087" lon="2.96557">
        <ele>985</ele>
        <time>2012-09-15T10:09:28Z</time>
      </trkpt>
      <trkpt lat="45.69075" lon="2.96542">
        <ele>982</ele>
        <time>2012-09-15T10:09:33Z</time>
      </trkpt>
      <trkpt lat="45.69051" lon="2.9654">
        <ele>979</ele>
        <time>2012-09-15T10:09:38Z</time>
      </trkpt>
      <trkpt lat="45.6903" lon="2.96544">
        <ele>976</ele>
        <time>2012-09-15T10:09:43Z</time>
      </trkpt>
      <trkpt lat="45.69014" lon="2.96539">
        <ele>976</ele>
        <time>2012-09-15T10:09:48Z</time>
      </trkpt>
      <trkpt lat="45.68997" lon="2.96527">
        <ele>976</ele>
        <time>2012-09-15T10:09:53Z</time>
      </trkpt>
      <trkpt lat="45.68974" lon="2.96532">
        <ele>973</ele>
        <time>2012-09-15T10:09:58Z</time>
      </trkpt>
      <trkpt lat="45.68951" lon="2.96562">
        <ele>972</ele>
        <time>2012-09-15T10:10:03Z</time>
      </trkpt>
      <trkpt lat="45.68938" lon="2.9659">
        <ele>972</ele>
        <time>2012-09-15T10:10:08Z</time>
      </trkpt>
      <trkpt lat="45.68916" lon="2.96627">
        <ele>972</ele>
        <time>2012-09-15T10:10:13Z</time>
      </trkpt>
      <trkpt lat="45.68903" lon="2.96641">
        <ele>972</ele>
        <time>2012-09-15T10:10:18Z</time>
      </trkpt>
      <trkpt lat="45.68884" lon="2.96668">
        <ele>975</ele>
        <time>2012-09-15T10:10:23Z</time>
      </trkpt>
      <trkpt lat="45.68869" lon="2.96689">
        <ele>975</ele>
        <time>2012-09-15T10:10:28Z</time>
      </trkpt>
      <trkpt lat="45.68869" lon="2.96686">
        <ele>977</ele>
        <time>2012-09-15T10:10:33Z</time>
      </trkpt>
      <trkpt lat="45.68867" lon="2.9668">
        <ele>977</ele>
        <time>2012-09-15T10:10:39Z</time>
      </trkpt>
      <trkpt lat="45.6883" lon="2.96703">
        <ele>977</ele>
        <time>2012-09-15T10:10:44Z</time>
      </trkpt>
      <trkpt lat="45.68803" lon="2.96719">
        <ele>977</ele>
        <time>2012-09-15T10:10:49Z</time>
      </trkpt>
      <trkpt lat="45.68775" lon="2.96732">
        <ele>982</ele>
        <time>2012-09-15T10:10:54Z</time>
      </trkpt>
      <trkpt lat="45.68737" lon="2.96736">
        <ele>985</ele>
        <time>2012-09-15T10:10:59Z</time>
      </trkpt>
      <trkpt lat="45.68699" lon="2.96743">
        <ele>978</ele>
        <time>2012-09-15T10:11:04Z</time>
      </trkpt>
      <trkpt lat="45.68656" lon="2.96746">
        <ele>970</ele>
        <time>2012-09-15T10:11:09Z</time>
      </trkpt>
      <trkpt lat="45.68628" lon="2.96746">
        <ele>963</ele>
        <time>2012-09-15T10:11:14Z</time>
      </trkpt>
      <trkpt lat="45.68597" lon="2.96742">
        <ele>960</ele>
        <time>2012-09-15T10:11:19Z</time>
      </trkpt>
      <trkpt lat="45.6858" lon="2.96739">
        <ele>960</ele>
        <time>2012-09-15T10:11:24Z</time>
      </trkpt>
      <trkpt lat="45.68551" lon="2.96733">
        <ele>960</ele>
        <time>2012-09-15T10:11:29Z</time>
      </trkpt>
      <trkpt lat="45.68539" lon="2.96732">
        <ele>960</ele>
        <time>2012-09-15T10:11:34Z</time>
      </trkpt>
      <trkpt lat="45.68525" lon="2.96729">
        <ele>960</ele>
        <time>2012-09-15T10:11:39Z</time>
      </trkpt>
      <trkpt lat="45.68513" lon="2.96734">
        <ele>960</ele>
        <time>2012-09-15T10:11:44Z</time>
      </trkpt>
      <trkpt lat="45.68498" lon="2.96747">
        <ele>965</ele>
        <time>2012-09-15T10:11:49Z</time>
      </trkpt>
      <trkpt lat="45.68481" lon="2.96757">
        <ele>970</ele>
        <time>2012-09-15T10:11:54Z</time>
      </trkpt>
      <trkpt lat="45.68467" lon="2.9676">
        <ele>972</ele>
        <time>2012-09-15T10:11:59Z</time>
      </trkpt>
      <trkpt lat="45.68446" lon="2.96771">
        <ele>973</ele>
        <time>2012-09-15T10:12:04Z</time>
      </trkpt>
      <trkpt lat="45.68428" lon="2.9678">
        <ele>973</ele>
        <time>2012-09-15T10:12:09Z</time>
      </trkpt>
      <trkpt lat="45.6841" lon="2.96789">
        <ele>973</ele>
        <time>2012-09-15T10:12:14Z</time>
      </trkpt>
      <trkpt lat="45.68393" lon="2.96792">
        <ele>973</ele>
        <time>2012-09-15T10:12:19Z</time>
      </trkpt>
      <trkpt lat="45.68365" lon="2.96789">
        <ele>973</ele>
        <time>2012-09-15T10:12:24Z</time>
      </trkpt>
      <trkpt lat="45.6834" lon="2.96784">
        <ele>972</ele>
        <time>2012-09-15T10:12:29Z</time>
      </trkpt>
      <trkpt lat="45.68319" lon="2.96771">
        <ele>970</ele>
        <time>2012-09-15T10:12:34Z</time>
      </trkpt>
      <trkpt lat="45.68301" lon="2.96754">
        <ele>970</ele>
        <time>2012-09-15T10:12:39Z</time>
      </trkpt>
      <trkpt lat="45.68279" lon="2.96736">
        <ele>970</ele>
        <time>2012-09-15T10:12:44Z</time>
      </trkpt>
      <trkpt lat="45.68261" lon="2.96715">
        <ele>970</ele>
        <time>2012-09-15T10:12:49Z</time>
      </trkpt>
      <trkpt lat="45.68247" lon="2.96689">
        <ele>970</ele>
        <time>2012-09-15T10:12:54Z</time>
      </trkpt>
      <trkpt lat="45.68245" lon="2.96655">
        <ele>970</ele>
        <time>2012-09-15T10:12:59Z</time>
      </trkpt>
      <trkpt lat="45.68244" lon="2.96622">
        <ele>970</ele>
        <time>2012-09-15T10:13:04Z</time>
      </trkpt>
      <trkpt lat="45.68247" lon="2.96577">
        <ele>970</ele>
        <time>2012-09-15T10:13:09Z</time>
      </trkpt>
      <trkpt lat="45.68271" lon="2.96527">
        <ele>970</ele>
        <time>2012-09-15T10:13:14Z</time>
      </trkpt>
      <trkpt lat="45.68295" lon="2.9648">
        <ele>969</ele>
        <time>2012-09-15T10:13:19Z</time>
      </trkpt>
      <trkpt lat="45.68317" lon="2.96441">
        <ele>964</ele>
        <time>2012-09-15T10:13:24Z</time>
      </trkpt>
      <trkpt lat="45.68332" lon="2.96397">
        <ele>960</ele>
        <time>2012-09-15T10:13:29Z</time>
      </trkpt>
      <trkpt lat="45.68344" lon="2.96358">
        <ele>960</ele>
        <time>2012-09-15T10:13:34Z</time>
      </trkpt>
      <trkpt lat="45.68349" lon="2.96324">
        <ele>960</ele>
        <time>2012-09-15T10:13:39Z</time>
      </trkpt>
      <trkpt lat="45.68352" lon="2.96285">
        <ele>960</ele>
        <time>2012-09-15T10:13:44Z</time>
      </trkpt>
      <trkpt lat="45.68353" lon="2.96241">
        <ele>960</ele>
        <time>2012-09-15T10:13:49Z</time>
      </trkpt>
      <trkpt lat="45.68352" lon="2.96198">
        <ele>960</ele>
        <time>2012-09-15T10:13:54Z</time>
      </trkpt>
      <trkpt lat="45.68352" lon="2.96158">
        <ele>960</ele>
        <time>2012-09-15T10:13:59Z</time>
      </trkpt>
      <trkpt lat="45.6835" lon="2.96117">
        <ele>960</ele>
        <time>2012-09-15T10:14:04Z</time>
      </trkpt>
      <trkpt lat="45.68349" lon="2.96076">
        <ele>960</ele>
        <time>2012-09-15T10:14:09Z</time>
      </trkpt>
      <trkpt lat="45.68349" lon="2.96037">
        <ele>960</ele>
        <time>2012-09-15T10:14:14Z</time>
      </trkpt>
      <trkpt lat="45.68348" lon="2.95998">
        <ele>960</ele>
        <time>2012-09-15T10:14:19Z</time>
      </trkpt>
      <trkpt lat="45.68346" lon="2.95959">
        <ele>960</ele>
        <time>2012-09-15T10:14:24Z</time>
      </trkpt>
      <trkpt lat="45.68343" lon="2.95923">
        <ele>960</ele>
        <time>2012-09-15T10:14:29Z</time>
      </trkpt>
      <trkpt lat="45.68338" lon="2.95883">
        <ele>960</ele>
        <time>2012-09-15T10:14:34Z</time>
      </trkpt>
      <trkpt lat="45.68337" lon="2.95839">
        <ele>960</ele>
        <time>2012-09-15T10:14:39Z</time>
      </trkpt>
      <trkpt lat="45.6834" lon="2.95794">
        <ele>960</ele>
        <time>2012-09-15T10:14:44Z</time>
      </trkpt>
      <trkpt lat="45.68351" lon="2.95759">
        <ele>960</ele>
        <time>2012-09-15T10:14:49Z</time>
      </trkpt>
      <trkpt lat="45.68368" lon="2.95725">
        <ele>960</ele>
        <time>2012-09-15T10:14:54Z</time>
      </trkpt>
      <trkpt lat="45.68382" lon="2.95695">
        <ele>960</ele>
        <time>2012-09-15T10:14:59Z</time>
      </trkpt>
      <trkpt lat="45.6839" lon="2.95659">
        <ele>964</ele>
        <time>2012-09-15T10:15:04Z</time>
      </trkpt>
      <trkpt lat="45.68395" lon="2.95629">
        <ele>966</ele>
        <time>2012-09-15T10:15:09Z</time>
      </trkpt>
      <trkpt lat="45.68404" lon="2.95606">
        <ele>966</ele>
        <time>2012-09-15T10:15:14Z</time>
      </trkpt>
      <trkpt lat="45.6842" lon="2.95577">
        <ele>966</ele>
        <time>2012-09-15T10:15:19Z</time>
      </trkpt>
      <trkpt lat="45.68446" lon="2.95549">
        <ele>971</ele>
        <time>2012-09-15T10:15:24Z</time>
      </trkpt>
      <trkpt lat="45.68475" lon="2.95529">
        <ele>976</ele>
        <time>2012-09-15T10:15:29Z</time>
      </trkpt>
      <trkpt lat="45.68491" lon="2.95503">
        <ele>978</ele>
        <time>2012-09-15T10:15:34Z</time>
      </trkpt>
      <trkpt lat="45.68504" lon="2.95476">
        <ele>975</ele>
        <time>2012-09-15T10:15:39Z</time>
      </trkpt>
      <trkpt lat="45.68523" lon="2.95451">
        <ele>970</ele>
        <time>2012-09-15T10:15:44Z</time>
      </trkpt>
      <trkpt lat="45.68546" lon="2.95422">
        <ele>965</ele>
        <time>2012-09-15T10:15:49Z</time>
      </trkpt>
      <trkpt lat="45.68572" lon="2.95391">
        <ele>960</ele>
        <time>2012-09-15T10:15:54Z</time>
      </trkpt>
      <trkpt lat="45.68607" lon="2.95413">
        <ele>955</ele>
        <time>2012-09-15T10:15:59Z</time>
      </trkpt>
      <trkpt lat="45.68639" lon="2.95437">
        <ele>950</ele>
        <time>2012-09-15T10:16:04Z</time>
      </trkpt>
      <trkpt lat="45.68656" lon="2.95409">
        <ele>947</ele>
        <time>2012-09-15T10:16:09Z</time>
      </trkpt>
      <trkpt lat="45.6866" lon="2.95369">
        <ele>946</ele>
        <time>2012-09-15T10:16:14Z</time>
      </trkpt>
      <trkpt lat="45.6866" lon="2.95333">
        <ele>946</ele>
        <time>2012-09-15T10:16:19Z</time>
      </trkpt>
      <trkpt lat="45.6866" lon="2.95296">
        <ele>949</ele>
        <time>2012-09-15T10:16:24Z</time>
      </trkpt>
      <trkpt lat="45.68656" lon="2.95256">
        <ele>950</ele>
        <time>2012-09-15T10:16:29Z</time>
      </trkpt>
      <trkpt lat="45.6866" lon="2.95216">
        <ele>952</ele>
        <time>2012-09-15T10:16:34Z</time>
      </trkpt>
      <trkpt lat="45.6868" lon="2.95186">
        <ele>954</ele>
        <time>2012-09-15T10:16:39Z</time>
      </trkpt>
      <trkpt lat="45.68702" lon="2.95161">
        <ele>955</ele>
        <time>2012-09-15T10:16:44Z</time>
      </trkpt>
      <trkpt lat="45.68726" lon="2.95147">
        <ele>955</ele>
        <time>2012-09-15T10:16:49Z</time>
      </trkpt>
      <trkpt lat="45.68747" lon="2.95143">
        <ele>955</ele>
        <time>2012-09-15T10:16:54Z</time>
      </trkpt>
      <trkpt lat="45.68762" lon="2.95129">
        <ele>955</ele>
        <time>2012-09-15T10:16:59Z</time>
      </trkpt>
      <trkpt lat="45.68784" lon="2.95123">
        <ele>955</ele>
        <time>2012-09-15T10:17:04Z</time>
      </trkpt>
      <trkpt lat="45.68809" lon="2.95122">
        <ele>955</ele>
        <time>2012-09-15T10:17:09Z</time>
      </trkpt>
      <trkpt lat="45.68831" lon="2.95123">
        <ele>955</ele>
        <time>2012-09-15T10:17:14Z</time>
      </trkpt>
      <trkpt lat="45.68851" lon="2.95125">
        <ele>955</ele>
        <time>2012-09-15T10:17:19Z</time>
      </trkpt>
      <trkpt lat="45.68875" lon="2.95122">
        <ele>957</ele>
        <time>2012-09-15T10:17:24Z</time>
      </trkpt>
      <trkpt lat="45.68898" lon="2.95112">
        <ele>958</ele>
        <time>2012-09-15T10:17:29Z</time>
      </trkpt>
      <trkpt lat="45.68923" lon="2.95106">
        <ele>958</ele>
        <time>2012-09-15T10:17:34Z</time>
      </trkpt>
      <trkpt lat="45.68946" lon="2.95106">
        <ele>958</ele>
        <time>2012-09-15T10:17:39Z</time>
      </trkpt>
      <trkpt lat="45.68976" lon="2.95115">
        <ele>958</ele>
        <time>2012-09-15T10:17:44Z</time>
      </trkpt>
      <trkpt lat="45.69001" lon="2.95128">
        <ele>958</ele>
        <time>2012-09-15T10:17:49Z</time>
      </trkpt>
      <trkpt lat="45.6903" lon="2.95114">
        <ele>958</ele>
        <time>2012-09-15T10:17:54Z</time>
      </trkpt>
      <trkpt lat="45.69056" lon="2.95101">
        <ele>958</ele>
        <time>2012-09-15T10:17:59Z</time>
      </trkpt>
      <trkpt lat="45.6908" lon="2.95107">
        <ele>958</ele>
        <time>2012-09-15T10:18:04Z</time>
      </trkpt>
      <trkpt lat="45.69104" lon="2.95109">
        <ele>958</ele>
        <time>2012-09-15T10:18:09Z</time>
      </trkpt>
      <trkpt lat="45.6913" lon="2.95107">
        <ele>958</ele>
        <time>2012-09-15T10:18:14Z</time>
      </trkpt>
      <trkpt lat="45.69155" lon="2.95108">
        <ele>958</ele>
        <time>2012-09-15T10:18:19Z</time>
      </trkpt>
      <trkpt lat="45.69178" lon="2.95106">
        <ele>958</ele>
        <time>2012-09-15T10:18:24Z</time>
      </trkpt>
      <trkpt lat="45.69196" lon="2.95107">
        <ele>958</ele>
        <time>2012-09-15T10:18:29Z</time>
      </trkpt>
      <trkpt lat="45.69213" lon="2.9511">
        <ele>958</ele>
        <time>2012-09-15T10:18:34Z</time>
      </trkpt>
      <trkpt lat="45.6923" lon="2.95112">
        <ele>961</ele>
        <time>2012-09-15T10:18:39Z</time>
      </trkpt>
      <trkpt lat="45.69247" lon="2.95116">
        <ele>964</ele>
        <time>2012-09-15T10:18:44Z</time>
      </trkpt>
      <trkpt lat="45.69262" lon="2.95118">
        <ele>966</ele>
        <time>2012-09-15T10:18:49Z</time>
      </trkpt>
      <trkpt lat="45.6928" lon="2.95121">
        <ele>968</ele>
        <time>2012-09-15T10:18:54Z</time>
      </trkpt>
      <trkpt lat="45.69295" lon="2.95121">
        <ele>968</ele>
        <time>2012-09-15T10:18:59Z</time>
      </trkpt>
      <trkpt lat="45.69308" lon="2.95125">
        <ele>968</ele>
        <time>2012-09-15T10:19:04Z</time>
      </trkpt>
      <trkpt lat="45.69318" lon="2.95141">
        <ele>968</ele>
        <time>2012-09-15T10:19:09Z</time>
      </trkpt>
      <trkpt lat="45.69333" lon="2.95161">
        <ele>968</ele>
        <time>2012-09-15T10:19:14Z</time>
      </trkpt>
      <trkpt lat="45.69346" lon="2.95182">
        <ele>968</ele>
        <time>2012-09-15T10:19:19Z</time>
      </trkpt>
      <trkpt lat="45.69362" lon="2.95205">
        <ele>968</ele>
        <time>2012-09-15T10:19:24Z</time>
      </trkpt>
      <trkpt lat="45.69379" lon="2.95231">
        <ele>968</ele>
        <time>2012-09-15T10:19:29Z</time>
      </trkpt>
      <trkpt lat="45.69397" lon="2.95256">
        <ele>968</ele>
        <time>2012-09-15T10:19:34Z</time>
      </trkpt>
      <trkpt lat="45.69415" lon="2.95282">
        <ele>968</ele>
        <time>2012-09-15T10:19:39Z</time>
      </trkpt>
      <trkpt lat="45.69432" lon="2.95304">
        <ele>968</ele>
        <time>2012-09-15T10:19:44Z</time>
      </trkpt>
      <trkpt lat="45.69447" lon="2.95325">
        <ele>968</ele>
        <time>2012-09-15T10:19:49Z</time>
      </trkpt>
      <trkpt lat="45.69466" lon="2.95345">
        <ele>968</ele>
        <time>2012-09-15T10:19:54Z</time>
      </trkpt>
      <trkpt lat="45.69482" lon="2.9533">
        <ele>968</ele>
        <time>2012-09-15T10:19:59Z</time>
      </trkpt>
      <trkpt lat="45.6949" lon="2.95306">
        <ele>968</ele>
        <time>2012-09-15T10:20:04Z</time>
      </trkpt>
      <trkpt lat="45.69499" lon="2.95286">
        <ele>968</ele>
        <time>2012-09-15T10:20:09Z</time>
      </trkpt>
      <trkpt lat="45.69509" lon="2.95267">
        <ele>968</ele>
        <time>2012-09-15T10:20:14Z</time>
      </trkpt>
      <trkpt lat="45.69519" lon="2.95246">
        <ele>970</ele>
        <time>2012-09-15T10:20:19Z</time>
      </trkpt>
      <trkpt lat="45.69527" lon="2.95225">
        <ele>972</ele>
        <time>2012-09-15T10:20:24Z</time>
      </trkpt>
      <trkpt lat="45.69534" lon="2.95205">
        <ele>973</ele>
        <time>2012-09-15T10:20:29Z</time>
      </trkpt>
      <trkpt lat="45.6954" lon="2.95187">
        <ele>974</ele>
        <time>2012-09-15T10:20:34Z</time>
      </trkpt>
      <trkpt lat="45.69546" lon="2.9517">
        <ele>975</ele>
        <time>2012-09-15T10:20:39Z</time>
      </trkpt>
      <trkpt lat="45.69554" lon="2.95154">
        <ele>976</ele>
        <time>2012-09-15T10:20:44Z</time>
      </trkpt>
      <trkpt lat="45.69565" lon="2.95141">
        <ele>978</ele>
        <time>2012-09-15T10:20:49Z</time>
      </trkpt>
      <trkpt lat="45.69577" lon="2.95128">
        <ele>979</ele>
        <time>2012-09-15T10:20:54Z</time>
      </trkpt>
      <trkpt lat="45.69585" lon="2.95114">
        <ele>981</ele>
        <time>2012-09-15T10:20:59Z</time>
      </trkpt>
      <trkpt lat="45.69592" lon="2.95098">
        <ele>981</ele>
        <time>2012-09-15T10:21:04Z</time>
      </trkpt>
      <trkpt lat="45.69597" lon="2.9508">
        <ele>982</ele>
        <time>2012-09-15T10:21:09Z</time>
      </trkpt>
      <trkpt lat="45.69601" lon="2.95061">
        <ele>984</ele>
        <time>2012-09-15T10:21:14Z</time>
      </trkpt>
      <trkpt lat="45.69605" lon="2.95043">
        <ele>984</ele>
        <time>2012-09-15T10:21:19Z</time>
      </trkpt>
      <trkpt lat="45.69611" lon="2.95025">
        <ele>985</ele>
        <time>2012-09-15T10:21:24Z</time>
      </trkpt>
      <trkpt lat="45.69616" lon="2.95006">
        <ele>988</ele>
        <time>2012-09-15T10:21:29Z</time>
      </trkpt>
      <trkpt lat="45.69623" lon="2.94989">
        <ele>989</ele>
        <time>2012-09-15T10:21:34Z</time>
      </trkpt>
      <trkpt lat="45.69633" lon="2.94971">
        <ele>989</ele>
        <time>2012-09-15T10:21:39Z</time>
      </trkpt>
      <trkpt lat="45.69641" lon="2.94947">
        <ele>990</ele>
        <time>2012-09-15T10:21:44Z</time>
      </trkpt>
      <trkpt lat="45.69654" lon="2.94929">
        <ele>990</ele>
        <time>2012-09-15T10:21:49Z</time>
      </trkpt>
      <trkpt lat="45.69664" lon="2.9491">
        <ele>990</ele>
        <time>2012-09-15T10:21:54Z</time>
      </trkpt>
      <trkpt lat="45.69675" lon="2.94889">
        <ele>990</ele>
        <time>2012-09-15T10:21:59Z</time>
      </trkpt>
      <trkpt lat="45.69686" lon="2.9487">
        <ele>990</ele>
        <time>2012-09-15T10:22:04Z</time>
      </trkpt>
      <trkpt lat="45.69696" lon="2.9485">
        <ele>991</ele>
        <time>2012-09-15T10:22:09Z</time>
      </trkpt>
      <trkpt lat="45.69706" lon="2.94831">
        <ele>992</ele>
        <time>2012-09-15T10:22:14Z</time>
      </trkpt>
      <trkpt lat="45.69715" lon="2.94811">
        <ele>992</ele>
        <time>2012-09-15T10:22:19Z</time>
      </trkpt>
      <trkpt lat="45.69727" lon="2.94788">
        <ele>992</ele>
        <time>2012-09-15T10:22:24Z</time>
      </trkpt>
      <trkpt lat="45.69737" lon="2.94761">
        <ele>992</ele>
        <time>2012-09-15T10:22:29Z</time>
      </trkpt>
      <trkpt lat="45.69748" lon="2.9474">
        <ele>992</ele>
        <time>2012-09-15T10:22:34Z</time>
      </trkpt>
      <trkpt lat="45.69761" lon="2.94717">
        <ele>995</ele>
        <time>2012-09-15T10:22:39Z</time>
      </trkpt>
      <trkpt lat="45.69753" lon="2.94691">
        <ele>1000</ele>
        <time>2012-09-15T10:22:44Z</time>
      </trkpt>
      <trkpt lat="45.6974" lon="2.94668">
        <ele>1000</ele>
        <time>2012-09-15T10:22:49Z</time>
      </trkpt>
      <trkpt lat="45.69726" lon="2.94645">
        <ele>1003</ele>
        <time>2012-09-15T10:22:54Z</time>
      </trkpt>
      <trkpt lat="45.69716" lon="2.94624">
        <ele>1003</ele>
        <time>2012-09-15T10:22:59Z</time>
      </trkpt>
      <trkpt lat="45.69708" lon="2.94603">
        <ele>1003</ele>
        <time>2012-09-15T10:23:04Z</time>
      </trkpt>
      <trkpt lat="45.69698" lon="2.94579">
        <ele>1003</ele>
        <time>2012-09-15T10:23:09Z</time>
      </trkpt>
      <trkpt lat="45.6969" lon="2.94557">
        <ele>1003</ele>
        <time>2012-09-15T10:23:14Z</time>
      </trkpt>
      <trkpt lat="45.69682" lon="2.94536">
        <ele>1003</ele>
        <time>2012-09-15T10:23:19Z</time>
      </trkpt>
      <trkpt lat="45.69674" lon="2.94518">
        <ele>1003</ele>
        <time>2012-09-15T10:23:24Z</time>
      </trkpt>
      <trkpt lat="45.69666" lon="2.94501">
        <ele>1003</ele>
        <time>2012-09-15T10:23:29Z</time>
      </trkpt>
      <trkpt lat="45.69659" lon="2.94483">
        <ele>1003</ele>
        <time>2012-09-15T10:23:34Z</time>
      </trkpt>
      <trkpt lat="45.69651" lon="2.94464">
        <ele>1003</ele>
        <time>2012-09-15T10:23:39Z</time>
      </trkpt>
      <trkpt lat="45.6964" lon="2.94444">
        <ele>1003</ele>
        <time>2012-09-15T10:23:44Z</time>
      </trkpt>
      <trkpt lat="45.6963" lon="2.94423">
        <ele>1003</ele>
        <time>2012-09-15T10:23:49Z</time>
      </trkpt>
      <trkpt lat="45.6962" lon="2.94401">
        <ele>1003</ele>
        <time>2012-09-15T10:23:54Z</time>
      </trkpt>
      <trkpt lat="45.69609" lon="2.94378">
        <ele>1003</ele>
        <time>2012-09-15T10:23:59Z</time>
      </trkpt>
      <trkpt lat="45.69597" lon="2.94356">
        <ele>1003</ele>
        <time>2012-09-15T10:24:04Z</time>
      </trkpt>
      <trkpt lat="45.69586" lon="2.94335">
        <ele>1003</ele>
        <time>2012-09-15T10:24:09Z</time>
      </trkpt>
      <trkpt lat="45.69576" lon="2.94315">
        <ele>1003</ele>
        <time>2012-09-15T10:24:14Z</time>
      </trkpt>
      <trkpt lat="45.69566" lon="2.94294">
        <ele>1003</ele>
        <time>2012-09-15T10:24:19Z</time>
      </trkpt>
      <trkpt lat="45.69554" lon="2.94274">
        <ele>1003</ele>
        <time>2012-09-15T10:24:24Z</time>
      </trkpt>
      <trkpt lat="45.69543" lon="2.94253">
        <ele>1003</ele>
        <time>2012-09-15T10:24:29Z</time>
      </trkpt>
      <trkpt lat="45.69533" lon="2.9423">
        <ele>1004</ele>
        <time>2012-09-15T10:24:34Z</time>
      </trkpt>
      <trkpt lat="45.69517" lon="2.942">
        <ele>1004</ele>
        <time>2012-09-15T10:24:39Z</time>
      </trkpt>
      <trkpt lat="45.69502" lon="2.94163">
        <ele>1004</ele>
        <time>2012-09-15T10:24:44Z</time>
      </trkpt>
      <trkpt lat="45.69484" lon="2.94125">
        <ele>1002</ele>
        <time>2012-09-15T10:24:49Z</time>
      </trkpt>
      <trkpt lat="45.69473" lon="2.94098">
        <ele>1002</ele>
        <time>2012-09-15T10:24:54Z</time>
      </trkpt>
      <trkpt lat="45.69491" lon="2.941">
        <ele>1002</ele>
        <time>2012-09-15T10:24:59Z</time>
      </trkpt>
      <trkpt lat="45.69503" lon="2.94106">
        <ele>1002</ele>
        <time>2012-09-15T10:25:04Z</time>
      </trkpt>
      <trkpt lat="45.69518" lon="2.94113">
        <ele>1002</ele>
        <time>2012-09-15T10:25:09Z</time>
      </trkpt>
      <trkpt lat="45.69533" lon="2.94117">
        <ele>1002</ele>
        <time>2012-09-15T10:25:14Z</time>
      </trkpt>
      <trkpt lat="45.6954" lon="2.94115">
        <ele>1002</ele>
        <time>2012-09-15T10:25:19Z</time>
      </trkpt>
      <trkpt lat="45.69554" lon="2.94116">
        <ele>1002</ele>
        <time>2012-09-15T10:25:24Z</time>
      </trkpt>
      <trkpt lat="45.69574" lon="2.94118">
        <ele>1002</ele>
        <time>2012-09-15T10:25:29Z</time>
      </trkpt>
      <trkpt lat="45.69598" lon="2.94124">
        <ele>1001</ele>
        <time>2012-09-15T10:25:34Z</time>
      </trkpt>
      <trkpt lat="45.69614" lon="2.94128">
        <ele>1000</ele>
        <time>2012-09-15T10:25:39Z</time>
      </trkpt>
      <trkpt lat="45.69632" lon="2.94134">
        <ele>1000</ele>
        <time>2012-09-15T10:25:44Z</time>
      </trkpt>
      <trkpt lat="45.69651" lon="2.94134">
        <ele>1002</ele>
        <time>2012-09-15T10:25:49Z</time>
      </trkpt>
      <trkpt lat="45.69669" lon="2.94138">
        <ele>1005</ele>
        <time>2012-09-15T10:25:54Z</time>
      </trkpt>
      <trkpt lat="45.69693" lon="2.9414">
        <ele>1006</ele>
        <time>2012-09-15T10:25:59Z</time>
      </trkpt>
      <trkpt lat="45.69713" lon="2.94142">
        <ele>1008</ele>
        <time>2012-09-15T10:26:04Z</time>
      </trkpt>
      <trkpt lat="45.69732" lon="2.94142">
        <ele>1009</ele>
        <time>2012-09-15T10:26:09Z</time>
      </trkpt>
      <trkpt lat="45.69753" lon="2.94138">
        <ele>1009</ele>
        <time>2012-09-15T10:26:14Z</time>
      </trkpt>
      <trkpt lat="45.69765" lon="2.94129">
        <ele>1009</ele>
        <time>2012-09-15T10:26:19Z</time>
      </trkpt>
      <trkpt lat="45.69775" lon="2.94126">
        <ele>1009</ele>
        <time>2012-09-15T10:26:24Z</time>
      </trkpt>
      <trkpt lat="45.69783" lon="2.94126">
        <ele>1011</ele>
        <time>2012-09-15T10:26:29Z</time>
      </trkpt>
      <trkpt lat="45.69792" lon="2.94118">
        <ele>1016</ele>
        <time>2012-09-15T10:26:34Z</time>
      </trkpt>
      <trkpt lat="45.69799" lon="2.94114">
        <ele>1019</ele>
        <time>2012-09-15T10:26:39Z</time>
      </trkpt>
      <trkpt lat="45.69809" lon="2.94112">
        <ele>1019</ele>
        <time>2012-09-15T10:26:44Z</time>
      </trkpt>
      <trkpt lat="45.69819" lon="2.94107">
        <ele>1021</ele>
        <time>2012-09-15T10:26:49Z</time>
      </trkpt>
      <trkpt lat="45.69826" lon="2.94105">
        <ele>1026</ele>
        <time>2012-09-15T10:26:54Z</time>
      </trkpt>
      <trkpt lat="45.69839" lon="2.94106">
        <ele>1029</ele>
        <time>2012-09-15T10:26:59Z</time>
      </trkpt>
      <trkpt lat="45.69852" lon="2.94106">
        <ele>1030</ele>
        <time>2012-09-15T10:27:04Z</time>
      </trkpt>
      <trkpt lat="45.69868" lon="2.94103">
        <ele>1030</ele>
        <time>2012-09-15T10:27:09Z</time>
      </trkpt>
      <trkpt lat="45.6988" lon="2.94103">
        <ele>1030</ele>
        <time>2012-09-15T10:27:14Z</time>
      </trkpt>
      <trkpt lat="45.69893" lon="2.94103">
        <ele>1030</ele>
        <time>2012-09-15T10:27:19Z</time>
      </trkpt>
      <trkpt lat="45.69906" lon="2.94104">
        <ele>1030</ele>
        <time>2012-09-15T10:27:24Z</time>
      </trkpt>
      <trkpt lat="45.6992" lon="2.94105">
        <ele>1030</ele>
        <time>2012-09-15T10:27:29Z</time>
      </trkpt>
      <trkpt lat="45.69932" lon="2.94105">
        <ele>1030</ele>
        <time>2012-09-15T10:27:34Z</time>
      </trkpt>
      <trkpt lat="45.69947" lon="2.94103">
        <ele>1031</ele>
        <time>2012-09-15T10:27:39Z</time>
      </trkpt>
      <trkpt lat="45.69961" lon="2.94101">
        <ele>1032</ele>
        <time>2012-09-15T10:27:44Z</time>
      </trkpt>
      <trkpt lat="45.69979" lon="2.94098">
        <ele>1032</ele>
        <time>2012-09-15T10:27:49Z</time>
      </trkpt>
      <trkpt lat="45.69994" lon="2.94098">
        <ele>1035</ele>
        <time>2012-09-15T10:27:54Z</time>
      </trkpt>
      <trkpt lat="45.70012" lon="2.94096">
        <ele>1036</ele>
        <time>2012-09-15T10:27:59Z</time>
      </trkpt>
      <trkpt lat="45.70029" lon="2.9409">
        <ele>1036</ele>
        <time>2012-09-15T10:28:04Z</time>
      </trkpt>
      <trkpt lat="45.70047" lon="2.94084">
        <ele>1036</ele>
        <time>2012-09-15T10:28:09Z</time>
      </trkpt>
      <trkpt lat="45.70065" lon="2.94078">
        <ele>1036</ele>
        <time>2012-09-15T10:28:14Z</time>
      </trkpt>
      <trkpt lat="45.70084" lon="2.94063">
        <ele>1036</ele>
        <time>2012-09-15T10:28:19Z</time>
      </trkpt>
      <trkpt lat="45.701" lon="2.9405">
        <ele>1036</ele>
        <time>2012-09-15T10:28:24Z</time>
      </trkpt>
      <trkpt lat="45.70119" lon="2.94037">
        <ele>1034</ele>
        <time>2012-09-15T10:28:29Z</time>
      </trkpt>
      <trkpt lat="45.7014" lon="2.94021">
        <ele>1035</ele>
        <time>2012-09-15T10:28:34Z</time>
      </trkpt>
      <trkpt lat="45.70152" lon="2.94003">
        <ele>1039</ele>
        <time>2012-09-15T10:28:39Z</time>
      </trkpt>
      <trkpt lat="45.70166" lon="2.93987">
        <ele>1042</ele>
        <time>2012-09-15T10:28:44Z</time>
      </trkpt>
      <trkpt lat="45.70182" lon="2.93962">
        <ele>1043</ele>
        <time>2012-09-15T10:28:49Z</time>
      </trkpt>
      <trkpt lat="45.70202" lon="2.93938">
        <ele>1044</ele>
        <time>2012-09-15T10:28:54Z</time>
      </trkpt>
      <trkpt lat="45.70211" lon="2.93914">
        <ele>1045</ele>
        <time>2012-09-15T10:28:59Z</time>
      </trkpt>
      <trkpt lat="45.7022" lon="2.93892">
        <ele>1045</ele>
        <time>2012-09-15T10:29:04Z</time>
      </trkpt>
      <trkpt lat="45.70229" lon="2.93869">
        <ele>1045</ele>
        <time>2012-09-15T10:29:09Z</time>
      </trkpt>
      <trkpt lat="45.70238" lon="2.93852">
        <ele>1045</ele>
        <time>2012-09-15T10:29:14Z</time>
      </trkpt>
      <trkpt lat="45.70248" lon="2.93843">
        <ele>1045</ele>
        <time>2012-09-15T10:29:19Z</time>
      </trkpt>
      <trkpt lat="45.70258" lon="2.93833">
        <ele>1045</ele>
        <time>2012-09-15T10:29:24Z</time>
      </trkpt>
      <trkpt lat="45.70267" lon="2.93822">
        <ele>1045</ele>
        <time>2012-09-15T10:29:29Z</time>
      </trkpt>
      <trkpt lat="45.70283" lon="2.93816">
        <ele>1045</ele>
        <time>2012-09-15T10:29:34Z</time>
      </trkpt>
      <trkpt lat="45.703" lon="2.93816">
        <ele>1045</ele>
        <time>2012-09-15T10:29:39Z</time>
      </trkpt>
      <trkpt lat="45.70319" lon="2.93815">
        <ele>1045</ele>
        <time>2012-09-15T10:29:44Z</time>
      </trkpt>
      <trkpt lat="45.70341" lon="2.93815">
        <ele>1045</ele>
        <time>2012-09-15T10:29:49Z</time>
      </trkpt>
      <trkpt lat="45.70356" lon="2.93817">
        <ele>1045</ele>
        <time>2012-09-15T10:29:54Z</time>
      </trkpt>
      <trkpt lat="45.70376" lon="2.93816">
        <ele>1045</ele>
        <time>2012-09-15T10:29:59Z</time>
      </trkpt>
      <trkpt lat="45.70394" lon="2.93819">
        <ele>1047</ele>
        <time>2012-09-15T10:30:04Z</time>
      </trkpt>
      <trkpt lat="45.70407" lon="2.93822">
        <ele>1048</ele>
        <time>2012-09-15T10:30:09Z</time>
      </trkpt>
      <trkpt lat="45.7042" lon="2.93825">
        <ele>1049</ele>
        <time>2012-09-15T10:30:14Z</time>
      </trkpt>
      <trkpt lat="45.7044" lon="2.93829">
        <ele>1049</ele>
        <time>2012-09-15T10:30:19Z</time>
      </trkpt>
      <trkpt lat="45.7046" lon="2.93833">
        <ele>1049</ele>
        <time>2012-09-15T10:30:24Z</time>
      </trkpt>
      <trkpt lat="45.70478" lon="2.93833">
        <ele>1048</ele>
        <time>2012-09-15T10:30:29Z</time>
      </trkpt>
      <trkpt lat="45.70501" lon="2.93829">
        <ele>1046</ele>
        <time>2012-09-15T10:30:34Z</time>
      </trkpt>
      <trkpt lat="45.70523" lon="2.93823">
        <ele>1045</ele>
        <time>2012-09-15T10:30:39Z</time>
      </trkpt>
      <trkpt lat="45.70542" lon="2.93825">
        <ele>1045</ele>
        <time>2012-09-15T10:30:44Z</time>
      </trkpt>
      <trkpt lat="45.70564" lon="2.93827">
        <ele>1045</ele>
        <time>2012-09-15T10:30:49Z</time>
      </trkpt>
      <trkpt lat="45.70584" lon="2.93828">
        <ele>1045</ele>
        <time>2012-09-15T10:30:54Z</time>
      </trkpt>
      <trkpt lat="45.70604" lon="2.9383">
        <ele>1044</ele>
        <time>2012-09-15T10:30:59Z</time>
      </trkpt>
      <trkpt lat="45.70627" lon="2.93833">
        <ele>1044</ele>
        <time>2012-09-15T10:31:04Z</time>
      </trkpt>
      <trkpt lat="45.70648" lon="2.93835">
        <ele>1044</ele>
        <time>2012-09-15T10:31:09Z</time>
      </trkpt>
      <trkpt lat="45.70675" lon="2.93839">
        <ele>1044</ele>
        <time>2012-09-15T10:31:14Z</time>
      </trkpt>
      <trkpt lat="45.70693" lon="2.93815">
        <ele>1043</ele>
        <time>2012-09-15T10:31:19Z</time>
      </trkpt>
      <trkpt lat="45.70685" lon="2.9378">
        <ele>1043</ele>
        <time>2012-09-15T10:31:24Z</time>
      </trkpt>
      <trkpt lat="45.70679" lon="2.93741">
        <ele>1043</ele>
        <time>2012-09-15T10:31:29Z</time>
      </trkpt>
      <trkpt lat="45.7067" lon="2.93696">
        <ele>1043</ele>
        <time>2012-09-15T10:31:34Z</time>
      </trkpt>
      <trkpt lat="45.70657" lon="2.93649">
        <ele>1043</ele>
        <time>2012-09-15T10:31:39Z</time>
      </trkpt>
      <trkpt lat="45.70647" lon="2.93603">
        <ele>1043</ele>
        <time>2012-09-15T10:31:44Z</time>
      </trkpt>
      <trkpt lat="45.70635" lon="2.93562">
        <ele>1044</ele>
        <time>2012-09-15T10:31:49Z</time>
      </trkpt>
      <trkpt lat="45.70626" lon="2.93525">
        <ele>1045</ele>
        <time>2012-09-15T10:31:54Z</time>
      </trkpt>
      <trkpt lat="45.70617" lon="2.93489">
        <ele>1046</ele>
        <time>2012-09-15T10:31:59Z</time>
      </trkpt>
      <trkpt lat="45.7061" lon="2.93457">
        <ele>1047</ele>
        <time>2012-09-15T10:32:04Z</time>
      </trkpt>
      <trkpt lat="45.70606" lon="2.93431">
        <ele>1049</ele>
        <time>2012-09-15T10:32:09Z</time>
      </trkpt>
      <trkpt lat="45.70607" lon="2.93429">
        <ele>1050</ele>
        <time>2012-09-15T10:32:14Z</time>
      </trkpt>
      <trkpt lat="45.70607" lon="2.9343">
        <ele>1051</ele>
        <time>2012-09-15T10:32:24Z</time>
      </trkpt>
      <trkpt lat="45.70606" lon="2.93432">
        <ele>1051</ele>
        <time>2012-09-15T10:32:43Z</time>
      </trkpt>
      <trkpt lat="45.70603" lon="2.93431">
        <ele>1051</ele>
        <time>2012-09-15T10:32:49Z</time>
      </trkpt>
      <trkpt lat="45.70598" lon="2.93419">
        <ele>1051</ele>
        <time>2012-09-15T10:32:54Z</time>
      </trkpt>
      <trkpt lat="45.70588" lon="2.93391">
        <ele>1051</ele>
        <time>2012-09-15T10:32:59Z</time>
      </trkpt>
      <trkpt lat="45.70577" lon="2.93357">
        <ele>1051</ele>
        <time>2012-09-15T10:33:04Z</time>
      </trkpt>
      <trkpt lat="45.70564" lon="2.93318">
        <ele>1051</ele>
        <time>2012-09-15T10:33:09Z</time>
      </trkpt>
      <trkpt lat="45.70553" lon="2.93277">
        <ele>1051</ele>
        <time>2012-09-15T10:33:14Z</time>
      </trkpt>
      <trkpt lat="45.70546" lon="2.93237">
        <ele>1051</ele>
        <time>2012-09-15T10:33:19Z</time>
      </trkpt>
      <trkpt lat="45.70542" lon="2.93198">
        <ele>1051</ele>
        <time>2012-09-15T10:33:24Z</time>
      </trkpt>
      <trkpt lat="45.7054" lon="2.93152">
        <ele>1051</ele>
        <time>2012-09-15T10:33:29Z</time>
      </trkpt>
      <trkpt lat="45.70537" lon="2.93108">
        <ele>1051</ele>
        <time>2012-09-15T10:33:34Z</time>
      </trkpt>
      <trkpt lat="45.70533" lon="2.93067">
        <ele>1051</ele>
        <time>2012-09-15T10:33:39Z</time>
      </trkpt>
      <trkpt lat="45.70533" lon="2.93025">
        <ele>1051</ele>
        <time>2012-09-15T10:33:44Z</time>
      </trkpt>
      <trkpt lat="45.70536" lon="2.92979">
        <ele>1050</ele>
        <time>2012-09-15T10:33:49Z</time>
      </trkpt>
      <trkpt lat="45.70535" lon="2.9293">
        <ele>1048</ele>
        <time>2012-09-15T10:33:54Z</time>
      </trkpt>
      <trkpt lat="45.70523" lon="2.92884">
        <ele>1047</ele>
        <time>2012-09-15T10:33:59Z</time>
      </trkpt>
      <trkpt lat="45.70515" lon="2.92841">
        <ele>1047</ele>
        <time>2012-09-15T10:34:04Z</time>
      </trkpt>
      <trkpt lat="45.70508" lon="2.92795">
        <ele>1045</ele>
        <time>2012-09-15T10:34:09Z</time>
      </trkpt>
      <trkpt lat="45.705" lon="2.92745">
        <ele>1044</ele>
        <time>2012-09-15T10:34:14Z</time>
      </trkpt>
      <trkpt lat="45.70494" lon="2.92697">
        <ele>1043</ele>
        <time>2012-09-15T10:34:19Z</time>
      </trkpt>
      <trkpt lat="45.7049" lon="2.92649">
        <ele>1042</ele>
        <time>2012-09-15T10:34:24Z</time>
      </trkpt>
      <trkpt lat="45.7049" lon="2.92593">
        <ele>1039</ele>
        <time>2012-09-15T10:34:29Z</time>
      </trkpt>
      <trkpt lat="45.70489" lon="2.92531">
        <ele>1036</ele>
        <time>2012-09-15T10:34:34Z</time>
      </trkpt>
      <trkpt lat="45.70504" lon="2.92467">
        <ele>1032</ele>
        <time>2012-09-15T10:34:39Z</time>
      </trkpt>
      <trkpt lat="45.705" lon="2.92385">
        <ele>1026</ele>
        <time>2012-09-15T10:34:45Z</time>
      </trkpt>
      <trkpt lat="45.70496" lon="2.92313">
        <ele>1022</ele>
        <time>2012-09-15T10:34:50Z</time>
      </trkpt>
      <trkpt lat="45.70496" lon="2.92239">
        <ele>1018</ele>
        <time>2012-09-15T10:34:55Z</time>
      </trkpt>
      <trkpt lat="45.70495" lon="2.9217">
        <ele>1017</ele>
        <time>2012-09-15T10:35:00Z</time>
      </trkpt>
      <trkpt lat="45.70498" lon="2.92104">
        <ele>1015</ele>
        <time>2012-09-15T10:35:05Z</time>
      </trkpt>
      <trkpt lat="45.70494" lon="2.92036">
        <ele>1011</ele>
        <time>2012-09-15T10:35:10Z</time>
      </trkpt>
      <trkpt lat="45.70471" lon="2.91952">
        <ele>1006</ele>
        <time>2012-09-15T10:35:16Z</time>
      </trkpt>
      <trkpt lat="45.70444" lon="2.91865">
        <ele>1001</ele>
        <time>2012-09-15T10:35:21Z</time>
      </trkpt>
      <trkpt lat="45.70418" lon="2.91779">
        <ele>996</ele>
        <time>2012-09-15T10:35:26Z</time>
      </trkpt>
      <trkpt lat="45.70403" lon="2.91741">
        <ele>991</ele>
        <time>2012-09-15T10:35:31Z</time>
      </trkpt>
      <trkpt lat="45.70389" lon="2.91764">
        <ele>986</ele>
        <time>2012-09-15T10:35:36Z</time>
      </trkpt>
      <trkpt lat="45.70368" lon="2.91792">
        <ele>983</ele>
        <time>2012-09-15T10:35:41Z</time>
      </trkpt>
      <trkpt lat="45.7036" lon="2.91768">
        <ele>980</ele>
        <time>2012-09-15T10:35:46Z</time>
      </trkpt>
      <trkpt lat="45.70357" lon="2.91756">
        <ele>977</ele>
        <time>2012-09-15T10:35:52Z</time>
      </trkpt>
      <trkpt lat="45.70358" lon="2.91746">
        <ele>975</ele>
        <time>2012-09-15T10:35:57Z</time>
      </trkpt>
      <trkpt lat="45.70358" lon="2.91734">
        <ele>972</ele>
        <time>2012-09-15T10:36:02Z</time>
      </trkpt>
      <trkpt lat="45.70358" lon="2.91724">
        <ele>969</ele>
        <time>2012-09-15T10:36:07Z</time>
      </trkpt>
      <trkpt lat="45.70357" lon="2.91702">
        <ele>966</ele>
        <time>2012-09-15T10:36:12Z</time>
      </trkpt>
      <trkpt lat="45.70359" lon="2.91671">
        <ele>962</ele>
        <time>2012-09-15T10:36:17Z</time>
      </trkpt>
      <trkpt lat="45.7037" lon="2.91637">
        <ele>959</ele>
        <time>2012-09-15T10:36:22Z</time>
      </trkpt>
      <trkpt lat="45.70377" lon="2.91597">
        <ele>957</ele>
        <time>2012-09-15T10:36:27Z</time>
      </trkpt>
      <trkpt lat="45.70401" lon="2.91562">
        <ele>956</ele>
        <time>2012-09-15T10:36:32Z</time>
      </trkpt>
      <trkpt lat="45.70435" lon="2.91533">
        <ele>953</ele>
        <time>2012-09-15T10:36:37Z</time>
      </trkpt>
      <trkpt lat="45.70472" lon="2.91498">
        <ele>951</ele>
        <time>2012-09-15T10:36:42Z</time>
      </trkpt>
      <trkpt lat="45.70499" lon="2.91456">
        <ele>949</ele>
        <time>2012-09-15T10:36:47Z</time>
      </trkpt>
      <trkpt lat="45.70528" lon="2.91409">
        <ele>945</ele>
        <time>2012-09-15T10:36:52Z</time>
      </trkpt>
      <trkpt lat="45.7056" lon="2.91371">
        <ele>943</ele>
        <time>2012-09-15T10:36:57Z</time>
      </trkpt>
      <trkpt lat="45.70596" lon="2.91344">
        <ele>942</ele>
        <time>2012-09-15T10:37:02Z</time>
      </trkpt>
      <trkpt lat="45.70622" lon="2.91338">
        <ele>942</ele>
        <time>2012-09-15T10:37:07Z</time>
      </trkpt>
      <trkpt lat="45.70648" lon="2.91335">
        <ele>942</ele>
        <time>2012-09-15T10:37:12Z</time>
      </trkpt>
      <trkpt lat="45.70679" lon="2.91328">
        <ele>939</ele>
        <time>2012-09-15T10:37:17Z</time>
      </trkpt>
      <trkpt lat="45.70698" lon="2.91319">
        <ele>938</ele>
        <time>2012-09-15T10:37:22Z</time>
      </trkpt>
      <trkpt lat="45.7071" lon="2.91322">
        <ele>937</ele>
        <time>2012-09-15T10:37:27Z</time>
      </trkpt>
      <trkpt lat="45.70723" lon="2.91323">
        <ele>937</ele>
        <time>2012-09-15T10:37:32Z</time>
      </trkpt>
      <trkpt lat="45.70739" lon="2.91324">
        <ele>937</ele>
        <time>2012-09-15T10:37:37Z</time>
      </trkpt>
      <trkpt lat="45.70752" lon="2.91327">
        <ele>937</ele>
        <time>2012-09-15T10:37:43Z</time>
      </trkpt>
      <trkpt lat="45.7075" lon="2.9133">
        <ele>941</ele>
        <time>2012-09-15T10:37:48Z</time>
      </trkpt>
      <trkpt lat="45.70747" lon="2.91329">
        <ele>944</ele>
        <time>2012-09-15T10:37:56Z</time>
      </trkpt>
      <trkpt lat="45.70752" lon="2.91328">
        <ele>946</ele>
        <time>2012-09-15T10:38:05Z</time>
      </trkpt>
      <trkpt lat="45.70761" lon="2.91327">
        <ele>947</ele>
        <time>2012-09-15T10:38:10Z</time>
      </trkpt>
      <trkpt lat="45.70775" lon="2.91324">
        <ele>947</ele>
        <time>2012-09-15T10:38:15Z</time>
      </trkpt>
      <trkpt lat="45.70791" lon="2.91312">
        <ele>947</ele>
        <time>2012-09-15T10:38:20Z</time>
      </trkpt>
      <trkpt lat="45.70816" lon="2.91294">
        <ele>947</ele>
        <time>2012-09-15T10:38:25Z</time>
      </trkpt>
      <trkpt lat="45.70834" lon="2.91283">
        <ele>947</ele>
        <time>2012-09-15T10:38:30Z</time>
      </trkpt>
      <trkpt lat="45.70857" lon="2.91284">
        <ele>947</ele>
        <time>2012-09-15T10:38:35Z</time>
      </trkpt>
      <trkpt lat="45.7088" lon="2.91291">
        <ele>950</ele>
        <time>2012-09-15T10:38:40Z</time>
      </trkpt>
      <trkpt lat="45.70906" lon="2.91292">
        <ele>950</ele>
        <time>2012-09-15T10:38:45Z</time>
      </trkpt>
      <trkpt lat="45.70926" lon="2.91288">
        <ele>950</ele>
        <time>2012-09-15T10:38:50Z</time>
      </trkpt>
      <trkpt lat="45.70946" lon="2.9129">
        <ele>950</ele>
        <time>2012-09-15T10:38:55Z</time>
      </trkpt>
      <trkpt lat="45.70955" lon="2.91295">
        <ele>950</ele>
        <time>2012-09-15T10:39:00Z</time>
      </trkpt>
      <trkpt lat="45.70962" lon="2.91299">
        <ele>951</ele>
        <time>2012-09-15T10:39:06Z</time>
      </trkpt>
      <trkpt lat="45.70969" lon="2.91304">
        <ele>956</ele>
        <time>2012-09-15T10:39:11Z</time>
      </trkpt>
      <trkpt lat="45.70976" lon="2.91308">
        <ele>961</ele>
        <time>2012-09-15T10:39:16Z</time>
      </trkpt>
      <trkpt lat="45.70989" lon="2.91313">
        <ele>964</ele>
        <time>2012-09-15T10:39:21Z</time>
      </trkpt>
      <trkpt lat="45.71" lon="2.91321">
        <ele>964</ele>
        <time>2012-09-15T10:39:26Z</time>
      </trkpt>
      <trkpt lat="45.71011" lon="2.9133">
        <ele>964</ele>
        <time>2012-09-15T10:39:31Z</time>
      </trkpt>
      <trkpt lat="45.71021" lon="2.91338">
        <ele>964</ele>
        <time>2012-09-15T10:39:36Z</time>
      </trkpt>
      <trkpt lat="45.71032" lon="2.91347">
        <ele>964</ele>
        <time>2012-09-15T10:39:41Z</time>
      </trkpt>
      <trkpt lat="45.71044" lon="2.91355">
        <ele>964</ele>
        <time>2012-09-15T10:39:46Z</time>
      </trkpt>
      <trkpt lat="45.71056" lon="2.91352">
        <ele>964</ele>
        <time>2012-09-15T10:39:51Z</time>
      </trkpt>
      <trkpt lat="45.7107" lon="2.91349">
        <ele>964</ele>
        <time>2012-09-15T10:39:56Z</time>
      </trkpt>
      <trkpt lat="45.71087" lon="2.91354">
        <ele>964</ele>
        <time>2012-09-15T10:40:01Z</time>
      </trkpt>
      <trkpt lat="45.711" lon="2.9137">
        <ele>964</ele>
        <time>2012-09-15T10:40:06Z</time>
      </trkpt>
      <trkpt lat="45.71112" lon="2.91389">
        <ele>964</ele>
        <time>2012-09-15T10:40:11Z</time>
      </trkpt>
      <trkpt lat="45.71122" lon="2.9141">
        <ele>964</ele>
        <time>2012-09-15T10:40:16Z</time>
      </trkpt>
      <trkpt lat="45.71134" lon="2.91438">
        <ele>964</ele>
        <time>2012-09-15T10:40:21Z</time>
      </trkpt>
      <trkpt lat="45.7115" lon="2.91464">
        <ele>964</ele>
        <time>2012-09-15T10:40:26Z</time>
      </trkpt>
      <trkpt lat="45.71169" lon="2.91484">
        <ele>964</ele>
        <time>2012-09-15T10:40:31Z</time>
      </trkpt>
      <trkpt lat="45.71185" lon="2.91497">
        <ele>964</ele>
        <time>2012-09-15T10:40:36Z</time>
      </trkpt>
      <trkpt lat="45.712" lon="2.91513">
        <ele>964</ele>
        <time>2012-09-15T10:40:41Z</time>
      </trkpt>
      <trkpt lat="45.71214" lon="2.91527">
        <ele>964</ele>
        <time>2012-09-15T10:40:46Z</time>
      </trkpt>
      <trkpt lat="45.71232" lon="2.91539">
        <ele>965</ele>
        <time>2012-09-15T10:40:51Z</time>
      </trkpt>
      <trkpt lat="45.71252" lon="2.91549">
        <ele>965</ele>
        <time>2012-09-15T10:40:56Z</time>
      </trkpt>
      <trkpt lat="45.71275" lon="2.91559">
        <ele>965</ele>
        <time>2012-09-15T10:41:01Z</time>
      </trkpt>
      <trkpt lat="45.71299" lon="2.91571">
        <ele>965</ele>
        <time>2012-09-15T10:41:06Z</time>
      </trkpt>
      <trkpt lat="45.71323" lon="2.91577">
        <ele>965</ele>
        <time>2012-09-15T10:41:11Z</time>
      </trkpt>
      <trkpt lat="45.71351" lon="2.91583">
        <ele>964</ele>
        <time>2012-09-15T10:41:16Z</time>
      </trkpt>
      <trkpt lat="45.71388" lon="2.9159">
        <ele>961</ele>
        <time>2012-09-15T10:41:21Z</time>
      </trkpt>
      <trkpt lat="45.71431" lon="2.91582">
        <ele>958</ele>
        <time>2012-09-15T10:41:26Z</time>
      </trkpt>
      <trkpt lat="45.71469" lon="2.91596">
        <ele>957</ele>
        <time>2012-09-15T10:41:31Z</time>
      </trkpt>
      <trkpt lat="45.71497" lon="2.91576">
        <ele>955</ele>
        <time>2012-09-15T10:41:36Z</time>
      </trkpt>
      <trkpt lat="45.71494" lon="2.91524">
        <ele>954</ele>
        <time>2012-09-15T10:41:41Z</time>
      </trkpt>
      <trkpt lat="45.71497" lon="2.91467">
        <ele>952</ele>
        <time>2012-09-15T10:41:46Z</time>
      </trkpt>
      <trkpt lat="45.71501" lon="2.91399">
        <ele>948</ele>
        <time>2012-09-15T10:41:51Z</time>
      </trkpt>
      <trkpt lat="45.71506" lon="2.91329">
        <ele>944</ele>
        <time>2012-09-15T10:41:56Z</time>
      </trkpt>
      <trkpt lat="45.7151" lon="2.9126">
        <ele>941</ele>
        <time>2012-09-15T10:42:01Z</time>
      </trkpt>
      <trkpt lat="45.71515" lon="2.91193">
        <ele>939</ele>
        <time>2012-09-15T10:42:06Z</time>
      </trkpt>
      <trkpt lat="45.71511" lon="2.911">
        <ele>934</ele>
        <time>2012-09-15T10:42:12Z</time>
      </trkpt>
      <trkpt lat="45.71499" lon="2.91">
        <ele>928</ele>
        <time>2012-09-15T10:42:18Z</time>
      </trkpt>
      <trkpt lat="45.71498" lon="2.90911">
        <ele>923</ele>
        <time>2012-09-15T10:42:23Z</time>
      </trkpt>
      <trkpt lat="45.71503" lon="2.90819">
        <ele>918</ele>
        <time>2012-09-15T10:42:28Z</time>
      </trkpt>
      <trkpt lat="45.71532" lon="2.90722">
        <ele>909</ele>
        <time>2012-09-15T10:42:34Z</time>
      </trkpt>
      <trkpt lat="45.71558" lon="2.90652">
        <ele>903</ele>
        <time>2012-09-15T10:42:39Z</time>
      </trkpt>
      <trkpt lat="45.71578" lon="2.90599">
        <ele>896</ele>
        <time>2012-09-15T10:42:44Z</time>
      </trkpt>
      <trkpt lat="45.7162" lon="2.90583">
        <ele>891</ele>
        <time>2012-09-15T10:42:49Z</time>
      </trkpt>
      <trkpt lat="45.71644" lon="2.90578">
        <ele>888</ele>
        <time>2012-09-15T10:42:54Z</time>
      </trkpt>
      <trkpt lat="45.71641" lon="2.90556">
        <ele>888</ele>
        <time>2012-09-15T10:42:59Z</time>
      </trkpt>
      <trkpt lat="45.71637" lon="2.90528">
        <ele>888</ele>
        <time>2012-09-15T10:43:04Z</time>
      </trkpt>
      <trkpt lat="45.71633" lon="2.90502">
        <ele>888</ele>
        <time>2012-09-15T10:43:09Z</time>
      </trkpt>
      <trkpt lat="45.71625" lon="2.90473">
        <ele>888</ele>
        <time>2012-09-15T10:43:14Z</time>
      </trkpt>
      <trkpt lat="45.71615" lon="2.90436">
        <ele>887</ele>
        <time>2012-09-15T10:43:19Z</time>
      </trkpt>
      <trkpt lat="45.71623" lon="2.90413">
        <ele>886</ele>
        <time>2012-09-15T10:43:24Z</time>
      </trkpt>
      <trkpt lat="45.71648" lon="2.90393">
        <ele>883</ele>
        <time>2012-09-15T10:43:29Z</time>
      </trkpt>
      <trkpt lat="45.71686" lon="2.90365">
        <ele>878</ele>
        <time>2012-09-15T10:43:34Z</time>
      </trkpt>
      <trkpt lat="45.71724" lon="2.90334">
        <ele>877</ele>
        <time>2012-09-15T10:43:39Z</time>
      </trkpt>
      <trkpt lat="45.71762" lon="2.90304">
        <ele>877</ele>
        <time>2012-09-15T10:43:44Z</time>
      </trkpt>
      <trkpt lat="45.71793" lon="2.90274">
        <ele>877</ele>
        <time>2012-09-15T10:43:49Z</time>
      </trkpt>
      <trkpt lat="45.71814" lon="2.90264">
        <ele>877</ele>
        <time>2012-09-15T10:43:54Z</time>
      </trkpt>
      <trkpt lat="45.71822" lon="2.90287">
        <ele>876</ele>
        <time>2012-09-15T10:43:59Z</time>
      </trkpt>
      <trkpt lat="45.71823" lon="2.90311">
        <ele>876</ele>
        <time>2012-09-15T10:44:04Z</time>
      </trkpt>
      <trkpt lat="45.71823" lon="2.90325">
        <ele>876</ele>
        <time>2012-09-15T10:44:10Z</time>
      </trkpt>
      <trkpt lat="45.71812" lon="2.90263">
        <ele>876</ele>
        <time>2012-09-15T10:44:15Z</time>
      </trkpt>
      <trkpt lat="45.71814" lon="2.90251">
        <ele>876</ele>
        <time>2012-09-15T10:44:20Z</time>
      </trkpt>
      <trkpt lat="45.71821" lon="2.90238">
        <ele>876</ele>
        <time>2012-09-15T10:44:25Z</time>
      </trkpt>
      <trkpt lat="45.71832" lon="2.90224">
        <ele>876</ele>
        <time>2012-09-15T10:44:30Z</time>
      </trkpt>
      <trkpt lat="45.71843" lon="2.90209">
        <ele>876</ele>
        <time>2012-09-15T10:44:35Z</time>
      </trkpt>
      <trkpt lat="45.71861" lon="2.902">
        <ele>876</ele>
        <time>2012-09-15T10:44:40Z</time>
      </trkpt>
      <trkpt lat="45.71881" lon="2.90192">
        <ele>876</ele>
        <time>2012-09-15T10:44:45Z</time>
      </trkpt>
      <trkpt lat="45.71896" lon="2.90183">
        <ele>876</ele>
        <time>2012-09-15T10:44:50Z</time>
      </trkpt>
      <trkpt lat="45.71898" lon="2.90181">
        <ele>876</ele>
        <time>2012-09-15T10:44:59Z</time>
      </trkpt>
      <trkpt lat="45.71898" lon="2.90183">
        <ele>876</ele>
        <time>2012-09-15T10:45:04Z</time>
      </trkpt>
      <trkpt lat="45.71899" lon="2.90183">
        <ele>876</ele>
        <time>2012-09-15T10:45:13Z</time>
      </trkpt>
      <trkpt lat="45.71905" lon="2.9018">
        <ele>876</ele>
        <time>2012-09-15T10:45:18Z</time>
      </trkpt>
      <trkpt lat="45.71919" lon="2.9017">
        <ele>876</ele>
        <time>2012-09-15T10:45:23Z</time>
      </trkpt>
      <trkpt lat="45.7194" lon="2.9016">
        <ele>876</ele>
        <time>2012-09-15T10:45:28Z</time>
      </trkpt>
      <trkpt lat="45.71974" lon="2.90143">
        <ele>876</ele>
        <time>2012-09-15T10:45:33Z</time>
      </trkpt>
      <trkpt lat="45.7201" lon="2.90115">
        <ele>876</ele>
        <time>2012-09-15T10:45:38Z</time>
      </trkpt>
      <trkpt lat="45.72035" lon="2.90083">
        <ele>876</ele>
        <time>2012-09-15T10:45:43Z</time>
      </trkpt>
      <trkpt lat="45.7205" lon="2.90085">
        <ele>876</ele>
        <time>2012-09-15T10:45:48Z</time>
      </trkpt>
      <trkpt lat="45.72061" lon="2.90094">
        <ele>876</ele>
        <time>2012-09-15T10:45:53Z</time>
      </trkpt>
      <trkpt lat="45.72071" lon="2.90084">
        <ele>876</ele>
        <time>2012-09-15T10:45:58Z</time>
      </trkpt>
      <trkpt lat="45.72073" lon="2.90059">
        <ele>876</ele>
        <time>2012-09-15T10:46:03Z</time>
      </trkpt>
      <trkpt lat="45.72076" lon="2.90031">
        <ele>876</ele>
        <time>2012-09-15T10:46:08Z</time>
      </trkpt>
      <trkpt lat="45.72078" lon="2.90004">
        <ele>876</ele>
        <time>2012-09-15T10:46:13Z</time>
      </trkpt>
      <trkpt lat="45.72081" lon="2.89981">
        <ele>876</ele>
        <time>2012-09-15T10:46:18Z</time>
      </trkpt>
      <trkpt lat="45.72083" lon="2.89957">
        <ele>876</ele>
        <time>2012-09-15T10:46:23Z</time>
      </trkpt>
      <trkpt lat="45.72086" lon="2.89934">
        <ele>876</ele>
        <time>2012-09-15T10:46:28Z</time>
      </trkpt>
      <trkpt lat="45.72089" lon="2.89913">
        <ele>877</ele>
        <time>2012-09-15T10:46:33Z</time>
      </trkpt>
      <trkpt lat="45.72091" lon="2.8989">
        <ele>878</ele>
        <time>2012-09-15T10:46:38Z</time>
      </trkpt>
      <trkpt lat="45.72081" lon="2.8988">
        <ele>878</ele>
        <time>2012-09-15T10:46:43Z</time>
      </trkpt>
      <trkpt lat="45.7206" lon="2.89891">
        <ele>878</ele>
        <time>2012-09-15T10:46:48Z</time>
      </trkpt>
      <trkpt lat="45.72032" lon="2.89905">
        <ele>878</ele>
        <time>2012-09-15T10:46:53Z</time>
      </trkpt>
      <trkpt lat="45.72" lon="2.8992">
        <ele>878</ele>
        <time>2012-09-15T10:46:58Z</time>
      </trkpt>
      <trkpt lat="45.71968" lon="2.89926">
        <ele>878</ele>
        <time>2012-09-15T10:47:03Z</time>
      </trkpt>
      <trkpt lat="45.71943" lon="2.89932">
        <ele>878</ele>
        <time>2012-09-15T10:47:08Z</time>
      </trkpt>
      <trkpt lat="45.71923" lon="2.89945">
        <ele>878</ele>
        <time>2012-09-15T10:47:13Z</time>
      </trkpt>
      <trkpt lat="45.719" lon="2.89965">
        <ele>878</ele>
        <time>2012-09-15T10:47:18Z</time>
      </trkpt>
      <trkpt lat="45.71878" lon="2.89985">
        <ele>878</ele>
        <time>2012-09-15T10:47:23Z</time>
      </trkpt>
      <trkpt lat="45.71855" lon="2.90009">
        <ele>878</ele>
        <time>2012-09-15T10:47:28Z</time>
      </trkpt>
      <trkpt lat="45.71833" lon="2.90037">
        <ele>878</ele>
        <time>2012-09-15T10:47:33Z</time>
      </trkpt>
      <trkpt lat="45.71807" lon="2.90054">
        <ele>878</ele>
        <time>2012-09-15T10:47:38Z</time>
      </trkpt>
      <trkpt lat="45.71802" lon="2.90036">
        <ele>876</ele>
        <time>2012-09-15T10:47:43Z</time>
      </trkpt>
      <trkpt lat="45.71829" lon="2.9001">
        <ele>876</ele>
        <time>2012-09-15T10:47:48Z</time>
      </trkpt>
      <trkpt lat="45.71853" lon="2.89973">
        <ele>875</ele>
        <time>2012-09-15T10:47:53Z</time>
      </trkpt>
      <trkpt lat="45.71866" lon="2.89935">
        <ele>873</ele>
        <time>2012-09-15T10:47:58Z</time>
      </trkpt>
      <trkpt lat="45.71848" lon="2.89914">
        <ele>872</ele>
        <time>2012-09-15T10:48:04Z</time>
      </trkpt>
      <trkpt lat="45.71833" lon="2.89925">
        <ele>871</ele>
        <time>2012-09-15T10:48:09Z</time>
      </trkpt>
      <trkpt lat="45.71822" lon="2.8994">
        <ele>871</ele>
        <time>2012-09-15T10:48:14Z</time>
      </trkpt>
      <trkpt lat="45.71809" lon="2.89957">
        <ele>871</ele>
        <time>2012-09-15T10:48:19Z</time>
      </trkpt>
      <trkpt lat="45.71796" lon="2.89972">
        <ele>871</ele>
        <time>2012-09-15T10:48:24Z</time>
      </trkpt>
      <trkpt lat="45.71783" lon="2.89972">
        <ele>871</ele>
        <time>2012-09-15T10:48:29Z</time>
      </trkpt>
      <trkpt lat="45.71772" lon="2.89951">
        <ele>871</ele>
        <time>2012-09-15T10:48:34Z</time>
      </trkpt>
      <trkpt lat="45.71763" lon="2.89931">
        <ele>873</ele>
        <time>2012-09-15T10:48:39Z</time>
      </trkpt>
      <trkpt lat="45.7175" lon="2.89916">
        <ele>875</ele>
        <time>2012-09-15T10:48:44Z</time>
      </trkpt>
      <trkpt lat="45.71735" lon="2.89906">
        <ele>876</ele>
        <time>2012-09-15T10:48:49Z</time>
      </trkpt>
      <trkpt lat="45.71723" lon="2.89893">
        <ele>877</ele>
        <time>2012-09-15T10:48:54Z</time>
      </trkpt>
      <trkpt lat="45.71717" lon="2.8987">
        <ele>878</ele>
        <time>2012-09-15T10:48:59Z</time>
      </trkpt>
      <trkpt lat="45.71713" lon="2.89844">
        <ele>879</ele>
        <time>2012-09-15T10:49:04Z</time>
      </trkpt>
      <trkpt lat="45.71708" lon="2.89819">
        <ele>880</ele>
        <time>2012-09-15T10:49:09Z</time>
      </trkpt>
      <trkpt lat="45.71703" lon="2.89791">
        <ele>881</ele>
        <time>2012-09-15T10:49:14Z</time>
      </trkpt>
      <trkpt lat="45.71697" lon="2.89762">
        <ele>881</ele>
        <time>2012-09-15T10:49:19Z</time>
      </trkpt>
      <trkpt lat="45.71695" lon="2.8973">
        <ele>881</ele>
        <time>2012-09-15T10:49:24Z</time>
      </trkpt>
      <trkpt lat="45.717" lon="2.89697">
        <ele>881</ele>
        <time>2012-09-15T10:49:29Z</time>
      </trkpt>
      <trkpt lat="45.71705" lon="2.89662">
        <ele>881</ele>
        <time>2012-09-15T10:49:34Z</time>
      </trkpt>
      <trkpt lat="45.71713" lon="2.89624">
        <ele>881</ele>
        <time>2012-09-15T10:49:39Z</time>
      </trkpt>
      <trkpt lat="45.71725" lon="2.89579">
        <ele>881</ele>
        <time>2012-09-15T10:49:44Z</time>
      </trkpt>
      <trkpt lat="45.71726" lon="2.89518">
        <ele>879</ele>
        <time>2012-09-15T10:49:49Z</time>
      </trkpt>
      <trkpt lat="45.71711" lon="2.89458">
        <ele>875</ele>
        <time>2012-09-15T10:49:54Z</time>
      </trkpt>
      <trkpt lat="45.71669" lon="2.8942">
        <ele>870</ele>
        <time>2012-09-15T10:49:59Z</time>
      </trkpt>
      <trkpt lat="45.71631" lon="2.89378">
        <ele>865</ele>
        <time>2012-09-15T10:50:04Z</time>
      </trkpt>
      <trkpt lat="45.71567" lon="2.89357">
        <ele>859</ele>
        <time>2012-09-15T10:50:10Z</time>
      </trkpt>
      <trkpt lat="45.71518" lon="2.89334">
        <ele>857</ele>
        <time>2012-09-15T10:50:15Z</time>
      </trkpt>
      <trkpt lat="45.71473" lon="2.89313">
        <ele>854</ele>
        <time>2012-09-15T10:50:20Z</time>
      </trkpt>
      <trkpt lat="45.71434" lon="2.89285">
        <ele>851</ele>
        <time>2012-09-15T10:50:25Z</time>
      </trkpt>
      <trkpt lat="45.71404" lon="2.89284">
        <ele>847</ele>
        <time>2012-09-15T10:50:30Z</time>
      </trkpt>
      <trkpt lat="45.7138" lon="2.89305">
        <ele>843</ele>
        <time>2012-09-15T10:50:35Z</time>
      </trkpt>
      <trkpt lat="45.71358" lon="2.89319">
        <ele>841</ele>
        <time>2012-09-15T10:50:40Z</time>
      </trkpt>
      <trkpt lat="45.71338" lon="2.89332">
        <ele>841</ele>
        <time>2012-09-15T10:50:45Z</time>
      </trkpt>
      <trkpt lat="45.7132" lon="2.89348">
        <ele>841</ele>
        <time>2012-09-15T10:50:50Z</time>
      </trkpt>
      <trkpt lat="45.71306" lon="2.89364">
        <ele>841</ele>
        <time>2012-09-15T10:50:55Z</time>
      </trkpt>
      <trkpt lat="45.71289" lon="2.89378">
        <ele>841</ele>
        <time>2012-09-15T10:51:00Z</time>
      </trkpt>
      <trkpt lat="45.71265" lon="2.89397">
        <ele>841</ele>
        <time>2012-09-15T10:51:05Z</time>
      </trkpt>
      <trkpt lat="45.71241" lon="2.89419">
        <ele>841</ele>
        <time>2012-09-15T10:51:10Z</time>
      </trkpt>
      <trkpt lat="45.71222" lon="2.89441">
        <ele>841</ele>
        <time>2012-09-15T10:51:15Z</time>
      </trkpt>
      <trkpt lat="45.71208" lon="2.89462">
        <ele>843</ele>
        <time>2012-09-15T10:51:20Z</time>
      </trkpt>
      <trkpt lat="45.71195" lon="2.8948">
        <ele>844</ele>
        <time>2012-09-15T10:51:25Z</time>
      </trkpt>
      <trkpt lat="45.71179" lon="2.89494">
        <ele>846</ele>
        <time>2012-09-15T10:51:30Z</time>
      </trkpt>
      <trkpt lat="45.71162" lon="2.89506">
        <ele>847</ele>
        <time>2012-09-15T10:51:35Z</time>
      </trkpt>
      <trkpt lat="45.71148" lon="2.89519">
        <ele>848</ele>
        <time>2012-09-15T10:51:40Z</time>
      </trkpt>
      <trkpt lat="45.71134" lon="2.89534">
        <ele>850</ele>
        <time>2012-09-15T10:51:45Z</time>
      </trkpt>
      <trkpt lat="45.7112" lon="2.89553">
        <ele>850</ele>
        <time>2012-09-15T10:51:50Z</time>
      </trkpt>
      <trkpt lat="45.71104" lon="2.89565">
        <ele>850</ele>
        <time>2012-09-15T10:51:55Z</time>
      </trkpt>
      <trkpt lat="45.71083" lon="2.89577">
        <ele>852</ele>
        <time>2012-09-15T10:52:01Z</time>
      </trkpt>
      <trkpt lat="45.71063" lon="2.89582">
        <ele>853</ele>
        <time>2012-09-15T10:52:06Z</time>
      </trkpt>
      <trkpt lat="45.71043" lon="2.8959">
        <ele>854</ele>
        <time>2012-09-15T10:52:11Z</time>
      </trkpt>
      <trkpt lat="45.71022" lon="2.89607">
        <ele>855</ele>
        <time>2012-09-15T10:52:16Z</time>
      </trkpt>
      <trkpt lat="45.71" lon="2.89627">
        <ele>855</ele>
        <time>2012-09-15T10:52:21Z</time>
      </trkpt>
      <trkpt lat="45.70976" lon="2.89643">
        <ele>855</ele>
        <time>2012-09-15T10:52:26Z</time>
      </trkpt>
      <trkpt lat="45.70955" lon="2.89661">
        <ele>855</ele>
        <time>2012-09-15T10:52:31Z</time>
      </trkpt>
      <trkpt lat="45.7094" lon="2.89682">
        <ele>856</ele>
        <time>2012-09-15T10:52:36Z</time>
      </trkpt>
      <trkpt lat="45.7093" lon="2.89699">
        <ele>857</ele>
        <time>2012-09-15T10:52:41Z</time>
      </trkpt>
      <trkpt lat="45.70922" lon="2.89713">
        <ele>857</ele>
        <time>2012-09-15T10:52:46Z</time>
      </trkpt>
      <trkpt lat="45.70912" lon="2.89726">
        <ele>857</ele>
        <time>2012-09-15T10:52:51Z</time>
      </trkpt>
      <trkpt lat="45.70905" lon="2.8974">
        <ele>857</ele>
        <time>2012-09-15T10:52:56Z</time>
      </trkpt>
      <trkpt lat="45.70895" lon="2.89745">
        <ele>857</ele>
        <time>2012-09-15T10:53:01Z</time>
      </trkpt>
      <trkpt lat="45.70872" lon="2.89734">
        <ele>857</ele>
        <time>2012-09-15T10:53:06Z</time>
      </trkpt>
      <trkpt lat="45.70843" lon="2.89727">
        <ele>857</ele>
        <time>2012-09-15T10:53:11Z</time>
      </trkpt>
      <trkpt lat="45.70816" lon="2.89716">
        <ele>857</ele>
        <time>2012-09-15T10:53:16Z</time>
      </trkpt>
      <trkpt lat="45.70789" lon="2.89696">
        <ele>856</ele>
        <time>2012-09-15T10:53:21Z</time>
      </trkpt>
      <trkpt lat="45.70756" lon="2.89677">
        <ele>856</ele>
        <time>2012-09-15T10:53:26Z</time>
      </trkpt>
      <trkpt lat="45.70726" lon="2.89672">
        <ele>856</ele>
        <time>2012-09-15T10:53:31Z</time>
      </trkpt>
      <trkpt lat="45.70698" lon="2.89674">
        <ele>856</ele>
        <time>2012-09-15T10:53:36Z</time>
      </trkpt>
      <trkpt lat="45.70671" lon="2.89677">
        <ele>856</ele>
        <time>2012-09-15T10:53:41Z</time>
      </trkpt>
      <trkpt lat="45.7065" lon="2.89669">
        <ele>856</ele>
        <time>2012-09-15T10:53:46Z</time>
      </trkpt>
      <trkpt lat="45.70631" lon="2.89647">
        <ele>857</ele>
        <time>2012-09-15T10:53:51Z</time>
      </trkpt>
      <trkpt lat="45.70625" lon="2.89622">
        <ele>859</ele>
        <time>2012-09-15T10:53:56Z</time>
      </trkpt>
      <trkpt lat="45.70625" lon="2.89606">
        <ele>861</ele>
        <time>2012-09-15T10:54:01Z</time>
      </trkpt>
      <trkpt lat="45.70626" lon="2.89591">
        <ele>862</ele>
        <time>2012-09-15T10:54:06Z</time>
      </trkpt>
      <trkpt lat="45.70629" lon="2.89578">
        <ele>863</ele>
        <time>2012-09-15T10:54:11Z</time>
      </trkpt>
      <trkpt lat="45.70633" lon="2.89565">
        <ele>865</ele>
        <time>2012-09-15T10:54:16Z</time>
      </trkpt>
      <trkpt lat="45.70636" lon="2.89553">
        <ele>866</ele>
        <time>2012-09-15T10:54:21Z</time>
      </trkpt>
      <trkpt lat="45.70641" lon="2.8954">
        <ele>867</ele>
        <time>2012-09-15T10:54:26Z</time>
      </trkpt>
      <trkpt lat="45.70644" lon="2.89529">
        <ele>868</ele>
        <time>2012-09-15T10:54:31Z</time>
      </trkpt>
      <trkpt lat="45.70647" lon="2.89518">
        <ele>869</ele>
        <time>2012-09-15T10:54:36Z</time>
      </trkpt>
      <trkpt lat="45.7065" lon="2.89509">
        <ele>870</ele>
        <time>2012-09-15T10:54:41Z</time>
      </trkpt>
      <trkpt lat="45.70653" lon="2.89498">
        <ele>872</ele>
        <time>2012-09-15T10:54:46Z</time>
      </trkpt>
      <trkpt lat="45.70657" lon="2.89488">
        <ele>875</ele>
        <time>2012-09-15T10:54:51Z</time>
      </trkpt>
      <trkpt lat="45.70657" lon="2.89478">
        <ele>877</ele>
        <time>2012-09-15T10:54:56Z</time>
      </trkpt>
      <trkpt lat="45.7065" lon="2.89472">
        <ele>879</ele>
        <time>2012-09-15T10:55:01Z</time>
      </trkpt>
      <trkpt lat="45.70641" lon="2.89474">
        <ele>880</ele>
        <time>2012-09-15T10:55:06Z</time>
      </trkpt>
      <trkpt lat="45.70633" lon="2.89476">
        <ele>880</ele>
        <time>2012-09-15T10:55:11Z</time>
      </trkpt>
      <trkpt lat="45.70624" lon="2.89478">
        <ele>880</ele>
        <time>2012-09-15T10:55:16Z</time>
      </trkpt>
      <trkpt lat="45.70617" lon="2.8948">
        <ele>882</ele>
        <time>2012-09-15T10:55:21Z</time>
      </trkpt>
      <trkpt lat="45.70608" lon="2.89482">
        <ele>883</ele>
        <time>2012-09-15T10:55:26Z</time>
      </trkpt>
      <trkpt lat="45.70599" lon="2.89485">
        <ele>883</ele>
        <time>2012-09-15T10:55:31Z</time>
      </trkpt>
      <trkpt lat="45.70589" lon="2.89488">
        <ele>883</ele>
        <time>2012-09-15T10:55:36Z</time>
      </trkpt>
      <trkpt lat="45.7058" lon="2.89485">
        <ele>885</ele>
        <time>2012-09-15T10:55:41Z</time>
      </trkpt>
      <trkpt lat="45.70582" lon="2.89473">
        <ele>886</ele>
        <time>2012-09-15T10:55:46Z</time>
      </trkpt>
      <trkpt lat="45.70592" lon="2.89467">
        <ele>888</ele>
        <time>2012-09-15T10:55:51Z</time>
      </trkpt>
      <trkpt lat="45.70601" lon="2.8946">
        <ele>891</ele>
        <time>2012-09-15T10:55:56Z</time>
      </trkpt>
      <trkpt lat="45.70612" lon="2.89452">
        <ele>892</ele>
        <time>2012-09-15T10:56:01Z</time>
      </trkpt>
      <trkpt lat="45.70623" lon="2.89442">
        <ele>893</ele>
        <time>2012-09-15T10:56:06Z</time>
      </trkpt>
      <trkpt lat="45.70635" lon="2.89432">
        <ele>893</ele>
        <time>2012-09-15T10:56:11Z</time>
      </trkpt>
      <trkpt lat="45.70646" lon="2.89423">
        <ele>895</ele>
        <time>2012-09-15T10:56:16Z</time>
      </trkpt>
      <trkpt lat="45.70656" lon="2.89414">
        <ele>896</ele>
        <time>2012-09-15T10:56:21Z</time>
      </trkpt>
      <trkpt lat="45.70666" lon="2.89406">
        <ele>897</ele>
        <time>2012-09-15T10:56:26Z</time>
      </trkpt>
      <trkpt lat="45.70676" lon="2.89399">
        <ele>897</ele>
        <time>2012-09-15T10:56:31Z</time>
      </trkpt>
      <trkpt lat="45.70686" lon="2.89391">
        <ele>898</ele>
        <time>2012-09-15T10:56:36Z</time>
      </trkpt>
      <trkpt lat="45.70697" lon="2.89384">
        <ele>898</ele>
        <time>2012-09-15T10:56:41Z</time>
      </trkpt>
      <trkpt lat="45.70708" lon="2.89381">
        <ele>898</ele>
        <time>2012-09-15T10:56:46Z</time>
      </trkpt>
      <trkpt lat="45.70717" lon="2.89371">
        <ele>899</ele>
        <time>2012-09-15T10:56:51Z</time>
      </trkpt>
      <trkpt lat="45.70723" lon="2.89355">
        <ele>900</ele>
        <time>2012-09-15T10:56:56Z</time>
      </trkpt>
      <trkpt lat="45.70723" lon="2.89337">
        <ele>900</ele>
        <time>2012-09-15T10:57:01Z</time>
      </trkpt>
      <trkpt lat="45.70722" lon="2.89319">
        <ele>901</ele>
        <time>2012-09-15T10:57:06Z</time>
      </trkpt>
      <trkpt lat="45.70721" lon="2.89303">
        <ele>903</ele>
        <time>2012-09-15T10:57:11Z</time>
      </trkpt>
      <trkpt lat="45.70717" lon="2.89287">
        <ele>904</ele>
        <time>2012-09-15T10:57:16Z</time>
      </trkpt>
      <trkpt lat="45.70714" lon="2.89271">
        <ele>905</ele>
        <time>2012-09-15T10:57:21Z</time>
      </trkpt>
      <trkpt lat="45.70712" lon="2.89255">
        <ele>907</ele>
        <time>2012-09-15T10:57:26Z</time>
      </trkpt>
      <trkpt lat="45.7071" lon="2.89239">
        <ele>908</ele>
        <time>2012-09-15T10:57:31Z</time>
      </trkpt>
      <trkpt lat="45.7071" lon="2.89222">
        <ele>909</ele>
        <time>2012-09-15T10:57:36Z</time>
      </trkpt>
      <trkpt lat="45.70708" lon="2.89205">
        <ele>911</ele>
        <time>2012-09-15T10:57:41Z</time>
      </trkpt>
      <trkpt lat="45.70707" lon="2.89188">
        <ele>912</ele>
        <time>2012-09-15T10:57:46Z</time>
      </trkpt>
      <trkpt lat="45.70705" lon="2.8917">
        <ele>914</ele>
        <time>2012-09-15T10:57:51Z</time>
      </trkpt>
      <trkpt lat="45.70702" lon="2.89151">
        <ele>915</ele>
        <time>2012-09-15T10:57:56Z</time>
      </trkpt>
      <trkpt lat="45.70698" lon="2.89131">
        <ele>915</ele>
        <time>2012-09-15T10:58:01Z</time>
      </trkpt>
      <trkpt lat="45.70695" lon="2.89109">
        <ele>915</ele>
        <time>2012-09-15T10:58:06Z</time>
      </trkpt>
      <trkpt lat="45.70692" lon="2.89083">
        <ele>915</ele>
        <time>2012-09-15T10:58:11Z</time>
      </trkpt>
      <trkpt lat="45.7069" lon="2.89053">
        <ele>915</ele>
        <time>2012-09-15T10:58:16Z</time>
      </trkpt>
      <trkpt lat="45.70688" lon="2.89021">
        <ele>915</ele>
        <time>2012-09-15T10:58:21Z</time>
      </trkpt>
      <trkpt lat="45.70683" lon="2.88985">
        <ele>915</ele>
        <time>2012-09-15T10:58:26Z</time>
      </trkpt>
      <trkpt lat="45.70673" lon="2.88948">
        <ele>915</ele>
        <time>2012-09-15T10:58:31Z</time>
      </trkpt>
      <trkpt lat="45.70644" lon="2.88944">
        <ele>913</ele>
        <time>2012-09-15T10:58:36Z</time>
      </trkpt>
      <trkpt lat="45.70618" lon="2.88936">
        <ele>911</ele>
        <time>2012-09-15T10:58:41Z</time>
      </trkpt>
      <trkpt lat="45.70607" lon="2.88891">
        <ele>908</ele>
        <time>2012-09-15T10:58:46Z</time>
      </trkpt>
      <trkpt lat="45.70594" lon="2.88858">
        <ele>903</ele>
        <time>2012-09-15T10:58:51Z</time>
      </trkpt>
      <trkpt lat="45.70584" lon="2.88865">
        <ele>901</ele>
        <time>2012-09-15T10:58:56Z</time>
      </trkpt>
      <trkpt lat="45.7057" lon="2.88865">
        <ele>900</ele>
        <time>2012-09-15T10:59:01Z</time>
      </trkpt>
      <trkpt lat="45.70555" lon="2.88862">
        <ele>900</ele>
        <time>2012-09-15T10:59:06Z</time>
      </trkpt>
      <trkpt lat="45.7054" lon="2.8886">
        <ele>900</ele>
        <time>2012-09-15T10:59:11Z</time>
      </trkpt>
      <trkpt lat="45.70526" lon="2.88852">
        <ele>900</ele>
        <time>2012-09-15T10:59:16Z</time>
      </trkpt>
      <trkpt lat="45.70512" lon="2.88837">
        <ele>902</ele>
        <time>2012-09-15T10:59:21Z</time>
      </trkpt>
      <trkpt lat="45.70496" lon="2.88826">
        <ele>904</ele>
        <time>2012-09-15T10:59:26Z</time>
      </trkpt>
      <trkpt lat="45.70482" lon="2.88822">
        <ele>906</ele>
        <time>2012-09-15T10:59:31Z</time>
      </trkpt>
      <trkpt lat="45.70467" lon="2.88818">
        <ele>907</ele>
        <time>2012-09-15T10:59:36Z</time>
      </trkpt>
      <trkpt lat="45.70451" lon="2.88814">
        <ele>910</ele>
        <time>2012-09-15T10:59:41Z</time>
      </trkpt>
      <trkpt lat="45.70435" lon="2.88813">
        <ele>913</ele>
        <time>2012-09-15T10:59:46Z</time>
      </trkpt>
      <trkpt lat="45.70419" lon="2.88812">
        <ele>914</ele>
        <time>2012-09-15T10:59:51Z</time>
      </trkpt>
      <trkpt lat="45.70403" lon="2.88812">
        <ele>916</ele>
        <time>2012-09-15T10:59:56Z</time>
      </trkpt>
      <trkpt lat="45.70388" lon="2.88816">
        <ele>917</ele>
        <time>2012-09-15T11:00:01Z</time>
      </trkpt>
      <trkpt lat="45.70374" lon="2.88827">
        <ele>917</ele>
        <time>2012-09-15T11:00:06Z</time>
      </trkpt>
      <trkpt lat="45.70362" lon="2.88842">
        <ele>918</ele>
        <time>2012-09-15T11:00:11Z</time>
      </trkpt>
      <trkpt lat="45.70352" lon="2.88859">
        <ele>919</ele>
        <time>2012-09-15T11:00:16Z</time>
      </trkpt>
      <trkpt lat="45.70343" lon="2.88878">
        <ele>920</ele>
        <time>2012-09-15T11:00:21Z</time>
      </trkpt>
      <trkpt lat="45.70337" lon="2.88896">
        <ele>920</ele>
        <time>2012-09-15T11:00:26Z</time>
      </trkpt>
      <trkpt lat="45.70331" lon="2.88914">
        <ele>920</ele>
        <time>2012-09-15T11:00:31Z</time>
      </trkpt>
      <trkpt lat="45.70324" lon="2.88934">
        <ele>920</ele>
        <time>2012-09-15T11:00:36Z</time>
      </trkpt>
      <trkpt lat="45.70311" lon="2.88949">
        <ele>920</ele>
        <time>2012-09-15T11:00:41Z</time>
      </trkpt>
      <trkpt lat="45.70296" lon="2.88951">
        <ele>920</ele>
        <time>2012-09-15T11:00:46Z</time>
      </trkpt>
      <trkpt lat="45.70282" lon="2.88948">
        <ele>922</ele>
        <time>2012-09-15T11:00:51Z</time>
      </trkpt>
      <trkpt lat="45.70266" lon="2.88946">
        <ele>923</ele>
        <time>2012-09-15T11:00:56Z</time>
      </trkpt>
      <trkpt lat="45.70247" lon="2.88943">
        <ele>924</ele>
        <time>2012-09-15T11:01:01Z</time>
      </trkpt>
      <trkpt lat="45.70227" lon="2.88939">
        <ele>925</ele>
        <time>2012-09-15T11:01:06Z</time>
      </trkpt>
      <trkpt lat="45.70207" lon="2.88935">
        <ele>925</ele>
        <time>2012-09-15T11:01:11Z</time>
      </trkpt>
      <trkpt lat="45.70185" lon="2.88931">
        <ele>926</ele>
        <time>2012-09-15T11:01:16Z</time>
      </trkpt>
      <trkpt lat="45.70164" lon="2.88927">
        <ele>926</ele>
        <time>2012-09-15T11:01:21Z</time>
      </trkpt>
      <trkpt lat="45.70142" lon="2.88924">
        <ele>927</ele>
        <time>2012-09-15T11:01:26Z</time>
      </trkpt>
      <trkpt lat="45.70121" lon="2.88918">
        <ele>927</ele>
        <time>2012-09-15T11:01:31Z</time>
      </trkpt>
      <trkpt lat="45.701" lon="2.88914">
        <ele>927</ele>
        <time>2012-09-15T11:01:36Z</time>
      </trkpt>
      <trkpt lat="45.70078" lon="2.88911">
        <ele>927</ele>
        <time>2012-09-15T11:01:41Z</time>
      </trkpt>
      <trkpt lat="45.70056" lon="2.88907">
        <ele>927</ele>
        <time>2012-09-15T11:01:46Z</time>
      </trkpt>
      <trkpt lat="45.70033" lon="2.88901">
        <ele>927</ele>
        <time>2012-09-15T11:01:51Z</time>
      </trkpt>
      <trkpt lat="45.70011" lon="2.88897">
        <ele>927</ele>
        <time>2012-09-15T11:01:56Z</time>
      </trkpt>
      <trkpt lat="45.69988" lon="2.88896">
        <ele>927</ele>
        <time>2012-09-15T11:02:01Z</time>
      </trkpt>
      <trkpt lat="45.69965" lon="2.88898">
        <ele>928</ele>
        <time>2012-09-15T11:02:06Z</time>
      </trkpt>
      <trkpt lat="45.69942" lon="2.889">
        <ele>929</ele>
        <time>2012-09-15T11:02:11Z</time>
      </trkpt>
      <trkpt lat="45.69919" lon="2.88902">
        <ele>929</ele>
        <time>2012-09-15T11:02:16Z</time>
      </trkpt>
      <trkpt lat="45.69896" lon="2.88905">
        <ele>929</ele>
        <time>2012-09-15T11:02:21Z</time>
      </trkpt>
      <trkpt lat="45.69872" lon="2.88907">
        <ele>929</ele>
        <time>2012-09-15T11:02:26Z</time>
      </trkpt>
      <trkpt lat="45.69848" lon="2.88909">
        <ele>930</ele>
        <time>2012-09-15T11:02:31Z</time>
      </trkpt>
      <trkpt lat="45.69824" lon="2.88911">
        <ele>931</ele>
        <time>2012-09-15T11:02:36Z</time>
      </trkpt>
      <trkpt lat="45.698" lon="2.88914">
        <ele>932</ele>
        <time>2012-09-15T11:02:41Z</time>
      </trkpt>
      <trkpt lat="45.69776" lon="2.88916">
        <ele>933</ele>
        <time>2012-09-15T11:02:46Z</time>
      </trkpt>
      <trkpt lat="45.69753" lon="2.88919">
        <ele>933</ele>
        <time>2012-09-15T11:02:51Z</time>
      </trkpt>
      <trkpt lat="45.6973" lon="2.88921">
        <ele>933</ele>
        <time>2012-09-15T11:02:56Z</time>
      </trkpt>
      <trkpt lat="45.69706" lon="2.88924">
        <ele>933</ele>
        <time>2012-09-15T11:03:01Z</time>
      </trkpt>
      <trkpt lat="45.69682" lon="2.88924">
        <ele>934</ele>
        <time>2012-09-15T11:03:06Z</time>
      </trkpt>
      <trkpt lat="45.69659" lon="2.88923">
        <ele>934</ele>
        <time>2012-09-15T11:03:11Z</time>
      </trkpt>
      <trkpt lat="45.69634" lon="2.88923">
        <ele>935</ele>
        <time>2012-09-15T11:03:16Z</time>
      </trkpt>
      <trkpt lat="45.69606" lon="2.88921">
        <ele>935</ele>
        <time>2012-09-15T11:03:21Z</time>
      </trkpt>
      <trkpt lat="45.69579" lon="2.88915">
        <ele>935</ele>
        <time>2012-09-15T11:03:26Z</time>
      </trkpt>
      <trkpt lat="45.69553" lon="2.88905">
        <ele>935</ele>
        <time>2012-09-15T11:03:31Z</time>
      </trkpt>
      <trkpt lat="45.6953" lon="2.88894">
        <ele>935</ele>
        <time>2012-09-15T11:03:36Z</time>
      </trkpt>
      <trkpt lat="45.69513" lon="2.88885">
        <ele>936</ele>
        <time>2012-09-15T11:03:41Z</time>
      </trkpt>
      <trkpt lat="45.69492" lon="2.88874">
        <ele>936</ele>
        <time>2012-09-15T11:03:46Z</time>
      </trkpt>
      <trkpt lat="45.69466" lon="2.88861">
        <ele>936</ele>
        <time>2012-09-15T11:03:51Z</time>
      </trkpt>
      <trkpt lat="45.69438" lon="2.88849">
        <ele>936</ele>
        <time>2012-09-15T11:03:56Z</time>
      </trkpt>
      <trkpt lat="45.69411" lon="2.88839">
        <ele>936</ele>
        <time>2012-09-15T11:04:01Z</time>
      </trkpt>
      <trkpt lat="45.69387" lon="2.88835">
        <ele>937</ele>
        <time>2012-09-15T11:04:06Z</time>
      </trkpt>
      <trkpt lat="45.6937" lon="2.88841">
        <ele>938</ele>
        <time>2012-09-15T11:04:11Z</time>
      </trkpt>
      <trkpt lat="45.69352" lon="2.88848">
        <ele>939</ele>
        <time>2012-09-15T11:04:16Z</time>
      </trkpt>
      <trkpt lat="45.69334" lon="2.88852">
        <ele>939</ele>
        <time>2012-09-15T11:04:21Z</time>
      </trkpt>
      <trkpt lat="45.69317" lon="2.88853">
        <ele>940</ele>
        <time>2012-09-15T11:04:26Z</time>
      </trkpt>
      <trkpt lat="45.69299" lon="2.88853">
        <ele>941</ele>
        <time>2012-09-15T11:04:31Z</time>
      </trkpt>
      <trkpt lat="45.69282" lon="2.88854">
        <ele>942</ele>
        <time>2012-09-15T11:04:36Z</time>
      </trkpt>
      <trkpt lat="45.69265" lon="2.88854">
        <ele>943</ele>
        <time>2012-09-15T11:04:41Z</time>
      </trkpt>
      <trkpt lat="45.69248" lon="2.88853">
        <ele>944</ele>
        <time>2012-09-15T11:04:46Z</time>
      </trkpt>
      <trkpt lat="45.6923" lon="2.88854">
        <ele>945</ele>
        <time>2012-09-15T11:04:51Z</time>
      </trkpt>
      <trkpt lat="45.69206" lon="2.88849">
        <ele>945</ele>
        <time>2012-09-15T11:04:56Z</time>
      </trkpt>
      <trkpt lat="45.69182" lon="2.88823">
        <ele>945</ele>
        <time>2012-09-15T11:05:01Z</time>
      </trkpt>
      <trkpt lat="45.69159" lon="2.88794">
        <ele>945</ele>
        <time>2012-09-15T11:05:06Z</time>
      </trkpt>
      <trkpt lat="45.69132" lon="2.88773">
        <ele>945</ele>
        <time>2012-09-15T11:05:11Z</time>
      </trkpt>
      <trkpt lat="45.69103" lon="2.88765">
        <ele>945</ele>
        <time>2012-09-15T11:05:16Z</time>
      </trkpt>
      <trkpt lat="45.69075" lon="2.88767">
        <ele>945</ele>
        <time>2012-09-15T11:05:21Z</time>
      </trkpt>
      <trkpt lat="45.69051" lon="2.88767">
        <ele>945</ele>
        <time>2012-09-15T11:05:26Z</time>
      </trkpt>
      <trkpt lat="45.69027" lon="2.88759">
        <ele>946</ele>
        <time>2012-09-15T11:05:31Z</time>
      </trkpt>
      <trkpt lat="45.69007" lon="2.88746">
        <ele>948</ele>
        <time>2012-09-15T11:05:36Z</time>
      </trkpt>
      <trkpt lat="45.68986" lon="2.88731">
        <ele>950</ele>
        <time>2012-09-15T11:05:41Z</time>
      </trkpt>
      <trkpt lat="45.68966" lon="2.88718">
        <ele>951</ele>
        <time>2012-09-15T11:05:46Z</time>
      </trkpt>
      <trkpt lat="45.68949" lon="2.88706">
        <ele>952</ele>
        <time>2012-09-15T11:05:51Z</time>
      </trkpt>
      <trkpt lat="45.68933" lon="2.88692">
        <ele>954</ele>
        <time>2012-09-15T11:05:56Z</time>
      </trkpt>
      <trkpt lat="45.68916" lon="2.8868">
        <ele>955</ele>
        <time>2012-09-15T11:06:01Z</time>
      </trkpt>
      <trkpt lat="45.68901" lon="2.88667">
        <ele>955</ele>
        <time>2012-09-15T11:06:06Z</time>
      </trkpt>
      <trkpt lat="45.68887" lon="2.88654">
        <ele>955</ele>
        <time>2012-09-15T11:06:11Z</time>
      </trkpt>
      <trkpt lat="45.68867" lon="2.88637">
        <ele>955</ele>
        <time>2012-09-15T11:06:16Z</time>
      </trkpt>
      <trkpt lat="45.68845" lon="2.88637">
        <ele>955</ele>
        <time>2012-09-15T11:06:21Z</time>
      </trkpt>
      <trkpt lat="45.68844" lon="2.88673">
        <ele>954</ele>
        <time>2012-09-15T11:06:26Z</time>
      </trkpt>
      <trkpt lat="45.68841" lon="2.88719">
        <ele>952</ele>
        <time>2012-09-15T11:06:31Z</time>
      </trkpt>
      <trkpt lat="45.68844" lon="2.88774">
        <ele>949</ele>
        <time>2012-09-15T11:06:36Z</time>
      </trkpt>
      <trkpt lat="45.68851" lon="2.88836">
        <ele>946</ele>
        <time>2012-09-15T11:06:41Z</time>
      </trkpt>
      <trkpt lat="45.68859" lon="2.8889">
        <ele>946</ele>
        <time>2012-09-15T11:06:46Z</time>
      </trkpt>
      <trkpt lat="45.68858" lon="2.88933">
        <ele>946</ele>
        <time>2012-09-15T11:06:51Z</time>
      </trkpt>
      <trkpt lat="45.68852" lon="2.8897">
        <ele>946</ele>
        <time>2012-09-15T11:06:56Z</time>
      </trkpt>
      <trkpt lat="45.68843" lon="2.89007">
        <ele>946</ele>
        <time>2012-09-15T11:07:01Z</time>
      </trkpt>
      <trkpt lat="45.68831" lon="2.89051">
        <ele>946</ele>
        <time>2012-09-15T11:07:07Z</time>
      </trkpt>
      <trkpt lat="45.68821" lon="2.89078">
        <ele>946</ele>
        <time>2012-09-15T11:07:12Z</time>
      </trkpt>
      <trkpt lat="45.68806" lon="2.89102">
        <ele>946</ele>
        <time>2012-09-15T11:07:17Z</time>
      </trkpt>
      <trkpt lat="45.68785" lon="2.89128">
        <ele>946</ele>
        <time>2012-09-15T11:07:22Z</time>
      </trkpt>
      <trkpt lat="45.68759" lon="2.89158">
        <ele>946</ele>
        <time>2012-09-15T11:07:27Z</time>
      </trkpt>
      <trkpt lat="45.68732" lon="2.89186">
        <ele>946</ele>
        <time>2012-09-15T11:07:32Z</time>
      </trkpt>
      <trkpt lat="45.68705" lon="2.89213">
        <ele>946</ele>
        <time>2012-09-15T11:07:37Z</time>
      </trkpt>
      <trkpt lat="45.68676" lon="2.89237">
        <ele>945</ele>
        <time>2012-09-15T11:07:42Z</time>
      </trkpt>
      <trkpt lat="45.68644" lon="2.89247">
        <ele>944</ele>
        <time>2012-09-15T11:07:47Z</time>
      </trkpt>
      <trkpt lat="45.68597" lon="2.89265">
        <ele>940</ele>
        <time>2012-09-15T11:07:53Z</time>
      </trkpt>
      <trkpt lat="45.68561" lon="2.89289">
        <ele>938</ele>
        <time>2012-09-15T11:07:58Z</time>
      </trkpt>
      <trkpt lat="45.68549" lon="2.89327">
        <ele>936</ele>
        <time>2012-09-15T11:08:03Z</time>
      </trkpt>
      <trkpt lat="45.68528" lon="2.8934">
        <ele>935</ele>
        <time>2012-09-15T11:08:09Z</time>
      </trkpt>
      <trkpt lat="45.68508" lon="2.89341">
        <ele>935</ele>
        <time>2012-09-15T11:08:14Z</time>
      </trkpt>
      <trkpt lat="45.68489" lon="2.89339">
        <ele>935</ele>
        <time>2012-09-15T11:08:19Z</time>
      </trkpt>
      <trkpt lat="45.68471" lon="2.89337">
        <ele>935</ele>
        <time>2012-09-15T11:08:24Z</time>
      </trkpt>
      <trkpt lat="45.68455" lon="2.89332">
        <ele>935</ele>
        <time>2012-09-15T11:08:29Z</time>
      </trkpt>
      <trkpt lat="45.68444" lon="2.89332">
        <ele>935</ele>
        <time>2012-09-15T11:08:34Z</time>
      </trkpt>
      <trkpt lat="45.68431" lon="2.89332">
        <ele>935</ele>
        <time>2012-09-15T11:08:39Z</time>
      </trkpt>
      <trkpt lat="45.68418" lon="2.89333">
        <ele>935</ele>
        <time>2012-09-15T11:08:44Z</time>
      </trkpt>
      <trkpt lat="45.68404" lon="2.89333">
        <ele>935</ele>
        <time>2012-09-15T11:08:49Z</time>
      </trkpt>
      <trkpt lat="45.68391" lon="2.89333">
        <ele>936</ele>
        <time>2012-09-15T11:08:54Z</time>
      </trkpt>
      <trkpt lat="45.68377" lon="2.89333">
        <ele>937</ele>
        <time>2012-09-15T11:09:00Z</time>
      </trkpt>
      <trkpt lat="45.68364" lon="2.89331">
        <ele>939</ele>
        <time>2012-09-15T11:09:05Z</time>
      </trkpt>
      <trkpt lat="45.68351" lon="2.89335">
        <ele>940</ele>
        <time>2012-09-15T11:09:10Z</time>
      </trkpt>
      <trkpt lat="45.68337" lon="2.89336">
        <ele>941</ele>
        <time>2012-09-15T11:09:15Z</time>
      </trkpt>
      <trkpt lat="45.68324" lon="2.89337">
        <ele>941</ele>
        <time>2012-09-15T11:09:20Z</time>
      </trkpt>
      <trkpt lat="45.68311" lon="2.89338">
        <ele>942</ele>
        <time>2012-09-15T11:09:26Z</time>
      </trkpt>
      <trkpt lat="45.683" lon="2.8934">
        <ele>944</ele>
        <time>2012-09-15T11:09:31Z</time>
      </trkpt>
      <trkpt lat="45.6829" lon="2.8934">
        <ele>945</ele>
        <time>2012-09-15T11:09:36Z</time>
      </trkpt>
      <trkpt lat="45.68283" lon="2.89336">
        <ele>945</ele>
        <time>2012-09-15T11:09:41Z</time>
      </trkpt>
      <trkpt lat="45.68276" lon="2.8933">
        <ele>946</ele>
        <time>2012-09-15T11:09:46Z</time>
      </trkpt>
      <trkpt lat="45.68268" lon="2.89325">
        <ele>948</ele>
        <time>2012-09-15T11:09:51Z</time>
      </trkpt>
      <trkpt lat="45.68259" lon="2.89322">
        <ele>949</ele>
        <time>2012-09-15T11:09:56Z</time>
      </trkpt>
      <trkpt lat="45.68251" lon="2.89314">
        <ele>949</ele>
        <time>2012-09-15T11:10:01Z</time>
      </trkpt>
      <trkpt lat="45.68241" lon="2.8931">
        <ele>949</ele>
        <time>2012-09-15T11:10:06Z</time>
      </trkpt>
      <trkpt lat="45.68229" lon="2.89305">
        <ele>949</ele>
        <time>2012-09-15T11:10:11Z</time>
      </trkpt>
      <trkpt lat="45.68218" lon="2.89309">
        <ele>949</ele>
        <time>2012-09-15T11:10:16Z</time>
      </trkpt>
      <trkpt lat="45.68205" lon="2.89312">
        <ele>949</ele>
        <time>2012-09-15T11:10:21Z</time>
      </trkpt>
      <trkpt lat="45.68192" lon="2.89316">
        <ele>949</ele>
        <time>2012-09-15T11:10:26Z</time>
      </trkpt>
      <trkpt lat="45.68182" lon="2.89325">
        <ele>949</ele>
        <time>2012-09-15T11:10:31Z</time>
      </trkpt>
      <trkpt lat="45.68176" lon="2.89336">
        <ele>949</ele>
        <time>2012-09-15T11:10:36Z</time>
      </trkpt>
      <trkpt lat="45.6817" lon="2.8935">
        <ele>949</ele>
        <time>2012-09-15T11:10:41Z</time>
      </trkpt>
      <trkpt lat="45.68162" lon="2.89364">
        <ele>949</ele>
        <time>2012-09-15T11:10:46Z</time>
      </trkpt>
      <trkpt lat="45.68151" lon="2.89371">
        <ele>949</ele>
        <time>2012-09-15T11:10:51Z</time>
      </trkpt>
      <trkpt lat="45.68138" lon="2.89377">
        <ele>949</ele>
        <time>2012-09-15T11:10:56Z</time>
      </trkpt>
      <trkpt lat="45.68125" lon="2.89379">
        <ele>949</ele>
        <time>2012-09-15T11:11:01Z</time>
      </trkpt>
      <trkpt lat="45.68109" lon="2.8938">
        <ele>949</ele>
        <time>2012-09-15T11:11:06Z</time>
      </trkpt>
      <trkpt lat="45.6809" lon="2.89376">
        <ele>951</ele>
        <time>2012-09-15T11:11:12Z</time>
      </trkpt>
      <trkpt lat="45.68073" lon="2.89374">
        <ele>952</ele>
        <time>2012-09-15T11:11:17Z</time>
      </trkpt>
      <trkpt lat="45.68055" lon="2.89375">
        <ele>952</ele>
        <time>2012-09-15T11:11:23Z</time>
      </trkpt>
      <trkpt lat="45.6804" lon="2.89381">
        <ele>953</ele>
        <time>2012-09-15T11:11:28Z</time>
      </trkpt>
      <trkpt lat="45.68025" lon="2.89389">
        <ele>955</ele>
        <time>2012-09-15T11:11:33Z</time>
      </trkpt>
      <trkpt lat="45.68011" lon="2.89397">
        <ele>955</ele>
        <time>2012-09-15T11:11:38Z</time>
      </trkpt>
      <trkpt lat="45.67996" lon="2.89404">
        <ele>955</ele>
        <time>2012-09-15T11:11:43Z</time>
      </trkpt>
      <trkpt lat="45.67981" lon="2.89412">
        <ele>958</ele>
        <time>2012-09-15T11:11:48Z</time>
      </trkpt>
      <trkpt lat="45.67968" lon="2.89424">
        <ele>959</ele>
        <time>2012-09-15T11:11:53Z</time>
      </trkpt>
      <trkpt lat="45.67962" lon="2.89443">
        <ele>959</ele>
        <time>2012-09-15T11:11:58Z</time>
      </trkpt>
      <trkpt lat="45.67955" lon="2.89461">
        <ele>959</ele>
        <time>2012-09-15T11:12:03Z</time>
      </trkpt>
      <trkpt lat="45.67949" lon="2.89479">
        <ele>959</ele>
        <time>2012-09-15T11:12:08Z</time>
      </trkpt>
      <trkpt lat="45.67944" lon="2.89498">
        <ele>959</ele>
        <time>2012-09-15T11:12:13Z</time>
      </trkpt>
      <trkpt lat="45.67937" lon="2.89516">
        <ele>959</ele>
        <time>2012-09-15T11:12:18Z</time>
      </trkpt>
      <trkpt lat="45.67932" lon="2.89535">
        <ele>959</ele>
        <time>2012-09-15T11:12:23Z</time>
      </trkpt>
      <trkpt lat="45.67925" lon="2.89554">
        <ele>959</ele>
        <time>2012-09-15T11:12:28Z</time>
      </trkpt>
      <trkpt lat="45.67916" lon="2.89577">
        <ele>959</ele>
        <time>2012-09-15T11:12:33Z</time>
      </trkpt>
      <trkpt lat="45.67907" lon="2.89597">
        <ele>959</ele>
        <time>2012-09-15T11:12:38Z</time>
      </trkpt>
      <trkpt lat="45.67894" lon="2.89617">
        <ele>958</ele>
        <time>2012-09-15T11:12:43Z</time>
      </trkpt>
      <trkpt lat="45.67882" lon="2.89637">
        <ele>958</ele>
        <time>2012-09-15T11:12:48Z</time>
      </trkpt>
      <trkpt lat="45.67865" lon="2.89663">
        <ele>958</ele>
        <time>2012-09-15T11:12:54Z</time>
      </trkpt>
      <trkpt lat="45.6785" lon="2.89678">
        <ele>963</ele>
        <time>2012-09-15T11:12:59Z</time>
      </trkpt>
      <trkpt lat="45.67833" lon="2.89683">
        <ele>965</ele>
        <time>2012-09-15T11:13:04Z</time>
      </trkpt>
      <trkpt lat="45.67815" lon="2.89687">
        <ele>965</ele>
        <time>2012-09-15T11:13:09Z</time>
      </trkpt>
      <trkpt lat="45.67796" lon="2.89691">
        <ele>965</ele>
        <time>2012-09-15T11:13:14Z</time>
      </trkpt>
      <trkpt lat="45.67777" lon="2.89694">
        <ele>965</ele>
        <time>2012-09-15T11:13:19Z</time>
      </trkpt>
      <trkpt lat="45.67759" lon="2.89697">
        <ele>965</ele>
        <time>2012-09-15T11:13:24Z</time>
      </trkpt>
      <trkpt lat="45.67742" lon="2.89702">
        <ele>965</ele>
        <time>2012-09-15T11:13:29Z</time>
      </trkpt>
      <trkpt lat="45.67724" lon="2.89707">
        <ele>965</ele>
        <time>2012-09-15T11:13:34Z</time>
      </trkpt>
      <trkpt lat="45.67706" lon="2.89713">
        <ele>965</ele>
        <time>2012-09-15T11:13:39Z</time>
      </trkpt>
      <trkpt lat="45.67687" lon="2.89721">
        <ele>965</ele>
        <time>2012-09-15T11:13:44Z</time>
      </trkpt>
      <trkpt lat="45.67668" lon="2.89728">
        <ele>965</ele>
        <time>2012-09-15T11:13:49Z</time>
      </trkpt>
      <trkpt lat="45.67645" lon="2.89737">
        <ele>965</ele>
        <time>2012-09-15T11:13:55Z</time>
      </trkpt>
      <trkpt lat="45.67626" lon="2.89744">
        <ele>966</ele>
        <time>2012-09-15T11:14:00Z</time>
      </trkpt>
      <trkpt lat="45.67606" lon="2.89751">
        <ele>967</ele>
        <time>2012-09-15T11:14:05Z</time>
      </trkpt>
      <trkpt lat="45.67587" lon="2.89763">
        <ele>967</ele>
        <time>2012-09-15T11:14:11Z</time>
      </trkpt>
      <trkpt lat="45.67595" lon="2.89777">
        <ele>967</ele>
        <time>2012-09-15T11:14:16Z</time>
      </trkpt>
      <trkpt lat="45.6761" lon="2.89792">
        <ele>967</ele>
        <time>2012-09-15T11:14:21Z</time>
      </trkpt>
      <trkpt lat="45.67626" lon="2.89804">
        <ele>967</ele>
        <time>2012-09-15T11:14:26Z</time>
      </trkpt>
      <trkpt lat="45.67641" lon="2.89816">
        <ele>968</ele>
        <time>2012-09-15T11:14:32Z</time>
      </trkpt>
      <trkpt lat="45.67652" lon="2.89826">
        <ele>971</ele>
        <time>2012-09-15T11:14:37Z</time>
      </trkpt>
      <trkpt lat="45.67663" lon="2.89833">
        <ele>971</ele>
        <time>2012-09-15T11:14:43Z</time>
      </trkpt>
      <trkpt lat="45.6767" lon="2.89838">
        <ele>974</ele>
        <time>2012-09-15T11:14:49Z</time>
      </trkpt>
      <trkpt lat="45.6768" lon="2.89847">
        <ele>977</ele>
        <time>2012-09-15T11:14:55Z</time>
      </trkpt>
      <trkpt lat="45.67689" lon="2.89853">
        <ele>977</ele>
        <time>2012-09-15T11:15:00Z</time>
      </trkpt>
      <trkpt lat="45.67698" lon="2.89861">
        <ele>978</ele>
        <time>2012-09-15T11:15:06Z</time>
      </trkpt>
      <trkpt lat="45.67707" lon="2.8987">
        <ele>979</ele>
        <time>2012-09-15T11:15:12Z</time>
      </trkpt>
      <trkpt lat="45.67715" lon="2.89875">
        <ele>979</ele>
        <time>2012-09-15T11:15:17Z</time>
      </trkpt>
      <trkpt lat="45.67725" lon="2.89883">
        <ele>979</ele>
        <time>2012-09-15T11:15:23Z</time>
      </trkpt>
      <trkpt lat="45.67732" lon="2.89891">
        <ele>979</ele>
        <time>2012-09-15T11:15:28Z</time>
      </trkpt>
      <trkpt lat="45.67738" lon="2.89898">
        <ele>981</ele>
        <time>2012-09-15T11:15:33Z</time>
      </trkpt>
      <trkpt lat="45.67747" lon="2.89904">
        <ele>982</ele>
        <time>2012-09-15T11:15:38Z</time>
      </trkpt>
      <trkpt lat="45.67756" lon="2.89909">
        <ele>982</ele>
        <time>2012-09-15T11:15:43Z</time>
      </trkpt>
      <trkpt lat="45.67765" lon="2.89914">
        <ele>983</ele>
        <time>2012-09-15T11:15:48Z</time>
      </trkpt>
      <trkpt lat="45.67772" lon="2.8992">
        <ele>984</ele>
        <time>2012-09-15T11:15:53Z</time>
      </trkpt>
      <trkpt lat="45.67777" lon="2.89928">
        <ele>985</ele>
        <time>2012-09-15T11:15:58Z</time>
      </trkpt>
      <trkpt lat="45.67785" lon="2.89935">
        <ele>987</ele>
        <time>2012-09-15T11:16:04Z</time>
      </trkpt>
      <trkpt lat="45.67791" lon="2.89942">
        <ele>988</ele>
        <time>2012-09-15T11:16:09Z</time>
      </trkpt>
      <trkpt lat="45.67797" lon="2.89948">
        <ele>990</ele>
        <time>2012-09-15T11:16:14Z</time>
      </trkpt>
      <trkpt lat="45.67807" lon="2.89953">
        <ele>991</ele>
        <time>2012-09-15T11:16:19Z</time>
      </trkpt>
      <trkpt lat="45.67815" lon="2.89959">
        <ele>993</ele>
        <time>2012-09-15T11:16:24Z</time>
      </trkpt>
      <trkpt lat="45.67823" lon="2.89962">
        <ele>994</ele>
        <time>2012-09-15T11:16:29Z</time>
      </trkpt>
      <trkpt lat="45.67831" lon="2.89966">
        <ele>995</ele>
        <time>2012-09-15T11:16:34Z</time>
      </trkpt>
      <trkpt lat="45.67838" lon="2.89971">
        <ele>997</ele>
        <time>2012-09-15T11:16:39Z</time>
      </trkpt>
      <trkpt lat="45.67844" lon="2.89974">
        <ele>998</ele>
        <time>2012-09-15T11:16:44Z</time>
      </trkpt>
      <trkpt lat="45.67851" lon="2.89978">
        <ele>999</ele>
        <time>2012-09-15T11:16:49Z</time>
      </trkpt>
      <trkpt lat="45.67857" lon="2.89982">
        <ele>1000</ele>
        <time>2012-09-15T11:16:54Z</time>
      </trkpt>
      <trkpt lat="45.67863" lon="2.89986">
        <ele>1002</ele>
        <time>2012-09-15T11:16:59Z</time>
      </trkpt>
      <trkpt lat="45.67868" lon="2.89991">
        <ele>1003</ele>
        <time>2012-09-15T11:17:04Z</time>
      </trkpt>
      <trkpt lat="45.67874" lon="2.89995">
        <ele>1004</ele>
        <time>2012-09-15T11:17:09Z</time>
      </trkpt>
      <trkpt lat="45.6788" lon="2.90002">
        <ele>1005</ele>
        <time>2012-09-15T11:17:14Z</time>
      </trkpt>
      <trkpt lat="45.67884" lon="2.90009">
        <ele>1006</ele>
        <time>2012-09-15T11:17:19Z</time>
      </trkpt>
      <trkpt lat="45.6789" lon="2.90015">
        <ele>1007</ele>
        <time>2012-09-15T11:17:24Z</time>
      </trkpt>
      <trkpt lat="45.67891" lon="2.90012">
        <ele>1008</ele>
        <time>2012-09-15T11:17:31Z</time>
      </trkpt>
      <trkpt lat="45.67891" lon="2.90013">
        <ele>1012</ele>
        <time>2012-09-15T11:18:38Z</time>
      </trkpt>
      <trkpt lat="45.67892" lon="2.90019">
        <ele>1012</ele>
        <time>2012-09-15T11:18:44Z</time>
      </trkpt>
      <trkpt lat="45.67894" lon="2.90029">
        <ele>1012</ele>
        <time>2012-09-15T11:18:49Z</time>
      </trkpt>
      <trkpt lat="45.67896" lon="2.90043">
        <ele>1012</ele>
        <time>2012-09-15T11:18:54Z</time>
      </trkpt>
      <trkpt lat="45.67897" lon="2.90055">
        <ele>1012</ele>
        <time>2012-09-15T11:19:00Z</time>
      </trkpt>
      <trkpt lat="45.67898" lon="2.90059">
        <ele>1012</ele>
        <time>2012-09-15T11:19:05Z</time>
      </trkpt>
      <trkpt lat="45.67902" lon="2.90072">
        <ele>1012</ele>
        <time>2012-09-15T11:19:10Z</time>
      </trkpt>
      <trkpt lat="45.67907" lon="2.90086">
        <ele>1012</ele>
        <time>2012-09-15T11:19:15Z</time>
      </trkpt>
      <trkpt lat="45.67913" lon="2.90103">
        <ele>1012</ele>
        <time>2012-09-15T11:19:20Z</time>
      </trkpt>
      <trkpt lat="45.67922" lon="2.90121">
        <ele>1012</ele>
        <time>2012-09-15T11:19:25Z</time>
      </trkpt>
      <trkpt lat="45.67932" lon="2.90144">
        <ele>1012</ele>
        <time>2012-09-15T11:19:30Z</time>
      </trkpt>
      <trkpt lat="45.67945" lon="2.90172">
        <ele>1012</ele>
        <time>2012-09-15T11:19:35Z</time>
      </trkpt>
      <trkpt lat="45.67958" lon="2.90202">
        <ele>1012</ele>
        <time>2012-09-15T11:19:40Z</time>
      </trkpt>
      <trkpt lat="45.67952" lon="2.90232">
        <ele>1012</ele>
        <time>2012-09-15T11:19:45Z</time>
      </trkpt>
      <trkpt lat="45.67931" lon="2.90227">
        <ele>1012</ele>
        <time>2012-09-15T11:19:50Z</time>
      </trkpt>
      <trkpt lat="45.67907" lon="2.90223">
        <ele>1012</ele>
        <time>2012-09-15T11:19:55Z</time>
      </trkpt>
      <trkpt lat="45.67884" lon="2.90224">
        <ele>1012</ele>
        <time>2012-09-15T11:20:00Z</time>
      </trkpt>
      <trkpt lat="45.6786" lon="2.90227">
        <ele>1012</ele>
        <time>2012-09-15T11:20:05Z</time>
      </trkpt>
      <trkpt lat="45.67837" lon="2.90228">
        <ele>1012</ele>
        <time>2012-09-15T11:20:10Z</time>
      </trkpt>
      <trkpt lat="45.67813" lon="2.90228">
        <ele>1012</ele>
        <time>2012-09-15T11:20:15Z</time>
      </trkpt>
      <trkpt lat="45.67789" lon="2.90229">
        <ele>1012</ele>
        <time>2012-09-15T11:20:20Z</time>
      </trkpt>
      <trkpt lat="45.67766" lon="2.9023">
        <ele>1012</ele>
        <time>2012-09-15T11:20:25Z</time>
      </trkpt>
      <trkpt lat="45.67744" lon="2.9023">
        <ele>1013</ele>
        <time>2012-09-15T11:20:30Z</time>
      </trkpt>
      <trkpt lat="45.67724" lon="2.90231">
        <ele>1014</ele>
        <time>2012-09-15T11:20:35Z</time>
      </trkpt>
      <trkpt lat="45.67704" lon="2.90232">
        <ele>1015</ele>
        <time>2012-09-15T11:20:40Z</time>
      </trkpt>
      <trkpt lat="45.67682" lon="2.90233">
        <ele>1016</ele>
        <time>2012-09-15T11:20:45Z</time>
      </trkpt>
      <trkpt lat="45.67661" lon="2.90234">
        <ele>1016</ele>
        <time>2012-09-15T11:20:50Z</time>
      </trkpt>
      <trkpt lat="45.6764" lon="2.90235">
        <ele>1017</ele>
        <time>2012-09-15T11:20:55Z</time>
      </trkpt>
      <trkpt lat="45.67619" lon="2.90235">
        <ele>1018</ele>
        <time>2012-09-15T11:21:00Z</time>
      </trkpt>
      <trkpt lat="45.67595" lon="2.90236">
        <ele>1018</ele>
        <time>2012-09-15T11:21:05Z</time>
      </trkpt>
      <trkpt lat="45.67568" lon="2.90236">
        <ele>1018</ele>
        <time>2012-09-15T11:21:10Z</time>
      </trkpt>
      <trkpt lat="45.6754" lon="2.90238">
        <ele>1018</ele>
        <time>2012-09-15T11:21:15Z</time>
      </trkpt>
      <trkpt lat="45.67513" lon="2.90238">
        <ele>1018</ele>
        <time>2012-09-15T11:21:20Z</time>
      </trkpt>
      <trkpt lat="45.67486" lon="2.90237">
        <ele>1018</ele>
        <time>2012-09-15T11:21:25Z</time>
      </trkpt>
      <trkpt lat="45.67459" lon="2.90239">
        <ele>1018</ele>
        <time>2012-09-15T11:21:30Z</time>
      </trkpt>
      <trkpt lat="45.67434" lon="2.9024">
        <ele>1018</ele>
        <time>2012-09-15T11:21:35Z</time>
      </trkpt>
      <trkpt lat="45.67408" lon="2.90242">
        <ele>1018</ele>
        <time>2012-09-15T11:21:40Z</time>
      </trkpt>
      <trkpt lat="45.67381" lon="2.90243">
        <ele>1018</ele>
        <time>2012-09-15T11:21:45Z</time>
      </trkpt>
      <trkpt lat="45.67352" lon="2.90244">
        <ele>1018</ele>
        <time>2012-09-15T11:21:50Z</time>
      </trkpt>
      <trkpt lat="45.67322" lon="2.90244">
        <ele>1018</ele>
        <time>2012-09-15T11:21:55Z</time>
      </trkpt>
      <trkpt lat="45.67292" lon="2.90246">
        <ele>1018</ele>
        <time>2012-09-15T11:22:00Z</time>
      </trkpt>
      <trkpt lat="45.67265" lon="2.90248">
        <ele>1018</ele>
        <time>2012-09-15T11:22:05Z</time>
      </trkpt>
      <trkpt lat="45.67238" lon="2.90248">
        <ele>1018</ele>
        <time>2012-09-15T11:22:10Z</time>
      </trkpt>
      <trkpt lat="45.67211" lon="2.90254">
        <ele>1018</ele>
        <time>2012-09-15T11:22:15Z</time>
      </trkpt>
      <trkpt lat="45.67184" lon="2.90262">
        <ele>1018</ele>
        <time>2012-09-15T11:22:20Z</time>
      </trkpt>
      <trkpt lat="45.6716" lon="2.9027">
        <ele>1018</ele>
        <time>2012-09-15T11:22:25Z</time>
      </trkpt>
      <trkpt lat="45.67141" lon="2.90279">
        <ele>1018</ele>
        <time>2012-09-15T11:22:30Z</time>
      </trkpt>
      <trkpt lat="45.67122" lon="2.90286">
        <ele>1018</ele>
        <time>2012-09-15T11:22:35Z</time>
      </trkpt>
      <trkpt lat="45.67106" lon="2.90292">
        <ele>1018</ele>
        <time>2012-09-15T11:22:40Z</time>
      </trkpt>
      <trkpt lat="45.67089" lon="2.90298">
        <ele>1018</ele>
        <time>2012-09-15T11:22:45Z</time>
      </trkpt>
      <trkpt lat="45.67072" lon="2.90304">
        <ele>1019</ele>
        <time>2012-09-15T11:22:50Z</time>
      </trkpt>
      <trkpt lat="45.67055" lon="2.90307">
        <ele>1020</ele>
        <time>2012-09-15T11:22:55Z</time>
      </trkpt>
      <trkpt lat="45.67038" lon="2.90308">
        <ele>1021</ele>
        <time>2012-09-15T11:23:00Z</time>
      </trkpt>
      <trkpt lat="45.67022" lon="2.90306">
        <ele>1022</ele>
        <time>2012-09-15T11:23:05Z</time>
      </trkpt>
      <trkpt lat="45.67007" lon="2.90305">
        <ele>1023</ele>
        <time>2012-09-15T11:23:10Z</time>
      </trkpt>
      <trkpt lat="45.6699" lon="2.90303">
        <ele>1024</ele>
        <time>2012-09-15T11:23:15Z</time>
      </trkpt>
      <trkpt lat="45.66974" lon="2.90302">
        <ele>1025</ele>
        <time>2012-09-15T11:23:20Z</time>
      </trkpt>
      <trkpt lat="45.66957" lon="2.903">
        <ele>1026</ele>
        <time>2012-09-15T11:23:25Z</time>
      </trkpt>
      <trkpt lat="45.6694" lon="2.90303">
        <ele>1027</ele>
        <time>2012-09-15T11:23:30Z</time>
      </trkpt>
      <trkpt lat="45.66923" lon="2.90308">
        <ele>1028</ele>
        <time>2012-09-15T11:23:35Z</time>
      </trkpt>
      <trkpt lat="45.66907" lon="2.90316">
        <ele>1028</ele>
        <time>2012-09-15T11:23:40Z</time>
      </trkpt>
      <trkpt lat="45.66891" lon="2.90323">
        <ele>1028</ele>
        <time>2012-09-15T11:23:45Z</time>
      </trkpt>
      <trkpt lat="45.66874" lon="2.90331">
        <ele>1029</ele>
        <time>2012-09-15T11:23:50Z</time>
      </trkpt>
      <trkpt lat="45.6686" lon="2.90337">
        <ele>1030</ele>
        <time>2012-09-15T11:23:55Z</time>
      </trkpt>
      <trkpt lat="45.66846" lon="2.90341">
        <ele>1031</ele>
        <time>2012-09-15T11:24:00Z</time>
      </trkpt>
      <trkpt lat="45.66832" lon="2.90349">
        <ele>1033</ele>
        <time>2012-09-15T11:24:05Z</time>
      </trkpt>
      <trkpt lat="45.66816" lon="2.90355">
        <ele>1034</ele>
        <time>2012-09-15T11:24:11Z</time>
      </trkpt>
      <trkpt lat="45.66802" lon="2.90361">
        <ele>1035</ele>
        <time>2012-09-15T11:24:16Z</time>
      </trkpt>
      <trkpt lat="45.66788" lon="2.90367">
        <ele>1036</ele>
        <time>2012-09-15T11:24:21Z</time>
      </trkpt>
      <trkpt lat="45.66776" lon="2.90372">
        <ele>1036</ele>
        <time>2012-09-15T11:24:26Z</time>
      </trkpt>
      <trkpt lat="45.66763" lon="2.90378">
        <ele>1037</ele>
        <time>2012-09-15T11:24:31Z</time>
      </trkpt>
      <trkpt lat="45.6675" lon="2.90383">
        <ele>1038</ele>
        <time>2012-09-15T11:24:36Z</time>
      </trkpt>
      <trkpt lat="45.66737" lon="2.90388">
        <ele>1038</ele>
        <time>2012-09-15T11:24:41Z</time>
      </trkpt>
      <trkpt lat="45.66724" lon="2.90394">
        <ele>1040</ele>
        <time>2012-09-15T11:24:46Z</time>
      </trkpt>
      <trkpt lat="45.66712" lon="2.90404">
        <ele>1041</ele>
        <time>2012-09-15T11:24:51Z</time>
      </trkpt>
      <trkpt lat="45.667" lon="2.90412">
        <ele>1041</ele>
        <time>2012-09-15T11:24:56Z</time>
      </trkpt>
      <trkpt lat="45.66687" lon="2.90421">
        <ele>1042</ele>
        <time>2012-09-15T11:25:01Z</time>
      </trkpt>
      <trkpt lat="45.66675" lon="2.90429">
        <ele>1043</ele>
        <time>2012-09-15T11:25:06Z</time>
      </trkpt>
      <trkpt lat="45.66662" lon="2.90438">
        <ele>1043</ele>
        <time>2012-09-15T11:25:11Z</time>
      </trkpt>
      <trkpt lat="45.66648" lon="2.90446">
        <ele>1044</ele>
        <time>2012-09-15T11:25:16Z</time>
      </trkpt>
      <trkpt lat="45.66635" lon="2.90457">
        <ele>1044</ele>
        <time>2012-09-15T11:25:21Z</time>
      </trkpt>
      <trkpt lat="45.66621" lon="2.90468">
        <ele>1044</ele>
        <time>2012-09-15T11:25:26Z</time>
      </trkpt>
      <trkpt lat="45.6661" lon="2.90458">
        <ele>1044</ele>
        <time>2012-09-15T11:25:31Z</time>
      </trkpt>
      <trkpt lat="45.66603" lon="2.90437">
        <ele>1044</ele>
        <time>2012-09-15T11:25:36Z</time>
      </trkpt>
      <trkpt lat="45.66594" lon="2.90414">
        <ele>1044</ele>
        <time>2012-09-15T11:25:41Z</time>
      </trkpt>
      <trkpt lat="45.66584" lon="2.90386">
        <ele>1044</ele>
        <time>2012-09-15T11:25:46Z</time>
      </trkpt>
      <trkpt lat="45.66572" lon="2.90352">
        <ele>1044</ele>
        <time>2012-09-15T11:25:51Z</time>
      </trkpt>
      <trkpt lat="45.66558" lon="2.90315">
        <ele>1044</ele>
        <time>2012-09-15T11:25:56Z</time>
      </trkpt>
      <trkpt lat="45.66543" lon="2.90274">
        <ele>1044</ele>
        <time>2012-09-15T11:26:01Z</time>
      </trkpt>
      <trkpt lat="45.66527" lon="2.90232">
        <ele>1043</ele>
        <time>2012-09-15T11:26:06Z</time>
      </trkpt>
      <trkpt lat="45.66513" lon="2.90192">
        <ele>1042</ele>
        <time>2012-09-15T11:26:11Z</time>
      </trkpt>
      <trkpt lat="45.66497" lon="2.90153">
        <ele>1042</ele>
        <time>2012-09-15T11:26:16Z</time>
      </trkpt>
      <trkpt lat="45.66479" lon="2.90115">
        <ele>1042</ele>
        <time>2012-09-15T11:26:21Z</time>
      </trkpt>
      <trkpt lat="45.6646" lon="2.9008">
        <ele>1041</ele>
        <time>2012-09-15T11:26:26Z</time>
      </trkpt>
      <trkpt lat="45.6644" lon="2.90052">
        <ele>1041</ele>
        <time>2012-09-15T11:26:31Z</time>
      </trkpt>
      <trkpt lat="45.66419" lon="2.90039">
        <ele>1041</ele>
        <time>2012-09-15T11:26:36Z</time>
      </trkpt>
      <trkpt lat="45.66397" lon="2.90032">
        <ele>1041</ele>
        <time>2012-09-15T11:26:41Z</time>
      </trkpt>
      <trkpt lat="45.66374" lon="2.90028">
        <ele>1041</ele>
        <time>2012-09-15T11:26:46Z</time>
      </trkpt>
      <trkpt lat="45.66349" lon="2.90032">
        <ele>1041</ele>
        <time>2012-09-15T11:26:51Z</time>
      </trkpt>
      <trkpt lat="45.66328" lon="2.90018">
        <ele>1041</ele>
        <time>2012-09-15T11:26:56Z</time>
      </trkpt>
      <trkpt lat="45.66326" lon="2.89993">
        <ele>1041</ele>
        <time>2012-09-15T11:27:01Z</time>
      </trkpt>
      <trkpt lat="45.66325" lon="2.89975">
        <ele>1041</ele>
        <time>2012-09-15T11:27:06Z</time>
      </trkpt>
      <trkpt lat="45.66325" lon="2.89959">
        <ele>1042</ele>
        <time>2012-09-15T11:27:11Z</time>
      </trkpt>
      <trkpt lat="45.66327" lon="2.89944">
        <ele>1043</ele>
        <time>2012-09-15T11:27:16Z</time>
      </trkpt>
      <trkpt lat="45.66328" lon="2.89928">
        <ele>1044</ele>
        <time>2012-09-15T11:27:21Z</time>
      </trkpt>
      <trkpt lat="45.66328" lon="2.89911">
        <ele>1044</ele>
        <time>2012-09-15T11:27:26Z</time>
      </trkpt>
      <trkpt lat="45.6633" lon="2.89892">
        <ele>1045</ele>
        <time>2012-09-15T11:27:31Z</time>
      </trkpt>
      <trkpt lat="45.66331" lon="2.89871">
        <ele>1045</ele>
        <time>2012-09-15T11:27:36Z</time>
      </trkpt>
      <trkpt lat="45.6633" lon="2.89851">
        <ele>1045</ele>
        <time>2012-09-15T11:27:41Z</time>
      </trkpt>
      <trkpt lat="45.66323" lon="2.89834">
        <ele>1046</ele>
        <time>2012-09-15T11:27:46Z</time>
      </trkpt>
      <trkpt lat="45.66319" lon="2.89815">
        <ele>1047</ele>
        <time>2012-09-15T11:27:51Z</time>
      </trkpt>
      <trkpt lat="45.66322" lon="2.89799">
        <ele>1047</ele>
        <time>2012-09-15T11:27:56Z</time>
      </trkpt>
      <trkpt lat="45.66328" lon="2.89781">
        <ele>1048</ele>
        <time>2012-09-15T11:28:01Z</time>
      </trkpt>
      <trkpt lat="45.66333" lon="2.89763">
        <ele>1048</ele>
        <time>2012-09-15T11:28:06Z</time>
      </trkpt>
      <trkpt lat="45.66337" lon="2.89746">
        <ele>1048</ele>
        <time>2012-09-15T11:28:11Z</time>
      </trkpt>
      <trkpt lat="45.66341" lon="2.89729">
        <ele>1049</ele>
        <time>2012-09-15T11:28:16Z</time>
      </trkpt>
      <trkpt lat="45.66345" lon="2.89712">
        <ele>1051</ele>
        <time>2012-09-15T11:28:21Z</time>
      </trkpt>
      <trkpt lat="45.6635" lon="2.89691">
        <ele>1053</ele>
        <time>2012-09-15T11:28:27Z</time>
      </trkpt>
      <trkpt lat="45.66355" lon="2.89673">
        <ele>1055</ele>
        <time>2012-09-15T11:28:32Z</time>
      </trkpt>
      <trkpt lat="45.66359" lon="2.89655">
        <ele>1056</ele>
        <time>2012-09-15T11:28:37Z</time>
      </trkpt>
      <trkpt lat="45.66358" lon="2.89637">
        <ele>1056</ele>
        <time>2012-09-15T11:28:42Z</time>
      </trkpt>
      <trkpt lat="45.66346" lon="2.89629">
        <ele>1056</ele>
        <time>2012-09-15T11:28:47Z</time>
      </trkpt>
      <trkpt lat="45.66333" lon="2.89621">
        <ele>1056</ele>
        <time>2012-09-15T11:28:52Z</time>
      </trkpt>
      <trkpt lat="45.66319" lon="2.89614">
        <ele>1057</ele>
        <time>2012-09-15T11:28:57Z</time>
      </trkpt>
      <trkpt lat="45.66306" lon="2.89607">
        <ele>1058</ele>
        <time>2012-09-15T11:29:02Z</time>
      </trkpt>
      <trkpt lat="45.6629" lon="2.89599">
        <ele>1059</ele>
        <time>2012-09-15T11:29:08Z</time>
      </trkpt>
      <trkpt lat="45.66276" lon="2.89591">
        <ele>1060</ele>
        <time>2012-09-15T11:29:13Z</time>
      </trkpt>
      <trkpt lat="45.66262" lon="2.89582">
        <ele>1061</ele>
        <time>2012-09-15T11:29:18Z</time>
      </trkpt>
      <trkpt lat="45.66245" lon="2.89573">
        <ele>1062</ele>
        <time>2012-09-15T11:29:23Z</time>
      </trkpt>
      <trkpt lat="45.66228" lon="2.89563">
        <ele>1063</ele>
        <time>2012-09-15T11:29:28Z</time>
      </trkpt>
      <trkpt lat="45.66211" lon="2.89555">
        <ele>1065</ele>
        <time>2012-09-15T11:29:33Z</time>
      </trkpt>
      <trkpt lat="45.66195" lon="2.89545">
        <ele>1066</ele>
        <time>2012-09-15T11:29:38Z</time>
      </trkpt>
      <trkpt lat="45.66174" lon="2.89536">
        <ele>1066</ele>
        <time>2012-09-15T11:29:44Z</time>
      </trkpt>
      <trkpt lat="45.66153" lon="2.89532">
        <ele>1068</ele>
        <time>2012-09-15T11:29:49Z</time>
      </trkpt>
      <trkpt lat="45.66128" lon="2.89535">
        <ele>1069</ele>
        <time>2012-09-15T11:29:55Z</time>
      </trkpt>
      <trkpt lat="45.66106" lon="2.89536">
        <ele>1071</ele>
        <time>2012-09-15T11:30:00Z</time>
      </trkpt>
      <trkpt lat="45.66085" lon="2.89538">
        <ele>1072</ele>
        <time>2012-09-15T11:30:05Z</time>
      </trkpt>
      <trkpt lat="45.6606" lon="2.8954">
        <ele>1072</ele>
        <time>2012-09-15T11:30:11Z</time>
      </trkpt>
      <trkpt lat="45.66039" lon="2.89543">
        <ele>1073</ele>
        <time>2012-09-15T11:30:16Z</time>
      </trkpt>
      <trkpt lat="45.66018" lon="2.89545">
        <ele>1073</ele>
        <time>2012-09-15T11:30:21Z</time>
      </trkpt>
      <trkpt lat="45.65997" lon="2.89547">
        <ele>1073</ele>
        <time>2012-09-15T11:30:26Z</time>
      </trkpt>
      <trkpt lat="45.65976" lon="2.89549">
        <ele>1073</ele>
        <time>2012-09-15T11:30:31Z</time>
      </trkpt>
      <trkpt lat="45.6596" lon="2.89551">
        <ele>1073</ele>
        <time>2012-09-15T11:30:36Z</time>
      </trkpt>
      <trkpt lat="45.65941" lon="2.89552">
        <ele>1073</ele>
        <time>2012-09-15T11:30:41Z</time>
      </trkpt>
      <trkpt lat="45.65923" lon="2.89553">
        <ele>1073</ele>
        <time>2012-09-15T11:30:46Z</time>
      </trkpt>
      <trkpt lat="45.65902" lon="2.89555">
        <ele>1073</ele>
        <time>2012-09-15T11:30:52Z</time>
      </trkpt>
      <trkpt lat="45.6588" lon="2.89556">
        <ele>1073</ele>
        <time>2012-09-15T11:30:58Z</time>
      </trkpt>
      <trkpt lat="45.65862" lon="2.89558">
        <ele>1073</ele>
        <time>2012-09-15T11:31:03Z</time>
      </trkpt>
      <trkpt lat="45.65846" lon="2.89559">
        <ele>1073</ele>
        <time>2012-09-15T11:31:08Z</time>
      </trkpt>
      <trkpt lat="45.6583" lon="2.8956">
        <ele>1073</ele>
        <time>2012-09-15T11:31:13Z</time>
      </trkpt>
      <trkpt lat="45.65812" lon="2.89563">
        <ele>1073</ele>
        <time>2012-09-15T11:31:19Z</time>
      </trkpt>
      <trkpt lat="45.65795" lon="2.89565">
        <ele>1073</ele>
        <time>2012-09-15T11:31:24Z</time>
      </trkpt>
      <trkpt lat="45.65775" lon="2.89566">
        <ele>1073</ele>
        <time>2012-09-15T11:31:30Z</time>
      </trkpt>
      <trkpt lat="45.65758" lon="2.89568">
        <ele>1073</ele>
        <time>2012-09-15T11:31:35Z</time>
      </trkpt>
      <trkpt lat="45.65741" lon="2.8957">
        <ele>1073</ele>
        <time>2012-09-15T11:31:40Z</time>
      </trkpt>
      <trkpt lat="45.65724" lon="2.89572">
        <ele>1073</ele>
        <time>2012-09-15T11:31:45Z</time>
      </trkpt>
      <trkpt lat="45.65708" lon="2.89562">
        <ele>1073</ele>
        <time>2012-09-15T11:31:51Z</time>
      </trkpt>
      <trkpt lat="45.65709" lon="2.89538">
        <ele>1073</ele>
        <time>2012-09-15T11:31:56Z</time>
      </trkpt>
      <trkpt lat="45.65711" lon="2.89513">
        <ele>1073</ele>
        <time>2012-09-15T11:32:01Z</time>
      </trkpt>
      <trkpt lat="45.65712" lon="2.8949">
        <ele>1073</ele>
        <time>2012-09-15T11:32:06Z</time>
      </trkpt>
      <trkpt lat="45.65713" lon="2.89471">
        <ele>1074</ele>
        <time>2012-09-15T11:32:11Z</time>
      </trkpt>
      <trkpt lat="45.65714" lon="2.89453">
        <ele>1075</ele>
        <time>2012-09-15T11:32:16Z</time>
      </trkpt>
      <trkpt lat="45.65716" lon="2.89428">
        <ele>1076</ele>
        <time>2012-09-15T11:32:22Z</time>
      </trkpt>
      <trkpt lat="45.65719" lon="2.89402">
        <ele>1076</ele>
        <time>2012-09-15T11:32:27Z</time>
      </trkpt>
      <trkpt lat="45.65721" lon="2.89369">
        <ele>1076</ele>
        <time>2012-09-15T11:32:32Z</time>
      </trkpt>
      <trkpt lat="45.65724" lon="2.89334">
        <ele>1076</ele>
        <time>2012-09-15T11:32:37Z</time>
      </trkpt>
      <trkpt lat="45.65728" lon="2.893">
        <ele>1076</ele>
        <time>2012-09-15T11:32:42Z</time>
      </trkpt>
      <trkpt lat="45.6573" lon="2.8926">
        <ele>1076</ele>
        <time>2012-09-15T11:32:48Z</time>
      </trkpt>
      <trkpt lat="45.65721" lon="2.89237">
        <ele>1077</ele>
        <time>2012-09-15T11:32:53Z</time>
      </trkpt>
      <trkpt lat="45.65701" lon="2.89236">
        <ele>1077</ele>
        <time>2012-09-15T11:32:58Z</time>
      </trkpt>
      <trkpt lat="45.65678" lon="2.89237">
        <ele>1079</ele>
        <time>2012-09-15T11:33:04Z</time>
      </trkpt>
      <trkpt lat="45.65656" lon="2.89235">
        <ele>1080</ele>
        <time>2012-09-15T11:33:09Z</time>
      </trkpt>
      <trkpt lat="45.65631" lon="2.89236">
        <ele>1080</ele>
        <time>2012-09-15T11:33:15Z</time>
      </trkpt>
      <trkpt lat="45.6561" lon="2.89235">
        <ele>1080</ele>
        <time>2012-09-15T11:33:20Z</time>
      </trkpt>
      <trkpt lat="45.65588" lon="2.8923">
        <ele>1081</ele>
        <time>2012-09-15T11:33:26Z</time>
      </trkpt>
      <trkpt lat="45.65572" lon="2.89226">
        <ele>1081</ele>
        <time>2012-09-15T11:33:31Z</time>
      </trkpt>
      <trkpt lat="45.65559" lon="2.8922">
        <ele>1083</ele>
        <time>2012-09-15T11:33:36Z</time>
      </trkpt>
      <trkpt lat="45.65546" lon="2.89214">
        <ele>1084</ele>
        <time>2012-09-15T11:33:41Z</time>
      </trkpt>
      <trkpt lat="45.65536" lon="2.89214">
        <ele>1085</ele>
        <time>2012-09-15T11:33:46Z</time>
      </trkpt>
      <trkpt lat="45.65527" lon="2.89215">
        <ele>1085</ele>
        <time>2012-09-15T11:33:51Z</time>
      </trkpt>
      <trkpt lat="45.65519" lon="2.89217">
        <ele>1086</ele>
        <time>2012-09-15T11:33:56Z</time>
      </trkpt>
      <trkpt lat="45.6551" lon="2.89218">
        <ele>1087</ele>
        <time>2012-09-15T11:34:01Z</time>
      </trkpt>
      <trkpt lat="45.655" lon="2.89218">
        <ele>1088</ele>
        <time>2012-09-15T11:34:06Z</time>
      </trkpt>
      <trkpt lat="45.65491" lon="2.89221">
        <ele>1088</ele>
        <time>2012-09-15T11:34:11Z</time>
      </trkpt>
      <trkpt lat="45.65482" lon="2.8922">
        <ele>1088</ele>
        <time>2012-09-15T11:34:16Z</time>
      </trkpt>
      <trkpt lat="45.65472" lon="2.89219">
        <ele>1089</ele>
        <time>2012-09-15T11:34:21Z</time>
      </trkpt>
      <trkpt lat="45.65463" lon="2.89219">
        <ele>1090</ele>
        <time>2012-09-15T11:34:26Z</time>
      </trkpt>
      <trkpt lat="45.65454" lon="2.89216">
        <ele>1090</ele>
        <time>2012-09-15T11:34:31Z</time>
      </trkpt>
      <trkpt lat="45.6545" lon="2.89201">
        <ele>1091</ele>
        <time>2012-09-15T11:34:36Z</time>
      </trkpt>
      <trkpt lat="45.65446" lon="2.89177">
        <ele>1093</ele>
        <time>2012-09-15T11:34:41Z</time>
      </trkpt>
      <trkpt lat="45.65446" lon="2.89153">
        <ele>1097</ele>
        <time>2012-09-15T11:34:46Z</time>
      </trkpt>
      <trkpt lat="45.65444" lon="2.89129">
        <ele>1100</ele>
        <time>2012-09-15T11:34:51Z</time>
      </trkpt>
      <trkpt lat="45.65442" lon="2.891">
        <ele>1102</ele>
        <time>2012-09-15T11:34:56Z</time>
      </trkpt>
      <trkpt lat="45.65438" lon="2.89074">
        <ele>1106</ele>
        <time>2012-09-15T11:35:01Z</time>
      </trkpt>
      <trkpt lat="45.65435" lon="2.89053">
        <ele>1106</ele>
        <time>2012-09-15T11:35:06Z</time>
      </trkpt>
      <trkpt lat="45.65426" lon="2.89027">
        <ele>1104</ele>
        <time>2012-09-15T11:35:11Z</time>
      </trkpt>
      <trkpt lat="45.65421" lon="2.89003">
        <ele>1103</ele>
        <time>2012-09-15T11:35:16Z</time>
      </trkpt>
      <trkpt lat="45.65413" lon="2.88977">
        <ele>1102</ele>
        <time>2012-09-15T11:35:21Z</time>
      </trkpt>
      <trkpt lat="45.65406" lon="2.88949">
        <ele>1101</ele>
        <time>2012-09-15T11:35:26Z</time>
      </trkpt>
      <trkpt lat="45.65384" lon="2.88933">
        <ele>1101</ele>
        <time>2012-09-15T11:35:31Z</time>
      </trkpt>
      <trkpt lat="45.65363" lon="2.88943">
        <ele>1101</ele>
        <time>2012-09-15T11:35:36Z</time>
      </trkpt>
      <trkpt lat="45.65347" lon="2.88948">
        <ele>1101</ele>
        <time>2012-09-15T11:35:41Z</time>
      </trkpt>
      <trkpt lat="45.65328" lon="2.88948">
        <ele>1101</ele>
        <time>2012-09-15T11:35:46Z</time>
      </trkpt>
      <trkpt lat="45.65313" lon="2.8895">
        <ele>1101</ele>
        <time>2012-09-15T11:35:51Z</time>
      </trkpt>
      <trkpt lat="45.65299" lon="2.88949">
        <ele>1102</ele>
        <time>2012-09-15T11:35:56Z</time>
      </trkpt>
      <trkpt lat="45.65282" lon="2.88944">
        <ele>1107</ele>
        <time>2012-09-15T11:36:01Z</time>
      </trkpt>
      <trkpt lat="45.65267" lon="2.88946">
        <ele>1111</ele>
        <time>2012-09-15T11:36:06Z</time>
      </trkpt>
      <trkpt lat="45.65254" lon="2.88946">
        <ele>1113</ele>
        <time>2012-09-15T11:36:11Z</time>
      </trkpt>
      <trkpt lat="45.65238" lon="2.88944">
        <ele>1117</ele>
        <time>2012-09-15T11:36:16Z</time>
      </trkpt>
      <trkpt lat="45.65226" lon="2.88943">
        <ele>1120</ele>
        <time>2012-09-15T11:36:21Z</time>
      </trkpt>
      <trkpt lat="45.65211" lon="2.88944">
        <ele>1120</ele>
        <time>2012-09-15T11:36:26Z</time>
      </trkpt>
      <trkpt lat="45.65194" lon="2.88947">
        <ele>1120</ele>
        <time>2012-09-15T11:36:32Z</time>
      </trkpt>
      <trkpt lat="45.65182" lon="2.8895">
        <ele>1120</ele>
        <time>2012-09-15T11:36:37Z</time>
      </trkpt>
      <trkpt lat="45.65162" lon="2.8895">
        <ele>1120</ele>
        <time>2012-09-15T11:36:42Z</time>
      </trkpt>
      <trkpt lat="45.65141" lon="2.88949">
        <ele>1117</ele>
        <time>2012-09-15T11:36:48Z</time>
      </trkpt>
      <trkpt lat="45.65121" lon="2.88947">
        <ele>1117</ele>
        <time>2012-09-15T11:36:53Z</time>
      </trkpt>
      <trkpt lat="45.65102" lon="2.88954">
        <ele>1117</ele>
        <time>2012-09-15T11:36:59Z</time>
      </trkpt>
      <trkpt lat="45.65083" lon="2.88958">
        <ele>1117</ele>
        <time>2012-09-15T11:37:04Z</time>
      </trkpt>
      <trkpt lat="45.65061" lon="2.88958">
        <ele>1117</ele>
        <time>2012-09-15T11:37:09Z</time>
      </trkpt>
      <trkpt lat="45.65041" lon="2.88961">
        <ele>1116</ele>
        <time>2012-09-15T11:37:14Z</time>
      </trkpt>
      <trkpt lat="45.65021" lon="2.88961">
        <ele>1113</ele>
        <time>2012-09-15T11:37:19Z</time>
      </trkpt>
      <trkpt lat="45.65004" lon="2.8896">
        <ele>1112</ele>
        <time>2012-09-15T11:37:24Z</time>
      </trkpt>
      <trkpt lat="45.64992" lon="2.88942">
        <ele>1110</ele>
        <time>2012-09-15T11:37:29Z</time>
      </trkpt>
      <trkpt lat="45.64976" lon="2.88919">
        <ele>1108</ele>
        <time>2012-09-15T11:37:34Z</time>
      </trkpt>
      <trkpt lat="45.6496" lon="2.88894">
        <ele>1108</ele>
        <time>2012-09-15T11:37:39Z</time>
      </trkpt>
      <trkpt lat="45.64947" lon="2.88871">
        <ele>1105</ele>
        <time>2012-09-15T11:37:44Z</time>
      </trkpt>
      <trkpt lat="45.64935" lon="2.88852">
        <ele>1103</ele>
        <time>2012-09-15T11:37:49Z</time>
      </trkpt>
      <trkpt lat="45.64922" lon="2.8884">
        <ele>1102</ele>
        <time>2012-09-15T11:37:54Z</time>
      </trkpt>
      <trkpt lat="45.64914" lon="2.88837">
        <ele>1101</ele>
        <time>2012-09-15T11:37:59Z</time>
      </trkpt>
      <trkpt lat="45.64904" lon="2.88824">
        <ele>1101</ele>
        <time>2012-09-15T11:38:04Z</time>
      </trkpt>
      <trkpt lat="45.64893" lon="2.88811">
        <ele>1100</ele>
        <time>2012-09-15T11:38:09Z</time>
      </trkpt>
      <trkpt lat="45.64879" lon="2.88799">
        <ele>1098</ele>
        <time>2012-09-15T11:38:14Z</time>
      </trkpt>
      <trkpt lat="45.64866" lon="2.88791">
        <ele>1098</ele>
        <time>2012-09-15T11:38:19Z</time>
      </trkpt>
      <trkpt lat="45.64854" lon="2.88781">
        <ele>1096</ele>
        <time>2012-09-15T11:38:24Z</time>
      </trkpt>
      <trkpt lat="45.64851" lon="2.88774">
        <ele>1096</ele>
        <time>2012-09-15T11:38:29Z</time>
      </trkpt>
      <trkpt lat="45.64859" lon="2.88767">
        <ele>1096</ele>
        <time>2012-09-15T11:38:35Z</time>
      </trkpt>
      <trkpt lat="45.64875" lon="2.88754">
        <ele>1095</ele>
        <time>2012-09-15T11:38:40Z</time>
      </trkpt>
      <trkpt lat="45.64899" lon="2.88735">
        <ele>1093</ele>
        <time>2012-09-15T11:38:45Z</time>
      </trkpt>
      <trkpt lat="45.64928" lon="2.88713">
        <ele>1090</ele>
        <time>2012-09-15T11:38:50Z</time>
      </trkpt>
      <trkpt lat="45.64929" lon="2.88692">
        <ele>1088</ele>
        <time>2012-09-15T11:38:55Z</time>
      </trkpt>
      <trkpt lat="45.64917" lon="2.88687">
        <ele>1088</ele>
        <time>2012-09-15T11:39:01Z</time>
      </trkpt>
      <trkpt lat="45.64909" lon="2.88683">
        <ele>1088</ele>
        <time>2012-09-15T11:39:06Z</time>
      </trkpt>
      <trkpt lat="45.64901" lon="2.88674">
        <ele>1088</ele>
        <time>2012-09-15T11:39:11Z</time>
      </trkpt>
      <trkpt lat="45.64892" lon="2.88668">
        <ele>1090</ele>
        <time>2012-09-15T11:39:16Z</time>
      </trkpt>
      <trkpt lat="45.64886" lon="2.88664">
        <ele>1092</ele>
        <time>2012-09-15T11:39:21Z</time>
      </trkpt>
      <trkpt lat="45.64877" lon="2.88655">
        <ele>1093</ele>
        <time>2012-09-15T11:39:27Z</time>
      </trkpt>
      <trkpt lat="45.64869" lon="2.88647">
        <ele>1094</ele>
        <time>2012-09-15T11:39:32Z</time>
      </trkpt>
      <trkpt lat="45.6486" lon="2.88637">
        <ele>1095</ele>
        <time>2012-09-15T11:39:37Z</time>
      </trkpt>
      <trkpt lat="45.64851" lon="2.88628">
        <ele>1098</ele>
        <time>2012-09-15T11:39:42Z</time>
      </trkpt>
      <trkpt lat="45.64843" lon="2.88619">
        <ele>1101</ele>
        <time>2012-09-15T11:39:47Z</time>
      </trkpt>
      <trkpt lat="45.64836" lon="2.8861">
        <ele>1103</ele>
        <time>2012-09-15T11:39:52Z</time>
      </trkpt>
      <trkpt lat="45.64824" lon="2.88599">
        <ele>1105</ele>
        <time>2012-09-15T11:39:58Z</time>
      </trkpt>
      <trkpt lat="45.64812" lon="2.88591">
        <ele>1106</ele>
        <time>2012-09-15T11:40:03Z</time>
      </trkpt>
      <trkpt lat="45.64803" lon="2.88583">
        <ele>1106</ele>
        <time>2012-09-15T11:40:08Z</time>
      </trkpt>
      <trkpt lat="45.64793" lon="2.88574">
        <ele>1106</ele>
        <time>2012-09-15T11:40:13Z</time>
      </trkpt>
      <trkpt lat="45.64783" lon="2.88566">
        <ele>1106</ele>
        <time>2012-09-15T11:40:19Z</time>
      </trkpt>
      <trkpt lat="45.64773" lon="2.88557">
        <ele>1107</ele>
        <time>2012-09-15T11:40:25Z</time>
      </trkpt>
      <trkpt lat="45.64764" lon="2.8855">
        <ele>1107</ele>
        <time>2012-09-15T11:40:30Z</time>
      </trkpt>
      <trkpt lat="45.64755" lon="2.88541">
        <ele>1107</ele>
        <time>2012-09-15T11:40:35Z</time>
      </trkpt>
      <trkpt lat="45.64743" lon="2.88531">
        <ele>1107</ele>
        <time>2012-09-15T11:40:40Z</time>
      </trkpt>
      <trkpt lat="45.64731" lon="2.88522">
        <ele>1107</ele>
        <time>2012-09-15T11:40:45Z</time>
      </trkpt>
      <trkpt lat="45.64719" lon="2.88517">
        <ele>1107</ele>
        <time>2012-09-15T11:40:50Z</time>
      </trkpt>
      <trkpt lat="45.64705" lon="2.8851">
        <ele>1107</ele>
        <time>2012-09-15T11:40:55Z</time>
      </trkpt>
      <trkpt lat="45.64691" lon="2.885">
        <ele>1107</ele>
        <time>2012-09-15T11:41:00Z</time>
      </trkpt>
      <trkpt lat="45.64677" lon="2.88491">
        <ele>1107</ele>
        <time>2012-09-15T11:41:05Z</time>
      </trkpt>
      <trkpt lat="45.64663" lon="2.88481">
        <ele>1107</ele>
        <time>2012-09-15T11:41:10Z</time>
      </trkpt>
      <trkpt lat="45.64653" lon="2.88489">
        <ele>1107</ele>
        <time>2012-09-15T11:41:16Z</time>
      </trkpt>
      <trkpt lat="45.64651" lon="2.88479">
        <ele>1110</ele>
        <time>2012-09-15T11:41:21Z</time>
      </trkpt>
      <trkpt lat="45.64645" lon="2.88468">
        <ele>1112</ele>
        <time>2012-09-15T11:41:26Z</time>
      </trkpt>
      <trkpt lat="45.64632" lon="2.8846">
        <ele>1113</ele>
        <time>2012-09-15T11:41:31Z</time>
      </trkpt>
      <trkpt lat="45.64623" lon="2.88454">
        <ele>1113</ele>
        <time>2012-09-15T11:41:36Z</time>
      </trkpt>
      <trkpt lat="45.64611" lon="2.88448">
        <ele>1113</ele>
        <time>2012-09-15T11:41:41Z</time>
      </trkpt>
      <trkpt lat="45.64603" lon="2.8844">
        <ele>1113</ele>
        <time>2012-09-15T11:41:46Z</time>
      </trkpt>
      <trkpt lat="45.64597" lon="2.88436">
        <ele>1113</ele>
        <time>2012-09-15T11:41:51Z</time>
      </trkpt>
      <trkpt lat="45.6459" lon="2.88427">
        <ele>1113</ele>
        <time>2012-09-15T11:41:57Z</time>
      </trkpt>
      <trkpt lat="45.64587" lon="2.88418">
        <ele>1113</ele>
        <time>2012-09-15T11:42:02Z</time>
      </trkpt>
      <trkpt lat="45.64581" lon="2.884">
        <ele>1114</ele>
        <time>2012-09-15T11:42:08Z</time>
      </trkpt>
      <trkpt lat="45.64575" lon="2.88387">
        <ele>1116</ele>
        <time>2012-09-15T11:42:13Z</time>
      </trkpt>
      <trkpt lat="45.64569" lon="2.88374">
        <ele>1116</ele>
        <time>2012-09-15T11:42:18Z</time>
      </trkpt>
      <trkpt lat="45.6457" lon="2.88365">
        <ele>1116</ele>
        <time>2012-09-15T11:42:23Z</time>
      </trkpt>
      <trkpt lat="45.64566" lon="2.8835">
        <ele>1116</ele>
        <time>2012-09-15T11:42:29Z</time>
      </trkpt>
      <trkpt lat="45.64561" lon="2.88336">
        <ele>1116</ele>
        <time>2012-09-15T11:42:34Z</time>
      </trkpt>
      <trkpt lat="45.64559" lon="2.88319">
        <ele>1116</ele>
        <time>2012-09-15T11:42:39Z</time>
      </trkpt>
      <trkpt lat="45.6455" lon="2.88303">
        <ele>1116</ele>
        <time>2012-09-15T11:42:44Z</time>
      </trkpt>
      <trkpt lat="45.64542" lon="2.88289">
        <ele>1115</ele>
        <time>2012-09-15T11:42:49Z</time>
      </trkpt>
      <trkpt lat="45.64537" lon="2.88271">
        <ele>1115</ele>
        <time>2012-09-15T11:42:54Z</time>
      </trkpt>
      <trkpt lat="45.64527" lon="2.88248">
        <ele>1115</ele>
        <time>2012-09-15T11:43:00Z</time>
      </trkpt>
      <trkpt lat="45.64522" lon="2.8823">
        <ele>1115</ele>
        <time>2012-09-15T11:43:05Z</time>
      </trkpt>
      <trkpt lat="45.6452" lon="2.88214">
        <ele>1115</ele>
        <time>2012-09-15T11:43:10Z</time>
      </trkpt>
      <trkpt lat="45.64516" lon="2.88197">
        <ele>1115</ele>
        <time>2012-09-15T11:43:15Z</time>
      </trkpt>
      <trkpt lat="45.64513" lon="2.88181">
        <ele>1115</ele>
        <time>2012-09-15T11:43:20Z</time>
      </trkpt>
      <trkpt lat="45.64507" lon="2.88165">
        <ele>1115</ele>
        <time>2012-09-15T11:43:25Z</time>
      </trkpt>
      <trkpt lat="45.645" lon="2.8815">
        <ele>1115</ele>
        <time>2012-09-15T11:43:30Z</time>
      </trkpt>
      <trkpt lat="45.64492" lon="2.88133">
        <ele>1116</ele>
        <time>2012-09-15T11:43:35Z</time>
      </trkpt>
      <trkpt lat="45.64478" lon="2.88127">
        <ele>1117</ele>
        <time>2012-09-15T11:43:40Z</time>
      </trkpt>
      <trkpt lat="45.64465" lon="2.88132">
        <ele>1120</ele>
        <time>2012-09-15T11:43:45Z</time>
      </trkpt>
      <trkpt lat="45.6445" lon="2.8814">
        <ele>1125</ele>
        <time>2012-09-15T11:43:50Z</time>
      </trkpt>
      <trkpt lat="45.64433" lon="2.88155">
        <ele>1131</ele>
        <time>2012-09-15T11:43:56Z</time>
      </trkpt>
      <trkpt lat="45.64419" lon="2.88166">
        <ele>1134</ele>
        <time>2012-09-15T11:44:01Z</time>
      </trkpt>
      <trkpt lat="45.64405" lon="2.88175">
        <ele>1134</ele>
        <time>2012-09-15T11:44:06Z</time>
      </trkpt>
      <trkpt lat="45.64392" lon="2.88181">
        <ele>1134</ele>
        <time>2012-09-15T11:44:11Z</time>
      </trkpt>
      <trkpt lat="45.64379" lon="2.88185">
        <ele>1134</ele>
        <time>2012-09-15T11:44:16Z</time>
      </trkpt>
      <trkpt lat="45.64367" lon="2.88188">
        <ele>1134</ele>
        <time>2012-09-15T11:44:21Z</time>
      </trkpt>
      <trkpt lat="45.64356" lon="2.88193">
        <ele>1134</ele>
        <time>2012-09-15T11:44:26Z</time>
      </trkpt>
      <trkpt lat="45.64347" lon="2.88196">
        <ele>1134</ele>
        <time>2012-09-15T11:44:31Z</time>
      </trkpt>
      <trkpt lat="45.64338" lon="2.88196">
        <ele>1134</ele>
        <time>2012-09-15T11:44:36Z</time>
      </trkpt>
      <trkpt lat="45.64328" lon="2.88193">
        <ele>1134</ele>
        <time>2012-09-15T11:44:41Z</time>
      </trkpt>
      <trkpt lat="45.64318" lon="2.8819">
        <ele>1134</ele>
        <time>2012-09-15T11:44:46Z</time>
      </trkpt>
      <trkpt lat="45.64308" lon="2.88187">
        <ele>1134</ele>
        <time>2012-09-15T11:44:51Z</time>
      </trkpt>
      <trkpt lat="45.64298" lon="2.88183">
        <ele>1134</ele>
        <time>2012-09-15T11:44:56Z</time>
      </trkpt>
      <trkpt lat="45.64288" lon="2.88182">
        <ele>1136</ele>
        <time>2012-09-15T11:45:01Z</time>
      </trkpt>
      <trkpt lat="45.64279" lon="2.88179">
        <ele>1136</ele>
        <time>2012-09-15T11:45:06Z</time>
      </trkpt>
      <trkpt lat="45.6427" lon="2.88177">
        <ele>1137</ele>
        <time>2012-09-15T11:45:11Z</time>
      </trkpt>
      <trkpt lat="45.64261" lon="2.8818">
        <ele>1138</ele>
        <time>2012-09-15T11:45:16Z</time>
      </trkpt>
      <trkpt lat="45.64249" lon="2.88182">
        <ele>1138</ele>
        <time>2012-09-15T11:45:21Z</time>
      </trkpt>
      <trkpt lat="45.64238" lon="2.88183">
        <ele>1139</ele>
        <time>2012-09-15T11:45:26Z</time>
      </trkpt>
      <trkpt lat="45.64228" lon="2.88185">
        <ele>1140</ele>
        <time>2012-09-15T11:45:31Z</time>
      </trkpt>
      <trkpt lat="45.64222" lon="2.88189">
        <ele>1141</ele>
        <time>2012-09-15T11:45:36Z</time>
      </trkpt>
      <trkpt lat="45.64214" lon="2.8819">
        <ele>1141</ele>
        <time>2012-09-15T11:45:41Z</time>
      </trkpt>
      <trkpt lat="45.64202" lon="2.88194">
        <ele>1141</ele>
        <time>2012-09-15T11:45:46Z</time>
      </trkpt>
      <trkpt lat="45.64191" lon="2.88195">
        <ele>1142</ele>
        <time>2012-09-15T11:45:51Z</time>
      </trkpt>
      <trkpt lat="45.64181" lon="2.88196">
        <ele>1145</ele>
        <time>2012-09-15T11:45:56Z</time>
      </trkpt>
      <trkpt lat="45.64169" lon="2.88198">
        <ele>1145</ele>
        <time>2012-09-15T11:46:01Z</time>
      </trkpt>
      <trkpt lat="45.64158" lon="2.88201">
        <ele>1145</ele>
        <time>2012-09-15T11:46:06Z</time>
      </trkpt>
      <trkpt lat="45.64147" lon="2.88205">
        <ele>1147</ele>
        <time>2012-09-15T11:46:11Z</time>
      </trkpt>
      <trkpt lat="45.64136" lon="2.88208">
        <ele>1147</ele>
        <time>2012-09-15T11:46:16Z</time>
      </trkpt>
      <trkpt lat="45.64124" lon="2.88212">
        <ele>1148</ele>
        <time>2012-09-15T11:46:21Z</time>
      </trkpt>
      <trkpt lat="45.64112" lon="2.88218">
        <ele>1148</ele>
        <time>2012-09-15T11:46:26Z</time>
      </trkpt>
      <trkpt lat="45.64099" lon="2.88221">
        <ele>1149</ele>
        <time>2012-09-15T11:46:31Z</time>
      </trkpt>
      <trkpt lat="45.64085" lon="2.88224">
        <ele>1150</ele>
        <time>2012-09-15T11:46:36Z</time>
      </trkpt>
      <trkpt lat="45.64072" lon="2.88232">
        <ele>1150</ele>
        <time>2012-09-15T11:46:41Z</time>
      </trkpt>
      <trkpt lat="45.64061" lon="2.88242">
        <ele>1152</ele>
        <time>2012-09-15T11:46:46Z</time>
      </trkpt>
      <trkpt lat="45.6405" lon="2.88253">
        <ele>1154</ele>
        <time>2012-09-15T11:46:51Z</time>
      </trkpt>
      <trkpt lat="45.64042" lon="2.88268">
        <ele>1155</ele>
        <time>2012-09-15T11:46:56Z</time>
      </trkpt>
      <trkpt lat="45.64034" lon="2.88286">
        <ele>1158</ele>
        <time>2012-09-15T11:47:01Z</time>
      </trkpt>
      <trkpt lat="45.64025" lon="2.88302">
        <ele>1160</ele>
        <time>2012-09-15T11:47:06Z</time>
      </trkpt>
      <trkpt lat="45.64014" lon="2.88321">
        <ele>1160</ele>
        <time>2012-09-15T11:47:11Z</time>
      </trkpt>
      <trkpt lat="45.64006" lon="2.88341">
        <ele>1160</ele>
        <time>2012-09-15T11:47:16Z</time>
      </trkpt>
      <trkpt lat="45.64" lon="2.88363">
        <ele>1160</ele>
        <time>2012-09-15T11:47:21Z</time>
      </trkpt>
      <trkpt lat="45.63992" lon="2.88385">
        <ele>1160</ele>
        <time>2012-09-15T11:47:26Z</time>
      </trkpt>
      <trkpt lat="45.63986" lon="2.88404">
        <ele>1160</ele>
        <time>2012-09-15T11:47:31Z</time>
      </trkpt>
      <trkpt lat="45.6398" lon="2.88422">
        <ele>1160</ele>
        <time>2012-09-15T11:47:36Z</time>
      </trkpt>
      <trkpt lat="45.63972" lon="2.88441">
        <ele>1160</ele>
        <time>2012-09-15T11:47:41Z</time>
      </trkpt>
      <trkpt lat="45.63965" lon="2.88462">
        <ele>1160</ele>
        <time>2012-09-15T11:47:46Z</time>
      </trkpt>
      <trkpt lat="45.63954" lon="2.88485">
        <ele>1160</ele>
        <time>2012-09-15T11:47:51Z</time>
      </trkpt>
      <trkpt lat="45.63946" lon="2.88504">
        <ele>1160</ele>
        <time>2012-09-15T11:47:56Z</time>
      </trkpt>
      <trkpt lat="45.63938" lon="2.88525">
        <ele>1163</ele>
        <time>2012-09-15T11:48:01Z</time>
      </trkpt>
      <trkpt lat="45.63931" lon="2.88545">
        <ele>1167</ele>
        <time>2012-09-15T11:48:06Z</time>
      </trkpt>
      <trkpt lat="45.63923" lon="2.88564">
        <ele>1169</ele>
        <time>2012-09-15T11:48:11Z</time>
      </trkpt>
      <trkpt lat="45.63918" lon="2.88584">
        <ele>1170</ele>
        <time>2012-09-15T11:48:16Z</time>
      </trkpt>
      <trkpt lat="45.63911" lon="2.88601">
        <ele>1173</ele>
        <time>2012-09-15T11:48:21Z</time>
      </trkpt>
      <trkpt lat="45.63903" lon="2.88623">
        <ele>1173</ele>
        <time>2012-09-15T11:48:26Z</time>
      </trkpt>
      <trkpt lat="45.63894" lon="2.88643">
        <ele>1173</ele>
        <time>2012-09-15T11:48:31Z</time>
      </trkpt>
      <trkpt lat="45.63883" lon="2.88663">
        <ele>1173</ele>
        <time>2012-09-15T11:48:36Z</time>
      </trkpt>
      <trkpt lat="45.63872" lon="2.88682">
        <ele>1173</ele>
        <time>2012-09-15T11:48:41Z</time>
      </trkpt>
      <trkpt lat="45.63863" lon="2.88702">
        <ele>1173</ele>
        <time>2012-09-15T11:48:46Z</time>
      </trkpt>
      <trkpt lat="45.63854" lon="2.88719">
        <ele>1173</ele>
        <time>2012-09-15T11:48:51Z</time>
      </trkpt>
      <trkpt lat="45.63844" lon="2.8874">
        <ele>1172</ele>
        <time>2012-09-15T11:48:56Z</time>
      </trkpt>
      <trkpt lat="45.63831" lon="2.88762">
        <ele>1172</ele>
        <time>2012-09-15T11:49:01Z</time>
      </trkpt>
      <trkpt lat="45.63817" lon="2.8878">
        <ele>1172</ele>
        <time>2012-09-15T11:49:06Z</time>
      </trkpt>
      <trkpt lat="45.63805" lon="2.88797">
        <ele>1172</ele>
        <time>2012-09-15T11:49:11Z</time>
      </trkpt>
      <trkpt lat="45.63787" lon="2.88813">
        <ele>1172</ele>
        <time>2012-09-15T11:49:16Z</time>
      </trkpt>
      <trkpt lat="45.63769" lon="2.88833">
        <ele>1172</ele>
        <time>2012-09-15T11:49:21Z</time>
      </trkpt>
      <trkpt lat="45.63751" lon="2.88851">
        <ele>1172</ele>
        <time>2012-09-15T11:49:26Z</time>
      </trkpt>
      <trkpt lat="45.63737" lon="2.88871">
        <ele>1169</ele>
        <time>2012-09-15T11:49:31Z</time>
      </trkpt>
      <trkpt lat="45.63726" lon="2.88884">
        <ele>1168</ele>
        <time>2012-09-15T11:49:36Z</time>
      </trkpt>
      <trkpt lat="45.63713" lon="2.88898">
        <ele>1166</ele>
        <time>2012-09-15T11:49:41Z</time>
      </trkpt>
      <trkpt lat="45.63703" lon="2.88916">
        <ele>1165</ele>
        <time>2012-09-15T11:49:46Z</time>
      </trkpt>
      <trkpt lat="45.63696" lon="2.88939">
        <ele>1165</ele>
        <time>2012-09-15T11:49:51Z</time>
      </trkpt>
      <trkpt lat="45.63688" lon="2.88961">
        <ele>1165</ele>
        <time>2012-09-15T11:49:56Z</time>
      </trkpt>
      <trkpt lat="45.63677" lon="2.8896">
        <ele>1165</ele>
        <time>2012-09-15T11:50:01Z</time>
      </trkpt>
      <trkpt lat="45.63664" lon="2.88953">
        <ele>1165</ele>
        <time>2012-09-15T11:50:07Z</time>
      </trkpt>
      <trkpt lat="45.63652" lon="2.88946">
        <ele>1165</ele>
        <time>2012-09-15T11:50:12Z</time>
      </trkpt>
      <trkpt lat="45.63642" lon="2.88938">
        <ele>1166</ele>
        <time>2012-09-15T11:50:17Z</time>
      </trkpt>
      <trkpt lat="45.63631" lon="2.88935">
        <ele>1167</ele>
        <time>2012-09-15T11:50:22Z</time>
      </trkpt>
      <trkpt lat="45.63622" lon="2.88929">
        <ele>1168</ele>
        <time>2012-09-15T11:50:27Z</time>
      </trkpt>
      <trkpt lat="45.63608" lon="2.88927">
        <ele>1171</ele>
        <time>2012-09-15T11:50:36Z</time>
      </trkpt>
      <trkpt lat="45.63604" lon="2.88922">
        <ele>1171</ele>
        <time>2012-09-15T11:50:42Z</time>
      </trkpt>
      <trkpt lat="45.63598" lon="2.88915">
        <ele>1171</ele>
        <time>2012-09-15T11:50:47Z</time>
      </trkpt>
      <trkpt lat="45.63589" lon="2.88908">
        <ele>1171</ele>
        <time>2012-09-15T11:50:52Z</time>
      </trkpt>
      <trkpt lat="45.6358" lon="2.88899">
        <ele>1171</ele>
        <time>2012-09-15T11:50:57Z</time>
      </trkpt>
      <trkpt lat="45.6357" lon="2.8889">
        <ele>1171</ele>
        <time>2012-09-15T11:51:02Z</time>
      </trkpt>
      <trkpt lat="45.6356" lon="2.88881">
        <ele>1171</ele>
        <time>2012-09-15T11:51:07Z</time>
      </trkpt>
      <trkpt lat="45.63549" lon="2.88871">
        <ele>1172</ele>
        <time>2012-09-15T11:51:12Z</time>
      </trkpt>
      <trkpt lat="45.63539" lon="2.88861">
        <ele>1174</ele>
        <time>2012-09-15T11:51:17Z</time>
      </trkpt>
      <trkpt lat="45.63526" lon="2.8886">
        <ele>1176</ele>
        <time>2012-09-15T11:51:22Z</time>
      </trkpt>
      <trkpt lat="45.63512" lon="2.88868">
        <ele>1177</ele>
        <time>2012-09-15T11:51:27Z</time>
      </trkpt>
      <trkpt lat="45.63497" lon="2.88874">
        <ele>1177</ele>
        <time>2012-09-15T11:51:32Z</time>
      </trkpt>
      <trkpt lat="45.63486" lon="2.88861">
        <ele>1178</ele>
        <time>2012-09-15T11:51:37Z</time>
      </trkpt>
      <trkpt lat="45.63481" lon="2.88842">
        <ele>1178</ele>
        <time>2012-09-15T11:51:42Z</time>
      </trkpt>
      <trkpt lat="45.6348" lon="2.88822">
        <ele>1178</ele>
        <time>2012-09-15T11:51:47Z</time>
      </trkpt>
      <trkpt lat="45.63471" lon="2.88807">
        <ele>1180</ele>
        <time>2012-09-15T11:51:52Z</time>
      </trkpt>
      <trkpt lat="45.63458" lon="2.88805">
        <ele>1183</ele>
        <time>2012-09-15T11:51:57Z</time>
      </trkpt>
      <trkpt lat="45.63446" lon="2.88808">
        <ele>1185</ele>
        <time>2012-09-15T11:52:02Z</time>
      </trkpt>
      <trkpt lat="45.63435" lon="2.88811">
        <ele>1186</ele>
        <time>2012-09-15T11:52:07Z</time>
      </trkpt>
      <trkpt lat="45.63423" lon="2.88812">
        <ele>1188</ele>
        <time>2012-09-15T11:52:12Z</time>
      </trkpt>
      <trkpt lat="45.63408" lon="2.88811">
        <ele>1190</ele>
        <time>2012-09-15T11:52:17Z</time>
      </trkpt>
      <trkpt lat="45.63395" lon="2.88809">
        <ele>1190</ele>
        <time>2012-09-15T11:52:22Z</time>
      </trkpt>
      <trkpt lat="45.63379" lon="2.88799">
        <ele>1190</ele>
        <time>2012-09-15T11:52:28Z</time>
      </trkpt>
      <trkpt lat="45.63365" lon="2.88789">
        <ele>1190</ele>
        <time>2012-09-15T11:52:33Z</time>
      </trkpt>
      <trkpt lat="45.63354" lon="2.88782">
        <ele>1190</ele>
        <time>2012-09-15T11:52:41Z</time>
      </trkpt>
      <trkpt lat="45.63351" lon="2.88777">
        <ele>1190</ele>
        <time>2012-09-15T11:52:46Z</time>
      </trkpt>
      <trkpt lat="45.63346" lon="2.88766">
        <ele>1190</ele>
        <time>2012-09-15T11:52:51Z</time>
      </trkpt>
      <trkpt lat="45.63339" lon="2.8875">
        <ele>1190</ele>
        <time>2012-09-15T11:52:56Z</time>
      </trkpt>
      <trkpt lat="45.63333" lon="2.88735">
        <ele>1190</ele>
        <time>2012-09-15T11:53:01Z</time>
      </trkpt>
      <trkpt lat="45.63328" lon="2.88719">
        <ele>1190</ele>
        <time>2012-09-15T11:53:06Z</time>
      </trkpt>
      <trkpt lat="45.63323" lon="2.88701">
        <ele>1190</ele>
        <time>2012-09-15T11:53:11Z</time>
      </trkpt>
      <trkpt lat="45.63319" lon="2.88683">
        <ele>1190</ele>
        <time>2012-09-15T11:53:16Z</time>
      </trkpt>
      <trkpt lat="45.63314" lon="2.88666">
        <ele>1191</ele>
        <time>2012-09-15T11:53:21Z</time>
      </trkpt>
      <trkpt lat="45.63311" lon="2.88648">
        <ele>1191</ele>
        <time>2012-09-15T11:53:26Z</time>
      </trkpt>
      <trkpt lat="45.63307" lon="2.88631">
        <ele>1192</ele>
        <time>2012-09-15T11:53:31Z</time>
      </trkpt>
      <trkpt lat="45.63303" lon="2.88614">
        <ele>1192</ele>
        <time>2012-09-15T11:53:36Z</time>
      </trkpt>
      <trkpt lat="45.63297" lon="2.88595">
        <ele>1193</ele>
        <time>2012-09-15T11:53:41Z</time>
      </trkpt>
      <trkpt lat="45.63287" lon="2.88581">
        <ele>1194</ele>
        <time>2012-09-15T11:53:46Z</time>
      </trkpt>
      <trkpt lat="45.63275" lon="2.88571">
        <ele>1195</ele>
        <time>2012-09-15T11:53:51Z</time>
      </trkpt>
      <trkpt lat="45.63261" lon="2.88567">
        <ele>1196</ele>
        <time>2012-09-15T11:53:56Z</time>
      </trkpt>
      <trkpt lat="45.63248" lon="2.88562">
        <ele>1196</ele>
        <time>2012-09-15T11:54:01Z</time>
      </trkpt>
      <trkpt lat="45.63234" lon="2.88558">
        <ele>1197</ele>
        <time>2012-09-15T11:54:06Z</time>
      </trkpt>
      <trkpt lat="45.6322" lon="2.88554">
        <ele>1198</ele>
        <time>2012-09-15T11:54:11Z</time>
      </trkpt>
      <trkpt lat="45.63205" lon="2.8855">
        <ele>1198</ele>
        <time>2012-09-15T11:54:16Z</time>
      </trkpt>
      <trkpt lat="45.63193" lon="2.88546">
        <ele>1199</ele>
        <time>2012-09-15T11:54:21Z</time>
      </trkpt>
      <trkpt lat="45.63182" lon="2.88541">
        <ele>1200</ele>
        <time>2012-09-15T11:54:26Z</time>
      </trkpt>
      <trkpt lat="45.6317" lon="2.88538">
        <ele>1201</ele>
        <time>2012-09-15T11:54:31Z</time>
      </trkpt>
      <trkpt lat="45.6316" lon="2.88538">
        <ele>1203</ele>
        <time>2012-09-15T11:54:36Z</time>
      </trkpt>
      <trkpt lat="45.63149" lon="2.88542">
        <ele>1203</ele>
        <time>2012-09-15T11:54:41Z</time>
      </trkpt>
      <trkpt lat="45.63139" lon="2.88546">
        <ele>1204</ele>
        <time>2012-09-15T11:54:46Z</time>
      </trkpt>
      <trkpt lat="45.63127" lon="2.88547">
        <ele>1205</ele>
        <time>2012-09-15T11:54:51Z</time>
      </trkpt>
      <trkpt lat="45.63115" lon="2.88543">
        <ele>1206</ele>
        <time>2012-09-15T11:54:56Z</time>
      </trkpt>
      <trkpt lat="45.63103" lon="2.88536">
        <ele>1207</ele>
        <time>2012-09-15T11:55:01Z</time>
      </trkpt>
      <trkpt lat="45.63093" lon="2.88524">
        <ele>1208</ele>
        <time>2012-09-15T11:55:06Z</time>
      </trkpt>
      <trkpt lat="45.63084" lon="2.8851">
        <ele>1209</ele>
        <time>2012-09-15T11:55:11Z</time>
      </trkpt>
      <trkpt lat="45.63076" lon="2.88495">
        <ele>1210</ele>
        <time>2012-09-15T11:55:16Z</time>
      </trkpt>
      <trkpt lat="45.63068" lon="2.88481">
        <ele>1211</ele>
        <time>2012-09-15T11:55:21Z</time>
      </trkpt>
      <trkpt lat="45.63061" lon="2.88468">
        <ele>1212</ele>
        <time>2012-09-15T11:55:26Z</time>
      </trkpt>
      <trkpt lat="45.63053" lon="2.88453">
        <ele>1213</ele>
        <time>2012-09-15T11:55:31Z</time>
      </trkpt>
      <trkpt lat="45.63044" lon="2.88438">
        <ele>1213</ele>
        <time>2012-09-15T11:55:36Z</time>
      </trkpt>
      <trkpt lat="45.63036" lon="2.88422">
        <ele>1214</ele>
        <time>2012-09-15T11:55:41Z</time>
      </trkpt>
      <trkpt lat="45.63028" lon="2.88408">
        <ele>1215</ele>
        <time>2012-09-15T11:55:46Z</time>
      </trkpt>
      <trkpt lat="45.6302" lon="2.88393">
        <ele>1216</ele>
        <time>2012-09-15T11:55:51Z</time>
      </trkpt>
      <trkpt lat="45.63014" lon="2.88376">
        <ele>1217</ele>
        <time>2012-09-15T11:55:56Z</time>
      </trkpt>
      <trkpt lat="45.63007" lon="2.88358">
        <ele>1217</ele>
        <time>2012-09-15T11:56:01Z</time>
      </trkpt>
      <trkpt lat="45.62999" lon="2.88338">
        <ele>1218</ele>
        <time>2012-09-15T11:56:06Z</time>
      </trkpt>
      <trkpt lat="45.62991" lon="2.88319">
        <ele>1218</ele>
        <time>2012-09-15T11:56:11Z</time>
      </trkpt>
      <trkpt lat="45.62983" lon="2.883">
        <ele>1218</ele>
        <time>2012-09-15T11:56:16Z</time>
      </trkpt>
      <trkpt lat="45.62975" lon="2.88282">
        <ele>1219</ele>
        <time>2012-09-15T11:56:21Z</time>
      </trkpt>
      <trkpt lat="45.62967" lon="2.88263">
        <ele>1219</ele>
        <time>2012-09-15T11:56:26Z</time>
      </trkpt>
      <trkpt lat="45.62958" lon="2.88244">
        <ele>1220</ele>
        <time>2012-09-15T11:56:31Z</time>
      </trkpt>
      <trkpt lat="45.6295" lon="2.88225">
        <ele>1220</ele>
        <time>2012-09-15T11:56:36Z</time>
      </trkpt>
      <trkpt lat="45.62942" lon="2.88206">
        <ele>1221</ele>
        <time>2012-09-15T11:56:41Z</time>
      </trkpt>
      <trkpt lat="45.62934" lon="2.88187">
        <ele>1221</ele>
        <time>2012-09-15T11:56:46Z</time>
      </trkpt>
      <trkpt lat="45.62926" lon="2.88168">
        <ele>1222</ele>
        <time>2012-09-15T11:56:51Z</time>
      </trkpt>
      <trkpt lat="45.62919" lon="2.88148">
        <ele>1223</ele>
        <time>2012-09-15T11:56:56Z</time>
      </trkpt>
      <trkpt lat="45.62911" lon="2.88129">
        <ele>1223</ele>
        <time>2012-09-15T11:57:01Z</time>
      </trkpt>
      <trkpt lat="45.62903" lon="2.8811">
        <ele>1224</ele>
        <time>2012-09-15T11:57:06Z</time>
      </trkpt>
      <trkpt lat="45.62896" lon="2.8809">
        <ele>1225</ele>
        <time>2012-09-15T11:57:11Z</time>
      </trkpt>
      <trkpt lat="45.62888" lon="2.88071">
        <ele>1226</ele>
        <time>2012-09-15T11:57:16Z</time>
      </trkpt>
      <trkpt lat="45.6288" lon="2.8805">
        <ele>1226</ele>
        <time>2012-09-15T11:57:21Z</time>
      </trkpt>
      <trkpt lat="45.62873" lon="2.88028">
        <ele>1226</ele>
        <time>2012-09-15T11:57:26Z</time>
      </trkpt>
      <trkpt lat="45.62865" lon="2.88004">
        <ele>1226</ele>
        <time>2012-09-15T11:57:31Z</time>
      </trkpt>
      <trkpt lat="45.62852" lon="2.87986">
        <ele>1226</ele>
        <time>2012-09-15T11:57:36Z</time>
      </trkpt>
      <trkpt lat="45.62836" lon="2.87974">
        <ele>1226</ele>
        <time>2012-09-15T11:57:41Z</time>
      </trkpt>
      <trkpt lat="45.62822" lon="2.87969">
        <ele>1226</ele>
        <time>2012-09-15T11:57:46Z</time>
      </trkpt>
      <trkpt lat="45.62808" lon="2.87969">
        <ele>1227</ele>
        <time>2012-09-15T11:57:51Z</time>
      </trkpt>
      <trkpt lat="45.62796" lon="2.87969">
        <ele>1229</ele>
        <time>2012-09-15T11:57:56Z</time>
      </trkpt>
      <trkpt lat="45.62786" lon="2.87969">
        <ele>1230</ele>
        <time>2012-09-15T11:58:01Z</time>
      </trkpt>
      <trkpt lat="45.62777" lon="2.87966">
        <ele>1230</ele>
        <time>2012-09-15T11:58:06Z</time>
      </trkpt>
      <trkpt lat="45.62772" lon="2.87955">
        <ele>1231</ele>
        <time>2012-09-15T11:58:11Z</time>
      </trkpt>
      <trkpt lat="45.62772" lon="2.87942">
        <ele>1232</ele>
        <time>2012-09-15T11:58:16Z</time>
      </trkpt>
      <trkpt lat="45.62773" lon="2.8793">
        <ele>1233</ele>
        <time>2012-09-15T11:58:21Z</time>
      </trkpt>
      <trkpt lat="45.62775" lon="2.87918">
        <ele>1234</ele>
        <time>2012-09-15T11:58:26Z</time>
      </trkpt>
      <trkpt lat="45.62778" lon="2.87907">
        <ele>1236</ele>
        <time>2012-09-15T11:58:31Z</time>
      </trkpt>
      <trkpt lat="45.62781" lon="2.87896">
        <ele>1236</ele>
        <time>2012-09-15T11:58:36Z</time>
      </trkpt>
      <trkpt lat="45.62783" lon="2.87882">
        <ele>1238</ele>
        <time>2012-09-15T11:58:42Z</time>
      </trkpt>
      <trkpt lat="45.62786" lon="2.8787">
        <ele>1239</ele>
        <time>2012-09-15T11:58:48Z</time>
      </trkpt>
      <trkpt lat="45.62788" lon="2.87858">
        <ele>1240</ele>
        <time>2012-09-15T11:58:53Z</time>
      </trkpt>
      <trkpt lat="45.62789" lon="2.87846">
        <ele>1241</ele>
        <time>2012-09-15T11:58:58Z</time>
      </trkpt>
      <trkpt lat="45.62789" lon="2.87834">
        <ele>1242</ele>
        <time>2012-09-15T11:59:03Z</time>
      </trkpt>
      <trkpt lat="45.62791" lon="2.87824">
        <ele>1243</ele>
        <time>2012-09-15T11:59:08Z</time>
      </trkpt>
      <trkpt lat="45.62792" lon="2.87823">
        <ele>1244</ele>
        <time>2012-09-15T11:59:15Z</time>
      </trkpt>
      <trkpt lat="45.62791" lon="2.87819">
        <ele>1244</ele>
        <time>2012-09-15T11:59:21Z</time>
      </trkpt>
      <trkpt lat="45.62788" lon="2.87812">
        <ele>1244</ele>
        <time>2012-09-15T11:59:26Z</time>
      </trkpt>
      <trkpt lat="45.62787" lon="2.87806">
        <ele>1244</ele>
        <time>2012-09-15T11:59:34Z</time>
      </trkpt>
      <trkpt lat="45.62786" lon="2.87795">
        <ele>1244</ele>
        <time>2012-09-15T11:59:39Z</time>
      </trkpt>
      <trkpt lat="45.62784" lon="2.87783">
        <ele>1244</ele>
        <time>2012-09-15T11:59:44Z</time>
      </trkpt>
      <trkpt lat="45.6278" lon="2.8777">
        <ele>1245</ele>
        <time>2012-09-15T11:59:49Z</time>
      </trkpt>
      <trkpt lat="45.62777" lon="2.87757">
        <ele>1246</ele>
        <time>2012-09-15T11:59:54Z</time>
      </trkpt>
      <trkpt lat="45.62774" lon="2.87744">
        <ele>1247</ele>
        <time>2012-09-15T11:59:59Z</time>
      </trkpt>
      <trkpt lat="45.6277" lon="2.87728">
        <ele>1248</ele>
        <time>2012-09-15T12:00:05Z</time>
      </trkpt>
      <trkpt lat="45.62766" lon="2.87717">
        <ele>1248</ele>
        <time>2012-09-15T12:00:10Z</time>
      </trkpt>
      <trkpt lat="45.62762" lon="2.87703">
        <ele>1249</ele>
        <time>2012-09-15T12:00:15Z</time>
      </trkpt>
      <trkpt lat="45.6276" lon="2.8769">
        <ele>1251</ele>
        <time>2012-09-15T12:00:20Z</time>
      </trkpt>
      <trkpt lat="45.62757" lon="2.87677">
        <ele>1252</ele>
        <time>2012-09-15T12:00:25Z</time>
      </trkpt>
      <trkpt lat="45.62754" lon="2.87664">
        <ele>1253</ele>
        <time>2012-09-15T12:00:30Z</time>
      </trkpt>
      <trkpt lat="45.62751" lon="2.87651">
        <ele>1254</ele>
        <time>2012-09-15T12:00:35Z</time>
      </trkpt>
      <trkpt lat="45.62748" lon="2.87638">
        <ele>1255</ele>
        <time>2012-09-15T12:00:40Z</time>
      </trkpt>
      <trkpt lat="45.62745" lon="2.87626">
        <ele>1256</ele>
        <time>2012-09-15T12:00:45Z</time>
      </trkpt>
      <trkpt lat="45.62741" lon="2.87614">
        <ele>1257</ele>
        <time>2012-09-15T12:00:50Z</time>
      </trkpt>
      <trkpt lat="45.62738" lon="2.87602">
        <ele>1257</ele>
        <time>2012-09-15T12:00:55Z</time>
      </trkpt>
      <trkpt lat="45.62734" lon="2.8759">
        <ele>1258</ele>
        <time>2012-09-15T12:01:00Z</time>
      </trkpt>
      <trkpt lat="45.6273" lon="2.87578">
        <ele>1259</ele>
        <time>2012-09-15T12:01:05Z</time>
      </trkpt>
      <trkpt lat="45.62727" lon="2.87565">
        <ele>1260</ele>
        <time>2012-09-15T12:01:10Z</time>
      </trkpt>
      <trkpt lat="45.62724" lon="2.87554">
        <ele>1261</ele>
        <time>2012-09-15T12:01:15Z</time>
      </trkpt>
      <trkpt lat="45.6272" lon="2.87542">
        <ele>1262</ele>
        <time>2012-09-15T12:01:20Z</time>
      </trkpt>
      <trkpt lat="45.62716" lon="2.8753">
        <ele>1263</ele>
        <time>2012-09-15T12:01:25Z</time>
      </trkpt>
      <trkpt lat="45.62711" lon="2.87518">
        <ele>1264</ele>
        <time>2012-09-15T12:01:30Z</time>
      </trkpt>
      <trkpt lat="45.62707" lon="2.87507">
        <ele>1265</ele>
        <time>2012-09-15T12:01:35Z</time>
      </trkpt>
      <trkpt lat="45.62702" lon="2.87496">
        <ele>1266</ele>
        <time>2012-09-15T12:01:40Z</time>
      </trkpt>
      <trkpt lat="45.62698" lon="2.87484">
        <ele>1266</ele>
        <time>2012-09-15T12:01:45Z</time>
      </trkpt>
      <trkpt lat="45.62693" lon="2.87472">
        <ele>1267</ele>
        <time>2012-09-15T12:01:50Z</time>
      </trkpt>
      <trkpt lat="45.62687" lon="2.87462">
        <ele>1268</ele>
        <time>2012-09-15T12:01:55Z</time>
      </trkpt>
      <trkpt lat="45.62681" lon="2.87452">
        <ele>1269</ele>
        <time>2012-09-15T12:02:00Z</time>
      </trkpt>
      <trkpt lat="45.62674" lon="2.87444">
        <ele>1270</ele>
        <time>2012-09-15T12:02:05Z</time>
      </trkpt>
      <trkpt lat="45.62667" lon="2.87436">
        <ele>1270</ele>
        <time>2012-09-15T12:02:10Z</time>
      </trkpt>
      <trkpt lat="45.62659" lon="2.87428">
        <ele>1271</ele>
        <time>2012-09-15T12:02:15Z</time>
      </trkpt>
      <trkpt lat="45.62651" lon="2.87421">
        <ele>1272</ele>
        <time>2012-09-15T12:02:20Z</time>
      </trkpt>
      <trkpt lat="45.62643" lon="2.87416">
        <ele>1272</ele>
        <time>2012-09-15T12:02:25Z</time>
      </trkpt>
      <trkpt lat="45.62634" lon="2.87411">
        <ele>1273</ele>
        <time>2012-09-15T12:02:30Z</time>
      </trkpt>
      <trkpt lat="45.62625" lon="2.87408">
        <ele>1274</ele>
        <time>2012-09-15T12:02:35Z</time>
      </trkpt>
      <trkpt lat="45.62616" lon="2.87411">
        <ele>1275</ele>
        <time>2012-09-15T12:02:40Z</time>
      </trkpt>
      <trkpt lat="45.62614" lon="2.87423">
        <ele>1276</ele>
        <time>2012-09-15T12:02:45Z</time>
      </trkpt>
      <trkpt lat="45.62616" lon="2.87437">
        <ele>1276</ele>
        <time>2012-09-15T12:02:50Z</time>
      </trkpt>
      <trkpt lat="45.62619" lon="2.87449">
        <ele>1277</ele>
        <time>2012-09-15T12:02:55Z</time>
      </trkpt>
      <trkpt lat="45.62622" lon="2.87463">
        <ele>1279</ele>
        <time>2012-09-15T12:03:00Z</time>
      </trkpt>
      <trkpt lat="45.62625" lon="2.87475">
        <ele>1280</ele>
        <time>2012-09-15T12:03:05Z</time>
      </trkpt>
      <trkpt lat="45.62628" lon="2.87488">
        <ele>1281</ele>
        <time>2012-09-15T12:03:10Z</time>
      </trkpt>
      <trkpt lat="45.62632" lon="2.87502">
        <ele>1281</ele>
        <time>2012-09-15T12:03:15Z</time>
      </trkpt>
      <trkpt lat="45.62635" lon="2.87516">
        <ele>1282</ele>
        <time>2012-09-15T12:03:20Z</time>
      </trkpt>
      <trkpt lat="45.6264" lon="2.8753">
        <ele>1282</ele>
        <time>2012-09-15T12:03:25Z</time>
      </trkpt>
      <trkpt lat="45.62643" lon="2.87544">
        <ele>1282</ele>
        <time>2012-09-15T12:03:30Z</time>
      </trkpt>
      <trkpt lat="45.62648" lon="2.87558">
        <ele>1283</ele>
        <time>2012-09-15T12:03:35Z</time>
      </trkpt>
      <trkpt lat="45.62651" lon="2.87572">
        <ele>1283</ele>
        <time>2012-09-15T12:03:40Z</time>
      </trkpt>
      <trkpt lat="45.62655" lon="2.87586">
        <ele>1284</ele>
        <time>2012-09-15T12:03:45Z</time>
      </trkpt>
      <trkpt lat="45.62656" lon="2.87602">
        <ele>1284</ele>
        <time>2012-09-15T12:03:50Z</time>
      </trkpt>
      <trkpt lat="45.62657" lon="2.87617">
        <ele>1284</ele>
        <time>2012-09-15T12:03:55Z</time>
      </trkpt>
      <trkpt lat="45.62658" lon="2.87634">
        <ele>1285</ele>
        <time>2012-09-15T12:04:00Z</time>
      </trkpt>
      <trkpt lat="45.62656" lon="2.87653">
        <ele>1285</ele>
        <time>2012-09-15T12:04:06Z</time>
      </trkpt>
      <trkpt lat="45.62656" lon="2.87669">
        <ele>1286</ele>
        <time>2012-09-15T12:04:11Z</time>
      </trkpt>
      <trkpt lat="45.62655" lon="2.87685">
        <ele>1286</ele>
        <time>2012-09-15T12:04:16Z</time>
      </trkpt>
      <trkpt lat="45.62654" lon="2.87705">
        <ele>1287</ele>
        <time>2012-09-15T12:04:21Z</time>
      </trkpt>
      <trkpt lat="45.62652" lon="2.87723">
        <ele>1289</ele>
        <time>2012-09-15T12:04:26Z</time>
      </trkpt>
      <trkpt lat="45.62649" lon="2.8774">
        <ele>1290</ele>
        <time>2012-09-15T12:04:31Z</time>
      </trkpt>
      <trkpt lat="45.62645" lon="2.87755">
        <ele>1291</ele>
        <time>2012-09-15T12:04:36Z</time>
      </trkpt>
      <trkpt lat="45.62642" lon="2.87769">
        <ele>1292</ele>
        <time>2012-09-15T12:04:41Z</time>
      </trkpt>
      <trkpt lat="45.62637" lon="2.87784">
        <ele>1293</ele>
        <time>2012-09-15T12:04:46Z</time>
      </trkpt>
      <trkpt lat="45.62634" lon="2.87799">
        <ele>1294</ele>
        <time>2012-09-15T12:04:51Z</time>
      </trkpt>
      <trkpt lat="45.62629" lon="2.87813">
        <ele>1295</ele>
        <time>2012-09-15T12:04:56Z</time>
      </trkpt>
      <trkpt lat="45.62625" lon="2.87828">
        <ele>1296</ele>
        <time>2012-09-15T12:05:01Z</time>
      </trkpt>
      <trkpt lat="45.6262" lon="2.87842">
        <ele>1296</ele>
        <time>2012-09-15T12:05:06Z</time>
      </trkpt>
      <trkpt lat="45.62616" lon="2.87856">
        <ele>1297</ele>
        <time>2012-09-15T12:05:11Z</time>
      </trkpt>
      <trkpt lat="45.62611" lon="2.87871">
        <ele>1298</ele>
        <time>2012-09-15T12:05:16Z</time>
      </trkpt>
      <trkpt lat="45.62606" lon="2.87885">
        <ele>1298</ele>
        <time>2012-09-15T12:05:21Z</time>
      </trkpt>
      <trkpt lat="45.62599" lon="2.87898">
        <ele>1299</ele>
        <time>2012-09-15T12:05:26Z</time>
      </trkpt>
      <trkpt lat="45.62593" lon="2.87911">
        <ele>1300</ele>
        <time>2012-09-15T12:05:31Z</time>
      </trkpt>
      <trkpt lat="45.62587" lon="2.87924">
        <ele>1300</ele>
        <time>2012-09-15T12:05:36Z</time>
      </trkpt>
      <trkpt lat="45.6258" lon="2.87937">
        <ele>1301</ele>
        <time>2012-09-15T12:05:41Z</time>
      </trkpt>
      <trkpt lat="45.62572" lon="2.8795">
        <ele>1301</ele>
        <time>2012-09-15T12:05:46Z</time>
      </trkpt>
      <trkpt lat="45.62564" lon="2.87962">
        <ele>1301</ele>
        <time>2012-09-15T12:05:51Z</time>
      </trkpt>
      <trkpt lat="45.62554" lon="2.8797">
        <ele>1302</ele>
        <time>2012-09-15T12:05:56Z</time>
      </trkpt>
      <trkpt lat="45.62543" lon="2.87977">
        <ele>1302</ele>
        <time>2012-09-15T12:06:01Z</time>
      </trkpt>
      <trkpt lat="45.62533" lon="2.87981">
        <ele>1303</ele>
        <time>2012-09-15T12:06:06Z</time>
      </trkpt>
      <trkpt lat="45.62522" lon="2.87982">
        <ele>1303</ele>
        <time>2012-09-15T12:06:11Z</time>
      </trkpt>
      <trkpt lat="45.62511" lon="2.87981">
        <ele>1304</ele>
        <time>2012-09-15T12:06:16Z</time>
      </trkpt>
      <trkpt lat="45.62501" lon="2.87978">
        <ele>1305</ele>
        <time>2012-09-15T12:06:21Z</time>
      </trkpt>
      <trkpt lat="45.62491" lon="2.87973">
        <ele>1306</ele>
        <time>2012-09-15T12:06:26Z</time>
      </trkpt>
      <trkpt lat="45.62481" lon="2.87966">
        <ele>1307</ele>
        <time>2012-09-15T12:06:31Z</time>
      </trkpt>
      <trkpt lat="45.62472" lon="2.87961">
        <ele>1308</ele>
        <time>2012-09-15T12:06:36Z</time>
      </trkpt>
      <trkpt lat="45.62462" lon="2.87955">
        <ele>1309</ele>
        <time>2012-09-15T12:06:41Z</time>
      </trkpt>
      <trkpt lat="45.62453" lon="2.87948">
        <ele>1309</ele>
        <time>2012-09-15T12:06:46Z</time>
      </trkpt>
      <trkpt lat="45.62447" lon="2.87938">
        <ele>1310</ele>
        <time>2012-09-15T12:06:51Z</time>
      </trkpt>
      <trkpt lat="45.62451" lon="2.87926">
        <ele>1312</ele>
        <time>2012-09-15T12:06:56Z</time>
      </trkpt>
      <trkpt lat="45.6246" lon="2.87918">
        <ele>1312</ele>
        <time>2012-09-15T12:07:01Z</time>
      </trkpt>
      <trkpt lat="45.62468" lon="2.87909">
        <ele>1313</ele>
        <time>2012-09-15T12:07:06Z</time>
      </trkpt>
      <trkpt lat="45.62475" lon="2.87899">
        <ele>1313</ele>
        <time>2012-09-15T12:07:11Z</time>
      </trkpt>
      <trkpt lat="45.62482" lon="2.87888">
        <ele>1313</ele>
        <time>2012-09-15T12:07:16Z</time>
      </trkpt>
      <trkpt lat="45.62487" lon="2.87876">
        <ele>1314</ele>
        <time>2012-09-15T12:07:21Z</time>
      </trkpt>
      <trkpt lat="45.62493" lon="2.87863">
        <ele>1314</ele>
        <time>2012-09-15T12:07:26Z</time>
      </trkpt>
      <trkpt lat="45.625" lon="2.87849">
        <ele>1315</ele>
        <time>2012-09-15T12:07:31Z</time>
      </trkpt>
      <trkpt lat="45.62506" lon="2.87835">
        <ele>1315</ele>
        <time>2012-09-15T12:07:36Z</time>
      </trkpt>
      <trkpt lat="45.62512" lon="2.87821">
        <ele>1316</ele>
        <time>2012-09-15T12:07:41Z</time>
      </trkpt>
      <trkpt lat="45.62517" lon="2.87807">
        <ele>1316</ele>
        <time>2012-09-15T12:07:46Z</time>
      </trkpt>
      <trkpt lat="45.62523" lon="2.87792">
        <ele>1317</ele>
        <time>2012-09-15T12:07:51Z</time>
      </trkpt>
      <trkpt lat="45.62527" lon="2.87778">
        <ele>1318</ele>
        <time>2012-09-15T12:07:56Z</time>
      </trkpt>
      <trkpt lat="45.6253" lon="2.87764">
        <ele>1319</ele>
        <time>2012-09-15T12:08:01Z</time>
      </trkpt>
      <trkpt lat="45.62533" lon="2.87749">
        <ele>1320</ele>
        <time>2012-09-15T12:08:06Z</time>
      </trkpt>
      <trkpt lat="45.62535" lon="2.87733">
        <ele>1321</ele>
        <time>2012-09-15T12:08:11Z</time>
      </trkpt>
      <trkpt lat="45.62537" lon="2.87717">
        <ele>1322</ele>
        <time>2012-09-15T12:08:16Z</time>
      </trkpt>
      <trkpt lat="45.62537" lon="2.87701">
        <ele>1323</ele>
        <time>2012-09-15T12:08:21Z</time>
      </trkpt>
      <trkpt lat="45.62537" lon="2.87685">
        <ele>1324</ele>
        <time>2012-09-15T12:08:26Z</time>
      </trkpt>
      <trkpt lat="45.62535" lon="2.87669">
        <ele>1325</ele>
        <time>2012-09-15T12:08:31Z</time>
      </trkpt>
      <trkpt lat="45.62532" lon="2.87654">
        <ele>1326</ele>
        <time>2012-09-15T12:08:36Z</time>
      </trkpt>
      <trkpt lat="45.6253" lon="2.87638">
        <ele>1327</ele>
        <time>2012-09-15T12:08:41Z</time>
      </trkpt>
      <trkpt lat="45.62528" lon="2.87623">
        <ele>1327</ele>
        <time>2012-09-15T12:08:46Z</time>
      </trkpt>
      <trkpt lat="45.62526" lon="2.87608">
        <ele>1328</ele>
        <time>2012-09-15T12:08:51Z</time>
      </trkpt>
      <trkpt lat="45.62523" lon="2.87594">
        <ele>1328</ele>
        <time>2012-09-15T12:08:56Z</time>
      </trkpt>
      <trkpt lat="45.62519" lon="2.8758">
        <ele>1329</ele>
        <time>2012-09-15T12:09:01Z</time>
      </trkpt>
      <trkpt lat="45.62514" lon="2.87568">
        <ele>1330</ele>
        <time>2012-09-15T12:09:06Z</time>
      </trkpt>
      <trkpt lat="45.62507" lon="2.87557">
        <ele>1331</ele>
        <time>2012-09-15T12:09:11Z</time>
      </trkpt>
      <trkpt lat="45.62499" lon="2.87546">
        <ele>1331</ele>
        <time>2012-09-15T12:09:16Z</time>
      </trkpt>
      <trkpt lat="45.62491" lon="2.87535">
        <ele>1332</ele>
        <time>2012-09-15T12:09:21Z</time>
      </trkpt>
      <trkpt lat="45.62483" lon="2.87525">
        <ele>1332</ele>
        <time>2012-09-15T12:09:26Z</time>
      </trkpt>
      <trkpt lat="45.62475" lon="2.87514">
        <ele>1333</ele>
        <time>2012-09-15T12:09:31Z</time>
      </trkpt>
      <trkpt lat="45.62466" lon="2.87503">
        <ele>1334</ele>
        <time>2012-09-15T12:09:36Z</time>
      </trkpt>
      <trkpt lat="45.62458" lon="2.87494">
        <ele>1334</ele>
        <time>2012-09-15T12:09:41Z</time>
      </trkpt>
      <trkpt lat="45.62448" lon="2.87485">
        <ele>1335</ele>
        <time>2012-09-15T12:09:46Z</time>
      </trkpt>
      <trkpt lat="45.6244" lon="2.87475">
        <ele>1336</ele>
        <time>2012-09-15T12:09:51Z</time>
      </trkpt>
      <trkpt lat="45.62431" lon="2.87465">
        <ele>1336</ele>
        <time>2012-09-15T12:09:56Z</time>
      </trkpt>
      <trkpt lat="45.62423" lon="2.87454">
        <ele>1337</ele>
        <time>2012-09-15T12:10:01Z</time>
      </trkpt>
      <trkpt lat="45.62413" lon="2.87443">
        <ele>1337</ele>
        <time>2012-09-15T12:10:06Z</time>
      </trkpt>
      <trkpt lat="45.62403" lon="2.87432">
        <ele>1338</ele>
        <time>2012-09-15T12:10:12Z</time>
      </trkpt>
      <trkpt lat="45.62394" lon="2.87422">
        <ele>1338</ele>
        <time>2012-09-15T12:10:17Z</time>
      </trkpt>
      <trkpt lat="45.62385" lon="2.87411">
        <ele>1339</ele>
        <time>2012-09-15T12:10:22Z</time>
      </trkpt>
      <trkpt lat="45.62376" lon="2.87401">
        <ele>1339</ele>
        <time>2012-09-15T12:10:27Z</time>
      </trkpt>
      <trkpt lat="45.62366" lon="2.8739">
        <ele>1340</ele>
        <time>2012-09-15T12:10:32Z</time>
      </trkpt>
      <trkpt lat="45.62356" lon="2.87379">
        <ele>1340</ele>
        <time>2012-09-15T12:10:37Z</time>
      </trkpt>
      <trkpt lat="45.62346" lon="2.87367">
        <ele>1340</ele>
        <time>2012-09-15T12:10:42Z</time>
      </trkpt>
      <trkpt lat="45.62335" lon="2.87355">
        <ele>1341</ele>
        <time>2012-09-15T12:10:47Z</time>
      </trkpt>
      <trkpt lat="45.62325" lon="2.87344">
        <ele>1341</ele>
        <time>2012-09-15T12:10:52Z</time>
      </trkpt>
      <trkpt lat="45.62315" lon="2.87332">
        <ele>1341</ele>
        <time>2012-09-15T12:10:57Z</time>
      </trkpt>
      <trkpt lat="45.62306" lon="2.8732">
        <ele>1341</ele>
        <time>2012-09-15T12:11:02Z</time>
      </trkpt>
      <trkpt lat="45.62296" lon="2.87308">
        <ele>1342</ele>
        <time>2012-09-15T12:11:07Z</time>
      </trkpt>
      <trkpt lat="45.62287" lon="2.87297">
        <ele>1343</ele>
        <time>2012-09-15T12:11:12Z</time>
      </trkpt>
      <trkpt lat="45.62278" lon="2.87286">
        <ele>1344</ele>
        <time>2012-09-15T12:11:17Z</time>
      </trkpt>
      <trkpt lat="45.62269" lon="2.87273">
        <ele>1344</ele>
        <time>2012-09-15T12:11:22Z</time>
      </trkpt>
      <trkpt lat="45.62259" lon="2.87261">
        <ele>1345</ele>
        <time>2012-09-15T12:11:27Z</time>
      </trkpt>
      <trkpt lat="45.62249" lon="2.87248">
        <ele>1345</ele>
        <time>2012-09-15T12:11:32Z</time>
      </trkpt>
      <trkpt lat="45.62239" lon="2.87236">
        <ele>1345</ele>
        <time>2012-09-15T12:11:37Z</time>
      </trkpt>
      <trkpt lat="45.62228" lon="2.87223">
        <ele>1346</ele>
        <time>2012-09-15T12:11:42Z</time>
      </trkpt>
      <trkpt lat="45.62218" lon="2.8721">
        <ele>1346</ele>
        <time>2012-09-15T12:11:47Z</time>
      </trkpt>
      <trkpt lat="45.62207" lon="2.87196">
        <ele>1346</ele>
        <time>2012-09-15T12:11:52Z</time>
      </trkpt>
      <trkpt lat="45.62196" lon="2.87182">
        <ele>1346</ele>
        <time>2012-09-15T12:11:57Z</time>
      </trkpt>
      <trkpt lat="45.62185" lon="2.87168">
        <ele>1346</ele>
        <time>2012-09-15T12:12:02Z</time>
      </trkpt>
      <trkpt lat="45.62175" lon="2.87156">
        <ele>1347</ele>
        <time>2012-09-15T12:12:07Z</time>
      </trkpt>
      <trkpt lat="45.62165" lon="2.87145">
        <ele>1347</ele>
        <time>2012-09-15T12:12:12Z</time>
      </trkpt>
      <trkpt lat="45.62157" lon="2.87133">
        <ele>1348</ele>
        <time>2012-09-15T12:12:17Z</time>
      </trkpt>
      <trkpt lat="45.62148" lon="2.8712">
        <ele>1349</ele>
        <time>2012-09-15T12:12:22Z</time>
      </trkpt>
      <trkpt lat="45.6214" lon="2.87109">
        <ele>1349</ele>
        <time>2012-09-15T12:12:27Z</time>
      </trkpt>
      <trkpt lat="45.6213" lon="2.87097">
        <ele>1350</ele>
        <time>2012-09-15T12:12:32Z</time>
      </trkpt>
      <trkpt lat="45.62122" lon="2.87086">
        <ele>1351</ele>
        <time>2012-09-15T12:12:37Z</time>
      </trkpt>
      <trkpt lat="45.62114" lon="2.87076">
        <ele>1352</ele>
        <time>2012-09-15T12:12:42Z</time>
      </trkpt>
      <trkpt lat="45.62106" lon="2.87066">
        <ele>1353</ele>
        <time>2012-09-15T12:12:47Z</time>
      </trkpt>
      <trkpt lat="45.62097" lon="2.87056">
        <ele>1354</ele>
        <time>2012-09-15T12:12:52Z</time>
      </trkpt>
      <trkpt lat="45.62089" lon="2.87046">
        <ele>1355</ele>
        <time>2012-09-15T12:12:57Z</time>
      </trkpt>
      <trkpt lat="45.6208" lon="2.87036">
        <ele>1356</ele>
        <time>2012-09-15T12:13:02Z</time>
      </trkpt>
      <trkpt lat="45.62072" lon="2.87027">
        <ele>1357</ele>
        <time>2012-09-15T12:13:07Z</time>
      </trkpt>
      <trkpt lat="45.62063" lon="2.87018">
        <ele>1358</ele>
        <time>2012-09-15T12:13:12Z</time>
      </trkpt>
      <trkpt lat="45.62056" lon="2.87009">
        <ele>1359</ele>
        <time>2012-09-15T12:13:17Z</time>
      </trkpt>
      <trkpt lat="45.62048" lon="2.87">
        <ele>1360</ele>
        <time>2012-09-15T12:13:22Z</time>
      </trkpt>
      <trkpt lat="45.62042" lon="2.86991">
        <ele>1361</ele>
        <time>2012-09-15T12:13:27Z</time>
      </trkpt>
      <trkpt lat="45.62038" lon="2.8698">
        <ele>1362</ele>
        <time>2012-09-15T12:13:32Z</time>
      </trkpt>
      <trkpt lat="45.62035" lon="2.86968">
        <ele>1363</ele>
        <time>2012-09-15T12:13:37Z</time>
      </trkpt>
      <trkpt lat="45.62033" lon="2.86955">
        <ele>1365</ele>
        <time>2012-09-15T12:13:42Z</time>
      </trkpt>
      <trkpt lat="45.62031" lon="2.86943">
        <ele>1366</ele>
        <time>2012-09-15T12:13:47Z</time>
      </trkpt>
      <trkpt lat="45.62032" lon="2.86932">
        <ele>1367</ele>
        <time>2012-09-15T12:13:52Z</time>
      </trkpt>
      <trkpt lat="45.6203" lon="2.86931">
        <ele>1368</ele>
        <time>2012-09-15T12:14:00Z</time>
      </trkpt>
      <trkpt lat="45.62028" lon="2.8693">
        <ele>1368</ele>
        <time>2012-09-15T12:14:06Z</time>
      </trkpt>
      <trkpt lat="45.62026" lon="2.86923">
        <ele>1368</ele>
        <time>2012-09-15T12:14:12Z</time>
      </trkpt>
      <trkpt lat="45.62024" lon="2.86916">
        <ele>1369</ele>
        <time>2012-09-15T12:14:17Z</time>
      </trkpt>
      <trkpt lat="45.62021" lon="2.86908">
        <ele>1369</ele>
        <time>2012-09-15T12:14:22Z</time>
      </trkpt>
      <trkpt lat="45.62018" lon="2.869">
        <ele>1371</ele>
        <time>2012-09-15T12:14:27Z</time>
      </trkpt>
      <trkpt lat="45.62012" lon="2.86895">
        <ele>1371</ele>
        <time>2012-09-15T12:14:32Z</time>
      </trkpt>
      <trkpt lat="45.62006" lon="2.86893">
        <ele>1371</ele>
        <time>2012-09-15T12:14:38Z</time>
      </trkpt>
      <trkpt lat="45.61999" lon="2.86891">
        <ele>1371</ele>
        <time>2012-09-15T12:14:44Z</time>
      </trkpt>
      <trkpt lat="45.61994" lon="2.86891">
        <ele>1371</ele>
        <time>2012-09-15T12:14:49Z</time>
      </trkpt>
      <trkpt lat="45.6199" lon="2.86889">
        <ele>1371</ele>
        <time>2012-09-15T12:14:54Z</time>
      </trkpt>
      <trkpt lat="45.61988" lon="2.86885">
        <ele>1371</ele>
        <time>2012-09-15T12:15:03Z</time>
      </trkpt>
      <trkpt lat="45.6199" lon="2.86884">
        <ele>1371</ele>
        <time>2012-09-15T12:15:14Z</time>
      </trkpt>
      <trkpt lat="45.61993" lon="2.86885">
        <ele>1371</ele>
        <time>2012-09-15T12:15:19Z</time>
      </trkpt>
      <trkpt lat="45.61995" lon="2.86884">
        <ele>1366</ele>
        <time>2012-09-15T12:15:28Z</time>
      </trkpt>
      <trkpt lat="45.61996" lon="2.86884">
        <ele>1363</ele>
        <time>2012-09-15T12:15:34Z</time>
      </trkpt>
      <trkpt lat="45.61998" lon="2.86888">
        <ele>1362</ele>
        <time>2012-09-15T12:15:40Z</time>
      </trkpt>
      <trkpt lat="45.61995" lon="2.8689">
        <ele>1362</ele>
        <time>2012-09-15T12:15:45Z</time>
      </trkpt>
      <trkpt lat="45.61988" lon="2.8689">
        <ele>1363</ele>
        <time>2012-09-15T12:15:50Z</time>
      </trkpt>
      <trkpt lat="45.61976" lon="2.86891">
        <ele>1366</ele>
        <time>2012-09-15T12:15:55Z</time>
      </trkpt>
      <trkpt lat="45.61963" lon="2.86891">
        <ele>1369</ele>
        <time>2012-09-15T12:16:00Z</time>
      </trkpt>
      <trkpt lat="45.6195" lon="2.86891">
        <ele>1371</ele>
        <time>2012-09-15T12:16:05Z</time>
      </trkpt>
      <trkpt lat="45.61937" lon="2.86892">
        <ele>1371</ele>
        <time>2012-09-15T12:16:10Z</time>
      </trkpt>
      <trkpt lat="45.61925" lon="2.8689">
        <ele>1371</ele>
        <time>2012-09-15T12:16:15Z</time>
      </trkpt>
      <trkpt lat="45.61915" lon="2.86884">
        <ele>1372</ele>
        <time>2012-09-15T12:16:20Z</time>
      </trkpt>
      <trkpt lat="45.61911" lon="2.8687">
        <ele>1374</ele>
        <time>2012-09-15T12:16:25Z</time>
      </trkpt>
      <trkpt lat="45.61911" lon="2.86855">
        <ele>1375</ele>
        <time>2012-09-15T12:16:30Z</time>
      </trkpt>
      <trkpt lat="45.6191" lon="2.86839">
        <ele>1376</ele>
        <time>2012-09-15T12:16:35Z</time>
      </trkpt>
      <trkpt lat="45.61908" lon="2.86823">
        <ele>1378</ele>
        <time>2012-09-15T12:16:40Z</time>
      </trkpt>
      <trkpt lat="45.61907" lon="2.86808">
        <ele>1379</ele>
        <time>2012-09-15T12:16:45Z</time>
      </trkpt>
      <trkpt lat="45.61906" lon="2.86794">
        <ele>1380</ele>
        <time>2012-09-15T12:16:50Z</time>
      </trkpt>
      <trkpt lat="45.61905" lon="2.8678">
        <ele>1381</ele>
        <time>2012-09-15T12:16:55Z</time>
      </trkpt>
      <trkpt lat="45.61903" lon="2.86766">
        <ele>1383</ele>
        <time>2012-09-15T12:17:00Z</time>
      </trkpt>
      <trkpt lat="45.61903" lon="2.86751">
        <ele>1386</ele>
        <time>2012-09-15T12:17:05Z</time>
      </trkpt>
      <trkpt lat="45.61901" lon="2.86738">
        <ele>1387</ele>
        <time>2012-09-15T12:17:10Z</time>
      </trkpt>
      <trkpt lat="45.61898" lon="2.86725">
        <ele>1389</ele>
        <time>2012-09-15T12:17:15Z</time>
      </trkpt>
      <trkpt lat="45.61897" lon="2.86712">
        <ele>1392</ele>
        <time>2012-09-15T12:17:20Z</time>
      </trkpt>
      <trkpt lat="45.61896" lon="2.86697">
        <ele>1395</ele>
        <time>2012-09-15T12:17:25Z</time>
      </trkpt>
      <trkpt lat="45.61893" lon="2.86677">
        <ele>1395</ele>
        <time>2012-09-15T12:17:30Z</time>
      </trkpt>
      <trkpt lat="45.6189" lon="2.8666">
        <ele>1396</ele>
        <time>2012-09-15T12:17:35Z</time>
      </trkpt>
      <trkpt lat="45.61888" lon="2.86645">
        <ele>1398</ele>
        <time>2012-09-15T12:17:40Z</time>
      </trkpt>
      <trkpt lat="45.61885" lon="2.86628">
        <ele>1400</ele>
        <time>2012-09-15T12:17:45Z</time>
      </trkpt>
      <trkpt lat="45.6188" lon="2.86611">
        <ele>1400</ele>
        <time>2012-09-15T12:17:50Z</time>
      </trkpt>
      <trkpt lat="45.61874" lon="2.86596">
        <ele>1400</ele>
        <time>2012-09-15T12:17:55Z</time>
      </trkpt>
      <trkpt lat="45.61868" lon="2.86584">
        <ele>1402</ele>
        <time>2012-09-15T12:18:00Z</time>
      </trkpt>
      <trkpt lat="45.6186" lon="2.86574">
        <ele>1403</ele>
        <time>2012-09-15T12:18:05Z</time>
      </trkpt>
      <trkpt lat="45.61852" lon="2.86564">
        <ele>1403</ele>
        <time>2012-09-15T12:18:10Z</time>
      </trkpt>
      <trkpt lat="45.61843" lon="2.86556">
        <ele>1403</ele>
        <time>2012-09-15T12:18:15Z</time>
      </trkpt>
      <trkpt lat="45.61834" lon="2.86546">
        <ele>1403</ele>
        <time>2012-09-15T12:18:20Z</time>
      </trkpt>
      <trkpt lat="45.61825" lon="2.86535">
        <ele>1403</ele>
        <time>2012-09-15T12:18:25Z</time>
      </trkpt>
      <trkpt lat="45.61817" lon="2.86523">
        <ele>1408</ele>
        <time>2012-09-15T12:18:30Z</time>
      </trkpt>
      <trkpt lat="45.61808" lon="2.8651">
        <ele>1412</ele>
        <time>2012-09-15T12:18:35Z</time>
      </trkpt>
      <trkpt lat="45.61799" lon="2.865">
        <ele>1416</ele>
        <time>2012-09-15T12:18:40Z</time>
      </trkpt>
      <trkpt lat="45.61792" lon="2.86489">
        <ele>1417</ele>
        <time>2012-09-15T12:18:45Z</time>
      </trkpt>
      <trkpt lat="45.61788" lon="2.86477">
        <ele>1417</ele>
        <time>2012-09-15T12:18:50Z</time>
      </trkpt>
      <trkpt lat="45.61784" lon="2.86467">
        <ele>1417</ele>
        <time>2012-09-15T12:18:55Z</time>
      </trkpt>
      <trkpt lat="45.61778" lon="2.86454">
        <ele>1417</ele>
        <time>2012-09-15T12:19:00Z</time>
      </trkpt>
      <trkpt lat="45.61772" lon="2.86443">
        <ele>1417</ele>
        <time>2012-09-15T12:19:05Z</time>
      </trkpt>
      <trkpt lat="45.61765" lon="2.86431">
        <ele>1417</ele>
        <time>2012-09-15T12:19:10Z</time>
      </trkpt>
      <trkpt lat="45.61758" lon="2.86418">
        <ele>1417</ele>
        <time>2012-09-15T12:19:15Z</time>
      </trkpt>
      <trkpt lat="45.61752" lon="2.86402">
        <ele>1417</ele>
        <time>2012-09-15T12:19:20Z</time>
      </trkpt>
      <trkpt lat="45.61745" lon="2.86389">
        <ele>1417</ele>
        <time>2012-09-15T12:19:25Z</time>
      </trkpt>
      <trkpt lat="45.61738" lon="2.86376">
        <ele>1417</ele>
        <time>2012-09-15T12:19:30Z</time>
      </trkpt>
      <trkpt lat="45.61732" lon="2.86363">
        <ele>1417</ele>
        <time>2012-09-15T12:19:35Z</time>
      </trkpt>
      <trkpt lat="45.61726" lon="2.86351">
        <ele>1417</ele>
        <time>2012-09-15T12:19:40Z</time>
      </trkpt>
      <trkpt lat="45.61718" lon="2.86338">
        <ele>1417</ele>
        <time>2012-09-15T12:19:45Z</time>
      </trkpt>
      <trkpt lat="45.6171" lon="2.86328">
        <ele>1417</ele>
        <time>2012-09-15T12:19:50Z</time>
      </trkpt>
      <trkpt lat="45.61701" lon="2.86319">
        <ele>1417</ele>
        <time>2012-09-15T12:19:55Z</time>
      </trkpt>
      <trkpt lat="45.61691" lon="2.86312">
        <ele>1417</ele>
        <time>2012-09-15T12:20:00Z</time>
      </trkpt>
      <trkpt lat="45.61682" lon="2.86305">
        <ele>1417</ele>
        <time>2012-09-15T12:20:05Z</time>
      </trkpt>
      <trkpt lat="45.61671" lon="2.86298">
        <ele>1417</ele>
        <time>2012-09-15T12:20:10Z</time>
      </trkpt>
      <trkpt lat="45.6166" lon="2.86292">
        <ele>1417</ele>
        <time>2012-09-15T12:20:15Z</time>
      </trkpt>
      <trkpt lat="45.61649" lon="2.86284">
        <ele>1417</ele>
        <time>2012-09-15T12:20:20Z</time>
      </trkpt>
      <trkpt lat="45.61638" lon="2.86274">
        <ele>1417</ele>
        <time>2012-09-15T12:20:25Z</time>
      </trkpt>
      <trkpt lat="45.61628" lon="2.86268">
        <ele>1418</ele>
        <time>2012-09-15T12:20:30Z</time>
      </trkpt>
      <trkpt lat="45.61617" lon="2.86261">
        <ele>1419</ele>
        <time>2012-09-15T12:20:35Z</time>
      </trkpt>
      <trkpt lat="45.61607" lon="2.86254">
        <ele>1419</ele>
        <time>2012-09-15T12:20:40Z</time>
      </trkpt>
      <trkpt lat="45.61596" lon="2.86245">
        <ele>1419</ele>
        <time>2012-09-15T12:20:45Z</time>
      </trkpt>
      <trkpt lat="45.61584" lon="2.86234">
        <ele>1419</ele>
        <time>2012-09-15T12:20:50Z</time>
      </trkpt>
      <trkpt lat="45.61572" lon="2.86225">
        <ele>1419</ele>
        <time>2012-09-15T12:20:55Z</time>
      </trkpt>
      <trkpt lat="45.61561" lon="2.86213">
        <ele>1420</ele>
        <time>2012-09-15T12:21:00Z</time>
      </trkpt>
      <trkpt lat="45.6155" lon="2.86204">
        <ele>1421</ele>
        <time>2012-09-15T12:21:05Z</time>
      </trkpt>
      <trkpt lat="45.6154" lon="2.86195">
        <ele>1421</ele>
        <time>2012-09-15T12:21:10Z</time>
      </trkpt>
      <trkpt lat="45.61531" lon="2.86186">
        <ele>1422</ele>
        <time>2012-09-15T12:21:15Z</time>
      </trkpt>
      <trkpt lat="45.61523" lon="2.86174">
        <ele>1423</ele>
        <time>2012-09-15T12:21:20Z</time>
      </trkpt>
      <trkpt lat="45.61515" lon="2.86162">
        <ele>1424</ele>
        <time>2012-09-15T12:21:25Z</time>
      </trkpt>
      <trkpt lat="45.61505" lon="2.86151">
        <ele>1424</ele>
        <time>2012-09-15T12:21:30Z</time>
      </trkpt>
      <trkpt lat="45.61495" lon="2.86138">
        <ele>1425</ele>
        <time>2012-09-15T12:21:35Z</time>
      </trkpt>
      <trkpt lat="45.61486" lon="2.86127">
        <ele>1426</ele>
        <time>2012-09-15T12:21:40Z</time>
      </trkpt>
      <trkpt lat="45.61477" lon="2.86113">
        <ele>1426</ele>
        <time>2012-09-15T12:21:45Z</time>
      </trkpt>
      <trkpt lat="45.61464" lon="2.86098">
        <ele>1426</ele>
        <time>2012-09-15T12:21:50Z</time>
      </trkpt>
      <trkpt lat="45.6145" lon="2.86074">
        <ele>1426</ele>
        <time>2012-09-15T12:21:55Z</time>
      </trkpt>
      <trkpt lat="45.6143" lon="2.8605">
        <ele>1426</ele>
        <time>2012-09-15T12:22:00Z</time>
      </trkpt>
      <trkpt lat="45.61412" lon="2.86027">
        <ele>1426</ele>
        <time>2012-09-15T12:22:05Z</time>
      </trkpt>
      <trkpt lat="45.61394" lon="2.86003">
        <ele>1426</ele>
        <time>2012-09-15T12:22:10Z</time>
      </trkpt>
      <trkpt lat="45.61375" lon="2.85978">
        <ele>1426</ele>
        <time>2012-09-15T12:22:15Z</time>
      </trkpt>
      <trkpt lat="45.61351" lon="2.85945">
        <ele>1425</ele>
        <time>2012-09-15T12:22:20Z</time>
      </trkpt>
      <trkpt lat="45.61324" lon="2.859">
        <ele>1422</ele>
        <time>2012-09-15T12:22:25Z</time>
      </trkpt>
      <trkpt lat="45.61293" lon="2.85854">
        <ele>1420</ele>
        <time>2012-09-15T12:22:30Z</time>
      </trkpt>
      <trkpt lat="45.61261" lon="2.8581">
        <ele>1420</ele>
        <time>2012-09-15T12:22:35Z</time>
      </trkpt>
      <trkpt lat="45.61232" lon="2.85772">
        <ele>1419</ele>
        <time>2012-09-15T12:22:40Z</time>
      </trkpt>
      <trkpt lat="45.61211" lon="2.85743">
        <ele>1419</ele>
        <time>2012-09-15T12:22:45Z</time>
      </trkpt>
      <trkpt lat="45.6119" lon="2.85719">
        <ele>1418</ele>
        <time>2012-09-15T12:22:50Z</time>
      </trkpt>
      <trkpt lat="45.61168" lon="2.85697">
        <ele>1417</ele>
        <time>2012-09-15T12:22:55Z</time>
      </trkpt>
      <trkpt lat="45.61144" lon="2.85681">
        <ele>1417</ele>
        <time>2012-09-15T12:23:00Z</time>
      </trkpt>
      <trkpt lat="45.61124" lon="2.85666">
        <ele>1416</ele>
        <time>2012-09-15T12:23:05Z</time>
      </trkpt>
      <trkpt lat="45.61105" lon="2.85651">
        <ele>1416</ele>
        <time>2012-09-15T12:23:10Z</time>
      </trkpt>
      <trkpt lat="45.61087" lon="2.85633">
        <ele>1416</ele>
        <time>2012-09-15T12:23:15Z</time>
      </trkpt>
      <trkpt lat="45.61069" lon="2.85615">
        <ele>1416</ele>
        <time>2012-09-15T12:23:20Z</time>
      </trkpt>
      <trkpt lat="45.61052" lon="2.85597">
        <ele>1416</ele>
        <time>2012-09-15T12:23:25Z</time>
      </trkpt>
      <trkpt lat="45.61038" lon="2.8558">
        <ele>1416</ele>
        <time>2012-09-15T12:23:30Z</time>
      </trkpt>
      <trkpt lat="45.61024" lon="2.85564">
        <ele>1416</ele>
        <time>2012-09-15T12:23:35Z</time>
      </trkpt>
      <trkpt lat="45.6101" lon="2.85549">
        <ele>1416</ele>
        <time>2012-09-15T12:23:40Z</time>
      </trkpt>
      <trkpt lat="45.60996" lon="2.85533">
        <ele>1416</ele>
        <time>2012-09-15T12:23:45Z</time>
      </trkpt>
      <trkpt lat="45.6098" lon="2.85516">
        <ele>1416</ele>
        <time>2012-09-15T12:23:50Z</time>
      </trkpt>
      <trkpt lat="45.60964" lon="2.85499">
        <ele>1416</ele>
        <time>2012-09-15T12:23:55Z</time>
      </trkpt>
      <trkpt lat="45.60947" lon="2.8548">
        <ele>1415</ele>
        <time>2012-09-15T12:24:00Z</time>
      </trkpt>
      <trkpt lat="45.60926" lon="2.85461">
        <ele>1414</ele>
        <time>2012-09-15T12:24:05Z</time>
      </trkpt>
      <trkpt lat="45.609" lon="2.85443">
        <ele>1413</ele>
        <time>2012-09-15T12:24:10Z</time>
      </trkpt>
      <trkpt lat="45.60868" lon="2.85428">
        <ele>1411</ele>
        <time>2012-09-15T12:24:15Z</time>
      </trkpt>
      <trkpt lat="45.60837" lon="2.85419">
        <ele>1411</ele>
        <time>2012-09-15T12:24:20Z</time>
      </trkpt>
      <trkpt lat="45.60808" lon="2.85417">
        <ele>1410</ele>
        <time>2012-09-15T12:24:25Z</time>
      </trkpt>
      <trkpt lat="45.60778" lon="2.85417">
        <ele>1409</ele>
        <time>2012-09-15T12:24:30Z</time>
      </trkpt>
      <trkpt lat="45.60744" lon="2.85417">
        <ele>1407</ele>
        <time>2012-09-15T12:24:35Z</time>
      </trkpt>
      <trkpt lat="45.60703" lon="2.85412">
        <ele>1404</ele>
        <time>2012-09-15T12:24:40Z</time>
      </trkpt>
      <trkpt lat="45.60661" lon="2.85406">
        <ele>1400</ele>
        <time>2012-09-15T12:24:45Z</time>
      </trkpt>
      <trkpt lat="45.60624" lon="2.854">
        <ele>1397</ele>
        <time>2012-09-15T12:24:50Z</time>
      </trkpt>
      <trkpt lat="45.60587" lon="2.85396">
        <ele>1395</ele>
        <time>2012-09-15T12:24:55Z</time>
      </trkpt>
      <trkpt lat="45.60555" lon="2.85383">
        <ele>1394</ele>
        <time>2012-09-15T12:25:00Z</time>
      </trkpt>
      <trkpt lat="45.60535" lon="2.85346">
        <ele>1393</ele>
        <time>2012-09-15T12:25:05Z</time>
      </trkpt>
      <trkpt lat="45.60516" lon="2.85309">
        <ele>1393</ele>
        <time>2012-09-15T12:25:10Z</time>
      </trkpt>
      <trkpt lat="45.60492" lon="2.85277">
        <ele>1391</ele>
        <time>2012-09-15T12:25:15Z</time>
      </trkpt>
      <trkpt lat="45.60469" lon="2.85243">
        <ele>1389</ele>
        <time>2012-09-15T12:25:20Z</time>
      </trkpt>
      <trkpt lat="45.60448" lon="2.85205">
        <ele>1388</ele>
        <time>2012-09-15T12:25:25Z</time>
      </trkpt>
      <trkpt lat="45.60434" lon="2.85166">
        <ele>1387</ele>
        <time>2012-09-15T12:25:30Z</time>
      </trkpt>
      <trkpt lat="45.6042" lon="2.85132">
        <ele>1387</ele>
        <time>2012-09-15T12:25:35Z</time>
      </trkpt>
      <trkpt lat="45.60397" lon="2.85112">
        <ele>1387</ele>
        <time>2012-09-15T12:25:40Z</time>
      </trkpt>
      <trkpt lat="45.60376" lon="2.85097">
        <ele>1387</ele>
        <time>2012-09-15T12:25:45Z</time>
      </trkpt>
      <trkpt lat="45.60353" lon="2.85081">
        <ele>1387</ele>
        <time>2012-09-15T12:25:50Z</time>
      </trkpt>
      <trkpt lat="45.60329" lon="2.85062">
        <ele>1387</ele>
        <time>2012-09-15T12:25:55Z</time>
      </trkpt>
      <trkpt lat="45.60304" lon="2.85043">
        <ele>1386</ele>
        <time>2012-09-15T12:26:00Z</time>
      </trkpt>
      <trkpt lat="45.60278" lon="2.8502">
        <ele>1385</ele>
        <time>2012-09-15T12:26:05Z</time>
      </trkpt>
      <trkpt lat="45.6025" lon="2.84993">
        <ele>1383</ele>
        <time>2012-09-15T12:26:10Z</time>
      </trkpt>
      <trkpt lat="45.60223" lon="2.84959">
        <ele>1381</ele>
        <time>2012-09-15T12:26:15Z</time>
      </trkpt>
      <trkpt lat="45.60196" lon="2.84925">
        <ele>1379</ele>
        <time>2012-09-15T12:26:20Z</time>
      </trkpt>
      <trkpt lat="45.60169" lon="2.84894">
        <ele>1378</ele>
        <time>2012-09-15T12:26:25Z</time>
      </trkpt>
      <trkpt lat="45.60143" lon="2.84861">
        <ele>1377</ele>
        <time>2012-09-15T12:26:30Z</time>
      </trkpt>
      <trkpt lat="45.60118" lon="2.8483">
        <ele>1375</ele>
        <time>2012-09-15T12:26:35Z</time>
      </trkpt>
      <trkpt lat="45.60091" lon="2.84796">
        <ele>1374</ele>
        <time>2012-09-15T12:26:40Z</time>
      </trkpt>
      <trkpt lat="45.60063" lon="2.84763">
        <ele>1372</ele>
        <time>2012-09-15T12:26:45Z</time>
      </trkpt>
      <trkpt lat="45.60034" lon="2.84727">
        <ele>1370</ele>
        <time>2012-09-15T12:26:50Z</time>
      </trkpt>
      <trkpt lat="45.60007" lon="2.84693">
        <ele>1368</ele>
        <time>2012-09-15T12:26:55Z</time>
      </trkpt>
      <trkpt lat="45.59985" lon="2.84659">
        <ele>1368</ele>
        <time>2012-09-15T12:27:00Z</time>
      </trkpt>
      <trkpt lat="45.59975" lon="2.84625">
        <ele>1368</ele>
        <time>2012-09-15T12:27:05Z</time>
      </trkpt>
      <trkpt lat="45.5997" lon="2.8459">
        <ele>1368</ele>
        <time>2012-09-15T12:27:10Z</time>
      </trkpt>
      <trkpt lat="45.59964" lon="2.84561">
        <ele>1368</ele>
        <time>2012-09-15T12:27:15Z</time>
      </trkpt>
      <trkpt lat="45.5996" lon="2.84538">
        <ele>1368</ele>
        <time>2012-09-15T12:27:20Z</time>
      </trkpt>
      <trkpt lat="45.59961" lon="2.84534">
        <ele>1368</ele>
        <time>2012-09-15T12:27:29Z</time>
      </trkpt>
      <trkpt lat="45.59964" lon="2.84532">
        <ele>1368</ele>
        <time>2012-09-15T12:27:35Z</time>
      </trkpt>
      <trkpt lat="45.59968" lon="2.8453">
        <ele>1368</ele>
        <time>2012-09-15T12:27:40Z</time>
      </trkpt>
      <trkpt lat="45.59979" lon="2.84517">
        <ele>1367</ele>
        <time>2012-09-15T12:27:45Z</time>
      </trkpt>
      <trkpt lat="45.59999" lon="2.84493">
        <ele>1366</ele>
        <time>2012-09-15T12:27:50Z</time>
      </trkpt>
      <trkpt lat="45.6002" lon="2.84458">
        <ele>1363</ele>
        <time>2012-09-15T12:27:55Z</time>
      </trkpt>
      <trkpt lat="45.60035" lon="2.84421">
        <ele>1360</ele>
        <time>2012-09-15T12:28:00Z</time>
      </trkpt>
      <trkpt lat="45.60054" lon="2.84385">
        <ele>1357</ele>
        <time>2012-09-15T12:28:06Z</time>
      </trkpt>
      <trkpt lat="45.60058" lon="2.84364">
        <ele>1355</ele>
        <time>2012-09-15T12:28:11Z</time>
      </trkpt>
      <trkpt lat="45.60061" lon="2.84343">
        <ele>1353</ele>
        <time>2012-09-15T12:28:16Z</time>
      </trkpt>
      <trkpt lat="45.60064" lon="2.84322">
        <ele>1351</ele>
        <time>2012-09-15T12:28:21Z</time>
      </trkpt>
      <trkpt lat="45.60061" lon="2.84304">
        <ele>1349</ele>
        <time>2012-09-15T12:28:26Z</time>
      </trkpt>
      <trkpt lat="45.60055" lon="2.84296">
        <ele>1348</ele>
        <time>2012-09-15T12:28:31Z</time>
      </trkpt>
      <trkpt lat="45.60051" lon="2.84292">
        <ele>1348</ele>
        <time>2012-09-15T12:28:36Z</time>
      </trkpt>
      <trkpt lat="45.6005" lon="2.84288">
        <ele>1348</ele>
        <time>2012-09-15T12:28:42Z</time>
      </trkpt>
      <trkpt lat="45.60052" lon="2.84284">
        <ele>1348</ele>
        <time>2012-09-15T12:28:48Z</time>
      </trkpt>
      <trkpt lat="45.60057" lon="2.84279">
        <ele>1347</ele>
        <time>2012-09-15T12:28:53Z</time>
      </trkpt>
      <trkpt lat="45.6007" lon="2.84262">
        <ele>1346</ele>
        <time>2012-09-15T12:28:58Z</time>
      </trkpt>
      <trkpt lat="45.60075" lon="2.84236">
        <ele>1344</ele>
        <time>2012-09-15T12:29:03Z</time>
      </trkpt>
      <trkpt lat="45.6008" lon="2.84212">
        <ele>1342</ele>
        <time>2012-09-15T12:29:08Z</time>
      </trkpt>
      <trkpt lat="45.60083" lon="2.84191">
        <ele>1337</ele>
        <time>2012-09-15T12:29:13Z</time>
      </trkpt>
      <trkpt lat="45.60089" lon="2.84166">
        <ele>1332</ele>
        <time>2012-09-15T12:29:18Z</time>
      </trkpt>
      <trkpt lat="45.60093" lon="2.84132">
        <ele>1327</ele>
        <time>2012-09-15T12:29:24Z</time>
      </trkpt>
      <trkpt lat="45.60094" lon="2.8409">
        <ele>1320</ele>
        <time>2012-09-15T12:29:29Z</time>
      </trkpt>
      <trkpt lat="45.60093" lon="2.84036">
        <ele>1314</ele>
        <time>2012-09-15T12:29:34Z</time>
      </trkpt>
      <trkpt lat="45.60078" lon="2.83982">
        <ele>1314</ele>
        <time>2012-09-15T12:29:39Z</time>
      </trkpt>
      <trkpt lat="45.60067" lon="2.83936">
        <ele>1315</ele>
        <time>2012-09-15T12:29:44Z</time>
      </trkpt>
      <trkpt lat="45.60064" lon="2.83886">
        <ele>1315</ele>
        <time>2012-09-15T12:29:49Z</time>
      </trkpt>
      <trkpt lat="45.60052" lon="2.83837">
        <ele>1315</ele>
        <time>2012-09-15T12:29:54Z</time>
      </trkpt>
      <trkpt lat="45.60038" lon="2.83793">
        <ele>1313</ele>
        <time>2012-09-15T12:29:59Z</time>
      </trkpt>
      <trkpt lat="45.60034" lon="2.83746">
        <ele>1312</ele>
        <time>2012-09-15T12:30:04Z</time>
      </trkpt>
      <trkpt lat="45.60025" lon="2.83693">
        <ele>1312</ele>
        <time>2012-09-15T12:30:09Z</time>
      </trkpt>
      <trkpt lat="45.60011" lon="2.83639">
        <ele>1311</ele>
        <time>2012-09-15T12:30:14Z</time>
      </trkpt>
      <trkpt lat="45.6" lon="2.836">
        <ele>1306</ele>
        <time>2012-09-15T12:30:19Z</time>
      </trkpt>
      <trkpt lat="45.59988" lon="2.83558">
        <ele>1303</ele>
        <time>2012-09-15T12:30:24Z</time>
      </trkpt>
      <trkpt lat="45.59974" lon="2.8351">
        <ele>1299</ele>
        <time>2012-09-15T12:30:29Z</time>
      </trkpt>
      <trkpt lat="45.59956" lon="2.8346">
        <ele>1295</ele>
        <time>2012-09-15T12:30:34Z</time>
      </trkpt>
      <trkpt lat="45.59939" lon="2.8342">
        <ele>1291</ele>
        <time>2012-09-15T12:30:39Z</time>
      </trkpt>
      <trkpt lat="45.59935" lon="2.83414">
        <ele>1285</ele>
        <time>2012-09-15T12:30:46Z</time>
      </trkpt>
      <trkpt lat="45.59933" lon="2.83411">
        <ele>1283</ele>
        <time>2012-09-15T12:30:53Z</time>
      </trkpt>
      <trkpt lat="45.59934" lon="2.83404">
        <ele>1281</ele>
        <time>2012-09-15T12:31:01Z</time>
      </trkpt>
      <trkpt lat="45.59927" lon="2.83381">
        <ele>1281</ele>
        <time>2012-09-15T12:31:06Z</time>
      </trkpt>
      <trkpt lat="45.59914" lon="2.83346">
        <ele>1279</ele>
        <time>2012-09-15T12:31:11Z</time>
      </trkpt>
      <trkpt lat="45.59899" lon="2.83303">
        <ele>1276</ele>
        <time>2012-09-15T12:31:16Z</time>
      </trkpt>
      <trkpt lat="45.59881" lon="2.83252">
        <ele>1272</ele>
        <time>2012-09-15T12:31:21Z</time>
      </trkpt>
      <trkpt lat="45.5986" lon="2.83195">
        <ele>1269</ele>
        <time>2012-09-15T12:31:26Z</time>
      </trkpt>
      <trkpt lat="45.59834" lon="2.83142">
        <ele>1265</ele>
        <time>2012-09-15T12:31:31Z</time>
      </trkpt>
      <trkpt lat="45.59799" lon="2.83108">
        <ele>1260</ele>
        <time>2012-09-15T12:31:36Z</time>
      </trkpt>
      <trkpt lat="45.59756" lon="2.83108">
        <ele>1255</ele>
        <time>2012-09-15T12:31:41Z</time>
      </trkpt>
      <trkpt lat="45.59746" lon="2.83076">
        <ele>1252</ele>
        <time>2012-09-15T12:31:46Z</time>
      </trkpt>
      <trkpt lat="45.59769" lon="2.83029">
        <ele>1249</ele>
        <time>2012-09-15T12:31:51Z</time>
      </trkpt>
      <trkpt lat="45.59786" lon="2.82982">
        <ele>1246</ele>
        <time>2012-09-15T12:31:56Z</time>
      </trkpt>
      <trkpt lat="45.59788" lon="2.82971">
        <ele>1245</ele>
        <time>2012-09-15T12:32:02Z</time>
      </trkpt>
      <trkpt lat="45.59787" lon="2.82961">
        <ele>1244</ele>
        <time>2012-09-15T12:32:07Z</time>
      </trkpt>
      <trkpt lat="45.59779" lon="2.82941">
        <ele>1244</ele>
        <time>2012-09-15T12:32:12Z</time>
      </trkpt>
      <trkpt lat="45.59767" lon="2.82913">
        <ele>1244</ele>
        <time>2012-09-15T12:32:17Z</time>
      </trkpt>
      <trkpt lat="45.59747" lon="2.82882">
        <ele>1243</ele>
        <time>2012-09-15T12:32:22Z</time>
      </trkpt>
      <trkpt lat="45.59708" lon="2.82837">
        <ele>1239</ele>
        <time>2012-09-15T12:32:28Z</time>
      </trkpt>
      <trkpt lat="45.59671" lon="2.82785">
        <ele>1235</ele>
        <time>2012-09-15T12:32:33Z</time>
      </trkpt>
      <trkpt lat="45.59632" lon="2.82719">
        <ele>1230</ele>
        <time>2012-09-15T12:32:38Z</time>
      </trkpt>
      <trkpt lat="45.59593" lon="2.82643">
        <ele>1226</ele>
        <time>2012-09-15T12:32:43Z</time>
      </trkpt>
      <trkpt lat="45.5955" lon="2.82564">
        <ele>1221</ele>
        <time>2012-09-15T12:32:48Z</time>
      </trkpt>
      <trkpt lat="45.59504" lon="2.82499">
        <ele>1216</ele>
        <time>2012-09-15T12:32:53Z</time>
      </trkpt>
      <trkpt lat="45.59468" lon="2.8245">
        <ele>1208</ele>
        <time>2012-09-15T12:32:58Z</time>
      </trkpt>
      <trkpt lat="45.59452" lon="2.8241">
        <ele>1200</ele>
        <time>2012-09-15T12:33:03Z</time>
      </trkpt>
      <trkpt lat="45.59449" lon="2.82407">
        <ele>1191</ele>
        <time>2012-09-15T12:33:11Z</time>
      </trkpt>
      <trkpt lat="45.59446" lon="2.82412">
        <ele>1186</ele>
        <time>2012-09-15T12:33:16Z</time>
      </trkpt>
      <trkpt lat="45.59441" lon="2.82428">
        <ele>1186</ele>
        <time>2012-09-15T12:33:22Z</time>
      </trkpt>
      <trkpt lat="45.59432" lon="2.82406">
        <ele>1183</ele>
        <time>2012-09-15T12:33:27Z</time>
      </trkpt>
      <trkpt lat="45.5942" lon="2.82375">
        <ele>1179</ele>
        <time>2012-09-15T12:33:32Z</time>
      </trkpt>
      <trkpt lat="45.59402" lon="2.8234">
        <ele>1179</ele>
        <time>2012-09-15T12:33:37Z</time>
      </trkpt>
      <trkpt lat="45.5939" lon="2.82299">
        <ele>1178</ele>
        <time>2012-09-15T12:33:42Z</time>
      </trkpt>
      <trkpt lat="45.59378" lon="2.82256">
        <ele>1177</ele>
        <time>2012-09-15T12:33:47Z</time>
      </trkpt>
      <trkpt lat="45.59367" lon="2.82207">
        <ele>1177</ele>
        <time>2012-09-15T12:33:52Z</time>
      </trkpt>
      <trkpt lat="45.59358" lon="2.82167">
        <ele>1177</ele>
        <time>2012-09-15T12:33:57Z</time>
      </trkpt>
      <trkpt lat="45.59344" lon="2.8213">
        <ele>1172</ele>
        <time>2012-09-15T12:34:02Z</time>
      </trkpt>
      <trkpt lat="45.59331" lon="2.82088">
        <ele>1167</ele>
        <time>2012-09-15T12:34:07Z</time>
      </trkpt>
      <trkpt lat="45.5933" lon="2.82037">
        <ele>1161</ele>
        <time>2012-09-15T12:34:12Z</time>
      </trkpt>
      <trkpt lat="45.59324" lon="2.81998">
        <ele>1152</ele>
        <time>2012-09-15T12:34:17Z</time>
      </trkpt>
      <trkpt lat="45.59327" lon="2.81949">
        <ele>1142</ele>
        <time>2012-09-15T12:34:22Z</time>
      </trkpt>
      <trkpt lat="45.59331" lon="2.81913">
        <ele>1135</ele>
        <time>2012-09-15T12:34:27Z</time>
      </trkpt>
      <trkpt lat="45.59315" lon="2.81917">
        <ele>1129</ele>
        <time>2012-09-15T12:34:32Z</time>
      </trkpt>
      <trkpt lat="45.59298" lon="2.81958">
        <ele>1119</ele>
        <time>2012-09-15T12:34:37Z</time>
      </trkpt>
      <trkpt lat="45.59285" lon="2.8201">
        <ele>1109</ele>
        <time>2012-09-15T12:34:42Z</time>
      </trkpt>
      <trkpt lat="45.59278" lon="2.8205">
        <ele>1105</ele>
        <time>2012-09-15T12:34:47Z</time>
      </trkpt>
      <trkpt lat="45.59272" lon="2.82025">
        <ele>1103</ele>
        <time>2012-09-15T12:34:52Z</time>
      </trkpt>
      <trkpt lat="45.59268" lon="2.81979">
        <ele>1103</ele>
        <time>2012-09-15T12:34:57Z</time>
      </trkpt>
      <trkpt lat="45.59248" lon="2.8192">
        <ele>1103</ele>
        <time>2012-09-15T12:35:02Z</time>
      </trkpt>
      <trkpt lat="45.59233" lon="2.81857">
        <ele>1103</ele>
        <time>2012-09-15T12:35:07Z</time>
      </trkpt>
      <trkpt lat="45.59221" lon="2.81795">
        <ele>1103</ele>
        <time>2012-09-15T12:35:12Z</time>
      </trkpt>
      <trkpt lat="45.59214" lon="2.81727">
        <ele>1100</ele>
        <time>2012-09-15T12:35:18Z</time>
      </trkpt>
      <trkpt lat="45.59209" lon="2.81678">
        <ele>1095</ele>
        <time>2012-09-15T12:35:23Z</time>
      </trkpt>
      <trkpt lat="45.59181" lon="2.81633">
        <ele>1090</ele>
        <time>2012-09-15T12:35:28Z</time>
      </trkpt>
      <trkpt lat="45.59158" lon="2.81584">
        <ele>1085</ele>
        <time>2012-09-15T12:35:33Z</time>
      </trkpt>
      <trkpt lat="45.59136" lon="2.81539">
        <ele>1080</ele>
        <time>2012-09-15T12:35:38Z</time>
      </trkpt>
      <trkpt lat="45.59102" lon="2.81512">
        <ele>1076</ele>
        <time>2012-09-15T12:35:43Z</time>
      </trkpt>
      <trkpt lat="45.59073" lon="2.81495">
        <ele>1073</ele>
        <time>2012-09-15T12:35:48Z</time>
      </trkpt>
      <trkpt lat="45.59052" lon="2.81465">
        <ele>1071</ele>
        <time>2012-09-15T12:35:53Z</time>
      </trkpt>
      <trkpt lat="45.5903" lon="2.81422">
        <ele>1070</ele>
        <time>2012-09-15T12:35:58Z</time>
      </trkpt>
      <trkpt lat="45.59011" lon="2.81381">
        <ele>1069</ele>
        <time>2012-09-15T12:36:03Z</time>
      </trkpt>
      <trkpt lat="45.58992" lon="2.81346">
        <ele>1068</ele>
        <time>2012-09-15T12:36:08Z</time>
      </trkpt>
      <trkpt lat="45.58983" lon="2.81345">
        <ele>1064</ele>
        <time>2012-09-15T12:36:13Z</time>
      </trkpt>
      <trkpt lat="45.58973" lon="2.81371">
        <ele>1059</ele>
        <time>2012-09-15T12:36:18Z</time>
      </trkpt>
      <trkpt lat="45.5895" lon="2.81375">
        <ele>1055</ele>
        <time>2012-09-15T12:36:23Z</time>
      </trkpt>
      <trkpt lat="45.58931" lon="2.81378">
        <ele>1055</ele>
        <time>2012-09-15T12:36:28Z</time>
      </trkpt>
      <trkpt lat="45.58903" lon="2.81386">
        <ele>1056</ele>
        <time>2012-09-15T12:36:33Z</time>
      </trkpt>
      <trkpt lat="45.58882" lon="2.81403">
        <ele>1060</ele>
        <time>2012-09-15T12:36:38Z</time>
      </trkpt>
      <trkpt lat="45.58871" lon="2.81402">
        <ele>1065</ele>
        <time>2012-09-15T12:36:43Z</time>
      </trkpt>
      <trkpt lat="45.58868" lon="2.814">
        <ele>1071</ele>
        <time>2012-09-15T12:36:49Z</time>
      </trkpt>
      <trkpt lat="45.58863" lon="2.81392">
        <ele>1074</ele>
        <time>2012-09-15T12:36:54Z</time>
      </trkpt>
      <trkpt lat="45.58856" lon="2.81387">
        <ele>1076</ele>
        <time>2012-09-15T12:36:59Z</time>
      </trkpt>
      <trkpt lat="45.5885" lon="2.81383">
        <ele>1077</ele>
        <time>2012-09-15T12:37:04Z</time>
      </trkpt>
      <trkpt lat="45.58844" lon="2.81379">
        <ele>1077</ele>
        <time>2012-09-15T12:37:09Z</time>
      </trkpt>
      <trkpt lat="45.58835" lon="2.81381">
        <ele>1077</ele>
        <time>2012-09-15T12:37:14Z</time>
      </trkpt>
      <trkpt lat="45.58827" lon="2.81384">
        <ele>1076</ele>
        <time>2012-09-15T12:37:19Z</time>
      </trkpt>
      <trkpt lat="45.58817" lon="2.81392">
        <ele>1074</ele>
        <time>2012-09-15T12:37:25Z</time>
      </trkpt>
      <trkpt lat="45.58808" lon="2.81399">
        <ele>1072</ele>
        <time>2012-09-15T12:37:30Z</time>
      </trkpt>
      <trkpt lat="45.58798" lon="2.81407">
        <ele>1072</ele>
        <time>2012-09-15T12:37:36Z</time>
      </trkpt>
      <trkpt lat="45.58789" lon="2.81422">
        <ele>1069</ele>
        <time>2012-09-15T12:37:41Z</time>
      </trkpt>
      <trkpt lat="45.58786" lon="2.81432">
        <ele>1066</ele>
        <time>2012-09-15T12:37:47Z</time>
      </trkpt>
      <trkpt lat="45.58785" lon="2.81436">
        <ele>1066</ele>
        <time>2012-09-15T12:37:53Z</time>
      </trkpt>
      <trkpt lat="45.5878" lon="2.81431">
        <ele>1068</ele>
        <time>2012-09-15T12:37:58Z</time>
      </trkpt>
      <trkpt lat="45.58775" lon="2.81419">
        <ele>1069</ele>
        <time>2012-09-15T12:38:03Z</time>
      </trkpt>
      <trkpt lat="45.58773" lon="2.81408">
        <ele>1072</ele>
        <time>2012-09-15T12:38:08Z</time>
      </trkpt>
      <trkpt lat="45.58773" lon="2.81398">
        <ele>1075</ele>
        <time>2012-09-15T12:38:13Z</time>
      </trkpt>
      <trkpt lat="45.58773" lon="2.81387">
        <ele>1077</ele>
        <time>2012-09-15T12:38:18Z</time>
      </trkpt>
      <trkpt lat="45.5877" lon="2.81376">
        <ele>1081</ele>
        <time>2012-09-15T12:38:23Z</time>
      </trkpt>
      <trkpt lat="45.58766" lon="2.81367">
        <ele>1085</ele>
        <time>2012-09-15T12:38:28Z</time>
      </trkpt>
      <trkpt lat="45.58765" lon="2.81355">
        <ele>1086</ele>
        <time>2012-09-15T12:38:33Z</time>
      </trkpt>
      <trkpt lat="45.58768" lon="2.81344">
        <ele>1087</ele>
        <time>2012-09-15T12:38:38Z</time>
      </trkpt>
      <trkpt lat="45.58783" lon="2.81323">
        <ele>1089</ele>
        <time>2012-09-15T12:38:43Z</time>
      </trkpt>
      <trkpt lat="45.58802" lon="2.81284">
        <ele>1089</ele>
        <time>2012-09-15T12:38:48Z</time>
      </trkpt>
      <trkpt lat="45.58807" lon="2.81237">
        <ele>1089</ele>
        <time>2012-09-15T12:38:53Z</time>
      </trkpt>
      <trkpt lat="45.58813" lon="2.81187">
        <ele>1088</ele>
        <time>2012-09-15T12:38:58Z</time>
      </trkpt>
      <trkpt lat="45.5882" lon="2.8114">
        <ele>1083</ele>
        <time>2012-09-15T12:39:03Z</time>
      </trkpt>
      <trkpt lat="45.58821" lon="2.81082">
        <ele>1078</ele>
        <time>2012-09-15T12:39:08Z</time>
      </trkpt>
      <trkpt lat="45.58832" lon="2.81028">
        <ele>1070</ele>
        <time>2012-09-15T12:39:13Z</time>
      </trkpt>
      <trkpt lat="45.5883" lon="2.80961">
        <ele>1060</ele>
        <time>2012-09-15T12:39:18Z</time>
      </trkpt>
      <trkpt lat="45.58837" lon="2.80901">
        <ele>1055</ele>
        <time>2012-09-15T12:39:23Z</time>
      </trkpt>
      <trkpt lat="45.58857" lon="2.80873">
        <ele>1052</ele>
        <time>2012-09-15T12:39:28Z</time>
      </trkpt>
      <trkpt lat="45.5886" lon="2.80846">
        <ele>1052</ele>
        <time>2012-09-15T12:39:33Z</time>
      </trkpt>
      <trkpt lat="45.58859" lon="2.80821">
        <ele>1052</ele>
        <time>2012-09-15T12:39:38Z</time>
      </trkpt>
      <trkpt lat="45.58857" lon="2.80796">
        <ele>1052</ele>
        <time>2012-09-15T12:39:43Z</time>
      </trkpt>
      <trkpt lat="45.58857" lon="2.80759">
        <ele>1054</ele>
        <time>2012-09-15T12:39:48Z</time>
      </trkpt>
      <trkpt lat="45.58856" lon="2.80718">
        <ele>1054</ele>
        <time>2012-09-15T12:39:53Z</time>
      </trkpt>
      <trkpt lat="45.58846" lon="2.80649">
        <ele>1054</ele>
        <time>2012-09-15T12:39:58Z</time>
      </trkpt>
      <trkpt lat="45.5883" lon="2.80571">
        <ele>1054</ele>
        <time>2012-09-15T12:40:03Z</time>
      </trkpt>
      <trkpt lat="45.58822" lon="2.80485">
        <ele>1054</ele>
        <time>2012-09-15T12:40:08Z</time>
      </trkpt>
      <trkpt lat="45.58823" lon="2.80411">
        <ele>1052</ele>
        <time>2012-09-15T12:40:13Z</time>
      </trkpt>
      <trkpt lat="45.58826" lon="2.80331">
        <ele>1047</ele>
        <time>2012-09-15T12:40:18Z</time>
      </trkpt>
      <trkpt lat="45.58815" lon="2.80258">
        <ele>1041</ele>
        <time>2012-09-15T12:40:23Z</time>
      </trkpt>
      <trkpt lat="45.58781" lon="2.80206">
        <ele>1034</ele>
        <time>2012-09-15T12:40:28Z</time>
      </trkpt>
      <trkpt lat="45.58737" lon="2.80159">
        <ele>1029</ele>
        <time>2012-09-15T12:40:33Z</time>
      </trkpt>
      <trkpt lat="45.5869" lon="2.80156">
        <ele>1024</ele>
        <time>2012-09-15T12:40:38Z</time>
      </trkpt>
      <trkpt lat="45.5865" lon="2.80162">
        <ele>1019</ele>
        <time>2012-09-15T12:40:43Z</time>
      </trkpt>
      <trkpt lat="45.58612" lon="2.80175">
        <ele>1018</ele>
        <time>2012-09-15T12:40:48Z</time>
      </trkpt>
      <trkpt lat="45.58579" lon="2.80201">
        <ele>1015</ele>
        <time>2012-09-15T12:40:53Z</time>
      </trkpt>
      <trkpt lat="45.58544" lon="2.80232">
        <ele>1014</ele>
        <time>2012-09-15T12:40:58Z</time>
      </trkpt>
      <trkpt lat="45.58509" lon="2.80261">
        <ele>1012</ele>
        <time>2012-09-15T12:41:03Z</time>
      </trkpt>
      <trkpt lat="45.58472" lon="2.80287">
        <ele>1011</ele>
        <time>2012-09-15T12:41:08Z</time>
      </trkpt>
      <trkpt lat="45.58432" lon="2.80312">
        <ele>1009</ele>
        <time>2012-09-15T12:41:13Z</time>
      </trkpt>
      <trkpt lat="45.58391" lon="2.80339">
        <ele>1006</ele>
        <time>2012-09-15T12:41:18Z</time>
      </trkpt>
      <trkpt lat="45.58353" lon="2.80358">
        <ele>1004</ele>
        <time>2012-09-15T12:41:23Z</time>
      </trkpt>
      <trkpt lat="45.58326" lon="2.80372">
        <ele>1003</ele>
        <time>2012-09-15T12:41:28Z</time>
      </trkpt>
      <trkpt lat="45.58317" lon="2.80369">
        <ele>1003</ele>
        <time>2012-09-15T12:41:36Z</time>
      </trkpt>
      <trkpt lat="45.58304" lon="2.8037">
        <ele>1003</ele>
        <time>2012-09-15T12:41:41Z</time>
      </trkpt>
      <trkpt lat="45.58289" lon="2.80387">
        <ele>1003</ele>
        <time>2012-09-15T12:41:46Z</time>
      </trkpt>
      <trkpt lat="45.58272" lon="2.8041">
        <ele>1003</ele>
        <time>2012-09-15T12:41:52Z</time>
      </trkpt>
      <trkpt lat="45.58259" lon="2.80428">
        <ele>1003</ele>
        <time>2012-09-15T12:41:57Z</time>
      </trkpt>
      <trkpt lat="45.58243" lon="2.8045">
        <ele>1003</ele>
        <time>2012-09-15T12:42:03Z</time>
      </trkpt>
      <trkpt lat="45.58229" lon="2.80469">
        <ele>1003</ele>
        <time>2012-09-15T12:42:08Z</time>
      </trkpt>
      <trkpt lat="45.58215" lon="2.80486">
        <ele>1004</ele>
        <time>2012-09-15T12:42:13Z</time>
      </trkpt>
      <trkpt lat="45.58201" lon="2.80503">
        <ele>1005</ele>
        <time>2012-09-15T12:42:18Z</time>
      </trkpt>
      <trkpt lat="45.58186" lon="2.80519">
        <ele>1007</ele>
        <time>2012-09-15T12:42:23Z</time>
      </trkpt>
      <trkpt lat="45.58172" lon="2.80536">
        <ele>1009</ele>
        <time>2012-09-15T12:42:28Z</time>
      </trkpt>
      <trkpt lat="45.58155" lon="2.80554">
        <ele>1011</ele>
        <time>2012-09-15T12:42:34Z</time>
      </trkpt>
      <trkpt lat="45.58137" lon="2.8057">
        <ele>1012</ele>
        <time>2012-09-15T12:42:40Z</time>
      </trkpt>
      <trkpt lat="45.58123" lon="2.80582">
        <ele>1013</ele>
        <time>2012-09-15T12:42:45Z</time>
      </trkpt>
      <trkpt lat="45.58105" lon="2.80594">
        <ele>1014</ele>
        <time>2012-09-15T12:42:51Z</time>
      </trkpt>
      <trkpt lat="45.5809" lon="2.80605">
        <ele>1015</ele>
        <time>2012-09-15T12:42:56Z</time>
      </trkpt>
      <trkpt lat="45.58071" lon="2.8062">
        <ele>1015</ele>
        <time>2012-09-15T12:43:02Z</time>
      </trkpt>
      <trkpt lat="45.58056" lon="2.80633">
        <ele>1017</ele>
        <time>2012-09-15T12:43:07Z</time>
      </trkpt>
      <trkpt lat="45.58042" lon="2.80644">
        <ele>1018</ele>
        <time>2012-09-15T12:43:12Z</time>
      </trkpt>
      <trkpt lat="45.58024" lon="2.80657">
        <ele>1018</ele>
        <time>2012-09-15T12:43:18Z</time>
      </trkpt>
      <trkpt lat="45.58012" lon="2.80666">
        <ele>1018</ele>
        <time>2012-09-15T12:43:23Z</time>
      </trkpt>
      <trkpt lat="45.57996" lon="2.80672">
        <ele>1018</ele>
        <time>2012-09-15T12:43:28Z</time>
      </trkpt>
      <trkpt lat="45.5798" lon="2.80678">
        <ele>1018</ele>
        <time>2012-09-15T12:43:33Z</time>
      </trkpt>
      <trkpt lat="45.57959" lon="2.80685">
        <ele>1018</ele>
        <time>2012-09-15T12:43:39Z</time>
      </trkpt>
      <trkpt lat="45.57941" lon="2.80691">
        <ele>1018</ele>
        <time>2012-09-15T12:43:44Z</time>
      </trkpt>
      <trkpt lat="45.57925" lon="2.80699">
        <ele>1018</ele>
        <time>2012-09-15T12:43:49Z</time>
      </trkpt>
      <trkpt lat="45.57909" lon="2.80709">
        <ele>1018</ele>
        <time>2012-09-15T12:43:54Z</time>
      </trkpt>
      <trkpt lat="45.57894" lon="2.80719">
        <ele>1019</ele>
        <time>2012-09-15T12:43:59Z</time>
      </trkpt>
      <trkpt lat="45.57878" lon="2.80731">
        <ele>1019</ele>
        <time>2012-09-15T12:44:04Z</time>
      </trkpt>
      <trkpt lat="45.57863" lon="2.80747">
        <ele>1020</ele>
        <time>2012-09-15T12:44:09Z</time>
      </trkpt>
      <trkpt lat="45.57847" lon="2.80764">
        <ele>1020</ele>
        <time>2012-09-15T12:44:14Z</time>
      </trkpt>
      <trkpt lat="45.57831" lon="2.8078">
        <ele>1021</ele>
        <time>2012-09-15T12:44:19Z</time>
      </trkpt>
      <trkpt lat="45.57816" lon="2.80796">
        <ele>1021</ele>
        <time>2012-09-15T12:44:24Z</time>
      </trkpt>
      <trkpt lat="45.57799" lon="2.80813">
        <ele>1023</ele>
        <time>2012-09-15T12:44:30Z</time>
      </trkpt>
      <trkpt lat="45.57785" lon="2.80828">
        <ele>1024</ele>
        <time>2012-09-15T12:44:35Z</time>
      </trkpt>
      <trkpt lat="45.57771" lon="2.80842">
        <ele>1024</ele>
        <time>2012-09-15T12:44:40Z</time>
      </trkpt>
      <trkpt lat="45.57756" lon="2.80857">
        <ele>1025</ele>
        <time>2012-09-15T12:44:45Z</time>
      </trkpt>
      <trkpt lat="45.5774" lon="2.80874">
        <ele>1025</ele>
        <time>2012-09-15T12:44:50Z</time>
      </trkpt>
      <trkpt lat="45.57723" lon="2.80892">
        <ele>1026</ele>
        <time>2012-09-15T12:44:55Z</time>
      </trkpt>
      <trkpt lat="45.57706" lon="2.8091">
        <ele>1028</ele>
        <time>2012-09-15T12:45:00Z</time>
      </trkpt>
      <trkpt lat="45.57688" lon="2.80927">
        <ele>1031</ele>
        <time>2012-09-15T12:45:05Z</time>
      </trkpt>
      <trkpt lat="45.57669" lon="2.8093">
        <ele>1032</ele>
        <time>2012-09-15T12:45:10Z</time>
      </trkpt>
      <trkpt lat="45.57666" lon="2.80898">
        <ele>1033</ele>
        <time>2012-09-15T12:45:15Z</time>
      </trkpt>
      <trkpt lat="45.57665" lon="2.80854">
        <ele>1033</ele>
        <time>2012-09-15T12:45:20Z</time>
      </trkpt>
      <trkpt lat="45.57653" lon="2.80804">
        <ele>1033</ele>
        <time>2012-09-15T12:45:26Z</time>
      </trkpt>
      <trkpt lat="45.57646" lon="2.80783">
        <ele>1033</ele>
        <time>2012-09-15T12:45:31Z</time>
      </trkpt>
      <trkpt lat="45.57631" lon="2.80787">
        <ele>1032</ele>
        <time>2012-09-15T12:45:36Z</time>
      </trkpt>
      <trkpt lat="45.57612" lon="2.80809">
        <ele>1032</ele>
        <time>2012-09-15T12:45:42Z</time>
      </trkpt>
      <trkpt lat="45.57593" lon="2.80828">
        <ele>1032</ele>
        <time>2012-09-15T12:45:48Z</time>
      </trkpt>
      <trkpt lat="45.57577" lon="2.80844">
        <ele>1032</ele>
        <time>2012-09-15T12:45:53Z</time>
      </trkpt>
      <trkpt lat="45.57561" lon="2.80859">
        <ele>1032</ele>
        <time>2012-09-15T12:45:58Z</time>
      </trkpt>
      <trkpt lat="45.57544" lon="2.8087">
        <ele>1032</ele>
        <time>2012-09-15T12:46:03Z</time>
      </trkpt>
      <trkpt lat="45.57523" lon="2.80881">
        <ele>1032</ele>
        <time>2012-09-15T12:46:08Z</time>
      </trkpt>
      <trkpt lat="45.57502" lon="2.80892">
        <ele>1032</ele>
        <time>2012-09-15T12:46:14Z</time>
      </trkpt>
      <trkpt lat="45.57485" lon="2.809">
        <ele>1032</ele>
        <time>2012-09-15T12:46:19Z</time>
      </trkpt>
      <trkpt lat="45.57468" lon="2.80908">
        <ele>1032</ele>
        <time>2012-09-15T12:46:24Z</time>
      </trkpt>
      <trkpt lat="45.57447" lon="2.80917">
        <ele>1033</ele>
        <time>2012-09-15T12:46:30Z</time>
      </trkpt>
      <trkpt lat="45.5743" lon="2.80924">
        <ele>1036</ele>
        <time>2012-09-15T12:46:35Z</time>
      </trkpt>
      <trkpt lat="45.57413" lon="2.80931">
        <ele>1038</ele>
        <time>2012-09-15T12:46:40Z</time>
      </trkpt>
      <trkpt lat="45.57396" lon="2.80942">
        <ele>1039</ele>
        <time>2012-09-15T12:46:45Z</time>
      </trkpt>
      <trkpt lat="45.57381" lon="2.80952">
        <ele>1040</ele>
        <time>2012-09-15T12:46:50Z</time>
      </trkpt>
      <trkpt lat="45.57367" lon="2.80961">
        <ele>1041</ele>
        <time>2012-09-15T12:46:55Z</time>
      </trkpt>
      <trkpt lat="45.57357" lon="2.80961">
        <ele>1042</ele>
        <time>2012-09-15T12:47:00Z</time>
      </trkpt>
      <trkpt lat="45.57351" lon="2.80948">
        <ele>1042</ele>
        <time>2012-09-15T12:47:05Z</time>
      </trkpt>
      <trkpt lat="45.57346" lon="2.80947">
        <ele>1042</ele>
        <time>2012-09-15T12:47:11Z</time>
      </trkpt>
      <trkpt lat="45.57341" lon="2.80947">
        <ele>1042</ele>
        <time>2012-09-15T12:47:16Z</time>
      </trkpt>
      <trkpt lat="45.57335" lon="2.80951">
        <ele>1042</ele>
        <time>2012-09-15T12:47:21Z</time>
      </trkpt>
      <trkpt lat="45.57334" lon="2.80952">
        <ele>1042</ele>
        <time>2012-09-15T12:47:22Z</time>
      </trkpt>
    </trkseg>
  </trk>
</gpx>